<?xml version="1.0" encoding="UTF-8" standalone="no" ?>
<gpx xmlns="http://www.topografix.com/GPX/1/1" xmlns:xsi="http://www.w3.org/2001/XMLSchema-instance" xsi:schemaLocation="http://www.topografix.com/GPX/1/1 http://www.topografix.com/GPX/1/1/gpx.xsd" version="1.1" creator="VisuGPX - https://www.visugpx.com">
  <metadata>
    <name>Haut LEON Tour</name>
    <desc><![CDATA[De Morlaix à Plouzané par la côte nord Finistère, du gravel, des anciennes voies ferrées, un peu de route.. .]]></desc>
  </metadata>
  <trk>
    <name><![CDATA[Haut LEON Tour]]></name>
    <desc><![CDATA[]]></desc>
    <extensions>
      <line xmlns="http://www.topografix.com/GPX/gpx_style/0/2">
        <color>0000FF</color>
        <opacity>1</opacity>
        <width>4</width>
      </line>
    </extensions>
    <trkseg>
      <trkpt lat="48.57797" lon="-3.83244">
        <ele>62.6</ele>
        <time>2025-09-22T12:10:58Z</time>
      </trkpt>
      <trkpt lat="48.57797" lon="-3.83244">
        <ele>62.6</ele>
        <time>2025-09-22T12:10:59Z</time>
      </trkpt>
      <trkpt lat="48.57797" lon="-3.83244">
        <ele>62.6</ele>
        <time>2025-09-22T12:11:02Z</time>
      </trkpt>
      <trkpt lat="48.57794" lon="-3.83243">
        <ele>62.6</ele>
        <time>2025-09-22T12:12:09Z</time>
      </trkpt>
      <trkpt lat="48.57792" lon="-3.83242">
        <ele>62.6</ele>
        <time>2025-09-22T12:12:12Z</time>
      </trkpt>
      <trkpt lat="48.57791" lon="-3.83243">
        <ele>62.6</ele>
        <time>2025-09-22T12:12:13Z</time>
      </trkpt>
      <trkpt lat="48.57789" lon="-3.83247">
        <ele>62.6</ele>
        <time>2025-09-22T12:12:15Z</time>
      </trkpt>
      <trkpt lat="48.57783" lon="-3.83256">
        <ele>62.4</ele>
        <time>2025-09-22T12:12:19Z</time>
      </trkpt>
      <trkpt lat="48.57772" lon="-3.83266">
        <ele>61.8</ele>
        <time>2025-09-22T12:12:24Z</time>
      </trkpt>
      <trkpt lat="48.57767" lon="-3.83266">
        <ele>61.4</ele>
        <time>2025-09-22T12:12:26Z</time>
      </trkpt>
      <trkpt lat="48.57761" lon="-3.83263">
        <ele>60.6</ele>
        <time>2025-09-22T12:12:30Z</time>
      </trkpt>
      <trkpt lat="48.57761" lon="-3.83263">
        <ele>60.4</ele>
        <time>2025-09-22T12:12:31Z</time>
      </trkpt>
      <trkpt lat="48.5776" lon="-3.83262">
        <ele>60.4</ele>
        <time>2025-09-22T12:12:32Z</time>
      </trkpt>
      <trkpt lat="48.57761" lon="-3.83258">
        <ele>60.4</ele>
        <time>2025-09-22T12:12:51Z</time>
      </trkpt>
      <trkpt lat="48.57763" lon="-3.83258">
        <ele>60.4</ele>
        <time>2025-09-22T12:12:53Z</time>
      </trkpt>
      <trkpt lat="48.57764" lon="-3.8326">
        <ele>60.4</ele>
        <time>2025-09-22T12:12:55Z</time>
      </trkpt>
      <trkpt lat="48.57769" lon="-3.83266">
        <ele>61</ele>
        <time>2025-09-22T12:12:58Z</time>
      </trkpt>
      <trkpt lat="48.57773" lon="-3.83266">
        <ele>61.6</ele>
        <time>2025-09-22T12:13:00Z</time>
      </trkpt>
      <trkpt lat="48.57775" lon="-3.83263">
        <ele>61.8</ele>
        <time>2025-09-22T12:13:02Z</time>
      </trkpt>
      <trkpt lat="48.57789" lon="-3.83248">
        <ele>62.4</ele>
        <time>2025-09-22T12:13:10Z</time>
      </trkpt>
      <trkpt lat="48.57794" lon="-3.83246">
        <ele>62.6</ele>
        <time>2025-09-22T12:13:15Z</time>
      </trkpt>
      <trkpt lat="48.57795" lon="-3.83246">
        <ele>62.8</ele>
        <time>2025-09-22T12:13:17Z</time>
      </trkpt>
      <trkpt lat="48.57799" lon="-3.83249">
        <ele>62.8</ele>
        <time>2025-09-22T12:13:21Z</time>
      </trkpt>
      <trkpt lat="48.578" lon="-3.83249">
        <ele>63</ele>
        <time>2025-09-22T12:13:25Z</time>
      </trkpt>
      <trkpt lat="48.578" lon="-3.83248">
        <ele>63</ele>
        <time>2025-09-22T12:13:31Z</time>
      </trkpt>
      <trkpt lat="48.578" lon="-3.83247">
        <ele>63</ele>
        <time>2025-09-22T12:13:33Z</time>
      </trkpt>
      <trkpt lat="48.57798" lon="-3.83248">
        <ele>62.8</ele>
        <time>2025-09-22T12:13:43Z</time>
      </trkpt>
      <trkpt lat="48.57798" lon="-3.83248">
        <ele>62.8</ele>
        <time>2025-09-22T12:13:45Z</time>
      </trkpt>
      <trkpt lat="48.57798" lon="-3.83248">
        <ele>62.8</ele>
        <time>2025-09-22T12:13:55Z</time>
      </trkpt>
      <trkpt lat="48.57798" lon="-3.83248">
        <ele>63</ele>
        <time>2025-09-22T12:14:03Z</time>
      </trkpt>
      <trkpt lat="48.57798" lon="-3.83248">
        <ele>63</ele>
        <time>2025-09-22T12:14:13Z</time>
      </trkpt>
      <trkpt lat="48.57798" lon="-3.83248">
        <ele>63</ele>
        <time>2025-09-22T12:14:32Z</time>
      </trkpt>
      <trkpt lat="48.57798" lon="-3.83248">
        <ele>62.8</ele>
        <time>2025-09-22T12:14:37Z</time>
      </trkpt>
      <trkpt lat="48.57798" lon="-3.83248">
        <ele>63.2</ele>
        <time>2025-09-22T12:15:02Z</time>
      </trkpt>
      <trkpt lat="48.57798" lon="-3.83248">
        <ele>63.2</ele>
        <time>2025-09-22T12:15:14Z</time>
      </trkpt>
      <trkpt lat="48.57798" lon="-3.83248">
        <ele>63.2</ele>
        <time>2025-09-22T12:15:16Z</time>
      </trkpt>
      <trkpt lat="48.57798" lon="-3.83248">
        <ele>63.2</ele>
        <time>2025-09-22T12:15:18Z</time>
      </trkpt>
      <trkpt lat="48.57798" lon="-3.83248">
        <ele>63.4</ele>
        <time>2025-09-22T12:15:33Z</time>
      </trkpt>
      <trkpt lat="48.57798" lon="-3.83248">
        <ele>63.2</ele>
        <time>2025-09-22T12:15:39Z</time>
      </trkpt>
      <trkpt lat="48.57798" lon="-3.83248">
        <ele>63.2</ele>
        <time>2025-09-22T12:15:45Z</time>
      </trkpt>
      <trkpt lat="48.57798" lon="-3.83248">
        <ele>63</ele>
        <time>2025-09-22T12:16:12Z</time>
      </trkpt>
      <trkpt lat="48.57798" lon="-3.83248">
        <ele>63</ele>
        <time>2025-09-22T12:16:21Z</time>
      </trkpt>
      <trkpt lat="48.57798" lon="-3.83248">
        <ele>62.8</ele>
        <time>2025-09-22T12:16:24Z</time>
      </trkpt>
      <trkpt lat="48.57798" lon="-3.83248">
        <ele>63</ele>
        <time>2025-09-22T12:16:31Z</time>
      </trkpt>
      <trkpt lat="48.57798" lon="-3.83248">
        <ele>63</ele>
        <time>2025-09-22T12:16:40Z</time>
      </trkpt>
      <trkpt lat="48.57798" lon="-3.83248">
        <ele>63.2</ele>
        <time>2025-09-22T12:16:47Z</time>
      </trkpt>
      <trkpt lat="48.57798" lon="-3.83248">
        <ele>63.2</ele>
        <time>2025-09-22T12:17:31Z</time>
      </trkpt>
      <trkpt lat="48.57798" lon="-3.83248">
        <ele>63.2</ele>
        <time>2025-09-22T12:17:37Z</time>
      </trkpt>
      <trkpt lat="48.57798" lon="-3.83248">
        <ele>63.2</ele>
        <time>2025-09-22T12:17:39Z</time>
      </trkpt>
      <trkpt lat="48.57798" lon="-3.83248">
        <ele>63.2</ele>
        <time>2025-09-22T12:17:50Z</time>
      </trkpt>
      <trkpt lat="48.57798" lon="-3.83248">
        <ele>63.2</ele>
        <time>2025-09-22T12:17:56Z</time>
      </trkpt>
      <trkpt lat="48.57798" lon="-3.83248">
        <ele>63.2</ele>
        <time>2025-09-22T12:18:04Z</time>
      </trkpt>
      <trkpt lat="48.57798" lon="-3.83248">
        <ele>63.2</ele>
        <time>2025-09-22T12:18:16Z</time>
      </trkpt>
      <trkpt lat="48.57798" lon="-3.83248">
        <ele>63.2</ele>
        <time>2025-09-22T12:18:20Z</time>
      </trkpt>
      <trkpt lat="48.57798" lon="-3.83248">
        <ele>63.2</ele>
        <time>2025-09-22T12:18:30Z</time>
      </trkpt>
      <trkpt lat="48.57798" lon="-3.83248">
        <ele>63.2</ele>
        <time>2025-09-22T12:19:06Z</time>
      </trkpt>
      <trkpt lat="48.57794" lon="-3.83247">
        <ele>63.2</ele>
        <time>2025-09-22T12:29:07Z</time>
      </trkpt>
      <trkpt lat="48.57794" lon="-3.83247">
        <ele>63.2</ele>
        <time>2025-09-22T12:29:08Z</time>
      </trkpt>
      <trkpt lat="48.57792" lon="-3.83248">
        <ele>63.2</ele>
        <time>2025-09-22T12:29:12Z</time>
      </trkpt>
      <trkpt lat="48.57791" lon="-3.83249">
        <ele>63.2</ele>
        <time>2025-09-22T12:29:13Z</time>
      </trkpt>
      <trkpt lat="48.57781" lon="-3.8326">
        <ele>63</ele>
        <time>2025-09-22T12:29:18Z</time>
      </trkpt>
      <trkpt lat="48.57773" lon="-3.83268">
        <ele>62.6</ele>
        <time>2025-09-22T12:29:21Z</time>
      </trkpt>
      <trkpt lat="48.57767" lon="-3.83265">
        <ele>62.2</ele>
        <time>2025-09-22T12:29:23Z</time>
      </trkpt>
      <trkpt lat="48.57762" lon="-3.83256">
        <ele>61.4</ele>
        <time>2025-09-22T12:29:26Z</time>
      </trkpt>
      <trkpt lat="48.57759" lon="-3.83252">
        <ele>61</ele>
        <time>2025-09-22T12:29:28Z</time>
      </trkpt>
      <trkpt lat="48.57757" lon="-3.83249">
        <ele>61</ele>
        <time>2025-09-22T12:29:29Z</time>
      </trkpt>
      <trkpt lat="48.57757" lon="-3.83246">
        <ele>60.8</ele>
        <time>2025-09-22T12:29:30Z</time>
      </trkpt>
      <trkpt lat="48.57757" lon="-3.83243">
        <ele>60.8</ele>
        <time>2025-09-22T12:29:31Z</time>
      </trkpt>
      <trkpt lat="48.57757" lon="-3.83234">
        <ele>60.4</ele>
        <time>2025-09-22T12:29:34Z</time>
      </trkpt>
      <trkpt lat="48.57756" lon="-3.83224">
        <ele>59.6</ele>
        <time>2025-09-22T12:29:38Z</time>
      </trkpt>
      <trkpt lat="48.57757" lon="-3.8322">
        <ele>59.6</ele>
        <time>2025-09-22T12:29:40Z</time>
      </trkpt>
      <trkpt lat="48.57764" lon="-3.83212">
        <ele>60</ele>
        <time>2025-09-22T12:29:47Z</time>
      </trkpt>
      <trkpt lat="48.57766" lon="-3.83209">
        <ele>60</ele>
        <time>2025-09-22T12:29:50Z</time>
      </trkpt>
      <trkpt lat="48.57764" lon="-3.83209">
        <ele>60.2</ele>
        <time>2025-09-22T12:29:52Z</time>
      </trkpt>
      <trkpt lat="48.57764" lon="-3.83213">
        <ele>60</ele>
        <time>2025-09-22T12:29:55Z</time>
      </trkpt>
      <trkpt lat="48.57764" lon="-3.83214">
        <ele>60</ele>
        <time>2025-09-22T12:29:56Z</time>
      </trkpt>
      <trkpt lat="48.57764" lon="-3.83219">
        <ele>59.8</ele>
        <time>2025-09-22T12:30:02Z</time>
      </trkpt>
      <trkpt lat="48.57756" lon="-3.83219">
        <ele>59.4</ele>
        <time>2025-09-22T12:30:07Z</time>
      </trkpt>
      <trkpt lat="48.57753" lon="-3.83218">
        <ele>59.2</ele>
        <time>2025-09-22T12:30:08Z</time>
      </trkpt>
      <trkpt lat="48.57738" lon="-3.8321">
        <ele>58</ele>
        <time>2025-09-22T12:30:12Z</time>
      </trkpt>
      <trkpt lat="48.57725" lon="-3.83202">
        <ele>57</ele>
        <time>2025-09-22T12:30:17Z</time>
      </trkpt>
      <trkpt lat="48.57723" lon="-3.83201">
        <ele>56.8</ele>
        <time>2025-09-22T12:30:18Z</time>
      </trkpt>
      <trkpt lat="48.5771" lon="-3.83192">
        <ele>55.8</ele>
        <time>2025-09-22T12:30:23Z</time>
      </trkpt>
      <trkpt lat="48.57701" lon="-3.83187">
        <ele>55.2</ele>
        <time>2025-09-22T12:30:26Z</time>
      </trkpt>
      <trkpt lat="48.57694" lon="-3.83184">
        <ele>54.8</ele>
        <time>2025-09-22T12:30:28Z</time>
      </trkpt>
      <trkpt lat="48.57679" lon="-3.83175">
        <ele>53.6</ele>
        <time>2025-09-22T12:30:32Z</time>
      </trkpt>
      <trkpt lat="48.57676" lon="-3.83174">
        <ele>53.4</ele>
        <time>2025-09-22T12:30:33Z</time>
      </trkpt>
      <trkpt lat="48.57662" lon="-3.83173">
        <ele>52.4</ele>
        <time>2025-09-22T12:30:37Z</time>
      </trkpt>
      <trkpt lat="48.5766" lon="-3.83173">
        <ele>52.4</ele>
        <time>2025-09-22T12:30:38Z</time>
      </trkpt>
      <trkpt lat="48.57655" lon="-3.83174">
        <ele>52</ele>
        <time>2025-09-22T12:30:41Z</time>
      </trkpt>
      <trkpt lat="48.57652" lon="-3.83174">
        <ele>52</ele>
        <time>2025-09-22T12:30:43Z</time>
      </trkpt>
      <trkpt lat="48.57649" lon="-3.83172">
        <ele>51.6</ele>
        <time>2025-09-22T12:30:46Z</time>
      </trkpt>
      <trkpt lat="48.57645" lon="-3.83171">
        <ele>51.4</ele>
        <time>2025-09-22T12:30:48Z</time>
      </trkpt>
      <trkpt lat="48.57629" lon="-3.83174">
        <ele>50.6</ele>
        <time>2025-09-22T12:30:53Z</time>
      </trkpt>
      <trkpt lat="48.57625" lon="-3.83175">
        <ele>50.4</ele>
        <time>2025-09-22T12:30:54Z</time>
      </trkpt>
      <trkpt lat="48.57604" lon="-3.83179">
        <ele>49</ele>
        <time>2025-09-22T12:30:58Z</time>
      </trkpt>
      <trkpt lat="48.57599" lon="-3.83181">
        <ele>48.8</ele>
        <time>2025-09-22T12:30:59Z</time>
      </trkpt>
      <trkpt lat="48.57591" lon="-3.8319">
        <ele>48</ele>
        <time>2025-09-22T12:31:01Z</time>
      </trkpt>
      <trkpt lat="48.57587" lon="-3.83195">
        <ele>47.8</ele>
        <time>2025-09-22T12:31:02Z</time>
      </trkpt>
      <trkpt lat="48.57578" lon="-3.83213">
        <ele>46.8</ele>
        <time>2025-09-22T12:31:06Z</time>
      </trkpt>
      <trkpt lat="48.57567" lon="-3.83237">
        <ele>45.6</ele>
        <time>2025-09-22T12:31:13Z</time>
      </trkpt>
      <trkpt lat="48.57563" lon="-3.83269">
        <ele>44.6</ele>
        <time>2025-09-22T12:31:17Z</time>
      </trkpt>
      <trkpt lat="48.57563" lon="-3.83277">
        <ele>44.2</ele>
        <time>2025-09-22T12:31:18Z</time>
      </trkpt>
      <trkpt lat="48.57562" lon="-3.83292">
        <ele>43.4</ele>
        <time>2025-09-22T12:31:20Z</time>
      </trkpt>
      <trkpt lat="48.57559" lon="-3.83309">
        <ele>42.4</ele>
        <time>2025-09-22T12:31:23Z</time>
      </trkpt>
      <trkpt lat="48.57553" lon="-3.83325">
        <ele>41.6</ele>
        <time>2025-09-22T12:31:26Z</time>
      </trkpt>
      <trkpt lat="48.5755" lon="-3.83329">
        <ele>41.4</ele>
        <time>2025-09-22T12:31:27Z</time>
      </trkpt>
      <trkpt lat="48.57545" lon="-3.83331">
        <ele>41</ele>
        <time>2025-09-22T12:31:28Z</time>
      </trkpt>
      <trkpt lat="48.57536" lon="-3.8334">
        <ele>40.2</ele>
        <time>2025-09-22T12:31:30Z</time>
      </trkpt>
      <trkpt lat="48.57531" lon="-3.83346">
        <ele>39.8</ele>
        <time>2025-09-22T12:31:31Z</time>
      </trkpt>
      <trkpt lat="48.57525" lon="-3.8335">
        <ele>39.4</ele>
        <time>2025-09-22T12:31:32Z</time>
      </trkpt>
      <trkpt lat="48.57519" lon="-3.83352">
        <ele>39</ele>
        <time>2025-09-22T12:31:33Z</time>
      </trkpt>
      <trkpt lat="48.57512" lon="-3.83352">
        <ele>38.6</ele>
        <time>2025-09-22T12:31:34Z</time>
      </trkpt>
      <trkpt lat="48.575" lon="-3.83347">
        <ele>37.6</ele>
        <time>2025-09-22T12:31:36Z</time>
      </trkpt>
      <trkpt lat="48.57495" lon="-3.83341">
        <ele>37.2</ele>
        <time>2025-09-22T12:31:37Z</time>
      </trkpt>
      <trkpt lat="48.57491" lon="-3.83334">
        <ele>36.8</ele>
        <time>2025-09-22T12:31:38Z</time>
      </trkpt>
      <trkpt lat="48.57489" lon="-3.83325">
        <ele>36.2</ele>
        <time>2025-09-22T12:31:39Z</time>
      </trkpt>
      <trkpt lat="48.57488" lon="-3.83316">
        <ele>35.6</ele>
        <time>2025-09-22T12:31:40Z</time>
      </trkpt>
      <trkpt lat="48.57487" lon="-3.83306">
        <ele>35.2</ele>
        <time>2025-09-22T12:31:41Z</time>
      </trkpt>
      <trkpt lat="48.57486" lon="-3.83296">
        <ele>34.6</ele>
        <time>2025-09-22T12:31:42Z</time>
      </trkpt>
      <trkpt lat="48.57487" lon="-3.83285">
        <ele>34.2</ele>
        <time>2025-09-22T12:31:43Z</time>
      </trkpt>
      <trkpt lat="48.57488" lon="-3.83275">
        <ele>33.6</ele>
        <time>2025-09-22T12:31:44Z</time>
      </trkpt>
      <trkpt lat="48.57489" lon="-3.83265">
        <ele>33</ele>
        <time>2025-09-22T12:31:45Z</time>
      </trkpt>
      <trkpt lat="48.57493" lon="-3.83244">
        <ele>32</ele>
        <time>2025-09-22T12:31:47Z</time>
      </trkpt>
      <trkpt lat="48.57498" lon="-3.83223">
        <ele>31</ele>
        <time>2025-09-22T12:31:49Z</time>
      </trkpt>
      <trkpt lat="48.57504" lon="-3.83189">
        <ele>29.6</ele>
        <time>2025-09-22T12:31:52Z</time>
      </trkpt>
      <trkpt lat="48.57511" lon="-3.83152">
        <ele>28</ele>
        <time>2025-09-22T12:31:55Z</time>
      </trkpt>
      <trkpt lat="48.57514" lon="-3.83139">
        <ele>27.4</ele>
        <time>2025-09-22T12:31:56Z</time>
      </trkpt>
      <trkpt lat="48.57516" lon="-3.83126">
        <ele>26.8</ele>
        <time>2025-09-22T12:31:57Z</time>
      </trkpt>
      <trkpt lat="48.57521" lon="-3.83101">
        <ele>25.6</ele>
        <time>2025-09-22T12:31:59Z</time>
      </trkpt>
      <trkpt lat="48.57525" lon="-3.83077">
        <ele>24.4</ele>
        <time>2025-09-22T12:32:01Z</time>
      </trkpt>
      <trkpt lat="48.57528" lon="-3.83066">
        <ele>24</ele>
        <time>2025-09-22T12:32:02Z</time>
      </trkpt>
      <trkpt lat="48.57532" lon="-3.83055">
        <ele>23.4</ele>
        <time>2025-09-22T12:32:03Z</time>
      </trkpt>
      <trkpt lat="48.57537" lon="-3.83046">
        <ele>22.8</ele>
        <time>2025-09-22T12:32:04Z</time>
      </trkpt>
      <trkpt lat="48.57542" lon="-3.83037">
        <ele>22.2</ele>
        <time>2025-09-22T12:32:05Z</time>
      </trkpt>
      <trkpt lat="48.57553" lon="-3.8302">
        <ele>21.4</ele>
        <time>2025-09-22T12:32:07Z</time>
      </trkpt>
      <trkpt lat="48.57559" lon="-3.83012">
        <ele>21.2</ele>
        <time>2025-09-22T12:32:08Z</time>
      </trkpt>
      <trkpt lat="48.57588" lon="-3.82973">
        <ele>19.8</ele>
        <time>2025-09-22T12:32:13Z</time>
      </trkpt>
      <trkpt lat="48.57594" lon="-3.82964">
        <ele>19.4</ele>
        <time>2025-09-22T12:32:14Z</time>
      </trkpt>
      <trkpt lat="48.57607" lon="-3.82948">
        <ele>18.4</ele>
        <time>2025-09-22T12:32:16Z</time>
      </trkpt>
      <trkpt lat="48.5762" lon="-3.82931">
        <ele>17.2</ele>
        <time>2025-09-22T12:32:18Z</time>
      </trkpt>
      <trkpt lat="48.57631" lon="-3.82916">
        <ele>16.2</ele>
        <time>2025-09-22T12:32:20Z</time>
      </trkpt>
      <trkpt lat="48.57637" lon="-3.82909">
        <ele>15.6</ele>
        <time>2025-09-22T12:32:21Z</time>
      </trkpt>
      <trkpt lat="48.57652" lon="-3.82893">
        <ele>14.4</ele>
        <time>2025-09-22T12:32:24Z</time>
      </trkpt>
      <trkpt lat="48.57656" lon="-3.82888">
        <ele>14</ele>
        <time>2025-09-22T12:32:25Z</time>
      </trkpt>
      <trkpt lat="48.57659" lon="-3.82884">
        <ele>13.8</ele>
        <time>2025-09-22T12:32:26Z</time>
      </trkpt>
      <trkpt lat="48.57662" lon="-3.82879">
        <ele>13.2</ele>
        <time>2025-09-22T12:32:27Z</time>
      </trkpt>
      <trkpt lat="48.57672" lon="-3.82864">
        <ele>12.2</ele>
        <time>2025-09-22T12:32:30Z</time>
      </trkpt>
      <trkpt lat="48.57687" lon="-3.82853">
        <ele>11</ele>
        <time>2025-09-22T12:32:35Z</time>
      </trkpt>
      <trkpt lat="48.57693" lon="-3.8285">
        <ele>10.6</ele>
        <time>2025-09-22T12:32:39Z</time>
      </trkpt>
      <trkpt lat="48.57695" lon="-3.82849">
        <ele>10.6</ele>
        <time>2025-09-22T12:32:43Z</time>
      </trkpt>
      <trkpt lat="48.57697" lon="-3.82841">
        <ele>10.6</ele>
        <time>2025-09-22T12:33:08Z</time>
      </trkpt>
      <trkpt lat="48.57701" lon="-3.82827">
        <ele>10.4</ele>
        <time>2025-09-22T12:33:13Z</time>
      </trkpt>
      <trkpt lat="48.57701" lon="-3.82814">
        <ele>10.4</ele>
        <time>2025-09-22T12:33:15Z</time>
      </trkpt>
      <trkpt lat="48.57699" lon="-3.82802">
        <ele>10.6</ele>
        <time>2025-09-22T12:33:17Z</time>
      </trkpt>
      <trkpt lat="48.57701" lon="-3.82777">
        <ele>10.8</ele>
        <time>2025-09-22T12:33:21Z</time>
      </trkpt>
      <trkpt lat="48.57702" lon="-3.82771">
        <ele>10.8</ele>
        <time>2025-09-22T12:33:22Z</time>
      </trkpt>
      <trkpt lat="48.57708" lon="-3.82761">
        <ele>10.6</ele>
        <time>2025-09-22T12:33:24Z</time>
      </trkpt>
      <trkpt lat="48.57713" lon="-3.82752">
        <ele>10.6</ele>
        <time>2025-09-22T12:33:26Z</time>
      </trkpt>
      <trkpt lat="48.57727" lon="-3.82734">
        <ele>10.2</ele>
        <time>2025-09-22T12:33:30Z</time>
      </trkpt>
      <trkpt lat="48.57734" lon="-3.82727">
        <ele>10.6</ele>
        <time>2025-09-22T12:33:32Z</time>
      </trkpt>
      <trkpt lat="48.57751" lon="-3.82718">
        <ele>11</ele>
        <time>2025-09-22T12:33:37Z</time>
      </trkpt>
      <trkpt lat="48.57759" lon="-3.82728">
        <ele>10.8</ele>
        <time>2025-09-22T12:33:40Z</time>
      </trkpt>
      <trkpt lat="48.57771" lon="-3.82751">
        <ele>10.4</ele>
        <time>2025-09-22T12:33:45Z</time>
      </trkpt>
      <trkpt lat="48.57777" lon="-3.82773">
        <ele>10.2</ele>
        <time>2025-09-22T12:33:50Z</time>
      </trkpt>
      <trkpt lat="48.57778" lon="-3.8278">
        <ele>10</ele>
        <time>2025-09-22T12:33:53Z</time>
      </trkpt>
      <trkpt lat="48.5778" lon="-3.82782">
        <ele>9.8</ele>
        <time>2025-09-22T12:33:54Z</time>
      </trkpt>
      <trkpt lat="48.57785" lon="-3.82784">
        <ele>9.8</ele>
        <time>2025-09-22T12:33:56Z</time>
      </trkpt>
      <trkpt lat="48.57794" lon="-3.82796">
        <ele>9.4</ele>
        <time>2025-09-22T12:34:02Z</time>
      </trkpt>
      <trkpt lat="48.57795" lon="-3.82798">
        <ele>9.4</ele>
        <time>2025-09-22T12:34:05Z</time>
      </trkpt>
      <trkpt lat="48.57793" lon="-3.82807">
        <ele>10</ele>
        <time>2025-09-22T12:35:15Z</time>
      </trkpt>
      <trkpt lat="48.57793" lon="-3.82807">
        <ele>10</ele>
        <time>2025-09-22T12:35:16Z</time>
      </trkpt>
      <trkpt lat="48.57793" lon="-3.82807">
        <ele>10</ele>
        <time>2025-09-22T12:35:17Z</time>
      </trkpt>
      <trkpt lat="48.57792" lon="-3.82806">
        <ele>10</ele>
        <time>2025-09-22T12:35:19Z</time>
      </trkpt>
      <trkpt lat="48.57793" lon="-3.82806">
        <ele>10</ele>
        <time>2025-09-22T12:35:20Z</time>
      </trkpt>
      <trkpt lat="48.57793" lon="-3.82807">
        <ele>10</ele>
        <time>2025-09-22T12:35:21Z</time>
      </trkpt>
      <trkpt lat="48.57794" lon="-3.82807">
        <ele>10.2</ele>
        <time>2025-09-22T12:35:26Z</time>
      </trkpt>
      <trkpt lat="48.57798" lon="-3.82815">
        <ele>10</ele>
        <time>2025-09-22T12:35:32Z</time>
      </trkpt>
      <trkpt lat="48.57806" lon="-3.82827">
        <ele>9.6</ele>
        <time>2025-09-22T12:35:38Z</time>
      </trkpt>
      <trkpt lat="48.57815" lon="-3.82844">
        <ele>9.6</ele>
        <time>2025-09-22T12:35:44Z</time>
      </trkpt>
      <trkpt lat="48.57825" lon="-3.82866">
        <ele>9.6</ele>
        <time>2025-09-22T12:35:50Z</time>
      </trkpt>
      <trkpt lat="48.57827" lon="-3.82869">
        <ele>9.6</ele>
        <time>2025-09-22T12:35:51Z</time>
      </trkpt>
      <trkpt lat="48.57829" lon="-3.82874">
        <ele>9.4</ele>
        <time>2025-09-22T12:35:54Z</time>
      </trkpt>
      <trkpt lat="48.5783" lon="-3.82874">
        <ele>9.4</ele>
        <time>2025-09-22T12:35:55Z</time>
      </trkpt>
      <trkpt lat="48.57831" lon="-3.82875">
        <ele>9.4</ele>
        <time>2025-09-22T12:36:07Z</time>
      </trkpt>
      <trkpt lat="48.57835" lon="-3.82876">
        <ele>9.2</ele>
        <time>2025-09-22T12:36:09Z</time>
      </trkpt>
      <trkpt lat="48.5785" lon="-3.8289">
        <ele>9.4</ele>
        <time>2025-09-22T12:36:14Z</time>
      </trkpt>
      <trkpt lat="48.57878" lon="-3.82905">
        <ele>9.6</ele>
        <time>2025-09-22T12:36:21Z</time>
      </trkpt>
      <trkpt lat="48.57895" lon="-3.82913">
        <ele>9.4</ele>
        <time>2025-09-22T12:36:26Z</time>
      </trkpt>
      <trkpt lat="48.57913" lon="-3.82923">
        <ele>9.6</ele>
        <time>2025-09-22T12:36:31Z</time>
      </trkpt>
      <trkpt lat="48.57918" lon="-3.82925">
        <ele>9.6</ele>
        <time>2025-09-22T12:36:32Z</time>
      </trkpt>
      <trkpt lat="48.57921" lon="-3.82928">
        <ele>9.6</ele>
        <time>2025-09-22T12:36:33Z</time>
      </trkpt>
      <trkpt lat="48.57933" lon="-3.82936">
        <ele>9.6</ele>
        <time>2025-09-22T12:36:36Z</time>
      </trkpt>
      <trkpt lat="48.57941" lon="-3.82941">
        <ele>9.4</ele>
        <time>2025-09-22T12:36:38Z</time>
      </trkpt>
      <trkpt lat="48.57969" lon="-3.82959">
        <ele>9.6</ele>
        <time>2025-09-22T12:36:45Z</time>
      </trkpt>
      <trkpt lat="48.57992" lon="-3.82974">
        <ele>9.6</ele>
        <time>2025-09-22T12:36:51Z</time>
      </trkpt>
      <trkpt lat="48.58028" lon="-3.82996">
        <ele>9.8</ele>
        <time>2025-09-22T12:36:59Z</time>
      </trkpt>
      <trkpt lat="48.58058" lon="-3.83015">
        <ele>9.8</ele>
        <time>2025-09-22T12:37:06Z</time>
      </trkpt>
      <trkpt lat="48.58078" lon="-3.83044">
        <ele>10</ele>
        <time>2025-09-22T12:37:12Z</time>
      </trkpt>
      <trkpt lat="48.58082" lon="-3.83049">
        <ele>10</ele>
        <time>2025-09-22T12:37:13Z</time>
      </trkpt>
      <trkpt lat="48.58099" lon="-3.83074">
        <ele>9.8</ele>
        <time>2025-09-22T12:37:18Z</time>
      </trkpt>
      <trkpt lat="48.58109" lon="-3.83088">
        <ele>9.8</ele>
        <time>2025-09-22T12:37:21Z</time>
      </trkpt>
      <trkpt lat="48.58116" lon="-3.83097">
        <ele>10</ele>
        <time>2025-09-22T12:37:23Z</time>
      </trkpt>
      <trkpt lat="48.5812" lon="-3.83102">
        <ele>10</ele>
        <time>2025-09-22T12:37:24Z</time>
      </trkpt>
      <trkpt lat="48.58131" lon="-3.83116">
        <ele>10</ele>
        <time>2025-09-22T12:37:27Z</time>
      </trkpt>
      <trkpt lat="48.5814" lon="-3.83129">
        <ele>10</ele>
        <time>2025-09-22T12:37:30Z</time>
      </trkpt>
      <trkpt lat="48.58159" lon="-3.8316">
        <ele>10</ele>
        <time>2025-09-22T12:37:37Z</time>
      </trkpt>
      <trkpt lat="48.58166" lon="-3.83175">
        <ele>10.2</ele>
        <time>2025-09-22T12:37:40Z</time>
      </trkpt>
      <trkpt lat="48.58166" lon="-3.83188">
        <ele>10.2</ele>
        <time>2025-09-22T12:37:42Z</time>
      </trkpt>
      <trkpt lat="48.58165" lon="-3.83194">
        <ele>10.2</ele>
        <time>2025-09-22T12:37:43Z</time>
      </trkpt>
      <trkpt lat="48.58161" lon="-3.83206">
        <ele>10.2</ele>
        <time>2025-09-22T12:37:45Z</time>
      </trkpt>
      <trkpt lat="48.58158" lon="-3.83212">
        <ele>10.2</ele>
        <time>2025-09-22T12:37:46Z</time>
      </trkpt>
      <trkpt lat="48.58157" lon="-3.83218">
        <ele>10.2</ele>
        <time>2025-09-22T12:37:47Z</time>
      </trkpt>
      <trkpt lat="48.58157" lon="-3.83231">
        <ele>10.2</ele>
        <time>2025-09-22T12:37:49Z</time>
      </trkpt>
      <trkpt lat="48.58159" lon="-3.83237">
        <ele>10.2</ele>
        <time>2025-09-22T12:37:50Z</time>
      </trkpt>
      <trkpt lat="48.5816" lon="-3.83243">
        <ele>10</ele>
        <time>2025-09-22T12:37:51Z</time>
      </trkpt>
      <trkpt lat="48.5817" lon="-3.83269">
        <ele>10.2</ele>
        <time>2025-09-22T12:37:56Z</time>
      </trkpt>
      <trkpt lat="48.58178" lon="-3.83288">
        <ele>10.2</ele>
        <time>2025-09-22T12:38:01Z</time>
      </trkpt>
      <trkpt lat="48.58183" lon="-3.833">
        <ele>10.4</ele>
        <time>2025-09-22T12:38:06Z</time>
      </trkpt>
      <trkpt lat="48.58187" lon="-3.83303">
        <ele>10.4</ele>
        <time>2025-09-22T12:38:09Z</time>
      </trkpt>
      <trkpt lat="48.58188" lon="-3.83304">
        <ele>10.4</ele>
        <time>2025-09-22T12:38:12Z</time>
      </trkpt>
      <trkpt lat="48.58189" lon="-3.83305">
        <ele>10.4</ele>
        <time>2025-09-22T12:38:13Z</time>
      </trkpt>
      <trkpt lat="48.58189" lon="-3.83306">
        <ele>10.6</ele>
        <time>2025-09-22T12:38:16Z</time>
      </trkpt>
      <trkpt lat="48.58192" lon="-3.83307">
        <ele>10.8</ele>
        <time>2025-09-22T12:38:19Z</time>
      </trkpt>
      <trkpt lat="48.58194" lon="-3.83309">
        <ele>10.8</ele>
        <time>2025-09-22T12:38:21Z</time>
      </trkpt>
      <trkpt lat="48.58197" lon="-3.83311">
        <ele>10.8</ele>
        <time>2025-09-22T12:38:23Z</time>
      </trkpt>
      <trkpt lat="48.58202" lon="-3.83315">
        <ele>10.6</ele>
        <time>2025-09-22T12:38:26Z</time>
      </trkpt>
      <trkpt lat="48.58205" lon="-3.83319">
        <ele>10.6</ele>
        <time>2025-09-22T12:38:31Z</time>
      </trkpt>
      <trkpt lat="48.58209" lon="-3.83323">
        <ele>10.6</ele>
        <time>2025-09-22T12:38:36Z</time>
      </trkpt>
      <trkpt lat="48.58209" lon="-3.83324">
        <ele>10.6</ele>
        <time>2025-09-22T12:38:38Z</time>
      </trkpt>
      <trkpt lat="48.58212" lon="-3.83328">
        <ele>10.4</ele>
        <time>2025-09-22T12:38:43Z</time>
      </trkpt>
      <trkpt lat="48.58223" lon="-3.83335">
        <ele>10.4</ele>
        <time>2025-09-22T12:38:51Z</time>
      </trkpt>
      <trkpt lat="48.5823" lon="-3.83341">
        <ele>10.4</ele>
        <time>2025-09-22T12:38:58Z</time>
      </trkpt>
      <trkpt lat="48.58237" lon="-3.83345">
        <ele>10.4</ele>
        <time>2025-09-22T12:39:04Z</time>
      </trkpt>
      <trkpt lat="48.58244" lon="-3.83353">
        <ele>10.4</ele>
        <time>2025-09-22T12:39:10Z</time>
      </trkpt>
      <trkpt lat="48.58254" lon="-3.8336">
        <ele>10.4</ele>
        <time>2025-09-22T12:39:17Z</time>
      </trkpt>
      <trkpt lat="48.58261" lon="-3.83365">
        <ele>10.4</ele>
        <time>2025-09-22T12:39:23Z</time>
      </trkpt>
      <trkpt lat="48.58261" lon="-3.83365">
        <ele>10.4</ele>
        <time>2025-09-22T12:39:26Z</time>
      </trkpt>
      <trkpt lat="48.58264" lon="-3.83368">
        <ele>10.4</ele>
        <time>2025-09-22T12:39:34Z</time>
      </trkpt>
      <trkpt lat="48.58265" lon="-3.83369">
        <ele>10.4</ele>
        <time>2025-09-22T12:39:35Z</time>
      </trkpt>
      <trkpt lat="48.58269" lon="-3.83372">
        <ele>10.4</ele>
        <time>2025-09-22T12:39:38Z</time>
      </trkpt>
      <trkpt lat="48.58271" lon="-3.83374">
        <ele>10.4</ele>
        <time>2025-09-22T12:39:40Z</time>
      </trkpt>
      <trkpt lat="48.58274" lon="-3.83377">
        <ele>10.4</ele>
        <time>2025-09-22T12:39:43Z</time>
      </trkpt>
      <trkpt lat="48.58277" lon="-3.83378">
        <ele>10.4</ele>
        <time>2025-09-22T12:39:45Z</time>
      </trkpt>
      <trkpt lat="48.58283" lon="-3.83384">
        <ele>10.2</ele>
        <time>2025-09-22T12:39:52Z</time>
      </trkpt>
      <trkpt lat="48.5829" lon="-3.83391">
        <ele>10.2</ele>
        <time>2025-09-22T12:39:59Z</time>
      </trkpt>
      <trkpt lat="48.58299" lon="-3.834">
        <ele>10.2</ele>
        <time>2025-09-22T12:40:09Z</time>
      </trkpt>
      <trkpt lat="48.58306" lon="-3.83405">
        <ele>10.2</ele>
        <time>2025-09-22T12:40:17Z</time>
      </trkpt>
      <trkpt lat="48.58317" lon="-3.83414">
        <ele>10.2</ele>
        <time>2025-09-22T12:40:25Z</time>
      </trkpt>
      <trkpt lat="48.58324" lon="-3.8342">
        <ele>10.2</ele>
        <time>2025-09-22T12:40:31Z</time>
      </trkpt>
      <trkpt lat="48.58331" lon="-3.83427">
        <ele>10.4</ele>
        <time>2025-09-22T12:40:39Z</time>
      </trkpt>
      <trkpt lat="48.58331" lon="-3.83426">
        <ele>10.4</ele>
        <time>2025-09-22T12:40:40Z</time>
      </trkpt>
      <trkpt lat="48.58332" lon="-3.83429">
        <ele>10.4</ele>
        <time>2025-09-22T12:40:47Z</time>
      </trkpt>
      <trkpt lat="48.58335" lon="-3.83431">
        <ele>10.2</ele>
        <time>2025-09-22T12:40:50Z</time>
      </trkpt>
      <trkpt lat="48.58343" lon="-3.83436">
        <ele>10.4</ele>
        <time>2025-09-22T12:40:57Z</time>
      </trkpt>
      <trkpt lat="48.58351" lon="-3.83443">
        <ele>10.4</ele>
        <time>2025-09-22T12:41:04Z</time>
      </trkpt>
      <trkpt lat="48.58355" lon="-3.83445">
        <ele>10.4</ele>
        <time>2025-09-22T12:41:10Z</time>
      </trkpt>
      <trkpt lat="48.58355" lon="-3.83445">
        <ele>10.2</ele>
        <time>2025-09-22T12:41:11Z</time>
      </trkpt>
      <trkpt lat="48.58356" lon="-3.83447">
        <ele>10.4</ele>
        <time>2025-09-22T12:41:14Z</time>
      </trkpt>
      <trkpt lat="48.58359" lon="-3.8345">
        <ele>10.2</ele>
        <time>2025-09-22T12:41:17Z</time>
      </trkpt>
      <trkpt lat="48.58368" lon="-3.8346">
        <ele>10.2</ele>
        <time>2025-09-22T12:41:25Z</time>
      </trkpt>
      <trkpt lat="48.58372" lon="-3.83465">
        <ele>10.2</ele>
        <time>2025-09-22T12:41:31Z</time>
      </trkpt>
      <trkpt lat="48.58373" lon="-3.83466">
        <ele>10.2</ele>
        <time>2025-09-22T12:41:32Z</time>
      </trkpt>
      <trkpt lat="48.58373" lon="-3.83464">
        <ele>10.2</ele>
        <time>2025-09-22T12:41:37Z</time>
      </trkpt>
      <trkpt lat="48.58373" lon="-3.83466">
        <ele>10</ele>
        <time>2025-09-22T12:41:39Z</time>
      </trkpt>
      <trkpt lat="48.58375" lon="-3.83461">
        <ele>10.2</ele>
        <time>2025-09-22T12:42:01Z</time>
      </trkpt>
      <trkpt lat="48.58374" lon="-3.83465">
        <ele>10.2</ele>
        <time>2025-09-22T12:42:05Z</time>
      </trkpt>
      <trkpt lat="48.58374" lon="-3.83468">
        <ele>10.2</ele>
        <time>2025-09-22T12:42:07Z</time>
      </trkpt>
      <trkpt lat="48.58375" lon="-3.83474">
        <ele>10.4</ele>
        <time>2025-09-22T12:42:12Z</time>
      </trkpt>
      <trkpt lat="48.58368" lon="-3.83484">
        <ele>10.2</ele>
        <time>2025-09-22T12:43:06Z</time>
      </trkpt>
      <trkpt lat="48.58368" lon="-3.83484">
        <ele>10.2</ele>
        <time>2025-09-22T12:43:07Z</time>
      </trkpt>
      <trkpt lat="48.58366" lon="-3.83487">
        <ele>10.2</ele>
        <time>2025-09-22T12:43:11Z</time>
      </trkpt>
      <trkpt lat="48.58366" lon="-3.83487">
        <ele>10.2</ele>
        <time>2025-09-22T12:43:12Z</time>
      </trkpt>
      <trkpt lat="48.58367" lon="-3.8349">
        <ele>10.4</ele>
        <time>2025-09-22T12:43:39Z</time>
      </trkpt>
      <trkpt lat="48.58365" lon="-3.83494">
        <ele>10.4</ele>
        <time>2025-09-22T12:43:42Z</time>
      </trkpt>
      <trkpt lat="48.58364" lon="-3.83497">
        <ele>10.4</ele>
        <time>2025-09-22T12:43:44Z</time>
      </trkpt>
      <trkpt lat="48.58363" lon="-3.83498">
        <ele>10.4</ele>
        <time>2025-09-22T12:43:45Z</time>
      </trkpt>
      <trkpt lat="48.58363" lon="-3.835">
        <ele>10.4</ele>
        <time>2025-09-22T12:43:46Z</time>
      </trkpt>
      <trkpt lat="48.5836" lon="-3.8351">
        <ele>10.4</ele>
        <time>2025-09-22T12:43:53Z</time>
      </trkpt>
      <trkpt lat="48.58358" lon="-3.83516">
        <ele>10.6</ele>
        <time>2025-09-22T12:43:57Z</time>
      </trkpt>
      <trkpt lat="48.58354" lon="-3.83523">
        <ele>10.6</ele>
        <time>2025-09-22T12:44:03Z</time>
      </trkpt>
      <trkpt lat="48.58353" lon="-3.83527">
        <ele>10.6</ele>
        <time>2025-09-22T12:44:06Z</time>
      </trkpt>
      <trkpt lat="48.58353" lon="-3.8353">
        <ele>10.8</ele>
        <time>2025-09-22T12:44:10Z</time>
      </trkpt>
      <trkpt lat="48.5835" lon="-3.83531">
        <ele>11</ele>
        <time>2025-09-22T12:44:12Z</time>
      </trkpt>
      <trkpt lat="48.58349" lon="-3.83532">
        <ele>11</ele>
        <time>2025-09-22T12:44:13Z</time>
      </trkpt>
      <trkpt lat="48.58348" lon="-3.83535">
        <ele>10.8</ele>
        <time>2025-09-22T12:44:21Z</time>
      </trkpt>
      <trkpt lat="48.5835" lon="-3.83531">
        <ele>11</ele>
        <time>2025-09-22T12:44:23Z</time>
      </trkpt>
      <trkpt lat="48.58343" lon="-3.83541">
        <ele>11</ele>
        <time>2025-09-22T12:44:28Z</time>
      </trkpt>
      <trkpt lat="48.58342" lon="-3.83539">
        <ele>11</ele>
        <time>2025-09-22T12:44:31Z</time>
      </trkpt>
      <trkpt lat="48.58338" lon="-3.83556">
        <ele>11.8</ele>
        <time>2025-09-22T12:45:19Z</time>
      </trkpt>
      <trkpt lat="48.58337" lon="-3.83556">
        <ele>11.8</ele>
        <time>2025-09-22T12:45:21Z</time>
      </trkpt>
      <trkpt lat="48.58335" lon="-3.83556">
        <ele>11.8</ele>
        <time>2025-09-22T12:45:25Z</time>
      </trkpt>
      <trkpt lat="48.58335" lon="-3.83557">
        <ele>11.8</ele>
        <time>2025-09-22T12:45:27Z</time>
      </trkpt>
      <trkpt lat="48.58333" lon="-3.83557">
        <ele>11.6</ele>
        <time>2025-09-22T12:45:30Z</time>
      </trkpt>
      <trkpt lat="48.58334" lon="-3.83556">
        <ele>11.6</ele>
        <time>2025-09-22T12:45:32Z</time>
      </trkpt>
      <trkpt lat="48.58334" lon="-3.83555">
        <ele>11.6</ele>
        <time>2025-09-22T12:45:34Z</time>
      </trkpt>
      <trkpt lat="48.58332" lon="-3.83556">
        <ele>11.6</ele>
        <time>2025-09-22T12:45:37Z</time>
      </trkpt>
      <trkpt lat="48.5833" lon="-3.8356">
        <ele>11.6</ele>
        <time>2025-09-22T12:45:43Z</time>
      </trkpt>
      <trkpt lat="48.58331" lon="-3.83562">
        <ele>11.6</ele>
        <time>2025-09-22T12:45:44Z</time>
      </trkpt>
      <trkpt lat="48.58332" lon="-3.83562">
        <ele>11.4</ele>
        <time>2025-09-22T12:45:46Z</time>
      </trkpt>
      <trkpt lat="48.58336" lon="-3.83558">
        <ele>11.4</ele>
        <time>2025-09-22T12:45:53Z</time>
      </trkpt>
      <trkpt lat="48.58338" lon="-3.83559">
        <ele>11.6</ele>
        <time>2025-09-22T12:46:00Z</time>
      </trkpt>
      <trkpt lat="48.58338" lon="-3.83558">
        <ele>11.6</ele>
        <time>2025-09-22T12:46:03Z</time>
      </trkpt>
      <trkpt lat="48.58338" lon="-3.83556">
        <ele>11.8</ele>
        <time>2025-09-22T12:46:35Z</time>
      </trkpt>
      <trkpt lat="48.58338" lon="-3.83556">
        <ele>11.8</ele>
        <time>2025-09-22T12:46:36Z</time>
      </trkpt>
      <trkpt lat="48.58338" lon="-3.83554">
        <ele>11.8</ele>
        <time>2025-09-22T12:46:37Z</time>
      </trkpt>
      <trkpt lat="48.58335" lon="-3.83559">
        <ele>11.8</ele>
        <time>2025-09-22T12:47:08Z</time>
      </trkpt>
      <trkpt lat="48.58333" lon="-3.83558">
        <ele>11.8</ele>
        <time>2025-09-22T12:47:11Z</time>
      </trkpt>
      <trkpt lat="48.58331" lon="-3.83557">
        <ele>11.8</ele>
        <time>2025-09-22T12:47:15Z</time>
      </trkpt>
      <trkpt lat="48.58338" lon="-3.83557">
        <ele>11.8</ele>
        <time>2025-09-22T12:47:34Z</time>
      </trkpt>
      <trkpt lat="48.58339" lon="-3.83557">
        <ele>11.8</ele>
        <time>2025-09-22T12:47:36Z</time>
      </trkpt>
      <trkpt lat="48.58348" lon="-3.83561">
        <ele>12</ele>
        <time>2025-09-22T12:47:40Z</time>
      </trkpt>
      <trkpt lat="48.5834" lon="-3.83559">
        <ele>11.8</ele>
        <time>2025-09-22T12:47:43Z</time>
      </trkpt>
      <trkpt lat="48.58325" lon="-3.83556">
        <ele>11.8</ele>
        <time>2025-09-22T12:47:45Z</time>
      </trkpt>
      <trkpt lat="48.58324" lon="-3.83549">
        <ele>11.8</ele>
        <time>2025-09-22T12:47:49Z</time>
      </trkpt>
      <trkpt lat="48.5832" lon="-3.8355">
        <ele>12</ele>
        <time>2025-09-22T12:47:55Z</time>
      </trkpt>
      <trkpt lat="48.5832" lon="-3.83551">
        <ele>12</ele>
        <time>2025-09-22T12:47:56Z</time>
      </trkpt>
      <trkpt lat="48.58322" lon="-3.83548">
        <ele>12</ele>
        <time>2025-09-22T12:48:02Z</time>
      </trkpt>
      <trkpt lat="48.58327" lon="-3.83554">
        <ele>11.8</ele>
        <time>2025-09-22T12:48:05Z</time>
      </trkpt>
      <trkpt lat="48.5833" lon="-3.83553">
        <ele>12</ele>
        <time>2025-09-22T12:48:07Z</time>
      </trkpt>
      <trkpt lat="48.58333" lon="-3.83553">
        <ele>12</ele>
        <time>2025-09-22T12:48:12Z</time>
      </trkpt>
      <trkpt lat="48.58334" lon="-3.83553">
        <ele>12</ele>
        <time>2025-09-22T12:48:13Z</time>
      </trkpt>
      <trkpt lat="48.58338" lon="-3.83552">
        <ele>12</ele>
        <time>2025-09-22T12:48:20Z</time>
      </trkpt>
      <trkpt lat="48.58342" lon="-3.83556">
        <ele>12</ele>
        <time>2025-09-22T12:48:45Z</time>
      </trkpt>
      <trkpt lat="48.58344" lon="-3.83555">
        <ele>12</ele>
        <time>2025-09-22T12:48:49Z</time>
      </trkpt>
      <trkpt lat="48.58352" lon="-3.83563">
        <ele>12</ele>
        <time>2025-09-22T12:49:03Z</time>
      </trkpt>
      <trkpt lat="48.58351" lon="-3.83558">
        <ele>12</ele>
        <time>2025-09-22T12:49:04Z</time>
      </trkpt>
      <trkpt lat="48.58344" lon="-3.83559">
        <ele>12</ele>
        <time>2025-09-22T12:49:05Z</time>
      </trkpt>
      <trkpt lat="48.58346" lon="-3.83552">
        <ele>12</ele>
        <time>2025-09-22T12:49:07Z</time>
      </trkpt>
      <trkpt lat="48.58347" lon="-3.8355">
        <ele>12</ele>
        <time>2025-09-22T12:49:11Z</time>
      </trkpt>
      <trkpt lat="48.58358" lon="-3.83538">
        <ele>12</ele>
        <time>2025-09-22T12:49:19Z</time>
      </trkpt>
      <trkpt lat="48.58353" lon="-3.83525">
        <ele>11.4</ele>
        <time>2025-09-22T12:49:25Z</time>
      </trkpt>
      <trkpt lat="48.58356" lon="-3.83515">
        <ele>11.4</ele>
        <time>2025-09-22T12:49:32Z</time>
      </trkpt>
      <trkpt lat="48.5836" lon="-3.83503">
        <ele>11.8</ele>
        <time>2025-09-22T12:49:40Z</time>
      </trkpt>
      <trkpt lat="48.58363" lon="-3.83494">
        <ele>11.6</ele>
        <time>2025-09-22T12:49:46Z</time>
      </trkpt>
      <trkpt lat="48.58365" lon="-3.83488">
        <ele>11.6</ele>
        <time>2025-09-22T12:49:51Z</time>
      </trkpt>
      <trkpt lat="48.58366" lon="-3.83488">
        <ele>11.6</ele>
        <time>2025-09-22T12:49:52Z</time>
      </trkpt>
      <trkpt lat="48.58368" lon="-3.83485">
        <ele>11.6</ele>
        <time>2025-09-22T12:49:56Z</time>
      </trkpt>
      <trkpt lat="48.5837" lon="-3.83481">
        <ele>11.6</ele>
        <time>2025-09-22T12:49:59Z</time>
      </trkpt>
      <trkpt lat="48.5837" lon="-3.83477">
        <ele>11.6</ele>
        <time>2025-09-22T12:50:06Z</time>
      </trkpt>
      <trkpt lat="48.58372" lon="-3.83473">
        <ele>11.6</ele>
        <time>2025-09-22T12:50:08Z</time>
      </trkpt>
      <trkpt lat="48.58375" lon="-3.83469">
        <ele>11.4</ele>
        <time>2025-09-22T12:50:12Z</time>
      </trkpt>
      <trkpt lat="48.58377" lon="-3.8347">
        <ele>11.4</ele>
        <time>2025-09-22T12:50:14Z</time>
      </trkpt>
      <trkpt lat="48.58385" lon="-3.83474">
        <ele>11.4</ele>
        <time>2025-09-22T12:50:22Z</time>
      </trkpt>
      <trkpt lat="48.5839" lon="-3.83477">
        <ele>11.4</ele>
        <time>2025-09-22T12:50:29Z</time>
      </trkpt>
      <trkpt lat="48.58398" lon="-3.83483">
        <ele>11.4</ele>
        <time>2025-09-22T12:50:37Z</time>
      </trkpt>
      <trkpt lat="48.58407" lon="-3.83492">
        <ele>11.2</ele>
        <time>2025-09-22T12:50:45Z</time>
      </trkpt>
      <trkpt lat="48.58412" lon="-3.83502">
        <ele>11.2</ele>
        <time>2025-09-22T12:50:52Z</time>
      </trkpt>
      <trkpt lat="48.58412" lon="-3.83505">
        <ele>11.2</ele>
        <time>2025-09-22T12:50:54Z</time>
      </trkpt>
      <trkpt lat="48.58412" lon="-3.83511">
        <ele>11.2</ele>
        <time>2025-09-22T12:50:58Z</time>
      </trkpt>
      <trkpt lat="48.5841" lon="-3.83521">
        <ele>11.6</ele>
        <time>2025-09-22T12:51:05Z</time>
      </trkpt>
      <trkpt lat="48.58406" lon="-3.83534">
        <ele>12</ele>
        <time>2025-09-22T12:51:13Z</time>
      </trkpt>
      <trkpt lat="48.58405" lon="-3.83533">
        <ele>12</ele>
        <time>2025-09-22T12:51:17Z</time>
      </trkpt>
      <trkpt lat="48.58405" lon="-3.83535">
        <ele>12</ele>
        <time>2025-09-22T12:51:20Z</time>
      </trkpt>
      <trkpt lat="48.58403" lon="-3.83539">
        <ele>12</ele>
        <time>2025-09-22T12:51:24Z</time>
      </trkpt>
      <trkpt lat="48.58402" lon="-3.83544">
        <ele>12</ele>
        <time>2025-09-22T12:51:28Z</time>
      </trkpt>
      <trkpt lat="48.58404" lon="-3.83551">
        <ele>11.6</ele>
        <time>2025-09-22T12:51:32Z</time>
      </trkpt>
      <trkpt lat="48.58408" lon="-3.83553">
        <ele>11.6</ele>
        <time>2025-09-22T12:51:36Z</time>
      </trkpt>
      <trkpt lat="48.58406" lon="-3.83548">
        <ele>11.8</ele>
        <time>2025-09-22T12:51:44Z</time>
      </trkpt>
      <trkpt lat="48.584" lon="-3.83543">
        <ele>11.6</ele>
        <time>2025-09-22T12:51:50Z</time>
      </trkpt>
      <trkpt lat="48.58398" lon="-3.83545">
        <ele>11.6</ele>
        <time>2025-09-22T12:51:51Z</time>
      </trkpt>
      <trkpt lat="48.58395" lon="-3.83547">
        <ele>12</ele>
        <time>2025-09-22T12:51:56Z</time>
      </trkpt>
      <trkpt lat="48.58392" lon="-3.83552">
        <ele>11.8</ele>
        <time>2025-09-22T12:52:02Z</time>
      </trkpt>
      <trkpt lat="48.5839" lon="-3.83556">
        <ele>11.8</ele>
        <time>2025-09-22T12:52:05Z</time>
      </trkpt>
      <trkpt lat="48.58387" lon="-3.83567">
        <ele>11.8</ele>
        <time>2025-09-22T12:52:13Z</time>
      </trkpt>
      <trkpt lat="48.58384" lon="-3.83573">
        <ele>11.8</ele>
        <time>2025-09-22T12:52:19Z</time>
      </trkpt>
      <trkpt lat="48.58386" lon="-3.8358">
        <ele>11.6</ele>
        <time>2025-09-22T12:52:33Z</time>
      </trkpt>
      <trkpt lat="48.58385" lon="-3.83584">
        <ele>11.4</ele>
        <time>2025-09-22T12:52:36Z</time>
      </trkpt>
      <trkpt lat="48.58381" lon="-3.83592">
        <ele>11.6</ele>
        <time>2025-09-22T12:52:41Z</time>
      </trkpt>
      <trkpt lat="48.58383" lon="-3.83602">
        <ele>11.6</ele>
        <time>2025-09-22T12:52:46Z</time>
      </trkpt>
      <trkpt lat="48.5839" lon="-3.83608">
        <ele>12.6</ele>
        <time>2025-09-22T12:52:52Z</time>
      </trkpt>
      <trkpt lat="48.58393" lon="-3.8361">
        <ele>13</ele>
        <time>2025-09-22T12:52:54Z</time>
      </trkpt>
      <trkpt lat="48.58396" lon="-3.83613">
        <ele>14</ele>
        <time>2025-09-22T12:52:59Z</time>
      </trkpt>
      <trkpt lat="48.58397" lon="-3.83615">
        <ele>14.2</ele>
        <time>2025-09-22T12:53:01Z</time>
      </trkpt>
      <trkpt lat="48.58398" lon="-3.83615">
        <ele>14</ele>
        <time>2025-09-22T12:53:03Z</time>
      </trkpt>
      <trkpt lat="48.58398" lon="-3.83617">
        <ele>14</ele>
        <time>2025-09-22T12:53:11Z</time>
      </trkpt>
      <trkpt lat="48.584" lon="-3.83619">
        <ele>14</ele>
        <time>2025-09-22T12:53:13Z</time>
      </trkpt>
      <trkpt lat="48.58407" lon="-3.83624">
        <ele>13.8</ele>
        <time>2025-09-22T12:53:17Z</time>
      </trkpt>
      <trkpt lat="48.58419" lon="-3.83632">
        <ele>13.6</ele>
        <time>2025-09-22T12:53:23Z</time>
      </trkpt>
      <trkpt lat="48.58428" lon="-3.83632">
        <ele>13.2</ele>
        <time>2025-09-22T12:53:29Z</time>
      </trkpt>
      <trkpt lat="48.58429" lon="-3.83633">
        <ele>13</ele>
        <time>2025-09-22T12:53:30Z</time>
      </trkpt>
      <trkpt lat="48.58434" lon="-3.83638">
        <ele>13.2</ele>
        <time>2025-09-22T12:53:34Z</time>
      </trkpt>
      <trkpt lat="48.58436" lon="-3.83637">
        <ele>13.2</ele>
        <time>2025-09-22T12:53:35Z</time>
      </trkpt>
      <trkpt lat="48.58439" lon="-3.83635">
        <ele>13.2</ele>
        <time>2025-09-22T12:53:37Z</time>
      </trkpt>
      <trkpt lat="48.58441" lon="-3.8363">
        <ele>13.2</ele>
        <time>2025-09-22T12:53:39Z</time>
      </trkpt>
      <trkpt lat="48.58443" lon="-3.83627">
        <ele>13</ele>
        <time>2025-09-22T12:53:41Z</time>
      </trkpt>
      <trkpt lat="48.58446" lon="-3.83628">
        <ele>13</ele>
        <time>2025-09-22T12:53:43Z</time>
      </trkpt>
      <trkpt lat="48.5846" lon="-3.83635">
        <ele>12.8</ele>
        <time>2025-09-22T12:53:50Z</time>
      </trkpt>
      <trkpt lat="48.58469" lon="-3.83642">
        <ele>13</ele>
        <time>2025-09-22T12:53:54Z</time>
      </trkpt>
      <trkpt lat="48.58473" lon="-3.83644">
        <ele>13</ele>
        <time>2025-09-22T12:53:56Z</time>
      </trkpt>
      <trkpt lat="48.58479" lon="-3.83649">
        <ele>13</ele>
        <time>2025-09-22T12:54:01Z</time>
      </trkpt>
      <trkpt lat="48.5848" lon="-3.83649">
        <ele>13</ele>
        <time>2025-09-22T12:54:03Z</time>
      </trkpt>
      <trkpt lat="48.58481" lon="-3.83651">
        <ele>13</ele>
        <time>2025-09-22T12:54:06Z</time>
      </trkpt>
      <trkpt lat="48.58483" lon="-3.8365">
        <ele>13.2</ele>
        <time>2025-09-22T12:54:37Z</time>
      </trkpt>
      <trkpt lat="48.58487" lon="-3.83648">
        <ele>13</ele>
        <time>2025-09-22T12:54:39Z</time>
      </trkpt>
      <trkpt lat="48.58493" lon="-3.83644">
        <ele>12.8</ele>
        <time>2025-09-22T12:54:42Z</time>
      </trkpt>
      <trkpt lat="48.58495" lon="-3.83646">
        <ele>12.8</ele>
        <time>2025-09-22T12:54:43Z</time>
      </trkpt>
      <trkpt lat="48.58507" lon="-3.83659">
        <ele>12.4</ele>
        <time>2025-09-22T12:54:49Z</time>
      </trkpt>
      <trkpt lat="48.58532" lon="-3.83681">
        <ele>12.2</ele>
        <time>2025-09-22T12:54:57Z</time>
      </trkpt>
      <trkpt lat="48.58555" lon="-3.837">
        <ele>12.2</ele>
        <time>2025-09-22T12:55:03Z</time>
      </trkpt>
      <trkpt lat="48.5856" lon="-3.83701">
        <ele>12.2</ele>
        <time>2025-09-22T12:55:04Z</time>
      </trkpt>
      <trkpt lat="48.58564" lon="-3.83701">
        <ele>12</ele>
        <time>2025-09-22T12:55:05Z</time>
      </trkpt>
      <trkpt lat="48.58583" lon="-3.83703">
        <ele>11.8</ele>
        <time>2025-09-22T12:55:09Z</time>
      </trkpt>
      <trkpt lat="48.58611" lon="-3.8371">
        <ele>11.8</ele>
        <time>2025-09-22T12:55:15Z</time>
      </trkpt>
      <trkpt lat="48.58616" lon="-3.83711">
        <ele>11.8</ele>
        <time>2025-09-22T12:55:16Z</time>
      </trkpt>
      <trkpt lat="48.58625" lon="-3.83715">
        <ele>11.6</ele>
        <time>2025-09-22T12:55:18Z</time>
      </trkpt>
      <trkpt lat="48.58642" lon="-3.83726">
        <ele>11.6</ele>
        <time>2025-09-22T12:55:22Z</time>
      </trkpt>
      <trkpt lat="48.58658" lon="-3.83739">
        <ele>11.4</ele>
        <time>2025-09-22T12:55:26Z</time>
      </trkpt>
      <trkpt lat="48.58669" lon="-3.83748">
        <ele>11.4</ele>
        <time>2025-09-22T12:55:29Z</time>
      </trkpt>
      <trkpt lat="48.58688" lon="-3.83764">
        <ele>12.2</ele>
        <time>2025-09-22T12:55:35Z</time>
      </trkpt>
      <trkpt lat="48.58701" lon="-3.83776">
        <ele>12.4</ele>
        <time>2025-09-22T12:55:41Z</time>
      </trkpt>
      <trkpt lat="48.58717" lon="-3.83792">
        <ele>12.6</ele>
        <time>2025-09-22T12:55:49Z</time>
      </trkpt>
      <trkpt lat="48.58734" lon="-3.83803">
        <ele>12.8</ele>
        <time>2025-09-22T12:55:55Z</time>
      </trkpt>
      <trkpt lat="48.58737" lon="-3.83804">
        <ele>13</ele>
        <time>2025-09-22T12:55:56Z</time>
      </trkpt>
      <trkpt lat="48.58743" lon="-3.83808">
        <ele>13</ele>
        <time>2025-09-22T12:55:58Z</time>
      </trkpt>
      <trkpt lat="48.58763" lon="-3.83819">
        <ele>13.4</ele>
        <time>2025-09-22T12:56:04Z</time>
      </trkpt>
      <trkpt lat="48.58784" lon="-3.83829">
        <ele>13.4</ele>
        <time>2025-09-22T12:56:10Z</time>
      </trkpt>
      <trkpt lat="48.58814" lon="-3.83844">
        <ele>13.4</ele>
        <time>2025-09-22T12:56:18Z</time>
      </trkpt>
      <trkpt lat="48.58836" lon="-3.83856">
        <ele>13.4</ele>
        <time>2025-09-22T12:56:24Z</time>
      </trkpt>
      <trkpt lat="48.58844" lon="-3.83861">
        <ele>13.4</ele>
        <time>2025-09-22T12:56:26Z</time>
      </trkpt>
      <trkpt lat="48.58848" lon="-3.83863">
        <ele>13.4</ele>
        <time>2025-09-22T12:56:27Z</time>
      </trkpt>
      <trkpt lat="48.58852" lon="-3.83865">
        <ele>13.4</ele>
        <time>2025-09-22T12:56:28Z</time>
      </trkpt>
      <trkpt lat="48.5886" lon="-3.8387">
        <ele>13.6</ele>
        <time>2025-09-22T12:56:30Z</time>
      </trkpt>
      <trkpt lat="48.58869" lon="-3.83872">
        <ele>13.8</ele>
        <time>2025-09-22T12:56:32Z</time>
      </trkpt>
      <trkpt lat="48.5888" lon="-3.83879">
        <ele>13.6</ele>
        <time>2025-09-22T12:56:35Z</time>
      </trkpt>
      <trkpt lat="48.58905" lon="-3.83894">
        <ele>13.4</ele>
        <time>2025-09-22T12:56:42Z</time>
      </trkpt>
      <trkpt lat="48.5893" lon="-3.83908">
        <ele>13.8</ele>
        <time>2025-09-22T12:56:49Z</time>
      </trkpt>
      <trkpt lat="48.58949" lon="-3.8392">
        <ele>13.6</ele>
        <time>2025-09-22T12:56:55Z</time>
      </trkpt>
      <trkpt lat="48.58979" lon="-3.83941">
        <ele>13.4</ele>
        <time>2025-09-22T12:57:04Z</time>
      </trkpt>
      <trkpt lat="48.59002" lon="-3.83957">
        <ele>13.2</ele>
        <time>2025-09-22T12:57:11Z</time>
      </trkpt>
      <trkpt lat="48.59024" lon="-3.83972">
        <ele>13.2</ele>
        <time>2025-09-22T12:57:17Z</time>
      </trkpt>
      <trkpt lat="48.59041" lon="-3.83983">
        <ele>12.8</ele>
        <time>2025-09-22T12:57:21Z</time>
      </trkpt>
      <trkpt lat="48.59049" lon="-3.83988">
        <ele>12.8</ele>
        <time>2025-09-22T12:57:23Z</time>
      </trkpt>
      <trkpt lat="48.59077" lon="-3.84007">
        <ele>13.2</ele>
        <time>2025-09-22T12:57:30Z</time>
      </trkpt>
      <trkpt lat="48.5908" lon="-3.8401">
        <ele>13.4</ele>
        <time>2025-09-22T12:57:31Z</time>
      </trkpt>
      <trkpt lat="48.59098" lon="-3.84021">
        <ele>12.8</ele>
        <time>2025-09-22T12:57:36Z</time>
      </trkpt>
      <trkpt lat="48.59113" lon="-3.84032">
        <ele>12.6</ele>
        <time>2025-09-22T12:57:41Z</time>
      </trkpt>
      <trkpt lat="48.59117" lon="-3.84035">
        <ele>12.6</ele>
        <time>2025-09-22T12:57:45Z</time>
      </trkpt>
      <trkpt lat="48.59117" lon="-3.84033">
        <ele>12.4</ele>
        <time>2025-09-22T12:57:56Z</time>
      </trkpt>
      <trkpt lat="48.59118" lon="-3.84033">
        <ele>12.4</ele>
        <time>2025-09-22T12:57:58Z</time>
      </trkpt>
      <trkpt lat="48.59118" lon="-3.84039">
        <ele>12.4</ele>
        <time>2025-09-22T12:58:27Z</time>
      </trkpt>
      <trkpt lat="48.59119" lon="-3.84039">
        <ele>12.6</ele>
        <time>2025-09-22T12:58:28Z</time>
      </trkpt>
      <trkpt lat="48.59129" lon="-3.84044">
        <ele>12.6</ele>
        <time>2025-09-22T12:58:34Z</time>
      </trkpt>
      <trkpt lat="48.59129" lon="-3.84045">
        <ele>12.6</ele>
        <time>2025-09-22T12:58:36Z</time>
      </trkpt>
      <trkpt lat="48.59128" lon="-3.84045">
        <ele>12.8</ele>
        <time>2025-09-22T12:59:48Z</time>
      </trkpt>
      <trkpt lat="48.59128" lon="-3.84046">
        <ele>12.8</ele>
        <time>2025-09-22T12:59:49Z</time>
      </trkpt>
      <trkpt lat="48.59135" lon="-3.8405">
        <ele>12.6</ele>
        <time>2025-09-22T12:59:52Z</time>
      </trkpt>
      <trkpt lat="48.59137" lon="-3.84052">
        <ele>12.6</ele>
        <time>2025-09-22T12:59:53Z</time>
      </trkpt>
      <trkpt lat="48.59156" lon="-3.84064">
        <ele>12</ele>
        <time>2025-09-22T12:59:59Z</time>
      </trkpt>
      <trkpt lat="48.59165" lon="-3.8407">
        <ele>12</ele>
        <time>2025-09-22T13:00:02Z</time>
      </trkpt>
      <trkpt lat="48.59175" lon="-3.84076">
        <ele>11.8</ele>
        <time>2025-09-22T13:00:05Z</time>
      </trkpt>
      <trkpt lat="48.59185" lon="-3.84083">
        <ele>11.8</ele>
        <time>2025-09-22T13:00:08Z</time>
      </trkpt>
      <trkpt lat="48.59204" lon="-3.84095">
        <ele>11.8</ele>
        <time>2025-09-22T13:00:13Z</time>
      </trkpt>
      <trkpt lat="48.59208" lon="-3.84098">
        <ele>11.8</ele>
        <time>2025-09-22T13:00:14Z</time>
      </trkpt>
      <trkpt lat="48.59251" lon="-3.84126">
        <ele>11</ele>
        <time>2025-09-22T13:00:24Z</time>
      </trkpt>
      <trkpt lat="48.59283" lon="-3.84136">
        <ele>11.4</ele>
        <time>2025-09-22T13:00:31Z</time>
      </trkpt>
      <trkpt lat="48.59319" lon="-3.84138">
        <ele>11.8</ele>
        <time>2025-09-22T13:00:39Z</time>
      </trkpt>
      <trkpt lat="48.59324" lon="-3.84139">
        <ele>11.8</ele>
        <time>2025-09-22T13:00:40Z</time>
      </trkpt>
      <trkpt lat="48.59332" lon="-3.8414">
        <ele>12</ele>
        <time>2025-09-22T13:00:42Z</time>
      </trkpt>
      <trkpt lat="48.59344" lon="-3.8414">
        <ele>12.2</ele>
        <time>2025-09-22T13:00:45Z</time>
      </trkpt>
      <trkpt lat="48.59373" lon="-3.8414">
        <ele>12.2</ele>
        <time>2025-09-22T13:00:52Z</time>
      </trkpt>
      <trkpt lat="48.59402" lon="-3.8414">
        <ele>12.2</ele>
        <time>2025-09-22T13:00:59Z</time>
      </trkpt>
      <trkpt lat="48.59427" lon="-3.84139">
        <ele>12.2</ele>
        <time>2025-09-22T13:01:06Z</time>
      </trkpt>
      <trkpt lat="48.59456" lon="-3.8414">
        <ele>11.6</ele>
        <time>2025-09-22T13:01:13Z</time>
      </trkpt>
      <trkpt lat="48.59487" lon="-3.84142">
        <ele>11.6</ele>
        <time>2025-09-22T13:01:19Z</time>
      </trkpt>
      <trkpt lat="48.59523" lon="-3.84144">
        <ele>11.2</ele>
        <time>2025-09-22T13:01:26Z</time>
      </trkpt>
      <trkpt lat="48.59553" lon="-3.84145">
        <ele>11.4</ele>
        <time>2025-09-22T13:01:33Z</time>
      </trkpt>
      <trkpt lat="48.59587" lon="-3.84147">
        <ele>11.8</ele>
        <time>2025-09-22T13:01:41Z</time>
      </trkpt>
      <trkpt lat="48.59622" lon="-3.84148">
        <ele>11.8</ele>
        <time>2025-09-22T13:01:49Z</time>
      </trkpt>
      <trkpt lat="48.59648" lon="-3.8415">
        <ele>11.4</ele>
        <time>2025-09-22T13:01:55Z</time>
      </trkpt>
      <trkpt lat="48.59674" lon="-3.8415">
        <ele>11.6</ele>
        <time>2025-09-22T13:02:01Z</time>
      </trkpt>
      <trkpt lat="48.59701" lon="-3.84155">
        <ele>11.4</ele>
        <time>2025-09-22T13:02:07Z</time>
      </trkpt>
      <trkpt lat="48.59727" lon="-3.84171">
        <ele>11</ele>
        <time>2025-09-22T13:02:14Z</time>
      </trkpt>
      <trkpt lat="48.59731" lon="-3.84175">
        <ele>11</ele>
        <time>2025-09-22T13:02:15Z</time>
      </trkpt>
      <trkpt lat="48.59752" lon="-3.84197">
        <ele>11</ele>
        <time>2025-09-22T13:02:21Z</time>
      </trkpt>
      <trkpt lat="48.59772" lon="-3.8422">
        <ele>10.8</ele>
        <time>2025-09-22T13:02:27Z</time>
      </trkpt>
      <trkpt lat="48.59793" lon="-3.84246">
        <ele>10.8</ele>
        <time>2025-09-22T13:02:33Z</time>
      </trkpt>
      <trkpt lat="48.59819" lon="-3.84275">
        <ele>10.6</ele>
        <time>2025-09-22T13:02:40Z</time>
      </trkpt>
      <trkpt lat="48.59853" lon="-3.84315">
        <ele>10.2</ele>
        <time>2025-09-22T13:02:49Z</time>
      </trkpt>
      <trkpt lat="48.59874" lon="-3.84336">
        <ele>10</ele>
        <time>2025-09-22T13:02:54Z</time>
      </trkpt>
      <trkpt lat="48.59882" lon="-3.84345">
        <ele>9.8</ele>
        <time>2025-09-22T13:02:56Z</time>
      </trkpt>
      <trkpt lat="48.59906" lon="-3.84372">
        <ele>9.8</ele>
        <time>2025-09-22T13:03:02Z</time>
      </trkpt>
      <trkpt lat="48.5991" lon="-3.84377">
        <ele>9.8</ele>
        <time>2025-09-22T13:03:03Z</time>
      </trkpt>
      <trkpt lat="48.59946" lon="-3.84417">
        <ele>9.8</ele>
        <time>2025-09-22T13:03:12Z</time>
      </trkpt>
      <trkpt lat="48.59984" lon="-3.8446">
        <ele>9.8</ele>
        <time>2025-09-22T13:03:22Z</time>
      </trkpt>
      <trkpt lat="48.60026" lon="-3.84508">
        <ele>10.2</ele>
        <time>2025-09-22T13:03:34Z</time>
      </trkpt>
      <trkpt lat="48.60038" lon="-3.84525">
        <ele>10</ele>
        <time>2025-09-22T13:03:38Z</time>
      </trkpt>
      <trkpt lat="48.6005" lon="-3.84544">
        <ele>9.6</ele>
        <time>2025-09-22T13:03:42Z</time>
      </trkpt>
      <trkpt lat="48.60071" lon="-3.84585">
        <ele>9.8</ele>
        <time>2025-09-22T13:03:50Z</time>
      </trkpt>
      <trkpt lat="48.60093" lon="-3.84636">
        <ele>10</ele>
        <time>2025-09-22T13:03:59Z</time>
      </trkpt>
      <trkpt lat="48.60109" lon="-3.84673">
        <ele>10.2</ele>
        <time>2025-09-22T13:04:06Z</time>
      </trkpt>
      <trkpt lat="48.60125" lon="-3.8471">
        <ele>11</ele>
        <time>2025-09-22T13:04:13Z</time>
      </trkpt>
      <trkpt lat="48.60127" lon="-3.84716">
        <ele>11</ele>
        <time>2025-09-22T13:04:14Z</time>
      </trkpt>
      <trkpt lat="48.60141" lon="-3.84763">
        <ele>11.6</ele>
        <time>2025-09-22T13:04:22Z</time>
      </trkpt>
      <trkpt lat="48.60155" lon="-3.8482">
        <ele>11.8</ele>
        <time>2025-09-22T13:04:32Z</time>
      </trkpt>
      <trkpt lat="48.60166" lon="-3.84867">
        <ele>11.8</ele>
        <time>2025-09-22T13:04:41Z</time>
      </trkpt>
      <trkpt lat="48.60182" lon="-3.84918">
        <ele>11.8</ele>
        <time>2025-09-22T13:04:51Z</time>
      </trkpt>
      <trkpt lat="48.60198" lon="-3.84954">
        <ele>11.8</ele>
        <time>2025-09-22T13:04:58Z</time>
      </trkpt>
      <trkpt lat="48.60205" lon="-3.8497">
        <ele>11.8</ele>
        <time>2025-09-22T13:05:01Z</time>
      </trkpt>
      <trkpt lat="48.60214" lon="-3.84984">
        <ele>11.8</ele>
        <time>2025-09-22T13:05:04Z</time>
      </trkpt>
      <trkpt lat="48.60226" lon="-3.85002">
        <ele>12</ele>
        <time>2025-09-22T13:05:08Z</time>
      </trkpt>
      <trkpt lat="48.60232" lon="-3.85009">
        <ele>12</ele>
        <time>2025-09-22T13:05:10Z</time>
      </trkpt>
      <trkpt lat="48.60255" lon="-3.85033">
        <ele>12.4</ele>
        <time>2025-09-22T13:05:17Z</time>
      </trkpt>
      <trkpt lat="48.60279" lon="-3.8505">
        <ele>12.6</ele>
        <time>2025-09-22T13:05:23Z</time>
      </trkpt>
      <trkpt lat="48.60309" lon="-3.85065">
        <ele>12.6</ele>
        <time>2025-09-22T13:05:30Z</time>
      </trkpt>
      <trkpt lat="48.6034" lon="-3.85079">
        <ele>12.2</ele>
        <time>2025-09-22T13:05:37Z</time>
      </trkpt>
      <trkpt lat="48.60345" lon="-3.85082">
        <ele>12.2</ele>
        <time>2025-09-22T13:05:38Z</time>
      </trkpt>
      <trkpt lat="48.60358" lon="-3.8509">
        <ele>12.2</ele>
        <time>2025-09-22T13:05:41Z</time>
      </trkpt>
      <trkpt lat="48.60373" lon="-3.85098">
        <ele>12</ele>
        <time>2025-09-22T13:05:44Z</time>
      </trkpt>
      <trkpt lat="48.60397" lon="-3.85109">
        <ele>12</ele>
        <time>2025-09-22T13:05:49Z</time>
      </trkpt>
      <trkpt lat="48.60411" lon="-3.85116">
        <ele>12</ele>
        <time>2025-09-22T13:05:52Z</time>
      </trkpt>
      <trkpt lat="48.60438" lon="-3.8513">
        <ele>12</ele>
        <time>2025-09-22T13:05:58Z</time>
      </trkpt>
      <trkpt lat="48.60472" lon="-3.85153">
        <ele>11.6</ele>
        <time>2025-09-22T13:06:05Z</time>
      </trkpt>
      <trkpt lat="48.60501" lon="-3.85176">
        <ele>11.6</ele>
        <time>2025-09-22T13:06:11Z</time>
      </trkpt>
      <trkpt lat="48.6051" lon="-3.85184">
        <ele>11.6</ele>
        <time>2025-09-22T13:06:13Z</time>
      </trkpt>
      <trkpt lat="48.60519" lon="-3.85191">
        <ele>11.4</ele>
        <time>2025-09-22T13:06:15Z</time>
      </trkpt>
      <trkpt lat="48.60528" lon="-3.85198">
        <ele>11.4</ele>
        <time>2025-09-22T13:06:17Z</time>
      </trkpt>
      <trkpt lat="48.60533" lon="-3.85202">
        <ele>11.4</ele>
        <time>2025-09-22T13:06:18Z</time>
      </trkpt>
      <trkpt lat="48.60538" lon="-3.85206">
        <ele>11.6</ele>
        <time>2025-09-22T13:06:19Z</time>
      </trkpt>
      <trkpt lat="48.60547" lon="-3.85214">
        <ele>11.6</ele>
        <time>2025-09-22T13:06:21Z</time>
      </trkpt>
      <trkpt lat="48.60555" lon="-3.85223">
        <ele>11.6</ele>
        <time>2025-09-22T13:06:23Z</time>
      </trkpt>
      <trkpt lat="48.60578" lon="-3.85256">
        <ele>11.4</ele>
        <time>2025-09-22T13:06:29Z</time>
      </trkpt>
      <trkpt lat="48.60588" lon="-3.85274">
        <ele>11</ele>
        <time>2025-09-22T13:06:32Z</time>
      </trkpt>
      <trkpt lat="48.60595" lon="-3.85286">
        <ele>11</ele>
        <time>2025-09-22T13:06:34Z</time>
      </trkpt>
      <trkpt lat="48.60599" lon="-3.85292">
        <ele>10.8</ele>
        <time>2025-09-22T13:06:35Z</time>
      </trkpt>
      <trkpt lat="48.60602" lon="-3.85297">
        <ele>10.8</ele>
        <time>2025-09-22T13:06:36Z</time>
      </trkpt>
      <trkpt lat="48.6061" lon="-3.85308">
        <ele>10.8</ele>
        <time>2025-09-22T13:06:38Z</time>
      </trkpt>
      <trkpt lat="48.60617" lon="-3.8532">
        <ele>10.8</ele>
        <time>2025-09-22T13:06:40Z</time>
      </trkpt>
      <trkpt lat="48.60621" lon="-3.85326">
        <ele>10.8</ele>
        <time>2025-09-22T13:06:41Z</time>
      </trkpt>
      <trkpt lat="48.60628" lon="-3.85337">
        <ele>10.8</ele>
        <time>2025-09-22T13:06:43Z</time>
      </trkpt>
      <trkpt lat="48.60653" lon="-3.85375">
        <ele>10.8</ele>
        <time>2025-09-22T13:06:50Z</time>
      </trkpt>
      <trkpt lat="48.60671" lon="-3.85418">
        <ele>10.2</ele>
        <time>2025-09-22T13:06:57Z</time>
      </trkpt>
      <trkpt lat="48.60679" lon="-3.85445">
        <ele>9.8</ele>
        <time>2025-09-22T13:07:01Z</time>
      </trkpt>
      <trkpt lat="48.60683" lon="-3.85459">
        <ele>9.4</ele>
        <time>2025-09-22T13:07:03Z</time>
      </trkpt>
      <trkpt lat="48.60695" lon="-3.85496">
        <ele>9.2</ele>
        <time>2025-09-22T13:07:08Z</time>
      </trkpt>
      <trkpt lat="48.60702" lon="-3.8551">
        <ele>9.2</ele>
        <time>2025-09-22T13:07:10Z</time>
      </trkpt>
      <trkpt lat="48.60728" lon="-3.85548">
        <ele>9.2</ele>
        <time>2025-09-22T13:07:16Z</time>
      </trkpt>
      <trkpt lat="48.60742" lon="-3.85562">
        <ele>9.2</ele>
        <time>2025-09-22T13:07:19Z</time>
      </trkpt>
      <trkpt lat="48.6076" lon="-3.85579">
        <ele>9.4</ele>
        <time>2025-09-22T13:07:23Z</time>
      </trkpt>
      <trkpt lat="48.60795" lon="-3.85613">
        <ele>9.6</ele>
        <time>2025-09-22T13:07:31Z</time>
      </trkpt>
      <trkpt lat="48.60827" lon="-3.85648">
        <ele>10</ele>
        <time>2025-09-22T13:07:39Z</time>
      </trkpt>
      <trkpt lat="48.60833" lon="-3.85659">
        <ele>10.2</ele>
        <time>2025-09-22T13:07:41Z</time>
      </trkpt>
      <trkpt lat="48.60844" lon="-3.85681">
        <ele>10.2</ele>
        <time>2025-09-22T13:07:45Z</time>
      </trkpt>
      <trkpt lat="48.6086" lon="-3.85721">
        <ele>10.6</ele>
        <time>2025-09-22T13:07:52Z</time>
      </trkpt>
      <trkpt lat="48.60864" lon="-3.85732">
        <ele>10.8</ele>
        <time>2025-09-22T13:07:54Z</time>
      </trkpt>
      <trkpt lat="48.60876" lon="-3.8576">
        <ele>10.8</ele>
        <time>2025-09-22T13:07:59Z</time>
      </trkpt>
      <trkpt lat="48.6088" lon="-3.85765">
        <ele>10.8</ele>
        <time>2025-09-22T13:08:00Z</time>
      </trkpt>
      <trkpt lat="48.60903" lon="-3.8579">
        <ele>9.6</ele>
        <time>2025-09-22T13:08:06Z</time>
      </trkpt>
      <trkpt lat="48.60907" lon="-3.85794">
        <ele>9.6</ele>
        <time>2025-09-22T13:08:07Z</time>
      </trkpt>
      <trkpt lat="48.60939" lon="-3.85824">
        <ele>9.6</ele>
        <time>2025-09-22T13:08:15Z</time>
      </trkpt>
      <trkpt lat="48.60965" lon="-3.8585">
        <ele>9.8</ele>
        <time>2025-09-22T13:08:22Z</time>
      </trkpt>
      <trkpt lat="48.60988" lon="-3.85872">
        <ele>9.6</ele>
        <time>2025-09-22T13:08:29Z</time>
      </trkpt>
      <trkpt lat="48.60994" lon="-3.85878">
        <ele>9.8</ele>
        <time>2025-09-22T13:08:31Z</time>
      </trkpt>
      <trkpt lat="48.61014" lon="-3.85895">
        <ele>9.6</ele>
        <time>2025-09-22T13:08:37Z</time>
      </trkpt>
      <trkpt lat="48.61036" lon="-3.85917">
        <ele>9.8</ele>
        <time>2025-09-22T13:08:44Z</time>
      </trkpt>
      <trkpt lat="48.61054" lon="-3.85935">
        <ele>9.4</ele>
        <time>2025-09-22T13:08:50Z</time>
      </trkpt>
      <trkpt lat="48.61078" lon="-3.85961">
        <ele>9.8</ele>
        <time>2025-09-22T13:08:58Z</time>
      </trkpt>
      <trkpt lat="48.6109" lon="-3.85974">
        <ele>9.6</ele>
        <time>2025-09-22T13:09:03Z</time>
      </trkpt>
      <trkpt lat="48.61092" lon="-3.85977">
        <ele>9.8</ele>
        <time>2025-09-22T13:09:04Z</time>
      </trkpt>
      <trkpt lat="48.61103" lon="-3.85997">
        <ele>9.4</ele>
        <time>2025-09-22T13:09:10Z</time>
      </trkpt>
      <trkpt lat="48.6112" lon="-3.86018">
        <ele>9</ele>
        <time>2025-09-22T13:09:16Z</time>
      </trkpt>
      <trkpt lat="48.61138" lon="-3.86039">
        <ele>9</ele>
        <time>2025-09-22T13:09:22Z</time>
      </trkpt>
      <trkpt lat="48.61147" lon="-3.86049">
        <ele>8.6</ele>
        <time>2025-09-22T13:09:25Z</time>
      </trkpt>
      <trkpt lat="48.61158" lon="-3.8606">
        <ele>8.2</ele>
        <time>2025-09-22T13:09:29Z</time>
      </trkpt>
      <trkpt lat="48.61175" lon="-3.86074">
        <ele>8</ele>
        <time>2025-09-22T13:09:34Z</time>
      </trkpt>
      <trkpt lat="48.61196" lon="-3.86089">
        <ele>8.2</ele>
        <time>2025-09-22T13:09:40Z</time>
      </trkpt>
      <trkpt lat="48.6122" lon="-3.86105">
        <ele>8.4</ele>
        <time>2025-09-22T13:09:47Z</time>
      </trkpt>
      <trkpt lat="48.61239" lon="-3.86125">
        <ele>8.8</ele>
        <time>2025-09-22T13:09:53Z</time>
      </trkpt>
      <trkpt lat="48.61249" lon="-3.86149">
        <ele>8.4</ele>
        <time>2025-09-22T13:09:58Z</time>
      </trkpt>
      <trkpt lat="48.61252" lon="-3.8616">
        <ele>8.2</ele>
        <time>2025-09-22T13:10:00Z</time>
      </trkpt>
      <trkpt lat="48.61256" lon="-3.86176">
        <ele>7.6</ele>
        <time>2025-09-22T13:10:03Z</time>
      </trkpt>
      <trkpt lat="48.61259" lon="-3.86181">
        <ele>7.4</ele>
        <time>2025-09-22T13:10:04Z</time>
      </trkpt>
      <trkpt lat="48.61264" lon="-3.86191">
        <ele>7.4</ele>
        <time>2025-09-22T13:10:06Z</time>
      </trkpt>
      <trkpt lat="48.61272" lon="-3.86199">
        <ele>7.6</ele>
        <time>2025-09-22T13:10:08Z</time>
      </trkpt>
      <trkpt lat="48.61285" lon="-3.86208">
        <ele>8.6</ele>
        <time>2025-09-22T13:10:11Z</time>
      </trkpt>
      <trkpt lat="48.61318" lon="-3.86218">
        <ele>8.8</ele>
        <time>2025-09-22T13:10:18Z</time>
      </trkpt>
      <trkpt lat="48.61353" lon="-3.86224">
        <ele>8.8</ele>
        <time>2025-09-22T13:10:26Z</time>
      </trkpt>
      <trkpt lat="48.61378" lon="-3.86223">
        <ele>8.8</ele>
        <time>2025-09-22T13:10:32Z</time>
      </trkpt>
      <trkpt lat="48.61382" lon="-3.86221">
        <ele>8.8</ele>
        <time>2025-09-22T13:10:33Z</time>
      </trkpt>
      <trkpt lat="48.61412" lon="-3.86206">
        <ele>9.4</ele>
        <time>2025-09-22T13:10:40Z</time>
      </trkpt>
      <trkpt lat="48.61424" lon="-3.86198">
        <ele>9.4</ele>
        <time>2025-09-22T13:10:43Z</time>
      </trkpt>
      <trkpt lat="48.61436" lon="-3.86187">
        <ele>9.4</ele>
        <time>2025-09-22T13:10:46Z</time>
      </trkpt>
      <trkpt lat="48.61459" lon="-3.86162">
        <ele>9.6</ele>
        <time>2025-09-22T13:10:53Z</time>
      </trkpt>
      <trkpt lat="48.61478" lon="-3.86144">
        <ele>9.8</ele>
        <time>2025-09-22T13:10:59Z</time>
      </trkpt>
      <trkpt lat="48.61495" lon="-3.86138">
        <ele>9.4</ele>
        <time>2025-09-22T13:11:04Z</time>
      </trkpt>
      <trkpt lat="48.61518" lon="-3.86132">
        <ele>9.6</ele>
        <time>2025-09-22T13:11:10Z</time>
      </trkpt>
      <trkpt lat="48.6153" lon="-3.86128">
        <ele>9.8</ele>
        <time>2025-09-22T13:11:13Z</time>
      </trkpt>
      <trkpt lat="48.61534" lon="-3.86127">
        <ele>9.8</ele>
        <time>2025-09-22T13:11:14Z</time>
      </trkpt>
      <trkpt lat="48.61538" lon="-3.86124">
        <ele>9.6</ele>
        <time>2025-09-22T13:11:15Z</time>
      </trkpt>
      <trkpt lat="48.61542" lon="-3.86122">
        <ele>9.6</ele>
        <time>2025-09-22T13:11:16Z</time>
      </trkpt>
      <trkpt lat="48.61546" lon="-3.8612">
        <ele>9.6</ele>
        <time>2025-09-22T13:11:17Z</time>
      </trkpt>
      <trkpt lat="48.61576" lon="-3.86098">
        <ele>9</ele>
        <time>2025-09-22T13:11:24Z</time>
      </trkpt>
      <trkpt lat="48.61614" lon="-3.86062">
        <ele>9.2</ele>
        <time>2025-09-22T13:11:34Z</time>
      </trkpt>
      <trkpt lat="48.61641" lon="-3.86031">
        <ele>10</ele>
        <time>2025-09-22T13:11:42Z</time>
      </trkpt>
      <trkpt lat="48.61656" lon="-3.86007">
        <ele>9.6</ele>
        <time>2025-09-22T13:11:48Z</time>
      </trkpt>
      <trkpt lat="48.61675" lon="-3.85983">
        <ele>9.4</ele>
        <time>2025-09-22T13:11:55Z</time>
      </trkpt>
      <trkpt lat="48.61688" lon="-3.85971">
        <ele>9.4</ele>
        <time>2025-09-22T13:11:59Z</time>
      </trkpt>
      <trkpt lat="48.61695" lon="-3.85966">
        <ele>9.6</ele>
        <time>2025-09-22T13:12:01Z</time>
      </trkpt>
      <trkpt lat="48.61701" lon="-3.85961">
        <ele>9.6</ele>
        <time>2025-09-22T13:12:03Z</time>
      </trkpt>
      <trkpt lat="48.61708" lon="-3.85958">
        <ele>9.4</ele>
        <time>2025-09-22T13:12:07Z</time>
      </trkpt>
      <trkpt lat="48.61708" lon="-3.85957">
        <ele>9.2</ele>
        <time>2025-09-22T13:12:08Z</time>
      </trkpt>
      <trkpt lat="48.61709" lon="-3.85958">
        <ele>9.6</ele>
        <time>2025-09-22T13:14:42Z</time>
      </trkpt>
      <trkpt lat="48.6171" lon="-3.85957">
        <ele>9.4</ele>
        <time>2025-09-22T13:14:43Z</time>
      </trkpt>
      <trkpt lat="48.61712" lon="-3.85956">
        <ele>9.4</ele>
        <time>2025-09-22T13:14:44Z</time>
      </trkpt>
      <trkpt lat="48.61721" lon="-3.85955">
        <ele>9.2</ele>
        <time>2025-09-22T13:14:48Z</time>
      </trkpt>
      <trkpt lat="48.61724" lon="-3.85953">
        <ele>9</ele>
        <time>2025-09-22T13:14:49Z</time>
      </trkpt>
      <trkpt lat="48.61741" lon="-3.85944">
        <ele>9.4</ele>
        <time>2025-09-22T13:14:54Z</time>
      </trkpt>
      <trkpt lat="48.61759" lon="-3.85926">
        <ele>9.8</ele>
        <time>2025-09-22T13:15:00Z</time>
      </trkpt>
      <trkpt lat="48.61779" lon="-3.85898">
        <ele>9.8</ele>
        <time>2025-09-22T13:15:07Z</time>
      </trkpt>
      <trkpt lat="48.61798" lon="-3.85873">
        <ele>9.6</ele>
        <time>2025-09-22T13:15:13Z</time>
      </trkpt>
      <trkpt lat="48.61816" lon="-3.8585">
        <ele>9.6</ele>
        <time>2025-09-22T13:15:19Z</time>
      </trkpt>
      <trkpt lat="48.61837" lon="-3.85822">
        <ele>9.8</ele>
        <time>2025-09-22T13:15:26Z</time>
      </trkpt>
      <trkpt lat="48.6186" lon="-3.85793">
        <ele>10.2</ele>
        <time>2025-09-22T13:15:34Z</time>
      </trkpt>
      <trkpt lat="48.61887" lon="-3.85765">
        <ele>10.2</ele>
        <time>2025-09-22T13:15:43Z</time>
      </trkpt>
      <trkpt lat="48.61915" lon="-3.8574">
        <ele>9.6</ele>
        <time>2025-09-22T13:15:51Z</time>
      </trkpt>
      <trkpt lat="48.61918" lon="-3.85737">
        <ele>9.6</ele>
        <time>2025-09-22T13:15:52Z</time>
      </trkpt>
      <trkpt lat="48.61949" lon="-3.85711">
        <ele>9.8</ele>
        <time>2025-09-22T13:16:01Z</time>
      </trkpt>
      <trkpt lat="48.61955" lon="-3.85706">
        <ele>10</ele>
        <time>2025-09-22T13:16:03Z</time>
      </trkpt>
      <trkpt lat="48.61973" lon="-3.85693">
        <ele>9.8</ele>
        <time>2025-09-22T13:16:09Z</time>
      </trkpt>
      <trkpt lat="48.6199" lon="-3.85683">
        <ele>10</ele>
        <time>2025-09-22T13:16:14Z</time>
      </trkpt>
      <trkpt lat="48.62005" lon="-3.85677">
        <ele>10</ele>
        <time>2025-09-22T13:16:19Z</time>
      </trkpt>
      <trkpt lat="48.62033" lon="-3.85673">
        <ele>9.6</ele>
        <time>2025-09-22T13:16:28Z</time>
      </trkpt>
      <trkpt lat="48.62051" lon="-3.85674">
        <ele>9.6</ele>
        <time>2025-09-22T13:16:34Z</time>
      </trkpt>
      <trkpt lat="48.62054" lon="-3.85674">
        <ele>9.6</ele>
        <time>2025-09-22T13:16:35Z</time>
      </trkpt>
      <trkpt lat="48.62084" lon="-3.85675">
        <ele>9.2</ele>
        <time>2025-09-22T13:16:44Z</time>
      </trkpt>
      <trkpt lat="48.62098" lon="-3.85677">
        <ele>9</ele>
        <time>2025-09-22T13:16:48Z</time>
      </trkpt>
      <trkpt lat="48.6211" lon="-3.85678">
        <ele>8.8</ele>
        <time>2025-09-22T13:16:52Z</time>
      </trkpt>
      <trkpt lat="48.62116" lon="-3.85679">
        <ele>8.4</ele>
        <time>2025-09-22T13:16:54Z</time>
      </trkpt>
      <trkpt lat="48.62144" lon="-3.85685">
        <ele>8.6</ele>
        <time>2025-09-22T13:17:03Z</time>
      </trkpt>
      <trkpt lat="48.62176" lon="-3.85698">
        <ele>8.2</ele>
        <time>2025-09-22T13:17:13Z</time>
      </trkpt>
      <trkpt lat="48.62199" lon="-3.85707">
        <ele>8.6</ele>
        <time>2025-09-22T13:17:20Z</time>
      </trkpt>
      <trkpt lat="48.62203" lon="-3.85708">
        <ele>8.6</ele>
        <time>2025-09-22T13:17:21Z</time>
      </trkpt>
      <trkpt lat="48.62212" lon="-3.85711">
        <ele>8.4</ele>
        <time>2025-09-22T13:17:24Z</time>
      </trkpt>
      <trkpt lat="48.62234" lon="-3.85716">
        <ele>8.4</ele>
        <time>2025-09-22T13:17:30Z</time>
      </trkpt>
      <trkpt lat="48.62258" lon="-3.85716">
        <ele>8.2</ele>
        <time>2025-09-22T13:17:36Z</time>
      </trkpt>
      <trkpt lat="48.62288" lon="-3.85718">
        <ele>8.2</ele>
        <time>2025-09-22T13:17:44Z</time>
      </trkpt>
      <trkpt lat="48.62318" lon="-3.85719">
        <ele>8.2</ele>
        <time>2025-09-22T13:17:52Z</time>
      </trkpt>
      <trkpt lat="48.62358" lon="-3.85725">
        <ele>8.4</ele>
        <time>2025-09-22T13:18:03Z</time>
      </trkpt>
      <trkpt lat="48.62393" lon="-3.85734">
        <ele>8.4</ele>
        <time>2025-09-22T13:18:13Z</time>
      </trkpt>
      <trkpt lat="48.62426" lon="-3.85739">
        <ele>8.6</ele>
        <time>2025-09-22T13:18:22Z</time>
      </trkpt>
      <trkpt lat="48.62462" lon="-3.85734">
        <ele>8.2</ele>
        <time>2025-09-22T13:18:32Z</time>
      </trkpt>
      <trkpt lat="48.62481" lon="-3.85731">
        <ele>8.6</ele>
        <time>2025-09-22T13:18:37Z</time>
      </trkpt>
      <trkpt lat="48.62491" lon="-3.85728">
        <ele>8.8</ele>
        <time>2025-09-22T13:18:40Z</time>
      </trkpt>
      <trkpt lat="48.62524" lon="-3.85722">
        <ele>8.8</ele>
        <time>2025-09-22T13:18:49Z</time>
      </trkpt>
      <trkpt lat="48.62545" lon="-3.8572">
        <ele>9.2</ele>
        <time>2025-09-22T13:18:55Z</time>
      </trkpt>
      <trkpt lat="48.62564" lon="-3.85718">
        <ele>9</ele>
        <time>2025-09-22T13:19:02Z</time>
      </trkpt>
      <trkpt lat="48.62578" lon="-3.85719">
        <ele>9</ele>
        <time>2025-09-22T13:19:08Z</time>
      </trkpt>
      <trkpt lat="48.62585" lon="-3.85725">
        <ele>9.2</ele>
        <time>2025-09-22T13:19:12Z</time>
      </trkpt>
      <trkpt lat="48.62586" lon="-3.85729">
        <ele>9.4</ele>
        <time>2025-09-22T13:19:13Z</time>
      </trkpt>
      <trkpt lat="48.62586" lon="-3.85733">
        <ele>9.4</ele>
        <time>2025-09-22T13:19:14Z</time>
      </trkpt>
      <trkpt lat="48.62581" lon="-3.85736">
        <ele>9.2</ele>
        <time>2025-09-22T13:19:16Z</time>
      </trkpt>
      <trkpt lat="48.62579" lon="-3.85734">
        <ele>9</ele>
        <time>2025-09-22T13:19:17Z</time>
      </trkpt>
      <trkpt lat="48.62577" lon="-3.85727">
        <ele>8.6</ele>
        <time>2025-09-22T13:19:19Z</time>
      </trkpt>
      <trkpt lat="48.6258" lon="-3.85721">
        <ele>8.6</ele>
        <time>2025-09-22T13:19:21Z</time>
      </trkpt>
      <trkpt lat="48.62585" lon="-3.85717">
        <ele>8.8</ele>
        <time>2025-09-22T13:19:23Z</time>
      </trkpt>
      <trkpt lat="48.62605" lon="-3.8571">
        <ele>9.2</ele>
        <time>2025-09-22T13:19:30Z</time>
      </trkpt>
      <trkpt lat="48.62627" lon="-3.85712">
        <ele>9.2</ele>
        <time>2025-09-22T13:19:37Z</time>
      </trkpt>
      <trkpt lat="48.62645" lon="-3.85719">
        <ele>9.8</ele>
        <time>2025-09-22T13:19:43Z</time>
      </trkpt>
      <trkpt lat="48.62654" lon="-3.85723">
        <ele>10.2</ele>
        <time>2025-09-22T13:19:46Z</time>
      </trkpt>
      <trkpt lat="48.62678" lon="-3.85731">
        <ele>9.4</ele>
        <time>2025-09-22T13:19:54Z</time>
      </trkpt>
      <trkpt lat="48.62702" lon="-3.85742">
        <ele>9.2</ele>
        <time>2025-09-22T13:20:03Z</time>
      </trkpt>
      <trkpt lat="48.62728" lon="-3.85752">
        <ele>8.8</ele>
        <time>2025-09-22T13:20:11Z</time>
      </trkpt>
      <trkpt lat="48.62732" lon="-3.85754">
        <ele>8.8</ele>
        <time>2025-09-22T13:20:12Z</time>
      </trkpt>
      <trkpt lat="48.6276" lon="-3.85768">
        <ele>9</ele>
        <time>2025-09-22T13:20:21Z</time>
      </trkpt>
      <trkpt lat="48.62789" lon="-3.85784">
        <ele>9</ele>
        <time>2025-09-22T13:20:30Z</time>
      </trkpt>
      <trkpt lat="48.62797" lon="-3.85788">
        <ele>8.8</ele>
        <time>2025-09-22T13:20:32Z</time>
      </trkpt>
      <trkpt lat="48.62827" lon="-3.85802">
        <ele>8.6</ele>
        <time>2025-09-22T13:20:41Z</time>
      </trkpt>
      <trkpt lat="48.62861" lon="-3.85818">
        <ele>8.6</ele>
        <time>2025-09-22T13:20:52Z</time>
      </trkpt>
      <trkpt lat="48.62874" lon="-3.85823">
        <ele>8.8</ele>
        <time>2025-09-22T13:20:56Z</time>
      </trkpt>
      <trkpt lat="48.62893" lon="-3.85833">
        <ele>8.8</ele>
        <time>2025-09-22T13:21:02Z</time>
      </trkpt>
      <trkpt lat="48.62925" lon="-3.85848">
        <ele>8.2</ele>
        <time>2025-09-22T13:21:12Z</time>
      </trkpt>
      <trkpt lat="48.62959" lon="-3.85865">
        <ele>9</ele>
        <time>2025-09-22T13:21:22Z</time>
      </trkpt>
      <trkpt lat="48.62984" lon="-3.85885">
        <ele>8.6</ele>
        <time>2025-09-22T13:21:30Z</time>
      </trkpt>
      <trkpt lat="48.63002" lon="-3.85899">
        <ele>8.6</ele>
        <time>2025-09-22T13:21:36Z</time>
      </trkpt>
      <trkpt lat="48.63023" lon="-3.85917">
        <ele>8.6</ele>
        <time>2025-09-22T13:21:43Z</time>
      </trkpt>
      <trkpt lat="48.63039" lon="-3.8593">
        <ele>8.8</ele>
        <time>2025-09-22T13:21:48Z</time>
      </trkpt>
      <trkpt lat="48.63043" lon="-3.85933">
        <ele>8.8</ele>
        <time>2025-09-22T13:21:49Z</time>
      </trkpt>
      <trkpt lat="48.63054" lon="-3.85943">
        <ele>8.4</ele>
        <time>2025-09-22T13:21:53Z</time>
      </trkpt>
      <trkpt lat="48.63059" lon="-3.85948">
        <ele>8.2</ele>
        <time>2025-09-22T13:21:55Z</time>
      </trkpt>
      <trkpt lat="48.63074" lon="-3.85959">
        <ele>7.8</ele>
        <time>2025-09-22T13:22:00Z</time>
      </trkpt>
      <trkpt lat="48.63083" lon="-3.85965">
        <ele>7.8</ele>
        <time>2025-09-22T13:22:03Z</time>
      </trkpt>
      <trkpt lat="48.63107" lon="-3.85979">
        <ele>7.8</ele>
        <time>2025-09-22T13:22:10Z</time>
      </trkpt>
      <trkpt lat="48.63114" lon="-3.85983">
        <ele>7.6</ele>
        <time>2025-09-22T13:22:12Z</time>
      </trkpt>
      <trkpt lat="48.63131" lon="-3.85991">
        <ele>7.8</ele>
        <time>2025-09-22T13:22:17Z</time>
      </trkpt>
      <trkpt lat="48.6316" lon="-3.86007">
        <ele>8</ele>
        <time>2025-09-22T13:22:25Z</time>
      </trkpt>
      <trkpt lat="48.63183" lon="-3.86023">
        <ele>8.2</ele>
        <time>2025-09-22T13:22:32Z</time>
      </trkpt>
      <trkpt lat="48.63209" lon="-3.86046">
        <ele>8.6</ele>
        <time>2025-09-22T13:22:40Z</time>
      </trkpt>
      <trkpt lat="48.63231" lon="-3.86073">
        <ele>8.6</ele>
        <time>2025-09-22T13:22:48Z</time>
      </trkpt>
      <trkpt lat="48.63234" lon="-3.86076">
        <ele>8.8</ele>
        <time>2025-09-22T13:22:49Z</time>
      </trkpt>
      <trkpt lat="48.63251" lon="-3.861">
        <ele>9</ele>
        <time>2025-09-22T13:22:56Z</time>
      </trkpt>
      <trkpt lat="48.6327" lon="-3.86133">
        <ele>8.6</ele>
        <time>2025-09-22T13:23:04Z</time>
      </trkpt>
      <trkpt lat="48.63274" lon="-3.86141">
        <ele>8.6</ele>
        <time>2025-09-22T13:23:06Z</time>
      </trkpt>
      <trkpt lat="48.6328" lon="-3.86155">
        <ele>8.6</ele>
        <time>2025-09-22T13:23:09Z</time>
      </trkpt>
      <trkpt lat="48.63285" lon="-3.86167">
        <ele>8.8</ele>
        <time>2025-09-22T13:23:12Z</time>
      </trkpt>
      <trkpt lat="48.63296" lon="-3.86191">
        <ele>9.4</ele>
        <time>2025-09-22T13:23:18Z</time>
      </trkpt>
      <trkpt lat="48.63298" lon="-3.86195">
        <ele>9.6</ele>
        <time>2025-09-22T13:23:19Z</time>
      </trkpt>
      <trkpt lat="48.63299" lon="-3.86199">
        <ele>9.8</ele>
        <time>2025-09-22T13:23:20Z</time>
      </trkpt>
      <trkpt lat="48.6331" lon="-3.86224">
        <ele>10.8</ele>
        <time>2025-09-22T13:23:26Z</time>
      </trkpt>
      <trkpt lat="48.63314" lon="-3.86232">
        <ele>11</ele>
        <time>2025-09-22T13:23:28Z</time>
      </trkpt>
      <trkpt lat="48.63319" lon="-3.86241">
        <ele>11.2</ele>
        <time>2025-09-22T13:23:30Z</time>
      </trkpt>
      <trkpt lat="48.63328" lon="-3.86262">
        <ele>10.8</ele>
        <time>2025-09-22T13:23:35Z</time>
      </trkpt>
      <trkpt lat="48.63342" lon="-3.86293">
        <ele>11.2</ele>
        <time>2025-09-22T13:23:43Z</time>
      </trkpt>
      <trkpt lat="48.63352" lon="-3.86317">
        <ele>11.6</ele>
        <time>2025-09-22T13:23:50Z</time>
      </trkpt>
      <trkpt lat="48.63354" lon="-3.86321">
        <ele>11.6</ele>
        <time>2025-09-22T13:23:51Z</time>
      </trkpt>
      <trkpt lat="48.63367" lon="-3.86351">
        <ele>11.4</ele>
        <time>2025-09-22T13:24:00Z</time>
      </trkpt>
      <trkpt lat="48.63379" lon="-3.86376">
        <ele>11.6</ele>
        <time>2025-09-22T13:24:08Z</time>
      </trkpt>
      <trkpt lat="48.63385" lon="-3.86389">
        <ele>12</ele>
        <time>2025-09-22T13:24:13Z</time>
      </trkpt>
      <trkpt lat="48.6339" lon="-3.86401">
        <ele>12.4</ele>
        <time>2025-09-22T13:24:17Z</time>
      </trkpt>
      <trkpt lat="48.63401" lon="-3.86427">
        <ele>12.4</ele>
        <time>2025-09-22T13:24:26Z</time>
      </trkpt>
      <trkpt lat="48.63412" lon="-3.8645">
        <ele>12.8</ele>
        <time>2025-09-22T13:24:33Z</time>
      </trkpt>
      <trkpt lat="48.63417" lon="-3.8646">
        <ele>13.2</ele>
        <time>2025-09-22T13:24:36Z</time>
      </trkpt>
      <trkpt lat="48.63425" lon="-3.86477">
        <ele>13.8</ele>
        <time>2025-09-22T13:24:41Z</time>
      </trkpt>
      <trkpt lat="48.6343" lon="-3.86491">
        <ele>14.2</ele>
        <time>2025-09-22T13:24:45Z</time>
      </trkpt>
      <trkpt lat="48.6344" lon="-3.86511">
        <ele>14.6</ele>
        <time>2025-09-22T13:24:51Z</time>
      </trkpt>
      <trkpt lat="48.63451" lon="-3.86538">
        <ele>15.2</ele>
        <time>2025-09-22T13:24:58Z</time>
      </trkpt>
      <trkpt lat="48.63453" lon="-3.86542">
        <ele>15.2</ele>
        <time>2025-09-22T13:24:59Z</time>
      </trkpt>
      <trkpt lat="48.63462" lon="-3.86559">
        <ele>15.4</ele>
        <time>2025-09-22T13:25:04Z</time>
      </trkpt>
      <trkpt lat="48.63469" lon="-3.86579">
        <ele>15.8</ele>
        <time>2025-09-22T13:25:09Z</time>
      </trkpt>
      <trkpt lat="48.6348" lon="-3.86601">
        <ele>15.8</ele>
        <time>2025-09-22T13:25:15Z</time>
      </trkpt>
      <trkpt lat="48.63486" lon="-3.86617">
        <ele>16</ele>
        <time>2025-09-22T13:25:19Z</time>
      </trkpt>
      <trkpt lat="48.6349" lon="-3.86625">
        <ele>16</ele>
        <time>2025-09-22T13:25:21Z</time>
      </trkpt>
      <trkpt lat="48.63502" lon="-3.86657">
        <ele>16.2</ele>
        <time>2025-09-22T13:25:29Z</time>
      </trkpt>
      <trkpt lat="48.63506" lon="-3.86668">
        <ele>16.2</ele>
        <time>2025-09-22T13:25:32Z</time>
      </trkpt>
      <trkpt lat="48.63515" lon="-3.86688">
        <ele>16.4</ele>
        <time>2025-09-22T13:25:37Z</time>
      </trkpt>
      <trkpt lat="48.6352" lon="-3.86715">
        <ele>16.6</ele>
        <time>2025-09-22T13:25:43Z</time>
      </trkpt>
      <trkpt lat="48.63526" lon="-3.86741">
        <ele>17</ele>
        <time>2025-09-22T13:25:49Z</time>
      </trkpt>
      <trkpt lat="48.63526" lon="-3.86751">
        <ele>17.4</ele>
        <time>2025-09-22T13:25:51Z</time>
      </trkpt>
      <trkpt lat="48.63528" lon="-3.86782">
        <ele>18</ele>
        <time>2025-09-22T13:25:57Z</time>
      </trkpt>
      <trkpt lat="48.63528" lon="-3.86792">
        <ele>18.4</ele>
        <time>2025-09-22T13:25:59Z</time>
      </trkpt>
      <trkpt lat="48.63525" lon="-3.86836">
        <ele>19.2</ele>
        <time>2025-09-22T13:26:07Z</time>
      </trkpt>
      <trkpt lat="48.63523" lon="-3.86851">
        <ele>19.4</ele>
        <time>2025-09-22T13:26:10Z</time>
      </trkpt>
      <trkpt lat="48.63518" lon="-3.86879">
        <ele>19.8</ele>
        <time>2025-09-22T13:26:16Z</time>
      </trkpt>
      <trkpt lat="48.63513" lon="-3.86901">
        <ele>20.4</ele>
        <time>2025-09-22T13:26:21Z</time>
      </trkpt>
      <trkpt lat="48.6351" lon="-3.86919">
        <ele>20.8</ele>
        <time>2025-09-22T13:26:25Z</time>
      </trkpt>
      <trkpt lat="48.63505" lon="-3.86947">
        <ele>21</ele>
        <time>2025-09-22T13:26:31Z</time>
      </trkpt>
      <trkpt lat="48.635" lon="-3.86975">
        <ele>21.4</ele>
        <time>2025-09-22T13:26:37Z</time>
      </trkpt>
      <trkpt lat="48.635" lon="-3.8698">
        <ele>21.4</ele>
        <time>2025-09-22T13:26:38Z</time>
      </trkpt>
      <trkpt lat="48.63497" lon="-3.87013">
        <ele>22</ele>
        <time>2025-09-22T13:26:45Z</time>
      </trkpt>
      <trkpt lat="48.63496" lon="-3.87032">
        <ele>22.6</ele>
        <time>2025-09-22T13:26:49Z</time>
      </trkpt>
      <trkpt lat="48.63496" lon="-3.87047">
        <ele>22.2</ele>
        <time>2025-09-22T13:26:52Z</time>
      </trkpt>
      <trkpt lat="48.63497" lon="-3.87082">
        <ele>21.4</ele>
        <time>2025-09-22T13:26:58Z</time>
      </trkpt>
      <trkpt lat="48.63498" lon="-3.87088">
        <ele>21.4</ele>
        <time>2025-09-22T13:26:59Z</time>
      </trkpt>
      <trkpt lat="48.63503" lon="-3.87128">
        <ele>20.6</ele>
        <time>2025-09-22T13:27:05Z</time>
      </trkpt>
      <trkpt lat="48.63504" lon="-3.87135">
        <ele>20.4</ele>
        <time>2025-09-22T13:27:06Z</time>
      </trkpt>
      <trkpt lat="48.63515" lon="-3.87185">
        <ele>19.8</ele>
        <time>2025-09-22T13:27:12Z</time>
      </trkpt>
      <trkpt lat="48.63529" lon="-3.87232">
        <ele>19.2</ele>
        <time>2025-09-22T13:27:17Z</time>
      </trkpt>
      <trkpt lat="48.63551" lon="-3.87279">
        <ele>18.4</ele>
        <time>2025-09-22T13:27:23Z</time>
      </trkpt>
      <trkpt lat="48.6356" lon="-3.87292">
        <ele>18.2</ele>
        <time>2025-09-22T13:27:25Z</time>
      </trkpt>
      <trkpt lat="48.63577" lon="-3.87319">
        <ele>17</ele>
        <time>2025-09-22T13:27:29Z</time>
      </trkpt>
      <trkpt lat="48.63581" lon="-3.87325">
        <ele>16.8</ele>
        <time>2025-09-22T13:27:30Z</time>
      </trkpt>
      <trkpt lat="48.63603" lon="-3.87357">
        <ele>16.6</ele>
        <time>2025-09-22T13:27:35Z</time>
      </trkpt>
      <trkpt lat="48.63608" lon="-3.87363">
        <ele>16.4</ele>
        <time>2025-09-22T13:27:36Z</time>
      </trkpt>
      <trkpt lat="48.63617" lon="-3.87375">
        <ele>16.6</ele>
        <time>2025-09-22T13:27:38Z</time>
      </trkpt>
      <trkpt lat="48.63626" lon="-3.87386">
        <ele>16.8</ele>
        <time>2025-09-22T13:27:40Z</time>
      </trkpt>
      <trkpt lat="48.63645" lon="-3.87406">
        <ele>16.8</ele>
        <time>2025-09-22T13:27:44Z</time>
      </trkpt>
      <trkpt lat="48.63678" lon="-3.87433">
        <ele>16.8</ele>
        <time>2025-09-22T13:27:51Z</time>
      </trkpt>
      <trkpt lat="48.6371" lon="-3.87454">
        <ele>16.8</ele>
        <time>2025-09-22T13:27:58Z</time>
      </trkpt>
      <trkpt lat="48.63725" lon="-3.87463">
        <ele>16.6</ele>
        <time>2025-09-22T13:28:01Z</time>
      </trkpt>
      <trkpt lat="48.63739" lon="-3.87473">
        <ele>16.2</ele>
        <time>2025-09-22T13:28:04Z</time>
      </trkpt>
      <trkpt lat="48.63745" lon="-3.87476">
        <ele>16</ele>
        <time>2025-09-22T13:28:05Z</time>
      </trkpt>
      <trkpt lat="48.63749" lon="-3.8748">
        <ele>16</ele>
        <time>2025-09-22T13:28:06Z</time>
      </trkpt>
      <trkpt lat="48.63767" lon="-3.87493">
        <ele>15.8</ele>
        <time>2025-09-22T13:28:10Z</time>
      </trkpt>
      <trkpt lat="48.63798" lon="-3.87519">
        <ele>15.8</ele>
        <time>2025-09-22T13:28:17Z</time>
      </trkpt>
      <trkpt lat="48.6382" lon="-3.87544">
        <ele>15.6</ele>
        <time>2025-09-22T13:28:22Z</time>
      </trkpt>
      <trkpt lat="48.63828" lon="-3.87556">
        <ele>15.2</ele>
        <time>2025-09-22T13:28:24Z</time>
      </trkpt>
      <trkpt lat="48.63837" lon="-3.87569">
        <ele>14.8</ele>
        <time>2025-09-22T13:28:26Z</time>
      </trkpt>
      <trkpt lat="48.63849" lon="-3.87593">
        <ele>14.4</ele>
        <time>2025-09-22T13:28:29Z</time>
      </trkpt>
      <trkpt lat="48.6386" lon="-3.87625">
        <ele>13.8</ele>
        <time>2025-09-22T13:28:32Z</time>
      </trkpt>
      <trkpt lat="48.63867" lon="-3.87649">
        <ele>13.2</ele>
        <time>2025-09-22T13:28:34Z</time>
      </trkpt>
      <trkpt lat="48.63869" lon="-3.87663">
        <ele>13</ele>
        <time>2025-09-22T13:28:35Z</time>
      </trkpt>
      <trkpt lat="48.63879" lon="-3.8772">
        <ele>13</ele>
        <time>2025-09-22T13:28:39Z</time>
      </trkpt>
      <trkpt lat="48.63885" lon="-3.87764">
        <ele>12.6</ele>
        <time>2025-09-22T13:28:42Z</time>
      </trkpt>
      <trkpt lat="48.63891" lon="-3.87804">
        <ele>12.4</ele>
        <time>2025-09-22T13:28:45Z</time>
      </trkpt>
      <trkpt lat="48.639" lon="-3.87878">
        <ele>11.6</ele>
        <time>2025-09-22T13:28:51Z</time>
      </trkpt>
      <trkpt lat="48.63903" lon="-3.879">
        <ele>11.4</ele>
        <time>2025-09-22T13:28:53Z</time>
      </trkpt>
      <trkpt lat="48.63911" lon="-3.87964">
        <ele>10.6</ele>
        <time>2025-09-22T13:28:59Z</time>
      </trkpt>
      <trkpt lat="48.63917" lon="-3.87994">
        <ele>11.2</ele>
        <time>2025-09-22T13:29:02Z</time>
      </trkpt>
      <trkpt lat="48.63932" lon="-3.88065">
        <ele>9</ele>
        <time>2025-09-22T13:29:09Z</time>
      </trkpt>
      <trkpt lat="48.63939" lon="-3.88095">
        <ele>8</ele>
        <time>2025-09-22T13:29:12Z</time>
      </trkpt>
      <trkpt lat="48.63943" lon="-3.88115">
        <ele>7.8</ele>
        <time>2025-09-22T13:29:14Z</time>
      </trkpt>
      <trkpt lat="48.63952" lon="-3.88154">
        <ele>6.6</ele>
        <time>2025-09-22T13:29:18Z</time>
      </trkpt>
      <trkpt lat="48.6396" lon="-3.88192">
        <ele>6.6</ele>
        <time>2025-09-22T13:29:22Z</time>
      </trkpt>
      <trkpt lat="48.63974" lon="-3.88266">
        <ele>6.8</ele>
        <time>2025-09-22T13:29:30Z</time>
      </trkpt>
      <trkpt lat="48.63989" lon="-3.88326">
        <ele>6.6</ele>
        <time>2025-09-22T13:29:37Z</time>
      </trkpt>
      <trkpt lat="48.64004" lon="-3.88381">
        <ele>6.8</ele>
        <time>2025-09-22T13:29:44Z</time>
      </trkpt>
      <trkpt lat="48.64019" lon="-3.88441">
        <ele>7</ele>
        <time>2025-09-22T13:29:52Z</time>
      </trkpt>
      <trkpt lat="48.64032" lon="-3.88494">
        <ele>6.6</ele>
        <time>2025-09-22T13:29:59Z</time>
      </trkpt>
      <trkpt lat="48.64048" lon="-3.88541">
        <ele>6.6</ele>
        <time>2025-09-22T13:30:06Z</time>
      </trkpt>
      <trkpt lat="48.64068" lon="-3.88597">
        <ele>7.2</ele>
        <time>2025-09-22T13:30:14Z</time>
      </trkpt>
      <trkpt lat="48.64085" lon="-3.88646">
        <ele>7.4</ele>
        <time>2025-09-22T13:30:21Z</time>
      </trkpt>
      <trkpt lat="48.6409" lon="-3.8866">
        <ele>7.8</ele>
        <time>2025-09-22T13:30:23Z</time>
      </trkpt>
      <trkpt lat="48.64097" lon="-3.8868">
        <ele>7.8</ele>
        <time>2025-09-22T13:30:26Z</time>
      </trkpt>
      <trkpt lat="48.64104" lon="-3.887">
        <ele>7.8</ele>
        <time>2025-09-22T13:30:29Z</time>
      </trkpt>
      <trkpt lat="48.64121" lon="-3.88749">
        <ele>6.8</ele>
        <time>2025-09-22T13:30:37Z</time>
      </trkpt>
      <trkpt lat="48.64123" lon="-3.88755">
        <ele>6.6</ele>
        <time>2025-09-22T13:30:38Z</time>
      </trkpt>
      <trkpt lat="48.64142" lon="-3.88811">
        <ele>7.4</ele>
        <time>2025-09-22T13:30:47Z</time>
      </trkpt>
      <trkpt lat="48.64145" lon="-3.88822">
        <ele>7.8</ele>
        <time>2025-09-22T13:30:49Z</time>
      </trkpt>
      <trkpt lat="48.6416" lon="-3.8886">
        <ele>9</ele>
        <time>2025-09-22T13:30:56Z</time>
      </trkpt>
      <trkpt lat="48.64169" lon="-3.88883">
        <ele>10</ele>
        <time>2025-09-22T13:31:01Z</time>
      </trkpt>
      <trkpt lat="48.64176" lon="-3.889">
        <ele>11.2</ele>
        <time>2025-09-22T13:31:05Z</time>
      </trkpt>
      <trkpt lat="48.64191" lon="-3.88939">
        <ele>11.8</ele>
        <time>2025-09-22T13:31:14Z</time>
      </trkpt>
      <trkpt lat="48.64206" lon="-3.88985">
        <ele>11.6</ele>
        <time>2025-09-22T13:31:23Z</time>
      </trkpt>
      <trkpt lat="48.64222" lon="-3.89032">
        <ele>11.4</ele>
        <time>2025-09-22T13:31:32Z</time>
      </trkpt>
      <trkpt lat="48.64229" lon="-3.89059">
        <ele>11.6</ele>
        <time>2025-09-22T13:31:37Z</time>
      </trkpt>
      <trkpt lat="48.64236" lon="-3.89081">
        <ele>11.4</ele>
        <time>2025-09-22T13:31:41Z</time>
      </trkpt>
      <trkpt lat="48.64253" lon="-3.89137">
        <ele>10</ele>
        <time>2025-09-22T13:31:50Z</time>
      </trkpt>
      <trkpt lat="48.64271" lon="-3.89192">
        <ele>9.2</ele>
        <time>2025-09-22T13:31:58Z</time>
      </trkpt>
      <trkpt lat="48.64277" lon="-3.89206">
        <ele>9</ele>
        <time>2025-09-22T13:32:00Z</time>
      </trkpt>
      <trkpt lat="48.64289" lon="-3.89231">
        <ele>9.2</ele>
        <time>2025-09-22T13:32:04Z</time>
      </trkpt>
      <trkpt lat="48.64292" lon="-3.89235">
        <ele>9.6</ele>
        <time>2025-09-22T13:32:05Z</time>
      </trkpt>
      <trkpt lat="48.64299" lon="-3.89242">
        <ele>9</ele>
        <time>2025-09-22T13:32:09Z</time>
      </trkpt>
      <trkpt lat="48.64299" lon="-3.89242">
        <ele>8.6</ele>
        <time>2025-09-22T13:32:10Z</time>
      </trkpt>
      <trkpt lat="48.64297" lon="-3.8924">
        <ele>8.6</ele>
        <time>2025-09-22T13:34:21Z</time>
      </trkpt>
      <trkpt lat="48.64297" lon="-3.89241">
        <ele>8.6</ele>
        <time>2025-09-22T13:34:22Z</time>
      </trkpt>
      <trkpt lat="48.64297" lon="-3.8924">
        <ele>8.6</ele>
        <time>2025-09-22T13:34:24Z</time>
      </trkpt>
      <trkpt lat="48.64297" lon="-3.89241">
        <ele>8.6</ele>
        <time>2025-09-22T13:34:27Z</time>
      </trkpt>
      <trkpt lat="48.64296" lon="-3.89241">
        <ele>8.6</ele>
        <time>2025-09-22T13:34:28Z</time>
      </trkpt>
      <trkpt lat="48.64295" lon="-3.89237">
        <ele>8.6</ele>
        <time>2025-09-22T13:35:11Z</time>
      </trkpt>
      <trkpt lat="48.64296" lon="-3.89238">
        <ele>8.6</ele>
        <time>2025-09-22T13:35:15Z</time>
      </trkpt>
      <trkpt lat="48.64297" lon="-3.89241">
        <ele>8.6</ele>
        <time>2025-09-22T13:36:22Z</time>
      </trkpt>
      <trkpt lat="48.64298" lon="-3.89243">
        <ele>8.6</ele>
        <time>2025-09-22T13:36:25Z</time>
      </trkpt>
      <trkpt lat="48.64298" lon="-3.89245">
        <ele>8.6</ele>
        <time>2025-09-22T13:39:21Z</time>
      </trkpt>
      <trkpt lat="48.64298" lon="-3.89244">
        <ele>8.6</ele>
        <time>2025-09-22T13:39:22Z</time>
      </trkpt>
      <trkpt lat="48.64298" lon="-3.89243">
        <ele>8.6</ele>
        <time>2025-09-22T13:39:23Z</time>
      </trkpt>
      <trkpt lat="48.64297" lon="-3.89247">
        <ele>8.6</ele>
        <time>2025-09-22T13:39:56Z</time>
      </trkpt>
      <trkpt lat="48.64297" lon="-3.8925">
        <ele>8.4</ele>
        <time>2025-09-22T13:39:58Z</time>
      </trkpt>
      <trkpt lat="48.64301" lon="-3.89259">
        <ele>9</ele>
        <time>2025-09-22T13:40:02Z</time>
      </trkpt>
      <trkpt lat="48.64302" lon="-3.89262">
        <ele>9</ele>
        <time>2025-09-22T13:40:03Z</time>
      </trkpt>
      <trkpt lat="48.64308" lon="-3.89278">
        <ele>8.8</ele>
        <time>2025-09-22T13:40:08Z</time>
      </trkpt>
      <trkpt lat="48.64311" lon="-3.89283">
        <ele>9.4</ele>
        <time>2025-09-22T13:40:10Z</time>
      </trkpt>
      <trkpt lat="48.64315" lon="-3.89295">
        <ele>10.2</ele>
        <time>2025-09-22T13:40:14Z</time>
      </trkpt>
      <trkpt lat="48.64316" lon="-3.89304">
        <ele>10.4</ele>
        <time>2025-09-22T13:40:16Z</time>
      </trkpt>
      <trkpt lat="48.64322" lon="-3.89328">
        <ele>10.2</ele>
        <time>2025-09-22T13:40:21Z</time>
      </trkpt>
      <trkpt lat="48.64323" lon="-3.89339">
        <ele>9.8</ele>
        <time>2025-09-22T13:40:23Z</time>
      </trkpt>
      <trkpt lat="48.64325" lon="-3.89375">
        <ele>9</ele>
        <time>2025-09-22T13:40:29Z</time>
      </trkpt>
      <trkpt lat="48.64325" lon="-3.89388">
        <ele>8.8</ele>
        <time>2025-09-22T13:40:31Z</time>
      </trkpt>
      <trkpt lat="48.6432" lon="-3.89438">
        <ele>8</ele>
        <time>2025-09-22T13:40:39Z</time>
      </trkpt>
      <trkpt lat="48.64318" lon="-3.89449">
        <ele>8.4</ele>
        <time>2025-09-22T13:40:41Z</time>
      </trkpt>
      <trkpt lat="48.64311" lon="-3.89495">
        <ele>9</ele>
        <time>2025-09-22T13:40:49Z</time>
      </trkpt>
      <trkpt lat="48.6431" lon="-3.89506">
        <ele>9</ele>
        <time>2025-09-22T13:40:51Z</time>
      </trkpt>
      <trkpt lat="48.64307" lon="-3.8954">
        <ele>10</ele>
        <time>2025-09-22T13:40:58Z</time>
      </trkpt>
      <trkpt lat="48.64306" lon="-3.89561">
        <ele>11</ele>
        <time>2025-09-22T13:41:03Z</time>
      </trkpt>
      <trkpt lat="48.64306" lon="-3.89569">
        <ele>11.6</ele>
        <time>2025-09-22T13:41:05Z</time>
      </trkpt>
      <trkpt lat="48.64306" lon="-3.89579">
        <ele>12.2</ele>
        <time>2025-09-22T13:41:07Z</time>
      </trkpt>
      <trkpt lat="48.64307" lon="-3.89601">
        <ele>13.2</ele>
        <time>2025-09-22T13:41:12Z</time>
      </trkpt>
      <trkpt lat="48.64307" lon="-3.89605">
        <ele>13.4</ele>
        <time>2025-09-22T13:41:13Z</time>
      </trkpt>
      <trkpt lat="48.64308" lon="-3.89628">
        <ele>14.4</ele>
        <time>2025-09-22T13:41:19Z</time>
      </trkpt>
      <trkpt lat="48.64309" lon="-3.89635">
        <ele>15</ele>
        <time>2025-09-22T13:41:21Z</time>
      </trkpt>
      <trkpt lat="48.6431" lon="-3.89646">
        <ele>15.8</ele>
        <time>2025-09-22T13:41:24Z</time>
      </trkpt>
      <trkpt lat="48.64313" lon="-3.89665">
        <ele>16.6</ele>
        <time>2025-09-22T13:41:29Z</time>
      </trkpt>
      <trkpt lat="48.64314" lon="-3.89668">
        <ele>16.6</ele>
        <time>2025-09-22T13:41:30Z</time>
      </trkpt>
      <trkpt lat="48.64314" lon="-3.89672">
        <ele>16.8</ele>
        <time>2025-09-22T13:41:31Z</time>
      </trkpt>
      <trkpt lat="48.64317" lon="-3.89689">
        <ele>17.8</ele>
        <time>2025-09-22T13:41:36Z</time>
      </trkpt>
      <trkpt lat="48.64319" lon="-3.89698">
        <ele>18.4</ele>
        <time>2025-09-22T13:41:39Z</time>
      </trkpt>
      <trkpt lat="48.6432" lon="-3.89706">
        <ele>18.8</ele>
        <time>2025-09-22T13:41:42Z</time>
      </trkpt>
      <trkpt lat="48.64323" lon="-3.89719">
        <ele>19.2</ele>
        <time>2025-09-22T13:41:47Z</time>
      </trkpt>
      <trkpt lat="48.64326" lon="-3.89737">
        <ele>19.8</ele>
        <time>2025-09-22T13:41:53Z</time>
      </trkpt>
      <trkpt lat="48.64327" lon="-3.89742">
        <ele>20.2</ele>
        <time>2025-09-22T13:41:55Z</time>
      </trkpt>
      <trkpt lat="48.6433" lon="-3.89753">
        <ele>21</ele>
        <time>2025-09-22T13:41:59Z</time>
      </trkpt>
      <trkpt lat="48.64332" lon="-3.89761">
        <ele>21.6</ele>
        <time>2025-09-22T13:42:02Z</time>
      </trkpt>
      <trkpt lat="48.64334" lon="-3.89771">
        <ele>22</ele>
        <time>2025-09-22T13:42:06Z</time>
      </trkpt>
      <trkpt lat="48.64335" lon="-3.89774">
        <ele>22.2</ele>
        <time>2025-09-22T13:42:07Z</time>
      </trkpt>
      <trkpt lat="48.64337" lon="-3.89781">
        <ele>22.4</ele>
        <time>2025-09-22T13:42:10Z</time>
      </trkpt>
      <trkpt lat="48.64339" lon="-3.89789">
        <ele>22.4</ele>
        <time>2025-09-22T13:42:13Z</time>
      </trkpt>
      <trkpt lat="48.64343" lon="-3.89807">
        <ele>23.2</ele>
        <time>2025-09-22T13:42:20Z</time>
      </trkpt>
      <trkpt lat="48.64346" lon="-3.89814">
        <ele>23.6</ele>
        <time>2025-09-22T13:42:23Z</time>
      </trkpt>
      <trkpt lat="48.64349" lon="-3.8983">
        <ele>24.4</ele>
        <time>2025-09-22T13:42:29Z</time>
      </trkpt>
      <trkpt lat="48.6435" lon="-3.89835">
        <ele>24.8</ele>
        <time>2025-09-22T13:42:31Z</time>
      </trkpt>
      <trkpt lat="48.64352" lon="-3.89839">
        <ele>25</ele>
        <time>2025-09-22T13:42:33Z</time>
      </trkpt>
      <trkpt lat="48.64356" lon="-3.89861">
        <ele>25.4</ele>
        <time>2025-09-22T13:42:41Z</time>
      </trkpt>
      <trkpt lat="48.64356" lon="-3.89863">
        <ele>25.6</ele>
        <time>2025-09-22T13:42:42Z</time>
      </trkpt>
      <trkpt lat="48.64361" lon="-3.89884">
        <ele>26.6</ele>
        <time>2025-09-22T13:42:50Z</time>
      </trkpt>
      <trkpt lat="48.64362" lon="-3.89887">
        <ele>26.6</ele>
        <time>2025-09-22T13:42:51Z</time>
      </trkpt>
      <trkpt lat="48.64367" lon="-3.89907">
        <ele>27.2</ele>
        <time>2025-09-22T13:42:59Z</time>
      </trkpt>
      <trkpt lat="48.64371" lon="-3.89925">
        <ele>27.6</ele>
        <time>2025-09-22T13:43:06Z</time>
      </trkpt>
      <trkpt lat="48.64373" lon="-3.89936">
        <ele>28.2</ele>
        <time>2025-09-22T13:43:10Z</time>
      </trkpt>
      <trkpt lat="48.64375" lon="-3.89943">
        <ele>28.8</ele>
        <time>2025-09-22T13:43:13Z</time>
      </trkpt>
      <trkpt lat="48.64379" lon="-3.89956">
        <ele>29.2</ele>
        <time>2025-09-22T13:43:19Z</time>
      </trkpt>
      <trkpt lat="48.6438" lon="-3.89966">
        <ele>29.8</ele>
        <time>2025-09-22T13:43:23Z</time>
      </trkpt>
      <trkpt lat="48.64382" lon="-3.89976">
        <ele>30.6</ele>
        <time>2025-09-22T13:43:27Z</time>
      </trkpt>
      <trkpt lat="48.64386" lon="-3.89996">
        <ele>31</ele>
        <time>2025-09-22T13:43:35Z</time>
      </trkpt>
      <trkpt lat="48.64387" lon="-3.90001">
        <ele>31.4</ele>
        <time>2025-09-22T13:43:37Z</time>
      </trkpt>
      <trkpt lat="48.64389" lon="-3.90019">
        <ele>31.8</ele>
        <time>2025-09-22T13:43:44Z</time>
      </trkpt>
      <trkpt lat="48.64388" lon="-3.90031">
        <ele>32.2</ele>
        <time>2025-09-22T13:43:49Z</time>
      </trkpt>
      <trkpt lat="48.64388" lon="-3.90034">
        <ele>32.4</ele>
        <time>2025-09-22T13:43:50Z</time>
      </trkpt>
      <trkpt lat="48.64388" lon="-3.90044">
        <ele>33.2</ele>
        <time>2025-09-22T13:43:54Z</time>
      </trkpt>
      <trkpt lat="48.64387" lon="-3.90053">
        <ele>33.6</ele>
        <time>2025-09-22T13:43:58Z</time>
      </trkpt>
      <trkpt lat="48.64387" lon="-3.9006">
        <ele>33.6</ele>
        <time>2025-09-22T13:44:01Z</time>
      </trkpt>
      <trkpt lat="48.64386" lon="-3.90069">
        <ele>34.2</ele>
        <time>2025-09-22T13:44:04Z</time>
      </trkpt>
      <trkpt lat="48.64386" lon="-3.90074">
        <ele>34.6</ele>
        <time>2025-09-22T13:44:06Z</time>
      </trkpt>
      <trkpt lat="48.64384" lon="-3.90093">
        <ele>35.4</ele>
        <time>2025-09-22T13:44:13Z</time>
      </trkpt>
      <trkpt lat="48.64384" lon="-3.9011">
        <ele>35.8</ele>
        <time>2025-09-22T13:44:20Z</time>
      </trkpt>
      <trkpt lat="48.64382" lon="-3.90124">
        <ele>36.4</ele>
        <time>2025-09-22T13:44:26Z</time>
      </trkpt>
      <trkpt lat="48.64381" lon="-3.90131">
        <ele>36.8</ele>
        <time>2025-09-22T13:44:29Z</time>
      </trkpt>
      <trkpt lat="48.64381" lon="-3.90151">
        <ele>37.4</ele>
        <time>2025-09-22T13:44:37Z</time>
      </trkpt>
      <trkpt lat="48.6438" lon="-3.90158">
        <ele>37.6</ele>
        <time>2025-09-22T13:44:40Z</time>
      </trkpt>
      <trkpt lat="48.64378" lon="-3.90174">
        <ele>38</ele>
        <time>2025-09-22T13:44:47Z</time>
      </trkpt>
      <trkpt lat="48.64377" lon="-3.90198">
        <ele>38.4</ele>
        <time>2025-09-22T13:44:57Z</time>
      </trkpt>
      <trkpt lat="48.64377" lon="-3.90215">
        <ele>38.6</ele>
        <time>2025-09-22T13:45:03Z</time>
      </trkpt>
      <trkpt lat="48.64378" lon="-3.90224">
        <ele>39</ele>
        <time>2025-09-22T13:45:07Z</time>
      </trkpt>
      <trkpt lat="48.64379" lon="-3.9023">
        <ele>39.2</ele>
        <time>2025-09-22T13:45:09Z</time>
      </trkpt>
      <trkpt lat="48.64379" lon="-3.90237">
        <ele>39.8</ele>
        <time>2025-09-22T13:45:12Z</time>
      </trkpt>
      <trkpt lat="48.64379" lon="-3.90242">
        <ele>40.4</ele>
        <time>2025-09-22T13:45:14Z</time>
      </trkpt>
      <trkpt lat="48.64381" lon="-3.90258">
        <ele>40</ele>
        <time>2025-09-22T13:45:20Z</time>
      </trkpt>
      <trkpt lat="48.64381" lon="-3.90271">
        <ele>40.8</ele>
        <time>2025-09-22T13:45:25Z</time>
      </trkpt>
      <trkpt lat="48.6438" lon="-3.90273">
        <ele>40.8</ele>
        <time>2025-09-22T13:45:26Z</time>
      </trkpt>
      <trkpt lat="48.64379" lon="-3.90288">
        <ele>41.8</ele>
        <time>2025-09-22T13:45:32Z</time>
      </trkpt>
      <trkpt lat="48.64379" lon="-3.9029">
        <ele>42</ele>
        <time>2025-09-22T13:45:33Z</time>
      </trkpt>
      <trkpt lat="48.64378" lon="-3.90302">
        <ele>42.6</ele>
        <time>2025-09-22T13:45:39Z</time>
      </trkpt>
      <trkpt lat="48.64375" lon="-3.90314">
        <ele>43</ele>
        <time>2025-09-22T13:45:44Z</time>
      </trkpt>
      <trkpt lat="48.64374" lon="-3.90318">
        <ele>43.2</ele>
        <time>2025-09-22T13:45:46Z</time>
      </trkpt>
      <trkpt lat="48.64369" lon="-3.90335">
        <ele>43.6</ele>
        <time>2025-09-22T13:45:54Z</time>
      </trkpt>
      <trkpt lat="48.64365" lon="-3.90342">
        <ele>44</ele>
        <time>2025-09-22T13:45:58Z</time>
      </trkpt>
      <trkpt lat="48.64364" lon="-3.90344">
        <ele>44</ele>
        <time>2025-09-22T13:45:59Z</time>
      </trkpt>
      <trkpt lat="48.64361" lon="-3.90349">
        <ele>44.2</ele>
        <time>2025-09-22T13:46:02Z</time>
      </trkpt>
      <trkpt lat="48.64352" lon="-3.9036">
        <ele>45.2</ele>
        <time>2025-09-22T13:46:10Z</time>
      </trkpt>
      <trkpt lat="48.64346" lon="-3.90369">
        <ele>45.6</ele>
        <time>2025-09-22T13:46:16Z</time>
      </trkpt>
      <trkpt lat="48.64342" lon="-3.90379">
        <ele>46.2</ele>
        <time>2025-09-22T13:46:21Z</time>
      </trkpt>
      <trkpt lat="48.64336" lon="-3.90389">
        <ele>46.8</ele>
        <time>2025-09-22T13:46:26Z</time>
      </trkpt>
      <trkpt lat="48.64333" lon="-3.90397">
        <ele>47.2</ele>
        <time>2025-09-22T13:46:30Z</time>
      </trkpt>
      <trkpt lat="48.64328" lon="-3.90408">
        <ele>47.4</ele>
        <time>2025-09-22T13:46:35Z</time>
      </trkpt>
      <trkpt lat="48.64324" lon="-3.90427">
        <ele>48.2</ele>
        <time>2025-09-22T13:46:41Z</time>
      </trkpt>
      <trkpt lat="48.64323" lon="-3.90429">
        <ele>48.2</ele>
        <time>2025-09-22T13:46:42Z</time>
      </trkpt>
      <trkpt lat="48.6432" lon="-3.90436">
        <ele>48.4</ele>
        <time>2025-09-22T13:46:46Z</time>
      </trkpt>
      <trkpt lat="48.6432" lon="-3.90438">
        <ele>48.4</ele>
        <time>2025-09-22T13:46:47Z</time>
      </trkpt>
      <trkpt lat="48.64316" lon="-3.90451">
        <ele>49</ele>
        <time>2025-09-22T13:46:53Z</time>
      </trkpt>
      <trkpt lat="48.64313" lon="-3.90461">
        <ele>49.2</ele>
        <time>2025-09-22T13:46:58Z</time>
      </trkpt>
      <trkpt lat="48.64312" lon="-3.90464">
        <ele>49.2</ele>
        <time>2025-09-22T13:46:59Z</time>
      </trkpt>
      <trkpt lat="48.64311" lon="-3.90468">
        <ele>49.4</ele>
        <time>2025-09-22T13:47:01Z</time>
      </trkpt>
      <trkpt lat="48.64307" lon="-3.90482">
        <ele>49.8</ele>
        <time>2025-09-22T13:47:07Z</time>
      </trkpt>
      <trkpt lat="48.64301" lon="-3.90503">
        <ele>50</ele>
        <time>2025-09-22T13:47:16Z</time>
      </trkpt>
      <trkpt lat="48.64299" lon="-3.9051">
        <ele>50.4</ele>
        <time>2025-09-22T13:47:19Z</time>
      </trkpt>
      <trkpt lat="48.64295" lon="-3.90528">
        <ele>51.2</ele>
        <time>2025-09-22T13:47:26Z</time>
      </trkpt>
      <trkpt lat="48.64293" lon="-3.90546">
        <ele>51.6</ele>
        <time>2025-09-22T13:47:33Z</time>
      </trkpt>
      <trkpt lat="48.64292" lon="-3.90552">
        <ele>51.8</ele>
        <time>2025-09-22T13:47:35Z</time>
      </trkpt>
      <trkpt lat="48.6429" lon="-3.9057">
        <ele>52.6</ele>
        <time>2025-09-22T13:47:42Z</time>
      </trkpt>
      <trkpt lat="48.6429" lon="-3.90578">
        <ele>52.8</ele>
        <time>2025-09-22T13:47:45Z</time>
      </trkpt>
      <trkpt lat="48.64288" lon="-3.90597">
        <ele>53.2</ele>
        <time>2025-09-22T13:47:53Z</time>
      </trkpt>
      <trkpt lat="48.64285" lon="-3.90616">
        <ele>53.6</ele>
        <time>2025-09-22T13:48:00Z</time>
      </trkpt>
      <trkpt lat="48.64285" lon="-3.90622">
        <ele>53.6</ele>
        <time>2025-09-22T13:48:02Z</time>
      </trkpt>
      <trkpt lat="48.64278" lon="-3.90643">
        <ele>54</ele>
        <time>2025-09-22T13:48:09Z</time>
      </trkpt>
      <trkpt lat="48.64273" lon="-3.90657">
        <ele>53.8</ele>
        <time>2025-09-22T13:48:13Z</time>
      </trkpt>
      <trkpt lat="48.64268" lon="-3.90672">
        <ele>53.6</ele>
        <time>2025-09-22T13:48:17Z</time>
      </trkpt>
      <trkpt lat="48.64259" lon="-3.907">
        <ele>53.2</ele>
        <time>2025-09-22T13:48:24Z</time>
      </trkpt>
      <trkpt lat="48.64256" lon="-3.90708">
        <ele>53.2</ele>
        <time>2025-09-22T13:48:26Z</time>
      </trkpt>
      <trkpt lat="48.64241" lon="-3.90752">
        <ele>52.8</ele>
        <time>2025-09-22T13:48:35Z</time>
      </trkpt>
      <trkpt lat="48.64234" lon="-3.90773">
        <ele>52.4</ele>
        <time>2025-09-22T13:48:39Z</time>
      </trkpt>
      <trkpt lat="48.64232" lon="-3.90778">
        <ele>52.2</ele>
        <time>2025-09-22T13:48:40Z</time>
      </trkpt>
      <trkpt lat="48.6423" lon="-3.90783">
        <ele>52</ele>
        <time>2025-09-22T13:48:41Z</time>
      </trkpt>
      <trkpt lat="48.64227" lon="-3.90788">
        <ele>51.8</ele>
        <time>2025-09-22T13:48:42Z</time>
      </trkpt>
      <trkpt lat="48.64225" lon="-3.90793">
        <ele>51.6</ele>
        <time>2025-09-22T13:48:43Z</time>
      </trkpt>
      <trkpt lat="48.64222" lon="-3.90798">
        <ele>51.4</ele>
        <time>2025-09-22T13:48:44Z</time>
      </trkpt>
      <trkpt lat="48.64211" lon="-3.9082">
        <ele>50.2</ele>
        <time>2025-09-22T13:48:48Z</time>
      </trkpt>
      <trkpt lat="48.64209" lon="-3.90827">
        <ele>49.8</ele>
        <time>2025-09-22T13:48:49Z</time>
      </trkpt>
      <trkpt lat="48.64203" lon="-3.90842">
        <ele>49.2</ele>
        <time>2025-09-22T13:48:51Z</time>
      </trkpt>
      <trkpt lat="48.64196" lon="-3.90861">
        <ele>48</ele>
        <time>2025-09-22T13:48:53Z</time>
      </trkpt>
      <trkpt lat="48.64193" lon="-3.90872">
        <ele>47.4</ele>
        <time>2025-09-22T13:48:54Z</time>
      </trkpt>
      <trkpt lat="48.64191" lon="-3.90883">
        <ele>46.6</ele>
        <time>2025-09-22T13:48:55Z</time>
      </trkpt>
      <trkpt lat="48.64184" lon="-3.90906">
        <ele>45.4</ele>
        <time>2025-09-22T13:48:57Z</time>
      </trkpt>
      <trkpt lat="48.64179" lon="-3.90929">
        <ele>44.2</ele>
        <time>2025-09-22T13:48:59Z</time>
      </trkpt>
      <trkpt lat="48.64174" lon="-3.90954">
        <ele>43.2</ele>
        <time>2025-09-22T13:49:01Z</time>
      </trkpt>
      <trkpt lat="48.64173" lon="-3.90967">
        <ele>43</ele>
        <time>2025-09-22T13:49:02Z</time>
      </trkpt>
      <trkpt lat="48.64173" lon="-3.9098">
        <ele>42.8</ele>
        <time>2025-09-22T13:49:03Z</time>
      </trkpt>
      <trkpt lat="48.64173" lon="-3.91003">
        <ele>43</ele>
        <time>2025-09-22T13:49:05Z</time>
      </trkpt>
      <trkpt lat="48.64172" lon="-3.91029">
        <ele>44.4</ele>
        <time>2025-09-22T13:49:08Z</time>
      </trkpt>
      <trkpt lat="48.64172" lon="-3.91035">
        <ele>44.8</ele>
        <time>2025-09-22T13:49:09Z</time>
      </trkpt>
      <trkpt lat="48.64171" lon="-3.91046">
        <ele>45.6</ele>
        <time>2025-09-22T13:49:11Z</time>
      </trkpt>
      <trkpt lat="48.6417" lon="-3.91058">
        <ele>46.2</ele>
        <time>2025-09-22T13:49:14Z</time>
      </trkpt>
      <trkpt lat="48.6417" lon="-3.9107">
        <ele>46.6</ele>
        <time>2025-09-22T13:49:17Z</time>
      </trkpt>
      <trkpt lat="48.64171" lon="-3.91077">
        <ele>46.8</ele>
        <time>2025-09-22T13:49:19Z</time>
      </trkpt>
      <trkpt lat="48.64172" lon="-3.91088">
        <ele>47.2</ele>
        <time>2025-09-22T13:49:22Z</time>
      </trkpt>
      <trkpt lat="48.64173" lon="-3.91092">
        <ele>47.4</ele>
        <time>2025-09-22T13:49:23Z</time>
      </trkpt>
      <trkpt lat="48.64175" lon="-3.91096">
        <ele>47.6</ele>
        <time>2025-09-22T13:49:24Z</time>
      </trkpt>
      <trkpt lat="48.64178" lon="-3.91102">
        <ele>47.8</ele>
        <time>2025-09-22T13:49:26Z</time>
      </trkpt>
      <trkpt lat="48.6418" lon="-3.91106">
        <ele>47.8</ele>
        <time>2025-09-22T13:49:27Z</time>
      </trkpt>
      <trkpt lat="48.64184" lon="-3.91112">
        <ele>47.8</ele>
        <time>2025-09-22T13:49:29Z</time>
      </trkpt>
      <trkpt lat="48.64194" lon="-3.91125">
        <ele>48.6</ele>
        <time>2025-09-22T13:49:34Z</time>
      </trkpt>
      <trkpt lat="48.64199" lon="-3.91134">
        <ele>49.4</ele>
        <time>2025-09-22T13:49:37Z</time>
      </trkpt>
      <trkpt lat="48.64202" lon="-3.91143">
        <ele>49.6</ele>
        <time>2025-09-22T13:49:40Z</time>
      </trkpt>
      <trkpt lat="48.64205" lon="-3.91159">
        <ele>50.6</ele>
        <time>2025-09-22T13:49:45Z</time>
      </trkpt>
      <trkpt lat="48.64206" lon="-3.91166">
        <ele>50.8</ele>
        <time>2025-09-22T13:49:47Z</time>
      </trkpt>
      <trkpt lat="48.64208" lon="-3.91193">
        <ele>51.8</ele>
        <time>2025-09-22T13:49:55Z</time>
      </trkpt>
      <trkpt lat="48.6421" lon="-3.91211">
        <ele>52.2</ele>
        <time>2025-09-22T13:50:01Z</time>
      </trkpt>
      <trkpt lat="48.6421" lon="-3.91214">
        <ele>52.4</ele>
        <time>2025-09-22T13:50:02Z</time>
      </trkpt>
      <trkpt lat="48.64211" lon="-3.91225">
        <ele>52.8</ele>
        <time>2025-09-22T13:50:06Z</time>
      </trkpt>
      <trkpt lat="48.64213" lon="-3.91236">
        <ele>53.2</ele>
        <time>2025-09-22T13:50:10Z</time>
      </trkpt>
      <trkpt lat="48.64214" lon="-3.91246">
        <ele>53.4</ele>
        <time>2025-09-22T13:50:14Z</time>
      </trkpt>
      <trkpt lat="48.64215" lon="-3.91251">
        <ele>53.6</ele>
        <time>2025-09-22T13:50:16Z</time>
      </trkpt>
      <trkpt lat="48.64215" lon="-3.91256">
        <ele>53.8</ele>
        <time>2025-09-22T13:50:18Z</time>
      </trkpt>
      <trkpt lat="48.64215" lon="-3.91258">
        <ele>54</ele>
        <time>2025-09-22T13:50:19Z</time>
      </trkpt>
      <trkpt lat="48.64216" lon="-3.91273">
        <ele>54.8</ele>
        <time>2025-09-22T13:50:26Z</time>
      </trkpt>
      <trkpt lat="48.64216" lon="-3.91278">
        <ele>55</ele>
        <time>2025-09-22T13:50:28Z</time>
      </trkpt>
      <trkpt lat="48.64219" lon="-3.91291">
        <ele>55.2</ele>
        <time>2025-09-22T13:50:33Z</time>
      </trkpt>
      <trkpt lat="48.6422" lon="-3.91312">
        <ele>55.8</ele>
        <time>2025-09-22T13:50:40Z</time>
      </trkpt>
      <trkpt lat="48.6422" lon="-3.91318">
        <ele>56</ele>
        <time>2025-09-22T13:50:42Z</time>
      </trkpt>
      <trkpt lat="48.64222" lon="-3.91328">
        <ele>56.2</ele>
        <time>2025-09-22T13:50:47Z</time>
      </trkpt>
      <trkpt lat="48.64224" lon="-3.9133">
        <ele>56.2</ele>
        <time>2025-09-22T13:50:51Z</time>
      </trkpt>
      <trkpt lat="48.64224" lon="-3.91332">
        <ele>56.6</ele>
        <time>2025-09-22T13:53:04Z</time>
      </trkpt>
      <trkpt lat="48.64224" lon="-3.91333">
        <ele>56.6</ele>
        <time>2025-09-22T13:53:05Z</time>
      </trkpt>
      <trkpt lat="48.64223" lon="-3.9134">
        <ele>56.8</ele>
        <time>2025-09-22T13:53:09Z</time>
      </trkpt>
      <trkpt lat="48.64223" lon="-3.91343">
        <ele>57</ele>
        <time>2025-09-22T13:53:10Z</time>
      </trkpt>
      <trkpt lat="48.64224" lon="-3.91358">
        <ele>57</ele>
        <time>2025-09-22T13:53:15Z</time>
      </trkpt>
      <trkpt lat="48.64225" lon="-3.91375">
        <ele>58</ele>
        <time>2025-09-22T13:53:22Z</time>
      </trkpt>
      <trkpt lat="48.64225" lon="-3.91378">
        <ele>58.2</ele>
        <time>2025-09-22T13:53:23Z</time>
      </trkpt>
      <trkpt lat="48.64226" lon="-3.91388">
        <ele>58.2</ele>
        <time>2025-09-22T13:53:27Z</time>
      </trkpt>
      <trkpt lat="48.64229" lon="-3.91404">
        <ele>58.4</ele>
        <time>2025-09-22T13:53:32Z</time>
      </trkpt>
      <trkpt lat="48.64233" lon="-3.91428">
        <ele>58.8</ele>
        <time>2025-09-22T13:53:38Z</time>
      </trkpt>
      <trkpt lat="48.64233" lon="-3.91435">
        <ele>59.2</ele>
        <time>2025-09-22T13:53:40Z</time>
      </trkpt>
      <trkpt lat="48.64234" lon="-3.91451">
        <ele>60</ele>
        <time>2025-09-22T13:53:46Z</time>
      </trkpt>
      <trkpt lat="48.64234" lon="-3.91458">
        <ele>60.2</ele>
        <time>2025-09-22T13:53:49Z</time>
      </trkpt>
      <trkpt lat="48.64235" lon="-3.91471">
        <ele>60.8</ele>
        <time>2025-09-22T13:53:53Z</time>
      </trkpt>
      <trkpt lat="48.64237" lon="-3.91486">
        <ele>61.2</ele>
        <time>2025-09-22T13:53:58Z</time>
      </trkpt>
      <trkpt lat="48.64238" lon="-3.91495">
        <ele>61.6</ele>
        <time>2025-09-22T13:54:01Z</time>
      </trkpt>
      <trkpt lat="48.6424" lon="-3.91518">
        <ele>62.2</ele>
        <time>2025-09-22T13:54:09Z</time>
      </trkpt>
      <trkpt lat="48.6424" lon="-3.9152">
        <ele>62.4</ele>
        <time>2025-09-22T13:54:10Z</time>
      </trkpt>
      <trkpt lat="48.64245" lon="-3.91545">
        <ele>63.2</ele>
        <time>2025-09-22T13:54:19Z</time>
      </trkpt>
      <trkpt lat="48.64246" lon="-3.91548">
        <ele>63.4</ele>
        <time>2025-09-22T13:54:20Z</time>
      </trkpt>
      <trkpt lat="48.64257" lon="-3.91574">
        <ele>64</ele>
        <time>2025-09-22T13:54:30Z</time>
      </trkpt>
      <trkpt lat="48.64269" lon="-3.916">
        <ele>64.2</ele>
        <time>2025-09-22T13:54:40Z</time>
      </trkpt>
      <trkpt lat="48.6427" lon="-3.91603">
        <ele>64.4</ele>
        <time>2025-09-22T13:54:41Z</time>
      </trkpt>
      <trkpt lat="48.64277" lon="-3.91621">
        <ele>65.2</ele>
        <time>2025-09-22T13:54:48Z</time>
      </trkpt>
      <trkpt lat="48.64284" lon="-3.91631">
        <ele>65.4</ele>
        <time>2025-09-22T13:54:52Z</time>
      </trkpt>
      <trkpt lat="48.64292" lon="-3.91643">
        <ele>65.6</ele>
        <time>2025-09-22T13:54:57Z</time>
      </trkpt>
      <trkpt lat="48.64307" lon="-3.91664">
        <ele>66</ele>
        <time>2025-09-22T13:55:05Z</time>
      </trkpt>
      <trkpt lat="48.64317" lon="-3.91677">
        <ele>65.8</ele>
        <time>2025-09-22T13:55:10Z</time>
      </trkpt>
      <trkpt lat="48.64328" lon="-3.91691">
        <ele>65.8</ele>
        <time>2025-09-22T13:55:15Z</time>
      </trkpt>
      <trkpt lat="48.64344" lon="-3.91713">
        <ele>65.6</ele>
        <time>2025-09-22T13:55:23Z</time>
      </trkpt>
      <trkpt lat="48.6436" lon="-3.9174">
        <ele>66.2</ele>
        <time>2025-09-22T13:55:32Z</time>
      </trkpt>
      <trkpt lat="48.6437" lon="-3.91762">
        <ele>66.6</ele>
        <time>2025-09-22T13:55:38Z</time>
      </trkpt>
      <trkpt lat="48.64373" lon="-3.91769">
        <ele>66.8</ele>
        <time>2025-09-22T13:55:40Z</time>
      </trkpt>
      <trkpt lat="48.64377" lon="-3.91782">
        <ele>66.8</ele>
        <time>2025-09-22T13:55:43Z</time>
      </trkpt>
      <trkpt lat="48.64381" lon="-3.91796">
        <ele>66.8</ele>
        <time>2025-09-22T13:55:46Z</time>
      </trkpt>
      <trkpt lat="48.64384" lon="-3.9181">
        <ele>66.4</ele>
        <time>2025-09-22T13:55:49Z</time>
      </trkpt>
      <trkpt lat="48.64388" lon="-3.91833">
        <ele>65.8</ele>
        <time>2025-09-22T13:55:54Z</time>
      </trkpt>
      <trkpt lat="48.64393" lon="-3.91858">
        <ele>65.8</ele>
        <time>2025-09-22T13:55:59Z</time>
      </trkpt>
      <trkpt lat="48.64397" lon="-3.91881">
        <ele>65.4</ele>
        <time>2025-09-22T13:56:03Z</time>
      </trkpt>
      <trkpt lat="48.64401" lon="-3.91906">
        <ele>65</ele>
        <time>2025-09-22T13:56:07Z</time>
      </trkpt>
      <trkpt lat="48.64403" lon="-3.91951">
        <ele>64.6</ele>
        <time>2025-09-22T13:56:14Z</time>
      </trkpt>
      <trkpt lat="48.64402" lon="-3.91971">
        <ele>64.4</ele>
        <time>2025-09-22T13:56:17Z</time>
      </trkpt>
      <trkpt lat="48.644" lon="-3.92008">
        <ele>63.8</ele>
        <time>2025-09-22T13:56:22Z</time>
      </trkpt>
      <trkpt lat="48.64393" lon="-3.92062">
        <ele>63.2</ele>
        <time>2025-09-22T13:56:29Z</time>
      </trkpt>
      <trkpt lat="48.64388" lon="-3.92123">
        <ele>63</ele>
        <time>2025-09-22T13:56:36Z</time>
      </trkpt>
      <trkpt lat="48.64385" lon="-3.9216">
        <ele>62.2</ele>
        <time>2025-09-22T13:56:40Z</time>
      </trkpt>
      <trkpt lat="48.64381" lon="-3.92219">
        <ele>61.2</ele>
        <time>2025-09-22T13:56:46Z</time>
      </trkpt>
      <trkpt lat="48.64381" lon="-3.92229">
        <ele>61.2</ele>
        <time>2025-09-22T13:56:47Z</time>
      </trkpt>
      <trkpt lat="48.64379" lon="-3.9226">
        <ele>60.2</ele>
        <time>2025-09-22T13:56:50Z</time>
      </trkpt>
      <trkpt lat="48.64378" lon="-3.9227">
        <ele>60</ele>
        <time>2025-09-22T13:56:51Z</time>
      </trkpt>
      <trkpt lat="48.64374" lon="-3.92301">
        <ele>58.8</ele>
        <time>2025-09-22T13:56:54Z</time>
      </trkpt>
      <trkpt lat="48.64373" lon="-3.9231">
        <ele>58.6</ele>
        <time>2025-09-22T13:56:55Z</time>
      </trkpt>
      <trkpt lat="48.64368" lon="-3.92346">
        <ele>57.8</ele>
        <time>2025-09-22T13:56:59Z</time>
      </trkpt>
      <trkpt lat="48.64365" lon="-3.92371">
        <ele>57.4</ele>
        <time>2025-09-22T13:57:02Z</time>
      </trkpt>
      <trkpt lat="48.64363" lon="-3.92394">
        <ele>56.8</ele>
        <time>2025-09-22T13:57:05Z</time>
      </trkpt>
      <trkpt lat="48.64362" lon="-3.9242">
        <ele>56.2</ele>
        <time>2025-09-22T13:57:09Z</time>
      </trkpt>
      <trkpt lat="48.64365" lon="-3.92451">
        <ele>55.8</ele>
        <time>2025-09-22T13:57:15Z</time>
      </trkpt>
      <trkpt lat="48.64366" lon="-3.92455">
        <ele>56</ele>
        <time>2025-09-22T13:57:17Z</time>
      </trkpt>
      <trkpt lat="48.64367" lon="-3.92457">
        <ele>56.2</ele>
        <time>2025-09-22T13:57:18Z</time>
      </trkpt>
      <trkpt lat="48.64369" lon="-3.92459">
        <ele>56.2</ele>
        <time>2025-09-22T13:57:20Z</time>
      </trkpt>
      <trkpt lat="48.64369" lon="-3.92458">
        <ele>55.8</ele>
        <time>2025-09-22T13:57:22Z</time>
      </trkpt>
      <trkpt lat="48.64371" lon="-3.92462">
        <ele>55.6</ele>
        <time>2025-09-22T13:57:33Z</time>
      </trkpt>
      <trkpt lat="48.64371" lon="-3.92466">
        <ele>55.6</ele>
        <time>2025-09-22T13:57:34Z</time>
      </trkpt>
      <trkpt lat="48.64371" lon="-3.92483">
        <ele>55.4</ele>
        <time>2025-09-22T13:57:38Z</time>
      </trkpt>
      <trkpt lat="48.64371" lon="-3.92489">
        <ele>55.2</ele>
        <time>2025-09-22T13:57:39Z</time>
      </trkpt>
      <trkpt lat="48.64366" lon="-3.92532">
        <ele>54.6</ele>
        <time>2025-09-22T13:57:46Z</time>
      </trkpt>
      <trkpt lat="48.64365" lon="-3.92539">
        <ele>54.6</ele>
        <time>2025-09-22T13:57:47Z</time>
      </trkpt>
      <trkpt lat="48.64361" lon="-3.92578">
        <ele>54.2</ele>
        <time>2025-09-22T13:57:52Z</time>
      </trkpt>
      <trkpt lat="48.6436" lon="-3.92587">
        <ele>54.2</ele>
        <time>2025-09-22T13:57:53Z</time>
      </trkpt>
      <trkpt lat="48.64354" lon="-3.9263">
        <ele>53.4</ele>
        <time>2025-09-22T13:57:58Z</time>
      </trkpt>
      <trkpt lat="48.6435" lon="-3.92673">
        <ele>52.6</ele>
        <time>2025-09-22T13:58:03Z</time>
      </trkpt>
      <trkpt lat="48.64349" lon="-3.92699">
        <ele>52.2</ele>
        <time>2025-09-22T13:58:06Z</time>
      </trkpt>
      <trkpt lat="48.64351" lon="-3.92744">
        <ele>51.4</ele>
        <time>2025-09-22T13:58:11Z</time>
      </trkpt>
      <trkpt lat="48.64353" lon="-3.92771">
        <ele>51.2</ele>
        <time>2025-09-22T13:58:14Z</time>
      </trkpt>
      <trkpt lat="48.64359" lon="-3.92825">
        <ele>50.2</ele>
        <time>2025-09-22T13:58:20Z</time>
      </trkpt>
      <trkpt lat="48.64361" lon="-3.92833">
        <ele>50</ele>
        <time>2025-09-22T13:58:21Z</time>
      </trkpt>
      <trkpt lat="48.64376" lon="-3.92874">
        <ele>49.6</ele>
        <time>2025-09-22T13:58:26Z</time>
      </trkpt>
      <trkpt lat="48.64386" lon="-3.92896">
        <ele>49</ele>
        <time>2025-09-22T13:58:29Z</time>
      </trkpt>
      <trkpt lat="48.64406" lon="-3.92936">
        <ele>48</ele>
        <time>2025-09-22T13:58:34Z</time>
      </trkpt>
      <trkpt lat="48.6441" lon="-3.92944">
        <ele>47.6</ele>
        <time>2025-09-22T13:58:35Z</time>
      </trkpt>
      <trkpt lat="48.64436" lon="-3.92994">
        <ele>46.6</ele>
        <time>2025-09-22T13:58:41Z</time>
      </trkpt>
      <trkpt lat="48.64444" lon="-3.9301">
        <ele>46</ele>
        <time>2025-09-22T13:58:43Z</time>
      </trkpt>
      <trkpt lat="48.64461" lon="-3.93043">
        <ele>45.6</ele>
        <time>2025-09-22T13:58:47Z</time>
      </trkpt>
      <trkpt lat="48.64477" lon="-3.93074">
        <ele>44.2</ele>
        <time>2025-09-22T13:58:51Z</time>
      </trkpt>
      <trkpt lat="48.64485" lon="-3.93089">
        <ele>43.8</ele>
        <time>2025-09-22T13:58:53Z</time>
      </trkpt>
      <trkpt lat="48.64504" lon="-3.93127">
        <ele>43</ele>
        <time>2025-09-22T13:58:58Z</time>
      </trkpt>
      <trkpt lat="48.64516" lon="-3.93156">
        <ele>42.2</ele>
        <time>2025-09-22T13:59:02Z</time>
      </trkpt>
      <trkpt lat="48.64522" lon="-3.93172">
        <ele>42</ele>
        <time>2025-09-22T13:59:04Z</time>
      </trkpt>
      <trkpt lat="48.64534" lon="-3.93219">
        <ele>42</ele>
        <time>2025-09-22T13:59:10Z</time>
      </trkpt>
      <trkpt lat="48.64543" lon="-3.93267">
        <ele>41</ele>
        <time>2025-09-22T13:59:16Z</time>
      </trkpt>
      <trkpt lat="48.64544" lon="-3.93282">
        <ele>41</ele>
        <time>2025-09-22T13:59:18Z</time>
      </trkpt>
      <trkpt lat="48.64548" lon="-3.93355">
        <ele>40.4</ele>
        <time>2025-09-22T13:59:27Z</time>
      </trkpt>
      <trkpt lat="48.64548" lon="-3.93406">
        <ele>39.8</ele>
        <time>2025-09-22T13:59:33Z</time>
      </trkpt>
      <trkpt lat="48.64547" lon="-3.93432">
        <ele>39.4</ele>
        <time>2025-09-22T13:59:36Z</time>
      </trkpt>
      <trkpt lat="48.64547" lon="-3.93466">
        <ele>38.8</ele>
        <time>2025-09-22T13:59:40Z</time>
      </trkpt>
      <trkpt lat="48.64546" lon="-3.93489">
        <ele>38.2</ele>
        <time>2025-09-22T13:59:43Z</time>
      </trkpt>
      <trkpt lat="48.64547" lon="-3.93495">
        <ele>38</ele>
        <time>2025-09-22T13:59:44Z</time>
      </trkpt>
      <trkpt lat="48.64545" lon="-3.93514">
        <ele>38</ele>
        <time>2025-09-22T13:59:48Z</time>
      </trkpt>
      <trkpt lat="48.64544" lon="-3.93516">
        <ele>37.8</ele>
        <time>2025-09-22T13:59:49Z</time>
      </trkpt>
      <trkpt lat="48.64542" lon="-3.93518">
        <ele>37.6</ele>
        <time>2025-09-22T13:59:50Z</time>
      </trkpt>
      <trkpt lat="48.64531" lon="-3.93523">
        <ele>36.6</ele>
        <time>2025-09-22T13:59:54Z</time>
      </trkpt>
      <trkpt lat="48.64527" lon="-3.93524">
        <ele>36.4</ele>
        <time>2025-09-22T13:59:55Z</time>
      </trkpt>
      <trkpt lat="48.64523" lon="-3.93525">
        <ele>36</ele>
        <time>2025-09-22T13:59:56Z</time>
      </trkpt>
      <trkpt lat="48.64513" lon="-3.93525">
        <ele>35.2</ele>
        <time>2025-09-22T13:59:58Z</time>
      </trkpt>
      <trkpt lat="48.64507" lon="-3.93526">
        <ele>34.6</ele>
        <time>2025-09-22T13:59:59Z</time>
      </trkpt>
      <trkpt lat="48.64501" lon="-3.93527">
        <ele>34</ele>
        <time>2025-09-22T14:00:00Z</time>
      </trkpt>
      <trkpt lat="48.64489" lon="-3.93529">
        <ele>32.6</ele>
        <time>2025-09-22T14:00:02Z</time>
      </trkpt>
      <trkpt lat="48.64476" lon="-3.93531">
        <ele>31.2</ele>
        <time>2025-09-22T14:00:04Z</time>
      </trkpt>
      <trkpt lat="48.6447" lon="-3.93531">
        <ele>30.4</ele>
        <time>2025-09-22T14:00:05Z</time>
      </trkpt>
      <trkpt lat="48.64464" lon="-3.93532">
        <ele>29.6</ele>
        <time>2025-09-22T14:00:06Z</time>
      </trkpt>
      <trkpt lat="48.64452" lon="-3.93532">
        <ele>28</ele>
        <time>2025-09-22T14:00:08Z</time>
      </trkpt>
      <trkpt lat="48.64443" lon="-3.93532">
        <ele>26.8</ele>
        <time>2025-09-22T14:00:10Z</time>
      </trkpt>
      <trkpt lat="48.64438" lon="-3.93531">
        <ele>26.4</ele>
        <time>2025-09-22T14:00:11Z</time>
      </trkpt>
      <trkpt lat="48.64434" lon="-3.93531">
        <ele>26</ele>
        <time>2025-09-22T14:00:12Z</time>
      </trkpt>
      <trkpt lat="48.64429" lon="-3.9353">
        <ele>25.8</ele>
        <time>2025-09-22T14:00:13Z</time>
      </trkpt>
      <trkpt lat="48.64416" lon="-3.93532">
        <ele>24.8</ele>
        <time>2025-09-22T14:00:17Z</time>
      </trkpt>
      <trkpt lat="48.64414" lon="-3.93534">
        <ele>24.6</ele>
        <time>2025-09-22T14:00:18Z</time>
      </trkpt>
      <trkpt lat="48.64412" lon="-3.93546">
        <ele>24.4</ele>
        <time>2025-09-22T14:00:21Z</time>
      </trkpt>
      <trkpt lat="48.64417" lon="-3.93569">
        <ele>24</ele>
        <time>2025-09-22T14:00:25Z</time>
      </trkpt>
      <trkpt lat="48.64418" lon="-3.93576">
        <ele>24</ele>
        <time>2025-09-22T14:00:26Z</time>
      </trkpt>
      <trkpt lat="48.6442" lon="-3.93589">
        <ele>23.8</ele>
        <time>2025-09-22T14:00:28Z</time>
      </trkpt>
      <trkpt lat="48.64426" lon="-3.93616">
        <ele>23.8</ele>
        <time>2025-09-22T14:00:32Z</time>
      </trkpt>
      <trkpt lat="48.64428" lon="-3.93629">
        <ele>23.6</ele>
        <time>2025-09-22T14:00:34Z</time>
      </trkpt>
      <trkpt lat="48.64431" lon="-3.93664">
        <ele>23.8</ele>
        <time>2025-09-22T14:00:39Z</time>
      </trkpt>
      <trkpt lat="48.64432" lon="-3.93677">
        <ele>23.8</ele>
        <time>2025-09-22T14:00:41Z</time>
      </trkpt>
      <trkpt lat="48.64429" lon="-3.93711">
        <ele>23.6</ele>
        <time>2025-09-22T14:00:46Z</time>
      </trkpt>
      <trkpt lat="48.64422" lon="-3.93755">
        <ele>23.4</ele>
        <time>2025-09-22T14:00:53Z</time>
      </trkpt>
      <trkpt lat="48.64421" lon="-3.93768">
        <ele>23.4</ele>
        <time>2025-09-22T14:00:55Z</time>
      </trkpt>
      <trkpt lat="48.64419" lon="-3.93826">
        <ele>24.2</ele>
        <time>2025-09-22T14:01:04Z</time>
      </trkpt>
      <trkpt lat="48.6442" lon="-3.93846">
        <ele>24.4</ele>
        <time>2025-09-22T14:01:07Z</time>
      </trkpt>
      <trkpt lat="48.64423" lon="-3.93871">
        <ele>24.6</ele>
        <time>2025-09-22T14:01:11Z</time>
      </trkpt>
      <trkpt lat="48.64424" lon="-3.93877">
        <ele>24.8</ele>
        <time>2025-09-22T14:01:12Z</time>
      </trkpt>
      <trkpt lat="48.64429" lon="-3.939">
        <ele>25.2</ele>
        <time>2025-09-22T14:01:16Z</time>
      </trkpt>
      <trkpt lat="48.64433" lon="-3.93916">
        <ele>25.8</ele>
        <time>2025-09-22T14:01:19Z</time>
      </trkpt>
      <trkpt lat="48.64434" lon="-3.9392">
        <ele>26</ele>
        <time>2025-09-22T14:01:20Z</time>
      </trkpt>
      <trkpt lat="48.64442" lon="-3.93942">
        <ele>27</ele>
        <time>2025-09-22T14:01:25Z</time>
      </trkpt>
      <trkpt lat="48.64446" lon="-3.93954">
        <ele>27.4</ele>
        <time>2025-09-22T14:01:28Z</time>
      </trkpt>
      <trkpt lat="48.6445" lon="-3.93961">
        <ele>28</ele>
        <time>2025-09-22T14:01:31Z</time>
      </trkpt>
      <trkpt lat="48.64454" lon="-3.93973">
        <ele>29</ele>
        <time>2025-09-22T14:01:35Z</time>
      </trkpt>
      <trkpt lat="48.64455" lon="-3.93976">
        <ele>29.2</ele>
        <time>2025-09-22T14:01:36Z</time>
      </trkpt>
      <trkpt lat="48.64461" lon="-3.93988">
        <ele>30.2</ele>
        <time>2025-09-22T14:01:41Z</time>
      </trkpt>
      <trkpt lat="48.64463" lon="-3.93993">
        <ele>30.2</ele>
        <time>2025-09-22T14:01:43Z</time>
      </trkpt>
      <trkpt lat="48.64472" lon="-3.94014">
        <ele>31</ele>
        <time>2025-09-22T14:01:51Z</time>
      </trkpt>
      <trkpt lat="48.64474" lon="-3.94019">
        <ele>31.2</ele>
        <time>2025-09-22T14:01:53Z</time>
      </trkpt>
      <trkpt lat="48.64477" lon="-3.94029">
        <ele>31.6</ele>
        <time>2025-09-22T14:01:57Z</time>
      </trkpt>
      <trkpt lat="48.6448" lon="-3.94033">
        <ele>31.6</ele>
        <time>2025-09-22T14:01:59Z</time>
      </trkpt>
      <trkpt lat="48.64482" lon="-3.94037">
        <ele>31.6</ele>
        <time>2025-09-22T14:02:01Z</time>
      </trkpt>
      <trkpt lat="48.64486" lon="-3.94044">
        <ele>32</ele>
        <time>2025-09-22T14:02:04Z</time>
      </trkpt>
      <trkpt lat="48.6449" lon="-3.94054">
        <ele>32.4</ele>
        <time>2025-09-22T14:02:08Z</time>
      </trkpt>
      <trkpt lat="48.64493" lon="-3.94061">
        <ele>32.4</ele>
        <time>2025-09-22T14:02:11Z</time>
      </trkpt>
      <trkpt lat="48.64498" lon="-3.94075">
        <ele>32.4</ele>
        <time>2025-09-22T14:02:17Z</time>
      </trkpt>
      <trkpt lat="48.645" lon="-3.94079">
        <ele>32.6</ele>
        <time>2025-09-22T14:02:19Z</time>
      </trkpt>
      <trkpt lat="48.64507" lon="-3.94096">
        <ele>33</ele>
        <time>2025-09-22T14:02:26Z</time>
      </trkpt>
      <trkpt lat="48.6451" lon="-3.94103">
        <ele>33.4</ele>
        <time>2025-09-22T14:02:29Z</time>
      </trkpt>
      <trkpt lat="48.64515" lon="-3.94116">
        <ele>33.8</ele>
        <time>2025-09-22T14:02:35Z</time>
      </trkpt>
      <trkpt lat="48.64522" lon="-3.94131">
        <ele>34.2</ele>
        <time>2025-09-22T14:02:42Z</time>
      </trkpt>
      <trkpt lat="48.64524" lon="-3.94136">
        <ele>34.2</ele>
        <time>2025-09-22T14:02:44Z</time>
      </trkpt>
      <trkpt lat="48.64529" lon="-3.94146">
        <ele>34.4</ele>
        <time>2025-09-22T14:02:49Z</time>
      </trkpt>
      <trkpt lat="48.64531" lon="-3.9415">
        <ele>34.6</ele>
        <time>2025-09-22T14:02:51Z</time>
      </trkpt>
      <trkpt lat="48.64538" lon="-3.94161">
        <ele>35</ele>
        <time>2025-09-22T14:02:57Z</time>
      </trkpt>
      <trkpt lat="48.64546" lon="-3.94174">
        <ele>35</ele>
        <time>2025-09-22T14:03:03Z</time>
      </trkpt>
      <trkpt lat="48.64554" lon="-3.94186">
        <ele>35.2</ele>
        <time>2025-09-22T14:03:09Z</time>
      </trkpt>
      <trkpt lat="48.64561" lon="-3.94192">
        <ele>35.4</ele>
        <time>2025-09-22T14:03:12Z</time>
      </trkpt>
      <trkpt lat="48.64572" lon="-3.94201">
        <ele>36</ele>
        <time>2025-09-22T14:03:17Z</time>
      </trkpt>
      <trkpt lat="48.64589" lon="-3.94212">
        <ele>35.8</ele>
        <time>2025-09-22T14:03:24Z</time>
      </trkpt>
      <trkpt lat="48.64609" lon="-3.94222">
        <ele>36.4</ele>
        <time>2025-09-22T14:03:31Z</time>
      </trkpt>
      <trkpt lat="48.64615" lon="-3.94224">
        <ele>36.4</ele>
        <time>2025-09-22T14:03:33Z</time>
      </trkpt>
      <trkpt lat="48.64629" lon="-3.94231">
        <ele>36.4</ele>
        <time>2025-09-22T14:03:37Z</time>
      </trkpt>
      <trkpt lat="48.64636" lon="-3.94234">
        <ele>36.2</ele>
        <time>2025-09-22T14:03:39Z</time>
      </trkpt>
      <trkpt lat="48.64663" lon="-3.94262">
        <ele>36.2</ele>
        <time>2025-09-22T14:03:48Z</time>
      </trkpt>
      <trkpt lat="48.64674" lon="-3.94276">
        <ele>35.8</ele>
        <time>2025-09-22T14:03:52Z</time>
      </trkpt>
      <trkpt lat="48.64687" lon="-3.94297">
        <ele>35.6</ele>
        <time>2025-09-22T14:03:57Z</time>
      </trkpt>
      <trkpt lat="48.64693" lon="-3.94305">
        <ele>35.2</ele>
        <time>2025-09-22T14:03:59Z</time>
      </trkpt>
      <trkpt lat="48.64714" lon="-3.94337">
        <ele>34.4</ele>
        <time>2025-09-22T14:04:06Z</time>
      </trkpt>
      <trkpt lat="48.64717" lon="-3.94342">
        <ele>34</ele>
        <time>2025-09-22T14:04:07Z</time>
      </trkpt>
      <trkpt lat="48.64727" lon="-3.94357">
        <ele>33.4</ele>
        <time>2025-09-22T14:04:11Z</time>
      </trkpt>
      <trkpt lat="48.6473" lon="-3.9436">
        <ele>33</ele>
        <time>2025-09-22T14:04:13Z</time>
      </trkpt>
      <trkpt lat="48.64732" lon="-3.94361">
        <ele>33</ele>
        <time>2025-09-22T14:04:15Z</time>
      </trkpt>
      <trkpt lat="48.64732" lon="-3.94361">
        <ele>33.2</ele>
        <time>2025-09-22T14:04:17Z</time>
      </trkpt>
      <trkpt lat="48.64734" lon="-3.94366">
        <ele>33.4</ele>
        <time>2025-09-22T14:04:57Z</time>
      </trkpt>
      <trkpt lat="48.64735" lon="-3.94372">
        <ele>33.2</ele>
        <time>2025-09-22T14:04:59Z</time>
      </trkpt>
      <trkpt lat="48.64728" lon="-3.94392">
        <ele>32.6</ele>
        <time>2025-09-22T14:05:03Z</time>
      </trkpt>
      <trkpt lat="48.64716" lon="-3.94417">
        <ele>31.8</ele>
        <time>2025-09-22T14:05:07Z</time>
      </trkpt>
      <trkpt lat="48.64708" lon="-3.94432">
        <ele>31.4</ele>
        <time>2025-09-22T14:05:09Z</time>
      </trkpt>
      <trkpt lat="48.64699" lon="-3.94448">
        <ele>30.8</ele>
        <time>2025-09-22T14:05:11Z</time>
      </trkpt>
      <trkpt lat="48.64686" lon="-3.94474">
        <ele>29.6</ele>
        <time>2025-09-22T14:05:14Z</time>
      </trkpt>
      <trkpt lat="48.64676" lon="-3.94493">
        <ele>29</ele>
        <time>2025-09-22T14:05:16Z</time>
      </trkpt>
      <trkpt lat="48.64671" lon="-3.94503">
        <ele>28.6</ele>
        <time>2025-09-22T14:05:17Z</time>
      </trkpt>
      <trkpt lat="48.64661" lon="-3.94523">
        <ele>27.8</ele>
        <time>2025-09-22T14:05:19Z</time>
      </trkpt>
      <trkpt lat="48.64656" lon="-3.94533">
        <ele>27.4</ele>
        <time>2025-09-22T14:05:20Z</time>
      </trkpt>
      <trkpt lat="48.64639" lon="-3.94565">
        <ele>26.2</ele>
        <time>2025-09-22T14:05:23Z</time>
      </trkpt>
      <trkpt lat="48.64628" lon="-3.94587">
        <ele>25</ele>
        <time>2025-09-22T14:05:25Z</time>
      </trkpt>
      <trkpt lat="48.64613" lon="-3.94619">
        <ele>23.8</ele>
        <time>2025-09-22T14:05:28Z</time>
      </trkpt>
      <trkpt lat="48.64598" lon="-3.94649">
        <ele>23.2</ele>
        <time>2025-09-22T14:05:31Z</time>
      </trkpt>
      <trkpt lat="48.64584" lon="-3.94678">
        <ele>22.8</ele>
        <time>2025-09-22T14:05:34Z</time>
      </trkpt>
      <trkpt lat="48.64578" lon="-3.94686">
        <ele>22.6</ele>
        <time>2025-09-22T14:05:35Z</time>
      </trkpt>
      <trkpt lat="48.64567" lon="-3.94698">
        <ele>22.4</ele>
        <time>2025-09-22T14:05:37Z</time>
      </trkpt>
      <trkpt lat="48.64554" lon="-3.94707">
        <ele>22.4</ele>
        <time>2025-09-22T14:05:40Z</time>
      </trkpt>
      <trkpt lat="48.6455" lon="-3.94712">
        <ele>22.4</ele>
        <time>2025-09-22T14:05:44Z</time>
      </trkpt>
      <trkpt lat="48.64547" lon="-3.94728">
        <ele>22.2</ele>
        <time>2025-09-22T14:05:49Z</time>
      </trkpt>
      <trkpt lat="48.6455" lon="-3.94745">
        <ele>21.6</ele>
        <time>2025-09-22T14:05:52Z</time>
      </trkpt>
      <trkpt lat="48.6455" lon="-3.9475">
        <ele>21.4</ele>
        <time>2025-09-22T14:05:53Z</time>
      </trkpt>
      <trkpt lat="48.64548" lon="-3.94754">
        <ele>21.2</ele>
        <time>2025-09-22T14:05:54Z</time>
      </trkpt>
      <trkpt lat="48.64544" lon="-3.94755">
        <ele>20.8</ele>
        <time>2025-09-22T14:05:56Z</time>
      </trkpt>
      <trkpt lat="48.64532" lon="-3.94749">
        <ele>21.6</ele>
        <time>2025-09-22T14:06:02Z</time>
      </trkpt>
      <trkpt lat="48.64524" lon="-3.94754">
        <ele>21.6</ele>
        <time>2025-09-22T14:06:05Z</time>
      </trkpt>
      <trkpt lat="48.64521" lon="-3.94757">
        <ele>21.8</ele>
        <time>2025-09-22T14:06:06Z</time>
      </trkpt>
      <trkpt lat="48.64517" lon="-3.94767">
        <ele>21.8</ele>
        <time>2025-09-22T14:06:08Z</time>
      </trkpt>
      <trkpt lat="48.64515" lon="-3.94779">
        <ele>21.8</ele>
        <time>2025-09-22T14:06:10Z</time>
      </trkpt>
      <trkpt lat="48.64515" lon="-3.94798">
        <ele>21.2</ele>
        <time>2025-09-22T14:06:13Z</time>
      </trkpt>
      <trkpt lat="48.64513" lon="-3.94812">
        <ele>20.8</ele>
        <time>2025-09-22T14:06:15Z</time>
      </trkpt>
      <trkpt lat="48.6451" lon="-3.94824">
        <ele>20.6</ele>
        <time>2025-09-22T14:06:17Z</time>
      </trkpt>
      <trkpt lat="48.64505" lon="-3.9484">
        <ele>20.8</ele>
        <time>2025-09-22T14:06:20Z</time>
      </trkpt>
      <trkpt lat="48.64503" lon="-3.94859">
        <ele>20.8</ele>
        <time>2025-09-22T14:06:23Z</time>
      </trkpt>
      <trkpt lat="48.64502" lon="-3.94873">
        <ele>20.8</ele>
        <time>2025-09-22T14:06:25Z</time>
      </trkpt>
      <trkpt lat="48.645" lon="-3.94886">
        <ele>20.6</ele>
        <time>2025-09-22T14:06:27Z</time>
      </trkpt>
      <trkpt lat="48.645" lon="-3.94893">
        <ele>20.4</ele>
        <time>2025-09-22T14:06:28Z</time>
      </trkpt>
      <trkpt lat="48.64497" lon="-3.94941">
        <ele>20.6</ele>
        <time>2025-09-22T14:06:35Z</time>
      </trkpt>
      <trkpt lat="48.64496" lon="-3.94955">
        <ele>20.2</ele>
        <time>2025-09-22T14:06:37Z</time>
      </trkpt>
      <trkpt lat="48.64495" lon="-3.94981">
        <ele>19.6</ele>
        <time>2025-09-22T14:06:42Z</time>
      </trkpt>
      <trkpt lat="48.64493" lon="-3.95015">
        <ele>20.2</ele>
        <time>2025-09-22T14:06:49Z</time>
      </trkpt>
      <trkpt lat="48.64492" lon="-3.9504">
        <ele>19.8</ele>
        <time>2025-09-22T14:06:54Z</time>
      </trkpt>
      <trkpt lat="48.6449" lon="-3.95065">
        <ele>19.8</ele>
        <time>2025-09-22T14:06:59Z</time>
      </trkpt>
      <trkpt lat="48.64487" lon="-3.95117">
        <ele>20.6</ele>
        <time>2025-09-22T14:07:10Z</time>
      </trkpt>
      <trkpt lat="48.64484" lon="-3.95152">
        <ele>20.4</ele>
        <time>2025-09-22T14:07:17Z</time>
      </trkpt>
      <trkpt lat="48.64483" lon="-3.95183">
        <ele>20.6</ele>
        <time>2025-09-22T14:07:23Z</time>
      </trkpt>
      <trkpt lat="48.6448" lon="-3.95232">
        <ele>20.2</ele>
        <time>2025-09-22T14:07:32Z</time>
      </trkpt>
      <trkpt lat="48.64476" lon="-3.95292">
        <ele>21</ele>
        <time>2025-09-22T14:07:43Z</time>
      </trkpt>
      <trkpt lat="48.64475" lon="-3.95328">
        <ele>20</ele>
        <time>2025-09-22T14:07:50Z</time>
      </trkpt>
      <trkpt lat="48.64477" lon="-3.95345">
        <ele>19.8</ele>
        <time>2025-09-22T14:07:55Z</time>
      </trkpt>
      <trkpt lat="48.64481" lon="-3.95352">
        <ele>19.4</ele>
        <time>2025-09-22T14:07:57Z</time>
      </trkpt>
      <trkpt lat="48.64482" lon="-3.95357">
        <ele>19.2</ele>
        <time>2025-09-22T14:07:58Z</time>
      </trkpt>
      <trkpt lat="48.64484" lon="-3.95362">
        <ele>19</ele>
        <time>2025-09-22T14:07:59Z</time>
      </trkpt>
      <trkpt lat="48.64485" lon="-3.95366">
        <ele>18.8</ele>
        <time>2025-09-22T14:08:00Z</time>
      </trkpt>
      <trkpt lat="48.64486" lon="-3.95369">
        <ele>18.6</ele>
        <time>2025-09-22T14:08:01Z</time>
      </trkpt>
      <trkpt lat="48.64487" lon="-3.95373">
        <ele>18.2</ele>
        <time>2025-09-22T14:08:03Z</time>
      </trkpt>
      <trkpt lat="48.64492" lon="-3.95382">
        <ele>17.6</ele>
        <time>2025-09-22T14:08:06Z</time>
      </trkpt>
      <trkpt lat="48.64494" lon="-3.95386">
        <ele>17.2</ele>
        <time>2025-09-22T14:08:07Z</time>
      </trkpt>
      <trkpt lat="48.64497" lon="-3.9539">
        <ele>17</ele>
        <time>2025-09-22T14:08:08Z</time>
      </trkpt>
      <trkpt lat="48.64503" lon="-3.954">
        <ele>16.2</ele>
        <time>2025-09-22T14:08:10Z</time>
      </trkpt>
      <trkpt lat="48.64506" lon="-3.95405">
        <ele>15.8</ele>
        <time>2025-09-22T14:08:11Z</time>
      </trkpt>
      <trkpt lat="48.64516" lon="-3.95424">
        <ele>15</ele>
        <time>2025-09-22T14:08:14Z</time>
      </trkpt>
      <trkpt lat="48.64529" lon="-3.95441">
        <ele>14</ele>
        <time>2025-09-22T14:08:17Z</time>
      </trkpt>
      <trkpt lat="48.64533" lon="-3.95446">
        <ele>13.8</ele>
        <time>2025-09-22T14:08:18Z</time>
      </trkpt>
      <trkpt lat="48.64554" lon="-3.95479">
        <ele>12.6</ele>
        <time>2025-09-22T14:08:23Z</time>
      </trkpt>
      <trkpt lat="48.6458" lon="-3.95521">
        <ele>11.6</ele>
        <time>2025-09-22T14:08:29Z</time>
      </trkpt>
      <trkpt lat="48.64583" lon="-3.95527">
        <ele>11.4</ele>
        <time>2025-09-22T14:08:30Z</time>
      </trkpt>
      <trkpt lat="48.64602" lon="-3.95558">
        <ele>10.4</ele>
        <time>2025-09-22T14:08:35Z</time>
      </trkpt>
      <trkpt lat="48.64607" lon="-3.95563">
        <ele>10.2</ele>
        <time>2025-09-22T14:08:36Z</time>
      </trkpt>
      <trkpt lat="48.64634" lon="-3.95601">
        <ele>10.6</ele>
        <time>2025-09-22T14:08:42Z</time>
      </trkpt>
      <trkpt lat="48.64651" lon="-3.9562">
        <ele>10.6</ele>
        <time>2025-09-22T14:08:46Z</time>
      </trkpt>
      <trkpt lat="48.64658" lon="-3.95626">
        <ele>10.8</ele>
        <time>2025-09-22T14:08:48Z</time>
      </trkpt>
      <trkpt lat="48.64679" lon="-3.95634">
        <ele>11</ele>
        <time>2025-09-22T14:08:54Z</time>
      </trkpt>
      <trkpt lat="48.64698" lon="-3.95636">
        <ele>11.2</ele>
        <time>2025-09-22T14:09:00Z</time>
      </trkpt>
      <trkpt lat="48.64703" lon="-3.95636">
        <ele>11.2</ele>
        <time>2025-09-22T14:09:01Z</time>
      </trkpt>
      <trkpt lat="48.64725" lon="-3.9564">
        <ele>11.2</ele>
        <time>2025-09-22T14:09:07Z</time>
      </trkpt>
      <trkpt lat="48.64747" lon="-3.95653">
        <ele>11.2</ele>
        <time>2025-09-22T14:09:14Z</time>
      </trkpt>
      <trkpt lat="48.64765" lon="-3.95675">
        <ele>10.8</ele>
        <time>2025-09-22T14:09:21Z</time>
      </trkpt>
      <trkpt lat="48.64776" lon="-3.957">
        <ele>10.8</ele>
        <time>2025-09-22T14:09:27Z</time>
      </trkpt>
      <trkpt lat="48.64787" lon="-3.95736">
        <ele>11.4</ele>
        <time>2025-09-22T14:09:35Z</time>
      </trkpt>
      <trkpt lat="48.6479" lon="-3.9575">
        <ele>12.2</ele>
        <time>2025-09-22T14:09:38Z</time>
      </trkpt>
      <trkpt lat="48.64791" lon="-3.95763">
        <ele>13.2</ele>
        <time>2025-09-22T14:09:41Z</time>
      </trkpt>
      <trkpt lat="48.64792" lon="-3.95766">
        <ele>13.4</ele>
        <time>2025-09-22T14:09:42Z</time>
      </trkpt>
      <trkpt lat="48.64797" lon="-3.95776">
        <ele>13.8</ele>
        <time>2025-09-22T14:09:46Z</time>
      </trkpt>
      <trkpt lat="48.64809" lon="-3.95785">
        <ele>14</ele>
        <time>2025-09-22T14:09:51Z</time>
      </trkpt>
      <trkpt lat="48.64813" lon="-3.95787">
        <ele>14</ele>
        <time>2025-09-22T14:09:53Z</time>
      </trkpt>
      <trkpt lat="48.64819" lon="-3.95786">
        <ele>14</ele>
        <time>2025-09-22T14:09:56Z</time>
      </trkpt>
      <trkpt lat="48.6482" lon="-3.95784">
        <ele>13.8</ele>
        <time>2025-09-22T14:09:57Z</time>
      </trkpt>
      <trkpt lat="48.64823" lon="-3.95775">
        <ele>12.4</ele>
        <time>2025-09-22T14:10:01Z</time>
      </trkpt>
      <trkpt lat="48.64823" lon="-3.95772">
        <ele>11.6</ele>
        <time>2025-09-22T14:10:03Z</time>
      </trkpt>
      <trkpt lat="48.64824" lon="-3.9577">
        <ele>11</ele>
        <time>2025-09-22T14:10:04Z</time>
      </trkpt>
      <trkpt lat="48.64827" lon="-3.95758">
        <ele>9.8</ele>
        <time>2025-09-22T14:10:08Z</time>
      </trkpt>
      <trkpt lat="48.64829" lon="-3.9575">
        <ele>9</ele>
        <time>2025-09-22T14:10:10Z</time>
      </trkpt>
      <trkpt lat="48.64831" lon="-3.95746">
        <ele>8.6</ele>
        <time>2025-09-22T14:10:11Z</time>
      </trkpt>
      <trkpt lat="48.64837" lon="-3.95732">
        <ele>7.6</ele>
        <time>2025-09-22T14:10:14Z</time>
      </trkpt>
      <trkpt lat="48.64839" lon="-3.95727">
        <ele>7.2</ele>
        <time>2025-09-22T14:10:15Z</time>
      </trkpt>
      <trkpt lat="48.64844" lon="-3.95714">
        <ele>6.6</ele>
        <time>2025-09-22T14:10:18Z</time>
      </trkpt>
      <trkpt lat="48.64848" lon="-3.95705">
        <ele>6.4</ele>
        <time>2025-09-22T14:10:21Z</time>
      </trkpt>
      <trkpt lat="48.64853" lon="-3.95696">
        <ele>6.4</ele>
        <time>2025-09-22T14:10:25Z</time>
      </trkpt>
      <trkpt lat="48.64855" lon="-3.95694">
        <ele>6.6</ele>
        <time>2025-09-22T14:10:26Z</time>
      </trkpt>
      <trkpt lat="48.6486" lon="-3.95679">
        <ele>7.4</ele>
        <time>2025-09-22T14:10:31Z</time>
      </trkpt>
      <trkpt lat="48.64862" lon="-3.95673">
        <ele>7.6</ele>
        <time>2025-09-22T14:10:33Z</time>
      </trkpt>
      <trkpt lat="48.64866" lon="-3.9566">
        <ele>7.8</ele>
        <time>2025-09-22T14:10:37Z</time>
      </trkpt>
      <trkpt lat="48.64873" lon="-3.95638">
        <ele>8</ele>
        <time>2025-09-22T14:10:44Z</time>
      </trkpt>
      <trkpt lat="48.64881" lon="-3.95624">
        <ele>8.4</ele>
        <time>2025-09-22T14:10:50Z</time>
      </trkpt>
      <trkpt lat="48.64884" lon="-3.95624">
        <ele>8.8</ele>
        <time>2025-09-22T14:10:52Z</time>
      </trkpt>
      <trkpt lat="48.6489" lon="-3.95627">
        <ele>9.2</ele>
        <time>2025-09-22T14:10:55Z</time>
      </trkpt>
      <trkpt lat="48.64892" lon="-3.95628">
        <ele>9.2</ele>
        <time>2025-09-22T14:10:56Z</time>
      </trkpt>
      <trkpt lat="48.64908" lon="-3.95637">
        <ele>9.8</ele>
        <time>2025-09-22T14:11:04Z</time>
      </trkpt>
      <trkpt lat="48.64909" lon="-3.95638">
        <ele>9.8</ele>
        <time>2025-09-22T14:11:05Z</time>
      </trkpt>
      <trkpt lat="48.64918" lon="-3.95645">
        <ele>10.2</ele>
        <time>2025-09-22T14:11:10Z</time>
      </trkpt>
      <trkpt lat="48.64923" lon="-3.95664">
        <ele>10.6</ele>
        <time>2025-09-22T14:11:17Z</time>
      </trkpt>
      <trkpt lat="48.64925" lon="-3.95667">
        <ele>11.2</ele>
        <time>2025-09-22T14:11:19Z</time>
      </trkpt>
      <trkpt lat="48.64928" lon="-3.95675">
        <ele>11.4</ele>
        <time>2025-09-22T14:11:23Z</time>
      </trkpt>
      <trkpt lat="48.64935" lon="-3.9569">
        <ele>11.8</ele>
        <time>2025-09-22T14:11:31Z</time>
      </trkpt>
      <trkpt lat="48.64938" lon="-3.95699">
        <ele>12.2</ele>
        <time>2025-09-22T14:11:36Z</time>
      </trkpt>
      <trkpt lat="48.64942" lon="-3.95706">
        <ele>12.2</ele>
        <time>2025-09-22T14:11:40Z</time>
      </trkpt>
      <trkpt lat="48.64948" lon="-3.95722">
        <ele>12.4</ele>
        <time>2025-09-22T14:11:48Z</time>
      </trkpt>
      <trkpt lat="48.64951" lon="-3.95735">
        <ele>13</ele>
        <time>2025-09-22T14:11:55Z</time>
      </trkpt>
      <trkpt lat="48.64952" lon="-3.95738">
        <ele>13.2</ele>
        <time>2025-09-22T14:11:56Z</time>
      </trkpt>
      <trkpt lat="48.64959" lon="-3.9575">
        <ele>14</ele>
        <time>2025-09-22T14:12:02Z</time>
      </trkpt>
      <trkpt lat="48.64961" lon="-3.95752">
        <ele>14.4</ele>
        <time>2025-09-22T14:12:04Z</time>
      </trkpt>
      <trkpt lat="48.64968" lon="-3.95758">
        <ele>14.6</ele>
        <time>2025-09-22T14:12:08Z</time>
      </trkpt>
      <trkpt lat="48.64973" lon="-3.95762">
        <ele>14.6</ele>
        <time>2025-09-22T14:12:11Z</time>
      </trkpt>
      <trkpt lat="48.64985" lon="-3.95773">
        <ele>15</ele>
        <time>2025-09-22T14:12:19Z</time>
      </trkpt>
      <trkpt lat="48.64994" lon="-3.9578">
        <ele>15.4</ele>
        <time>2025-09-22T14:12:25Z</time>
      </trkpt>
      <trkpt lat="48.64996" lon="-3.95781">
        <ele>15.2</ele>
        <time>2025-09-22T14:12:26Z</time>
      </trkpt>
      <trkpt lat="48.65008" lon="-3.95784">
        <ele>15.2</ele>
        <time>2025-09-22T14:12:31Z</time>
      </trkpt>
      <trkpt lat="48.6502" lon="-3.95785">
        <ele>15.8</ele>
        <time>2025-09-22T14:12:36Z</time>
      </trkpt>
      <trkpt lat="48.65028" lon="-3.95786">
        <ele>15.6</ele>
        <time>2025-09-22T14:12:39Z</time>
      </trkpt>
      <trkpt lat="48.65044" lon="-3.95783">
        <ele>15</ele>
        <time>2025-09-22T14:12:46Z</time>
      </trkpt>
      <trkpt lat="48.65053" lon="-3.95776">
        <ele>14.2</ele>
        <time>2025-09-22T14:12:49Z</time>
      </trkpt>
      <trkpt lat="48.65057" lon="-3.95776">
        <ele>13.8</ele>
        <time>2025-09-22T14:12:51Z</time>
      </trkpt>
      <trkpt lat="48.65071" lon="-3.9578">
        <ele>14.4</ele>
        <time>2025-09-22T14:12:58Z</time>
      </trkpt>
      <trkpt lat="48.65083" lon="-3.95784">
        <ele>14.4</ele>
        <time>2025-09-22T14:13:04Z</time>
      </trkpt>
      <trkpt lat="48.65089" lon="-3.95788">
        <ele>14.2</ele>
        <time>2025-09-22T14:13:08Z</time>
      </trkpt>
      <trkpt lat="48.65091" lon="-3.9579">
        <ele>14</ele>
        <time>2025-09-22T14:13:11Z</time>
      </trkpt>
      <trkpt lat="48.65091" lon="-3.9579">
        <ele>14</ele>
        <time>2025-09-22T14:13:12Z</time>
      </trkpt>
      <trkpt lat="48.65092" lon="-3.95786">
        <ele>14</ele>
        <time>2025-09-22T14:14:26Z</time>
      </trkpt>
      <trkpt lat="48.65091" lon="-3.95783">
        <ele>14.2</ele>
        <time>2025-09-22T14:14:27Z</time>
      </trkpt>
      <trkpt lat="48.65091" lon="-3.95778">
        <ele>14</ele>
        <time>2025-09-22T14:14:28Z</time>
      </trkpt>
      <trkpt lat="48.65091" lon="-3.95768">
        <ele>13</ele>
        <time>2025-09-22T14:14:31Z</time>
      </trkpt>
      <trkpt lat="48.65094" lon="-3.9576">
        <ele>13</ele>
        <time>2025-09-22T14:14:34Z</time>
      </trkpt>
      <trkpt lat="48.65105" lon="-3.95757">
        <ele>13.4</ele>
        <time>2025-09-22T14:14:40Z</time>
      </trkpt>
      <trkpt lat="48.65113" lon="-3.95758">
        <ele>14.2</ele>
        <time>2025-09-22T14:14:44Z</time>
      </trkpt>
      <trkpt lat="48.65118" lon="-3.95759">
        <ele>14.6</ele>
        <time>2025-09-22T14:14:47Z</time>
      </trkpt>
      <trkpt lat="48.6513" lon="-3.95759">
        <ele>15</ele>
        <time>2025-09-22T14:14:53Z</time>
      </trkpt>
      <trkpt lat="48.65134" lon="-3.95759">
        <ele>15.2</ele>
        <time>2025-09-22T14:14:55Z</time>
      </trkpt>
      <trkpt lat="48.65147" lon="-3.95758">
        <ele>15.8</ele>
        <time>2025-09-22T14:15:02Z</time>
      </trkpt>
      <trkpt lat="48.6515" lon="-3.95764">
        <ele>16.4</ele>
        <time>2025-09-22T14:15:05Z</time>
      </trkpt>
      <trkpt lat="48.65151" lon="-3.95769">
        <ele>16.6</ele>
        <time>2025-09-22T14:15:07Z</time>
      </trkpt>
      <trkpt lat="48.65153" lon="-3.95783">
        <ele>17.4</ele>
        <time>2025-09-22T14:15:12Z</time>
      </trkpt>
      <trkpt lat="48.65154" lon="-3.95788">
        <ele>17.6</ele>
        <time>2025-09-22T14:15:14Z</time>
      </trkpt>
      <trkpt lat="48.65157" lon="-3.95802">
        <ele>18.4</ele>
        <time>2025-09-22T14:15:19Z</time>
      </trkpt>
      <trkpt lat="48.65159" lon="-3.95816">
        <ele>19</ele>
        <time>2025-09-22T14:15:24Z</time>
      </trkpt>
      <trkpt lat="48.6516" lon="-3.95823">
        <ele>19.6</ele>
        <time>2025-09-22T14:15:27Z</time>
      </trkpt>
      <trkpt lat="48.65163" lon="-3.95834">
        <ele>20</ele>
        <time>2025-09-22T14:15:32Z</time>
      </trkpt>
      <trkpt lat="48.65166" lon="-3.95843">
        <ele>20.6</ele>
        <time>2025-09-22T14:15:37Z</time>
      </trkpt>
      <trkpt lat="48.65167" lon="-3.95853">
        <ele>21.2</ele>
        <time>2025-09-22T14:15:42Z</time>
      </trkpt>
      <trkpt lat="48.65168" lon="-3.9586">
        <ele>21.6</ele>
        <time>2025-09-22T14:15:46Z</time>
      </trkpt>
      <trkpt lat="48.65169" lon="-3.95866">
        <ele>21.8</ele>
        <time>2025-09-22T14:15:49Z</time>
      </trkpt>
      <trkpt lat="48.65171" lon="-3.95868">
        <ele>22.2</ele>
        <time>2025-09-22T14:15:51Z</time>
      </trkpt>
      <trkpt lat="48.65172" lon="-3.95868">
        <ele>22.2</ele>
        <time>2025-09-22T14:15:52Z</time>
      </trkpt>
      <trkpt lat="48.65174" lon="-3.95868">
        <ele>22.4</ele>
        <time>2025-09-22T14:15:54Z</time>
      </trkpt>
      <trkpt lat="48.65175" lon="-3.95867">
        <ele>22.4</ele>
        <time>2025-09-22T14:15:55Z</time>
      </trkpt>
      <trkpt lat="48.65179" lon="-3.95864">
        <ele>22.6</ele>
        <time>2025-09-22T14:15:58Z</time>
      </trkpt>
      <trkpt lat="48.65181" lon="-3.95863">
        <ele>22.6</ele>
        <time>2025-09-22T14:15:59Z</time>
      </trkpt>
      <trkpt lat="48.6519" lon="-3.95857">
        <ele>22.6</ele>
        <time>2025-09-22T14:16:05Z</time>
      </trkpt>
      <trkpt lat="48.65194" lon="-3.95854">
        <ele>22.8</ele>
        <time>2025-09-22T14:16:08Z</time>
      </trkpt>
      <trkpt lat="48.65203" lon="-3.95847">
        <ele>23</ele>
        <time>2025-09-22T14:16:15Z</time>
      </trkpt>
      <trkpt lat="48.65215" lon="-3.9584">
        <ele>23.4</ele>
        <time>2025-09-22T14:16:23Z</time>
      </trkpt>
      <trkpt lat="48.65221" lon="-3.95834">
        <ele>23.6</ele>
        <time>2025-09-22T14:16:27Z</time>
      </trkpt>
      <trkpt lat="48.65224" lon="-3.95831">
        <ele>23.8</ele>
        <time>2025-09-22T14:16:29Z</time>
      </trkpt>
      <trkpt lat="48.65233" lon="-3.95825">
        <ele>24</ele>
        <time>2025-09-22T14:16:35Z</time>
      </trkpt>
      <trkpt lat="48.65234" lon="-3.95824">
        <ele>24</ele>
        <time>2025-09-22T14:16:36Z</time>
      </trkpt>
      <trkpt lat="48.65249" lon="-3.95813">
        <ele>24</ele>
        <time>2025-09-22T14:16:45Z</time>
      </trkpt>
      <trkpt lat="48.65259" lon="-3.95806">
        <ele>24.2</ele>
        <time>2025-09-22T14:16:51Z</time>
      </trkpt>
      <trkpt lat="48.6526" lon="-3.95805">
        <ele>24.2</ele>
        <time>2025-09-22T14:16:52Z</time>
      </trkpt>
      <trkpt lat="48.65264" lon="-3.95803">
        <ele>24.4</ele>
        <time>2025-09-22T14:16:54Z</time>
      </trkpt>
      <trkpt lat="48.65269" lon="-3.95798">
        <ele>24.4</ele>
        <time>2025-09-22T14:16:57Z</time>
      </trkpt>
      <trkpt lat="48.65274" lon="-3.95794">
        <ele>24.6</ele>
        <time>2025-09-22T14:17:00Z</time>
      </trkpt>
      <trkpt lat="48.65276" lon="-3.95793">
        <ele>24.6</ele>
        <time>2025-09-22T14:17:01Z</time>
      </trkpt>
      <trkpt lat="48.65291" lon="-3.95782">
        <ele>25.2</ele>
        <time>2025-09-22T14:17:09Z</time>
      </trkpt>
      <trkpt lat="48.65304" lon="-3.95772">
        <ele>25.6</ele>
        <time>2025-09-22T14:17:16Z</time>
      </trkpt>
      <trkpt lat="48.65307" lon="-3.9577">
        <ele>25.8</ele>
        <time>2025-09-22T14:17:18Z</time>
      </trkpt>
      <trkpt lat="48.65319" lon="-3.95761">
        <ele>26.4</ele>
        <time>2025-09-22T14:17:25Z</time>
      </trkpt>
      <trkpt lat="48.65332" lon="-3.95751">
        <ele>26.8</ele>
        <time>2025-09-22T14:17:33Z</time>
      </trkpt>
      <trkpt lat="48.65333" lon="-3.95749">
        <ele>27</ele>
        <time>2025-09-22T14:17:34Z</time>
      </trkpt>
      <trkpt lat="48.65344" lon="-3.95742">
        <ele>27.2</ele>
        <time>2025-09-22T14:17:40Z</time>
      </trkpt>
      <trkpt lat="48.65357" lon="-3.95731">
        <ele>28</ele>
        <time>2025-09-22T14:17:47Z</time>
      </trkpt>
      <trkpt lat="48.65359" lon="-3.9573">
        <ele>28</ele>
        <time>2025-09-22T14:17:48Z</time>
      </trkpt>
      <trkpt lat="48.65361" lon="-3.95729">
        <ele>28.2</ele>
        <time>2025-09-22T14:17:49Z</time>
      </trkpt>
      <trkpt lat="48.65372" lon="-3.9572">
        <ele>28.8</ele>
        <time>2025-09-22T14:17:56Z</time>
      </trkpt>
      <trkpt lat="48.65381" lon="-3.95715">
        <ele>29.4</ele>
        <time>2025-09-22T14:18:01Z</time>
      </trkpt>
      <trkpt lat="48.65383" lon="-3.95712">
        <ele>29.6</ele>
        <time>2025-09-22T14:18:03Z</time>
      </trkpt>
      <trkpt lat="48.65398" lon="-3.957">
        <ele>30</ele>
        <time>2025-09-22T14:18:12Z</time>
      </trkpt>
      <trkpt lat="48.65402" lon="-3.95697">
        <ele>29.6</ele>
        <time>2025-09-22T14:18:14Z</time>
      </trkpt>
      <trkpt lat="48.65418" lon="-3.95685">
        <ele>29.2</ele>
        <time>2025-09-22T14:18:20Z</time>
      </trkpt>
      <trkpt lat="48.65435" lon="-3.95672">
        <ele>28.2</ele>
        <time>2025-09-22T14:18:25Z</time>
      </trkpt>
      <trkpt lat="48.65443" lon="-3.95667">
        <ele>27.4</ele>
        <time>2025-09-22T14:18:27Z</time>
      </trkpt>
      <trkpt lat="48.65452" lon="-3.9566">
        <ele>26.8</ele>
        <time>2025-09-22T14:18:29Z</time>
      </trkpt>
      <trkpt lat="48.65472" lon="-3.95646">
        <ele>25.4</ele>
        <time>2025-09-22T14:18:33Z</time>
      </trkpt>
      <trkpt lat="48.65477" lon="-3.95643">
        <ele>25</ele>
        <time>2025-09-22T14:18:34Z</time>
      </trkpt>
      <trkpt lat="48.65489" lon="-3.95635">
        <ele>24.4</ele>
        <time>2025-09-22T14:18:36Z</time>
      </trkpt>
      <trkpt lat="48.65513" lon="-3.95617">
        <ele>23.2</ele>
        <time>2025-09-22T14:18:40Z</time>
      </trkpt>
      <trkpt lat="48.65519" lon="-3.95614">
        <ele>23</ele>
        <time>2025-09-22T14:18:41Z</time>
      </trkpt>
      <trkpt lat="48.6553" lon="-3.95608">
        <ele>22.2</ele>
        <time>2025-09-22T14:18:43Z</time>
      </trkpt>
      <trkpt lat="48.65541" lon="-3.95604">
        <ele>22</ele>
        <time>2025-09-22T14:18:45Z</time>
      </trkpt>
      <trkpt lat="48.65545" lon="-3.95602">
        <ele>22</ele>
        <time>2025-09-22T14:18:46Z</time>
      </trkpt>
      <trkpt lat="48.65564" lon="-3.956">
        <ele>22.6</ele>
        <time>2025-09-22T14:18:51Z</time>
      </trkpt>
      <trkpt lat="48.65584" lon="-3.95598">
        <ele>22.6</ele>
        <time>2025-09-22T14:18:59Z</time>
      </trkpt>
      <trkpt lat="48.65599" lon="-3.95596">
        <ele>22.8</ele>
        <time>2025-09-22T14:19:05Z</time>
      </trkpt>
      <trkpt lat="48.65607" lon="-3.95595">
        <ele>23.2</ele>
        <time>2025-09-22T14:19:08Z</time>
      </trkpt>
      <trkpt lat="48.65625" lon="-3.95592">
        <ele>22.8</ele>
        <time>2025-09-22T14:19:14Z</time>
      </trkpt>
      <trkpt lat="48.65647" lon="-3.95581">
        <ele>22.8</ele>
        <time>2025-09-22T14:19:22Z</time>
      </trkpt>
      <trkpt lat="48.65661" lon="-3.95574">
        <ele>22.4</ele>
        <time>2025-09-22T14:19:27Z</time>
      </trkpt>
      <trkpt lat="48.65672" lon="-3.95567">
        <ele>22.4</ele>
        <time>2025-09-22T14:19:31Z</time>
      </trkpt>
      <trkpt lat="48.65694" lon="-3.95556">
        <ele>22.8</ele>
        <time>2025-09-22T14:19:39Z</time>
      </trkpt>
      <trkpt lat="48.65698" lon="-3.95553">
        <ele>22.8</ele>
        <time>2025-09-22T14:19:41Z</time>
      </trkpt>
      <trkpt lat="48.65721" lon="-3.95541">
        <ele>22.6</ele>
        <time>2025-09-22T14:19:50Z</time>
      </trkpt>
      <trkpt lat="48.65735" lon="-3.95533">
        <ele>23.4</ele>
        <time>2025-09-22T14:19:56Z</time>
      </trkpt>
      <trkpt lat="48.65756" lon="-3.95521">
        <ele>23.8</ele>
        <time>2025-09-22T14:20:05Z</time>
      </trkpt>
      <trkpt lat="48.65769" lon="-3.95512">
        <ele>24.4</ele>
        <time>2025-09-22T14:20:11Z</time>
      </trkpt>
      <trkpt lat="48.65772" lon="-3.95508">
        <ele>24.6</ele>
        <time>2025-09-22T14:20:13Z</time>
      </trkpt>
      <trkpt lat="48.65789" lon="-3.9549">
        <ele>24.4</ele>
        <time>2025-09-22T14:20:21Z</time>
      </trkpt>
      <trkpt lat="48.65804" lon="-3.9547">
        <ele>23.2</ele>
        <time>2025-09-22T14:20:27Z</time>
      </trkpt>
      <trkpt lat="48.65809" lon="-3.95462">
        <ele>22.8</ele>
        <time>2025-09-22T14:20:29Z</time>
      </trkpt>
      <trkpt lat="48.65829" lon="-3.95441">
        <ele>22.6</ele>
        <time>2025-09-22T14:20:35Z</time>
      </trkpt>
      <trkpt lat="48.65841" lon="-3.95432">
        <ele>22.4</ele>
        <time>2025-09-22T14:20:38Z</time>
      </trkpt>
      <trkpt lat="48.65853" lon="-3.95428">
        <ele>22.2</ele>
        <time>2025-09-22T14:20:41Z</time>
      </trkpt>
      <trkpt lat="48.65857" lon="-3.95428">
        <ele>22</ele>
        <time>2025-09-22T14:20:42Z</time>
      </trkpt>
      <trkpt lat="48.65876" lon="-3.95426">
        <ele>21.4</ele>
        <time>2025-09-22T14:20:48Z</time>
      </trkpt>
      <trkpt lat="48.65887" lon="-3.95425">
        <ele>21.2</ele>
        <time>2025-09-22T14:20:52Z</time>
      </trkpt>
      <trkpt lat="48.65899" lon="-3.95425">
        <ele>21.4</ele>
        <time>2025-09-22T14:20:57Z</time>
      </trkpt>
      <trkpt lat="48.65913" lon="-3.95424">
        <ele>22.2</ele>
        <time>2025-09-22T14:21:03Z</time>
      </trkpt>
      <trkpt lat="48.65923" lon="-3.95425">
        <ele>22.4</ele>
        <time>2025-09-22T14:21:07Z</time>
      </trkpt>
      <trkpt lat="48.65943" lon="-3.95432">
        <ele>23</ele>
        <time>2025-09-22T14:21:15Z</time>
      </trkpt>
      <trkpt lat="48.65947" lon="-3.95435">
        <ele>23.2</ele>
        <time>2025-09-22T14:21:17Z</time>
      </trkpt>
      <trkpt lat="48.65955" lon="-3.95442">
        <ele>24.4</ele>
        <time>2025-09-22T14:21:21Z</time>
      </trkpt>
      <trkpt lat="48.65959" lon="-3.95446">
        <ele>24.6</ele>
        <time>2025-09-22T14:21:23Z</time>
      </trkpt>
      <trkpt lat="48.65975" lon="-3.95461">
        <ele>24.4</ele>
        <time>2025-09-22T14:21:31Z</time>
      </trkpt>
      <trkpt lat="48.65988" lon="-3.95467">
        <ele>24</ele>
        <time>2025-09-22T14:21:38Z</time>
      </trkpt>
      <trkpt lat="48.6599" lon="-3.95467">
        <ele>24</ele>
        <time>2025-09-22T14:21:41Z</time>
      </trkpt>
      <trkpt lat="48.6599" lon="-3.9547">
        <ele>24.4</ele>
        <time>2025-09-22T14:22:21Z</time>
      </trkpt>
      <trkpt lat="48.65991" lon="-3.95471">
        <ele>24.2</ele>
        <time>2025-09-22T14:22:22Z</time>
      </trkpt>
      <trkpt lat="48.65995" lon="-3.95473">
        <ele>23.8</ele>
        <time>2025-09-22T14:22:26Z</time>
      </trkpt>
      <trkpt lat="48.65995" lon="-3.95472">
        <ele>24</ele>
        <time>2025-09-22T14:22:27Z</time>
      </trkpt>
      <trkpt lat="48.65995" lon="-3.95473">
        <ele>24.4</ele>
        <time>2025-09-22T14:22:29Z</time>
      </trkpt>
      <trkpt lat="48.65996" lon="-3.95472">
        <ele>24.4</ele>
        <time>2025-09-22T14:22:55Z</time>
      </trkpt>
      <trkpt lat="48.65997" lon="-3.95473">
        <ele>24.4</ele>
        <time>2025-09-22T14:22:56Z</time>
      </trkpt>
      <trkpt lat="48.65998" lon="-3.95474">
        <ele>24.8</ele>
        <time>2025-09-22T14:22:57Z</time>
      </trkpt>
      <trkpt lat="48.66006" lon="-3.95478">
        <ele>25.2</ele>
        <time>2025-09-22T14:23:02Z</time>
      </trkpt>
      <trkpt lat="48.66008" lon="-3.95479">
        <ele>25.2</ele>
        <time>2025-09-22T14:23:03Z</time>
      </trkpt>
      <trkpt lat="48.66013" lon="-3.9548">
        <ele>25</ele>
        <time>2025-09-22T14:23:06Z</time>
      </trkpt>
      <trkpt lat="48.66024" lon="-3.95485">
        <ele>25.2</ele>
        <time>2025-09-22T14:23:11Z</time>
      </trkpt>
      <trkpt lat="48.66043" lon="-3.95496">
        <ele>25.6</ele>
        <time>2025-09-22T14:23:19Z</time>
      </trkpt>
      <trkpt lat="48.66046" lon="-3.95498">
        <ele>25.8</ele>
        <time>2025-09-22T14:23:20Z</time>
      </trkpt>
      <trkpt lat="48.66069" lon="-3.95513">
        <ele>25.4</ele>
        <time>2025-09-22T14:23:27Z</time>
      </trkpt>
      <trkpt lat="48.6609" lon="-3.95542">
        <ele>25.4</ele>
        <time>2025-09-22T14:23:35Z</time>
      </trkpt>
      <trkpt lat="48.66095" lon="-3.95575">
        <ele>26</ele>
        <time>2025-09-22T14:23:43Z</time>
      </trkpt>
      <trkpt lat="48.66097" lon="-3.9559">
        <ele>26.6</ele>
        <time>2025-09-22T14:23:47Z</time>
      </trkpt>
      <trkpt lat="48.66098" lon="-3.95598">
        <ele>26.6</ele>
        <time>2025-09-22T14:23:50Z</time>
      </trkpt>
      <trkpt lat="48.66101" lon="-3.95614">
        <ele>26.2</ele>
        <time>2025-09-22T14:23:56Z</time>
      </trkpt>
      <trkpt lat="48.66108" lon="-3.95635">
        <ele>27.6</ele>
        <time>2025-09-22T14:24:03Z</time>
      </trkpt>
      <trkpt lat="48.66113" lon="-3.95642">
        <ele>27.6</ele>
        <time>2025-09-22T14:24:06Z</time>
      </trkpt>
      <trkpt lat="48.66128" lon="-3.95657">
        <ele>27.6</ele>
        <time>2025-09-22T14:24:15Z</time>
      </trkpt>
      <trkpt lat="48.66136" lon="-3.95662">
        <ele>27</ele>
        <time>2025-09-22T14:24:22Z</time>
      </trkpt>
      <trkpt lat="48.66135" lon="-3.95667">
        <ele>28</ele>
        <time>2025-09-22T14:25:02Z</time>
      </trkpt>
      <trkpt lat="48.66137" lon="-3.95667">
        <ele>27.8</ele>
        <time>2025-09-22T14:25:04Z</time>
      </trkpt>
      <trkpt lat="48.66137" lon="-3.95667">
        <ele>27.4</ele>
        <time>2025-09-22T14:25:06Z</time>
      </trkpt>
      <trkpt lat="48.66138" lon="-3.95668">
        <ele>27.6</ele>
        <time>2025-09-22T14:25:14Z</time>
      </trkpt>
      <trkpt lat="48.66141" lon="-3.9567">
        <ele>27.4</ele>
        <time>2025-09-22T14:25:16Z</time>
      </trkpt>
      <trkpt lat="48.66152" lon="-3.95679">
        <ele>27.2</ele>
        <time>2025-09-22T14:25:22Z</time>
      </trkpt>
      <trkpt lat="48.66165" lon="-3.95691">
        <ele>26.8</ele>
        <time>2025-09-22T14:25:27Z</time>
      </trkpt>
      <trkpt lat="48.66168" lon="-3.95693">
        <ele>26.6</ele>
        <time>2025-09-22T14:25:28Z</time>
      </trkpt>
      <trkpt lat="48.66171" lon="-3.95696">
        <ele>26.2</ele>
        <time>2025-09-22T14:25:29Z</time>
      </trkpt>
      <trkpt lat="48.66195" lon="-3.95716">
        <ele>26</ele>
        <time>2025-09-22T14:25:37Z</time>
      </trkpt>
      <trkpt lat="48.66201" lon="-3.95722">
        <ele>25.4</ele>
        <time>2025-09-22T14:25:39Z</time>
      </trkpt>
      <trkpt lat="48.66229" lon="-3.95743">
        <ele>26.4</ele>
        <time>2025-09-22T14:25:47Z</time>
      </trkpt>
      <trkpt lat="48.66259" lon="-3.95771">
        <ele>25.6</ele>
        <time>2025-09-22T14:25:56Z</time>
      </trkpt>
      <trkpt lat="48.66273" lon="-3.95801">
        <ele>25.2</ele>
        <time>2025-09-22T14:26:02Z</time>
      </trkpt>
      <trkpt lat="48.66279" lon="-3.95817">
        <ele>25</ele>
        <time>2025-09-22T14:26:05Z</time>
      </trkpt>
      <trkpt lat="48.66288" lon="-3.95838">
        <ele>24.6</ele>
        <time>2025-09-22T14:26:09Z</time>
      </trkpt>
      <trkpt lat="48.66297" lon="-3.95859">
        <ele>24.4</ele>
        <time>2025-09-22T14:26:13Z</time>
      </trkpt>
      <trkpt lat="48.66308" lon="-3.95878">
        <ele>24</ele>
        <time>2025-09-22T14:26:17Z</time>
      </trkpt>
      <trkpt lat="48.6631" lon="-3.95883">
        <ele>24</ele>
        <time>2025-09-22T14:26:18Z</time>
      </trkpt>
      <trkpt lat="48.66319" lon="-3.95903">
        <ele>24.2</ele>
        <time>2025-09-22T14:26:23Z</time>
      </trkpt>
      <trkpt lat="48.66325" lon="-3.9592">
        <ele>25.4</ele>
        <time>2025-09-22T14:26:28Z</time>
      </trkpt>
      <trkpt lat="48.66326" lon="-3.95923">
        <ele>25.8</ele>
        <time>2025-09-22T14:26:29Z</time>
      </trkpt>
      <trkpt lat="48.6633" lon="-3.95934">
        <ele>26.6</ele>
        <time>2025-09-22T14:26:33Z</time>
      </trkpt>
      <trkpt lat="48.66333" lon="-3.95938">
        <ele>26.8</ele>
        <time>2025-09-22T14:26:35Z</time>
      </trkpt>
      <trkpt lat="48.66337" lon="-3.95948">
        <ele>27.4</ele>
        <time>2025-09-22T14:26:40Z</time>
      </trkpt>
      <trkpt lat="48.66338" lon="-3.95952">
        <ele>27.6</ele>
        <time>2025-09-22T14:26:42Z</time>
      </trkpt>
      <trkpt lat="48.66346" lon="-3.9597">
        <ele>28.6</ele>
        <time>2025-09-22T14:26:50Z</time>
      </trkpt>
      <trkpt lat="48.66354" lon="-3.95988">
        <ele>29.8</ele>
        <time>2025-09-22T14:26:58Z</time>
      </trkpt>
      <trkpt lat="48.66356" lon="-3.95992">
        <ele>30</ele>
        <time>2025-09-22T14:27:00Z</time>
      </trkpt>
      <trkpt lat="48.66363" lon="-3.96008">
        <ele>30.8</ele>
        <time>2025-09-22T14:27:08Z</time>
      </trkpt>
      <trkpt lat="48.66364" lon="-3.9601">
        <ele>31</ele>
        <time>2025-09-22T14:27:09Z</time>
      </trkpt>
      <trkpt lat="48.66366" lon="-3.96014">
        <ele>31.2</ele>
        <time>2025-09-22T14:27:11Z</time>
      </trkpt>
      <trkpt lat="48.6637" lon="-3.96025">
        <ele>32</ele>
        <time>2025-09-22T14:27:16Z</time>
      </trkpt>
      <trkpt lat="48.66371" lon="-3.96027">
        <ele>32</ele>
        <time>2025-09-22T14:27:17Z</time>
      </trkpt>
      <trkpt lat="48.66378" lon="-3.96045">
        <ele>32.8</ele>
        <time>2025-09-22T14:27:25Z</time>
      </trkpt>
      <trkpt lat="48.6638" lon="-3.96052">
        <ele>33.2</ele>
        <time>2025-09-22T14:27:28Z</time>
      </trkpt>
      <trkpt lat="48.66382" lon="-3.96056">
        <ele>33.4</ele>
        <time>2025-09-22T14:27:30Z</time>
      </trkpt>
      <trkpt lat="48.66385" lon="-3.9606">
        <ele>33.6</ele>
        <time>2025-09-22T14:27:33Z</time>
      </trkpt>
      <trkpt lat="48.66387" lon="-3.96066">
        <ele>34</ele>
        <time>2025-09-22T14:27:36Z</time>
      </trkpt>
      <trkpt lat="48.66388" lon="-3.96068">
        <ele>34.2</ele>
        <time>2025-09-22T14:27:37Z</time>
      </trkpt>
      <trkpt lat="48.66391" lon="-3.9608">
        <ele>34.4</ele>
        <time>2025-09-22T14:27:42Z</time>
      </trkpt>
      <trkpt lat="48.66396" lon="-3.961">
        <ele>34.6</ele>
        <time>2025-09-22T14:27:49Z</time>
      </trkpt>
      <trkpt lat="48.66402" lon="-3.96118">
        <ele>34.4</ele>
        <time>2025-09-22T14:27:56Z</time>
      </trkpt>
      <trkpt lat="48.66411" lon="-3.96142">
        <ele>34.6</ele>
        <time>2025-09-22T14:28:04Z</time>
      </trkpt>
      <trkpt lat="48.66424" lon="-3.96164">
        <ele>34.6</ele>
        <time>2025-09-22T14:28:12Z</time>
      </trkpt>
      <trkpt lat="48.66437" lon="-3.96181">
        <ele>34.2</ele>
        <time>2025-09-22T14:28:18Z</time>
      </trkpt>
      <trkpt lat="48.66447" lon="-3.96194">
        <ele>34</ele>
        <time>2025-09-22T14:28:22Z</time>
      </trkpt>
      <trkpt lat="48.66462" lon="-3.96212">
        <ele>33.8</ele>
        <time>2025-09-22T14:28:28Z</time>
      </trkpt>
      <trkpt lat="48.66465" lon="-3.96216">
        <ele>33.8</ele>
        <time>2025-09-22T14:28:29Z</time>
      </trkpt>
      <trkpt lat="48.66467" lon="-3.96219">
        <ele>33.8</ele>
        <time>2025-09-22T14:28:30Z</time>
      </trkpt>
      <trkpt lat="48.6647" lon="-3.96222">
        <ele>33.8</ele>
        <time>2025-09-22T14:28:31Z</time>
      </trkpt>
      <trkpt lat="48.66472" lon="-3.96225">
        <ele>33.8</ele>
        <time>2025-09-22T14:28:32Z</time>
      </trkpt>
      <trkpt lat="48.66477" lon="-3.96232">
        <ele>33.6</ele>
        <time>2025-09-22T14:28:34Z</time>
      </trkpt>
      <trkpt lat="48.66483" lon="-3.96238">
        <ele>33.6</ele>
        <time>2025-09-22T14:28:36Z</time>
      </trkpt>
      <trkpt lat="48.66494" lon="-3.96249">
        <ele>33.6</ele>
        <time>2025-09-22T14:28:40Z</time>
      </trkpt>
      <trkpt lat="48.66516" lon="-3.96256">
        <ele>33.8</ele>
        <time>2025-09-22T14:28:47Z</time>
      </trkpt>
      <trkpt lat="48.66545" lon="-3.96269">
        <ele>33.6</ele>
        <time>2025-09-22T14:28:56Z</time>
      </trkpt>
      <trkpt lat="48.66553" lon="-3.96276">
        <ele>33.6</ele>
        <time>2025-09-22T14:28:59Z</time>
      </trkpt>
      <trkpt lat="48.66558" lon="-3.96281">
        <ele>34</ele>
        <time>2025-09-22T14:29:01Z</time>
      </trkpt>
      <trkpt lat="48.66565" lon="-3.9629">
        <ele>34.4</ele>
        <time>2025-09-22T14:29:04Z</time>
      </trkpt>
      <trkpt lat="48.66567" lon="-3.96293">
        <ele>34.4</ele>
        <time>2025-09-22T14:29:05Z</time>
      </trkpt>
      <trkpt lat="48.66576" lon="-3.96304">
        <ele>34.4</ele>
        <time>2025-09-22T14:29:09Z</time>
      </trkpt>
      <trkpt lat="48.66586" lon="-3.96316">
        <ele>34.6</ele>
        <time>2025-09-22T14:29:13Z</time>
      </trkpt>
      <trkpt lat="48.66591" lon="-3.96321">
        <ele>34.6</ele>
        <time>2025-09-22T14:29:15Z</time>
      </trkpt>
      <trkpt lat="48.66598" lon="-3.96328">
        <ele>34.6</ele>
        <time>2025-09-22T14:29:18Z</time>
      </trkpt>
      <trkpt lat="48.66612" lon="-3.96339">
        <ele>34.6</ele>
        <time>2025-09-22T14:29:23Z</time>
      </trkpt>
      <trkpt lat="48.66625" lon="-3.96348">
        <ele>34.8</ele>
        <time>2025-09-22T14:29:28Z</time>
      </trkpt>
      <trkpt lat="48.66635" lon="-3.96354">
        <ele>35.2</ele>
        <time>2025-09-22T14:29:32Z</time>
      </trkpt>
      <trkpt lat="48.6664" lon="-3.96358">
        <ele>35.2</ele>
        <time>2025-09-22T14:29:34Z</time>
      </trkpt>
      <trkpt lat="48.66652" lon="-3.96374">
        <ele>34.8</ele>
        <time>2025-09-22T14:29:39Z</time>
      </trkpt>
      <trkpt lat="48.66661" lon="-3.9639">
        <ele>34.2</ele>
        <time>2025-09-22T14:29:43Z</time>
      </trkpt>
      <trkpt lat="48.66673" lon="-3.96412">
        <ele>33.6</ele>
        <time>2025-09-22T14:29:48Z</time>
      </trkpt>
      <trkpt lat="48.66687" lon="-3.96442">
        <ele>33.6</ele>
        <time>2025-09-22T14:29:54Z</time>
      </trkpt>
      <trkpt lat="48.66692" lon="-3.96452">
        <ele>33.6</ele>
        <time>2025-09-22T14:29:56Z</time>
      </trkpt>
      <trkpt lat="48.66704" lon="-3.96476">
        <ele>33</ele>
        <time>2025-09-22T14:30:00Z</time>
      </trkpt>
      <trkpt lat="48.66713" lon="-3.96488">
        <ele>32</ele>
        <time>2025-09-22T14:30:02Z</time>
      </trkpt>
      <trkpt lat="48.66719" lon="-3.96493">
        <ele>31.6</ele>
        <time>2025-09-22T14:30:03Z</time>
      </trkpt>
      <trkpt lat="48.66725" lon="-3.96497">
        <ele>31.2</ele>
        <time>2025-09-22T14:30:04Z</time>
      </trkpt>
      <trkpt lat="48.66731" lon="-3.965">
        <ele>30.4</ele>
        <time>2025-09-22T14:30:05Z</time>
      </trkpt>
      <trkpt lat="48.66738" lon="-3.96502">
        <ele>29.8</ele>
        <time>2025-09-22T14:30:06Z</time>
      </trkpt>
      <trkpt lat="48.66746" lon="-3.96503">
        <ele>29.4</ele>
        <time>2025-09-22T14:30:07Z</time>
      </trkpt>
      <trkpt lat="48.6676" lon="-3.96505">
        <ele>28</ele>
        <time>2025-09-22T14:30:09Z</time>
      </trkpt>
      <trkpt lat="48.66775" lon="-3.96512">
        <ele>27</ele>
        <time>2025-09-22T14:30:11Z</time>
      </trkpt>
      <trkpt lat="48.66789" lon="-3.96525">
        <ele>25.6</ele>
        <time>2025-09-22T14:30:13Z</time>
      </trkpt>
      <trkpt lat="48.66801" lon="-3.96541">
        <ele>24.2</ele>
        <time>2025-09-22T14:30:15Z</time>
      </trkpt>
      <trkpt lat="48.66807" lon="-3.96549">
        <ele>23.6</ele>
        <time>2025-09-22T14:30:16Z</time>
      </trkpt>
      <trkpt lat="48.66813" lon="-3.96557">
        <ele>23</ele>
        <time>2025-09-22T14:30:17Z</time>
      </trkpt>
      <trkpt lat="48.66836" lon="-3.9659">
        <ele>21.6</ele>
        <time>2025-09-22T14:30:21Z</time>
      </trkpt>
      <trkpt lat="48.66842" lon="-3.96599">
        <ele>21.8</ele>
        <time>2025-09-22T14:30:22Z</time>
      </trkpt>
      <trkpt lat="48.66851" lon="-3.96615">
        <ele>21.6</ele>
        <time>2025-09-22T14:30:24Z</time>
      </trkpt>
      <trkpt lat="48.66857" lon="-3.96634">
        <ele>21.2</ele>
        <time>2025-09-22T14:30:26Z</time>
      </trkpt>
      <trkpt lat="48.66867" lon="-3.96684">
        <ele>20.8</ele>
        <time>2025-09-22T14:30:31Z</time>
      </trkpt>
      <trkpt lat="48.6687" lon="-3.96693">
        <ele>20.6</ele>
        <time>2025-09-22T14:30:32Z</time>
      </trkpt>
      <trkpt lat="48.66878" lon="-3.96707">
        <ele>20.8</ele>
        <time>2025-09-22T14:30:34Z</time>
      </trkpt>
      <trkpt lat="48.66882" lon="-3.96713">
        <ele>20.4</ele>
        <time>2025-09-22T14:30:35Z</time>
      </trkpt>
      <trkpt lat="48.66907" lon="-3.96742">
        <ele>20.4</ele>
        <time>2025-09-22T14:30:41Z</time>
      </trkpt>
      <trkpt lat="48.66938" lon="-3.96774">
        <ele>20.2</ele>
        <time>2025-09-22T14:30:49Z</time>
      </trkpt>
      <trkpt lat="48.66958" lon="-3.96786">
        <ele>19.4</ele>
        <time>2025-09-22T14:30:54Z</time>
      </trkpt>
      <trkpt lat="48.66962" lon="-3.96787">
        <ele>19.2</ele>
        <time>2025-09-22T14:30:55Z</time>
      </trkpt>
      <trkpt lat="48.6699" lon="-3.9679">
        <ele>19.2</ele>
        <time>2025-09-22T14:31:02Z</time>
      </trkpt>
      <trkpt lat="48.67014" lon="-3.96801">
        <ele>19.2</ele>
        <time>2025-09-22T14:31:09Z</time>
      </trkpt>
      <trkpt lat="48.67028" lon="-3.96822">
        <ele>19</ele>
        <time>2025-09-22T14:31:14Z</time>
      </trkpt>
      <trkpt lat="48.67035" lon="-3.96845">
        <ele>18.8</ele>
        <time>2025-09-22T14:31:20Z</time>
      </trkpt>
      <trkpt lat="48.67039" lon="-3.96858">
        <ele>18.4</ele>
        <time>2025-09-22T14:31:23Z</time>
      </trkpt>
      <trkpt lat="48.67043" lon="-3.96868">
        <ele>18.2</ele>
        <time>2025-09-22T14:31:25Z</time>
      </trkpt>
      <trkpt lat="48.6706" lon="-3.96912">
        <ele>18.4</ele>
        <time>2025-09-22T14:31:33Z</time>
      </trkpt>
      <trkpt lat="48.6707" lon="-3.96933">
        <ele>18.2</ele>
        <time>2025-09-22T14:31:37Z</time>
      </trkpt>
      <trkpt lat="48.67075" lon="-3.96945">
        <ele>18</ele>
        <time>2025-09-22T14:31:39Z</time>
      </trkpt>
      <trkpt lat="48.67094" lon="-3.96991">
        <ele>17.2</ele>
        <time>2025-09-22T14:31:46Z</time>
      </trkpt>
      <trkpt lat="48.67097" lon="-3.96998">
        <ele>16.8</ele>
        <time>2025-09-22T14:31:47Z</time>
      </trkpt>
      <trkpt lat="48.67114" lon="-3.97052">
        <ele>16</ele>
        <time>2025-09-22T14:31:55Z</time>
      </trkpt>
      <trkpt lat="48.67119" lon="-3.97065">
        <ele>15.4</ele>
        <time>2025-09-22T14:31:57Z</time>
      </trkpt>
      <trkpt lat="48.67133" lon="-3.97105">
        <ele>14.8</ele>
        <time>2025-09-22T14:32:03Z</time>
      </trkpt>
      <trkpt lat="48.67139" lon="-3.97119">
        <ele>14</ele>
        <time>2025-09-22T14:32:05Z</time>
      </trkpt>
      <trkpt lat="48.67142" lon="-3.97127">
        <ele>13.4</ele>
        <time>2025-09-22T14:32:06Z</time>
      </trkpt>
      <trkpt lat="48.67154" lon="-3.97162">
        <ele>11.8</ele>
        <time>2025-09-22T14:32:10Z</time>
      </trkpt>
      <trkpt lat="48.67158" lon="-3.97171">
        <ele>11.4</ele>
        <time>2025-09-22T14:32:11Z</time>
      </trkpt>
      <trkpt lat="48.67164" lon="-3.9719">
        <ele>10.6</ele>
        <time>2025-09-22T14:32:13Z</time>
      </trkpt>
      <trkpt lat="48.67186" lon="-3.97248">
        <ele>9.8</ele>
        <time>2025-09-22T14:32:19Z</time>
      </trkpt>
      <trkpt lat="48.67198" lon="-3.97281">
        <ele>9.8</ele>
        <time>2025-09-22T14:32:23Z</time>
      </trkpt>
      <trkpt lat="48.67206" lon="-3.97304">
        <ele>9.8</ele>
        <time>2025-09-22T14:32:26Z</time>
      </trkpt>
      <trkpt lat="48.67216" lon="-3.97333">
        <ele>10.2</ele>
        <time>2025-09-22T14:32:30Z</time>
      </trkpt>
      <trkpt lat="48.67222" lon="-3.97348">
        <ele>10.4</ele>
        <time>2025-09-22T14:32:32Z</time>
      </trkpt>
      <trkpt lat="48.67225" lon="-3.97354">
        <ele>10.4</ele>
        <time>2025-09-22T14:32:33Z</time>
      </trkpt>
      <trkpt lat="48.67237" lon="-3.97376">
        <ele>11.6</ele>
        <time>2025-09-22T14:32:37Z</time>
      </trkpt>
      <trkpt lat="48.67255" lon="-3.97399">
        <ele>12.6</ele>
        <time>2025-09-22T14:32:43Z</time>
      </trkpt>
      <trkpt lat="48.67257" lon="-3.97402">
        <ele>12.8</ele>
        <time>2025-09-22T14:32:44Z</time>
      </trkpt>
      <trkpt lat="48.67276" lon="-3.97422">
        <ele>13.8</ele>
        <time>2025-09-22T14:32:50Z</time>
      </trkpt>
      <trkpt lat="48.67279" lon="-3.97425">
        <ele>14</ele>
        <time>2025-09-22T14:32:51Z</time>
      </trkpt>
      <trkpt lat="48.67288" lon="-3.97436">
        <ele>15</ele>
        <time>2025-09-22T14:32:54Z</time>
      </trkpt>
      <trkpt lat="48.67297" lon="-3.97444">
        <ele>15.4</ele>
        <time>2025-09-22T14:32:57Z</time>
      </trkpt>
      <trkpt lat="48.67299" lon="-3.97447">
        <ele>15.4</ele>
        <time>2025-09-22T14:32:58Z</time>
      </trkpt>
      <trkpt lat="48.67302" lon="-3.97449">
        <ele>15.4</ele>
        <time>2025-09-22T14:32:59Z</time>
      </trkpt>
      <trkpt lat="48.67311" lon="-3.97457">
        <ele>15.4</ele>
        <time>2025-09-22T14:33:02Z</time>
      </trkpt>
      <trkpt lat="48.67329" lon="-3.97472">
        <ele>15.6</ele>
        <time>2025-09-22T14:33:08Z</time>
      </trkpt>
      <trkpt lat="48.67353" lon="-3.97491">
        <ele>15.8</ele>
        <time>2025-09-22T14:33:16Z</time>
      </trkpt>
      <trkpt lat="48.67358" lon="-3.97494">
        <ele>16.2</ele>
        <time>2025-09-22T14:33:18Z</time>
      </trkpt>
      <trkpt lat="48.67368" lon="-3.97504">
        <ele>16.2</ele>
        <time>2025-09-22T14:33:22Z</time>
      </trkpt>
      <trkpt lat="48.67375" lon="-3.9751">
        <ele>16.2</ele>
        <time>2025-09-22T14:33:25Z</time>
      </trkpt>
      <trkpt lat="48.67401" lon="-3.97535">
        <ele>16.4</ele>
        <time>2025-09-22T14:33:35Z</time>
      </trkpt>
      <trkpt lat="48.67417" lon="-3.9755">
        <ele>16.2</ele>
        <time>2025-09-22T14:33:41Z</time>
      </trkpt>
      <trkpt lat="48.6742" lon="-3.97553">
        <ele>16.2</ele>
        <time>2025-09-22T14:33:42Z</time>
      </trkpt>
      <trkpt lat="48.6744" lon="-3.9757">
        <ele>15.8</ele>
        <time>2025-09-22T14:33:49Z</time>
      </trkpt>
      <trkpt lat="48.67463" lon="-3.97589">
        <ele>15.8</ele>
        <time>2025-09-22T14:33:57Z</time>
      </trkpt>
      <trkpt lat="48.67481" lon="-3.97614">
        <ele>15.4</ele>
        <time>2025-09-22T14:34:04Z</time>
      </trkpt>
      <trkpt lat="48.67489" lon="-3.97626">
        <ele>15.2</ele>
        <time>2025-09-22T14:34:07Z</time>
      </trkpt>
      <trkpt lat="48.67494" lon="-3.97634">
        <ele>15</ele>
        <time>2025-09-22T14:34:09Z</time>
      </trkpt>
      <trkpt lat="48.6751" lon="-3.9766">
        <ele>15</ele>
        <time>2025-09-22T14:34:15Z</time>
      </trkpt>
      <trkpt lat="48.67512" lon="-3.97665">
        <ele>15</ele>
        <time>2025-09-22T14:34:16Z</time>
      </trkpt>
      <trkpt lat="48.67524" lon="-3.97682">
        <ele>14.8</ele>
        <time>2025-09-22T14:34:21Z</time>
      </trkpt>
      <trkpt lat="48.6754" lon="-3.9771">
        <ele>15</ele>
        <time>2025-09-22T14:34:29Z</time>
      </trkpt>
      <trkpt lat="48.67552" lon="-3.97732">
        <ele>15.2</ele>
        <time>2025-09-22T14:34:35Z</time>
      </trkpt>
      <trkpt lat="48.67555" lon="-3.97739">
        <ele>15.4</ele>
        <time>2025-09-22T14:34:37Z</time>
      </trkpt>
      <trkpt lat="48.67568" lon="-3.97771">
        <ele>16</ele>
        <time>2025-09-22T14:34:45Z</time>
      </trkpt>
      <trkpt lat="48.67572" lon="-3.9778">
        <ele>16.2</ele>
        <time>2025-09-22T14:34:47Z</time>
      </trkpt>
      <trkpt lat="48.67581" lon="-3.97805">
        <ele>16.4</ele>
        <time>2025-09-22T14:34:52Z</time>
      </trkpt>
      <trkpt lat="48.67596" lon="-3.97836">
        <ele>16.6</ele>
        <time>2025-09-22T14:34:59Z</time>
      </trkpt>
      <trkpt lat="48.67611" lon="-3.9787">
        <ele>16.8</ele>
        <time>2025-09-22T14:35:06Z</time>
      </trkpt>
      <trkpt lat="48.6762" lon="-3.97895">
        <ele>16.8</ele>
        <time>2025-09-22T14:35:11Z</time>
      </trkpt>
      <trkpt lat="48.67634" lon="-3.97933">
        <ele>17</ele>
        <time>2025-09-22T14:35:19Z</time>
      </trkpt>
      <trkpt lat="48.67643" lon="-3.97973">
        <ele>17</ele>
        <time>2025-09-22T14:35:26Z</time>
      </trkpt>
      <trkpt lat="48.67645" lon="-3.97989">
        <ele>17.2</ele>
        <time>2025-09-22T14:35:29Z</time>
      </trkpt>
      <trkpt lat="48.67646" lon="-3.98012">
        <ele>17.2</ele>
        <time>2025-09-22T14:35:33Z</time>
      </trkpt>
      <trkpt lat="48.67645" lon="-3.9805">
        <ele>17.4</ele>
        <time>2025-09-22T14:35:40Z</time>
      </trkpt>
      <trkpt lat="48.67645" lon="-3.98069">
        <ele>17.4</ele>
        <time>2025-09-22T14:35:45Z</time>
      </trkpt>
      <trkpt lat="48.67646" lon="-3.9807">
        <ele>17.4</ele>
        <time>2025-09-22T14:35:48Z</time>
      </trkpt>
      <trkpt lat="48.67645" lon="-3.98072">
        <ele>17.4</ele>
        <time>2025-09-22T14:35:53Z</time>
      </trkpt>
      <trkpt lat="48.67645" lon="-3.98073">
        <ele>17.4</ele>
        <time>2025-09-22T14:35:54Z</time>
      </trkpt>
      <trkpt lat="48.67654" lon="-3.98078">
        <ele>17.4</ele>
        <time>2025-09-22T14:36:00Z</time>
      </trkpt>
      <trkpt lat="48.67669" lon="-3.98083">
        <ele>18.2</ele>
        <time>2025-09-22T14:36:05Z</time>
      </trkpt>
      <trkpt lat="48.67676" lon="-3.98085">
        <ele>18.2</ele>
        <time>2025-09-22T14:36:07Z</time>
      </trkpt>
      <trkpt lat="48.67683" lon="-3.98088">
        <ele>18</ele>
        <time>2025-09-22T14:36:09Z</time>
      </trkpt>
      <trkpt lat="48.67686" lon="-3.98089">
        <ele>18</ele>
        <time>2025-09-22T14:36:10Z</time>
      </trkpt>
      <trkpt lat="48.67694" lon="-3.98091">
        <ele>17.6</ele>
        <time>2025-09-22T14:36:12Z</time>
      </trkpt>
      <trkpt lat="48.67708" lon="-3.98093">
        <ele>17.6</ele>
        <time>2025-09-22T14:36:16Z</time>
      </trkpt>
      <trkpt lat="48.67725" lon="-3.98096">
        <ele>18.6</ele>
        <time>2025-09-22T14:36:21Z</time>
      </trkpt>
      <trkpt lat="48.67731" lon="-3.98098">
        <ele>19.2</ele>
        <time>2025-09-22T14:36:23Z</time>
      </trkpt>
      <trkpt lat="48.67735" lon="-3.98098">
        <ele>19.4</ele>
        <time>2025-09-22T14:36:24Z</time>
      </trkpt>
      <trkpt lat="48.67753" lon="-3.981">
        <ele>20</ele>
        <time>2025-09-22T14:36:30Z</time>
      </trkpt>
      <trkpt lat="48.67776" lon="-3.98105">
        <ele>20.4</ele>
        <time>2025-09-22T14:36:37Z</time>
      </trkpt>
      <trkpt lat="48.67794" lon="-3.98108">
        <ele>21.2</ele>
        <time>2025-09-22T14:36:43Z</time>
      </trkpt>
      <trkpt lat="48.67802" lon="-3.98109">
        <ele>21.4</ele>
        <time>2025-09-22T14:36:46Z</time>
      </trkpt>
      <trkpt lat="48.67813" lon="-3.98112">
        <ele>21.6</ele>
        <time>2025-09-22T14:36:50Z</time>
      </trkpt>
      <trkpt lat="48.67839" lon="-3.98123">
        <ele>22.2</ele>
        <time>2025-09-22T14:36:59Z</time>
      </trkpt>
      <trkpt lat="48.67845" lon="-3.98126">
        <ele>22.6</ele>
        <time>2025-09-22T14:37:01Z</time>
      </trkpt>
      <trkpt lat="48.67857" lon="-3.98132">
        <ele>23</ele>
        <time>2025-09-22T14:37:05Z</time>
      </trkpt>
      <trkpt lat="48.67877" lon="-3.98145">
        <ele>23.2</ele>
        <time>2025-09-22T14:37:12Z</time>
      </trkpt>
      <trkpt lat="48.679" lon="-3.9816">
        <ele>23.6</ele>
        <time>2025-09-22T14:37:20Z</time>
      </trkpt>
      <trkpt lat="48.67903" lon="-3.98162">
        <ele>23.6</ele>
        <time>2025-09-22T14:37:21Z</time>
      </trkpt>
      <trkpt lat="48.67925" lon="-3.98178">
        <ele>24</ele>
        <time>2025-09-22T14:37:28Z</time>
      </trkpt>
      <trkpt lat="48.67946" lon="-3.98191">
        <ele>24.6</ele>
        <time>2025-09-22T14:37:35Z</time>
      </trkpt>
      <trkpt lat="48.67949" lon="-3.98193">
        <ele>24.6</ele>
        <time>2025-09-22T14:37:36Z</time>
      </trkpt>
      <trkpt lat="48.67967" lon="-3.98205">
        <ele>25</ele>
        <time>2025-09-22T14:37:42Z</time>
      </trkpt>
      <trkpt lat="48.67982" lon="-3.98217">
        <ele>25.6</ele>
        <time>2025-09-22T14:37:48Z</time>
      </trkpt>
      <trkpt lat="48.67988" lon="-3.98222">
        <ele>25.8</ele>
        <time>2025-09-22T14:37:50Z</time>
      </trkpt>
      <trkpt lat="48.67998" lon="-3.98231">
        <ele>26</ele>
        <time>2025-09-22T14:37:54Z</time>
      </trkpt>
      <trkpt lat="48.68003" lon="-3.98236">
        <ele>26.4</ele>
        <time>2025-09-22T14:37:56Z</time>
      </trkpt>
      <trkpt lat="48.68011" lon="-3.98244">
        <ele>26.8</ele>
        <time>2025-09-22T14:37:59Z</time>
      </trkpt>
      <trkpt lat="48.68023" lon="-3.98255">
        <ele>27.2</ele>
        <time>2025-09-22T14:38:04Z</time>
      </trkpt>
      <trkpt lat="48.68046" lon="-3.9828">
        <ele>27.2</ele>
        <time>2025-09-22T14:38:15Z</time>
      </trkpt>
      <trkpt lat="48.6807" lon="-3.98305">
        <ele>27.6</ele>
        <time>2025-09-22T14:38:26Z</time>
      </trkpt>
      <trkpt lat="48.68072" lon="-3.98308">
        <ele>27.8</ele>
        <time>2025-09-22T14:38:27Z</time>
      </trkpt>
      <trkpt lat="48.68095" lon="-3.9833">
        <ele>28.4</ele>
        <time>2025-09-22T14:38:37Z</time>
      </trkpt>
      <trkpt lat="48.68116" lon="-3.98356">
        <ele>28.6</ele>
        <time>2025-09-22T14:38:47Z</time>
      </trkpt>
      <trkpt lat="48.68135" lon="-3.9837">
        <ele>28.6</ele>
        <time>2025-09-22T14:38:55Z</time>
      </trkpt>
      <trkpt lat="48.68138" lon="-3.98372">
        <ele>28.8</ele>
        <time>2025-09-22T14:38:56Z</time>
      </trkpt>
      <trkpt lat="48.68156" lon="-3.9837">
        <ele>29.2</ele>
        <time>2025-09-22T14:39:03Z</time>
      </trkpt>
      <trkpt lat="48.68173" lon="-3.98363">
        <ele>29.6</ele>
        <time>2025-09-22T14:39:11Z</time>
      </trkpt>
      <trkpt lat="48.68173" lon="-3.98363">
        <ele>29.6</ele>
        <time>2025-09-22T14:39:12Z</time>
      </trkpt>
      <trkpt lat="48.68175" lon="-3.98363">
        <ele>29.2</ele>
        <time>2025-09-22T14:39:28Z</time>
      </trkpt>
      <trkpt lat="48.68176" lon="-3.98361">
        <ele>29.4</ele>
        <time>2025-09-22T14:39:30Z</time>
      </trkpt>
      <trkpt lat="48.6818" lon="-3.98359">
        <ele>29.6</ele>
        <time>2025-09-22T14:39:36Z</time>
      </trkpt>
      <trkpt lat="48.68183" lon="-3.98355">
        <ele>29.6</ele>
        <time>2025-09-22T14:39:40Z</time>
      </trkpt>
      <trkpt lat="48.68183" lon="-3.98352">
        <ele>29.8</ele>
        <time>2025-09-22T14:39:42Z</time>
      </trkpt>
      <trkpt lat="48.68182" lon="-3.9835">
        <ele>29.8</ele>
        <time>2025-09-22T14:39:43Z</time>
      </trkpt>
      <trkpt lat="48.68181" lon="-3.98345">
        <ele>30</ele>
        <time>2025-09-22T14:39:45Z</time>
      </trkpt>
      <trkpt lat="48.68176" lon="-3.98326">
        <ele>30.2</ele>
        <time>2025-09-22T14:39:51Z</time>
      </trkpt>
      <trkpt lat="48.68166" lon="-3.98299">
        <ele>30.8</ele>
        <time>2025-09-22T14:39:59Z</time>
      </trkpt>
      <trkpt lat="48.68156" lon="-3.98268">
        <ele>31</ele>
        <time>2025-09-22T14:40:07Z</time>
      </trkpt>
      <trkpt lat="48.68147" lon="-3.98231">
        <ele>30.2</ele>
        <time>2025-09-22T14:40:16Z</time>
      </trkpt>
      <trkpt lat="48.68138" lon="-3.9819">
        <ele>30</ele>
        <time>2025-09-22T14:40:26Z</time>
      </trkpt>
      <trkpt lat="48.68136" lon="-3.98186">
        <ele>30</ele>
        <time>2025-09-22T14:40:27Z</time>
      </trkpt>
      <trkpt lat="48.68127" lon="-3.98179">
        <ele>30</ele>
        <time>2025-09-22T14:40:30Z</time>
      </trkpt>
      <trkpt lat="48.68101" lon="-3.98157">
        <ele>28.8</ele>
        <time>2025-09-22T14:40:37Z</time>
      </trkpt>
      <trkpt lat="48.68083" lon="-3.98135">
        <ele>27.8</ele>
        <time>2025-09-22T14:40:42Z</time>
      </trkpt>
      <trkpt lat="48.68071" lon="-3.98122">
        <ele>27</ele>
        <time>2025-09-22T14:40:45Z</time>
      </trkpt>
      <trkpt lat="48.68066" lon="-3.98116">
        <ele>26.6</ele>
        <time>2025-09-22T14:40:46Z</time>
      </trkpt>
      <trkpt lat="48.68062" lon="-3.98109">
        <ele>26.2</ele>
        <time>2025-09-22T14:40:47Z</time>
      </trkpt>
      <trkpt lat="48.68055" lon="-3.98091">
        <ele>25.2</ele>
        <time>2025-09-22T14:40:49Z</time>
      </trkpt>
      <trkpt lat="48.68046" lon="-3.98061">
        <ele>24.2</ele>
        <time>2025-09-22T14:40:52Z</time>
      </trkpt>
      <trkpt lat="48.68037" lon="-3.98028">
        <ele>23.2</ele>
        <time>2025-09-22T14:40:55Z</time>
      </trkpt>
      <trkpt lat="48.68034" lon="-3.98018">
        <ele>23</ele>
        <time>2025-09-22T14:40:56Z</time>
      </trkpt>
      <trkpt lat="48.68022" lon="-3.97975">
        <ele>21.8</ele>
        <time>2025-09-22T14:41:00Z</time>
      </trkpt>
      <trkpt lat="48.68019" lon="-3.97965">
        <ele>21.6</ele>
        <time>2025-09-22T14:41:01Z</time>
      </trkpt>
      <trkpt lat="48.68013" lon="-3.97945">
        <ele>20.6</ele>
        <time>2025-09-22T14:41:03Z</time>
      </trkpt>
      <trkpt lat="48.68005" lon="-3.97917">
        <ele>19.4</ele>
        <time>2025-09-22T14:41:06Z</time>
      </trkpt>
      <trkpt lat="48.68" lon="-3.97901">
        <ele>19.6</ele>
        <time>2025-09-22T14:41:08Z</time>
      </trkpt>
      <trkpt lat="48.67988" lon="-3.97857">
        <ele>20</ele>
        <time>2025-09-22T14:41:13Z</time>
      </trkpt>
      <trkpt lat="48.67983" lon="-3.97841">
        <ele>19.8</ele>
        <time>2025-09-22T14:41:15Z</time>
      </trkpt>
      <trkpt lat="48.67981" lon="-3.97832">
        <ele>19.6</ele>
        <time>2025-09-22T14:41:16Z</time>
      </trkpt>
      <trkpt lat="48.67978" lon="-3.97823">
        <ele>19.6</ele>
        <time>2025-09-22T14:41:17Z</time>
      </trkpt>
      <trkpt lat="48.67975" lon="-3.97815">
        <ele>19.4</ele>
        <time>2025-09-22T14:41:18Z</time>
      </trkpt>
      <trkpt lat="48.67965" lon="-3.97783">
        <ele>18.6</ele>
        <time>2025-09-22T14:41:22Z</time>
      </trkpt>
      <trkpt lat="48.67961" lon="-3.97768">
        <ele>18.6</ele>
        <time>2025-09-22T14:41:24Z</time>
      </trkpt>
      <trkpt lat="48.67955" lon="-3.97746">
        <ele>18.4</ele>
        <time>2025-09-22T14:41:27Z</time>
      </trkpt>
      <trkpt lat="48.67949" lon="-3.97724">
        <ele>18</ele>
        <time>2025-09-22T14:41:30Z</time>
      </trkpt>
      <trkpt lat="48.67932" lon="-3.97673">
        <ele>18</ele>
        <time>2025-09-22T14:41:37Z</time>
      </trkpt>
      <trkpt lat="48.67927" lon="-3.97649">
        <ele>18.4</ele>
        <time>2025-09-22T14:41:42Z</time>
      </trkpt>
      <trkpt lat="48.67921" lon="-3.97624">
        <ele>18.6</ele>
        <time>2025-09-22T14:41:47Z</time>
      </trkpt>
      <trkpt lat="48.67918" lon="-3.97614">
        <ele>18.4</ele>
        <time>2025-09-22T14:41:49Z</time>
      </trkpt>
      <trkpt lat="48.67908" lon="-3.97569">
        <ele>18.6</ele>
        <time>2025-09-22T14:41:57Z</time>
      </trkpt>
      <trkpt lat="48.67902" lon="-3.97553">
        <ele>18.4</ele>
        <time>2025-09-22T14:42:00Z</time>
      </trkpt>
      <trkpt lat="48.67898" lon="-3.97536">
        <ele>18.4</ele>
        <time>2025-09-22T14:42:03Z</time>
      </trkpt>
      <trkpt lat="48.67887" lon="-3.97498">
        <ele>18.4</ele>
        <time>2025-09-22T14:42:10Z</time>
      </trkpt>
      <trkpt lat="48.67877" lon="-3.97458">
        <ele>18.4</ele>
        <time>2025-09-22T14:42:17Z</time>
      </trkpt>
      <trkpt lat="48.67871" lon="-3.97428">
        <ele>18</ele>
        <time>2025-09-22T14:42:22Z</time>
      </trkpt>
      <trkpt lat="48.6787" lon="-3.97421">
        <ele>17.8</ele>
        <time>2025-09-22T14:42:23Z</time>
      </trkpt>
      <trkpt lat="48.67864" lon="-3.97379">
        <ele>17.6</ele>
        <time>2025-09-22T14:42:30Z</time>
      </trkpt>
      <trkpt lat="48.67863" lon="-3.97373">
        <ele>17.4</ele>
        <time>2025-09-22T14:42:31Z</time>
      </trkpt>
      <trkpt lat="48.67858" lon="-3.97342">
        <ele>17.4</ele>
        <time>2025-09-22T14:42:37Z</time>
      </trkpt>
      <trkpt lat="48.67855" lon="-3.9732">
        <ele>16.8</ele>
        <time>2025-09-22T14:42:41Z</time>
      </trkpt>
      <trkpt lat="48.67854" lon="-3.97308">
        <ele>16.6</ele>
        <time>2025-09-22T14:42:43Z</time>
      </trkpt>
      <trkpt lat="48.67854" lon="-3.97296">
        <ele>16.2</ele>
        <time>2025-09-22T14:42:45Z</time>
      </trkpt>
      <trkpt lat="48.67852" lon="-3.97285">
        <ele>16.2</ele>
        <time>2025-09-22T14:42:47Z</time>
      </trkpt>
      <trkpt lat="48.6785" lon="-3.97267">
        <ele>16</ele>
        <time>2025-09-22T14:42:50Z</time>
      </trkpt>
      <trkpt lat="48.67843" lon="-3.97222">
        <ele>15</ele>
        <time>2025-09-22T14:42:57Z</time>
      </trkpt>
      <trkpt lat="48.67836" lon="-3.97178">
        <ele>14.4</ele>
        <time>2025-09-22T14:43:04Z</time>
      </trkpt>
      <trkpt lat="48.67835" lon="-3.97172">
        <ele>14.2</ele>
        <time>2025-09-22T14:43:05Z</time>
      </trkpt>
      <trkpt lat="48.67831" lon="-3.97139">
        <ele>14</ele>
        <time>2025-09-22T14:43:10Z</time>
      </trkpt>
      <trkpt lat="48.67828" lon="-3.97119">
        <ele>13.2</ele>
        <time>2025-09-22T14:43:13Z</time>
      </trkpt>
      <trkpt lat="48.67825" lon="-3.97098">
        <ele>12.8</ele>
        <time>2025-09-22T14:43:16Z</time>
      </trkpt>
      <trkpt lat="48.67822" lon="-3.97062">
        <ele>12.6</ele>
        <time>2025-09-22T14:43:21Z</time>
      </trkpt>
      <trkpt lat="48.6782" lon="-3.97018">
        <ele>11.8</ele>
        <time>2025-09-22T14:43:27Z</time>
      </trkpt>
      <trkpt lat="48.6782" lon="-3.96988">
        <ele>11.4</ele>
        <time>2025-09-22T14:43:31Z</time>
      </trkpt>
      <trkpt lat="48.6782" lon="-3.96947">
        <ele>10.8</ele>
        <time>2025-09-22T14:43:37Z</time>
      </trkpt>
      <trkpt lat="48.67819" lon="-3.96929">
        <ele>9.6</ele>
        <time>2025-09-22T14:43:40Z</time>
      </trkpt>
      <trkpt lat="48.67816" lon="-3.9692">
        <ele>9.2</ele>
        <time>2025-09-22T14:43:43Z</time>
      </trkpt>
      <trkpt lat="48.67814" lon="-3.96918">
        <ele>9.4</ele>
        <time>2025-09-22T14:43:44Z</time>
      </trkpt>
      <trkpt lat="48.67803" lon="-3.96917">
        <ele>9.8</ele>
        <time>2025-09-22T14:43:49Z</time>
      </trkpt>
      <trkpt lat="48.67796" lon="-3.96917">
        <ele>10.2</ele>
        <time>2025-09-22T14:43:54Z</time>
      </trkpt>
      <trkpt lat="48.67797" lon="-3.96918">
        <ele>10.2</ele>
        <time>2025-09-22T14:43:55Z</time>
      </trkpt>
      <trkpt lat="48.67797" lon="-3.96918">
        <ele>10.2</ele>
        <time>2025-09-22T14:43:56Z</time>
      </trkpt>
      <trkpt lat="48.67795" lon="-3.96916">
        <ele>10</ele>
        <time>2025-09-22T14:43:59Z</time>
      </trkpt>
      <trkpt lat="48.6779" lon="-3.96915">
        <ele>9.8</ele>
        <time>2025-09-22T14:44:02Z</time>
      </trkpt>
      <trkpt lat="48.67785" lon="-3.96915">
        <ele>9.8</ele>
        <time>2025-09-22T14:44:06Z</time>
      </trkpt>
      <trkpt lat="48.67786" lon="-3.96913">
        <ele>9.8</ele>
        <time>2025-09-22T14:47:11Z</time>
      </trkpt>
      <trkpt lat="48.67787" lon="-3.96913">
        <ele>9.8</ele>
        <time>2025-09-22T14:47:12Z</time>
      </trkpt>
      <trkpt lat="48.67792" lon="-3.96912">
        <ele>10.6</ele>
        <time>2025-09-22T14:47:15Z</time>
      </trkpt>
      <trkpt lat="48.67794" lon="-3.96913">
        <ele>11</ele>
        <time>2025-09-22T14:47:16Z</time>
      </trkpt>
      <trkpt lat="48.67806" lon="-3.96915">
        <ele>11.2</ele>
        <time>2025-09-22T14:47:22Z</time>
      </trkpt>
      <trkpt lat="48.67808" lon="-3.96916">
        <ele>11.2</ele>
        <time>2025-09-22T14:47:23Z</time>
      </trkpt>
      <trkpt lat="48.67822" lon="-3.96919">
        <ele>11</ele>
        <time>2025-09-22T14:47:29Z</time>
      </trkpt>
      <trkpt lat="48.67834" lon="-3.96922">
        <ele>10.8</ele>
        <time>2025-09-22T14:47:34Z</time>
      </trkpt>
      <trkpt lat="48.67839" lon="-3.96922">
        <ele>10.8</ele>
        <time>2025-09-22T14:47:36Z</time>
      </trkpt>
      <trkpt lat="48.67858" lon="-3.96926">
        <ele>11</ele>
        <time>2025-09-22T14:47:44Z</time>
      </trkpt>
      <trkpt lat="48.67877" lon="-3.96922">
        <ele>10.8</ele>
        <time>2025-09-22T14:47:51Z</time>
      </trkpt>
      <trkpt lat="48.67899" lon="-3.96922">
        <ele>10.8</ele>
        <time>2025-09-22T14:47:59Z</time>
      </trkpt>
      <trkpt lat="48.67922" lon="-3.96928">
        <ele>10.8</ele>
        <time>2025-09-22T14:48:09Z</time>
      </trkpt>
      <trkpt lat="48.67942" lon="-3.96931">
        <ele>11</ele>
        <time>2025-09-22T14:48:18Z</time>
      </trkpt>
      <trkpt lat="48.67961" lon="-3.96932">
        <ele>11.2</ele>
        <time>2025-09-22T14:48:26Z</time>
      </trkpt>
      <trkpt lat="48.6799" lon="-3.96929">
        <ele>11</ele>
        <time>2025-09-22T14:48:36Z</time>
      </trkpt>
      <trkpt lat="48.6801" lon="-3.96919">
        <ele>11.2</ele>
        <time>2025-09-22T14:48:43Z</time>
      </trkpt>
      <trkpt lat="48.68013" lon="-3.96917">
        <ele>11.4</ele>
        <time>2025-09-22T14:48:44Z</time>
      </trkpt>
      <trkpt lat="48.68021" lon="-3.9691">
        <ele>11.6</ele>
        <time>2025-09-22T14:48:47Z</time>
      </trkpt>
      <trkpt lat="48.6803" lon="-3.96901">
        <ele>11.8</ele>
        <time>2025-09-22T14:48:51Z</time>
      </trkpt>
      <trkpt lat="48.68032" lon="-3.96899">
        <ele>11.8</ele>
        <time>2025-09-22T14:48:52Z</time>
      </trkpt>
      <trkpt lat="48.6804" lon="-3.96888">
        <ele>12.2</ele>
        <time>2025-09-22T14:48:58Z</time>
      </trkpt>
      <trkpt lat="48.68041" lon="-3.9688">
        <ele>11.8</ele>
        <time>2025-09-22T14:49:04Z</time>
      </trkpt>
      <trkpt lat="48.6804" lon="-3.9688">
        <ele>11.8</ele>
        <time>2025-09-22T14:49:05Z</time>
      </trkpt>
      <trkpt lat="48.68041" lon="-3.96878">
        <ele>12</ele>
        <time>2025-09-22T14:49:08Z</time>
      </trkpt>
      <trkpt lat="48.6804" lon="-3.96877">
        <ele>12</ele>
        <time>2025-09-22T14:49:10Z</time>
      </trkpt>
      <trkpt lat="48.68041" lon="-3.96877">
        <ele>11.8</ele>
        <time>2025-09-22T15:06:35Z</time>
      </trkpt>
      <trkpt lat="48.6804" lon="-3.96877">
        <ele>11.8</ele>
        <time>2025-09-22T15:06:36Z</time>
      </trkpt>
      <trkpt lat="48.6804" lon="-3.96876">
        <ele>11.8</ele>
        <time>2025-09-22T15:06:37Z</time>
      </trkpt>
      <trkpt lat="48.68041" lon="-3.96878">
        <ele>11.8</ele>
        <time>2025-09-22T15:07:07Z</time>
      </trkpt>
      <trkpt lat="48.68041" lon="-3.96878">
        <ele>11.8</ele>
        <time>2025-09-22T15:07:09Z</time>
      </trkpt>
      <trkpt lat="48.68041" lon="-3.96878">
        <ele>11.8</ele>
        <time>2025-09-22T15:07:10Z</time>
      </trkpt>
      <trkpt lat="48.68039" lon="-3.96878">
        <ele>11.8</ele>
        <time>2025-09-22T15:07:12Z</time>
      </trkpt>
      <trkpt lat="48.68037" lon="-3.96881">
        <ele>12</ele>
        <time>2025-09-22T15:07:15Z</time>
      </trkpt>
      <trkpt lat="48.68038" lon="-3.96886">
        <ele>12.4</ele>
        <time>2025-09-22T15:07:21Z</time>
      </trkpt>
      <trkpt lat="48.68039" lon="-3.96888">
        <ele>12.4</ele>
        <time>2025-09-22T15:07:24Z</time>
      </trkpt>
      <trkpt lat="48.6804" lon="-3.96889">
        <ele>12.4</ele>
        <time>2025-09-22T15:07:26Z</time>
      </trkpt>
      <trkpt lat="48.68042" lon="-3.96891">
        <ele>12.6</ele>
        <time>2025-09-22T15:07:38Z</time>
      </trkpt>
      <trkpt lat="48.68043" lon="-3.96892">
        <ele>13</ele>
        <time>2025-09-22T15:07:39Z</time>
      </trkpt>
      <trkpt lat="48.68049" lon="-3.96901">
        <ele>12.2</ele>
        <time>2025-09-22T15:07:44Z</time>
      </trkpt>
      <trkpt lat="48.68058" lon="-3.96906">
        <ele>12.4</ele>
        <time>2025-09-22T15:07:49Z</time>
      </trkpt>
      <trkpt lat="48.68064" lon="-3.96911">
        <ele>12.4</ele>
        <time>2025-09-22T15:07:53Z</time>
      </trkpt>
      <trkpt lat="48.68069" lon="-3.96917">
        <ele>12.6</ele>
        <time>2025-09-22T15:07:56Z</time>
      </trkpt>
      <trkpt lat="48.68083" lon="-3.96934">
        <ele>13.8</ele>
        <time>2025-09-22T15:08:04Z</time>
      </trkpt>
      <trkpt lat="48.68085" lon="-3.96936">
        <ele>14</ele>
        <time>2025-09-22T15:08:05Z</time>
      </trkpt>
      <trkpt lat="48.68087" lon="-3.96938">
        <ele>14</ele>
        <time>2025-09-22T15:08:06Z</time>
      </trkpt>
      <trkpt lat="48.68102" lon="-3.96953">
        <ele>14.6</ele>
        <time>2025-09-22T15:08:12Z</time>
      </trkpt>
      <trkpt lat="48.68108" lon="-3.96958">
        <ele>11.6</ele>
        <time>2025-09-22T15:08:14Z</time>
      </trkpt>
      <trkpt lat="48.68118" lon="-3.9697">
        <ele>11</ele>
        <time>2025-09-22T15:08:18Z</time>
      </trkpt>
      <trkpt lat="48.6812" lon="-3.96972">
        <ele>10.8</ele>
        <time>2025-09-22T15:08:19Z</time>
      </trkpt>
      <trkpt lat="48.68122" lon="-3.96975">
        <ele>10.4</ele>
        <time>2025-09-22T15:08:20Z</time>
      </trkpt>
      <trkpt lat="48.68141" lon="-3.96993">
        <ele>9.8</ele>
        <time>2025-09-22T15:08:27Z</time>
      </trkpt>
      <trkpt lat="48.68163" lon="-3.9701">
        <ele>10.8</ele>
        <time>2025-09-22T15:08:35Z</time>
      </trkpt>
      <trkpt lat="48.68183" lon="-3.97024">
        <ele>10</ele>
        <time>2025-09-22T15:08:43Z</time>
      </trkpt>
      <trkpt lat="48.682" lon="-3.97034">
        <ele>10.2</ele>
        <time>2025-09-22T15:08:50Z</time>
      </trkpt>
      <trkpt lat="48.68216" lon="-3.97044">
        <ele>10.8</ele>
        <time>2025-09-22T15:08:57Z</time>
      </trkpt>
      <trkpt lat="48.68235" lon="-3.97052">
        <ele>11</ele>
        <time>2025-09-22T15:09:04Z</time>
      </trkpt>
      <trkpt lat="48.6824" lon="-3.97055">
        <ele>11.2</ele>
        <time>2025-09-22T15:09:06Z</time>
      </trkpt>
      <trkpt lat="48.68264" lon="-3.97072">
        <ele>9.6</ele>
        <time>2025-09-22T15:09:15Z</time>
      </trkpt>
      <trkpt lat="48.68289" lon="-3.97093">
        <ele>9.6</ele>
        <time>2025-09-22T15:09:25Z</time>
      </trkpt>
      <trkpt lat="48.68308" lon="-3.97109">
        <ele>11</ele>
        <time>2025-09-22T15:09:33Z</time>
      </trkpt>
      <trkpt lat="48.6833" lon="-3.97121">
        <ele>11.2</ele>
        <time>2025-09-22T15:09:41Z</time>
      </trkpt>
      <trkpt lat="48.68333" lon="-3.97121">
        <ele>11.4</ele>
        <time>2025-09-22T15:09:42Z</time>
      </trkpt>
      <trkpt lat="48.68358" lon="-3.97123">
        <ele>11.4</ele>
        <time>2025-09-22T15:09:50Z</time>
      </trkpt>
      <trkpt lat="48.68383" lon="-3.97119">
        <ele>11.6</ele>
        <time>2025-09-22T15:09:58Z</time>
      </trkpt>
      <trkpt lat="48.68407" lon="-3.9711">
        <ele>11.6</ele>
        <time>2025-09-22T15:10:06Z</time>
      </trkpt>
      <trkpt lat="48.68432" lon="-3.97099">
        <ele>12.4</ele>
        <time>2025-09-22T15:10:14Z</time>
      </trkpt>
      <trkpt lat="48.68452" lon="-3.97091">
        <ele>12.2</ele>
        <time>2025-09-22T15:10:21Z</time>
      </trkpt>
      <trkpt lat="48.68471" lon="-3.97085">
        <ele>11.2</ele>
        <time>2025-09-22T15:10:28Z</time>
      </trkpt>
      <trkpt lat="48.68491" lon="-3.97081">
        <ele>11</ele>
        <time>2025-09-22T15:10:35Z</time>
      </trkpt>
      <trkpt lat="48.68502" lon="-3.97078">
        <ele>11.2</ele>
        <time>2025-09-22T15:10:39Z</time>
      </trkpt>
      <trkpt lat="48.68527" lon="-3.97072">
        <ele>11.2</ele>
        <time>2025-09-22T15:10:48Z</time>
      </trkpt>
      <trkpt lat="48.68546" lon="-3.97071">
        <ele>10.6</ele>
        <time>2025-09-22T15:10:54Z</time>
      </trkpt>
      <trkpt lat="48.68564" lon="-3.97066">
        <ele>10.4</ele>
        <time>2025-09-22T15:11:00Z</time>
      </trkpt>
      <trkpt lat="48.68566" lon="-3.97066">
        <ele>10.4</ele>
        <time>2025-09-22T15:11:01Z</time>
      </trkpt>
      <trkpt lat="48.68584" lon="-3.97066">
        <ele>10</ele>
        <time>2025-09-22T15:11:07Z</time>
      </trkpt>
      <trkpt lat="48.68597" lon="-3.97065">
        <ele>9.6</ele>
        <time>2025-09-22T15:11:11Z</time>
      </trkpt>
      <trkpt lat="48.68603" lon="-3.97067">
        <ele>9.4</ele>
        <time>2025-09-22T15:11:13Z</time>
      </trkpt>
      <trkpt lat="48.68606" lon="-3.97067">
        <ele>9.2</ele>
        <time>2025-09-22T15:11:14Z</time>
      </trkpt>
      <trkpt lat="48.68616" lon="-3.97067">
        <ele>9.4</ele>
        <time>2025-09-22T15:11:18Z</time>
      </trkpt>
      <trkpt lat="48.68626" lon="-3.97068">
        <ele>9.6</ele>
        <time>2025-09-22T15:11:22Z</time>
      </trkpt>
      <trkpt lat="48.68652" lon="-3.9706">
        <ele>10</ele>
        <time>2025-09-22T15:11:31Z</time>
      </trkpt>
      <trkpt lat="48.68657" lon="-3.97057">
        <ele>10.4</ele>
        <time>2025-09-22T15:11:33Z</time>
      </trkpt>
      <trkpt lat="48.68676" lon="-3.97046">
        <ele>10</ele>
        <time>2025-09-22T15:11:40Z</time>
      </trkpt>
      <trkpt lat="48.68697" lon="-3.97029">
        <ele>10.6</ele>
        <time>2025-09-22T15:11:48Z</time>
      </trkpt>
      <trkpt lat="48.68717" lon="-3.97013">
        <ele>10.2</ele>
        <time>2025-09-22T15:11:56Z</time>
      </trkpt>
      <trkpt lat="48.68724" lon="-3.97006">
        <ele>10.2</ele>
        <time>2025-09-22T15:11:59Z</time>
      </trkpt>
      <trkpt lat="48.68735" lon="-3.96998">
        <ele>10.4</ele>
        <time>2025-09-22T15:12:03Z</time>
      </trkpt>
      <trkpt lat="48.68749" lon="-3.96988">
        <ele>10.8</ele>
        <time>2025-09-22T15:12:08Z</time>
      </trkpt>
      <trkpt lat="48.68771" lon="-3.9697">
        <ele>10.6</ele>
        <time>2025-09-22T15:12:17Z</time>
      </trkpt>
      <trkpt lat="48.68795" lon="-3.9695">
        <ele>10.8</ele>
        <time>2025-09-22T15:12:27Z</time>
      </trkpt>
      <trkpt lat="48.68818" lon="-3.96932">
        <ele>11.2</ele>
        <time>2025-09-22T15:12:37Z</time>
      </trkpt>
      <trkpt lat="48.68828" lon="-3.96925">
        <ele>11.4</ele>
        <time>2025-09-22T15:12:41Z</time>
      </trkpt>
      <trkpt lat="48.68841" lon="-3.96917">
        <ele>11</ele>
        <time>2025-09-22T15:12:46Z</time>
      </trkpt>
      <trkpt lat="48.68859" lon="-3.9691">
        <ele>10.8</ele>
        <time>2025-09-22T15:12:54Z</time>
      </trkpt>
      <trkpt lat="48.68866" lon="-3.96907">
        <ele>10.4</ele>
        <time>2025-09-22T15:12:57Z</time>
      </trkpt>
      <trkpt lat="48.68883" lon="-3.969">
        <ele>10.4</ele>
        <time>2025-09-22T15:13:04Z</time>
      </trkpt>
      <trkpt lat="48.68913" lon="-3.96887">
        <ele>10.2</ele>
        <time>2025-09-22T15:13:16Z</time>
      </trkpt>
      <trkpt lat="48.68933" lon="-3.9688">
        <ele>10.4</ele>
        <time>2025-09-22T15:13:24Z</time>
      </trkpt>
      <trkpt lat="48.68939" lon="-3.96877">
        <ele>10.2</ele>
        <time>2025-09-22T15:13:27Z</time>
      </trkpt>
      <trkpt lat="48.68954" lon="-3.9687">
        <ele>10.8</ele>
        <time>2025-09-22T15:13:33Z</time>
      </trkpt>
      <trkpt lat="48.68982" lon="-3.9685">
        <ele>10.8</ele>
        <time>2025-09-22T15:13:44Z</time>
      </trkpt>
      <trkpt lat="48.69011" lon="-3.96826">
        <ele>10.8</ele>
        <time>2025-09-22T15:13:54Z</time>
      </trkpt>
      <trkpt lat="48.69025" lon="-3.96806">
        <ele>10.4</ele>
        <time>2025-09-22T15:14:00Z</time>
      </trkpt>
      <trkpt lat="48.69028" lon="-3.96783">
        <ele>10.6</ele>
        <time>2025-09-22T15:14:05Z</time>
      </trkpt>
      <trkpt lat="48.69026" lon="-3.96743">
        <ele>10.2</ele>
        <time>2025-09-22T15:14:14Z</time>
      </trkpt>
      <trkpt lat="48.69022" lon="-3.96709">
        <ele>10.4</ele>
        <time>2025-09-22T15:14:22Z</time>
      </trkpt>
      <trkpt lat="48.69016" lon="-3.9669">
        <ele>9.8</ele>
        <time>2025-09-22T15:14:28Z</time>
      </trkpt>
      <trkpt lat="48.69012" lon="-3.96689">
        <ele>12</ele>
        <time>2025-09-22T15:14:31Z</time>
      </trkpt>
      <trkpt lat="48.69012" lon="-3.96688">
        <ele>13.4</ele>
        <time>2025-09-22T15:14:33Z</time>
      </trkpt>
      <trkpt lat="48.69012" lon="-3.96687">
        <ele>13.6</ele>
        <time>2025-09-22T15:14:50Z</time>
      </trkpt>
      <trkpt lat="48.69009" lon="-3.96685">
        <ele>13.8</ele>
        <time>2025-09-22T15:14:53Z</time>
      </trkpt>
      <trkpt lat="48.69008" lon="-3.96686">
        <ele>13.8</ele>
        <time>2025-09-22T15:14:55Z</time>
      </trkpt>
      <trkpt lat="48.69008" lon="-3.96683">
        <ele>13.4</ele>
        <time>2025-09-22T15:15:02Z</time>
      </trkpt>
      <trkpt lat="48.69007" lon="-3.9668">
        <ele>13.4</ele>
        <time>2025-09-22T15:15:04Z</time>
      </trkpt>
      <trkpt lat="48.69006" lon="-3.9668">
        <ele>14</ele>
        <time>2025-09-22T15:15:06Z</time>
      </trkpt>
      <trkpt lat="48.69006" lon="-3.96678">
        <ele>13.4</ele>
        <time>2025-09-22T15:15:25Z</time>
      </trkpt>
      <trkpt lat="48.69005" lon="-3.96677">
        <ele>13.4</ele>
        <time>2025-09-22T15:15:26Z</time>
      </trkpt>
      <trkpt lat="48.69004" lon="-3.96676">
        <ele>13.4</ele>
        <time>2025-09-22T15:15:27Z</time>
      </trkpt>
      <trkpt lat="48.68996" lon="-3.96668">
        <ele>13.4</ele>
        <time>2025-09-22T15:15:31Z</time>
      </trkpt>
      <trkpt lat="48.6899" lon="-3.96665">
        <ele>13.2</ele>
        <time>2025-09-22T15:15:33Z</time>
      </trkpt>
      <trkpt lat="48.6898" lon="-3.9666">
        <ele>13</ele>
        <time>2025-09-22T15:15:37Z</time>
      </trkpt>
      <trkpt lat="48.68971" lon="-3.96646">
        <ele>12.8</ele>
        <time>2025-09-22T15:15:42Z</time>
      </trkpt>
      <trkpt lat="48.6897" lon="-3.96643">
        <ele>12.6</ele>
        <time>2025-09-22T15:15:43Z</time>
      </trkpt>
      <trkpt lat="48.68959" lon="-3.96627">
        <ele>13</ele>
        <time>2025-09-22T15:15:49Z</time>
      </trkpt>
      <trkpt lat="48.68942" lon="-3.96601">
        <ele>13</ele>
        <time>2025-09-22T15:15:58Z</time>
      </trkpt>
      <trkpt lat="48.68933" lon="-3.96582">
        <ele>13</ele>
        <time>2025-09-22T15:16:04Z</time>
      </trkpt>
      <trkpt lat="48.6893" lon="-3.96576">
        <ele>13</ele>
        <time>2025-09-22T15:16:06Z</time>
      </trkpt>
      <trkpt lat="48.68916" lon="-3.96548">
        <ele>12.4</ele>
        <time>2025-09-22T15:16:14Z</time>
      </trkpt>
      <trkpt lat="48.68903" lon="-3.96519">
        <ele>12.4</ele>
        <time>2025-09-22T15:16:23Z</time>
      </trkpt>
      <trkpt lat="48.68888" lon="-3.96486">
        <ele>12.2</ele>
        <time>2025-09-22T15:16:33Z</time>
      </trkpt>
      <trkpt lat="48.68876" lon="-3.96459">
        <ele>12.6</ele>
        <time>2025-09-22T15:16:41Z</time>
      </trkpt>
      <trkpt lat="48.68862" lon="-3.96425">
        <ele>12.4</ele>
        <time>2025-09-22T15:16:51Z</time>
      </trkpt>
      <trkpt lat="48.68848" lon="-3.96391">
        <ele>12.4</ele>
        <time>2025-09-22T15:17:00Z</time>
      </trkpt>
      <trkpt lat="48.68839" lon="-3.96355">
        <ele>11.6</ele>
        <time>2025-09-22T15:17:08Z</time>
      </trkpt>
      <trkpt lat="48.68831" lon="-3.96325">
        <ele>12</ele>
        <time>2025-09-22T15:17:16Z</time>
      </trkpt>
      <trkpt lat="48.68832" lon="-3.96323">
        <ele>12.2</ele>
        <time>2025-09-22T15:17:17Z</time>
      </trkpt>
      <trkpt lat="48.68837" lon="-3.96317">
        <ele>12.6</ele>
        <time>2025-09-22T15:17:20Z</time>
      </trkpt>
      <trkpt lat="48.6884" lon="-3.96311">
        <ele>13.6</ele>
        <time>2025-09-22T15:17:23Z</time>
      </trkpt>
      <trkpt lat="48.6884" lon="-3.96304">
        <ele>14</ele>
        <time>2025-09-22T15:17:25Z</time>
      </trkpt>
      <trkpt lat="48.6884" lon="-3.96294">
        <ele>14.4</ele>
        <time>2025-09-22T15:17:30Z</time>
      </trkpt>
      <trkpt lat="48.6884" lon="-3.96292">
        <ele>12.8</ele>
        <time>2025-09-22T15:18:31Z</time>
      </trkpt>
      <trkpt lat="48.6884" lon="-3.9629">
        <ele>13.2</ele>
        <time>2025-09-22T15:18:32Z</time>
      </trkpt>
      <trkpt lat="48.68838" lon="-3.9629">
        <ele>14</ele>
        <time>2025-09-22T15:18:34Z</time>
      </trkpt>
      <trkpt lat="48.68837" lon="-3.9629">
        <ele>14.8</ele>
        <time>2025-09-22T15:18:36Z</time>
      </trkpt>
      <trkpt lat="48.68837" lon="-3.9629">
        <ele>14.8</ele>
        <time>2025-09-22T15:18:37Z</time>
      </trkpt>
      <trkpt lat="48.68836" lon="-3.96289">
        <ele>13</ele>
        <time>2025-09-22T15:18:50Z</time>
      </trkpt>
      <trkpt lat="48.68832" lon="-3.96281">
        <ele>13</ele>
        <time>2025-09-22T15:18:56Z</time>
      </trkpt>
      <trkpt lat="48.68823" lon="-3.96271">
        <ele>12.4</ele>
        <time>2025-09-22T15:19:00Z</time>
      </trkpt>
      <trkpt lat="48.68821" lon="-3.96266">
        <ele>12</ele>
        <time>2025-09-22T15:19:01Z</time>
      </trkpt>
      <trkpt lat="48.68819" lon="-3.96262">
        <ele>11.8</ele>
        <time>2025-09-22T15:19:02Z</time>
      </trkpt>
      <trkpt lat="48.68812" lon="-3.96236">
        <ele>11.2</ele>
        <time>2025-09-22T15:19:07Z</time>
      </trkpt>
      <trkpt lat="48.6881" lon="-3.96226">
        <ele>11.2</ele>
        <time>2025-09-22T15:19:09Z</time>
      </trkpt>
      <trkpt lat="48.68807" lon="-3.96217">
        <ele>11</ele>
        <time>2025-09-22T15:19:11Z</time>
      </trkpt>
      <trkpt lat="48.68803" lon="-3.96201">
        <ele>11.4</ele>
        <time>2025-09-22T15:19:15Z</time>
      </trkpt>
      <trkpt lat="48.68796" lon="-3.96174">
        <ele>11.8</ele>
        <time>2025-09-22T15:19:21Z</time>
      </trkpt>
      <trkpt lat="48.68794" lon="-3.96166">
        <ele>12</ele>
        <time>2025-09-22T15:19:23Z</time>
      </trkpt>
      <trkpt lat="48.68789" lon="-3.96149">
        <ele>11.6</ele>
        <time>2025-09-22T15:19:27Z</time>
      </trkpt>
      <trkpt lat="48.68785" lon="-3.96127">
        <ele>11</ele>
        <time>2025-09-22T15:19:32Z</time>
      </trkpt>
      <trkpt lat="48.68774" lon="-3.96097">
        <ele>10.8</ele>
        <time>2025-09-22T15:19:39Z</time>
      </trkpt>
      <trkpt lat="48.68771" lon="-3.96094">
        <ele>10.8</ele>
        <time>2025-09-22T15:19:40Z</time>
      </trkpt>
      <trkpt lat="48.68761" lon="-3.96087">
        <ele>10.6</ele>
        <time>2025-09-22T15:19:44Z</time>
      </trkpt>
      <trkpt lat="48.68744" lon="-3.96084">
        <ele>11.6</ele>
        <time>2025-09-22T15:19:51Z</time>
      </trkpt>
      <trkpt lat="48.68741" lon="-3.96086">
        <ele>11.8</ele>
        <time>2025-09-22T15:19:53Z</time>
      </trkpt>
      <trkpt lat="48.68737" lon="-3.96087">
        <ele>11.8</ele>
        <time>2025-09-22T15:19:55Z</time>
      </trkpt>
      <trkpt lat="48.6873" lon="-3.96092">
        <ele>11.4</ele>
        <time>2025-09-22T15:19:58Z</time>
      </trkpt>
      <trkpt lat="48.68716" lon="-3.96108">
        <ele>11.2</ele>
        <time>2025-09-22T15:20:04Z</time>
      </trkpt>
      <trkpt lat="48.68711" lon="-3.96115">
        <ele>11.4</ele>
        <time>2025-09-22T15:20:06Z</time>
      </trkpt>
      <trkpt lat="48.68704" lon="-3.96124">
        <ele>11.2</ele>
        <time>2025-09-22T15:20:09Z</time>
      </trkpt>
      <trkpt lat="48.68697" lon="-3.96133">
        <ele>11.4</ele>
        <time>2025-09-22T15:20:12Z</time>
      </trkpt>
      <trkpt lat="48.68692" lon="-3.96138">
        <ele>11.4</ele>
        <time>2025-09-22T15:20:14Z</time>
      </trkpt>
      <trkpt lat="48.68686" lon="-3.96147">
        <ele>11.4</ele>
        <time>2025-09-22T15:20:17Z</time>
      </trkpt>
      <trkpt lat="48.68671" lon="-3.96163">
        <ele>11.2</ele>
        <time>2025-09-22T15:20:24Z</time>
      </trkpt>
      <trkpt lat="48.68667" lon="-3.96168">
        <ele>11.2</ele>
        <time>2025-09-22T15:20:26Z</time>
      </trkpt>
      <trkpt lat="48.68661" lon="-3.96174">
        <ele>11.4</ele>
        <time>2025-09-22T15:20:29Z</time>
      </trkpt>
      <trkpt lat="48.68658" lon="-3.96177">
        <ele>11.8</ele>
        <time>2025-09-22T15:20:32Z</time>
      </trkpt>
      <trkpt lat="48.68657" lon="-3.96177">
        <ele>11.8</ele>
        <time>2025-09-22T15:20:33Z</time>
      </trkpt>
      <trkpt lat="48.68649" lon="-3.96181">
        <ele>11.4</ele>
        <time>2025-09-22T15:20:38Z</time>
      </trkpt>
      <trkpt lat="48.68636" lon="-3.96184">
        <ele>11.2</ele>
        <time>2025-09-22T15:20:42Z</time>
      </trkpt>
      <trkpt lat="48.68626" lon="-3.96186">
        <ele>11.2</ele>
        <time>2025-09-22T15:20:45Z</time>
      </trkpt>
      <trkpt lat="48.68601" lon="-3.96182">
        <ele>11.4</ele>
        <time>2025-09-22T15:20:52Z</time>
      </trkpt>
      <trkpt lat="48.68576" lon="-3.96168">
        <ele>13</ele>
        <time>2025-09-22T15:21:00Z</time>
      </trkpt>
      <trkpt lat="48.68569" lon="-3.9616">
        <ele>14.4</ele>
        <time>2025-09-22T15:21:03Z</time>
      </trkpt>
      <trkpt lat="48.68559" lon="-3.96144">
        <ele>14.2</ele>
        <time>2025-09-22T15:21:08Z</time>
      </trkpt>
      <trkpt lat="48.68554" lon="-3.96135">
        <ele>14.4</ele>
        <time>2025-09-22T15:21:10Z</time>
      </trkpt>
      <trkpt lat="48.68542" lon="-3.96116">
        <ele>14.2</ele>
        <time>2025-09-22T15:21:16Z</time>
      </trkpt>
      <trkpt lat="48.68538" lon="-3.9611">
        <ele>14.4</ele>
        <time>2025-09-22T15:21:18Z</time>
      </trkpt>
      <trkpt lat="48.68518" lon="-3.96082">
        <ele>14</ele>
        <time>2025-09-22T15:21:26Z</time>
      </trkpt>
      <trkpt lat="48.68514" lon="-3.96074">
        <ele>14.2</ele>
        <time>2025-09-22T15:21:28Z</time>
      </trkpt>
      <trkpt lat="48.68509" lon="-3.96066">
        <ele>14.6</ele>
        <time>2025-09-22T15:21:30Z</time>
      </trkpt>
      <trkpt lat="48.68495" lon="-3.96043">
        <ele>14.6</ele>
        <time>2025-09-22T15:21:36Z</time>
      </trkpt>
      <trkpt lat="48.68474" lon="-3.96011">
        <ele>14.8</ele>
        <time>2025-09-22T15:21:45Z</time>
      </trkpt>
      <trkpt lat="48.68456" lon="-3.95979">
        <ele>14.8</ele>
        <time>2025-09-22T15:21:54Z</time>
      </trkpt>
      <trkpt lat="48.6844" lon="-3.95956">
        <ele>15.4</ele>
        <time>2025-09-22T15:22:01Z</time>
      </trkpt>
      <trkpt lat="48.68439" lon="-3.95952">
        <ele>15</ele>
        <time>2025-09-22T15:22:02Z</time>
      </trkpt>
      <trkpt lat="48.6843" lon="-3.95942">
        <ele>14.4</ele>
        <time>2025-09-22T15:22:06Z</time>
      </trkpt>
      <trkpt lat="48.68427" lon="-3.95943">
        <ele>14.2</ele>
        <time>2025-09-22T15:22:07Z</time>
      </trkpt>
      <trkpt lat="48.68425" lon="-3.95945">
        <ele>14</ele>
        <time>2025-09-22T15:22:08Z</time>
      </trkpt>
      <trkpt lat="48.68421" lon="-3.95948">
        <ele>13.2</ele>
        <time>2025-09-22T15:22:10Z</time>
      </trkpt>
      <trkpt lat="48.68413" lon="-3.95953">
        <ele>12.2</ele>
        <time>2025-09-22T15:22:13Z</time>
      </trkpt>
      <trkpt lat="48.68409" lon="-3.95955">
        <ele>11.8</ele>
        <time>2025-09-22T15:22:15Z</time>
      </trkpt>
      <trkpt lat="48.68395" lon="-3.95951">
        <ele>12.4</ele>
        <time>2025-09-22T15:22:21Z</time>
      </trkpt>
      <trkpt lat="48.68385" lon="-3.95947">
        <ele>11.2</ele>
        <time>2025-09-22T15:22:26Z</time>
      </trkpt>
      <trkpt lat="48.68383" lon="-3.95947">
        <ele>11</ele>
        <time>2025-09-22T15:22:27Z</time>
      </trkpt>
      <trkpt lat="48.68377" lon="-3.95944">
        <ele>13</ele>
        <time>2025-09-22T15:22:31Z</time>
      </trkpt>
      <trkpt lat="48.68373" lon="-3.95942">
        <ele>12.6</ele>
        <time>2025-09-22T15:22:34Z</time>
      </trkpt>
      <trkpt lat="48.68369" lon="-3.9594">
        <ele>11.8</ele>
        <time>2025-09-22T15:22:36Z</time>
      </trkpt>
      <trkpt lat="48.68366" lon="-3.9594">
        <ele>11</ele>
        <time>2025-09-22T15:22:38Z</time>
      </trkpt>
      <trkpt lat="48.68359" lon="-3.95938">
        <ele>10.8</ele>
        <time>2025-09-22T15:22:42Z</time>
      </trkpt>
      <trkpt lat="48.68356" lon="-3.95938">
        <ele>10.8</ele>
        <time>2025-09-22T15:22:44Z</time>
      </trkpt>
      <trkpt lat="48.68344" lon="-3.95934">
        <ele>11</ele>
        <time>2025-09-22T15:22:51Z</time>
      </trkpt>
      <trkpt lat="48.68341" lon="-3.9593">
        <ele>10.8</ele>
        <time>2025-09-22T15:22:54Z</time>
      </trkpt>
      <trkpt lat="48.6834" lon="-3.95927">
        <ele>10.6</ele>
        <time>2025-09-22T15:22:56Z</time>
      </trkpt>
      <trkpt lat="48.68339" lon="-3.95927">
        <ele>10.6</ele>
        <time>2025-09-22T15:22:57Z</time>
      </trkpt>
      <trkpt lat="48.68338" lon="-3.95927">
        <ele>11.2</ele>
        <time>2025-09-22T15:22:59Z</time>
      </trkpt>
      <trkpt lat="48.68338" lon="-3.95924">
        <ele>11.6</ele>
        <time>2025-09-22T15:23:29Z</time>
      </trkpt>
      <trkpt lat="48.68338" lon="-3.95922">
        <ele>11.6</ele>
        <time>2025-09-22T15:23:30Z</time>
      </trkpt>
      <trkpt lat="48.68344" lon="-3.95916">
        <ele>11.2</ele>
        <time>2025-09-22T15:23:35Z</time>
      </trkpt>
      <trkpt lat="48.68347" lon="-3.95915">
        <ele>11.4</ele>
        <time>2025-09-22T15:23:37Z</time>
      </trkpt>
      <trkpt lat="48.68354" lon="-3.95917">
        <ele>11.2</ele>
        <time>2025-09-22T15:23:40Z</time>
      </trkpt>
      <trkpt lat="48.68359" lon="-3.95921">
        <ele>11.8</ele>
        <time>2025-09-22T15:23:44Z</time>
      </trkpt>
      <trkpt lat="48.68362" lon="-3.95921">
        <ele>11.8</ele>
        <time>2025-09-22T15:23:46Z</time>
      </trkpt>
      <trkpt lat="48.68365" lon="-3.9592">
        <ele>11.8</ele>
        <time>2025-09-22T15:23:49Z</time>
      </trkpt>
      <trkpt lat="48.68368" lon="-3.95919">
        <ele>11.4</ele>
        <time>2025-09-22T15:23:51Z</time>
      </trkpt>
      <trkpt lat="48.68368" lon="-3.95917">
        <ele>11</ele>
        <time>2025-09-22T15:23:52Z</time>
      </trkpt>
      <trkpt lat="48.68369" lon="-3.95915">
        <ele>10.8</ele>
        <time>2025-09-22T15:23:53Z</time>
      </trkpt>
      <trkpt lat="48.6837" lon="-3.9591">
        <ele>11</ele>
        <time>2025-09-22T15:23:55Z</time>
      </trkpt>
      <trkpt lat="48.68372" lon="-3.95908">
        <ele>12</ele>
        <time>2025-09-22T15:23:56Z</time>
      </trkpt>
      <trkpt lat="48.68374" lon="-3.95908">
        <ele>12.8</ele>
        <time>2025-09-22T15:23:57Z</time>
      </trkpt>
      <trkpt lat="48.6838" lon="-3.95906">
        <ele>13.2</ele>
        <time>2025-09-22T15:24:00Z</time>
      </trkpt>
      <trkpt lat="48.68384" lon="-3.95907">
        <ele>13.2</ele>
        <time>2025-09-22T15:24:05Z</time>
      </trkpt>
      <trkpt lat="48.68385" lon="-3.95907">
        <ele>13.4</ele>
        <time>2025-09-22T15:24:07Z</time>
      </trkpt>
      <trkpt lat="48.68387" lon="-3.95907">
        <ele>13.4</ele>
        <time>2025-09-22T15:24:10Z</time>
      </trkpt>
      <trkpt lat="48.68388" lon="-3.95907">
        <ele>13.2</ele>
        <time>2025-09-22T15:24:11Z</time>
      </trkpt>
      <trkpt lat="48.68394" lon="-3.9591">
        <ele>13.2</ele>
        <time>2025-09-22T15:24:17Z</time>
      </trkpt>
      <trkpt lat="48.68401" lon="-3.95911">
        <ele>12.8</ele>
        <time>2025-09-22T15:24:20Z</time>
      </trkpt>
      <trkpt lat="48.6841" lon="-3.95914">
        <ele>14</ele>
        <time>2025-09-22T15:24:24Z</time>
      </trkpt>
      <trkpt lat="48.68417" lon="-3.95919">
        <ele>15</ele>
        <time>2025-09-22T15:24:27Z</time>
      </trkpt>
      <trkpt lat="48.68418" lon="-3.95918">
        <ele>15</ele>
        <time>2025-09-22T15:24:30Z</time>
      </trkpt>
      <trkpt lat="48.68419" lon="-3.9592">
        <ele>14.8</ele>
        <time>2025-09-22T15:24:33Z</time>
      </trkpt>
      <trkpt lat="48.6842" lon="-3.95921">
        <ele>14.8</ele>
        <time>2025-09-22T15:24:35Z</time>
      </trkpt>
      <trkpt lat="48.6842" lon="-3.95922">
        <ele>14.8</ele>
        <time>2025-09-22T15:24:37Z</time>
      </trkpt>
      <trkpt lat="48.6842" lon="-3.95922">
        <ele>14.6</ele>
        <time>2025-09-22T15:24:41Z</time>
      </trkpt>
      <trkpt lat="48.68421" lon="-3.95925">
        <ele>14.4</ele>
        <time>2025-09-22T15:24:44Z</time>
      </trkpt>
      <trkpt lat="48.68421" lon="-3.95924">
        <ele>14.2</ele>
        <time>2025-09-22T15:24:45Z</time>
      </trkpt>
      <trkpt lat="48.68422" lon="-3.95927">
        <ele>13.6</ele>
        <time>2025-09-22T15:24:52Z</time>
      </trkpt>
      <trkpt lat="48.68425" lon="-3.95932">
        <ele>13</ele>
        <time>2025-09-22T15:24:54Z</time>
      </trkpt>
      <trkpt lat="48.68437" lon="-3.95949">
        <ele>13</ele>
        <time>2025-09-22T15:25:00Z</time>
      </trkpt>
      <trkpt lat="48.68443" lon="-3.9596">
        <ele>12.4</ele>
        <time>2025-09-22T15:25:03Z</time>
      </trkpt>
      <trkpt lat="48.6845" lon="-3.95972">
        <ele>12.6</ele>
        <time>2025-09-22T15:25:06Z</time>
      </trkpt>
      <trkpt lat="48.68454" lon="-3.95979">
        <ele>12.8</ele>
        <time>2025-09-22T15:25:08Z</time>
      </trkpt>
      <trkpt lat="48.68472" lon="-3.96009">
        <ele>13</ele>
        <time>2025-09-22T15:25:17Z</time>
      </trkpt>
      <trkpt lat="48.6848" lon="-3.96022">
        <ele>13.4</ele>
        <time>2025-09-22T15:25:21Z</time>
      </trkpt>
      <trkpt lat="48.68496" lon="-3.96045">
        <ele>13.8</ele>
        <time>2025-09-22T15:25:28Z</time>
      </trkpt>
      <trkpt lat="48.68505" lon="-3.96059">
        <ele>13.4</ele>
        <time>2025-09-22T15:25:32Z</time>
      </trkpt>
      <trkpt lat="48.6851" lon="-3.96066">
        <ele>13.6</ele>
        <time>2025-09-22T15:25:34Z</time>
      </trkpt>
      <trkpt lat="48.68517" lon="-3.96077">
        <ele>13.8</ele>
        <time>2025-09-22T15:25:37Z</time>
      </trkpt>
      <trkpt lat="48.68524" lon="-3.96087">
        <ele>13.8</ele>
        <time>2025-09-22T15:25:40Z</time>
      </trkpt>
      <trkpt lat="48.68539" lon="-3.96111">
        <ele>13.6</ele>
        <time>2025-09-22T15:25:48Z</time>
      </trkpt>
      <trkpt lat="48.68542" lon="-3.96118">
        <ele>14.4</ele>
        <time>2025-09-22T15:25:50Z</time>
      </trkpt>
      <trkpt lat="48.68555" lon="-3.96136">
        <ele>14.2</ele>
        <time>2025-09-22T15:25:56Z</time>
      </trkpt>
      <trkpt lat="48.68559" lon="-3.96142">
        <ele>14.2</ele>
        <time>2025-09-22T15:25:58Z</time>
      </trkpt>
      <trkpt lat="48.68568" lon="-3.96156">
        <ele>13.4</ele>
        <time>2025-09-22T15:26:03Z</time>
      </trkpt>
      <trkpt lat="48.68578" lon="-3.96167">
        <ele>13.4</ele>
        <time>2025-09-22T15:26:08Z</time>
      </trkpt>
      <trkpt lat="48.68586" lon="-3.9617">
        <ele>12.2</ele>
        <time>2025-09-22T15:26:11Z</time>
      </trkpt>
      <trkpt lat="48.68602" lon="-3.96177">
        <ele>11.6</ele>
        <time>2025-09-22T15:26:17Z</time>
      </trkpt>
      <trkpt lat="48.6862" lon="-3.96183">
        <ele>11.2</ele>
        <time>2025-09-22T15:26:24Z</time>
      </trkpt>
      <trkpt lat="48.68623" lon="-3.96182">
        <ele>10.8</ele>
        <time>2025-09-22T15:26:25Z</time>
      </trkpt>
      <trkpt lat="48.6864" lon="-3.96175">
        <ele>10.8</ele>
        <time>2025-09-22T15:26:31Z</time>
      </trkpt>
      <trkpt lat="48.68645" lon="-3.96173">
        <ele>10.8</ele>
        <time>2025-09-22T15:26:33Z</time>
      </trkpt>
      <trkpt lat="48.68664" lon="-3.96163">
        <ele>10.2</ele>
        <time>2025-09-22T15:26:41Z</time>
      </trkpt>
      <trkpt lat="48.68668" lon="-3.96158">
        <ele>10.2</ele>
        <time>2025-09-22T15:26:43Z</time>
      </trkpt>
      <trkpt lat="48.68686" lon="-3.96136">
        <ele>10.2</ele>
        <time>2025-09-22T15:26:52Z</time>
      </trkpt>
      <trkpt lat="48.68703" lon="-3.96114">
        <ele>10.2</ele>
        <time>2025-09-22T15:27:01Z</time>
      </trkpt>
      <trkpt lat="48.68712" lon="-3.96104">
        <ele>10.2</ele>
        <time>2025-09-22T15:27:05Z</time>
      </trkpt>
      <trkpt lat="48.68718" lon="-3.96097">
        <ele>10.4</ele>
        <time>2025-09-22T15:27:08Z</time>
      </trkpt>
      <trkpt lat="48.68723" lon="-3.96092">
        <ele>10.2</ele>
        <time>2025-09-22T15:27:10Z</time>
      </trkpt>
      <trkpt lat="48.68743" lon="-3.96078">
        <ele>10.6</ele>
        <time>2025-09-22T15:27:19Z</time>
      </trkpt>
      <trkpt lat="48.68763" lon="-3.96081">
        <ele>10.4</ele>
        <time>2025-09-22T15:27:26Z</time>
      </trkpt>
      <trkpt lat="48.68783" lon="-3.961">
        <ele>10.2</ele>
        <time>2025-09-22T15:27:34Z</time>
      </trkpt>
      <trkpt lat="48.68798" lon="-3.96116">
        <ele>10.6</ele>
        <time>2025-09-22T15:27:41Z</time>
      </trkpt>
      <trkpt lat="48.68811" lon="-3.96119">
        <ele>10.4</ele>
        <time>2025-09-22T15:27:48Z</time>
      </trkpt>
      <trkpt lat="48.68813" lon="-3.9612">
        <ele>10.8</ele>
        <time>2025-09-22T15:27:51Z</time>
      </trkpt>
      <trkpt lat="48.68813" lon="-3.9612">
        <ele>10.8</ele>
        <time>2025-09-22T15:27:53Z</time>
      </trkpt>
      <trkpt lat="48.68813" lon="-3.96125">
        <ele>10.8</ele>
        <time>2025-09-22T15:30:22Z</time>
      </trkpt>
      <trkpt lat="48.68811" lon="-3.9613">
        <ele>10.8</ele>
        <time>2025-09-22T15:30:25Z</time>
      </trkpt>
      <trkpt lat="48.68808" lon="-3.96143">
        <ele>11.2</ele>
        <time>2025-09-22T15:30:30Z</time>
      </trkpt>
      <trkpt lat="48.68807" lon="-3.96147">
        <ele>11.4</ele>
        <time>2025-09-22T15:30:31Z</time>
      </trkpt>
      <trkpt lat="48.68807" lon="-3.9616">
        <ele>12.2</ele>
        <time>2025-09-22T15:30:34Z</time>
      </trkpt>
      <trkpt lat="48.68809" lon="-3.96175">
        <ele>13.4</ele>
        <time>2025-09-22T15:30:37Z</time>
      </trkpt>
      <trkpt lat="48.68812" lon="-3.96189">
        <ele>14.6</ele>
        <time>2025-09-22T15:30:40Z</time>
      </trkpt>
      <trkpt lat="48.68815" lon="-3.96198">
        <ele>14.8</ele>
        <time>2025-09-22T15:30:42Z</time>
      </trkpt>
      <trkpt lat="48.68816" lon="-3.96202">
        <ele>14.6</ele>
        <time>2025-09-22T15:30:43Z</time>
      </trkpt>
      <trkpt lat="48.68817" lon="-3.96206">
        <ele>14.2</ele>
        <time>2025-09-22T15:30:44Z</time>
      </trkpt>
      <trkpt lat="48.68818" lon="-3.96211">
        <ele>14</ele>
        <time>2025-09-22T15:30:45Z</time>
      </trkpt>
      <trkpt lat="48.6882" lon="-3.96219">
        <ele>13.4</ele>
        <time>2025-09-22T15:30:47Z</time>
      </trkpt>
      <trkpt lat="48.68827" lon="-3.96244">
        <ele>13.4</ele>
        <time>2025-09-22T15:30:53Z</time>
      </trkpt>
      <trkpt lat="48.68839" lon="-3.96295">
        <ele>14.4</ele>
        <time>2025-09-22T15:31:03Z</time>
      </trkpt>
      <trkpt lat="48.68844" lon="-3.96315">
        <ele>14</ele>
        <time>2025-09-22T15:31:07Z</time>
      </trkpt>
      <trkpt lat="48.68852" lon="-3.96346">
        <ele>14.4</ele>
        <time>2025-09-22T15:31:13Z</time>
      </trkpt>
      <trkpt lat="48.68853" lon="-3.96352">
        <ele>14.4</ele>
        <time>2025-09-22T15:31:14Z</time>
      </trkpt>
      <trkpt lat="48.68861" lon="-3.96383">
        <ele>15</ele>
        <time>2025-09-22T15:31:21Z</time>
      </trkpt>
      <trkpt lat="48.68868" lon="-3.96402">
        <ele>14.8</ele>
        <time>2025-09-22T15:31:27Z</time>
      </trkpt>
      <trkpt lat="48.68874" lon="-3.96417">
        <ele>15.2</ele>
        <time>2025-09-22T15:31:32Z</time>
      </trkpt>
      <trkpt lat="48.68876" lon="-3.96424">
        <ele>15.2</ele>
        <time>2025-09-22T15:31:34Z</time>
      </trkpt>
      <trkpt lat="48.68878" lon="-3.96427">
        <ele>15.6</ele>
        <time>2025-09-22T15:31:35Z</time>
      </trkpt>
      <trkpt lat="48.68886" lon="-3.96446">
        <ele>15.4</ele>
        <time>2025-09-22T15:31:41Z</time>
      </trkpt>
      <trkpt lat="48.6889" lon="-3.96455">
        <ele>14.8</ele>
        <time>2025-09-22T15:31:44Z</time>
      </trkpt>
      <trkpt lat="48.68893" lon="-3.96461">
        <ele>14.2</ele>
        <time>2025-09-22T15:31:46Z</time>
      </trkpt>
      <trkpt lat="48.68903" lon="-3.96482">
        <ele>13.4</ele>
        <time>2025-09-22T15:31:52Z</time>
      </trkpt>
      <trkpt lat="48.68911" lon="-3.965">
        <ele>13.2</ele>
        <time>2025-09-22T15:31:57Z</time>
      </trkpt>
      <trkpt lat="48.68923" lon="-3.96525">
        <ele>13.2</ele>
        <time>2025-09-22T15:32:04Z</time>
      </trkpt>
      <trkpt lat="48.68932" lon="-3.96546">
        <ele>14.6</ele>
        <time>2025-09-22T15:32:10Z</time>
      </trkpt>
      <trkpt lat="48.68934" lon="-3.96549">
        <ele>14.8</ele>
        <time>2025-09-22T15:32:11Z</time>
      </trkpt>
      <trkpt lat="48.68938" lon="-3.9656">
        <ele>14.2</ele>
        <time>2025-09-22T15:32:14Z</time>
      </trkpt>
      <trkpt lat="48.68941" lon="-3.96567">
        <ele>13.6</ele>
        <time>2025-09-22T15:32:16Z</time>
      </trkpt>
      <trkpt lat="48.6895" lon="-3.9659">
        <ele>13</ele>
        <time>2025-09-22T15:32:22Z</time>
      </trkpt>
      <trkpt lat="48.68956" lon="-3.966">
        <ele>12.4</ele>
        <time>2025-09-22T15:32:25Z</time>
      </trkpt>
      <trkpt lat="48.68969" lon="-3.96618">
        <ele>13</ele>
        <time>2025-09-22T15:32:31Z</time>
      </trkpt>
      <trkpt lat="48.68977" lon="-3.96629">
        <ele>13.6</ele>
        <time>2025-09-22T15:32:35Z</time>
      </trkpt>
      <trkpt lat="48.68982" lon="-3.96636">
        <ele>12.2</ele>
        <time>2025-09-22T15:32:37Z</time>
      </trkpt>
      <trkpt lat="48.68989" lon="-3.96645">
        <ele>12.2</ele>
        <time>2025-09-22T15:32:40Z</time>
      </trkpt>
      <trkpt lat="48.69013" lon="-3.96674">
        <ele>13</ele>
        <time>2025-09-22T15:32:50Z</time>
      </trkpt>
      <trkpt lat="48.69021" lon="-3.96687">
        <ele>11.2</ele>
        <time>2025-09-22T15:32:54Z</time>
      </trkpt>
      <trkpt lat="48.69024" lon="-3.967">
        <ele>10.6</ele>
        <time>2025-09-22T15:32:57Z</time>
      </trkpt>
      <trkpt lat="48.69025" lon="-3.9671">
        <ele>10</ele>
        <time>2025-09-22T15:32:59Z</time>
      </trkpt>
      <trkpt lat="48.69028" lon="-3.96739">
        <ele>9.4</ele>
        <time>2025-09-22T15:33:05Z</time>
      </trkpt>
      <trkpt lat="48.69029" lon="-3.96761">
        <ele>9.2</ele>
        <time>2025-09-22T15:33:10Z</time>
      </trkpt>
      <trkpt lat="48.69031" lon="-3.96773">
        <ele>9.6</ele>
        <time>2025-09-22T15:33:13Z</time>
      </trkpt>
      <trkpt lat="48.69034" lon="-3.9679">
        <ele>9.6</ele>
        <time>2025-09-22T15:33:19Z</time>
      </trkpt>
      <trkpt lat="48.69035" lon="-3.96791">
        <ele>9.4</ele>
        <time>2025-09-22T15:33:22Z</time>
      </trkpt>
      <trkpt lat="48.69036" lon="-3.96795">
        <ele>9.4</ele>
        <time>2025-09-22T15:33:29Z</time>
      </trkpt>
      <trkpt lat="48.69037" lon="-3.96795">
        <ele>9.4</ele>
        <time>2025-09-22T15:33:30Z</time>
      </trkpt>
      <trkpt lat="48.69043" lon="-3.96792">
        <ele>9.6</ele>
        <time>2025-09-22T15:33:33Z</time>
      </trkpt>
      <trkpt lat="48.6905" lon="-3.96786">
        <ele>9.8</ele>
        <time>2025-09-22T15:33:36Z</time>
      </trkpt>
      <trkpt lat="48.69062" lon="-3.96777">
        <ele>9.8</ele>
        <time>2025-09-22T15:33:41Z</time>
      </trkpt>
      <trkpt lat="48.69076" lon="-3.9678">
        <ele>9.6</ele>
        <time>2025-09-22T15:33:46Z</time>
      </trkpt>
      <trkpt lat="48.69087" lon="-3.96799">
        <ele>9.6</ele>
        <time>2025-09-22T15:33:52Z</time>
      </trkpt>
      <trkpt lat="48.69104" lon="-3.96821">
        <ele>9.6</ele>
        <time>2025-09-22T15:33:59Z</time>
      </trkpt>
      <trkpt lat="48.69122" lon="-3.96823">
        <ele>9.4</ele>
        <time>2025-09-22T15:34:04Z</time>
      </trkpt>
      <trkpt lat="48.69147" lon="-3.96807">
        <ele>10.2</ele>
        <time>2025-09-22T15:34:12Z</time>
      </trkpt>
      <trkpt lat="48.69169" lon="-3.96797">
        <ele>10.6</ele>
        <time>2025-09-22T15:34:19Z</time>
      </trkpt>
      <trkpt lat="48.69177" lon="-3.96792">
        <ele>11</ele>
        <time>2025-09-22T15:34:22Z</time>
      </trkpt>
      <trkpt lat="48.69191" lon="-3.96782">
        <ele>11.2</ele>
        <time>2025-09-22T15:34:27Z</time>
      </trkpt>
      <trkpt lat="48.69205" lon="-3.96773">
        <ele>12.2</ele>
        <time>2025-09-22T15:34:32Z</time>
      </trkpt>
      <trkpt lat="48.69216" lon="-3.96767">
        <ele>12.4</ele>
        <time>2025-09-22T15:34:36Z</time>
      </trkpt>
      <trkpt lat="48.69233" lon="-3.9676">
        <ele>13.2</ele>
        <time>2025-09-22T15:34:42Z</time>
      </trkpt>
      <trkpt lat="48.69239" lon="-3.96757">
        <ele>13.4</ele>
        <time>2025-09-22T15:34:44Z</time>
      </trkpt>
      <trkpt lat="48.69264" lon="-3.96748">
        <ele>14.2</ele>
        <time>2025-09-22T15:34:53Z</time>
      </trkpt>
      <trkpt lat="48.69267" lon="-3.96748">
        <ele>14.2</ele>
        <time>2025-09-22T15:34:54Z</time>
      </trkpt>
      <trkpt lat="48.69292" lon="-3.96751">
        <ele>13.6</ele>
        <time>2025-09-22T15:35:01Z</time>
      </trkpt>
      <trkpt lat="48.69295" lon="-3.96752">
        <ele>13.2</ele>
        <time>2025-09-22T15:35:02Z</time>
      </trkpt>
      <trkpt lat="48.693" lon="-3.96755">
        <ele>12</ele>
        <time>2025-09-22T15:35:04Z</time>
      </trkpt>
      <trkpt lat="48.69308" lon="-3.96765">
        <ele>11.6</ele>
        <time>2025-09-22T15:35:07Z</time>
      </trkpt>
      <trkpt lat="48.69316" lon="-3.96789">
        <ele>11.2</ele>
        <time>2025-09-22T15:35:12Z</time>
      </trkpt>
      <trkpt lat="48.69326" lon="-3.96821">
        <ele>12.2</ele>
        <time>2025-09-22T15:35:20Z</time>
      </trkpt>
      <trkpt lat="48.69337" lon="-3.96851">
        <ele>12.8</ele>
        <time>2025-09-22T15:35:28Z</time>
      </trkpt>
      <trkpt lat="48.69342" lon="-3.96863">
        <ele>13</ele>
        <time>2025-09-22T15:35:31Z</time>
      </trkpt>
      <trkpt lat="48.69344" lon="-3.96868">
        <ele>13.2</ele>
        <time>2025-09-22T15:35:32Z</time>
      </trkpt>
      <trkpt lat="48.69354" lon="-3.96897">
        <ele>12.8</ele>
        <time>2025-09-22T15:35:38Z</time>
      </trkpt>
      <trkpt lat="48.69372" lon="-3.96942">
        <ele>12.6</ele>
        <time>2025-09-22T15:35:47Z</time>
      </trkpt>
      <trkpt lat="48.6939" lon="-3.96982">
        <ele>12.4</ele>
        <time>2025-09-22T15:35:56Z</time>
      </trkpt>
      <trkpt lat="48.69406" lon="-3.97012">
        <ele>12.2</ele>
        <time>2025-09-22T15:36:04Z</time>
      </trkpt>
      <trkpt lat="48.69408" lon="-3.97015">
        <ele>12.2</ele>
        <time>2025-09-22T15:36:05Z</time>
      </trkpt>
      <trkpt lat="48.69426" lon="-3.97045">
        <ele>12</ele>
        <time>2025-09-22T15:36:13Z</time>
      </trkpt>
      <trkpt lat="48.69446" lon="-3.97074">
        <ele>11</ele>
        <time>2025-09-22T15:36:21Z</time>
      </trkpt>
      <trkpt lat="48.69451" lon="-3.97081">
        <ele>11</ele>
        <time>2025-09-22T15:36:23Z</time>
      </trkpt>
      <trkpt lat="48.69479" lon="-3.97124">
        <ele>10.2</ele>
        <time>2025-09-22T15:36:34Z</time>
      </trkpt>
      <trkpt lat="48.6948" lon="-3.97149">
        <ele>10.4</ele>
        <time>2025-09-22T15:36:39Z</time>
      </trkpt>
      <trkpt lat="48.69475" lon="-3.97169">
        <ele>12</ele>
        <time>2025-09-22T15:36:44Z</time>
      </trkpt>
      <trkpt lat="48.69473" lon="-3.97176">
        <ele>13</ele>
        <time>2025-09-22T15:36:46Z</time>
      </trkpt>
      <trkpt lat="48.69472" lon="-3.9718">
        <ele>13.2</ele>
        <time>2025-09-22T15:36:47Z</time>
      </trkpt>
      <trkpt lat="48.69468" lon="-3.972">
        <ele>13.8</ele>
        <time>2025-09-22T15:36:53Z</time>
      </trkpt>
      <trkpt lat="48.69467" lon="-3.97207">
        <ele>14.2</ele>
        <time>2025-09-22T15:36:55Z</time>
      </trkpt>
      <trkpt lat="48.6946" lon="-3.97233">
        <ele>15.2</ele>
        <time>2025-09-22T15:37:03Z</time>
      </trkpt>
      <trkpt lat="48.69455" lon="-3.97243">
        <ele>16.4</ele>
        <time>2025-09-22T15:37:08Z</time>
      </trkpt>
      <trkpt lat="48.69452" lon="-3.97247">
        <ele>17</ele>
        <time>2025-09-22T15:37:10Z</time>
      </trkpt>
      <trkpt lat="48.6945" lon="-3.9725">
        <ele>17.8</ele>
        <time>2025-09-22T15:37:12Z</time>
      </trkpt>
      <trkpt lat="48.69446" lon="-3.97255">
        <ele>18.4</ele>
        <time>2025-09-22T15:37:15Z</time>
      </trkpt>
      <trkpt lat="48.69444" lon="-3.97257">
        <ele>18.8</ele>
        <time>2025-09-22T15:37:17Z</time>
      </trkpt>
      <trkpt lat="48.69443" lon="-3.97259">
        <ele>19</ele>
        <time>2025-09-22T15:37:18Z</time>
      </trkpt>
      <trkpt lat="48.69437" lon="-3.97264">
        <ele>19.8</ele>
        <time>2025-09-22T15:37:22Z</time>
      </trkpt>
      <trkpt lat="48.69432" lon="-3.97271">
        <ele>20</ele>
        <time>2025-09-22T15:37:26Z</time>
      </trkpt>
      <trkpt lat="48.69424" lon="-3.97282">
        <ele>21</ele>
        <time>2025-09-22T15:37:32Z</time>
      </trkpt>
      <trkpt lat="48.6942" lon="-3.97286">
        <ele>21.4</ele>
        <time>2025-09-22T15:37:35Z</time>
      </trkpt>
      <trkpt lat="48.69416" lon="-3.97291">
        <ele>22</ele>
        <time>2025-09-22T15:37:38Z</time>
      </trkpt>
      <trkpt lat="48.69408" lon="-3.97299">
        <ele>22.6</ele>
        <time>2025-09-22T15:37:44Z</time>
      </trkpt>
      <trkpt lat="48.69402" lon="-3.97307">
        <ele>23.2</ele>
        <time>2025-09-22T15:37:49Z</time>
      </trkpt>
      <trkpt lat="48.69397" lon="-3.97313">
        <ele>23.6</ele>
        <time>2025-09-22T15:37:53Z</time>
      </trkpt>
      <trkpt lat="48.69392" lon="-3.97319">
        <ele>24.2</ele>
        <time>2025-09-22T15:37:57Z</time>
      </trkpt>
      <trkpt lat="48.69387" lon="-3.97325">
        <ele>24.4</ele>
        <time>2025-09-22T15:38:01Z</time>
      </trkpt>
      <trkpt lat="48.69383" lon="-3.97328">
        <ele>25</ele>
        <time>2025-09-22T15:38:04Z</time>
      </trkpt>
      <trkpt lat="48.69377" lon="-3.97336">
        <ele>25.2</ele>
        <time>2025-09-22T15:38:09Z</time>
      </trkpt>
      <trkpt lat="48.69375" lon="-3.97339">
        <ele>25.4</ele>
        <time>2025-09-22T15:38:11Z</time>
      </trkpt>
      <trkpt lat="48.69371" lon="-3.97343">
        <ele>26.2</ele>
        <time>2025-09-22T15:38:14Z</time>
      </trkpt>
      <trkpt lat="48.6937" lon="-3.97345">
        <ele>26.4</ele>
        <time>2025-09-22T15:38:15Z</time>
      </trkpt>
      <trkpt lat="48.69367" lon="-3.97347">
        <ele>26.8</ele>
        <time>2025-09-22T15:38:17Z</time>
      </trkpt>
      <trkpt lat="48.69358" lon="-3.97356">
        <ele>27.2</ele>
        <time>2025-09-22T15:38:24Z</time>
      </trkpt>
      <trkpt lat="48.69357" lon="-3.97358">
        <ele>27.4</ele>
        <time>2025-09-22T15:38:25Z</time>
      </trkpt>
      <trkpt lat="48.69348" lon="-3.9737">
        <ele>28.4</ele>
        <time>2025-09-22T15:38:33Z</time>
      </trkpt>
      <trkpt lat="48.69343" lon="-3.9738">
        <ele>29.4</ele>
        <time>2025-09-22T15:38:39Z</time>
      </trkpt>
      <trkpt lat="48.69342" lon="-3.97382">
        <ele>29.6</ele>
        <time>2025-09-22T15:38:40Z</time>
      </trkpt>
      <trkpt lat="48.69338" lon="-3.97391">
        <ele>30.6</ele>
        <time>2025-09-22T15:38:46Z</time>
      </trkpt>
      <trkpt lat="48.69337" lon="-3.97393">
        <ele>30.8</ele>
        <time>2025-09-22T15:38:47Z</time>
      </trkpt>
      <trkpt lat="48.69334" lon="-3.97399">
        <ele>31.6</ele>
        <time>2025-09-22T15:38:51Z</time>
      </trkpt>
      <trkpt lat="48.69333" lon="-3.97404">
        <ele>32</ele>
        <time>2025-09-22T15:38:54Z</time>
      </trkpt>
      <trkpt lat="48.6933" lon="-3.97414">
        <ele>32.8</ele>
        <time>2025-09-22T15:38:59Z</time>
      </trkpt>
      <trkpt lat="48.69329" lon="-3.97423">
        <ele>33.2</ele>
        <time>2025-09-22T15:39:03Z</time>
      </trkpt>
      <trkpt lat="48.69326" lon="-3.97432">
        <ele>33.8</ele>
        <time>2025-09-22T15:39:08Z</time>
      </trkpt>
      <trkpt lat="48.69326" lon="-3.97437">
        <ele>34</ele>
        <time>2025-09-22T15:39:10Z</time>
      </trkpt>
      <trkpt lat="48.69329" lon="-3.97453">
        <ele>34.8</ele>
        <time>2025-09-22T15:39:17Z</time>
      </trkpt>
      <trkpt lat="48.69329" lon="-3.97457">
        <ele>35</ele>
        <time>2025-09-22T15:39:19Z</time>
      </trkpt>
      <trkpt lat="48.69333" lon="-3.97474">
        <ele>35.8</ele>
        <time>2025-09-22T15:39:27Z</time>
      </trkpt>
      <trkpt lat="48.69335" lon="-3.9749">
        <ele>36.6</ele>
        <time>2025-09-22T15:39:34Z</time>
      </trkpt>
      <trkpt lat="48.69335" lon="-3.97492">
        <ele>36.8</ele>
        <time>2025-09-22T15:39:35Z</time>
      </trkpt>
      <trkpt lat="48.69335" lon="-3.97495">
        <ele>37</ele>
        <time>2025-09-22T15:39:36Z</time>
      </trkpt>
      <trkpt lat="48.69333" lon="-3.97508">
        <ele>37.6</ele>
        <time>2025-09-22T15:39:41Z</time>
      </trkpt>
      <trkpt lat="48.69324" lon="-3.97526">
        <ele>37.4</ele>
        <time>2025-09-22T15:39:48Z</time>
      </trkpt>
      <trkpt lat="48.69314" lon="-3.97536">
        <ele>37.2</ele>
        <time>2025-09-22T15:39:54Z</time>
      </trkpt>
      <trkpt lat="48.69306" lon="-3.97545">
        <ele>37.6</ele>
        <time>2025-09-22T15:40:00Z</time>
      </trkpt>
      <trkpt lat="48.69297" lon="-3.97553">
        <ele>37.8</ele>
        <time>2025-09-22T15:40:06Z</time>
      </trkpt>
      <trkpt lat="48.69295" lon="-3.97556">
        <ele>37.6</ele>
        <time>2025-09-22T15:40:08Z</time>
      </trkpt>
      <trkpt lat="48.69291" lon="-3.97559">
        <ele>37.6</ele>
        <time>2025-09-22T15:40:10Z</time>
      </trkpt>
      <trkpt lat="48.69288" lon="-3.97563">
        <ele>37.6</ele>
        <time>2025-09-22T15:40:12Z</time>
      </trkpt>
      <trkpt lat="48.6928" lon="-3.97574">
        <ele>37.6</ele>
        <time>2025-09-22T15:40:17Z</time>
      </trkpt>
      <trkpt lat="48.69269" lon="-3.97586">
        <ele>37.6</ele>
        <time>2025-09-22T15:40:23Z</time>
      </trkpt>
      <trkpt lat="48.69258" lon="-3.976">
        <ele>37.8</ele>
        <time>2025-09-22T15:40:30Z</time>
      </trkpt>
      <trkpt lat="48.69252" lon="-3.97612">
        <ele>38</ele>
        <time>2025-09-22T15:40:35Z</time>
      </trkpt>
      <trkpt lat="48.69248" lon="-3.97618">
        <ele>38.2</ele>
        <time>2025-09-22T15:40:38Z</time>
      </trkpt>
      <trkpt lat="48.69238" lon="-3.97636">
        <ele>38.6</ele>
        <time>2025-09-22T15:40:45Z</time>
      </trkpt>
      <trkpt lat="48.69236" lon="-3.97641">
        <ele>38.8</ele>
        <time>2025-09-22T15:40:47Z</time>
      </trkpt>
      <trkpt lat="48.69233" lon="-3.97646">
        <ele>39</ele>
        <time>2025-09-22T15:40:49Z</time>
      </trkpt>
      <trkpt lat="48.69226" lon="-3.97665">
        <ele>40</ele>
        <time>2025-09-22T15:40:56Z</time>
      </trkpt>
      <trkpt lat="48.69217" lon="-3.97695">
        <ele>40</ele>
        <time>2025-09-22T15:41:05Z</time>
      </trkpt>
      <trkpt lat="48.69214" lon="-3.97712">
        <ele>39.8</ele>
        <time>2025-09-22T15:41:11Z</time>
      </trkpt>
      <trkpt lat="48.6921" lon="-3.97716">
        <ele>39.6</ele>
        <time>2025-09-22T15:41:13Z</time>
      </trkpt>
      <trkpt lat="48.69199" lon="-3.97718">
        <ele>38.6</ele>
        <time>2025-09-22T15:41:17Z</time>
      </trkpt>
      <trkpt lat="48.69192" lon="-3.97722">
        <ele>38</ele>
        <time>2025-09-22T15:41:19Z</time>
      </trkpt>
      <trkpt lat="48.69184" lon="-3.97731">
        <ele>37.4</ele>
        <time>2025-09-22T15:41:21Z</time>
      </trkpt>
      <trkpt lat="48.69178" lon="-3.97742">
        <ele>37.2</ele>
        <time>2025-09-22T15:41:23Z</time>
      </trkpt>
      <trkpt lat="48.69171" lon="-3.97757">
        <ele>37.6</ele>
        <time>2025-09-22T15:41:26Z</time>
      </trkpt>
      <trkpt lat="48.69161" lon="-3.9777">
        <ele>38.2</ele>
        <time>2025-09-22T15:41:31Z</time>
      </trkpt>
      <trkpt lat="48.69149" lon="-3.97776">
        <ele>39</ele>
        <time>2025-09-22T15:41:37Z</time>
      </trkpt>
      <trkpt lat="48.69144" lon="-3.97777">
        <ele>39.2</ele>
        <time>2025-09-22T15:41:39Z</time>
      </trkpt>
      <trkpt lat="48.69131" lon="-3.9778">
        <ele>40</ele>
        <time>2025-09-22T15:41:45Z</time>
      </trkpt>
      <trkpt lat="48.69125" lon="-3.97782">
        <ele>40.6</ele>
        <time>2025-09-22T15:41:48Z</time>
      </trkpt>
      <trkpt lat="48.69117" lon="-3.97789">
        <ele>41</ele>
        <time>2025-09-22T15:41:52Z</time>
      </trkpt>
      <trkpt lat="48.69114" lon="-3.97793">
        <ele>41</ele>
        <time>2025-09-22T15:41:54Z</time>
      </trkpt>
      <trkpt lat="48.69113" lon="-3.97795">
        <ele>41</ele>
        <time>2025-09-22T15:41:55Z</time>
      </trkpt>
      <trkpt lat="48.69102" lon="-3.97808">
        <ele>41.8</ele>
        <time>2025-09-22T15:42:02Z</time>
      </trkpt>
      <trkpt lat="48.69099" lon="-3.97812">
        <ele>42.2</ele>
        <time>2025-09-22T15:42:04Z</time>
      </trkpt>
      <trkpt lat="48.69091" lon="-3.97826">
        <ele>42.8</ele>
        <time>2025-09-22T15:42:10Z</time>
      </trkpt>
      <trkpt lat="48.69087" lon="-3.97831">
        <ele>43.4</ele>
        <time>2025-09-22T15:42:13Z</time>
      </trkpt>
      <trkpt lat="48.69081" lon="-3.97839">
        <ele>44</ele>
        <time>2025-09-22T15:42:18Z</time>
      </trkpt>
      <trkpt lat="48.69078" lon="-3.97843">
        <ele>44.6</ele>
        <time>2025-09-22T15:42:20Z</time>
      </trkpt>
      <trkpt lat="48.69068" lon="-3.97858">
        <ele>45.4</ele>
        <time>2025-09-22T15:42:27Z</time>
      </trkpt>
      <trkpt lat="48.69066" lon="-3.9786">
        <ele>45.6</ele>
        <time>2025-09-22T15:42:28Z</time>
      </trkpt>
      <trkpt lat="48.6906" lon="-3.97864">
        <ele>46.8</ele>
        <time>2025-09-22T15:42:32Z</time>
      </trkpt>
      <trkpt lat="48.69057" lon="-3.97866">
        <ele>47.2</ele>
        <time>2025-09-22T15:42:34Z</time>
      </trkpt>
      <trkpt lat="48.69046" lon="-3.9787">
        <ele>47.8</ele>
        <time>2025-09-22T15:42:40Z</time>
      </trkpt>
      <trkpt lat="48.69042" lon="-3.97871">
        <ele>48.2</ele>
        <time>2025-09-22T15:42:42Z</time>
      </trkpt>
      <trkpt lat="48.69031" lon="-3.97879">
        <ele>48.6</ele>
        <time>2025-09-22T15:42:49Z</time>
      </trkpt>
      <trkpt lat="48.69017" lon="-3.97889">
        <ele>48.8</ele>
        <time>2025-09-22T15:42:58Z</time>
      </trkpt>
      <trkpt lat="48.69015" lon="-3.9789">
        <ele>48.8</ele>
        <time>2025-09-22T15:42:59Z</time>
      </trkpt>
      <trkpt lat="48.69009" lon="-3.97897">
        <ele>49.2</ele>
        <time>2025-09-22T15:43:05Z</time>
      </trkpt>
      <trkpt lat="48.69002" lon="-3.97904">
        <ele>49.6</ele>
        <time>2025-09-22T15:43:11Z</time>
      </trkpt>
      <trkpt lat="48.68994" lon="-3.97913">
        <ele>49.8</ele>
        <time>2025-09-22T15:43:16Z</time>
      </trkpt>
      <trkpt lat="48.68985" lon="-3.97923">
        <ele>50.2</ele>
        <time>2025-09-22T15:43:21Z</time>
      </trkpt>
      <trkpt lat="48.6897" lon="-3.97945">
        <ele>51</ele>
        <time>2025-09-22T15:43:31Z</time>
      </trkpt>
      <trkpt lat="48.68966" lon="-3.97953">
        <ele>51.6</ele>
        <time>2025-09-22T15:43:34Z</time>
      </trkpt>
      <trkpt lat="48.68956" lon="-3.97969">
        <ele>52</ele>
        <time>2025-09-22T15:43:41Z</time>
      </trkpt>
      <trkpt lat="48.68951" lon="-3.97977">
        <ele>52.2</ele>
        <time>2025-09-22T15:43:44Z</time>
      </trkpt>
      <trkpt lat="48.68936" lon="-3.97997">
        <ele>52.4</ele>
        <time>2025-09-22T15:43:52Z</time>
      </trkpt>
      <trkpt lat="48.68915" lon="-3.98027">
        <ele>51.6</ele>
        <time>2025-09-22T15:44:00Z</time>
      </trkpt>
      <trkpt lat="48.6891" lon="-3.98036">
        <ele>51.4</ele>
        <time>2025-09-22T15:44:02Z</time>
      </trkpt>
      <trkpt lat="48.68899" lon="-3.98049">
        <ele>51.2</ele>
        <time>2025-09-22T15:44:05Z</time>
      </trkpt>
      <trkpt lat="48.68892" lon="-3.98059">
        <ele>51</ele>
        <time>2025-09-22T15:44:07Z</time>
      </trkpt>
      <trkpt lat="48.6888" lon="-3.98075">
        <ele>50.6</ele>
        <time>2025-09-22T15:44:10Z</time>
      </trkpt>
      <trkpt lat="48.68863" lon="-3.98098">
        <ele>50</ele>
        <time>2025-09-22T15:44:14Z</time>
      </trkpt>
      <trkpt lat="48.68849" lon="-3.98118">
        <ele>49.6</ele>
        <time>2025-09-22T15:44:17Z</time>
      </trkpt>
      <trkpt lat="48.68832" lon="-3.98156">
        <ele>49.2</ele>
        <time>2025-09-22T15:44:22Z</time>
      </trkpt>
      <trkpt lat="48.68826" lon="-3.98177">
        <ele>49.4</ele>
        <time>2025-09-22T15:44:25Z</time>
      </trkpt>
      <trkpt lat="48.68822" lon="-3.9818">
        <ele>49.4</ele>
        <time>2025-09-22T15:44:26Z</time>
      </trkpt>
      <trkpt lat="48.6881" lon="-3.98189">
        <ele>49.2</ele>
        <time>2025-09-22T15:44:29Z</time>
      </trkpt>
      <trkpt lat="48.68803" lon="-3.98198">
        <ele>49</ele>
        <time>2025-09-22T15:44:31Z</time>
      </trkpt>
      <trkpt lat="48.68785" lon="-3.98227">
        <ele>50</ele>
        <time>2025-09-22T15:44:38Z</time>
      </trkpt>
      <trkpt lat="48.68761" lon="-3.98257">
        <ele>50.4</ele>
        <time>2025-09-22T15:44:48Z</time>
      </trkpt>
      <trkpt lat="48.6875" lon="-3.98264">
        <ele>50.2</ele>
        <time>2025-09-22T15:44:52Z</time>
      </trkpt>
      <trkpt lat="48.68739" lon="-3.98272">
        <ele>50</ele>
        <time>2025-09-22T15:44:55Z</time>
      </trkpt>
      <trkpt lat="48.68736" lon="-3.98276">
        <ele>49.8</ele>
        <time>2025-09-22T15:44:56Z</time>
      </trkpt>
      <trkpt lat="48.68733" lon="-3.98287">
        <ele>49.8</ele>
        <time>2025-09-22T15:44:58Z</time>
      </trkpt>
      <trkpt lat="48.68732" lon="-3.98293">
        <ele>49.6</ele>
        <time>2025-09-22T15:44:59Z</time>
      </trkpt>
      <trkpt lat="48.6873" lon="-3.98324">
        <ele>49.6</ele>
        <time>2025-09-22T15:45:05Z</time>
      </trkpt>
      <trkpt lat="48.68728" lon="-3.98328">
        <ele>49.4</ele>
        <time>2025-09-22T15:45:06Z</time>
      </trkpt>
      <trkpt lat="48.68722" lon="-3.98334">
        <ele>49</ele>
        <time>2025-09-22T15:45:08Z</time>
      </trkpt>
      <trkpt lat="48.68714" lon="-3.98338">
        <ele>48.8</ele>
        <time>2025-09-22T15:45:10Z</time>
      </trkpt>
      <trkpt lat="48.68697" lon="-3.98342">
        <ele>48</ele>
        <time>2025-09-22T15:45:14Z</time>
      </trkpt>
      <trkpt lat="48.68683" lon="-3.98345">
        <ele>47.8</ele>
        <time>2025-09-22T15:45:17Z</time>
      </trkpt>
      <trkpt lat="48.68668" lon="-3.98347">
        <ele>47.6</ele>
        <time>2025-09-22T15:45:20Z</time>
      </trkpt>
      <trkpt lat="48.6865" lon="-3.98352">
        <ele>47.4</ele>
        <time>2025-09-22T15:45:24Z</time>
      </trkpt>
      <trkpt lat="48.68642" lon="-3.98357">
        <ele>47.4</ele>
        <time>2025-09-22T15:45:26Z</time>
      </trkpt>
      <trkpt lat="48.68612" lon="-3.98381">
        <ele>47.2</ele>
        <time>2025-09-22T15:45:33Z</time>
      </trkpt>
      <trkpt lat="48.68586" lon="-3.984">
        <ele>46.8</ele>
        <time>2025-09-22T15:45:39Z</time>
      </trkpt>
      <trkpt lat="48.68576" lon="-3.98406">
        <ele>46.4</ele>
        <time>2025-09-22T15:45:41Z</time>
      </trkpt>
      <trkpt lat="48.68571" lon="-3.98407">
        <ele>46.2</ele>
        <time>2025-09-22T15:45:42Z</time>
      </trkpt>
      <trkpt lat="48.68555" lon="-3.98408">
        <ele>45.6</ele>
        <time>2025-09-22T15:45:45Z</time>
      </trkpt>
      <trkpt lat="48.6854" lon="-3.98409">
        <ele>44.6</ele>
        <time>2025-09-22T15:45:49Z</time>
      </trkpt>
      <trkpt lat="48.68531" lon="-3.9841">
        <ele>43.4</ele>
        <time>2025-09-22T15:45:53Z</time>
      </trkpt>
      <trkpt lat="48.68531" lon="-3.9841">
        <ele>43.4</ele>
        <time>2025-09-22T15:45:54Z</time>
      </trkpt>
      <trkpt lat="48.6853" lon="-3.98411">
        <ele>43.4</ele>
        <time>2025-09-22T15:45:55Z</time>
      </trkpt>
      <trkpt lat="48.68529" lon="-3.98418">
        <ele>43.4</ele>
        <time>2025-09-22T15:45:59Z</time>
      </trkpt>
      <trkpt lat="48.68523" lon="-3.98429">
        <ele>42.6</ele>
        <time>2025-09-22T15:46:04Z</time>
      </trkpt>
      <trkpt lat="48.68521" lon="-3.98433">
        <ele>42.4</ele>
        <time>2025-09-22T15:46:05Z</time>
      </trkpt>
      <trkpt lat="48.68517" lon="-3.98441">
        <ele>42</ele>
        <time>2025-09-22T15:46:07Z</time>
      </trkpt>
      <trkpt lat="48.68509" lon="-3.98456">
        <ele>41.4</ele>
        <time>2025-09-22T15:46:11Z</time>
      </trkpt>
      <trkpt lat="48.68507" lon="-3.98459">
        <ele>41.4</ele>
        <time>2025-09-22T15:46:12Z</time>
      </trkpt>
      <trkpt lat="48.68502" lon="-3.98483">
        <ele>41</ele>
        <time>2025-09-22T15:46:18Z</time>
      </trkpt>
      <trkpt lat="48.685" lon="-3.98502">
        <ele>40.8</ele>
        <time>2025-09-22T15:46:22Z</time>
      </trkpt>
      <trkpt lat="48.68499" lon="-3.98511">
        <ele>40.8</ele>
        <time>2025-09-22T15:46:24Z</time>
      </trkpt>
      <trkpt lat="48.68499" lon="-3.98525">
        <ele>41.2</ele>
        <time>2025-09-22T15:46:28Z</time>
      </trkpt>
      <trkpt lat="48.68498" lon="-3.9853">
        <ele>41.2</ele>
        <time>2025-09-22T15:46:30Z</time>
      </trkpt>
      <trkpt lat="48.68496" lon="-3.98539">
        <ele>41.4</ele>
        <time>2025-09-22T15:46:34Z</time>
      </trkpt>
      <trkpt lat="48.68493" lon="-3.98542">
        <ele>41.4</ele>
        <time>2025-09-22T15:46:36Z</time>
      </trkpt>
      <trkpt lat="48.68486" lon="-3.98554">
        <ele>41.2</ele>
        <time>2025-09-22T15:46:41Z</time>
      </trkpt>
      <trkpt lat="48.68483" lon="-3.98572">
        <ele>41.6</ele>
        <time>2025-09-22T15:46:46Z</time>
      </trkpt>
      <trkpt lat="48.6848" lon="-3.98589">
        <ele>41.8</ele>
        <time>2025-09-22T15:46:51Z</time>
      </trkpt>
      <trkpt lat="48.68479" lon="-3.98593">
        <ele>41.8</ele>
        <time>2025-09-22T15:46:52Z</time>
      </trkpt>
      <trkpt lat="48.68476" lon="-3.98613">
        <ele>42.2</ele>
        <time>2025-09-22T15:46:58Z</time>
      </trkpt>
      <trkpt lat="48.68467" lon="-3.98631">
        <ele>42.2</ele>
        <time>2025-09-22T15:47:05Z</time>
      </trkpt>
      <trkpt lat="48.68462" lon="-3.98643">
        <ele>42</ele>
        <time>2025-09-22T15:47:09Z</time>
      </trkpt>
      <trkpt lat="48.68464" lon="-3.98645">
        <ele>42.2</ele>
        <time>2025-09-22T15:47:10Z</time>
      </trkpt>
      <trkpt lat="48.68466" lon="-3.98645">
        <ele>42.2</ele>
        <time>2025-09-22T15:47:12Z</time>
      </trkpt>
      <trkpt lat="48.68467" lon="-3.98645">
        <ele>42.2</ele>
        <time>2025-09-22T15:47:14Z</time>
      </trkpt>
      <trkpt lat="48.68467" lon="-3.98645">
        <ele>42.2</ele>
        <time>2025-09-22T15:47:16Z</time>
      </trkpt>
      <trkpt lat="48.68469" lon="-3.98645">
        <ele>42.4</ele>
        <time>2025-09-22T15:48:22Z</time>
      </trkpt>
      <trkpt lat="48.6847" lon="-3.98647">
        <ele>42.4</ele>
        <time>2025-09-22T15:48:24Z</time>
      </trkpt>
      <trkpt lat="48.68471" lon="-3.98651">
        <ele>42.4</ele>
        <time>2025-09-22T15:48:30Z</time>
      </trkpt>
      <trkpt lat="48.68471" lon="-3.98653">
        <ele>42.4</ele>
        <time>2025-09-22T15:48:36Z</time>
      </trkpt>
      <trkpt lat="48.68476" lon="-3.98663">
        <ele>42.4</ele>
        <time>2025-09-22T15:48:44Z</time>
      </trkpt>
      <trkpt lat="48.68482" lon="-3.98671">
        <ele>42.2</ele>
        <time>2025-09-22T15:48:51Z</time>
      </trkpt>
      <trkpt lat="48.68484" lon="-3.98671">
        <ele>42.4</ele>
        <time>2025-09-22T15:48:55Z</time>
      </trkpt>
      <trkpt lat="48.68484" lon="-3.98677">
        <ele>43.2</ele>
        <time>2025-09-22T15:49:41Z</time>
      </trkpt>
      <trkpt lat="48.68485" lon="-3.98678">
        <ele>43</ele>
        <time>2025-09-22T15:49:42Z</time>
      </trkpt>
      <trkpt lat="48.68495" lon="-3.98679">
        <ele>42.4</ele>
        <time>2025-09-22T15:49:48Z</time>
      </trkpt>
      <trkpt lat="48.68494" lon="-3.98679">
        <ele>42.4</ele>
        <time>2025-09-22T15:49:50Z</time>
      </trkpt>
      <trkpt lat="48.68494" lon="-3.98683">
        <ele>42.6</ele>
        <time>2025-09-22T15:50:22Z</time>
      </trkpt>
      <trkpt lat="48.68495" lon="-3.98685">
        <ele>42.6</ele>
        <time>2025-09-22T15:50:23Z</time>
      </trkpt>
      <trkpt lat="48.68497" lon="-3.98696">
        <ele>42.4</ele>
        <time>2025-09-22T15:50:29Z</time>
      </trkpt>
      <trkpt lat="48.68498" lon="-3.98699">
        <ele>42</ele>
        <time>2025-09-22T15:50:34Z</time>
      </trkpt>
      <trkpt lat="48.68498" lon="-3.98698">
        <ele>42</ele>
        <time>2025-09-22T15:50:35Z</time>
      </trkpt>
      <trkpt lat="48.68497" lon="-3.98699">
        <ele>42</ele>
        <time>2025-09-22T15:50:36Z</time>
      </trkpt>
      <trkpt lat="48.68497" lon="-3.98701">
        <ele>42.2</ele>
        <time>2025-09-22T15:51:23Z</time>
      </trkpt>
      <trkpt lat="48.68498" lon="-3.98708">
        <ele>41.8</ele>
        <time>2025-09-22T15:51:26Z</time>
      </trkpt>
      <trkpt lat="48.68498" lon="-3.98708">
        <ele>41.8</ele>
        <time>2025-09-22T15:51:28Z</time>
      </trkpt>
      <trkpt lat="48.68496" lon="-3.98708">
        <ele>41.8</ele>
        <time>2025-09-22T15:52:16Z</time>
      </trkpt>
      <trkpt lat="48.68495" lon="-3.98707">
        <ele>41.8</ele>
        <time>2025-09-22T15:52:17Z</time>
      </trkpt>
      <trkpt lat="48.68495" lon="-3.98705">
        <ele>41.8</ele>
        <time>2025-09-22T15:52:21Z</time>
      </trkpt>
      <trkpt lat="48.68495" lon="-3.98704">
        <ele>41.8</ele>
        <time>2025-09-22T15:52:22Z</time>
      </trkpt>
      <trkpt lat="48.68496" lon="-3.98704">
        <ele>41.8</ele>
        <time>2025-09-22T15:52:26Z</time>
      </trkpt>
      <trkpt lat="48.68496" lon="-3.98703">
        <ele>41.8</ele>
        <time>2025-09-22T15:52:27Z</time>
      </trkpt>
      <trkpt lat="48.68494" lon="-3.98701">
        <ele>42</ele>
        <time>2025-09-22T15:52:29Z</time>
      </trkpt>
      <trkpt lat="48.68486" lon="-3.98692">
        <ele>42</ele>
        <time>2025-09-22T15:52:36Z</time>
      </trkpt>
      <trkpt lat="48.68478" lon="-3.98682">
        <ele>42.8</ele>
        <time>2025-09-22T15:52:43Z</time>
      </trkpt>
      <trkpt lat="48.68476" lon="-3.98677">
        <ele>42.8</ele>
        <time>2025-09-22T15:52:47Z</time>
      </trkpt>
      <trkpt lat="48.68475" lon="-3.98677">
        <ele>42.8</ele>
        <time>2025-09-22T15:52:48Z</time>
      </trkpt>
      <trkpt lat="48.68475" lon="-3.98677">
        <ele>42.2</ele>
        <time>2025-09-22T15:53:03Z</time>
      </trkpt>
      <trkpt lat="48.68471" lon="-3.98677">
        <ele>42.2</ele>
        <time>2025-09-22T15:53:05Z</time>
      </trkpt>
      <trkpt lat="48.68454" lon="-3.98677">
        <ele>41.4</ele>
        <time>2025-09-22T15:53:12Z</time>
      </trkpt>
      <trkpt lat="48.68443" lon="-3.9868">
        <ele>40.6</ele>
        <time>2025-09-22T15:53:17Z</time>
      </trkpt>
      <trkpt lat="48.68441" lon="-3.98686">
        <ele>40.2</ele>
        <time>2025-09-22T15:53:19Z</time>
      </trkpt>
      <trkpt lat="48.68438" lon="-3.987">
        <ele>40.2</ele>
        <time>2025-09-22T15:53:24Z</time>
      </trkpt>
      <trkpt lat="48.68433" lon="-3.9872">
        <ele>39.2</ele>
        <time>2025-09-22T15:53:30Z</time>
      </trkpt>
      <trkpt lat="48.68433" lon="-3.98722">
        <ele>39.2</ele>
        <time>2025-09-22T15:53:31Z</time>
      </trkpt>
      <trkpt lat="48.68432" lon="-3.9873">
        <ele>38.4</ele>
        <time>2025-09-22T15:53:35Z</time>
      </trkpt>
      <trkpt lat="48.68429" lon="-3.98738">
        <ele>38</ele>
        <time>2025-09-22T15:53:38Z</time>
      </trkpt>
      <trkpt lat="48.68426" lon="-3.98746">
        <ele>37.6</ele>
        <time>2025-09-22T15:53:41Z</time>
      </trkpt>
      <trkpt lat="48.68424" lon="-3.98756">
        <ele>37</ele>
        <time>2025-09-22T15:53:44Z</time>
      </trkpt>
      <trkpt lat="48.6842" lon="-3.98769">
        <ele>36.4</ele>
        <time>2025-09-22T15:53:48Z</time>
      </trkpt>
      <trkpt lat="48.68419" lon="-3.98776">
        <ele>36.2</ele>
        <time>2025-09-22T15:53:51Z</time>
      </trkpt>
      <trkpt lat="48.68419" lon="-3.98777">
        <ele>36.2</ele>
        <time>2025-09-22T15:53:52Z</time>
      </trkpt>
      <trkpt lat="48.6842" lon="-3.98778">
        <ele>36</ele>
        <time>2025-09-22T15:53:53Z</time>
      </trkpt>
      <trkpt lat="48.68422" lon="-3.9878">
        <ele>36</ele>
        <time>2025-09-22T15:53:54Z</time>
      </trkpt>
      <trkpt lat="48.68424" lon="-3.98786">
        <ele>36</ele>
        <time>2025-09-22T15:53:58Z</time>
      </trkpt>
      <trkpt lat="48.68424" lon="-3.98787">
        <ele>36</ele>
        <time>2025-09-22T15:54:00Z</time>
      </trkpt>
      <trkpt lat="48.68423" lon="-3.98794">
        <ele>35.8</ele>
        <time>2025-09-22T15:54:06Z</time>
      </trkpt>
      <trkpt lat="48.68422" lon="-3.98796">
        <ele>35.6</ele>
        <time>2025-09-22T15:54:08Z</time>
      </trkpt>
      <trkpt lat="48.68421" lon="-3.98794">
        <ele>35.6</ele>
        <time>2025-09-22T15:54:09Z</time>
      </trkpt>
      <trkpt lat="48.68418" lon="-3.98795">
        <ele>35.8</ele>
        <time>2025-09-22T15:54:34Z</time>
      </trkpt>
      <trkpt lat="48.68418" lon="-3.98793">
        <ele>35.8</ele>
        <time>2025-09-22T15:54:35Z</time>
      </trkpt>
      <trkpt lat="48.68417" lon="-3.98793">
        <ele>35.6</ele>
        <time>2025-09-22T15:54:36Z</time>
      </trkpt>
      <trkpt lat="48.68412" lon="-3.98801">
        <ele>35.2</ele>
        <time>2025-09-22T15:54:42Z</time>
      </trkpt>
      <trkpt lat="48.68409" lon="-3.98804">
        <ele>35</ele>
        <time>2025-09-22T15:54:44Z</time>
      </trkpt>
      <trkpt lat="48.68408" lon="-3.98805">
        <ele>35</ele>
        <time>2025-09-22T15:54:45Z</time>
      </trkpt>
      <trkpt lat="48.68407" lon="-3.98806">
        <ele>34.6</ele>
        <time>2025-09-23T08:57:07Z</time>
      </trkpt>
      <trkpt lat="48.68407" lon="-3.98805">
        <ele>34.6</ele>
        <time>2025-09-23T08:57:10Z</time>
      </trkpt>
      <trkpt lat="48.68407" lon="-3.98803">
        <ele>34.4</ele>
        <time>2025-09-23T08:57:21Z</time>
      </trkpt>
      <trkpt lat="48.68407" lon="-3.98803">
        <ele>34.6</ele>
        <time>2025-09-23T08:57:23Z</time>
      </trkpt>
      <trkpt lat="48.68408" lon="-3.98797">
        <ele>34.6</ele>
        <time>2025-09-23T08:57:37Z</time>
      </trkpt>
      <trkpt lat="48.68408" lon="-3.98797">
        <ele>34.6</ele>
        <time>2025-09-23T08:57:38Z</time>
      </trkpt>
      <trkpt lat="48.68408" lon="-3.98796">
        <ele>34.6</ele>
        <time>2025-09-23T08:57:40Z</time>
      </trkpt>
      <trkpt lat="48.68408" lon="-3.98802">
        <ele>34.6</ele>
        <time>2025-09-23T08:58:19Z</time>
      </trkpt>
      <trkpt lat="48.68409" lon="-3.98797">
        <ele>34.6</ele>
        <time>2025-09-23T08:58:22Z</time>
      </trkpt>
      <trkpt lat="48.68412" lon="-3.98793">
        <ele>34.8</ele>
        <time>2025-09-23T08:58:25Z</time>
      </trkpt>
      <trkpt lat="48.68416" lon="-3.98793">
        <ele>35</ele>
        <time>2025-09-23T08:58:28Z</time>
      </trkpt>
      <trkpt lat="48.68418" lon="-3.98794">
        <ele>35.2</ele>
        <time>2025-09-23T08:58:29Z</time>
      </trkpt>
      <trkpt lat="48.68423" lon="-3.98795">
        <ele>35.6</ele>
        <time>2025-09-23T08:58:33Z</time>
      </trkpt>
      <trkpt lat="48.68424" lon="-3.98796">
        <ele>35.8</ele>
        <time>2025-09-23T08:58:34Z</time>
      </trkpt>
      <trkpt lat="48.68428" lon="-3.98796">
        <ele>36</ele>
        <time>2025-09-23T08:58:36Z</time>
      </trkpt>
      <trkpt lat="48.68438" lon="-3.98798">
        <ele>36.6</ele>
        <time>2025-09-23T08:58:41Z</time>
      </trkpt>
      <trkpt lat="48.6844" lon="-3.98798">
        <ele>36.8</ele>
        <time>2025-09-23T08:58:42Z</time>
      </trkpt>
      <trkpt lat="48.68441" lon="-3.98798">
        <ele>36.8</ele>
        <time>2025-09-23T08:58:43Z</time>
      </trkpt>
      <trkpt lat="48.68443" lon="-3.98799">
        <ele>37</ele>
        <time>2025-09-23T08:58:44Z</time>
      </trkpt>
      <trkpt lat="48.6845" lon="-3.98801">
        <ele>37.2</ele>
        <time>2025-09-23T08:58:47Z</time>
      </trkpt>
      <trkpt lat="48.68453" lon="-3.98803">
        <ele>37.4</ele>
        <time>2025-09-23T08:58:49Z</time>
      </trkpt>
      <trkpt lat="48.68459" lon="-3.98806">
        <ele>37.8</ele>
        <time>2025-09-23T08:58:52Z</time>
      </trkpt>
      <trkpt lat="48.68465" lon="-3.98808">
        <ele>38.2</ele>
        <time>2025-09-23T08:58:56Z</time>
      </trkpt>
      <trkpt lat="48.68466" lon="-3.98806">
        <ele>38.2</ele>
        <time>2025-09-23T08:58:57Z</time>
      </trkpt>
      <trkpt lat="48.68471" lon="-3.98803">
        <ele>38.4</ele>
        <time>2025-09-23T08:59:01Z</time>
      </trkpt>
      <trkpt lat="48.68477" lon="-3.98802">
        <ele>38.8</ele>
        <time>2025-09-23T08:59:04Z</time>
      </trkpt>
      <trkpt lat="48.68479" lon="-3.98802">
        <ele>39</ele>
        <time>2025-09-23T08:59:06Z</time>
      </trkpt>
      <trkpt lat="48.68484" lon="-3.98804">
        <ele>39.2</ele>
        <time>2025-09-23T08:59:09Z</time>
      </trkpt>
      <trkpt lat="48.68484" lon="-3.98799">
        <ele>39.4</ele>
        <time>2025-09-23T08:59:11Z</time>
      </trkpt>
      <trkpt lat="48.68485" lon="-3.9878">
        <ele>39.6</ele>
        <time>2025-09-23T08:59:17Z</time>
      </trkpt>
      <trkpt lat="48.68485" lon="-3.98773">
        <ele>39.8</ele>
        <time>2025-09-23T08:59:19Z</time>
      </trkpt>
      <trkpt lat="48.68487" lon="-3.98753">
        <ele>40.4</ele>
        <time>2025-09-23T08:59:26Z</time>
      </trkpt>
      <trkpt lat="48.68489" lon="-3.98742">
        <ele>40.8</ele>
        <time>2025-09-23T08:59:31Z</time>
      </trkpt>
      <trkpt lat="48.6849" lon="-3.98739">
        <ele>40.8</ele>
        <time>2025-09-23T08:59:32Z</time>
      </trkpt>
      <trkpt lat="48.68493" lon="-3.98733">
        <ele>41.2</ele>
        <time>2025-09-23T08:59:36Z</time>
      </trkpt>
      <trkpt lat="48.68494" lon="-3.98732">
        <ele>41.2</ele>
        <time>2025-09-23T08:59:37Z</time>
      </trkpt>
      <trkpt lat="48.68499" lon="-3.98731">
        <ele>41.2</ele>
        <time>2025-09-23T08:59:39Z</time>
      </trkpt>
      <trkpt lat="48.685" lon="-3.98733">
        <ele>41.2</ele>
        <time>2025-09-23T08:59:40Z</time>
      </trkpt>
      <trkpt lat="48.685" lon="-3.98736">
        <ele>41.4</ele>
        <time>2025-09-23T08:59:41Z</time>
      </trkpt>
      <trkpt lat="48.68497" lon="-3.98743">
        <ele>41.2</ele>
        <time>2025-09-23T08:59:43Z</time>
      </trkpt>
      <trkpt lat="48.68493" lon="-3.98763">
        <ele>40.8</ele>
        <time>2025-09-23T08:59:47Z</time>
      </trkpt>
      <trkpt lat="48.6849" lon="-3.98785">
        <ele>40.2</ele>
        <time>2025-09-23T08:59:51Z</time>
      </trkpt>
      <trkpt lat="48.68492" lon="-3.98796">
        <ele>40</ele>
        <time>2025-09-23T08:59:53Z</time>
      </trkpt>
      <trkpt lat="48.68498" lon="-3.98808">
        <ele>39.8</ele>
        <time>2025-09-23T08:59:56Z</time>
      </trkpt>
      <trkpt lat="48.68501" lon="-3.98815">
        <ele>40</ele>
        <time>2025-09-23T08:59:58Z</time>
      </trkpt>
      <trkpt lat="48.68504" lon="-3.98826">
        <ele>40</ele>
        <time>2025-09-23T09:00:01Z</time>
      </trkpt>
      <trkpt lat="48.6851" lon="-3.9884">
        <ele>40.2</ele>
        <time>2025-09-23T09:00:04Z</time>
      </trkpt>
      <trkpt lat="48.68518" lon="-3.98847">
        <ele>40.2</ele>
        <time>2025-09-23T09:00:07Z</time>
      </trkpt>
      <trkpt lat="48.6853" lon="-3.98853">
        <ele>40.4</ele>
        <time>2025-09-23T09:00:12Z</time>
      </trkpt>
      <trkpt lat="48.68542" lon="-3.9887">
        <ele>40.6</ele>
        <time>2025-09-23T09:00:17Z</time>
      </trkpt>
      <trkpt lat="48.68544" lon="-3.98874">
        <ele>40.8</ele>
        <time>2025-09-23T09:00:18Z</time>
      </trkpt>
      <trkpt lat="48.68547" lon="-3.98881">
        <ele>40.8</ele>
        <time>2025-09-23T09:00:20Z</time>
      </trkpt>
      <trkpt lat="48.68553" lon="-3.98896">
        <ele>41</ele>
        <time>2025-09-23T09:00:24Z</time>
      </trkpt>
      <trkpt lat="48.68557" lon="-3.98925">
        <ele>41.6</ele>
        <time>2025-09-23T09:00:30Z</time>
      </trkpt>
      <trkpt lat="48.6856" lon="-3.98941">
        <ele>41.8</ele>
        <time>2025-09-23T09:00:34Z</time>
      </trkpt>
      <trkpt lat="48.68561" lon="-3.98945">
        <ele>41.8</ele>
        <time>2025-09-23T09:00:35Z</time>
      </trkpt>
      <trkpt lat="48.68563" lon="-3.98953">
        <ele>42</ele>
        <time>2025-09-23T09:00:37Z</time>
      </trkpt>
      <trkpt lat="48.68567" lon="-3.98977">
        <ele>42.8</ele>
        <time>2025-09-23T09:00:43Z</time>
      </trkpt>
      <trkpt lat="48.68569" lon="-3.98984">
        <ele>43</ele>
        <time>2025-09-23T09:00:45Z</time>
      </trkpt>
      <trkpt lat="48.68575" lon="-3.99007">
        <ele>43.8</ele>
        <time>2025-09-23T09:00:51Z</time>
      </trkpt>
      <trkpt lat="48.68576" lon="-3.9901">
        <ele>43.8</ele>
        <time>2025-09-23T09:00:52Z</time>
      </trkpt>
      <trkpt lat="48.68577" lon="-3.99017">
        <ele>44</ele>
        <time>2025-09-23T09:00:54Z</time>
      </trkpt>
      <trkpt lat="48.68579" lon="-3.99025">
        <ele>44.2</ele>
        <time>2025-09-23T09:00:57Z</time>
      </trkpt>
      <trkpt lat="48.6858" lon="-3.99027">
        <ele>44.4</ele>
        <time>2025-09-23T09:01:00Z</time>
      </trkpt>
      <trkpt lat="48.68578" lon="-3.99031">
        <ele>44.4</ele>
        <time>2025-09-23T09:01:13Z</time>
      </trkpt>
      <trkpt lat="48.6858" lon="-3.99039">
        <ele>44.6</ele>
        <time>2025-09-23T09:01:16Z</time>
      </trkpt>
      <trkpt lat="48.68582" lon="-3.99049">
        <ele>44.8</ele>
        <time>2025-09-23T09:01:19Z</time>
      </trkpt>
      <trkpt lat="48.68589" lon="-3.99068">
        <ele>45</ele>
        <time>2025-09-23T09:01:24Z</time>
      </trkpt>
      <trkpt lat="48.68595" lon="-3.99087">
        <ele>45.4</ele>
        <time>2025-09-23T09:01:29Z</time>
      </trkpt>
      <trkpt lat="48.68601" lon="-3.99108">
        <ele>45.8</ele>
        <time>2025-09-23T09:01:34Z</time>
      </trkpt>
      <trkpt lat="48.68611" lon="-3.99137">
        <ele>46</ele>
        <time>2025-09-23T09:01:41Z</time>
      </trkpt>
      <trkpt lat="48.68615" lon="-3.9915">
        <ele>46.2</ele>
        <time>2025-09-23T09:01:44Z</time>
      </trkpt>
      <trkpt lat="48.68625" lon="-3.99173">
        <ele>46.6</ele>
        <time>2025-09-23T09:02:53Z</time>
      </trkpt>
      <trkpt lat="48.68635" lon="-3.99172">
        <ele>46.8</ele>
        <time>2025-09-23T09:02:57Z</time>
      </trkpt>
      <trkpt lat="48.68652" lon="-3.9917">
        <ele>47.8</ele>
        <time>2025-09-23T09:03:04Z</time>
      </trkpt>
      <trkpt lat="48.68658" lon="-3.99168">
        <ele>48.2</ele>
        <time>2025-09-23T09:03:07Z</time>
      </trkpt>
      <trkpt lat="48.68668" lon="-3.99166">
        <ele>48.8</ele>
        <time>2025-09-23T09:03:11Z</time>
      </trkpt>
      <trkpt lat="48.68676" lon="-3.99164">
        <ele>49.4</ele>
        <time>2025-09-23T09:03:14Z</time>
      </trkpt>
      <trkpt lat="48.68687" lon="-3.99156">
        <ele>50</ele>
        <time>2025-09-23T09:03:19Z</time>
      </trkpt>
      <trkpt lat="48.68697" lon="-3.99152">
        <ele>50.4</ele>
        <time>2025-09-23T09:03:23Z</time>
      </trkpt>
      <trkpt lat="48.68702" lon="-3.99149">
        <ele>50.6</ele>
        <time>2025-09-23T09:03:25Z</time>
      </trkpt>
      <trkpt lat="48.68718" lon="-3.99137">
        <ele>51.4</ele>
        <time>2025-09-23T09:03:32Z</time>
      </trkpt>
      <trkpt lat="48.6872" lon="-3.99135">
        <ele>51.6</ele>
        <time>2025-09-23T09:03:33Z</time>
      </trkpt>
      <trkpt lat="48.68737" lon="-3.99129">
        <ele>52.4</ele>
        <time>2025-09-23T09:03:40Z</time>
      </trkpt>
      <trkpt lat="48.6874" lon="-3.99128">
        <ele>52.6</ele>
        <time>2025-09-23T09:03:41Z</time>
      </trkpt>
      <trkpt lat="48.68759" lon="-3.99126">
        <ele>53</ele>
        <time>2025-09-23T09:03:48Z</time>
      </trkpt>
      <trkpt lat="48.68762" lon="-3.99126">
        <ele>53.2</ele>
        <time>2025-09-23T09:03:49Z</time>
      </trkpt>
      <trkpt lat="48.68764" lon="-3.99126">
        <ele>53.2</ele>
        <time>2025-09-23T09:03:50Z</time>
      </trkpt>
      <trkpt lat="48.68776" lon="-3.99126">
        <ele>53.2</ele>
        <time>2025-09-23T09:03:55Z</time>
      </trkpt>
      <trkpt lat="48.68798" lon="-3.99126">
        <ele>53.6</ele>
        <time>2025-09-23T09:04:04Z</time>
      </trkpt>
      <trkpt lat="48.68822" lon="-3.99128">
        <ele>53.6</ele>
        <time>2025-09-23T09:04:14Z</time>
      </trkpt>
      <trkpt lat="48.68845" lon="-3.99135">
        <ele>54</ele>
        <time>2025-09-23T09:04:23Z</time>
      </trkpt>
      <trkpt lat="48.68868" lon="-3.99146">
        <ele>54</ele>
        <time>2025-09-23T09:04:33Z</time>
      </trkpt>
      <trkpt lat="48.68885" lon="-3.99152">
        <ele>54.4</ele>
        <time>2025-09-23T09:04:41Z</time>
      </trkpt>
      <trkpt lat="48.68906" lon="-3.9916">
        <ele>54.4</ele>
        <time>2025-09-23T09:04:51Z</time>
      </trkpt>
      <trkpt lat="48.68927" lon="-3.99167">
        <ele>54.4</ele>
        <time>2025-09-23T09:05:00Z</time>
      </trkpt>
      <trkpt lat="48.68946" lon="-3.99174">
        <ele>54.4</ele>
        <time>2025-09-23T09:05:08Z</time>
      </trkpt>
      <trkpt lat="48.68953" lon="-3.99177">
        <ele>54.6</ele>
        <time>2025-09-23T09:05:11Z</time>
      </trkpt>
      <trkpt lat="48.68958" lon="-3.99178">
        <ele>54.6</ele>
        <time>2025-09-23T09:05:13Z</time>
      </trkpt>
      <trkpt lat="48.68968" lon="-3.99181">
        <ele>54.6</ele>
        <time>2025-09-23T09:05:17Z</time>
      </trkpt>
      <trkpt lat="48.68988" lon="-3.99188">
        <ele>55</ele>
        <time>2025-09-23T09:05:24Z</time>
      </trkpt>
      <trkpt lat="48.68996" lon="-3.99193">
        <ele>55</ele>
        <time>2025-09-23T09:05:27Z</time>
      </trkpt>
      <trkpt lat="48.69015" lon="-3.9921">
        <ele>55.4</ele>
        <time>2025-09-23T09:05:35Z</time>
      </trkpt>
      <trkpt lat="48.69018" lon="-3.99212">
        <ele>55.4</ele>
        <time>2025-09-23T09:05:36Z</time>
      </trkpt>
      <trkpt lat="48.69039" lon="-3.99235">
        <ele>55.6</ele>
        <time>2025-09-23T09:05:45Z</time>
      </trkpt>
      <trkpt lat="48.69041" lon="-3.99238">
        <ele>55.6</ele>
        <time>2025-09-23T09:05:46Z</time>
      </trkpt>
      <trkpt lat="48.69061" lon="-3.99251">
        <ele>56</ele>
        <time>2025-09-23T09:05:54Z</time>
      </trkpt>
      <trkpt lat="48.69084" lon="-3.99254">
        <ele>56.2</ele>
        <time>2025-09-23T09:06:02Z</time>
      </trkpt>
      <trkpt lat="48.69107" lon="-3.99274">
        <ele>56.4</ele>
        <time>2025-09-23T09:06:11Z</time>
      </trkpt>
      <trkpt lat="48.69124" lon="-3.99291">
        <ele>56.6</ele>
        <time>2025-09-23T09:06:18Z</time>
      </trkpt>
      <trkpt lat="48.69126" lon="-3.99294">
        <ele>56.6</ele>
        <time>2025-09-23T09:06:19Z</time>
      </trkpt>
      <trkpt lat="48.69128" lon="-3.99296">
        <ele>56.6</ele>
        <time>2025-09-23T09:06:20Z</time>
      </trkpt>
      <trkpt lat="48.69133" lon="-3.99301">
        <ele>56.6</ele>
        <time>2025-09-23T09:06:22Z</time>
      </trkpt>
      <trkpt lat="48.69154" lon="-3.99323">
        <ele>56.8</ele>
        <time>2025-09-23T09:06:30Z</time>
      </trkpt>
      <trkpt lat="48.69156" lon="-3.99325">
        <ele>56.8</ele>
        <time>2025-09-23T09:06:31Z</time>
      </trkpt>
      <trkpt lat="48.69175" lon="-3.99341">
        <ele>56.8</ele>
        <time>2025-09-23T09:06:38Z</time>
      </trkpt>
      <trkpt lat="48.69183" lon="-3.99348">
        <ele>56.8</ele>
        <time>2025-09-23T09:06:41Z</time>
      </trkpt>
      <trkpt lat="48.69202" lon="-3.99368">
        <ele>56.6</ele>
        <time>2025-09-23T09:06:48Z</time>
      </trkpt>
      <trkpt lat="48.69207" lon="-3.99374">
        <ele>56.6</ele>
        <time>2025-09-23T09:06:50Z</time>
      </trkpt>
      <trkpt lat="48.69232" lon="-3.99402">
        <ele>56</ele>
        <time>2025-09-23T09:06:58Z</time>
      </trkpt>
      <trkpt lat="48.69235" lon="-3.99406">
        <ele>56</ele>
        <time>2025-09-23T09:06:59Z</time>
      </trkpt>
      <trkpt lat="48.69251" lon="-3.99431">
        <ele>55.6</ele>
        <time>2025-09-23T09:07:05Z</time>
      </trkpt>
      <trkpt lat="48.69255" lon="-3.99442">
        <ele>55.6</ele>
        <time>2025-09-23T09:07:07Z</time>
      </trkpt>
      <trkpt lat="48.6926" lon="-3.99453">
        <ele>55.4</ele>
        <time>2025-09-23T09:07:09Z</time>
      </trkpt>
      <trkpt lat="48.6927" lon="-3.9947">
        <ele>55</ele>
        <time>2025-09-23T09:07:12Z</time>
      </trkpt>
      <trkpt lat="48.69274" lon="-3.99476">
        <ele>54.6</ele>
        <time>2025-09-23T09:07:13Z</time>
      </trkpt>
      <trkpt lat="48.69277" lon="-3.99481">
        <ele>54.4</ele>
        <time>2025-09-23T09:07:14Z</time>
      </trkpt>
      <trkpt lat="48.69297" lon="-3.99513">
        <ele>53.2</ele>
        <time>2025-09-23T09:07:19Z</time>
      </trkpt>
      <trkpt lat="48.69306" lon="-3.99526">
        <ele>53</ele>
        <time>2025-09-23T09:07:21Z</time>
      </trkpt>
      <trkpt lat="48.69318" lon="-3.99548">
        <ele>52.2</ele>
        <time>2025-09-23T09:07:24Z</time>
      </trkpt>
      <trkpt lat="48.69328" lon="-3.99574">
        <ele>50.8</ele>
        <time>2025-09-23T09:07:27Z</time>
      </trkpt>
      <trkpt lat="48.69337" lon="-3.99604">
        <ele>49.4</ele>
        <time>2025-09-23T09:07:30Z</time>
      </trkpt>
      <trkpt lat="48.69345" lon="-3.99634">
        <ele>48.2</ele>
        <time>2025-09-23T09:07:33Z</time>
      </trkpt>
      <trkpt lat="48.69354" lon="-3.99662">
        <ele>47.2</ele>
        <time>2025-09-23T09:07:36Z</time>
      </trkpt>
      <trkpt lat="48.69364" lon="-3.99686">
        <ele>46.6</ele>
        <time>2025-09-23T09:07:39Z</time>
      </trkpt>
      <trkpt lat="48.69369" lon="-3.99693">
        <ele>46.4</ele>
        <time>2025-09-23T09:07:40Z</time>
      </trkpt>
      <trkpt lat="48.69374" lon="-3.99699">
        <ele>46.2</ele>
        <time>2025-09-23T09:07:41Z</time>
      </trkpt>
      <trkpt lat="48.69386" lon="-3.99703">
        <ele>45.8</ele>
        <time>2025-09-23T09:07:43Z</time>
      </trkpt>
      <trkpt lat="48.6941" lon="-3.99699">
        <ele>45.2</ele>
        <time>2025-09-23T09:07:47Z</time>
      </trkpt>
      <trkpt lat="48.69422" lon="-3.99698">
        <ele>45.2</ele>
        <time>2025-09-23T09:07:49Z</time>
      </trkpt>
      <trkpt lat="48.69444" lon="-3.99695">
        <ele>44.8</ele>
        <time>2025-09-23T09:07:53Z</time>
      </trkpt>
      <trkpt lat="48.6945" lon="-3.99694">
        <ele>44.8</ele>
        <time>2025-09-23T09:07:54Z</time>
      </trkpt>
      <trkpt lat="48.69461" lon="-3.99693">
        <ele>44.6</ele>
        <time>2025-09-23T09:07:56Z</time>
      </trkpt>
      <trkpt lat="48.69487" lon="-3.99694">
        <ele>44</ele>
        <time>2025-09-23T09:08:01Z</time>
      </trkpt>
      <trkpt lat="48.69502" lon="-3.99695">
        <ele>43.8</ele>
        <time>2025-09-23T09:08:04Z</time>
      </trkpt>
      <trkpt lat="48.69545" lon="-3.99692">
        <ele>43.2</ele>
        <time>2025-09-23T09:08:13Z</time>
      </trkpt>
      <trkpt lat="48.69567" lon="-3.99689">
        <ele>43</ele>
        <time>2025-09-23T09:08:18Z</time>
      </trkpt>
      <trkpt lat="48.69579" lon="-3.99684">
        <ele>42.8</ele>
        <time>2025-09-23T09:08:21Z</time>
      </trkpt>
      <trkpt lat="48.69598" lon="-3.99666">
        <ele>43.6</ele>
        <time>2025-09-23T09:08:27Z</time>
      </trkpt>
      <trkpt lat="48.696" lon="-3.99662">
        <ele>43.6</ele>
        <time>2025-09-23T09:08:28Z</time>
      </trkpt>
      <trkpt lat="48.69605" lon="-3.99656">
        <ele>44</ele>
        <time>2025-09-23T09:08:30Z</time>
      </trkpt>
      <trkpt lat="48.69608" lon="-3.99654">
        <ele>44</ele>
        <time>2025-09-23T09:08:31Z</time>
      </trkpt>
      <trkpt lat="48.69612" lon="-3.99653">
        <ele>44</ele>
        <time>2025-09-23T09:08:32Z</time>
      </trkpt>
      <trkpt lat="48.69616" lon="-3.99657">
        <ele>44.2</ele>
        <time>2025-09-23T09:08:34Z</time>
      </trkpt>
      <trkpt lat="48.6962" lon="-3.99662">
        <ele>44.4</ele>
        <time>2025-09-23T09:08:36Z</time>
      </trkpt>
      <trkpt lat="48.69627" lon="-3.99675">
        <ele>44.2</ele>
        <time>2025-09-23T09:08:43Z</time>
      </trkpt>
      <trkpt lat="48.69631" lon="-3.99687">
        <ele>44.2</ele>
        <time>2025-09-23T09:08:48Z</time>
      </trkpt>
      <trkpt lat="48.69645" lon="-3.99705">
        <ele>43.2</ele>
        <time>2025-09-23T09:08:55Z</time>
      </trkpt>
      <trkpt lat="48.69647" lon="-3.99707">
        <ele>42.8</ele>
        <time>2025-09-23T09:08:56Z</time>
      </trkpt>
      <trkpt lat="48.69655" lon="-3.9971">
        <ele>41.8</ele>
        <time>2025-09-23T09:09:00Z</time>
      </trkpt>
      <trkpt lat="48.69656" lon="-3.9971">
        <ele>41.6</ele>
        <time>2025-09-23T09:09:03Z</time>
      </trkpt>
      <trkpt lat="48.69657" lon="-3.9971">
        <ele>41.4</ele>
        <time>2025-09-23T09:09:12Z</time>
      </trkpt>
      <trkpt lat="48.69658" lon="-3.9971">
        <ele>41.4</ele>
        <time>2025-09-23T09:09:15Z</time>
      </trkpt>
      <trkpt lat="48.69661" lon="-3.99713">
        <ele>41.4</ele>
        <time>2025-09-23T09:10:07Z</time>
      </trkpt>
      <trkpt lat="48.69661" lon="-3.99716">
        <ele>41.4</ele>
        <time>2025-09-23T09:10:09Z</time>
      </trkpt>
      <trkpt lat="48.69655" lon="-3.99723">
        <ele>41.4</ele>
        <time>2025-09-23T09:10:14Z</time>
      </trkpt>
      <trkpt lat="48.69648" lon="-3.9973">
        <ele>41.4</ele>
        <time>2025-09-23T09:10:17Z</time>
      </trkpt>
      <trkpt lat="48.69638" lon="-3.99739">
        <ele>41.6</ele>
        <time>2025-09-23T09:10:21Z</time>
      </trkpt>
      <trkpt lat="48.69614" lon="-3.99759">
        <ele>42</ele>
        <time>2025-09-23T09:10:30Z</time>
      </trkpt>
      <trkpt lat="48.69585" lon="-3.9978">
        <ele>42.6</ele>
        <time>2025-09-23T09:10:40Z</time>
      </trkpt>
      <trkpt lat="48.69578" lon="-3.99785">
        <ele>42.8</ele>
        <time>2025-09-23T09:10:42Z</time>
      </trkpt>
      <trkpt lat="48.69568" lon="-3.99802">
        <ele>43.2</ele>
        <time>2025-09-23T09:10:47Z</time>
      </trkpt>
      <trkpt lat="48.6957" lon="-3.99811">
        <ele>43.2</ele>
        <time>2025-09-23T09:10:49Z</time>
      </trkpt>
      <trkpt lat="48.69572" lon="-3.99819">
        <ele>43.4</ele>
        <time>2025-09-23T09:10:51Z</time>
      </trkpt>
      <trkpt lat="48.69576" lon="-3.99838">
        <ele>43.8</ele>
        <time>2025-09-23T09:10:56Z</time>
      </trkpt>
      <trkpt lat="48.6958" lon="-3.99856">
        <ele>44.2</ele>
        <time>2025-09-23T09:11:01Z</time>
      </trkpt>
      <trkpt lat="48.69586" lon="-3.99881">
        <ele>44.8</ele>
        <time>2025-09-23T09:11:08Z</time>
      </trkpt>
      <trkpt lat="48.69588" lon="-3.99892">
        <ele>44.8</ele>
        <time>2025-09-23T09:11:11Z</time>
      </trkpt>
      <trkpt lat="48.69594" lon="-3.9992">
        <ele>45</ele>
        <time>2025-09-23T09:11:18Z</time>
      </trkpt>
      <trkpt lat="48.696" lon="-3.99959">
        <ele>45.4</ele>
        <time>2025-09-23T09:11:27Z</time>
      </trkpt>
      <trkpt lat="48.69604" lon="-3.99993">
        <ele>45.8</ele>
        <time>2025-09-23T09:11:35Z</time>
      </trkpt>
      <trkpt lat="48.6961" lon="-4.00033">
        <ele>45.8</ele>
        <time>2025-09-23T09:11:43Z</time>
      </trkpt>
      <trkpt lat="48.69614" lon="-4.00057">
        <ele>46</ele>
        <time>2025-09-23T09:11:48Z</time>
      </trkpt>
      <trkpt lat="48.69618" lon="-4.00076">
        <ele>46</ele>
        <time>2025-09-23T09:11:52Z</time>
      </trkpt>
      <trkpt lat="48.69634" lon="-4.00123">
        <ele>46.2</ele>
        <time>2025-09-23T09:12:02Z</time>
      </trkpt>
      <trkpt lat="48.69645" lon="-4.00178">
        <ele>46.2</ele>
        <time>2025-09-23T09:12:13Z</time>
      </trkpt>
      <trkpt lat="48.69648" lon="-4.00225">
        <ele>46.6</ele>
        <time>2025-09-23T09:12:22Z</time>
      </trkpt>
      <trkpt lat="48.6965" lon="-4.0027">
        <ele>46.8</ele>
        <time>2025-09-23T09:12:31Z</time>
      </trkpt>
      <trkpt lat="48.69653" lon="-4.0032">
        <ele>46.8</ele>
        <time>2025-09-23T09:12:41Z</time>
      </trkpt>
      <trkpt lat="48.69656" lon="-4.00357">
        <ele>46.8</ele>
        <time>2025-09-23T09:12:48Z</time>
      </trkpt>
      <trkpt lat="48.6966" lon="-4.00399">
        <ele>46.2</ele>
        <time>2025-09-23T09:12:55Z</time>
      </trkpt>
      <trkpt lat="48.69669" lon="-4.00458">
        <ele>45.8</ele>
        <time>2025-09-23T09:13:04Z</time>
      </trkpt>
      <trkpt lat="48.69675" lon="-4.0049">
        <ele>45.6</ele>
        <time>2025-09-23T09:13:09Z</time>
      </trkpt>
      <trkpt lat="48.69678" lon="-4.00503">
        <ele>45.6</ele>
        <time>2025-09-23T09:13:11Z</time>
      </trkpt>
      <trkpt lat="48.69679" lon="-4.00516">
        <ele>45.6</ele>
        <time>2025-09-23T09:13:13Z</time>
      </trkpt>
      <trkpt lat="48.69679" lon="-4.00545">
        <ele>45.2</ele>
        <time>2025-09-23T09:13:17Z</time>
      </trkpt>
      <trkpt lat="48.69679" lon="-4.00566">
        <ele>45</ele>
        <time>2025-09-23T09:13:20Z</time>
      </trkpt>
      <trkpt lat="48.69678" lon="-4.00572">
        <ele>45</ele>
        <time>2025-09-23T09:13:21Z</time>
      </trkpt>
      <trkpt lat="48.69676" lon="-4.00607">
        <ele>44.4</ele>
        <time>2025-09-23T09:13:26Z</time>
      </trkpt>
      <trkpt lat="48.69674" lon="-4.00629">
        <ele>44.2</ele>
        <time>2025-09-23T09:13:29Z</time>
      </trkpt>
      <trkpt lat="48.69672" lon="-4.00652">
        <ele>43.8</ele>
        <time>2025-09-23T09:13:32Z</time>
      </trkpt>
      <trkpt lat="48.69669" lon="-4.00694">
        <ele>42.8</ele>
        <time>2025-09-23T09:13:37Z</time>
      </trkpt>
      <trkpt lat="48.69668" lon="-4.00721">
        <ele>42.4</ele>
        <time>2025-09-23T09:13:40Z</time>
      </trkpt>
      <trkpt lat="48.69669" lon="-4.00756">
        <ele>42</ele>
        <time>2025-09-23T09:13:44Z</time>
      </trkpt>
      <trkpt lat="48.69669" lon="-4.00774">
        <ele>41.8</ele>
        <time>2025-09-23T09:13:46Z</time>
      </trkpt>
      <trkpt lat="48.69669" lon="-4.00789">
        <ele>41.6</ele>
        <time>2025-09-23T09:13:48Z</time>
      </trkpt>
      <trkpt lat="48.69668" lon="-4.00801">
        <ele>41.2</ele>
        <time>2025-09-23T09:13:50Z</time>
      </trkpt>
      <trkpt lat="48.69663" lon="-4.00826">
        <ele>40.6</ele>
        <time>2025-09-23T09:13:55Z</time>
      </trkpt>
      <trkpt lat="48.69663" lon="-4.00829">
        <ele>40.6</ele>
        <time>2025-09-23T09:13:56Z</time>
      </trkpt>
      <trkpt lat="48.6966" lon="-4.00841">
        <ele>40.4</ele>
        <time>2025-09-23T09:14:01Z</time>
      </trkpt>
      <trkpt lat="48.69657" lon="-4.00851">
        <ele>40.4</ele>
        <time>2025-09-23T09:14:04Z</time>
      </trkpt>
      <trkpt lat="48.69655" lon="-4.00863">
        <ele>40.2</ele>
        <time>2025-09-23T09:14:07Z</time>
      </trkpt>
      <trkpt lat="48.69655" lon="-4.00868">
        <ele>40.2</ele>
        <time>2025-09-23T09:14:08Z</time>
      </trkpt>
      <trkpt lat="48.69656" lon="-4.00895">
        <ele>40</ele>
        <time>2025-09-23T09:14:13Z</time>
      </trkpt>
      <trkpt lat="48.69656" lon="-4.00901">
        <ele>40</ele>
        <time>2025-09-23T09:14:14Z</time>
      </trkpt>
      <trkpt lat="48.69656" lon="-4.00907">
        <ele>40</ele>
        <time>2025-09-23T09:14:15Z</time>
      </trkpt>
      <trkpt lat="48.69659" lon="-4.00932">
        <ele>39.8</ele>
        <time>2025-09-23T09:14:19Z</time>
      </trkpt>
      <trkpt lat="48.6966" lon="-4.00951">
        <ele>39.6</ele>
        <time>2025-09-23T09:14:22Z</time>
      </trkpt>
      <trkpt lat="48.6966" lon="-4.00958">
        <ele>39.6</ele>
        <time>2025-09-23T09:14:23Z</time>
      </trkpt>
      <trkpt lat="48.69663" lon="-4.01006">
        <ele>39.4</ele>
        <time>2025-09-23T09:14:31Z</time>
      </trkpt>
      <trkpt lat="48.69668" lon="-4.01068">
        <ele>38.6</ele>
        <time>2025-09-23T09:14:40Z</time>
      </trkpt>
      <trkpt lat="48.69675" lon="-4.01129">
        <ele>38.4</ele>
        <time>2025-09-23T09:14:49Z</time>
      </trkpt>
      <trkpt lat="48.69685" lon="-4.01185">
        <ele>37.6</ele>
        <time>2025-09-23T09:14:57Z</time>
      </trkpt>
      <trkpt lat="48.69685" lon="-4.01192">
        <ele>37.4</ele>
        <time>2025-09-23T09:14:58Z</time>
      </trkpt>
      <trkpt lat="48.69691" lon="-4.01218">
        <ele>37.2</ele>
        <time>2025-09-23T09:15:02Z</time>
      </trkpt>
      <trkpt lat="48.69693" lon="-4.01231">
        <ele>37.2</ele>
        <time>2025-09-23T09:15:04Z</time>
      </trkpt>
      <trkpt lat="48.69705" lon="-4.01274">
        <ele>36.6</ele>
        <time>2025-09-23T09:15:10Z</time>
      </trkpt>
      <trkpt lat="48.69717" lon="-4.01319">
        <ele>36.6</ele>
        <time>2025-09-23T09:15:16Z</time>
      </trkpt>
      <trkpt lat="48.69722" lon="-4.01339">
        <ele>36.2</ele>
        <time>2025-09-23T09:15:19Z</time>
      </trkpt>
      <trkpt lat="48.69727" lon="-4.01352">
        <ele>36</ele>
        <time>2025-09-23T09:15:21Z</time>
      </trkpt>
      <trkpt lat="48.69739" lon="-4.01391">
        <ele>35.8</ele>
        <time>2025-09-23T09:15:27Z</time>
      </trkpt>
      <trkpt lat="48.69742" lon="-4.01404">
        <ele>35.6</ele>
        <time>2025-09-23T09:15:29Z</time>
      </trkpt>
      <trkpt lat="48.69743" lon="-4.0141">
        <ele>35.4</ele>
        <time>2025-09-23T09:15:30Z</time>
      </trkpt>
      <trkpt lat="48.6975" lon="-4.01453">
        <ele>35.2</ele>
        <time>2025-09-23T09:15:36Z</time>
      </trkpt>
      <trkpt lat="48.69752" lon="-4.01504">
        <ele>34.6</ele>
        <time>2025-09-23T09:15:43Z</time>
      </trkpt>
      <trkpt lat="48.69754" lon="-4.01519">
        <ele>34.6</ele>
        <time>2025-09-23T09:15:45Z</time>
      </trkpt>
      <trkpt lat="48.69758" lon="-4.01534">
        <ele>34.4</ele>
        <time>2025-09-23T09:15:47Z</time>
      </trkpt>
      <trkpt lat="48.6976" lon="-4.01541">
        <ele>34.2</ele>
        <time>2025-09-23T09:15:48Z</time>
      </trkpt>
      <trkpt lat="48.69771" lon="-4.01567">
        <ele>33.8</ele>
        <time>2025-09-23T09:15:52Z</time>
      </trkpt>
      <trkpt lat="48.69777" lon="-4.01579">
        <ele>33.6</ele>
        <time>2025-09-23T09:15:54Z</time>
      </trkpt>
      <trkpt lat="48.698" lon="-4.01625">
        <ele>33.4</ele>
        <time>2025-09-23T09:16:02Z</time>
      </trkpt>
      <trkpt lat="48.69806" lon="-4.01635">
        <ele>33.4</ele>
        <time>2025-09-23T09:16:04Z</time>
      </trkpt>
      <trkpt lat="48.69829" lon="-4.01677">
        <ele>33.2</ele>
        <time>2025-09-23T09:16:12Z</time>
      </trkpt>
      <trkpt lat="48.6985" lon="-4.01718">
        <ele>33.6</ele>
        <time>2025-09-23T09:16:20Z</time>
      </trkpt>
      <trkpt lat="48.69855" lon="-4.01729">
        <ele>33.8</ele>
        <time>2025-09-23T09:16:22Z</time>
      </trkpt>
      <trkpt lat="48.69861" lon="-4.01744">
        <ele>33.8</ele>
        <time>2025-09-23T09:16:25Z</time>
      </trkpt>
      <trkpt lat="48.69869" lon="-4.01763">
        <ele>34.2</ele>
        <time>2025-09-23T09:16:29Z</time>
      </trkpt>
      <trkpt lat="48.69874" lon="-4.01777">
        <ele>34.4</ele>
        <time>2025-09-23T09:16:32Z</time>
      </trkpt>
      <trkpt lat="48.69884" lon="-4.01799">
        <ele>34.6</ele>
        <time>2025-09-23T09:16:37Z</time>
      </trkpt>
      <trkpt lat="48.69904" lon="-4.01831">
        <ele>34.8</ele>
        <time>2025-09-23T09:16:45Z</time>
      </trkpt>
      <trkpt lat="48.69912" lon="-4.01841">
        <ele>35</ele>
        <time>2025-09-23T09:16:48Z</time>
      </trkpt>
      <trkpt lat="48.69928" lon="-4.01859">
        <ele>35.4</ele>
        <time>2025-09-23T09:16:54Z</time>
      </trkpt>
      <trkpt lat="48.6993" lon="-4.01863">
        <ele>35.4</ele>
        <time>2025-09-23T09:16:55Z</time>
      </trkpt>
      <trkpt lat="48.69932" lon="-4.01867">
        <ele>35.6</ele>
        <time>2025-09-23T09:16:56Z</time>
      </trkpt>
      <trkpt lat="48.69945" lon="-4.01897">
        <ele>36.2</ele>
        <time>2025-09-23T09:17:03Z</time>
      </trkpt>
      <trkpt lat="48.69955" lon="-4.01946">
        <ele>35.6</ele>
        <time>2025-09-23T09:17:11Z</time>
      </trkpt>
      <trkpt lat="48.69962" lon="-4.01979">
        <ele>35</ele>
        <time>2025-09-23T09:17:16Z</time>
      </trkpt>
      <trkpt lat="48.69969" lon="-4.02001">
        <ele>34.4</ele>
        <time>2025-09-23T09:17:19Z</time>
      </trkpt>
      <trkpt lat="48.69971" lon="-4.02009">
        <ele>34.2</ele>
        <time>2025-09-23T09:17:20Z</time>
      </trkpt>
      <trkpt lat="48.6998" lon="-4.02033">
        <ele>33.2</ele>
        <time>2025-09-23T09:17:23Z</time>
      </trkpt>
      <trkpt lat="48.69987" lon="-4.02048">
        <ele>32.6</ele>
        <time>2025-09-23T09:17:25Z</time>
      </trkpt>
      <trkpt lat="48.69991" lon="-4.02055">
        <ele>32.2</ele>
        <time>2025-09-23T09:17:26Z</time>
      </trkpt>
      <trkpt lat="48.70002" lon="-4.02078">
        <ele>30.8</ele>
        <time>2025-09-23T09:17:29Z</time>
      </trkpt>
      <trkpt lat="48.70013" lon="-4.02103">
        <ele>29.4</ele>
        <time>2025-09-23T09:17:32Z</time>
      </trkpt>
      <trkpt lat="48.70017" lon="-4.02112">
        <ele>28.8</ele>
        <time>2025-09-23T09:17:33Z</time>
      </trkpt>
      <trkpt lat="48.70027" lon="-4.02128">
        <ele>28.2</ele>
        <time>2025-09-23T09:17:35Z</time>
      </trkpt>
      <trkpt lat="48.70039" lon="-4.02142">
        <ele>27.6</ele>
        <time>2025-09-23T09:17:37Z</time>
      </trkpt>
      <trkpt lat="48.70053" lon="-4.0215">
        <ele>27.2</ele>
        <time>2025-09-23T09:17:39Z</time>
      </trkpt>
      <trkpt lat="48.70059" lon="-4.02152">
        <ele>27.2</ele>
        <time>2025-09-23T09:17:40Z</time>
      </trkpt>
      <trkpt lat="48.70066" lon="-4.02152">
        <ele>27</ele>
        <time>2025-09-23T09:17:41Z</time>
      </trkpt>
      <trkpt lat="48.70073" lon="-4.02151">
        <ele>27</ele>
        <time>2025-09-23T09:17:42Z</time>
      </trkpt>
      <trkpt lat="48.7008" lon="-4.0215">
        <ele>26.8</ele>
        <time>2025-09-23T09:17:43Z</time>
      </trkpt>
      <trkpt lat="48.70098" lon="-4.02145">
        <ele>26.8</ele>
        <time>2025-09-23T09:17:46Z</time>
      </trkpt>
      <trkpt lat="48.70131" lon="-4.0214">
        <ele>26.4</ele>
        <time>2025-09-23T09:17:52Z</time>
      </trkpt>
      <trkpt lat="48.70149" lon="-4.02137">
        <ele>26</ele>
        <time>2025-09-23T09:17:55Z</time>
      </trkpt>
      <trkpt lat="48.70156" lon="-4.02137">
        <ele>26</ele>
        <time>2025-09-23T09:17:56Z</time>
      </trkpt>
      <trkpt lat="48.70162" lon="-4.02138">
        <ele>25.8</ele>
        <time>2025-09-23T09:17:57Z</time>
      </trkpt>
      <trkpt lat="48.70189" lon="-4.02139">
        <ele>24.8</ele>
        <time>2025-09-23T09:18:01Z</time>
      </trkpt>
      <trkpt lat="48.70216" lon="-4.02141">
        <ele>24</ele>
        <time>2025-09-23T09:18:05Z</time>
      </trkpt>
      <trkpt lat="48.70222" lon="-4.02144">
        <ele>23.8</ele>
        <time>2025-09-23T09:18:06Z</time>
      </trkpt>
      <trkpt lat="48.70228" lon="-4.02149">
        <ele>23.6</ele>
        <time>2025-09-23T09:18:07Z</time>
      </trkpt>
      <trkpt lat="48.70234" lon="-4.02154">
        <ele>23.4</ele>
        <time>2025-09-23T09:18:08Z</time>
      </trkpt>
      <trkpt lat="48.70241" lon="-4.0217">
        <ele>23</ele>
        <time>2025-09-23T09:18:10Z</time>
      </trkpt>
      <trkpt lat="48.70243" lon="-4.0218">
        <ele>22.8</ele>
        <time>2025-09-23T09:18:11Z</time>
      </trkpt>
      <trkpt lat="48.70244" lon="-4.02189">
        <ele>22.6</ele>
        <time>2025-09-23T09:18:12Z</time>
      </trkpt>
      <trkpt lat="48.7025" lon="-4.02248">
        <ele>21.4</ele>
        <time>2025-09-23T09:18:18Z</time>
      </trkpt>
      <trkpt lat="48.7026" lon="-4.02323">
        <ele>20.4</ele>
        <time>2025-09-23T09:18:26Z</time>
      </trkpt>
      <trkpt lat="48.70262" lon="-4.02331">
        <ele>20.2</ele>
        <time>2025-09-23T09:18:27Z</time>
      </trkpt>
      <trkpt lat="48.70276" lon="-4.02398">
        <ele>19.4</ele>
        <time>2025-09-23T09:18:35Z</time>
      </trkpt>
      <trkpt lat="48.7029" lon="-4.02453">
        <ele>18.6</ele>
        <time>2025-09-23T09:18:42Z</time>
      </trkpt>
      <trkpt lat="48.70292" lon="-4.02461">
        <ele>18.4</ele>
        <time>2025-09-23T09:18:43Z</time>
      </trkpt>
      <trkpt lat="48.70294" lon="-4.02469">
        <ele>18.2</ele>
        <time>2025-09-23T09:18:44Z</time>
      </trkpt>
      <trkpt lat="48.70307" lon="-4.02517">
        <ele>17.2</ele>
        <time>2025-09-23T09:18:50Z</time>
      </trkpt>
      <trkpt lat="48.70308" lon="-4.02525">
        <ele>17</ele>
        <time>2025-09-23T09:18:51Z</time>
      </trkpt>
      <trkpt lat="48.70312" lon="-4.02544">
        <ele>16.8</ele>
        <time>2025-09-23T09:18:54Z</time>
      </trkpt>
      <trkpt lat="48.70315" lon="-4.0255">
        <ele>16.6</ele>
        <time>2025-09-23T09:18:55Z</time>
      </trkpt>
      <trkpt lat="48.70323" lon="-4.02575">
        <ele>16.2</ele>
        <time>2025-09-23T09:19:00Z</time>
      </trkpt>
      <trkpt lat="48.70324" lon="-4.02579">
        <ele>16.2</ele>
        <time>2025-09-23T09:19:01Z</time>
      </trkpt>
      <trkpt lat="48.70329" lon="-4.02596">
        <ele>16</ele>
        <time>2025-09-23T09:19:06Z</time>
      </trkpt>
      <trkpt lat="48.70333" lon="-4.026">
        <ele>16</ele>
        <time>2025-09-23T09:19:11Z</time>
      </trkpt>
      <trkpt lat="48.70332" lon="-4.026">
        <ele>16</ele>
        <time>2025-09-23T09:20:42Z</time>
      </trkpt>
      <trkpt lat="48.70332" lon="-4.026">
        <ele>16</ele>
        <time>2025-09-23T09:20:43Z</time>
      </trkpt>
      <trkpt lat="48.70333" lon="-4.02601">
        <ele>16</ele>
        <time>2025-09-23T09:20:45Z</time>
      </trkpt>
      <trkpt lat="48.70334" lon="-4.02601">
        <ele>16</ele>
        <time>2025-09-23T09:20:47Z</time>
      </trkpt>
      <trkpt lat="48.70334" lon="-4.026">
        <ele>16</ele>
        <time>2025-09-23T09:20:48Z</time>
      </trkpt>
      <trkpt lat="48.70336" lon="-4.02601">
        <ele>16</ele>
        <time>2025-09-23T09:20:50Z</time>
      </trkpt>
      <trkpt lat="48.70341" lon="-4.02601">
        <ele>16</ele>
        <time>2025-09-23T09:20:53Z</time>
      </trkpt>
      <trkpt lat="48.70354" lon="-4.02602">
        <ele>16</ele>
        <time>2025-09-23T09:20:58Z</time>
      </trkpt>
      <trkpt lat="48.70381" lon="-4.02603">
        <ele>16</ele>
        <time>2025-09-23T09:21:06Z</time>
      </trkpt>
      <trkpt lat="48.70404" lon="-4.02602">
        <ele>16</ele>
        <time>2025-09-23T09:21:12Z</time>
      </trkpt>
      <trkpt lat="48.70419" lon="-4.02604">
        <ele>15.8</ele>
        <time>2025-09-23T09:21:16Z</time>
      </trkpt>
      <trkpt lat="48.70438" lon="-4.02613">
        <ele>15.8</ele>
        <time>2025-09-23T09:21:21Z</time>
      </trkpt>
      <trkpt lat="48.7045" lon="-4.0262">
        <ele>15.8</ele>
        <time>2025-09-23T09:21:24Z</time>
      </trkpt>
      <trkpt lat="48.70478" lon="-4.02632">
        <ele>15.4</ele>
        <time>2025-09-23T09:21:31Z</time>
      </trkpt>
      <trkpt lat="48.70491" lon="-4.02634">
        <ele>15.2</ele>
        <time>2025-09-23T09:21:34Z</time>
      </trkpt>
      <trkpt lat="48.705" lon="-4.02635">
        <ele>15</ele>
        <time>2025-09-23T09:21:36Z</time>
      </trkpt>
      <trkpt lat="48.70508" lon="-4.02633">
        <ele>15</ele>
        <time>2025-09-23T09:21:38Z</time>
      </trkpt>
      <trkpt lat="48.70529" lon="-4.0262">
        <ele>14.4</ele>
        <time>2025-09-23T09:21:43Z</time>
      </trkpt>
      <trkpt lat="48.7054" lon="-4.02609">
        <ele>14.4</ele>
        <time>2025-09-23T09:21:46Z</time>
      </trkpt>
      <trkpt lat="48.70549" lon="-4.02595">
        <ele>14.4</ele>
        <time>2025-09-23T09:21:49Z</time>
      </trkpt>
      <trkpt lat="48.70552" lon="-4.02589">
        <ele>14.2</ele>
        <time>2025-09-23T09:21:50Z</time>
      </trkpt>
      <trkpt lat="48.70558" lon="-4.0257">
        <ele>14.2</ele>
        <time>2025-09-23T09:21:53Z</time>
      </trkpt>
      <trkpt lat="48.7056" lon="-4.02557">
        <ele>14.2</ele>
        <time>2025-09-23T09:21:55Z</time>
      </trkpt>
      <trkpt lat="48.70571" lon="-4.025">
        <ele>14.8</ele>
        <time>2025-09-23T09:22:04Z</time>
      </trkpt>
      <trkpt lat="48.70582" lon="-4.0245">
        <ele>15</ele>
        <time>2025-09-23T09:22:13Z</time>
      </trkpt>
      <trkpt lat="48.70589" lon="-4.02419">
        <ele>15.2</ele>
        <time>2025-09-23T09:22:19Z</time>
      </trkpt>
      <trkpt lat="48.70591" lon="-4.0241">
        <ele>15.4</ele>
        <time>2025-09-23T09:22:21Z</time>
      </trkpt>
      <trkpt lat="48.70595" lon="-4.02396">
        <ele>15.8</ele>
        <time>2025-09-23T09:22:24Z</time>
      </trkpt>
      <trkpt lat="48.70599" lon="-4.02372">
        <ele>15.8</ele>
        <time>2025-09-23T09:22:29Z</time>
      </trkpt>
      <trkpt lat="48.70594" lon="-4.02341">
        <ele>15.8</ele>
        <time>2025-09-23T09:22:35Z</time>
      </trkpt>
      <trkpt lat="48.7059" lon="-4.02305">
        <ele>16.2</ele>
        <time>2025-09-23T09:22:42Z</time>
      </trkpt>
      <trkpt lat="48.70589" lon="-4.0229">
        <ele>16.4</ele>
        <time>2025-09-23T09:22:45Z</time>
      </trkpt>
      <trkpt lat="48.70599" lon="-4.02265">
        <ele>16.4</ele>
        <time>2025-09-23T09:22:51Z</time>
      </trkpt>
      <trkpt lat="48.7061" lon="-4.02257">
        <ele>16.8</ele>
        <time>2025-09-23T09:22:56Z</time>
      </trkpt>
      <trkpt lat="48.70626" lon="-4.02251">
        <ele>17.2</ele>
        <time>2025-09-23T09:23:02Z</time>
      </trkpt>
      <trkpt lat="48.70632" lon="-4.02249">
        <ele>17.4</ele>
        <time>2025-09-23T09:23:04Z</time>
      </trkpt>
      <trkpt lat="48.70655" lon="-4.02242">
        <ele>18</ele>
        <time>2025-09-23T09:23:12Z</time>
      </trkpt>
      <trkpt lat="48.70662" lon="-4.02238">
        <ele>18.4</ele>
        <time>2025-09-23T09:23:15Z</time>
      </trkpt>
      <trkpt lat="48.70667" lon="-4.02236">
        <ele>18.4</ele>
        <time>2025-09-23T09:23:17Z</time>
      </trkpt>
      <trkpt lat="48.70673" lon="-4.02235">
        <ele>18.6</ele>
        <time>2025-09-23T09:23:19Z</time>
      </trkpt>
      <trkpt lat="48.70693" lon="-4.02224">
        <ele>19.4</ele>
        <time>2025-09-23T09:23:27Z</time>
      </trkpt>
      <trkpt lat="48.70713" lon="-4.02213">
        <ele>20</ele>
        <time>2025-09-23T09:23:36Z</time>
      </trkpt>
      <trkpt lat="48.70721" lon="-4.02209">
        <ele>20</ele>
        <time>2025-09-23T09:23:39Z</time>
      </trkpt>
      <trkpt lat="48.70733" lon="-4.02203">
        <ele>19.8</ele>
        <time>2025-09-23T09:23:45Z</time>
      </trkpt>
      <trkpt lat="48.70734" lon="-4.02205">
        <ele>19.8</ele>
        <time>2025-09-23T09:23:46Z</time>
      </trkpt>
      <trkpt lat="48.70733" lon="-4.02213">
        <ele>19.8</ele>
        <time>2025-09-23T09:23:49Z</time>
      </trkpt>
      <trkpt lat="48.7073" lon="-4.02235">
        <ele>19.6</ele>
        <time>2025-09-23T09:23:54Z</time>
      </trkpt>
      <trkpt lat="48.70733" lon="-4.02283">
        <ele>19</ele>
        <time>2025-09-23T09:24:02Z</time>
      </trkpt>
      <trkpt lat="48.70735" lon="-4.02297">
        <ele>18.6</ele>
        <time>2025-09-23T09:24:04Z</time>
      </trkpt>
      <trkpt lat="48.70741" lon="-4.02319">
        <ele>18.2</ele>
        <time>2025-09-23T09:24:08Z</time>
      </trkpt>
      <trkpt lat="48.70751" lon="-4.02348">
        <ele>17.6</ele>
        <time>2025-09-23T09:24:14Z</time>
      </trkpt>
      <trkpt lat="48.70756" lon="-4.02357">
        <ele>17.4</ele>
        <time>2025-09-23T09:24:16Z</time>
      </trkpt>
      <trkpt lat="48.70762" lon="-4.02373">
        <ele>17.2</ele>
        <time>2025-09-23T09:24:19Z</time>
      </trkpt>
      <trkpt lat="48.70772" lon="-4.02393">
        <ele>16.8</ele>
        <time>2025-09-23T09:24:23Z</time>
      </trkpt>
      <trkpt lat="48.70774" lon="-4.02398">
        <ele>16.6</ele>
        <time>2025-09-23T09:24:24Z</time>
      </trkpt>
      <trkpt lat="48.70778" lon="-4.02409">
        <ele>16.4</ele>
        <time>2025-09-23T09:24:26Z</time>
      </trkpt>
      <trkpt lat="48.70784" lon="-4.02428">
        <ele>16.2</ele>
        <time>2025-09-23T09:24:29Z</time>
      </trkpt>
      <trkpt lat="48.70791" lon="-4.02452">
        <ele>15.8</ele>
        <time>2025-09-23T09:24:33Z</time>
      </trkpt>
      <trkpt lat="48.708" lon="-4.02494">
        <ele>15.2</ele>
        <time>2025-09-23T09:24:40Z</time>
      </trkpt>
      <trkpt lat="48.70804" lon="-4.02513">
        <ele>15.2</ele>
        <time>2025-09-23T09:24:43Z</time>
      </trkpt>
      <trkpt lat="48.70811" lon="-4.02536">
        <ele>14.8</ele>
        <time>2025-09-23T09:24:47Z</time>
      </trkpt>
      <trkpt lat="48.70813" lon="-4.02542">
        <ele>14.8</ele>
        <time>2025-09-23T09:24:48Z</time>
      </trkpt>
      <trkpt lat="48.70836" lon="-4.02586">
        <ele>14.4</ele>
        <time>2025-09-23T09:24:57Z</time>
      </trkpt>
      <trkpt lat="48.70861" lon="-4.02624">
        <ele>14.2</ele>
        <time>2025-09-23T09:25:06Z</time>
      </trkpt>
      <trkpt lat="48.70868" lon="-4.02632">
        <ele>14</ele>
        <time>2025-09-23T09:25:08Z</time>
      </trkpt>
      <trkpt lat="48.70886" lon="-4.0265">
        <ele>13.4</ele>
        <time>2025-09-23T09:25:13Z</time>
      </trkpt>
      <trkpt lat="48.70888" lon="-4.02655">
        <ele>13.2</ele>
        <time>2025-09-23T09:25:14Z</time>
      </trkpt>
      <trkpt lat="48.7089" lon="-4.0266">
        <ele>13</ele>
        <time>2025-09-23T09:25:15Z</time>
      </trkpt>
      <trkpt lat="48.70891" lon="-4.02672">
        <ele>12.6</ele>
        <time>2025-09-23T09:25:17Z</time>
      </trkpt>
      <trkpt lat="48.70892" lon="-4.02679">
        <ele>12.4</ele>
        <time>2025-09-23T09:25:18Z</time>
      </trkpt>
      <trkpt lat="48.70893" lon="-4.02686">
        <ele>12.2</ele>
        <time>2025-09-23T09:25:19Z</time>
      </trkpt>
      <trkpt lat="48.70896" lon="-4.027">
        <ele>11.8</ele>
        <time>2025-09-23T09:25:21Z</time>
      </trkpt>
      <trkpt lat="48.70898" lon="-4.02706">
        <ele>11.6</ele>
        <time>2025-09-23T09:25:22Z</time>
      </trkpt>
      <trkpt lat="48.70901" lon="-4.02713">
        <ele>11.4</ele>
        <time>2025-09-23T09:25:23Z</time>
      </trkpt>
      <trkpt lat="48.7091" lon="-4.02741">
        <ele>10.6</ele>
        <time>2025-09-23T09:25:27Z</time>
      </trkpt>
      <trkpt lat="48.70921" lon="-4.02765">
        <ele>10</ele>
        <time>2025-09-23T09:25:31Z</time>
      </trkpt>
      <trkpt lat="48.70929" lon="-4.02772">
        <ele>9.8</ele>
        <time>2025-09-23T09:25:33Z</time>
      </trkpt>
      <trkpt lat="48.70936" lon="-4.02778">
        <ele>9.6</ele>
        <time>2025-09-23T09:25:35Z</time>
      </trkpt>
      <trkpt lat="48.7094" lon="-4.02782">
        <ele>9.6</ele>
        <time>2025-09-23T09:25:36Z</time>
      </trkpt>
      <trkpt lat="48.70942" lon="-4.02786">
        <ele>9.6</ele>
        <time>2025-09-23T09:25:37Z</time>
      </trkpt>
      <trkpt lat="48.70949" lon="-4.02795">
        <ele>9.6</ele>
        <time>2025-09-23T09:25:39Z</time>
      </trkpt>
      <trkpt lat="48.70952" lon="-4.02799">
        <ele>9.6</ele>
        <time>2025-09-23T09:25:40Z</time>
      </trkpt>
      <trkpt lat="48.70972" lon="-4.02827">
        <ele>9.6</ele>
        <time>2025-09-23T09:25:47Z</time>
      </trkpt>
      <trkpt lat="48.70978" lon="-4.02833">
        <ele>9.6</ele>
        <time>2025-09-23T09:25:49Z</time>
      </trkpt>
      <trkpt lat="48.70988" lon="-4.02847">
        <ele>9.6</ele>
        <time>2025-09-23T09:25:53Z</time>
      </trkpt>
      <trkpt lat="48.71008" lon="-4.02883">
        <ele>9</ele>
        <time>2025-09-23T09:26:01Z</time>
      </trkpt>
      <trkpt lat="48.71016" lon="-4.02902">
        <ele>8.8</ele>
        <time>2025-09-23T09:26:06Z</time>
      </trkpt>
      <trkpt lat="48.7102" lon="-4.02912">
        <ele>8.6</ele>
        <time>2025-09-23T09:26:10Z</time>
      </trkpt>
      <trkpt lat="48.71022" lon="-4.02914">
        <ele>8.4</ele>
        <time>2025-09-23T09:26:12Z</time>
      </trkpt>
      <trkpt lat="48.71035" lon="-4.02914">
        <ele>8.6</ele>
        <time>2025-09-23T09:26:17Z</time>
      </trkpt>
      <trkpt lat="48.71042" lon="-4.02912">
        <ele>8.6</ele>
        <time>2025-09-23T09:26:19Z</time>
      </trkpt>
      <trkpt lat="48.71054" lon="-4.02906">
        <ele>8.6</ele>
        <time>2025-09-23T09:26:23Z</time>
      </trkpt>
      <trkpt lat="48.7106" lon="-4.02901">
        <ele>8.6</ele>
        <time>2025-09-23T09:26:25Z</time>
      </trkpt>
      <trkpt lat="48.71075" lon="-4.02889">
        <ele>8.8</ele>
        <time>2025-09-23T09:26:30Z</time>
      </trkpt>
      <trkpt lat="48.71088" lon="-4.0288">
        <ele>8.8</ele>
        <time>2025-09-23T09:26:34Z</time>
      </trkpt>
      <trkpt lat="48.71107" lon="-4.02865">
        <ele>8.6</ele>
        <time>2025-09-23T09:26:40Z</time>
      </trkpt>
      <trkpt lat="48.71116" lon="-4.02866">
        <ele>8.4</ele>
        <time>2025-09-23T09:26:44Z</time>
      </trkpt>
      <trkpt lat="48.7112" lon="-4.02875">
        <ele>8</ele>
        <time>2025-09-23T09:26:50Z</time>
      </trkpt>
      <trkpt lat="48.71122" lon="-4.02879">
        <ele>8.4</ele>
        <time>2025-09-23T09:26:54Z</time>
      </trkpt>
      <trkpt lat="48.71121" lon="-4.0288">
        <ele>7.8</ele>
        <time>2025-09-23T09:29:46Z</time>
      </trkpt>
      <trkpt lat="48.71122" lon="-4.02882">
        <ele>7.8</ele>
        <time>2025-09-23T09:29:47Z</time>
      </trkpt>
      <trkpt lat="48.71126" lon="-4.02894">
        <ele>8</ele>
        <time>2025-09-23T09:29:52Z</time>
      </trkpt>
      <trkpt lat="48.71129" lon="-4.02908">
        <ele>8.2</ele>
        <time>2025-09-23T09:29:56Z</time>
      </trkpt>
      <trkpt lat="48.71131" lon="-4.02915">
        <ele>8.2</ele>
        <time>2025-09-23T09:29:58Z</time>
      </trkpt>
      <trkpt lat="48.71135" lon="-4.0294">
        <ele>8.4</ele>
        <time>2025-09-23T09:30:05Z</time>
      </trkpt>
      <trkpt lat="48.71141" lon="-4.02983">
        <ele>8.4</ele>
        <time>2025-09-23T09:30:15Z</time>
      </trkpt>
      <trkpt lat="48.71147" lon="-4.03031">
        <ele>8.2</ele>
        <time>2025-09-23T09:30:24Z</time>
      </trkpt>
      <trkpt lat="48.71154" lon="-4.03082">
        <ele>7.8</ele>
        <time>2025-09-23T09:30:33Z</time>
      </trkpt>
      <trkpt lat="48.71155" lon="-4.03122">
        <ele>8</ele>
        <time>2025-09-23T09:30:40Z</time>
      </trkpt>
      <trkpt lat="48.71155" lon="-4.03168">
        <ele>8</ele>
        <time>2025-09-23T09:30:48Z</time>
      </trkpt>
      <trkpt lat="48.71155" lon="-4.03194">
        <ele>8</ele>
        <time>2025-09-23T09:30:53Z</time>
      </trkpt>
      <trkpt lat="48.71155" lon="-4.03204">
        <ele>8</ele>
        <time>2025-09-23T09:30:55Z</time>
      </trkpt>
      <trkpt lat="48.71155" lon="-4.03233">
        <ele>8</ele>
        <time>2025-09-23T09:31:00Z</time>
      </trkpt>
      <trkpt lat="48.71146" lon="-4.03252">
        <ele>8</ele>
        <time>2025-09-23T09:31:04Z</time>
      </trkpt>
      <trkpt lat="48.71131" lon="-4.03286">
        <ele>7.6</ele>
        <time>2025-09-23T09:31:11Z</time>
      </trkpt>
      <trkpt lat="48.7113" lon="-4.03292">
        <ele>7.6</ele>
        <time>2025-09-23T09:31:12Z</time>
      </trkpt>
      <trkpt lat="48.7113" lon="-4.03298">
        <ele>7.6</ele>
        <time>2025-09-23T09:31:13Z</time>
      </trkpt>
      <trkpt lat="48.71129" lon="-4.0331">
        <ele>7.4</ele>
        <time>2025-09-23T09:31:15Z</time>
      </trkpt>
      <trkpt lat="48.71131" lon="-4.03322">
        <ele>7.4</ele>
        <time>2025-09-23T09:31:17Z</time>
      </trkpt>
      <trkpt lat="48.71142" lon="-4.03359">
        <ele>7.4</ele>
        <time>2025-09-23T09:31:24Z</time>
      </trkpt>
      <trkpt lat="48.71145" lon="-4.03393">
        <ele>7.4</ele>
        <time>2025-09-23T09:31:30Z</time>
      </trkpt>
      <trkpt lat="48.71148" lon="-4.03452">
        <ele>7.6</ele>
        <time>2025-09-23T09:31:40Z</time>
      </trkpt>
      <trkpt lat="48.71156" lon="-4.03503">
        <ele>8</ele>
        <time>2025-09-23T09:31:49Z</time>
      </trkpt>
      <trkpt lat="48.71159" lon="-4.03532">
        <ele>7.8</ele>
        <time>2025-09-23T09:31:54Z</time>
      </trkpt>
      <trkpt lat="48.7116" lon="-4.0355">
        <ele>8</ele>
        <time>2025-09-23T09:31:57Z</time>
      </trkpt>
      <trkpt lat="48.71159" lon="-4.03584">
        <ele>8</ele>
        <time>2025-09-23T09:32:03Z</time>
      </trkpt>
      <trkpt lat="48.71149" lon="-4.03606">
        <ele>8.2</ele>
        <time>2025-09-23T09:32:09Z</time>
      </trkpt>
      <trkpt lat="48.71139" lon="-4.03608">
        <ele>8.4</ele>
        <time>2025-09-23T09:32:14Z</time>
      </trkpt>
      <trkpt lat="48.71124" lon="-4.03611">
        <ele>8.4</ele>
        <time>2025-09-23T09:32:19Z</time>
      </trkpt>
      <trkpt lat="48.71115" lon="-4.03611">
        <ele>8.6</ele>
        <time>2025-09-23T09:32:22Z</time>
      </trkpt>
      <trkpt lat="48.71099" lon="-4.03605">
        <ele>8.6</ele>
        <time>2025-09-23T09:32:27Z</time>
      </trkpt>
      <trkpt lat="48.71076" lon="-4.0359">
        <ele>8.4</ele>
        <time>2025-09-23T09:32:34Z</time>
      </trkpt>
      <trkpt lat="48.71058" lon="-4.03581">
        <ele>8.4</ele>
        <time>2025-09-23T09:32:40Z</time>
      </trkpt>
      <trkpt lat="48.71056" lon="-4.0358">
        <ele>8.4</ele>
        <time>2025-09-23T09:32:41Z</time>
      </trkpt>
      <trkpt lat="48.71038" lon="-4.03569">
        <ele>8.6</ele>
        <time>2025-09-23T09:32:47Z</time>
      </trkpt>
      <trkpt lat="48.71015" lon="-4.03552">
        <ele>8.4</ele>
        <time>2025-09-23T09:32:55Z</time>
      </trkpt>
      <trkpt lat="48.70989" lon="-4.0353">
        <ele>8.6</ele>
        <time>2025-09-23T09:33:03Z</time>
      </trkpt>
      <trkpt lat="48.70956" lon="-4.03495">
        <ele>9</ele>
        <time>2025-09-23T09:33:13Z</time>
      </trkpt>
      <trkpt lat="48.7095" lon="-4.03488">
        <ele>8.8</ele>
        <time>2025-09-23T09:33:15Z</time>
      </trkpt>
      <trkpt lat="48.70947" lon="-4.03485">
        <ele>8.8</ele>
        <time>2025-09-23T09:33:16Z</time>
      </trkpt>
      <trkpt lat="48.70929" lon="-4.03465">
        <ele>8.8</ele>
        <time>2025-09-23T09:33:22Z</time>
      </trkpt>
      <trkpt lat="48.70901" lon="-4.03432">
        <ele>9</ele>
        <time>2025-09-23T09:33:31Z</time>
      </trkpt>
      <trkpt lat="48.70883" lon="-4.03411">
        <ele>8.8</ele>
        <time>2025-09-23T09:33:37Z</time>
      </trkpt>
      <trkpt lat="48.70873" lon="-4.03402">
        <ele>8.8</ele>
        <time>2025-09-23T09:33:40Z</time>
      </trkpt>
      <trkpt lat="48.70865" lon="-4.03391">
        <ele>8.8</ele>
        <time>2025-09-23T09:33:43Z</time>
      </trkpt>
      <trkpt lat="48.70854" lon="-4.03371">
        <ele>8.8</ele>
        <time>2025-09-23T09:33:49Z</time>
      </trkpt>
      <trkpt lat="48.70853" lon="-4.0337">
        <ele>8.6</ele>
        <time>2025-09-23T09:33:52Z</time>
      </trkpt>
      <trkpt lat="48.70852" lon="-4.0337">
        <ele>8.8</ele>
        <time>2025-09-23T09:33:56Z</time>
      </trkpt>
      <trkpt lat="48.70851" lon="-4.03381">
        <ele>8.8</ele>
        <time>2025-09-23T09:34:01Z</time>
      </trkpt>
      <trkpt lat="48.70843" lon="-4.03402">
        <ele>9</ele>
        <time>2025-09-23T09:34:07Z</time>
      </trkpt>
      <trkpt lat="48.70833" lon="-4.03437">
        <ele>9.2</ele>
        <time>2025-09-23T09:34:16Z</time>
      </trkpt>
      <trkpt lat="48.70828" lon="-4.03455">
        <ele>9</ele>
        <time>2025-09-23T09:34:20Z</time>
      </trkpt>
      <trkpt lat="48.70825" lon="-4.03465">
        <ele>9</ele>
        <time>2025-09-23T09:34:22Z</time>
      </trkpt>
      <trkpt lat="48.70824" lon="-4.0347">
        <ele>9</ele>
        <time>2025-09-23T09:34:23Z</time>
      </trkpt>
      <trkpt lat="48.70821" lon="-4.03481">
        <ele>8.8</ele>
        <time>2025-09-23T09:34:25Z</time>
      </trkpt>
      <trkpt lat="48.70823" lon="-4.03496">
        <ele>8.8</ele>
        <time>2025-09-23T09:34:28Z</time>
      </trkpt>
      <trkpt lat="48.70822" lon="-4.03515">
        <ele>8.8</ele>
        <time>2025-09-23T09:34:33Z</time>
      </trkpt>
      <trkpt lat="48.70811" lon="-4.03523">
        <ele>9.2</ele>
        <time>2025-09-23T09:34:38Z</time>
      </trkpt>
      <trkpt lat="48.70802" lon="-4.03528">
        <ele>9.6</ele>
        <time>2025-09-23T09:34:42Z</time>
      </trkpt>
      <trkpt lat="48.70791" lon="-4.03536">
        <ele>10</ele>
        <time>2025-09-23T09:34:47Z</time>
      </trkpt>
      <trkpt lat="48.70771" lon="-4.03547">
        <ele>10.4</ele>
        <time>2025-09-23T09:34:55Z</time>
      </trkpt>
      <trkpt lat="48.70755" lon="-4.03556">
        <ele>10.6</ele>
        <time>2025-09-23T09:35:01Z</time>
      </trkpt>
      <trkpt lat="48.70738" lon="-4.03567">
        <ele>10.8</ele>
        <time>2025-09-23T09:35:08Z</time>
      </trkpt>
      <trkpt lat="48.70717" lon="-4.03578">
        <ele>11.2</ele>
        <time>2025-09-23T09:35:17Z</time>
      </trkpt>
      <trkpt lat="48.70698" lon="-4.03588">
        <ele>11.2</ele>
        <time>2025-09-23T09:35:24Z</time>
      </trkpt>
      <trkpt lat="48.70685" lon="-4.03599">
        <ele>10.8</ele>
        <time>2025-09-23T09:35:29Z</time>
      </trkpt>
      <trkpt lat="48.70672" lon="-4.03604">
        <ele>10.4</ele>
        <time>2025-09-23T09:35:34Z</time>
      </trkpt>
      <trkpt lat="48.70651" lon="-4.03617">
        <ele>10.6</ele>
        <time>2025-09-23T09:35:42Z</time>
      </trkpt>
      <trkpt lat="48.70632" lon="-4.03624">
        <ele>10.8</ele>
        <time>2025-09-23T09:35:49Z</time>
      </trkpt>
      <trkpt lat="48.70613" lon="-4.03638">
        <ele>10.6</ele>
        <time>2025-09-23T09:35:56Z</time>
      </trkpt>
      <trkpt lat="48.70598" lon="-4.03655">
        <ele>10.2</ele>
        <time>2025-09-23T09:36:02Z</time>
      </trkpt>
      <trkpt lat="48.70586" lon="-4.03672">
        <ele>10.6</ele>
        <time>2025-09-23T09:36:08Z</time>
      </trkpt>
      <trkpt lat="48.70581" lon="-4.03679">
        <ele>10.6</ele>
        <time>2025-09-23T09:36:11Z</time>
      </trkpt>
      <trkpt lat="48.70572" lon="-4.03688">
        <ele>10.8</ele>
        <time>2025-09-23T09:36:15Z</time>
      </trkpt>
      <trkpt lat="48.70561" lon="-4.03703">
        <ele>11.2</ele>
        <time>2025-09-23T09:36:21Z</time>
      </trkpt>
      <trkpt lat="48.70554" lon="-4.03712">
        <ele>11.6</ele>
        <time>2025-09-23T09:36:25Z</time>
      </trkpt>
      <trkpt lat="48.70549" lon="-4.03715">
        <ele>11.8</ele>
        <time>2025-09-23T09:36:27Z</time>
      </trkpt>
      <trkpt lat="48.70539" lon="-4.03718">
        <ele>11.6</ele>
        <time>2025-09-23T09:36:31Z</time>
      </trkpt>
      <trkpt lat="48.7052" lon="-4.03718">
        <ele>11.2</ele>
        <time>2025-09-23T09:36:37Z</time>
      </trkpt>
      <trkpt lat="48.70518" lon="-4.03718">
        <ele>11.2</ele>
        <time>2025-09-23T09:36:38Z</time>
      </trkpt>
      <trkpt lat="48.70503" lon="-4.03723">
        <ele>12</ele>
        <time>2025-09-23T09:36:45Z</time>
      </trkpt>
      <trkpt lat="48.70499" lon="-4.03727">
        <ele>11.8</ele>
        <time>2025-09-23T09:36:47Z</time>
      </trkpt>
      <trkpt lat="48.7049" lon="-4.03732">
        <ele>11</ele>
        <time>2025-09-23T09:36:51Z</time>
      </trkpt>
      <trkpt lat="48.7048" lon="-4.03744">
        <ele>11</ele>
        <time>2025-09-23T09:36:56Z</time>
      </trkpt>
      <trkpt lat="48.70473" lon="-4.03753">
        <ele>11</ele>
        <time>2025-09-23T09:37:01Z</time>
      </trkpt>
      <trkpt lat="48.70461" lon="-4.03763">
        <ele>11</ele>
        <time>2025-09-23T09:37:09Z</time>
      </trkpt>
      <trkpt lat="48.70442" lon="-4.03773">
        <ele>11.2</ele>
        <time>2025-09-23T09:37:17Z</time>
      </trkpt>
      <trkpt lat="48.70426" lon="-4.03782">
        <ele>11.4</ele>
        <time>2025-09-23T09:37:24Z</time>
      </trkpt>
      <trkpt lat="48.70418" lon="-4.0378">
        <ele>11.4</ele>
        <time>2025-09-23T09:37:28Z</time>
      </trkpt>
      <trkpt lat="48.70413" lon="-4.03775">
        <ele>11.6</ele>
        <time>2025-09-23T09:37:31Z</time>
      </trkpt>
      <trkpt lat="48.70397" lon="-4.0376">
        <ele>12</ele>
        <time>2025-09-23T09:37:39Z</time>
      </trkpt>
      <trkpt lat="48.70384" lon="-4.03745">
        <ele>12.4</ele>
        <time>2025-09-23T09:37:45Z</time>
      </trkpt>
      <trkpt lat="48.70378" lon="-4.03738">
        <ele>12.8</ele>
        <time>2025-09-23T09:37:48Z</time>
      </trkpt>
      <trkpt lat="48.70369" lon="-4.03726">
        <ele>13.2</ele>
        <time>2025-09-23T09:37:53Z</time>
      </trkpt>
      <trkpt lat="48.70356" lon="-4.03714">
        <ele>13.6</ele>
        <time>2025-09-23T09:37:59Z</time>
      </trkpt>
      <trkpt lat="48.70352" lon="-4.0371">
        <ele>13.8</ele>
        <time>2025-09-23T09:38:01Z</time>
      </trkpt>
      <trkpt lat="48.70345" lon="-4.03701">
        <ele>14.2</ele>
        <time>2025-09-23T09:38:05Z</time>
      </trkpt>
      <trkpt lat="48.70339" lon="-4.03686">
        <ele>15</ele>
        <time>2025-09-23T09:38:10Z</time>
      </trkpt>
      <trkpt lat="48.70336" lon="-4.03681">
        <ele>15.2</ele>
        <time>2025-09-23T09:38:12Z</time>
      </trkpt>
      <trkpt lat="48.70329" lon="-4.03665">
        <ele>16</ele>
        <time>2025-09-23T09:38:18Z</time>
      </trkpt>
      <trkpt lat="48.70319" lon="-4.03661">
        <ele>16.8</ele>
        <time>2025-09-23T09:38:23Z</time>
      </trkpt>
      <trkpt lat="48.70314" lon="-4.03663">
        <ele>17</ele>
        <time>2025-09-23T09:38:25Z</time>
      </trkpt>
      <trkpt lat="48.70304" lon="-4.03666">
        <ele>17.4</ele>
        <time>2025-09-23T09:38:29Z</time>
      </trkpt>
      <trkpt lat="48.7029" lon="-4.03663">
        <ele>17.2</ele>
        <time>2025-09-23T09:38:35Z</time>
      </trkpt>
      <trkpt lat="48.70269" lon="-4.03655">
        <ele>16.8</ele>
        <time>2025-09-23T09:38:42Z</time>
      </trkpt>
      <trkpt lat="48.70262" lon="-4.03644">
        <ele>16.8</ele>
        <time>2025-09-23T09:38:46Z</time>
      </trkpt>
      <trkpt lat="48.70261" lon="-4.03641">
        <ele>16.8</ele>
        <time>2025-09-23T09:38:47Z</time>
      </trkpt>
      <trkpt lat="48.70257" lon="-4.0363">
        <ele>16.6</ele>
        <time>2025-09-23T09:38:50Z</time>
      </trkpt>
      <trkpt lat="48.70254" lon="-4.0362">
        <ele>16.8</ele>
        <time>2025-09-23T09:38:53Z</time>
      </trkpt>
      <trkpt lat="48.70253" lon="-4.03612">
        <ele>16.8</ele>
        <time>2025-09-23T09:38:55Z</time>
      </trkpt>
      <trkpt lat="48.70244" lon="-4.03585">
        <ele>16.4</ele>
        <time>2025-09-23T09:39:01Z</time>
      </trkpt>
      <trkpt lat="48.70231" lon="-4.03569">
        <ele>16.2</ele>
        <time>2025-09-23T09:39:06Z</time>
      </trkpt>
      <trkpt lat="48.70227" lon="-4.03567">
        <ele>16</ele>
        <time>2025-09-23T09:39:08Z</time>
      </trkpt>
      <trkpt lat="48.70222" lon="-4.03564">
        <ele>15.8</ele>
        <time>2025-09-23T09:39:11Z</time>
      </trkpt>
      <trkpt lat="48.70221" lon="-4.03566">
        <ele>15.8</ele>
        <time>2025-09-23T09:39:12Z</time>
      </trkpt>
      <trkpt lat="48.70218" lon="-4.03575">
        <ele>16</ele>
        <time>2025-09-23T09:39:15Z</time>
      </trkpt>
      <trkpt lat="48.70211" lon="-4.03591">
        <ele>16</ele>
        <time>2025-09-23T09:39:19Z</time>
      </trkpt>
      <trkpt lat="48.70205" lon="-4.03604">
        <ele>15.6</ele>
        <time>2025-09-23T09:39:22Z</time>
      </trkpt>
      <trkpt lat="48.70189" lon="-4.03638">
        <ele>15.2</ele>
        <time>2025-09-23T09:39:30Z</time>
      </trkpt>
      <trkpt lat="48.70182" lon="-4.03651">
        <ele>15.2</ele>
        <time>2025-09-23T09:39:33Z</time>
      </trkpt>
      <trkpt lat="48.70179" lon="-4.03656">
        <ele>15.2</ele>
        <time>2025-09-23T09:39:34Z</time>
      </trkpt>
      <trkpt lat="48.70173" lon="-4.03666">
        <ele>15</ele>
        <time>2025-09-23T09:39:36Z</time>
      </trkpt>
      <trkpt lat="48.70156" lon="-4.03699">
        <ele>15</ele>
        <time>2025-09-23T09:39:43Z</time>
      </trkpt>
      <trkpt lat="48.70141" lon="-4.03727">
        <ele>14.8</ele>
        <time>2025-09-23T09:39:49Z</time>
      </trkpt>
      <trkpt lat="48.70134" lon="-4.03743">
        <ele>14.6</ele>
        <time>2025-09-23T09:39:52Z</time>
      </trkpt>
      <trkpt lat="48.70118" lon="-4.03794">
        <ele>14.6</ele>
        <time>2025-09-23T09:40:01Z</time>
      </trkpt>
      <trkpt lat="48.70115" lon="-4.03811">
        <ele>14.6</ele>
        <time>2025-09-23T09:40:04Z</time>
      </trkpt>
      <trkpt lat="48.7011" lon="-4.03833">
        <ele>14.4</ele>
        <time>2025-09-23T09:40:08Z</time>
      </trkpt>
      <trkpt lat="48.70108" lon="-4.03844">
        <ele>14.4</ele>
        <time>2025-09-23T09:40:10Z</time>
      </trkpt>
      <trkpt lat="48.70099" lon="-4.03887">
        <ele>14.4</ele>
        <time>2025-09-23T09:40:18Z</time>
      </trkpt>
      <trkpt lat="48.70092" lon="-4.03915">
        <ele>14.4</ele>
        <time>2025-09-23T09:40:23Z</time>
      </trkpt>
      <trkpt lat="48.7009" lon="-4.03927">
        <ele>14.4</ele>
        <time>2025-09-23T09:40:25Z</time>
      </trkpt>
      <trkpt lat="48.70078" lon="-4.03965">
        <ele>14</ele>
        <time>2025-09-23T09:40:31Z</time>
      </trkpt>
      <trkpt lat="48.70071" lon="-4.03977">
        <ele>14</ele>
        <time>2025-09-23T09:40:33Z</time>
      </trkpt>
      <trkpt lat="48.70061" lon="-4.03995">
        <ele>14</ele>
        <time>2025-09-23T09:40:36Z</time>
      </trkpt>
      <trkpt lat="48.70052" lon="-4.04013">
        <ele>13.8</ele>
        <time>2025-09-23T09:40:39Z</time>
      </trkpt>
      <trkpt lat="48.70037" lon="-4.0404">
        <ele>13.8</ele>
        <time>2025-09-23T09:40:44Z</time>
      </trkpt>
      <trkpt lat="48.70025" lon="-4.04062">
        <ele>13.8</ele>
        <time>2025-09-23T09:40:48Z</time>
      </trkpt>
      <trkpt lat="48.70014" lon="-4.04085">
        <ele>13.8</ele>
        <time>2025-09-23T09:40:52Z</time>
      </trkpt>
      <trkpt lat="48.70008" lon="-4.04103">
        <ele>13.8</ele>
        <time>2025-09-23T09:40:55Z</time>
      </trkpt>
      <trkpt lat="48.69993" lon="-4.04162">
        <ele>13.8</ele>
        <time>2025-09-23T09:41:05Z</time>
      </trkpt>
      <trkpt lat="48.69985" lon="-4.04193">
        <ele>13.8</ele>
        <time>2025-09-23T09:41:10Z</time>
      </trkpt>
      <trkpt lat="48.69978" lon="-4.04226">
        <ele>14</ele>
        <time>2025-09-23T09:41:15Z</time>
      </trkpt>
      <trkpt lat="48.69966" lon="-4.04278">
        <ele>14</ele>
        <time>2025-09-23T09:41:23Z</time>
      </trkpt>
      <trkpt lat="48.69954" lon="-4.04324">
        <ele>13.6</ele>
        <time>2025-09-23T09:41:31Z</time>
      </trkpt>
      <trkpt lat="48.69948" lon="-4.04345">
        <ele>13.6</ele>
        <time>2025-09-23T09:41:35Z</time>
      </trkpt>
      <trkpt lat="48.69947" lon="-4.04357">
        <ele>13.8</ele>
        <time>2025-09-23T09:41:37Z</time>
      </trkpt>
      <trkpt lat="48.69946" lon="-4.04403">
        <ele>13.8</ele>
        <time>2025-09-23T09:41:45Z</time>
      </trkpt>
      <trkpt lat="48.69946" lon="-4.04461">
        <ele>13.8</ele>
        <time>2025-09-23T09:41:54Z</time>
      </trkpt>
      <trkpt lat="48.69944" lon="-4.04542">
        <ele>13.2</ele>
        <time>2025-09-23T09:42:05Z</time>
      </trkpt>
      <trkpt lat="48.69946" lon="-4.04565">
        <ele>13</ele>
        <time>2025-09-23T09:42:08Z</time>
      </trkpt>
      <trkpt lat="48.69948" lon="-4.04578">
        <ele>12.8</ele>
        <time>2025-09-23T09:42:10Z</time>
      </trkpt>
      <trkpt lat="48.69947" lon="-4.04592">
        <ele>12.6</ele>
        <time>2025-09-23T09:42:14Z</time>
      </trkpt>
      <trkpt lat="48.69942" lon="-4.0462">
        <ele>12.6</ele>
        <time>2025-09-23T09:42:20Z</time>
      </trkpt>
      <trkpt lat="48.69935" lon="-4.0465">
        <ele>12.4</ele>
        <time>2025-09-23T09:42:25Z</time>
      </trkpt>
      <trkpt lat="48.6993" lon="-4.04667">
        <ele>12.4</ele>
        <time>2025-09-23T09:42:28Z</time>
      </trkpt>
      <trkpt lat="48.6992" lon="-4.04715">
        <ele>12</ele>
        <time>2025-09-23T09:42:36Z</time>
      </trkpt>
      <trkpt lat="48.69919" lon="-4.04721">
        <ele>12</ele>
        <time>2025-09-23T09:42:37Z</time>
      </trkpt>
      <trkpt lat="48.69915" lon="-4.04733">
        <ele>11.8</ele>
        <time>2025-09-23T09:42:39Z</time>
      </trkpt>
      <trkpt lat="48.69908" lon="-4.04766">
        <ele>11.8</ele>
        <time>2025-09-23T09:42:44Z</time>
      </trkpt>
      <trkpt lat="48.69906" lon="-4.04773">
        <ele>11.8</ele>
        <time>2025-09-23T09:42:45Z</time>
      </trkpt>
      <trkpt lat="48.69899" lon="-4.04805">
        <ele>11.8</ele>
        <time>2025-09-23T09:42:50Z</time>
      </trkpt>
      <trkpt lat="48.69893" lon="-4.04828">
        <ele>11.6</ele>
        <time>2025-09-23T09:42:54Z</time>
      </trkpt>
      <trkpt lat="48.6988" lon="-4.04878">
        <ele>11.6</ele>
        <time>2025-09-23T09:43:03Z</time>
      </trkpt>
      <trkpt lat="48.69869" lon="-4.04926">
        <ele>11.2</ele>
        <time>2025-09-23T09:43:12Z</time>
      </trkpt>
      <trkpt lat="48.69867" lon="-4.04936">
        <ele>11.2</ele>
        <time>2025-09-23T09:43:14Z</time>
      </trkpt>
      <trkpt lat="48.69864" lon="-4.04945">
        <ele>11.2</ele>
        <time>2025-09-23T09:43:16Z</time>
      </trkpt>
      <trkpt lat="48.69859" lon="-4.04949">
        <ele>11.2</ele>
        <time>2025-09-23T09:43:18Z</time>
      </trkpt>
      <trkpt lat="48.6984" lon="-4.04946">
        <ele>11</ele>
        <time>2025-09-23T09:43:23Z</time>
      </trkpt>
      <trkpt lat="48.69815" lon="-4.04936">
        <ele>11</ele>
        <time>2025-09-23T09:43:29Z</time>
      </trkpt>
      <trkpt lat="48.69806" lon="-4.04933">
        <ele>10.8</ele>
        <time>2025-09-23T09:43:31Z</time>
      </trkpt>
      <trkpt lat="48.69802" lon="-4.04931">
        <ele>10.8</ele>
        <time>2025-09-23T09:43:32Z</time>
      </trkpt>
      <trkpt lat="48.69777" lon="-4.04921">
        <ele>10.8</ele>
        <time>2025-09-23T09:43:38Z</time>
      </trkpt>
      <trkpt lat="48.69745" lon="-4.04908">
        <ele>11.2</ele>
        <time>2025-09-23T09:43:46Z</time>
      </trkpt>
      <trkpt lat="48.69731" lon="-4.04888">
        <ele>11.2</ele>
        <time>2025-09-23T09:43:51Z</time>
      </trkpt>
      <trkpt lat="48.69723" lon="-4.04866">
        <ele>11</ele>
        <time>2025-09-23T09:43:55Z</time>
      </trkpt>
      <trkpt lat="48.69719" lon="-4.04865">
        <ele>11</ele>
        <time>2025-09-23T09:43:56Z</time>
      </trkpt>
      <trkpt lat="48.69715" lon="-4.0487">
        <ele>11</ele>
        <time>2025-09-23T09:43:58Z</time>
      </trkpt>
      <trkpt lat="48.69714" lon="-4.04874">
        <ele>11</ele>
        <time>2025-09-23T09:43:59Z</time>
      </trkpt>
      <trkpt lat="48.69714" lon="-4.04894">
        <ele>11.4</ele>
        <time>2025-09-23T09:44:03Z</time>
      </trkpt>
      <trkpt lat="48.69716" lon="-4.04899">
        <ele>11.6</ele>
        <time>2025-09-23T09:44:04Z</time>
      </trkpt>
      <trkpt lat="48.69731" lon="-4.04928">
        <ele>11.2</ele>
        <time>2025-09-23T09:44:10Z</time>
      </trkpt>
      <trkpt lat="48.69746" lon="-4.04955">
        <ele>11</ele>
        <time>2025-09-23T09:44:16Z</time>
      </trkpt>
      <trkpt lat="48.69762" lon="-4.04983">
        <ele>11</ele>
        <time>2025-09-23T09:44:23Z</time>
      </trkpt>
      <trkpt lat="48.69764" lon="-4.04987">
        <ele>11</ele>
        <time>2025-09-23T09:44:24Z</time>
      </trkpt>
      <trkpt lat="48.6977" lon="-4.04995">
        <ele>10.8</ele>
        <time>2025-09-23T09:44:26Z</time>
      </trkpt>
      <trkpt lat="48.69786" lon="-4.05022">
        <ele>10.8</ele>
        <time>2025-09-23T09:44:32Z</time>
      </trkpt>
      <trkpt lat="48.69819" lon="-4.05074">
        <ele>10.8</ele>
        <time>2025-09-23T09:44:44Z</time>
      </trkpt>
      <trkpt lat="48.69831" lon="-4.05092">
        <ele>10.6</ele>
        <time>2025-09-23T09:44:48Z</time>
      </trkpt>
      <trkpt lat="48.69843" lon="-4.05111">
        <ele>10.6</ele>
        <time>2025-09-23T09:44:52Z</time>
      </trkpt>
      <trkpt lat="48.69852" lon="-4.05126">
        <ele>10.8</ele>
        <time>2025-09-23T09:44:55Z</time>
      </trkpt>
      <trkpt lat="48.69876" lon="-4.05165">
        <ele>10.4</ele>
        <time>2025-09-23T09:45:03Z</time>
      </trkpt>
      <trkpt lat="48.69901" lon="-4.05208">
        <ele>10.4</ele>
        <time>2025-09-23T09:45:12Z</time>
      </trkpt>
      <trkpt lat="48.69934" lon="-4.05262">
        <ele>10.2</ele>
        <time>2025-09-23T09:45:23Z</time>
      </trkpt>
      <trkpt lat="48.69952" lon="-4.05293">
        <ele>9.8</ele>
        <time>2025-09-23T09:45:29Z</time>
      </trkpt>
      <trkpt lat="48.69957" lon="-4.05303">
        <ele>9.6</ele>
        <time>2025-09-23T09:45:31Z</time>
      </trkpt>
      <trkpt lat="48.69977" lon="-4.05337">
        <ele>9.8</ele>
        <time>2025-09-23T09:45:38Z</time>
      </trkpt>
      <trkpt lat="48.69998" lon="-4.05376">
        <ele>9.4</ele>
        <time>2025-09-23T09:45:45Z</time>
      </trkpt>
      <trkpt lat="48.70006" lon="-4.05393">
        <ele>9.6</ele>
        <time>2025-09-23T09:45:48Z</time>
      </trkpt>
      <trkpt lat="48.70024" lon="-4.05427">
        <ele>9.2</ele>
        <time>2025-09-23T09:45:54Z</time>
      </trkpt>
      <trkpt lat="48.7003" lon="-4.05437">
        <ele>9.2</ele>
        <time>2025-09-23T09:45:56Z</time>
      </trkpt>
      <trkpt lat="48.70055" lon="-4.05487">
        <ele>8.8</ele>
        <time>2025-09-23T09:46:06Z</time>
      </trkpt>
      <trkpt lat="48.70072" lon="-4.05523">
        <ele>8.8</ele>
        <time>2025-09-23T09:46:14Z</time>
      </trkpt>
      <trkpt lat="48.70076" lon="-4.05531">
        <ele>8.8</ele>
        <time>2025-09-23T09:46:16Z</time>
      </trkpt>
      <trkpt lat="48.70088" lon="-4.05558">
        <ele>8.6</ele>
        <time>2025-09-23T09:46:23Z</time>
      </trkpt>
      <trkpt lat="48.70092" lon="-4.05572">
        <ele>8.4</ele>
        <time>2025-09-23T09:46:27Z</time>
      </trkpt>
      <trkpt lat="48.70096" lon="-4.05582">
        <ele>8.4</ele>
        <time>2025-09-23T09:46:30Z</time>
      </trkpt>
      <trkpt lat="48.70103" lon="-4.05598">
        <ele>8.4</ele>
        <time>2025-09-23T09:46:35Z</time>
      </trkpt>
      <trkpt lat="48.7011" lon="-4.05609">
        <ele>8</ele>
        <time>2025-09-23T09:46:39Z</time>
      </trkpt>
      <trkpt lat="48.70112" lon="-4.05609">
        <ele>8</ele>
        <time>2025-09-23T09:46:40Z</time>
      </trkpt>
      <trkpt lat="48.70114" lon="-4.05609">
        <ele>7.8</ele>
        <time>2025-09-23T09:46:43Z</time>
      </trkpt>
      <trkpt lat="48.70114" lon="-4.0561">
        <ele>7.6</ele>
        <time>2025-09-23T09:46:50Z</time>
      </trkpt>
      <trkpt lat="48.70114" lon="-4.05611">
        <ele>7.6</ele>
        <time>2025-09-23T09:46:52Z</time>
      </trkpt>
      <trkpt lat="48.70114" lon="-4.05614">
        <ele>7.6</ele>
        <time>2025-09-23T09:47:56Z</time>
      </trkpt>
      <trkpt lat="48.70113" lon="-4.05615">
        <ele>7.6</ele>
        <time>2025-09-23T09:47:57Z</time>
      </trkpt>
      <trkpt lat="48.70113" lon="-4.05615">
        <ele>7.6</ele>
        <time>2025-09-23T09:47:58Z</time>
      </trkpt>
      <trkpt lat="48.70113" lon="-4.05616">
        <ele>7.6</ele>
        <time>2025-09-23T09:48:00Z</time>
      </trkpt>
      <trkpt lat="48.70113" lon="-4.05616">
        <ele>7.6</ele>
        <time>2025-09-23T09:48:36Z</time>
      </trkpt>
      <trkpt lat="48.70114" lon="-4.05617">
        <ele>7.6</ele>
        <time>2025-09-23T09:48:37Z</time>
      </trkpt>
      <trkpt lat="48.70116" lon="-4.05618">
        <ele>7.6</ele>
        <time>2025-09-23T09:48:39Z</time>
      </trkpt>
      <trkpt lat="48.70121" lon="-4.05624">
        <ele>7.4</ele>
        <time>2025-09-23T09:48:45Z</time>
      </trkpt>
      <trkpt lat="48.70122" lon="-4.05628">
        <ele>7.2</ele>
        <time>2025-09-23T09:48:48Z</time>
      </trkpt>
      <trkpt lat="48.70124" lon="-4.05632">
        <ele>7</ele>
        <time>2025-09-23T09:48:51Z</time>
      </trkpt>
      <trkpt lat="48.70125" lon="-4.05634">
        <ele>6.8</ele>
        <time>2025-09-23T09:48:53Z</time>
      </trkpt>
      <trkpt lat="48.70124" lon="-4.05634">
        <ele>6.8</ele>
        <time>2025-09-23T09:48:54Z</time>
      </trkpt>
      <trkpt lat="48.70124" lon="-4.05634">
        <ele>6.8</ele>
        <time>2025-09-23T09:49:37Z</time>
      </trkpt>
      <trkpt lat="48.70125" lon="-4.05634">
        <ele>6.8</ele>
        <time>2025-09-23T09:49:38Z</time>
      </trkpt>
      <trkpt lat="48.70124" lon="-4.05634">
        <ele>6.8</ele>
        <time>2025-09-23T09:49:39Z</time>
      </trkpt>
      <trkpt lat="48.70124" lon="-4.05632">
        <ele>6.6</ele>
        <time>2025-09-23T09:52:15Z</time>
      </trkpt>
      <trkpt lat="48.70122" lon="-4.0563">
        <ele>6.6</ele>
        <time>2025-09-23T09:52:18Z</time>
      </trkpt>
      <trkpt lat="48.70116" lon="-4.05619">
        <ele>6.8</ele>
        <time>2025-09-23T09:52:27Z</time>
      </trkpt>
      <trkpt lat="48.70115" lon="-4.05618">
        <ele>7</ele>
        <time>2025-09-23T09:52:28Z</time>
      </trkpt>
      <trkpt lat="48.70114" lon="-4.05615">
        <ele>7</ele>
        <time>2025-09-23T09:52:30Z</time>
      </trkpt>
      <trkpt lat="48.70114" lon="-4.05613">
        <ele>7.2</ele>
        <time>2025-09-23T09:52:32Z</time>
      </trkpt>
      <trkpt lat="48.70111" lon="-4.05608">
        <ele>7.4</ele>
        <time>2025-09-23T09:52:36Z</time>
      </trkpt>
      <trkpt lat="48.7011" lon="-4.05606">
        <ele>7.6</ele>
        <time>2025-09-23T09:52:38Z</time>
      </trkpt>
      <trkpt lat="48.70109" lon="-4.05604">
        <ele>7.6</ele>
        <time>2025-09-23T09:52:40Z</time>
      </trkpt>
      <trkpt lat="48.70108" lon="-4.05601">
        <ele>8</ele>
        <time>2025-09-23T09:52:45Z</time>
      </trkpt>
      <trkpt lat="48.70105" lon="-4.05596">
        <ele>8</ele>
        <time>2025-09-23T09:52:54Z</time>
      </trkpt>
      <trkpt lat="48.70104" lon="-4.05595">
        <ele>8</ele>
        <time>2025-09-23T09:53:00Z</time>
      </trkpt>
      <trkpt lat="48.70103" lon="-4.05591">
        <ele>8</ele>
        <time>2025-09-23T09:53:03Z</time>
      </trkpt>
      <trkpt lat="48.70098" lon="-4.0558">
        <ele>8.2</ele>
        <time>2025-09-23T09:53:09Z</time>
      </trkpt>
      <trkpt lat="48.70089" lon="-4.05572">
        <ele>8.2</ele>
        <time>2025-09-23T09:53:14Z</time>
      </trkpt>
      <trkpt lat="48.70078" lon="-4.05572">
        <ele>8.4</ele>
        <time>2025-09-23T09:53:19Z</time>
      </trkpt>
      <trkpt lat="48.70068" lon="-4.05564">
        <ele>8.4</ele>
        <time>2025-09-23T09:53:24Z</time>
      </trkpt>
      <trkpt lat="48.70055" lon="-4.05555">
        <ele>8.4</ele>
        <time>2025-09-23T09:53:29Z</time>
      </trkpt>
      <trkpt lat="48.70049" lon="-4.05551">
        <ele>8.6</ele>
        <time>2025-09-23T09:53:31Z</time>
      </trkpt>
      <trkpt lat="48.7004" lon="-4.05544">
        <ele>8.6</ele>
        <time>2025-09-23T09:53:34Z</time>
      </trkpt>
      <trkpt lat="48.70034" lon="-4.0554">
        <ele>8.6</ele>
        <time>2025-09-23T09:53:36Z</time>
      </trkpt>
      <trkpt lat="48.70025" lon="-4.05534">
        <ele>8.6</ele>
        <time>2025-09-23T09:53:39Z</time>
      </trkpt>
      <trkpt lat="48.70001" lon="-4.05516">
        <ele>8.6</ele>
        <time>2025-09-23T09:53:48Z</time>
      </trkpt>
      <trkpt lat="48.69998" lon="-4.05514">
        <ele>8.8</ele>
        <time>2025-09-23T09:53:49Z</time>
      </trkpt>
      <trkpt lat="48.69969" lon="-4.05494">
        <ele>8.6</ele>
        <time>2025-09-23T09:53:59Z</time>
      </trkpt>
      <trkpt lat="48.69948" lon="-4.05482">
        <ele>8.4</ele>
        <time>2025-09-23T09:54:06Z</time>
      </trkpt>
      <trkpt lat="48.69928" lon="-4.05474">
        <ele>8.2</ele>
        <time>2025-09-23T09:54:13Z</time>
      </trkpt>
      <trkpt lat="48.69899" lon="-4.0546">
        <ele>8.6</ele>
        <time>2025-09-23T09:54:23Z</time>
      </trkpt>
      <trkpt lat="48.69871" lon="-4.05443">
        <ele>9</ele>
        <time>2025-09-23T09:54:32Z</time>
      </trkpt>
      <trkpt lat="48.69847" lon="-4.0543">
        <ele>8.6</ele>
        <time>2025-09-23T09:54:40Z</time>
      </trkpt>
      <trkpt lat="48.69817" lon="-4.05415">
        <ele>8.6</ele>
        <time>2025-09-23T09:54:49Z</time>
      </trkpt>
      <trkpt lat="48.6979" lon="-4.05402">
        <ele>9</ele>
        <time>2025-09-23T09:54:58Z</time>
      </trkpt>
      <trkpt lat="48.69769" lon="-4.05392">
        <ele>9.2</ele>
        <time>2025-09-23T09:55:07Z</time>
      </trkpt>
      <trkpt lat="48.69748" lon="-4.05382">
        <ele>9.2</ele>
        <time>2025-09-23T09:55:14Z</time>
      </trkpt>
      <trkpt lat="48.69718" lon="-4.05363">
        <ele>9</ele>
        <time>2025-09-23T09:55:23Z</time>
      </trkpt>
      <trkpt lat="48.69707" lon="-4.05359">
        <ele>9</ele>
        <time>2025-09-23T09:55:26Z</time>
      </trkpt>
      <trkpt lat="48.69697" lon="-4.05353">
        <ele>9</ele>
        <time>2025-09-23T09:55:29Z</time>
      </trkpt>
      <trkpt lat="48.69673" lon="-4.05339">
        <ele>9.4</ele>
        <time>2025-09-23T09:55:37Z</time>
      </trkpt>
      <trkpt lat="48.69647" lon="-4.05326">
        <ele>9.4</ele>
        <time>2025-09-23T09:55:46Z</time>
      </trkpt>
      <trkpt lat="48.6963" lon="-4.05317">
        <ele>9.6</ele>
        <time>2025-09-23T09:55:51Z</time>
      </trkpt>
      <trkpt lat="48.6962" lon="-4.05311">
        <ele>9.6</ele>
        <time>2025-09-23T09:55:54Z</time>
      </trkpt>
      <trkpt lat="48.69593" lon="-4.05297">
        <ele>9.6</ele>
        <time>2025-09-23T09:56:02Z</time>
      </trkpt>
      <trkpt lat="48.6959" lon="-4.05295">
        <ele>9.6</ele>
        <time>2025-09-23T09:56:03Z</time>
      </trkpt>
      <trkpt lat="48.69562" lon="-4.05281">
        <ele>9.4</ele>
        <time>2025-09-23T09:56:11Z</time>
      </trkpt>
      <trkpt lat="48.69536" lon="-4.05269">
        <ele>9.4</ele>
        <time>2025-09-23T09:56:19Z</time>
      </trkpt>
      <trkpt lat="48.69519" lon="-4.05262">
        <ele>9.6</ele>
        <time>2025-09-23T09:56:26Z</time>
      </trkpt>
      <trkpt lat="48.69488" lon="-4.05245">
        <ele>9.6</ele>
        <time>2025-09-23T09:56:36Z</time>
      </trkpt>
      <trkpt lat="48.69485" lon="-4.05243">
        <ele>9.8</ele>
        <time>2025-09-23T09:56:37Z</time>
      </trkpt>
      <trkpt lat="48.69467" lon="-4.05235">
        <ele>9.8</ele>
        <time>2025-09-23T09:56:43Z</time>
      </trkpt>
      <trkpt lat="48.69464" lon="-4.05233">
        <ele>9.8</ele>
        <time>2025-09-23T09:56:44Z</time>
      </trkpt>
      <trkpt lat="48.69446" lon="-4.05224">
        <ele>10</ele>
        <time>2025-09-23T09:56:50Z</time>
      </trkpt>
      <trkpt lat="48.6944" lon="-4.05223">
        <ele>10</ele>
        <time>2025-09-23T09:56:52Z</time>
      </trkpt>
      <trkpt lat="48.69427" lon="-4.05211">
        <ele>10</ele>
        <time>2025-09-23T09:56:57Z</time>
      </trkpt>
      <trkpt lat="48.69413" lon="-4.05205">
        <ele>10</ele>
        <time>2025-09-23T09:57:02Z</time>
      </trkpt>
      <trkpt lat="48.69399" lon="-4.05201">
        <ele>10</ele>
        <time>2025-09-23T09:57:07Z</time>
      </trkpt>
      <trkpt lat="48.69393" lon="-4.05199">
        <ele>10</ele>
        <time>2025-09-23T09:57:09Z</time>
      </trkpt>
      <trkpt lat="48.6937" lon="-4.05192">
        <ele>10.2</ele>
        <time>2025-09-23T09:57:17Z</time>
      </trkpt>
      <trkpt lat="48.69349" lon="-4.05184">
        <ele>10.2</ele>
        <time>2025-09-23T09:57:25Z</time>
      </trkpt>
      <trkpt lat="48.6934" lon="-4.05177">
        <ele>10.2</ele>
        <time>2025-09-23T09:57:29Z</time>
      </trkpt>
      <trkpt lat="48.69339" lon="-4.05173">
        <ele>10.2</ele>
        <time>2025-09-23T09:57:30Z</time>
      </trkpt>
      <trkpt lat="48.69337" lon="-4.05157">
        <ele>10.2</ele>
        <time>2025-09-23T09:57:34Z</time>
      </trkpt>
      <trkpt lat="48.69336" lon="-4.05154">
        <ele>10.2</ele>
        <time>2025-09-23T09:57:35Z</time>
      </trkpt>
      <trkpt lat="48.69338" lon="-4.05135">
        <ele>10.6</ele>
        <time>2025-09-23T09:57:41Z</time>
      </trkpt>
      <trkpt lat="48.69341" lon="-4.05115">
        <ele>10.2</ele>
        <time>2025-09-23T09:57:46Z</time>
      </trkpt>
      <trkpt lat="48.69342" lon="-4.05086">
        <ele>10.2</ele>
        <time>2025-09-23T09:57:53Z</time>
      </trkpt>
      <trkpt lat="48.69346" lon="-4.05058">
        <ele>9.8</ele>
        <time>2025-09-23T09:57:58Z</time>
      </trkpt>
      <trkpt lat="48.69347" lon="-4.05053">
        <ele>9.6</ele>
        <time>2025-09-23T09:57:59Z</time>
      </trkpt>
      <trkpt lat="48.6935" lon="-4.05022">
        <ele>10</ele>
        <time>2025-09-23T09:58:06Z</time>
      </trkpt>
      <trkpt lat="48.6935" lon="-4.05011">
        <ele>10.2</ele>
        <time>2025-09-23T09:58:09Z</time>
      </trkpt>
      <trkpt lat="48.6935" lon="-4.04999">
        <ele>10.4</ele>
        <time>2025-09-23T09:58:13Z</time>
      </trkpt>
      <trkpt lat="48.69351" lon="-4.04993">
        <ele>10.8</ele>
        <time>2025-09-23T09:58:15Z</time>
      </trkpt>
      <trkpt lat="48.69352" lon="-4.04977">
        <ele>11</ele>
        <time>2025-09-23T09:58:20Z</time>
      </trkpt>
      <trkpt lat="48.69354" lon="-4.04952">
        <ele>10.6</ele>
        <time>2025-09-23T09:58:26Z</time>
      </trkpt>
      <trkpt lat="48.69354" lon="-4.04949">
        <ele>10.6</ele>
        <time>2025-09-23T09:58:29Z</time>
      </trkpt>
      <trkpt lat="48.69356" lon="-4.04942">
        <ele>10.4</ele>
        <time>2025-09-23T09:59:18Z</time>
      </trkpt>
      <trkpt lat="48.69356" lon="-4.04939">
        <ele>10.4</ele>
        <time>2025-09-23T09:59:19Z</time>
      </trkpt>
      <trkpt lat="48.69357" lon="-4.04922">
        <ele>10.4</ele>
        <time>2025-09-23T09:59:23Z</time>
      </trkpt>
      <trkpt lat="48.69359" lon="-4.0489">
        <ele>10</ele>
        <time>2025-09-23T09:59:30Z</time>
      </trkpt>
      <trkpt lat="48.69361" lon="-4.04863">
        <ele>10</ele>
        <time>2025-09-23T09:59:36Z</time>
      </trkpt>
      <trkpt lat="48.69362" lon="-4.04839">
        <ele>10</ele>
        <time>2025-09-23T09:59:41Z</time>
      </trkpt>
      <trkpt lat="48.69362" lon="-4.04835">
        <ele>10</ele>
        <time>2025-09-23T09:59:42Z</time>
      </trkpt>
      <trkpt lat="48.69363" lon="-4.0483">
        <ele>9.8</ele>
        <time>2025-09-23T09:59:43Z</time>
      </trkpt>
      <trkpt lat="48.69365" lon="-4.04813">
        <ele>9.6</ele>
        <time>2025-09-23T09:59:47Z</time>
      </trkpt>
      <trkpt lat="48.69366" lon="-4.048">
        <ele>9.6</ele>
        <time>2025-09-23T09:59:50Z</time>
      </trkpt>
      <trkpt lat="48.69369" lon="-4.04763">
        <ele>9.6</ele>
        <time>2025-09-23T09:59:58Z</time>
      </trkpt>
      <trkpt lat="48.6937" lon="-4.04743">
        <ele>9.8</ele>
        <time>2025-09-23T10:00:04Z</time>
      </trkpt>
      <trkpt lat="48.69374" lon="-4.0472">
        <ele>9.8</ele>
        <time>2025-09-23T10:00:10Z</time>
      </trkpt>
      <trkpt lat="48.69376" lon="-4.04716">
        <ele>9.6</ele>
        <time>2025-09-23T10:00:11Z</time>
      </trkpt>
      <trkpt lat="48.69376" lon="-4.04692">
        <ele>9.6</ele>
        <time>2025-09-23T10:00:16Z</time>
      </trkpt>
      <trkpt lat="48.69377" lon="-4.04675">
        <ele>9.6</ele>
        <time>2025-09-23T10:00:20Z</time>
      </trkpt>
      <trkpt lat="48.69378" lon="-4.04647">
        <ele>9.8</ele>
        <time>2025-09-23T10:00:27Z</time>
      </trkpt>
      <trkpt lat="48.6938" lon="-4.04624">
        <ele>10</ele>
        <time>2025-09-23T10:00:34Z</time>
      </trkpt>
      <trkpt lat="48.69382" lon="-4.04598">
        <ele>10</ele>
        <time>2025-09-23T10:00:41Z</time>
      </trkpt>
      <trkpt lat="48.69385" lon="-4.04573">
        <ele>10.4</ele>
        <time>2025-09-23T10:00:48Z</time>
      </trkpt>
      <trkpt lat="48.69386" lon="-4.04557">
        <ele>10.4</ele>
        <time>2025-09-23T10:00:53Z</time>
      </trkpt>
      <trkpt lat="48.69387" lon="-4.0455">
        <ele>10.4</ele>
        <time>2025-09-23T10:00:55Z</time>
      </trkpt>
      <trkpt lat="48.69389" lon="-4.04527">
        <ele>10.4</ele>
        <time>2025-09-23T10:01:01Z</time>
      </trkpt>
      <trkpt lat="48.69391" lon="-4.04501">
        <ele>10.8</ele>
        <time>2025-09-23T10:01:07Z</time>
      </trkpt>
      <trkpt lat="48.69391" lon="-4.04498">
        <ele>10.8</ele>
        <time>2025-09-23T10:01:08Z</time>
      </trkpt>
      <trkpt lat="48.69393" lon="-4.04468">
        <ele>10.4</ele>
        <time>2025-09-23T10:01:15Z</time>
      </trkpt>
      <trkpt lat="48.69395" lon="-4.04435">
        <ele>10.6</ele>
        <time>2025-09-23T10:01:23Z</time>
      </trkpt>
      <trkpt lat="48.69396" lon="-4.04406">
        <ele>10.6</ele>
        <time>2025-09-23T10:01:30Z</time>
      </trkpt>
      <trkpt lat="48.69398" lon="-4.04385">
        <ele>10.8</ele>
        <time>2025-09-23T10:01:35Z</time>
      </trkpt>
      <trkpt lat="48.694" lon="-4.0436">
        <ele>11.4</ele>
        <time>2025-09-23T10:01:41Z</time>
      </trkpt>
      <trkpt lat="48.69396" lon="-4.04342">
        <ele>11.6</ele>
        <time>2025-09-23T10:01:46Z</time>
      </trkpt>
      <trkpt lat="48.69397" lon="-4.04336">
        <ele>11.6</ele>
        <time>2025-09-23T10:01:50Z</time>
      </trkpt>
      <trkpt lat="48.69398" lon="-4.04331">
        <ele>11.6</ele>
        <time>2025-09-23T10:01:52Z</time>
      </trkpt>
      <trkpt lat="48.69397" lon="-4.0433">
        <ele>11.6</ele>
        <time>2025-09-23T10:01:53Z</time>
      </trkpt>
      <trkpt lat="48.69394" lon="-4.04321">
        <ele>11.6</ele>
        <time>2025-09-23T10:01:58Z</time>
      </trkpt>
      <trkpt lat="48.69394" lon="-4.04321">
        <ele>11.6</ele>
        <time>2025-09-23T10:02:00Z</time>
      </trkpt>
      <trkpt lat="48.69394" lon="-4.04321">
        <ele>11.2</ele>
        <time>2025-09-23T10:02:17Z</time>
      </trkpt>
      <trkpt lat="48.69397" lon="-4.04324">
        <ele>11.2</ele>
        <time>2025-09-23T10:02:19Z</time>
      </trkpt>
      <trkpt lat="48.69402" lon="-4.04326">
        <ele>11.4</ele>
        <time>2025-09-23T10:02:26Z</time>
      </trkpt>
      <trkpt lat="48.69404" lon="-4.04326">
        <ele>11.6</ele>
        <time>2025-09-23T10:02:34Z</time>
      </trkpt>
      <trkpt lat="48.69405" lon="-4.04325">
        <ele>11.8</ele>
        <time>2025-09-23T10:02:36Z</time>
      </trkpt>
      <trkpt lat="48.69406" lon="-4.04324">
        <ele>11.8</ele>
        <time>2025-09-23T10:02:37Z</time>
      </trkpt>
      <trkpt lat="48.69406" lon="-4.04321">
        <ele>11.8</ele>
        <time>2025-09-23T10:02:39Z</time>
      </trkpt>
      <trkpt lat="48.69403" lon="-4.04311">
        <ele>11.8</ele>
        <time>2025-09-23T10:02:43Z</time>
      </trkpt>
      <trkpt lat="48.69401" lon="-4.04303">
        <ele>11.8</ele>
        <time>2025-09-23T10:02:45Z</time>
      </trkpt>
      <trkpt lat="48.69392" lon="-4.04272">
        <ele>12</ele>
        <time>2025-09-23T10:02:52Z</time>
      </trkpt>
      <trkpt lat="48.69381" lon="-4.04238">
        <ele>12.2</ele>
        <time>2025-09-23T10:02:59Z</time>
      </trkpt>
      <trkpt lat="48.69378" lon="-4.04227">
        <ele>12.4</ele>
        <time>2025-09-23T10:03:01Z</time>
      </trkpt>
      <trkpt lat="48.69373" lon="-4.04213">
        <ele>12.8</ele>
        <time>2025-09-23T10:03:04Z</time>
      </trkpt>
      <trkpt lat="48.69365" lon="-4.04182">
        <ele>13</ele>
        <time>2025-09-23T10:03:10Z</time>
      </trkpt>
      <trkpt lat="48.6936" lon="-4.04166">
        <ele>13</ele>
        <time>2025-09-23T10:03:13Z</time>
      </trkpt>
      <trkpt lat="48.69348" lon="-4.04125">
        <ele>12.8</ele>
        <time>2025-09-23T10:03:21Z</time>
      </trkpt>
      <trkpt lat="48.69331" lon="-4.04066">
        <ele>13.2</ele>
        <time>2025-09-23T10:03:32Z</time>
      </trkpt>
      <trkpt lat="48.69316" lon="-4.04013">
        <ele>13.4</ele>
        <time>2025-09-23T10:03:42Z</time>
      </trkpt>
      <trkpt lat="48.69313" lon="-4.04003">
        <ele>13.6</ele>
        <time>2025-09-23T10:03:44Z</time>
      </trkpt>
      <trkpt lat="48.69298" lon="-4.03956">
        <ele>13.6</ele>
        <time>2025-09-23T10:03:54Z</time>
      </trkpt>
      <trkpt lat="48.69278" lon="-4.03899">
        <ele>13.8</ele>
        <time>2025-09-23T10:04:06Z</time>
      </trkpt>
      <trkpt lat="48.69256" lon="-4.0385">
        <ele>13.6</ele>
        <time>2025-09-23T10:04:16Z</time>
      </trkpt>
      <trkpt lat="48.6925" lon="-4.03838">
        <ele>13.6</ele>
        <time>2025-09-23T10:04:19Z</time>
      </trkpt>
      <trkpt lat="48.69242" lon="-4.03823">
        <ele>13.2</ele>
        <time>2025-09-23T10:04:23Z</time>
      </trkpt>
      <trkpt lat="48.6923" lon="-4.03803">
        <ele>12.8</ele>
        <time>2025-09-23T10:04:31Z</time>
      </trkpt>
      <trkpt lat="48.69215" lon="-4.03793">
        <ele>12.8</ele>
        <time>2025-09-23T10:04:36Z</time>
      </trkpt>
      <trkpt lat="48.69208" lon="-4.03772">
        <ele>13</ele>
        <time>2025-09-23T10:04:40Z</time>
      </trkpt>
      <trkpt lat="48.69206" lon="-4.03761">
        <ele>12.8</ele>
        <time>2025-09-23T10:04:42Z</time>
      </trkpt>
      <trkpt lat="48.69198" lon="-4.03727">
        <ele>12.8</ele>
        <time>2025-09-23T10:04:49Z</time>
      </trkpt>
      <trkpt lat="48.69181" lon="-4.03677">
        <ele>13</ele>
        <time>2025-09-23T10:04:59Z</time>
      </trkpt>
      <trkpt lat="48.69179" lon="-4.03673">
        <ele>13</ele>
        <time>2025-09-23T10:05:00Z</time>
      </trkpt>
      <trkpt lat="48.6916" lon="-4.03622">
        <ele>13.2</ele>
        <time>2025-09-23T10:05:10Z</time>
      </trkpt>
      <trkpt lat="48.69158" lon="-4.03617">
        <ele>13</ele>
        <time>2025-09-23T10:05:11Z</time>
      </trkpt>
      <trkpt lat="48.69142" lon="-4.03569">
        <ele>13.6</ele>
        <time>2025-09-23T10:05:20Z</time>
      </trkpt>
      <trkpt lat="48.69125" lon="-4.03523">
        <ele>13.2</ele>
        <time>2025-09-23T10:05:28Z</time>
      </trkpt>
      <trkpt lat="48.69107" lon="-4.03482">
        <ele>12.4</ele>
        <time>2025-09-23T10:05:35Z</time>
      </trkpt>
      <trkpt lat="48.69103" lon="-4.03478">
        <ele>12.2</ele>
        <time>2025-09-23T10:05:36Z</time>
      </trkpt>
      <trkpt lat="48.69098" lon="-4.03474">
        <ele>12.2</ele>
        <time>2025-09-23T10:05:37Z</time>
      </trkpt>
      <trkpt lat="48.69087" lon="-4.03472">
        <ele>12</ele>
        <time>2025-09-23T10:05:39Z</time>
      </trkpt>
      <trkpt lat="48.69074" lon="-4.03473">
        <ele>11.8</ele>
        <time>2025-09-23T10:05:41Z</time>
      </trkpt>
      <trkpt lat="48.69047" lon="-4.03476">
        <ele>10.6</ele>
        <time>2025-09-23T10:05:45Z</time>
      </trkpt>
      <trkpt lat="48.69041" lon="-4.03477">
        <ele>10.2</ele>
        <time>2025-09-23T10:05:46Z</time>
      </trkpt>
      <trkpt lat="48.6902" lon="-4.03481">
        <ele>9.4</ele>
        <time>2025-09-23T10:05:49Z</time>
      </trkpt>
      <trkpt lat="48.69013" lon="-4.03482">
        <ele>9.2</ele>
        <time>2025-09-23T10:05:50Z</time>
      </trkpt>
      <trkpt lat="48.68999" lon="-4.03485">
        <ele>9</ele>
        <time>2025-09-23T10:05:52Z</time>
      </trkpt>
      <trkpt lat="48.68971" lon="-4.03489">
        <ele>8.8</ele>
        <time>2025-09-23T10:05:56Z</time>
      </trkpt>
      <trkpt lat="48.6895" lon="-4.03494">
        <ele>8.4</ele>
        <time>2025-09-23T10:05:59Z</time>
      </trkpt>
      <trkpt lat="48.68937" lon="-4.03499">
        <ele>8</ele>
        <time>2025-09-23T10:06:01Z</time>
      </trkpt>
      <trkpt lat="48.68923" lon="-4.03505">
        <ele>7.8</ele>
        <time>2025-09-23T10:06:03Z</time>
      </trkpt>
      <trkpt lat="48.68885" lon="-4.03522">
        <ele>7.4</ele>
        <time>2025-09-23T10:06:09Z</time>
      </trkpt>
      <trkpt lat="48.68861" lon="-4.03535">
        <ele>7.2</ele>
        <time>2025-09-23T10:06:13Z</time>
      </trkpt>
      <trkpt lat="48.68812" lon="-4.03563">
        <ele>7.2</ele>
        <time>2025-09-23T10:06:21Z</time>
      </trkpt>
      <trkpt lat="48.68798" lon="-4.03562">
        <ele>7.2</ele>
        <time>2025-09-23T10:06:23Z</time>
      </trkpt>
      <trkpt lat="48.68778" lon="-4.03559">
        <ele>7.4</ele>
        <time>2025-09-23T10:06:26Z</time>
      </trkpt>
      <trkpt lat="48.6874" lon="-4.03546">
        <ele>7.6</ele>
        <time>2025-09-23T10:06:32Z</time>
      </trkpt>
      <trkpt lat="48.68724" lon="-4.03538">
        <ele>8.6</ele>
        <time>2025-09-23T10:06:35Z</time>
      </trkpt>
      <trkpt lat="48.68716" lon="-4.03532">
        <ele>9.2</ele>
        <time>2025-09-23T10:06:37Z</time>
      </trkpt>
      <trkpt lat="48.68709" lon="-4.03525">
        <ele>9.8</ele>
        <time>2025-09-23T10:06:39Z</time>
      </trkpt>
      <trkpt lat="48.68699" lon="-4.03518">
        <ele>10.6</ele>
        <time>2025-09-23T10:06:42Z</time>
      </trkpt>
      <trkpt lat="48.68695" lon="-4.03515">
        <ele>10.8</ele>
        <time>2025-09-23T10:06:43Z</time>
      </trkpt>
      <trkpt lat="48.6868" lon="-4.03503">
        <ele>12</ele>
        <time>2025-09-23T10:06:48Z</time>
      </trkpt>
      <trkpt lat="48.68676" lon="-4.03499">
        <ele>12.4</ele>
        <time>2025-09-23T10:06:50Z</time>
      </trkpt>
      <trkpt lat="48.68666" lon="-4.03493">
        <ele>12.8</ele>
        <time>2025-09-23T10:06:55Z</time>
      </trkpt>
      <trkpt lat="48.68662" lon="-4.0349">
        <ele>13</ele>
        <time>2025-09-23T10:06:57Z</time>
      </trkpt>
      <trkpt lat="48.68657" lon="-4.03488">
        <ele>13.2</ele>
        <time>2025-09-23T10:06:59Z</time>
      </trkpt>
      <trkpt lat="48.68646" lon="-4.03483">
        <ele>13.6</ele>
        <time>2025-09-23T10:07:03Z</time>
      </trkpt>
      <trkpt lat="48.68637" lon="-4.03478">
        <ele>13.8</ele>
        <time>2025-09-23T10:07:06Z</time>
      </trkpt>
      <trkpt lat="48.68627" lon="-4.03472">
        <ele>14.2</ele>
        <time>2025-09-23T10:07:10Z</time>
      </trkpt>
      <trkpt lat="48.68613" lon="-4.03464">
        <ele>14.4</ele>
        <time>2025-09-23T10:07:15Z</time>
      </trkpt>
      <trkpt lat="48.68585" lon="-4.03449">
        <ele>14.6</ele>
        <time>2025-09-23T10:07:24Z</time>
      </trkpt>
      <trkpt lat="48.68555" lon="-4.03431">
        <ele>14.4</ele>
        <time>2025-09-23T10:07:34Z</time>
      </trkpt>
      <trkpt lat="48.68532" lon="-4.0342">
        <ele>13.8</ele>
        <time>2025-09-23T10:07:41Z</time>
      </trkpt>
      <trkpt lat="48.68525" lon="-4.0342">
        <ele>13.8</ele>
        <time>2025-09-23T10:07:43Z</time>
      </trkpt>
      <trkpt lat="48.68511" lon="-4.03432">
        <ele>13.8</ele>
        <time>2025-09-23T10:07:47Z</time>
      </trkpt>
      <trkpt lat="48.68497" lon="-4.03467">
        <ele>13.6</ele>
        <time>2025-09-23T10:07:54Z</time>
      </trkpt>
      <trkpt lat="48.68483" lon="-4.03504">
        <ele>13.4</ele>
        <time>2025-09-23T10:08:02Z</time>
      </trkpt>
      <trkpt lat="48.68481" lon="-4.03508">
        <ele>13.4</ele>
        <time>2025-09-23T10:08:03Z</time>
      </trkpt>
      <trkpt lat="48.68474" lon="-4.0352">
        <ele>13.4</ele>
        <time>2025-09-23T10:08:06Z</time>
      </trkpt>
      <trkpt lat="48.6846" lon="-4.03542">
        <ele>13.6</ele>
        <time>2025-09-23T10:08:12Z</time>
      </trkpt>
      <trkpt lat="48.68456" lon="-4.0355">
        <ele>13.4</ele>
        <time>2025-09-23T10:08:14Z</time>
      </trkpt>
      <trkpt lat="48.68454" lon="-4.03554">
        <ele>13.4</ele>
        <time>2025-09-23T10:08:15Z</time>
      </trkpt>
      <trkpt lat="48.68451" lon="-4.03562">
        <ele>13.2</ele>
        <time>2025-09-23T10:08:17Z</time>
      </trkpt>
      <trkpt lat="48.68449" lon="-4.03571">
        <ele>13.2</ele>
        <time>2025-09-23T10:08:19Z</time>
      </trkpt>
      <trkpt lat="48.68448" lon="-4.03576">
        <ele>13.2</ele>
        <time>2025-09-23T10:08:20Z</time>
      </trkpt>
      <trkpt lat="48.68438" lon="-4.03627">
        <ele>13.2</ele>
        <time>2025-09-23T10:08:30Z</time>
      </trkpt>
      <trkpt lat="48.68431" lon="-4.03666">
        <ele>14</ele>
        <time>2025-09-23T10:08:38Z</time>
      </trkpt>
      <trkpt lat="48.6843" lon="-4.03675">
        <ele>14.2</ele>
        <time>2025-09-23T10:08:40Z</time>
      </trkpt>
      <trkpt lat="48.68424" lon="-4.03707">
        <ele>15.2</ele>
        <time>2025-09-23T10:08:47Z</time>
      </trkpt>
      <trkpt lat="48.68424" lon="-4.03712">
        <ele>15.4</ele>
        <time>2025-09-23T10:08:48Z</time>
      </trkpt>
      <trkpt lat="48.68418" lon="-4.03736">
        <ele>15.6</ele>
        <time>2025-09-23T10:08:53Z</time>
      </trkpt>
      <trkpt lat="48.68412" lon="-4.03755">
        <ele>15.2</ele>
        <time>2025-09-23T10:08:57Z</time>
      </trkpt>
      <trkpt lat="48.68394" lon="-4.03806">
        <ele>14.8</ele>
        <time>2025-09-23T10:09:06Z</time>
      </trkpt>
      <trkpt lat="48.68387" lon="-4.03823">
        <ele>14.6</ele>
        <time>2025-09-23T10:09:09Z</time>
      </trkpt>
      <trkpt lat="48.68373" lon="-4.03864">
        <ele>14.6</ele>
        <time>2025-09-23T10:09:16Z</time>
      </trkpt>
      <trkpt lat="48.68352" lon="-4.0392">
        <ele>14.8</ele>
        <time>2025-09-23T10:09:26Z</time>
      </trkpt>
      <trkpt lat="48.68344" lon="-4.03943">
        <ele>15</ele>
        <time>2025-09-23T10:09:30Z</time>
      </trkpt>
      <trkpt lat="48.68326" lon="-4.03985">
        <ele>15.4</ele>
        <time>2025-09-23T10:09:38Z</time>
      </trkpt>
      <trkpt lat="48.68318" lon="-4.03998">
        <ele>15.4</ele>
        <time>2025-09-23T10:09:41Z</time>
      </trkpt>
      <trkpt lat="48.68304" lon="-4.04018">
        <ele>15.6</ele>
        <time>2025-09-23T10:09:46Z</time>
      </trkpt>
      <trkpt lat="48.68267" lon="-4.04072">
        <ele>16</ele>
        <time>2025-09-23T10:09:59Z</time>
      </trkpt>
      <trkpt lat="48.6825" lon="-4.04097">
        <ele>16.2</ele>
        <time>2025-09-23T10:10:05Z</time>
      </trkpt>
      <trkpt lat="48.68238" lon="-4.04113">
        <ele>16.6</ele>
        <time>2025-09-23T10:10:09Z</time>
      </trkpt>
      <trkpt lat="48.68212" lon="-4.04135">
        <ele>17.2</ele>
        <time>2025-09-23T10:10:17Z</time>
      </trkpt>
      <trkpt lat="48.682" lon="-4.04141">
        <ele>17.2</ele>
        <time>2025-09-23T10:10:20Z</time>
      </trkpt>
      <trkpt lat="48.68182" lon="-4.0415">
        <ele>17.4</ele>
        <time>2025-09-23T10:10:25Z</time>
      </trkpt>
      <trkpt lat="48.68149" lon="-4.04168">
        <ele>17.4</ele>
        <time>2025-09-23T10:10:34Z</time>
      </trkpt>
      <trkpt lat="48.68116" lon="-4.04192">
        <ele>17.8</ele>
        <time>2025-09-23T10:10:44Z</time>
      </trkpt>
      <trkpt lat="48.68109" lon="-4.04197">
        <ele>17.8</ele>
        <time>2025-09-23T10:10:46Z</time>
      </trkpt>
      <trkpt lat="48.68106" lon="-4.04199">
        <ele>18</ele>
        <time>2025-09-23T10:10:47Z</time>
      </trkpt>
      <trkpt lat="48.68103" lon="-4.04202">
        <ele>18</ele>
        <time>2025-09-23T10:10:48Z</time>
      </trkpt>
      <trkpt lat="48.68087" lon="-4.04214">
        <ele>18.4</ele>
        <time>2025-09-23T10:10:53Z</time>
      </trkpt>
      <trkpt lat="48.68074" lon="-4.04224">
        <ele>18.8</ele>
        <time>2025-09-23T10:10:57Z</time>
      </trkpt>
      <trkpt lat="48.68041" lon="-4.04249">
        <ele>19.4</ele>
        <time>2025-09-23T10:11:07Z</time>
      </trkpt>
      <trkpt lat="48.68008" lon="-4.04273">
        <ele>20.4</ele>
        <time>2025-09-23T10:11:18Z</time>
      </trkpt>
      <trkpt lat="48.67982" lon="-4.04294">
        <ele>21.4</ele>
        <time>2025-09-23T10:11:27Z</time>
      </trkpt>
      <trkpt lat="48.6798" lon="-4.04297">
        <ele>21.6</ele>
        <time>2025-09-23T10:11:28Z</time>
      </trkpt>
      <trkpt lat="48.67966" lon="-4.04311">
        <ele>22.6</ele>
        <time>2025-09-23T10:11:33Z</time>
      </trkpt>
      <trkpt lat="48.6796" lon="-4.04317">
        <ele>23</ele>
        <time>2025-09-23T10:11:35Z</time>
      </trkpt>
      <trkpt lat="48.67947" lon="-4.04332">
        <ele>23.4</ele>
        <time>2025-09-23T10:11:40Z</time>
      </trkpt>
      <trkpt lat="48.67939" lon="-4.04341">
        <ele>23.8</ele>
        <time>2025-09-23T10:11:43Z</time>
      </trkpt>
      <trkpt lat="48.67936" lon="-4.04344">
        <ele>23.8</ele>
        <time>2025-09-23T10:11:44Z</time>
      </trkpt>
      <trkpt lat="48.6793" lon="-4.04352">
        <ele>24.2</ele>
        <time>2025-09-23T10:11:47Z</time>
      </trkpt>
      <trkpt lat="48.67922" lon="-4.04363">
        <ele>24.6</ele>
        <time>2025-09-23T10:11:51Z</time>
      </trkpt>
      <trkpt lat="48.6792" lon="-4.04365">
        <ele>24.8</ele>
        <time>2025-09-23T10:11:52Z</time>
      </trkpt>
      <trkpt lat="48.67911" lon="-4.04378">
        <ele>26</ele>
        <time>2025-09-23T10:11:57Z</time>
      </trkpt>
      <trkpt lat="48.67906" lon="-4.04385">
        <ele>26.4</ele>
        <time>2025-09-23T10:12:00Z</time>
      </trkpt>
      <trkpt lat="48.67892" lon="-4.04401">
        <ele>27</ele>
        <time>2025-09-23T10:12:07Z</time>
      </trkpt>
      <trkpt lat="48.67885" lon="-4.04411">
        <ele>27.2</ele>
        <time>2025-09-23T10:12:11Z</time>
      </trkpt>
      <trkpt lat="48.67866" lon="-4.0444">
        <ele>27.6</ele>
        <time>2025-09-23T10:12:20Z</time>
      </trkpt>
      <trkpt lat="48.67855" lon="-4.04459">
        <ele>27.8</ele>
        <time>2025-09-23T10:12:25Z</time>
      </trkpt>
      <trkpt lat="48.67847" lon="-4.04472">
        <ele>27.8</ele>
        <time>2025-09-23T10:12:28Z</time>
      </trkpt>
      <trkpt lat="48.67845" lon="-4.04476">
        <ele>28</ele>
        <time>2025-09-23T10:12:29Z</time>
      </trkpt>
      <trkpt lat="48.67843" lon="-4.0448">
        <ele>28</ele>
        <time>2025-09-23T10:12:30Z</time>
      </trkpt>
      <trkpt lat="48.67823" lon="-4.04505">
        <ele>27.8</ele>
        <time>2025-09-23T10:12:37Z</time>
      </trkpt>
      <trkpt lat="48.67807" lon="-4.04518">
        <ele>27.4</ele>
        <time>2025-09-23T10:12:44Z</time>
      </trkpt>
      <trkpt lat="48.67788" lon="-4.04532">
        <ele>27.4</ele>
        <time>2025-09-23T10:12:52Z</time>
      </trkpt>
      <trkpt lat="48.67781" lon="-4.04537">
        <ele>27.4</ele>
        <time>2025-09-23T10:12:55Z</time>
      </trkpt>
      <trkpt lat="48.67776" lon="-4.0454">
        <ele>27.4</ele>
        <time>2025-09-23T10:12:57Z</time>
      </trkpt>
      <trkpt lat="48.67774" lon="-4.04542">
        <ele>27.4</ele>
        <time>2025-09-23T10:12:58Z</time>
      </trkpt>
      <trkpt lat="48.67768" lon="-4.04544">
        <ele>27.2</ele>
        <time>2025-09-23T10:13:00Z</time>
      </trkpt>
      <trkpt lat="48.67755" lon="-4.04552">
        <ele>27.4</ele>
        <time>2025-09-23T10:13:05Z</time>
      </trkpt>
      <trkpt lat="48.67742" lon="-4.04558">
        <ele>27</ele>
        <time>2025-09-23T10:13:09Z</time>
      </trkpt>
      <trkpt lat="48.67732" lon="-4.04563">
        <ele>26.6</ele>
        <time>2025-09-23T10:13:12Z</time>
      </trkpt>
      <trkpt lat="48.67725" lon="-4.04566">
        <ele>26.6</ele>
        <time>2025-09-23T10:13:14Z</time>
      </trkpt>
      <trkpt lat="48.67696" lon="-4.04579">
        <ele>26.2</ele>
        <time>2025-09-23T10:13:23Z</time>
      </trkpt>
      <trkpt lat="48.67689" lon="-4.04589">
        <ele>26</ele>
        <time>2025-09-23T10:13:27Z</time>
      </trkpt>
      <trkpt lat="48.67688" lon="-4.04591">
        <ele>25.8</ele>
        <time>2025-09-23T10:13:28Z</time>
      </trkpt>
      <trkpt lat="48.67681" lon="-4.04594">
        <ele>25.4</ele>
        <time>2025-09-23T10:13:32Z</time>
      </trkpt>
      <trkpt lat="48.67665" lon="-4.04584">
        <ele>25.6</ele>
        <time>2025-09-23T10:13:38Z</time>
      </trkpt>
      <trkpt lat="48.67654" lon="-4.04577">
        <ele>25.8</ele>
        <time>2025-09-23T10:13:42Z</time>
      </trkpt>
      <trkpt lat="48.67645" lon="-4.04573">
        <ele>26</ele>
        <time>2025-09-23T10:13:45Z</time>
      </trkpt>
      <trkpt lat="48.67629" lon="-4.04567">
        <ele>26.6</ele>
        <time>2025-09-23T10:13:50Z</time>
      </trkpt>
      <trkpt lat="48.67615" lon="-4.04562">
        <ele>26.8</ele>
        <time>2025-09-23T10:13:54Z</time>
      </trkpt>
      <trkpt lat="48.67612" lon="-4.04561">
        <ele>27</ele>
        <time>2025-09-23T10:13:55Z</time>
      </trkpt>
      <trkpt lat="48.67576" lon="-4.04549">
        <ele>27.8</ele>
        <time>2025-09-23T10:14:06Z</time>
      </trkpt>
      <trkpt lat="48.67573" lon="-4.04548">
        <ele>28</ele>
        <time>2025-09-23T10:14:07Z</time>
      </trkpt>
      <trkpt lat="48.67543" lon="-4.04538">
        <ele>29</ele>
        <time>2025-09-23T10:14:16Z</time>
      </trkpt>
      <trkpt lat="48.67534" lon="-4.04534">
        <ele>29.2</ele>
        <time>2025-09-23T10:14:19Z</time>
      </trkpt>
      <trkpt lat="48.67509" lon="-4.04526">
        <ele>30</ele>
        <time>2025-09-23T10:14:27Z</time>
      </trkpt>
      <trkpt lat="48.67503" lon="-4.04524">
        <ele>30</ele>
        <time>2025-09-23T10:14:29Z</time>
      </trkpt>
      <trkpt lat="48.67488" lon="-4.04519">
        <ele>30.4</ele>
        <time>2025-09-23T10:14:34Z</time>
      </trkpt>
      <trkpt lat="48.67482" lon="-4.04517">
        <ele>30.6</ele>
        <time>2025-09-23T10:14:36Z</time>
      </trkpt>
      <trkpt lat="48.6747" lon="-4.04512">
        <ele>31</ele>
        <time>2025-09-23T10:14:40Z</time>
      </trkpt>
      <trkpt lat="48.67466" lon="-4.04511">
        <ele>31</ele>
        <time>2025-09-23T10:14:41Z</time>
      </trkpt>
      <trkpt lat="48.67431" lon="-4.04499">
        <ele>31.8</ele>
        <time>2025-09-23T10:14:52Z</time>
      </trkpt>
      <trkpt lat="48.67422" lon="-4.04496">
        <ele>32</ele>
        <time>2025-09-23T10:14:55Z</time>
      </trkpt>
      <trkpt lat="48.67396" lon="-4.04487">
        <ele>32.8</ele>
        <time>2025-09-23T10:15:03Z</time>
      </trkpt>
      <trkpt lat="48.67383" lon="-4.04483">
        <ele>33</ele>
        <time>2025-09-23T10:15:07Z</time>
      </trkpt>
      <trkpt lat="48.67367" lon="-4.04478">
        <ele>33.4</ele>
        <time>2025-09-23T10:15:12Z</time>
      </trkpt>
      <trkpt lat="48.67339" lon="-4.04468">
        <ele>34.2</ele>
        <time>2025-09-23T10:15:21Z</time>
      </trkpt>
      <trkpt lat="48.67315" lon="-4.0446">
        <ele>34.8</ele>
        <time>2025-09-23T10:15:29Z</time>
      </trkpt>
      <trkpt lat="48.67293" lon="-4.04452">
        <ele>35.2</ele>
        <time>2025-09-23T10:15:38Z</time>
      </trkpt>
      <trkpt lat="48.67288" lon="-4.04451">
        <ele>35.2</ele>
        <time>2025-09-23T10:15:40Z</time>
      </trkpt>
      <trkpt lat="48.67271" lon="-4.04446">
        <ele>35.4</ele>
        <time>2025-09-23T10:15:47Z</time>
      </trkpt>
      <trkpt lat="48.67255" lon="-4.0444">
        <ele>36</ele>
        <time>2025-09-23T10:15:54Z</time>
      </trkpt>
      <trkpt lat="48.67248" lon="-4.04436">
        <ele>36.2</ele>
        <time>2025-09-23T10:15:57Z</time>
      </trkpt>
      <trkpt lat="48.67234" lon="-4.0443">
        <ele>36</ele>
        <time>2025-09-23T10:16:03Z</time>
      </trkpt>
      <trkpt lat="48.67222" lon="-4.04425">
        <ele>36.6</ele>
        <time>2025-09-23T10:16:09Z</time>
      </trkpt>
      <trkpt lat="48.67211" lon="-4.04423">
        <ele>36.6</ele>
        <time>2025-09-23T10:16:15Z</time>
      </trkpt>
      <trkpt lat="48.67197" lon="-4.04421">
        <ele>36.6</ele>
        <time>2025-09-23T10:16:21Z</time>
      </trkpt>
      <trkpt lat="48.67177" lon="-4.04415">
        <ele>37</ele>
        <time>2025-09-23T10:16:28Z</time>
      </trkpt>
      <trkpt lat="48.67164" lon="-4.04411">
        <ele>37.2</ele>
        <time>2025-09-23T10:16:32Z</time>
      </trkpt>
      <trkpt lat="48.67158" lon="-4.04409">
        <ele>37.2</ele>
        <time>2025-09-23T10:16:34Z</time>
      </trkpt>
      <trkpt lat="48.67131" lon="-4.044">
        <ele>37.6</ele>
        <time>2025-09-23T10:16:42Z</time>
      </trkpt>
      <trkpt lat="48.67095" lon="-4.04389">
        <ele>37.8</ele>
        <time>2025-09-23T10:16:52Z</time>
      </trkpt>
      <trkpt lat="48.67063" lon="-4.04377">
        <ele>38.2</ele>
        <time>2025-09-23T10:17:01Z</time>
      </trkpt>
      <trkpt lat="48.67059" lon="-4.04376">
        <ele>38.2</ele>
        <time>2025-09-23T10:17:02Z</time>
      </trkpt>
      <trkpt lat="48.67026" lon="-4.04365">
        <ele>38.2</ele>
        <time>2025-09-23T10:17:11Z</time>
      </trkpt>
      <trkpt lat="48.66998" lon="-4.04354">
        <ele>38.8</ele>
        <time>2025-09-23T10:17:19Z</time>
      </trkpt>
      <trkpt lat="48.6699" lon="-4.04351">
        <ele>38.8</ele>
        <time>2025-09-23T10:17:21Z</time>
      </trkpt>
      <trkpt lat="48.66985" lon="-4.04351">
        <ele>38.8</ele>
        <time>2025-09-23T10:17:24Z</time>
      </trkpt>
      <trkpt lat="48.66986" lon="-4.04352">
        <ele>38.8</ele>
        <time>2025-09-23T10:17:25Z</time>
      </trkpt>
      <trkpt lat="48.66987" lon="-4.04357">
        <ele>39</ele>
        <time>2025-09-23T10:17:27Z</time>
      </trkpt>
      <trkpt lat="48.66985" lon="-4.04363">
        <ele>38.6</ele>
        <time>2025-09-23T10:17:30Z</time>
      </trkpt>
      <trkpt lat="48.66981" lon="-4.04373">
        <ele>38</ele>
        <time>2025-09-23T10:17:37Z</time>
      </trkpt>
      <trkpt lat="48.66976" lon="-4.04383">
        <ele>37.6</ele>
        <time>2025-09-23T10:17:41Z</time>
      </trkpt>
      <trkpt lat="48.66974" lon="-4.04387">
        <ele>37.6</ele>
        <time>2025-09-23T10:17:42Z</time>
      </trkpt>
      <trkpt lat="48.66964" lon="-4.04405">
        <ele>37.4</ele>
        <time>2025-09-23T10:17:46Z</time>
      </trkpt>
      <trkpt lat="48.66961" lon="-4.04411">
        <ele>37.2</ele>
        <time>2025-09-23T10:17:47Z</time>
      </trkpt>
      <trkpt lat="48.66959" lon="-4.04416">
        <ele>37.2</ele>
        <time>2025-09-23T10:17:48Z</time>
      </trkpt>
      <trkpt lat="48.66936" lon="-4.0446">
        <ele>36.2</ele>
        <time>2025-09-23T10:17:56Z</time>
      </trkpt>
      <trkpt lat="48.66934" lon="-4.04464">
        <ele>36</ele>
        <time>2025-09-23T10:17:57Z</time>
      </trkpt>
      <trkpt lat="48.66919" lon="-4.04492">
        <ele>35.4</ele>
        <time>2025-09-23T10:18:04Z</time>
      </trkpt>
      <trkpt lat="48.66911" lon="-4.04507">
        <ele>35</ele>
        <time>2025-09-23T10:18:07Z</time>
      </trkpt>
      <trkpt lat="48.66905" lon="-4.04521">
        <ele>34.4</ele>
        <time>2025-09-23T10:18:10Z</time>
      </trkpt>
      <trkpt lat="48.669" lon="-4.04531">
        <ele>34.2</ele>
        <time>2025-09-23T10:18:12Z</time>
      </trkpt>
      <trkpt lat="48.66892" lon="-4.0455">
        <ele>34</ele>
        <time>2025-09-23T10:18:16Z</time>
      </trkpt>
      <trkpt lat="48.66883" lon="-4.04571">
        <ele>33.6</ele>
        <time>2025-09-23T10:18:20Z</time>
      </trkpt>
      <trkpt lat="48.66878" lon="-4.0459">
        <ele>33.4</ele>
        <time>2025-09-23T10:18:23Z</time>
      </trkpt>
      <trkpt lat="48.66875" lon="-4.04603">
        <ele>33</ele>
        <time>2025-09-23T10:18:25Z</time>
      </trkpt>
      <trkpt lat="48.66873" lon="-4.0461">
        <ele>33</ele>
        <time>2025-09-23T10:18:26Z</time>
      </trkpt>
      <trkpt lat="48.66861" lon="-4.04654">
        <ele>32</ele>
        <time>2025-09-23T10:18:33Z</time>
      </trkpt>
      <trkpt lat="48.66859" lon="-4.0466">
        <ele>32</ele>
        <time>2025-09-23T10:18:34Z</time>
      </trkpt>
      <trkpt lat="48.66852" lon="-4.04689">
        <ele>31.2</ele>
        <time>2025-09-23T10:18:39Z</time>
      </trkpt>
      <trkpt lat="48.66849" lon="-4.0471">
        <ele>31</ele>
        <time>2025-09-23T10:18:42Z</time>
      </trkpt>
      <trkpt lat="48.66846" lon="-4.04732">
        <ele>30.6</ele>
        <time>2025-09-23T10:18:45Z</time>
      </trkpt>
      <trkpt lat="48.66842" lon="-4.04765">
        <ele>29.8</ele>
        <time>2025-09-23T10:18:49Z</time>
      </trkpt>
      <trkpt lat="48.6684" lon="-4.04791">
        <ele>29.2</ele>
        <time>2025-09-23T10:18:52Z</time>
      </trkpt>
      <trkpt lat="48.6684" lon="-4.04827">
        <ele>28.8</ele>
        <time>2025-09-23T10:18:56Z</time>
      </trkpt>
      <trkpt lat="48.66841" lon="-4.04858">
        <ele>28.2</ele>
        <time>2025-09-23T10:19:00Z</time>
      </trkpt>
      <trkpt lat="48.6684" lon="-4.04896">
        <ele>27.6</ele>
        <time>2025-09-23T10:19:05Z</time>
      </trkpt>
      <trkpt lat="48.66841" lon="-4.04903">
        <ele>27.4</ele>
        <time>2025-09-23T10:19:06Z</time>
      </trkpt>
      <trkpt lat="48.66841" lon="-4.04944">
        <ele>26.6</ele>
        <time>2025-09-23T10:19:13Z</time>
      </trkpt>
      <trkpt lat="48.6684" lon="-4.04984">
        <ele>25.6</ele>
        <time>2025-09-23T10:19:21Z</time>
      </trkpt>
      <trkpt lat="48.6684" lon="-4.04992">
        <ele>25.4</ele>
        <time>2025-09-23T10:19:23Z</time>
      </trkpt>
      <trkpt lat="48.66838" lon="-4.0501">
        <ele>25</ele>
        <time>2025-09-23T10:19:27Z</time>
      </trkpt>
      <trkpt lat="48.66838" lon="-4.05057">
        <ele>24.6</ele>
        <time>2025-09-23T10:19:36Z</time>
      </trkpt>
      <trkpt lat="48.66838" lon="-4.05066">
        <ele>24.4</ele>
        <time>2025-09-23T10:19:38Z</time>
      </trkpt>
      <trkpt lat="48.66835" lon="-4.05097">
        <ele>24.4</ele>
        <time>2025-09-23T10:19:44Z</time>
      </trkpt>
      <trkpt lat="48.66833" lon="-4.05109">
        <ele>24.4</ele>
        <time>2025-09-23T10:19:46Z</time>
      </trkpt>
      <trkpt lat="48.66832" lon="-4.05114">
        <ele>24.4</ele>
        <time>2025-09-23T10:19:47Z</time>
      </trkpt>
      <trkpt lat="48.6683" lon="-4.0513">
        <ele>24.2</ele>
        <time>2025-09-23T10:19:50Z</time>
      </trkpt>
      <trkpt lat="48.66825" lon="-4.05153">
        <ele>24.2</ele>
        <time>2025-09-23T10:19:55Z</time>
      </trkpt>
      <trkpt lat="48.66812" lon="-4.05188">
        <ele>24.2</ele>
        <time>2025-09-23T10:20:03Z</time>
      </trkpt>
      <trkpt lat="48.66794" lon="-4.05223">
        <ele>24.2</ele>
        <time>2025-09-23T10:20:13Z</time>
      </trkpt>
      <trkpt lat="48.66783" lon="-4.05239">
        <ele>23.8</ele>
        <time>2025-09-23T10:20:18Z</time>
      </trkpt>
      <trkpt lat="48.66781" lon="-4.05243">
        <ele>23.8</ele>
        <time>2025-09-23T10:20:19Z</time>
      </trkpt>
      <trkpt lat="48.66769" lon="-4.05264">
        <ele>23.8</ele>
        <time>2025-09-23T10:20:25Z</time>
      </trkpt>
      <trkpt lat="48.6676" lon="-4.05279">
        <ele>23.8</ele>
        <time>2025-09-23T10:20:30Z</time>
      </trkpt>
      <trkpt lat="48.66758" lon="-4.05282">
        <ele>23.8</ele>
        <time>2025-09-23T10:20:31Z</time>
      </trkpt>
      <trkpt lat="48.6675" lon="-4.05294">
        <ele>24</ele>
        <time>2025-09-23T10:20:36Z</time>
      </trkpt>
      <trkpt lat="48.66748" lon="-4.05296">
        <ele>24</ele>
        <time>2025-09-23T10:20:37Z</time>
      </trkpt>
      <trkpt lat="48.66738" lon="-4.05311">
        <ele>24.2</ele>
        <time>2025-09-23T10:20:43Z</time>
      </trkpt>
      <trkpt lat="48.66736" lon="-4.05313">
        <ele>24.2</ele>
        <time>2025-09-23T10:20:44Z</time>
      </trkpt>
      <trkpt lat="48.66728" lon="-4.05326">
        <ele>24.2</ele>
        <time>2025-09-23T10:20:48Z</time>
      </trkpt>
      <trkpt lat="48.66724" lon="-4.05334">
        <ele>24.4</ele>
        <time>2025-09-23T10:20:50Z</time>
      </trkpt>
      <trkpt lat="48.66709" lon="-4.05359">
        <ele>24.4</ele>
        <time>2025-09-23T10:20:57Z</time>
      </trkpt>
      <trkpt lat="48.6669" lon="-4.05389">
        <ele>24.8</ele>
        <time>2025-09-23T10:21:06Z</time>
      </trkpt>
      <trkpt lat="48.66674" lon="-4.05415">
        <ele>24.6</ele>
        <time>2025-09-23T10:21:14Z</time>
      </trkpt>
      <trkpt lat="48.66659" lon="-4.05439">
        <ele>24.8</ele>
        <time>2025-09-23T10:21:22Z</time>
      </trkpt>
      <trkpt lat="48.6664" lon="-4.05476">
        <ele>24.2</ele>
        <time>2025-09-23T10:21:32Z</time>
      </trkpt>
      <trkpt lat="48.6663" lon="-4.05505">
        <ele>24.4</ele>
        <time>2025-09-23T10:21:39Z</time>
      </trkpt>
      <trkpt lat="48.6662" lon="-4.05543">
        <ele>24.8</ele>
        <time>2025-09-23T10:21:49Z</time>
      </trkpt>
      <trkpt lat="48.66617" lon="-4.05562">
        <ele>25</ele>
        <time>2025-09-23T10:21:54Z</time>
      </trkpt>
      <trkpt lat="48.66611" lon="-4.05583">
        <ele>25.4</ele>
        <time>2025-09-23T10:22:00Z</time>
      </trkpt>
      <trkpt lat="48.66608" lon="-4.05611">
        <ele>24.4</ele>
        <time>2025-09-23T10:22:07Z</time>
      </trkpt>
      <trkpt lat="48.6661" lon="-4.05619">
        <ele>23.8</ele>
        <time>2025-09-23T10:22:10Z</time>
      </trkpt>
      <trkpt lat="48.66611" lon="-4.05621">
        <ele>23.6</ele>
        <time>2025-09-23T10:22:12Z</time>
      </trkpt>
      <trkpt lat="48.66611" lon="-4.05621">
        <ele>23.4</ele>
        <time>2025-09-23T10:22:13Z</time>
      </trkpt>
      <trkpt lat="48.66612" lon="-4.05622">
        <ele>23.6</ele>
        <time>2025-09-23T10:23:01Z</time>
      </trkpt>
      <trkpt lat="48.66616" lon="-4.05627">
        <ele>23.4</ele>
        <time>2025-09-23T10:23:03Z</time>
      </trkpt>
      <trkpt lat="48.66621" lon="-4.0564">
        <ele>22.4</ele>
        <time>2025-09-23T10:23:07Z</time>
      </trkpt>
      <trkpt lat="48.66622" lon="-4.05643">
        <ele>22</ele>
        <time>2025-09-23T10:23:08Z</time>
      </trkpt>
      <trkpt lat="48.66624" lon="-4.05659">
        <ele>21.2</ele>
        <time>2025-09-23T10:23:12Z</time>
      </trkpt>
      <trkpt lat="48.66626" lon="-4.05667">
        <ele>20.8</ele>
        <time>2025-09-23T10:23:14Z</time>
      </trkpt>
      <trkpt lat="48.66628" lon="-4.05675">
        <ele>20.2</ele>
        <time>2025-09-23T10:23:16Z</time>
      </trkpt>
      <trkpt lat="48.66634" lon="-4.05697">
        <ele>19.4</ele>
        <time>2025-09-23T10:23:22Z</time>
      </trkpt>
      <trkpt lat="48.66636" lon="-4.05699">
        <ele>19.2</ele>
        <time>2025-09-23T10:23:23Z</time>
      </trkpt>
      <trkpt lat="48.66638" lon="-4.05701">
        <ele>19</ele>
        <time>2025-09-23T10:23:24Z</time>
      </trkpt>
      <trkpt lat="48.66641" lon="-4.05701">
        <ele>18.6</ele>
        <time>2025-09-23T10:23:25Z</time>
      </trkpt>
      <trkpt lat="48.66643" lon="-4.057">
        <ele>18.4</ele>
        <time>2025-09-23T10:23:26Z</time>
      </trkpt>
      <trkpt lat="48.66652" lon="-4.05686">
        <ele>18.2</ele>
        <time>2025-09-23T10:23:30Z</time>
      </trkpt>
      <trkpt lat="48.66661" lon="-4.05674">
        <ele>17.8</ele>
        <time>2025-09-23T10:23:34Z</time>
      </trkpt>
      <trkpt lat="48.66668" lon="-4.05666">
        <ele>17.6</ele>
        <time>2025-09-23T10:23:37Z</time>
      </trkpt>
      <trkpt lat="48.66678" lon="-4.05658">
        <ele>17</ele>
        <time>2025-09-23T10:23:41Z</time>
      </trkpt>
      <trkpt lat="48.66687" lon="-4.05652">
        <ele>16.8</ele>
        <time>2025-09-23T10:23:44Z</time>
      </trkpt>
      <trkpt lat="48.66706" lon="-4.05647">
        <ele>15.8</ele>
        <time>2025-09-23T10:23:51Z</time>
      </trkpt>
      <trkpt lat="48.66714" lon="-4.05645">
        <ele>15.8</ele>
        <time>2025-09-23T10:23:54Z</time>
      </trkpt>
      <trkpt lat="48.66723" lon="-4.05644">
        <ele>15.2</ele>
        <time>2025-09-23T10:23:58Z</time>
      </trkpt>
      <trkpt lat="48.66728" lon="-4.05642">
        <ele>15</ele>
        <time>2025-09-23T10:24:03Z</time>
      </trkpt>
      <trkpt lat="48.6673" lon="-4.05644">
        <ele>15</ele>
        <time>2025-09-23T10:24:11Z</time>
      </trkpt>
      <trkpt lat="48.66733" lon="-4.05643">
        <ele>15</ele>
        <time>2025-09-23T10:24:15Z</time>
      </trkpt>
      <trkpt lat="48.66737" lon="-4.05643">
        <ele>15</ele>
        <time>2025-09-23T10:24:19Z</time>
      </trkpt>
      <trkpt lat="48.66739" lon="-4.05642">
        <ele>15</ele>
        <time>2025-09-23T10:24:22Z</time>
      </trkpt>
      <trkpt lat="48.66739" lon="-4.05642">
        <ele>15</ele>
        <time>2025-09-23T10:24:23Z</time>
      </trkpt>
      <trkpt lat="48.66745" lon="-4.0564">
        <ele>15.4</ele>
        <time>2025-09-23T10:24:32Z</time>
      </trkpt>
      <trkpt lat="48.66749" lon="-4.0564">
        <ele>15.6</ele>
        <time>2025-09-23T10:24:40Z</time>
      </trkpt>
      <trkpt lat="48.66752" lon="-4.0564">
        <ele>15.2</ele>
        <time>2025-09-23T10:24:45Z</time>
      </trkpt>
      <trkpt lat="48.66753" lon="-4.0564">
        <ele>15.4</ele>
        <time>2025-09-23T10:24:47Z</time>
      </trkpt>
      <trkpt lat="48.66755" lon="-4.05639">
        <ele>15.2</ele>
        <time>2025-09-23T10:24:51Z</time>
      </trkpt>
      <trkpt lat="48.66758" lon="-4.05638">
        <ele>15.2</ele>
        <time>2025-09-23T10:25:01Z</time>
      </trkpt>
      <trkpt lat="48.66759" lon="-4.05638">
        <ele>15.2</ele>
        <time>2025-09-23T10:25:03Z</time>
      </trkpt>
      <trkpt lat="48.66764" lon="-4.05638">
        <ele>15.2</ele>
        <time>2025-09-23T10:25:11Z</time>
      </trkpt>
      <trkpt lat="48.66766" lon="-4.05637">
        <ele>15.2</ele>
        <time>2025-09-23T10:25:15Z</time>
      </trkpt>
      <trkpt lat="48.66766" lon="-4.05637">
        <ele>15.2</ele>
        <time>2025-09-23T10:25:16Z</time>
      </trkpt>
      <trkpt lat="48.66766" lon="-4.05637">
        <ele>15.2</ele>
        <time>2025-09-23T10:25:17Z</time>
      </trkpt>
      <trkpt lat="48.66768" lon="-4.05634">
        <ele>15.2</ele>
        <time>2025-09-23T10:25:51Z</time>
      </trkpt>
      <trkpt lat="48.6677" lon="-4.05632">
        <ele>15.4</ele>
        <time>2025-09-23T10:25:54Z</time>
      </trkpt>
      <trkpt lat="48.66777" lon="-4.05627">
        <ele>15.6</ele>
        <time>2025-09-23T10:26:00Z</time>
      </trkpt>
      <trkpt lat="48.66778" lon="-4.05626">
        <ele>15.4</ele>
        <time>2025-09-23T10:26:03Z</time>
      </trkpt>
      <trkpt lat="48.66777" lon="-4.05629">
        <ele>15.4</ele>
        <time>2025-09-23T10:26:05Z</time>
      </trkpt>
      <trkpt lat="48.66771" lon="-4.05632">
        <ele>15.2</ele>
        <time>2025-09-23T10:26:08Z</time>
      </trkpt>
      <trkpt lat="48.6677" lon="-4.05632">
        <ele>15</ele>
        <time>2025-09-23T10:26:10Z</time>
      </trkpt>
      <trkpt lat="48.66767" lon="-4.05634">
        <ele>15</ele>
        <time>2025-09-23T10:26:19Z</time>
      </trkpt>
      <trkpt lat="48.66766" lon="-4.05635">
        <ele>15</ele>
        <time>2025-09-23T10:26:21Z</time>
      </trkpt>
      <trkpt lat="48.66765" lon="-4.05634">
        <ele>15</ele>
        <time>2025-09-23T10:26:46Z</time>
      </trkpt>
      <trkpt lat="48.66766" lon="-4.05634">
        <ele>15</ele>
        <time>2025-09-23T10:26:47Z</time>
      </trkpt>
      <trkpt lat="48.66768" lon="-4.05633">
        <ele>15</ele>
        <time>2025-09-23T10:26:49Z</time>
      </trkpt>
      <trkpt lat="48.66775" lon="-4.0563">
        <ele>15</ele>
        <time>2025-09-23T10:26:54Z</time>
      </trkpt>
      <trkpt lat="48.66777" lon="-4.05628">
        <ele>14.8</ele>
        <time>2025-09-23T10:26:57Z</time>
      </trkpt>
      <trkpt lat="48.66778" lon="-4.05627">
        <ele>14.8</ele>
        <time>2025-09-23T10:26:58Z</time>
      </trkpt>
      <trkpt lat="48.66778" lon="-4.05627">
        <ele>14.8</ele>
        <time>2025-09-23T10:26:59Z</time>
      </trkpt>
      <trkpt lat="48.66778" lon="-4.05627">
        <ele>14.6</ele>
        <time>2025-09-23T10:27:00Z</time>
      </trkpt>
      <trkpt lat="48.66778" lon="-4.05625">
        <ele>14.8</ele>
        <time>2025-09-23T10:27:49Z</time>
      </trkpt>
      <trkpt lat="48.66779" lon="-4.05624">
        <ele>14.8</ele>
        <time>2025-09-23T10:27:50Z</time>
      </trkpt>
      <trkpt lat="48.6678" lon="-4.05622">
        <ele>14.8</ele>
        <time>2025-09-23T10:27:51Z</time>
      </trkpt>
      <trkpt lat="48.66778" lon="-4.05613">
        <ele>14.4</ele>
        <time>2025-09-23T10:27:57Z</time>
      </trkpt>
      <trkpt lat="48.66777" lon="-4.05608">
        <ele>14.6</ele>
        <time>2025-09-23T10:28:01Z</time>
      </trkpt>
      <trkpt lat="48.66776" lon="-4.05607">
        <ele>14.4</ele>
        <time>2025-09-23T10:28:02Z</time>
      </trkpt>
      <trkpt lat="48.66776" lon="-4.05606">
        <ele>14.4</ele>
        <time>2025-09-23T10:29:13Z</time>
      </trkpt>
      <trkpt lat="48.66777" lon="-4.05606">
        <ele>14.4</ele>
        <time>2025-09-23T10:29:14Z</time>
      </trkpt>
      <trkpt lat="48.66777" lon="-4.05606">
        <ele>14.4</ele>
        <time>2025-09-23T10:29:15Z</time>
      </trkpt>
      <trkpt lat="48.66775" lon="-4.05604">
        <ele>14.4</ele>
        <time>2025-09-23T10:29:23Z</time>
      </trkpt>
      <trkpt lat="48.66774" lon="-4.05602">
        <ele>14.4</ele>
        <time>2025-09-23T10:29:27Z</time>
      </trkpt>
      <trkpt lat="48.66774" lon="-4.05602">
        <ele>14.4</ele>
        <time>2025-09-23T10:29:28Z</time>
      </trkpt>
      <trkpt lat="48.66775" lon="-4.05602">
        <ele>14.4</ele>
        <time>2025-09-23T10:29:36Z</time>
      </trkpt>
      <trkpt lat="48.66775" lon="-4.05602">
        <ele>14.4</ele>
        <time>2025-09-23T10:29:38Z</time>
      </trkpt>
      <trkpt lat="48.66775" lon="-4.05602">
        <ele>14.4</ele>
        <time>2025-09-23T10:30:19Z</time>
      </trkpt>
      <trkpt lat="48.66775" lon="-4.05602">
        <ele>14.4</ele>
        <time>2025-09-23T10:30:20Z</time>
      </trkpt>
      <trkpt lat="48.66774" lon="-4.05602">
        <ele>14.4</ele>
        <time>2025-09-23T10:30:22Z</time>
      </trkpt>
      <trkpt lat="48.66773" lon="-4.05604">
        <ele>14.4</ele>
        <time>2025-09-23T10:30:26Z</time>
      </trkpt>
      <trkpt lat="48.66772" lon="-4.05603">
        <ele>14.4</ele>
        <time>2025-09-23T10:30:28Z</time>
      </trkpt>
      <trkpt lat="48.66775" lon="-4.05604">
        <ele>14.4</ele>
        <time>2025-09-23T10:30:33Z</time>
      </trkpt>
      <trkpt lat="48.66775" lon="-4.05604">
        <ele>14.4</ele>
        <time>2025-09-23T10:30:34Z</time>
      </trkpt>
      <trkpt lat="48.66777" lon="-4.05607">
        <ele>14.4</ele>
        <time>2025-09-23T10:32:12Z</time>
      </trkpt>
      <trkpt lat="48.66778" lon="-4.05611">
        <ele>14.2</ele>
        <time>2025-09-23T10:32:15Z</time>
      </trkpt>
      <trkpt lat="48.66778" lon="-4.05615">
        <ele>14.6</ele>
        <time>2025-09-23T10:32:18Z</time>
      </trkpt>
      <trkpt lat="48.66779" lon="-4.05616">
        <ele>14.8</ele>
        <time>2025-09-23T10:32:20Z</time>
      </trkpt>
      <trkpt lat="48.66779" lon="-4.05616">
        <ele>14.8</ele>
        <time>2025-09-23T10:32:21Z</time>
      </trkpt>
      <trkpt lat="48.66779" lon="-4.05618">
        <ele>14.8</ele>
        <time>2025-09-23T10:32:26Z</time>
      </trkpt>
      <trkpt lat="48.6678" lon="-4.05619">
        <ele>14.6</ele>
        <time>2025-09-23T10:32:27Z</time>
      </trkpt>
      <trkpt lat="48.66785" lon="-4.05626">
        <ele>14.4</ele>
        <time>2025-09-23T10:32:33Z</time>
      </trkpt>
      <trkpt lat="48.66786" lon="-4.05627">
        <ele>14.4</ele>
        <time>2025-09-23T10:32:34Z</time>
      </trkpt>
      <trkpt lat="48.66786" lon="-4.05627">
        <ele>14.6</ele>
        <time>2025-09-23T10:32:36Z</time>
      </trkpt>
      <trkpt lat="48.66787" lon="-4.05625">
        <ele>14.6</ele>
        <time>2025-09-23T10:32:57Z</time>
      </trkpt>
      <trkpt lat="48.66788" lon="-4.05625">
        <ele>14.8</ele>
        <time>2025-09-23T10:32:58Z</time>
      </trkpt>
      <trkpt lat="48.66794" lon="-4.05623">
        <ele>15</ele>
        <time>2025-09-23T10:33:02Z</time>
      </trkpt>
      <trkpt lat="48.66797" lon="-4.05622">
        <ele>15</ele>
        <time>2025-09-23T10:33:04Z</time>
      </trkpt>
      <trkpt lat="48.66798" lon="-4.05622">
        <ele>14.8</ele>
        <time>2025-09-23T10:33:05Z</time>
      </trkpt>
      <trkpt lat="48.668" lon="-4.05621">
        <ele>14.8</ele>
        <time>2025-09-23T10:33:06Z</time>
      </trkpt>
      <trkpt lat="48.668" lon="-4.0562">
        <ele>14.4</ele>
        <time>2025-09-23T10:33:09Z</time>
      </trkpt>
      <trkpt lat="48.66802" lon="-4.05619">
        <ele>14</ele>
        <time>2025-09-23T10:33:22Z</time>
      </trkpt>
      <trkpt lat="48.66804" lon="-4.05618">
        <ele>13.8</ele>
        <time>2025-09-23T10:33:23Z</time>
      </trkpt>
      <trkpt lat="48.66806" lon="-4.05618">
        <ele>13.6</ele>
        <time>2025-09-23T10:33:24Z</time>
      </trkpt>
      <trkpt lat="48.66818" lon="-4.05616">
        <ele>12.4</ele>
        <time>2025-09-23T10:33:28Z</time>
      </trkpt>
      <trkpt lat="48.66823" lon="-4.05615">
        <ele>11.8</ele>
        <time>2025-09-23T10:33:30Z</time>
      </trkpt>
      <trkpt lat="48.66829" lon="-4.05615">
        <ele>11.2</ele>
        <time>2025-09-23T10:33:32Z</time>
      </trkpt>
      <trkpt lat="48.6684" lon="-4.05622">
        <ele>10.2</ele>
        <time>2025-09-23T10:33:36Z</time>
      </trkpt>
      <trkpt lat="48.66842" lon="-4.05625">
        <ele>10</ele>
        <time>2025-09-23T10:33:37Z</time>
      </trkpt>
      <trkpt lat="48.66845" lon="-4.05628">
        <ele>9.8</ele>
        <time>2025-09-23T10:33:38Z</time>
      </trkpt>
      <trkpt lat="48.66854" lon="-4.05639">
        <ele>9.6</ele>
        <time>2025-09-23T10:33:42Z</time>
      </trkpt>
      <trkpt lat="48.6686" lon="-4.05644">
        <ele>9.6</ele>
        <time>2025-09-23T10:33:45Z</time>
      </trkpt>
      <trkpt lat="48.66863" lon="-4.05646">
        <ele>9.8</ele>
        <time>2025-09-23T10:33:47Z</time>
      </trkpt>
      <trkpt lat="48.66865" lon="-4.05647">
        <ele>10</ele>
        <time>2025-09-23T10:33:48Z</time>
      </trkpt>
      <trkpt lat="48.66868" lon="-4.0565">
        <ele>10.6</ele>
        <time>2025-09-23T10:33:51Z</time>
      </trkpt>
      <trkpt lat="48.6687" lon="-4.05655">
        <ele>11.2</ele>
        <time>2025-09-23T10:33:53Z</time>
      </trkpt>
      <trkpt lat="48.6687" lon="-4.05657">
        <ele>11.4</ele>
        <time>2025-09-23T10:33:54Z</time>
      </trkpt>
      <trkpt lat="48.66869" lon="-4.05669">
        <ele>12.2</ele>
        <time>2025-09-23T10:33:59Z</time>
      </trkpt>
      <trkpt lat="48.66869" lon="-4.05678">
        <ele>12.6</ele>
        <time>2025-09-23T10:34:02Z</time>
      </trkpt>
      <trkpt lat="48.66868" lon="-4.05696">
        <ele>13.2</ele>
        <time>2025-09-23T10:34:08Z</time>
      </trkpt>
      <trkpt lat="48.66869" lon="-4.05701">
        <ele>13.6</ele>
        <time>2025-09-23T10:34:10Z</time>
      </trkpt>
      <trkpt lat="48.66872" lon="-4.05719">
        <ele>14.2</ele>
        <time>2025-09-23T10:34:17Z</time>
      </trkpt>
      <trkpt lat="48.66876" lon="-4.05736">
        <ele>14.8</ele>
        <time>2025-09-23T10:34:24Z</time>
      </trkpt>
      <trkpt lat="48.66877" lon="-4.05738">
        <ele>15</ele>
        <time>2025-09-23T10:34:25Z</time>
      </trkpt>
      <trkpt lat="48.66882" lon="-4.05748">
        <ele>15.4</ele>
        <time>2025-09-23T10:34:29Z</time>
      </trkpt>
      <trkpt lat="48.66889" lon="-4.05758">
        <ele>16.2</ele>
        <time>2025-09-23T10:34:34Z</time>
      </trkpt>
      <trkpt lat="48.6689" lon="-4.05759">
        <ele>16.4</ele>
        <time>2025-09-23T10:34:35Z</time>
      </trkpt>
      <trkpt lat="48.66897" lon="-4.05766">
        <ele>16.8</ele>
        <time>2025-09-23T10:34:40Z</time>
      </trkpt>
      <trkpt lat="48.66909" lon="-4.05773">
        <ele>17.4</ele>
        <time>2025-09-23T10:34:47Z</time>
      </trkpt>
      <trkpt lat="48.6691" lon="-4.05773">
        <ele>17.6</ele>
        <time>2025-09-23T10:34:48Z</time>
      </trkpt>
      <trkpt lat="48.66922" lon="-4.05779">
        <ele>18.2</ele>
        <time>2025-09-23T10:34:56Z</time>
      </trkpt>
      <trkpt lat="48.66932" lon="-4.05786">
        <ele>18.6</ele>
        <time>2025-09-23T10:35:03Z</time>
      </trkpt>
      <trkpt lat="48.66933" lon="-4.05786">
        <ele>18.6</ele>
        <time>2025-09-23T10:35:04Z</time>
      </trkpt>
      <trkpt lat="48.66939" lon="-4.0579">
        <ele>19</ele>
        <time>2025-09-23T10:35:09Z</time>
      </trkpt>
      <trkpt lat="48.6694" lon="-4.05792">
        <ele>19</ele>
        <time>2025-09-23T10:35:10Z</time>
      </trkpt>
      <trkpt lat="48.66941" lon="-4.05792">
        <ele>19.2</ele>
        <time>2025-09-23T10:35:11Z</time>
      </trkpt>
      <trkpt lat="48.66946" lon="-4.05797">
        <ele>19.6</ele>
        <time>2025-09-23T10:35:15Z</time>
      </trkpt>
      <trkpt lat="48.66949" lon="-4.05801">
        <ele>20</ele>
        <time>2025-09-23T10:35:18Z</time>
      </trkpt>
      <trkpt lat="48.66956" lon="-4.05811">
        <ele>20.4</ele>
        <time>2025-09-23T10:35:25Z</time>
      </trkpt>
      <trkpt lat="48.66957" lon="-4.05812">
        <ele>20.6</ele>
        <time>2025-09-23T10:35:26Z</time>
      </trkpt>
      <trkpt lat="48.66962" lon="-4.05821">
        <ele>21.2</ele>
        <time>2025-09-23T10:35:31Z</time>
      </trkpt>
      <trkpt lat="48.66966" lon="-4.05827">
        <ele>21.6</ele>
        <time>2025-09-23T10:35:35Z</time>
      </trkpt>
      <trkpt lat="48.66969" lon="-4.05832">
        <ele>22</ele>
        <time>2025-09-23T10:35:38Z</time>
      </trkpt>
      <trkpt lat="48.66977" lon="-4.0584">
        <ele>22.8</ele>
        <time>2025-09-23T10:35:44Z</time>
      </trkpt>
      <trkpt lat="48.66986" lon="-4.05844">
        <ele>23.8</ele>
        <time>2025-09-23T10:35:50Z</time>
      </trkpt>
      <trkpt lat="48.67004" lon="-4.05848">
        <ele>24.4</ele>
        <time>2025-09-23T10:36:00Z</time>
      </trkpt>
      <trkpt lat="48.67019" lon="-4.0585">
        <ele>24.4</ele>
        <time>2025-09-23T10:36:07Z</time>
      </trkpt>
      <trkpt lat="48.67029" lon="-4.0585">
        <ele>24.2</ele>
        <time>2025-09-23T10:36:11Z</time>
      </trkpt>
      <trkpt lat="48.67036" lon="-4.05851">
        <ele>23.8</ele>
        <time>2025-09-23T10:36:14Z</time>
      </trkpt>
      <trkpt lat="48.67056" lon="-4.05852">
        <ele>23</ele>
        <time>2025-09-23T10:36:21Z</time>
      </trkpt>
      <trkpt lat="48.67063" lon="-4.05851">
        <ele>22.8</ele>
        <time>2025-09-23T10:36:23Z</time>
      </trkpt>
      <trkpt lat="48.6708" lon="-4.05844">
        <ele>21.4</ele>
        <time>2025-09-23T10:36:27Z</time>
      </trkpt>
      <trkpt lat="48.67091" lon="-4.05837">
        <ele>20.4</ele>
        <time>2025-09-23T10:36:30Z</time>
      </trkpt>
      <trkpt lat="48.67099" lon="-4.05831">
        <ele>20</ele>
        <time>2025-09-23T10:36:32Z</time>
      </trkpt>
      <trkpt lat="48.67103" lon="-4.05828">
        <ele>19.6</ele>
        <time>2025-09-23T10:36:33Z</time>
      </trkpt>
      <trkpt lat="48.67107" lon="-4.05825">
        <ele>19.4</ele>
        <time>2025-09-23T10:36:34Z</time>
      </trkpt>
      <trkpt lat="48.67125" lon="-4.05813">
        <ele>18.2</ele>
        <time>2025-09-23T10:36:38Z</time>
      </trkpt>
      <trkpt lat="48.6713" lon="-4.0581">
        <ele>17.8</ele>
        <time>2025-09-23T10:36:39Z</time>
      </trkpt>
      <trkpt lat="48.6714" lon="-4.05806">
        <ele>17</ele>
        <time>2025-09-23T10:36:41Z</time>
      </trkpt>
      <trkpt lat="48.67163" lon="-4.05797">
        <ele>16</ele>
        <time>2025-09-23T10:36:45Z</time>
      </trkpt>
      <trkpt lat="48.67168" lon="-4.05796">
        <ele>15.8</ele>
        <time>2025-09-23T10:36:46Z</time>
      </trkpt>
      <trkpt lat="48.67192" lon="-4.05793">
        <ele>14.6</ele>
        <time>2025-09-23T10:36:50Z</time>
      </trkpt>
      <trkpt lat="48.67197" lon="-4.05794">
        <ele>14.2</ele>
        <time>2025-09-23T10:36:51Z</time>
      </trkpt>
      <trkpt lat="48.67209" lon="-4.05799">
        <ele>13.6</ele>
        <time>2025-09-23T10:36:53Z</time>
      </trkpt>
      <trkpt lat="48.67214" lon="-4.05804">
        <ele>13.2</ele>
        <time>2025-09-23T10:36:54Z</time>
      </trkpt>
      <trkpt lat="48.67232" lon="-4.05818">
        <ele>12.6</ele>
        <time>2025-09-23T10:36:58Z</time>
      </trkpt>
      <trkpt lat="48.67236" lon="-4.05822">
        <ele>12.6</ele>
        <time>2025-09-23T10:36:59Z</time>
      </trkpt>
      <trkpt lat="48.67247" lon="-4.05836">
        <ele>12.6</ele>
        <time>2025-09-23T10:37:03Z</time>
      </trkpt>
      <trkpt lat="48.6726" lon="-4.05854">
        <ele>13.2</ele>
        <time>2025-09-23T10:37:10Z</time>
      </trkpt>
      <trkpt lat="48.67268" lon="-4.05864">
        <ele>13.6</ele>
        <time>2025-09-23T10:37:14Z</time>
      </trkpt>
      <trkpt lat="48.67271" lon="-4.05868">
        <ele>13.6</ele>
        <time>2025-09-23T10:37:16Z</time>
      </trkpt>
      <trkpt lat="48.67287" lon="-4.05886">
        <ele>13.8</ele>
        <time>2025-09-23T10:37:24Z</time>
      </trkpt>
      <trkpt lat="48.67295" lon="-4.05898">
        <ele>14</ele>
        <time>2025-09-23T10:37:30Z</time>
      </trkpt>
      <trkpt lat="48.67301" lon="-4.0591">
        <ele>14.2</ele>
        <time>2025-09-23T10:37:36Z</time>
      </trkpt>
      <trkpt lat="48.67302" lon="-4.05912">
        <ele>14.2</ele>
        <time>2025-09-23T10:37:37Z</time>
      </trkpt>
      <trkpt lat="48.67312" lon="-4.05928">
        <ele>14.4</ele>
        <time>2025-09-23T10:37:45Z</time>
      </trkpt>
      <trkpt lat="48.67323" lon="-4.05949">
        <ele>14.6</ele>
        <time>2025-09-23T10:37:53Z</time>
      </trkpt>
      <trkpt lat="48.67336" lon="-4.05976">
        <ele>14.8</ele>
        <time>2025-09-23T10:38:03Z</time>
      </trkpt>
      <trkpt lat="48.6735" lon="-4.06007">
        <ele>15.2</ele>
        <time>2025-09-23T10:38:13Z</time>
      </trkpt>
      <trkpt lat="48.67365" lon="-4.06047">
        <ele>15.8</ele>
        <time>2025-09-23T10:38:25Z</time>
      </trkpt>
      <trkpt lat="48.67372" lon="-4.06081">
        <ele>16</ele>
        <time>2025-09-23T10:38:34Z</time>
      </trkpt>
      <trkpt lat="48.67374" lon="-4.06106">
        <ele>16.2</ele>
        <time>2025-09-23T10:38:41Z</time>
      </trkpt>
      <trkpt lat="48.67374" lon="-4.06114">
        <ele>16.2</ele>
        <time>2025-09-23T10:38:43Z</time>
      </trkpt>
      <trkpt lat="48.67373" lon="-4.06133">
        <ele>16.4</ele>
        <time>2025-09-23T10:38:49Z</time>
      </trkpt>
      <trkpt lat="48.67371" lon="-4.06157">
        <ele>16.8</ele>
        <time>2025-09-23T10:38:56Z</time>
      </trkpt>
      <trkpt lat="48.67369" lon="-4.06183">
        <ele>17.2</ele>
        <time>2025-09-23T10:39:04Z</time>
      </trkpt>
      <trkpt lat="48.67369" lon="-4.06187">
        <ele>17.4</ele>
        <time>2025-09-23T10:39:05Z</time>
      </trkpt>
      <trkpt lat="48.67368" lon="-4.06209">
        <ele>18.2</ele>
        <time>2025-09-23T10:39:12Z</time>
      </trkpt>
      <trkpt lat="48.67368" lon="-4.06215">
        <ele>18.4</ele>
        <time>2025-09-23T10:39:14Z</time>
      </trkpt>
      <trkpt lat="48.67367" lon="-4.06235">
        <ele>19</ele>
        <time>2025-09-23T10:39:21Z</time>
      </trkpt>
      <trkpt lat="48.67366" lon="-4.06245">
        <ele>19.4</ele>
        <time>2025-09-23T10:39:25Z</time>
      </trkpt>
      <trkpt lat="48.67365" lon="-4.06259">
        <ele>20.2</ele>
        <time>2025-09-23T10:39:31Z</time>
      </trkpt>
      <trkpt lat="48.67365" lon="-4.06263">
        <ele>20.4</ele>
        <time>2025-09-23T10:39:33Z</time>
      </trkpt>
      <trkpt lat="48.67364" lon="-4.06274">
        <ele>20.8</ele>
        <time>2025-09-23T10:39:37Z</time>
      </trkpt>
      <trkpt lat="48.67364" lon="-4.06281">
        <ele>21.2</ele>
        <time>2025-09-23T10:39:40Z</time>
      </trkpt>
      <trkpt lat="48.67364" lon="-4.06283">
        <ele>21.4</ele>
        <time>2025-09-23T10:39:41Z</time>
      </trkpt>
      <trkpt lat="48.67365" lon="-4.06285">
        <ele>21.4</ele>
        <time>2025-09-23T10:39:42Z</time>
      </trkpt>
      <trkpt lat="48.67364" lon="-4.06287">
        <ele>21.6</ele>
        <time>2025-09-23T10:39:43Z</time>
      </trkpt>
      <trkpt lat="48.67365" lon="-4.06289">
        <ele>21.8</ele>
        <time>2025-09-23T10:39:44Z</time>
      </trkpt>
      <trkpt lat="48.67366" lon="-4.06297">
        <ele>22.4</ele>
        <time>2025-09-23T10:39:48Z</time>
      </trkpt>
      <trkpt lat="48.67366" lon="-4.06299">
        <ele>22.6</ele>
        <time>2025-09-23T10:39:49Z</time>
      </trkpt>
      <trkpt lat="48.67368" lon="-4.06311">
        <ele>23.6</ele>
        <time>2025-09-23T10:39:55Z</time>
      </trkpt>
      <trkpt lat="48.67369" lon="-4.06316">
        <ele>24</ele>
        <time>2025-09-23T10:39:57Z</time>
      </trkpt>
      <trkpt lat="48.67372" lon="-4.06327">
        <ele>24.6</ele>
        <time>2025-09-23T10:40:03Z</time>
      </trkpt>
      <trkpt lat="48.67374" lon="-4.06331">
        <ele>25</ele>
        <time>2025-09-23T10:40:05Z</time>
      </trkpt>
      <trkpt lat="48.67378" lon="-4.06335">
        <ele>26</ele>
        <time>2025-09-23T10:40:08Z</time>
      </trkpt>
      <trkpt lat="48.67382" lon="-4.06337">
        <ele>26.6</ele>
        <time>2025-09-23T10:40:11Z</time>
      </trkpt>
      <trkpt lat="48.67387" lon="-4.0634">
        <ele>27</ele>
        <time>2025-09-23T10:40:14Z</time>
      </trkpt>
      <trkpt lat="48.6739" lon="-4.06342">
        <ele>27.6</ele>
        <time>2025-09-23T10:40:16Z</time>
      </trkpt>
      <trkpt lat="48.67392" lon="-4.06343">
        <ele>28</ele>
        <time>2025-09-23T10:40:18Z</time>
      </trkpt>
      <trkpt lat="48.67394" lon="-4.06344">
        <ele>28.2</ele>
        <time>2025-09-23T10:40:19Z</time>
      </trkpt>
      <trkpt lat="48.67399" lon="-4.06344">
        <ele>28.8</ele>
        <time>2025-09-23T10:40:23Z</time>
      </trkpt>
      <trkpt lat="48.67434" lon="-4.06352">
        <ele>31</ele>
        <time>2025-09-23T10:54:24Z</time>
      </trkpt>
      <trkpt lat="48.6744" lon="-4.06353">
        <ele>30.6</ele>
        <time>2025-09-23T10:54:25Z</time>
      </trkpt>
      <trkpt lat="48.67446" lon="-4.06354">
        <ele>30.4</ele>
        <time>2025-09-23T10:54:26Z</time>
      </trkpt>
      <trkpt lat="48.67451" lon="-4.06356">
        <ele>30.2</ele>
        <time>2025-09-23T10:54:27Z</time>
      </trkpt>
      <trkpt lat="48.67455" lon="-4.06359">
        <ele>30.4</ele>
        <time>2025-09-23T10:54:28Z</time>
      </trkpt>
      <trkpt lat="48.6746" lon="-4.06362">
        <ele>30.6</ele>
        <time>2025-09-23T10:54:29Z</time>
      </trkpt>
      <trkpt lat="48.67463" lon="-4.06365">
        <ele>30.8</ele>
        <time>2025-09-23T10:54:30Z</time>
      </trkpt>
      <trkpt lat="48.67477" lon="-4.06375">
        <ele>31.6</ele>
        <time>2025-09-23T10:54:34Z</time>
      </trkpt>
      <trkpt lat="48.67482" lon="-4.06379">
        <ele>32</ele>
        <time>2025-09-23T10:54:36Z</time>
      </trkpt>
      <trkpt lat="48.6749" lon="-4.06387">
        <ele>32.6</ele>
        <time>2025-09-23T10:54:39Z</time>
      </trkpt>
      <trkpt lat="48.67492" lon="-4.06389">
        <ele>32.8</ele>
        <time>2025-09-23T10:54:40Z</time>
      </trkpt>
      <trkpt lat="48.67498" lon="-4.06394">
        <ele>33</ele>
        <time>2025-09-23T10:54:42Z</time>
      </trkpt>
      <trkpt lat="48.6751" lon="-4.06408">
        <ele>33.8</ele>
        <time>2025-09-23T10:54:47Z</time>
      </trkpt>
      <trkpt lat="48.67515" lon="-4.06413">
        <ele>34</ele>
        <time>2025-09-23T10:54:49Z</time>
      </trkpt>
      <trkpt lat="48.67523" lon="-4.06426">
        <ele>34.2</ele>
        <time>2025-09-23T10:54:53Z</time>
      </trkpt>
      <trkpt lat="48.67528" lon="-4.06436">
        <ele>34.6</ele>
        <time>2025-09-23T10:54:56Z</time>
      </trkpt>
      <trkpt lat="48.6753" lon="-4.0644">
        <ele>34.8</ele>
        <time>2025-09-23T10:54:57Z</time>
      </trkpt>
      <trkpt lat="48.67538" lon="-4.06464">
        <ele>35.6</ele>
        <time>2025-09-23T10:55:03Z</time>
      </trkpt>
      <trkpt lat="48.67541" lon="-4.06475">
        <ele>36.2</ele>
        <time>2025-09-23T10:55:06Z</time>
      </trkpt>
      <trkpt lat="48.67543" lon="-4.06492">
        <ele>37.2</ele>
        <time>2025-09-23T10:55:10Z</time>
      </trkpt>
      <trkpt lat="48.67543" lon="-4.06496">
        <ele>37.4</ele>
        <time>2025-09-23T10:55:11Z</time>
      </trkpt>
      <trkpt lat="48.67543" lon="-4.06508">
        <ele>38.2</ele>
        <time>2025-09-23T10:55:14Z</time>
      </trkpt>
      <trkpt lat="48.67544" lon="-4.06523">
        <ele>39.2</ele>
        <time>2025-09-23T10:55:18Z</time>
      </trkpt>
      <trkpt lat="48.67544" lon="-4.06527">
        <ele>39.4</ele>
        <time>2025-09-23T10:55:19Z</time>
      </trkpt>
      <trkpt lat="48.67545" lon="-4.06544">
        <ele>40</ele>
        <time>2025-09-23T10:55:23Z</time>
      </trkpt>
      <trkpt lat="48.67546" lon="-4.0658">
        <ele>39.8</ele>
        <time>2025-09-23T10:55:30Z</time>
      </trkpt>
      <trkpt lat="48.67547" lon="-4.06587">
        <ele>39.8</ele>
        <time>2025-09-23T10:55:31Z</time>
      </trkpt>
      <trkpt lat="48.67547" lon="-4.06604">
        <ele>39.6</ele>
        <time>2025-09-23T10:55:34Z</time>
      </trkpt>
      <trkpt lat="48.67548" lon="-4.06619">
        <ele>39.4</ele>
        <time>2025-09-23T10:55:37Z</time>
      </trkpt>
      <trkpt lat="48.67547" lon="-4.06622">
        <ele>39.4</ele>
        <time>2025-09-23T10:55:38Z</time>
      </trkpt>
      <trkpt lat="48.67547" lon="-4.06639">
        <ele>39</ele>
        <time>2025-09-23T10:55:43Z</time>
      </trkpt>
      <trkpt lat="48.67548" lon="-4.06644">
        <ele>39</ele>
        <time>2025-09-23T10:55:44Z</time>
      </trkpt>
      <trkpt lat="48.6755" lon="-4.06661">
        <ele>38.8</ele>
        <time>2025-09-23T10:55:47Z</time>
      </trkpt>
      <trkpt lat="48.67553" lon="-4.06672">
        <ele>38.6</ele>
        <time>2025-09-23T10:55:49Z</time>
      </trkpt>
      <trkpt lat="48.67554" lon="-4.06678">
        <ele>38.6</ele>
        <time>2025-09-23T10:55:50Z</time>
      </trkpt>
      <trkpt lat="48.67557" lon="-4.06691">
        <ele>38.2</ele>
        <time>2025-09-23T10:55:52Z</time>
      </trkpt>
      <trkpt lat="48.67566" lon="-4.06716">
        <ele>37.8</ele>
        <time>2025-09-23T10:55:56Z</time>
      </trkpt>
      <trkpt lat="48.67571" lon="-4.06729">
        <ele>37.8</ele>
        <time>2025-09-23T10:55:58Z</time>
      </trkpt>
      <trkpt lat="48.67582" lon="-4.06756">
        <ele>37.2</ele>
        <time>2025-09-23T10:56:02Z</time>
      </trkpt>
      <trkpt lat="48.67586" lon="-4.06763">
        <ele>36.8</ele>
        <time>2025-09-23T10:56:03Z</time>
      </trkpt>
      <trkpt lat="48.67594" lon="-4.06778">
        <ele>36</ele>
        <time>2025-09-23T10:56:05Z</time>
      </trkpt>
      <trkpt lat="48.67609" lon="-4.06802">
        <ele>35</ele>
        <time>2025-09-23T10:56:08Z</time>
      </trkpt>
      <trkpt lat="48.67614" lon="-4.0681">
        <ele>34.6</ele>
        <time>2025-09-23T10:56:09Z</time>
      </trkpt>
      <trkpt lat="48.67624" lon="-4.06827">
        <ele>33.8</ele>
        <time>2025-09-23T10:56:11Z</time>
      </trkpt>
      <trkpt lat="48.67646" lon="-4.06861">
        <ele>32.8</ele>
        <time>2025-09-23T10:56:15Z</time>
      </trkpt>
      <trkpt lat="48.67663" lon="-4.06883">
        <ele>32.8</ele>
        <time>2025-09-23T10:56:18Z</time>
      </trkpt>
      <trkpt lat="48.67708" lon="-4.06933">
        <ele>32.4</ele>
        <time>2025-09-23T10:56:25Z</time>
      </trkpt>
      <trkpt lat="48.67721" lon="-4.06945">
        <ele>32.2</ele>
        <time>2025-09-23T10:56:27Z</time>
      </trkpt>
      <trkpt lat="48.67742" lon="-4.0696">
        <ele>31.6</ele>
        <time>2025-09-23T10:56:30Z</time>
      </trkpt>
      <trkpt lat="48.67756" lon="-4.06966">
        <ele>31.4</ele>
        <time>2025-09-23T10:56:32Z</time>
      </trkpt>
      <trkpt lat="48.67799" lon="-4.0699">
        <ele>30.8</ele>
        <time>2025-09-23T10:56:39Z</time>
      </trkpt>
      <trkpt lat="48.67818" lon="-4.0701">
        <ele>30.6</ele>
        <time>2025-09-23T10:56:43Z</time>
      </trkpt>
      <trkpt lat="48.67826" lon="-4.07021">
        <ele>30.4</ele>
        <time>2025-09-23T10:56:45Z</time>
      </trkpt>
      <trkpt lat="48.67849" lon="-4.07057">
        <ele>29.4</ele>
        <time>2025-09-23T10:56:51Z</time>
      </trkpt>
      <trkpt lat="48.67862" lon="-4.07076">
        <ele>29.4</ele>
        <time>2025-09-23T10:56:54Z</time>
      </trkpt>
      <trkpt lat="48.67904" lon="-4.07138">
        <ele>28.4</ele>
        <time>2025-09-23T10:57:04Z</time>
      </trkpt>
      <trkpt lat="48.67908" lon="-4.07144">
        <ele>28</ele>
        <time>2025-09-23T10:57:05Z</time>
      </trkpt>
      <trkpt lat="48.67924" lon="-4.0717">
        <ele>27</ele>
        <time>2025-09-23T10:57:09Z</time>
      </trkpt>
      <trkpt lat="48.67946" lon="-4.07201">
        <ele>26</ele>
        <time>2025-09-23T10:57:14Z</time>
      </trkpt>
      <trkpt lat="48.67965" lon="-4.07229">
        <ele>26</ele>
        <time>2025-09-23T10:57:19Z</time>
      </trkpt>
      <trkpt lat="48.67971" lon="-4.07238">
        <ele>25.8</ele>
        <time>2025-09-23T10:57:21Z</time>
      </trkpt>
      <trkpt lat="48.67994" lon="-4.07275">
        <ele>24.6</ele>
        <time>2025-09-23T10:57:28Z</time>
      </trkpt>
      <trkpt lat="48.68011" lon="-4.07292">
        <ele>24.2</ele>
        <time>2025-09-23T10:57:31Z</time>
      </trkpt>
      <trkpt lat="48.68023" lon="-4.073">
        <ele>23.6</ele>
        <time>2025-09-23T10:57:33Z</time>
      </trkpt>
      <trkpt lat="48.68059" lon="-4.07314">
        <ele>23.2</ele>
        <time>2025-09-23T10:57:39Z</time>
      </trkpt>
      <trkpt lat="48.68076" lon="-4.0732">
        <ele>22.8</ele>
        <time>2025-09-23T10:57:42Z</time>
      </trkpt>
      <trkpt lat="48.68095" lon="-4.07327">
        <ele>22.8</ele>
        <time>2025-09-23T10:57:46Z</time>
      </trkpt>
      <trkpt lat="48.68128" lon="-4.07336">
        <ele>22.8</ele>
        <time>2025-09-23T10:57:54Z</time>
      </trkpt>
      <trkpt lat="48.68132" lon="-4.07337">
        <ele>22.6</ele>
        <time>2025-09-23T10:57:55Z</time>
      </trkpt>
      <trkpt lat="48.68147" lon="-4.07339">
        <ele>22.4</ele>
        <time>2025-09-23T10:57:58Z</time>
      </trkpt>
      <trkpt lat="48.68164" lon="-4.07343">
        <ele>21.8</ele>
        <time>2025-09-23T10:58:01Z</time>
      </trkpt>
      <trkpt lat="48.6817" lon="-4.07344">
        <ele>21.4</ele>
        <time>2025-09-23T10:58:02Z</time>
      </trkpt>
      <trkpt lat="48.6819" lon="-4.07348">
        <ele>19.8</ele>
        <time>2025-09-23T10:58:05Z</time>
      </trkpt>
      <trkpt lat="48.68212" lon="-4.07352">
        <ele>19</ele>
        <time>2025-09-23T10:58:08Z</time>
      </trkpt>
      <trkpt lat="48.68249" lon="-4.07367">
        <ele>18.8</ele>
        <time>2025-09-23T10:58:14Z</time>
      </trkpt>
      <trkpt lat="48.68255" lon="-4.07369">
        <ele>18.6</ele>
        <time>2025-09-23T10:58:15Z</time>
      </trkpt>
      <trkpt lat="48.68277" lon="-4.0738">
        <ele>18</ele>
        <time>2025-09-23T10:58:19Z</time>
      </trkpt>
      <trkpt lat="48.68283" lon="-4.07384">
        <ele>17.8</ele>
        <time>2025-09-23T10:58:20Z</time>
      </trkpt>
      <trkpt lat="48.68306" lon="-4.07396">
        <ele>17.4</ele>
        <time>2025-09-23T10:58:24Z</time>
      </trkpt>
      <trkpt lat="48.68344" lon="-4.07417">
        <ele>17.2</ele>
        <time>2025-09-23T10:58:31Z</time>
      </trkpt>
      <trkpt lat="48.68349" lon="-4.0742">
        <ele>16.8</ele>
        <time>2025-09-23T10:58:32Z</time>
      </trkpt>
      <trkpt lat="48.68354" lon="-4.07424">
        <ele>16.4</ele>
        <time>2025-09-23T10:58:33Z</time>
      </trkpt>
      <trkpt lat="48.68377" lon="-4.07439">
        <ele>15.8</ele>
        <time>2025-09-23T10:58:37Z</time>
      </trkpt>
      <trkpt lat="48.68388" lon="-4.07448">
        <ele>15.8</ele>
        <time>2025-09-23T10:58:39Z</time>
      </trkpt>
      <trkpt lat="48.68394" lon="-4.07453">
        <ele>15.8</ele>
        <time>2025-09-23T10:58:40Z</time>
      </trkpt>
      <trkpt lat="48.68425" lon="-4.0748">
        <ele>15.4</ele>
        <time>2025-09-23T10:58:46Z</time>
      </trkpt>
      <trkpt lat="48.6844" lon="-4.07494">
        <ele>15.2</ele>
        <time>2025-09-23T10:58:49Z</time>
      </trkpt>
      <trkpt lat="48.68487" lon="-4.07533">
        <ele>14.4</ele>
        <time>2025-09-23T10:58:58Z</time>
      </trkpt>
      <trkpt lat="48.68492" lon="-4.07537">
        <ele>14.2</ele>
        <time>2025-09-23T10:58:59Z</time>
      </trkpt>
      <trkpt lat="48.68542" lon="-4.07573">
        <ele>13.2</ele>
        <time>2025-09-23T10:59:09Z</time>
      </trkpt>
      <trkpt lat="48.68573" lon="-4.07608">
        <ele>12.2</ele>
        <time>2025-09-23T10:59:16Z</time>
      </trkpt>
      <trkpt lat="48.68577" lon="-4.07615">
        <ele>12</ele>
        <time>2025-09-23T10:59:17Z</time>
      </trkpt>
      <trkpt lat="48.68592" lon="-4.07644">
        <ele>11</ele>
        <time>2025-09-23T10:59:21Z</time>
      </trkpt>
      <trkpt lat="48.68598" lon="-4.07661">
        <ele>10.6</ele>
        <time>2025-09-23T10:59:23Z</time>
      </trkpt>
      <trkpt lat="48.68609" lon="-4.07694">
        <ele>10</ele>
        <time>2025-09-23T10:59:27Z</time>
      </trkpt>
      <trkpt lat="48.68619" lon="-4.07722">
        <ele>10.2</ele>
        <time>2025-09-23T10:59:31Z</time>
      </trkpt>
      <trkpt lat="48.6863" lon="-4.07759">
        <ele>11</ele>
        <time>2025-09-23T10:59:38Z</time>
      </trkpt>
      <trkpt lat="48.68635" lon="-4.07772">
        <ele>11.6</ele>
        <time>2025-09-23T10:59:41Z</time>
      </trkpt>
      <trkpt lat="48.68638" lon="-4.07784">
        <ele>12.2</ele>
        <time>2025-09-23T10:59:44Z</time>
      </trkpt>
      <trkpt lat="48.6864" lon="-4.07792">
        <ele>12.4</ele>
        <time>2025-09-23T10:59:46Z</time>
      </trkpt>
      <trkpt lat="48.68643" lon="-4.07808">
        <ele>12.8</ele>
        <time>2025-09-23T10:59:50Z</time>
      </trkpt>
      <trkpt lat="48.68646" lon="-4.07823">
        <ele>13.2</ele>
        <time>2025-09-23T10:59:54Z</time>
      </trkpt>
      <trkpt lat="48.68647" lon="-4.07827">
        <ele>13.4</ele>
        <time>2025-09-23T10:59:55Z</time>
      </trkpt>
      <trkpt lat="48.68651" lon="-4.07854">
        <ele>14.2</ele>
        <time>2025-09-23T11:00:02Z</time>
      </trkpt>
      <trkpt lat="48.68653" lon="-4.07866">
        <ele>14.6</ele>
        <time>2025-09-23T11:00:05Z</time>
      </trkpt>
      <trkpt lat="48.68656" lon="-4.07882">
        <ele>15.2</ele>
        <time>2025-09-23T11:00:09Z</time>
      </trkpt>
      <trkpt lat="48.68659" lon="-4.07907">
        <ele>15.4</ele>
        <time>2025-09-23T11:00:15Z</time>
      </trkpt>
      <trkpt lat="48.68664" lon="-4.07939">
        <ele>16.4</ele>
        <time>2025-09-23T11:00:23Z</time>
      </trkpt>
      <trkpt lat="48.68664" lon="-4.07947">
        <ele>16.6</ele>
        <time>2025-09-23T11:00:25Z</time>
      </trkpt>
      <trkpt lat="48.68665" lon="-4.07998">
        <ele>16.6</ele>
        <time>2025-09-23T11:00:37Z</time>
      </trkpt>
      <trkpt lat="48.68665" lon="-4.0802">
        <ele>17</ele>
        <time>2025-09-23T11:00:42Z</time>
      </trkpt>
      <trkpt lat="48.68665" lon="-4.08033">
        <ele>16.8</ele>
        <time>2025-09-23T11:00:45Z</time>
      </trkpt>
      <trkpt lat="48.68666" lon="-4.08049">
        <ele>17</ele>
        <time>2025-09-23T11:00:49Z</time>
      </trkpt>
      <trkpt lat="48.68669" lon="-4.08068">
        <ele>17.2</ele>
        <time>2025-09-23T11:00:54Z</time>
      </trkpt>
      <trkpt lat="48.68673" lon="-4.08097">
        <ele>17</ele>
        <time>2025-09-23T11:01:01Z</time>
      </trkpt>
      <trkpt lat="48.68675" lon="-4.08127">
        <ele>17.2</ele>
        <time>2025-09-23T11:01:08Z</time>
      </trkpt>
      <trkpt lat="48.68676" lon="-4.08135">
        <ele>17.4</ele>
        <time>2025-09-23T11:01:10Z</time>
      </trkpt>
      <trkpt lat="48.68679" lon="-4.08158">
        <ele>18</ele>
        <time>2025-09-23T11:01:16Z</time>
      </trkpt>
      <trkpt lat="48.68682" lon="-4.08171">
        <ele>18.2</ele>
        <time>2025-09-23T11:01:20Z</time>
      </trkpt>
      <trkpt lat="48.68682" lon="-4.08177">
        <ele>18.4</ele>
        <time>2025-09-23T11:01:22Z</time>
      </trkpt>
      <trkpt lat="48.68683" lon="-4.0818">
        <ele>18.6</ele>
        <time>2025-09-23T11:01:23Z</time>
      </trkpt>
      <trkpt lat="48.68683" lon="-4.08183">
        <ele>18.8</ele>
        <time>2025-09-23T11:01:24Z</time>
      </trkpt>
      <trkpt lat="48.68687" lon="-4.08198">
        <ele>19.2</ele>
        <time>2025-09-23T11:01:30Z</time>
      </trkpt>
      <trkpt lat="48.6869" lon="-4.08206">
        <ele>19.6</ele>
        <time>2025-09-23T11:01:33Z</time>
      </trkpt>
      <trkpt lat="48.68695" lon="-4.08212">
        <ele>20</ele>
        <time>2025-09-23T11:01:36Z</time>
      </trkpt>
      <trkpt lat="48.68716" lon="-4.08226">
        <ele>20.4</ele>
        <time>2025-09-23T11:01:45Z</time>
      </trkpt>
      <trkpt lat="48.68724" lon="-4.0823">
        <ele>20.6</ele>
        <time>2025-09-23T11:01:48Z</time>
      </trkpt>
      <trkpt lat="48.68741" lon="-4.08236">
        <ele>21</ele>
        <time>2025-09-23T11:01:55Z</time>
      </trkpt>
      <trkpt lat="48.68756" lon="-4.0824">
        <ele>21.2</ele>
        <time>2025-09-23T11:02:01Z</time>
      </trkpt>
      <trkpt lat="48.68764" lon="-4.08243">
        <ele>21.2</ele>
        <time>2025-09-23T11:02:04Z</time>
      </trkpt>
      <trkpt lat="48.68777" lon="-4.08247">
        <ele>21.6</ele>
        <time>2025-09-23T11:02:10Z</time>
      </trkpt>
      <trkpt lat="48.68782" lon="-4.0825">
        <ele>21.8</ele>
        <time>2025-09-23T11:02:12Z</time>
      </trkpt>
      <trkpt lat="48.68794" lon="-4.08258">
        <ele>22.2</ele>
        <time>2025-09-23T11:02:17Z</time>
      </trkpt>
      <trkpt lat="48.688" lon="-4.08261">
        <ele>22.6</ele>
        <time>2025-09-23T11:02:20Z</time>
      </trkpt>
      <trkpt lat="48.68805" lon="-4.08262">
        <ele>22.6</ele>
        <time>2025-09-23T11:02:22Z</time>
      </trkpt>
      <trkpt lat="48.68816" lon="-4.08266">
        <ele>23</ele>
        <time>2025-09-23T11:02:27Z</time>
      </trkpt>
      <trkpt lat="48.68841" lon="-4.08268">
        <ele>23.4</ele>
        <time>2025-09-23T11:02:37Z</time>
      </trkpt>
      <trkpt lat="48.68845" lon="-4.08267">
        <ele>23.8</ele>
        <time>2025-09-23T11:02:39Z</time>
      </trkpt>
      <trkpt lat="48.68854" lon="-4.08261">
        <ele>23.8</ele>
        <time>2025-09-23T11:02:44Z</time>
      </trkpt>
      <trkpt lat="48.68869" lon="-4.08255">
        <ele>23.8</ele>
        <time>2025-09-23T11:02:50Z</time>
      </trkpt>
      <trkpt lat="48.68871" lon="-4.08254">
        <ele>23.8</ele>
        <time>2025-09-23T11:02:51Z</time>
      </trkpt>
      <trkpt lat="48.68879" lon="-4.0825">
        <ele>23.6</ele>
        <time>2025-09-23T11:02:54Z</time>
      </trkpt>
      <trkpt lat="48.68884" lon="-4.08248">
        <ele>23.6</ele>
        <time>2025-09-23T11:02:56Z</time>
      </trkpt>
      <trkpt lat="48.68893" lon="-4.08248">
        <ele>23.6</ele>
        <time>2025-09-23T11:02:59Z</time>
      </trkpt>
      <trkpt lat="48.68896" lon="-4.08247">
        <ele>23.6</ele>
        <time>2025-09-23T11:03:00Z</time>
      </trkpt>
      <trkpt lat="48.68904" lon="-4.08247">
        <ele>23.2</ele>
        <time>2025-09-23T11:03:02Z</time>
      </trkpt>
      <trkpt lat="48.68912" lon="-4.08248">
        <ele>22.8</ele>
        <time>2025-09-23T11:03:04Z</time>
      </trkpt>
      <trkpt lat="48.68916" lon="-4.08248">
        <ele>22.8</ele>
        <time>2025-09-23T11:03:05Z</time>
      </trkpt>
      <trkpt lat="48.68924" lon="-4.08251">
        <ele>22.4</ele>
        <time>2025-09-23T11:03:07Z</time>
      </trkpt>
      <trkpt lat="48.68932" lon="-4.08254">
        <ele>21.6</ele>
        <time>2025-09-23T11:03:09Z</time>
      </trkpt>
      <trkpt lat="48.68945" lon="-4.08259">
        <ele>21</ele>
        <time>2025-09-23T11:03:12Z</time>
      </trkpt>
      <trkpt lat="48.68954" lon="-4.08264">
        <ele>20.6</ele>
        <time>2025-09-23T11:03:14Z</time>
      </trkpt>
      <trkpt lat="48.68962" lon="-4.08269">
        <ele>20.2</ele>
        <time>2025-09-23T11:03:16Z</time>
      </trkpt>
      <trkpt lat="48.68971" lon="-4.08285">
        <ele>19.6</ele>
        <time>2025-09-23T11:03:20Z</time>
      </trkpt>
      <trkpt lat="48.68967" lon="-4.08303">
        <ele>19</ele>
        <time>2025-09-23T11:03:24Z</time>
      </trkpt>
      <trkpt lat="48.68954" lon="-4.08341">
        <ele>19.8</ele>
        <time>2025-09-23T11:03:33Z</time>
      </trkpt>
      <trkpt lat="48.68953" lon="-4.08371">
        <ele>19.2</ele>
        <time>2025-09-23T11:03:38Z</time>
      </trkpt>
      <trkpt lat="48.68954" lon="-4.08392">
        <ele>18.8</ele>
        <time>2025-09-23T11:03:41Z</time>
      </trkpt>
      <trkpt lat="48.68955" lon="-4.08426">
        <ele>18.4</ele>
        <time>2025-09-23T11:03:46Z</time>
      </trkpt>
      <trkpt lat="48.68956" lon="-4.08439">
        <ele>18.4</ele>
        <time>2025-09-23T11:03:48Z</time>
      </trkpt>
      <trkpt lat="48.6896" lon="-4.08493">
        <ele>18.4</ele>
        <time>2025-09-23T11:03:57Z</time>
      </trkpt>
      <trkpt lat="48.68961" lon="-4.08504">
        <ele>18.4</ele>
        <time>2025-09-23T11:03:59Z</time>
      </trkpt>
      <trkpt lat="48.68967" lon="-4.08538">
        <ele>18</ele>
        <time>2025-09-23T11:04:06Z</time>
      </trkpt>
      <trkpt lat="48.68974" lon="-4.08569">
        <ele>17.4</ele>
        <time>2025-09-23T11:04:11Z</time>
      </trkpt>
      <trkpt lat="48.68977" lon="-4.08582">
        <ele>17</ele>
        <time>2025-09-23T11:04:13Z</time>
      </trkpt>
      <trkpt lat="48.68985" lon="-4.08618">
        <ele>16.4</ele>
        <time>2025-09-23T11:04:18Z</time>
      </trkpt>
      <trkpt lat="48.68988" lon="-4.0863">
        <ele>16.2</ele>
        <time>2025-09-23T11:04:20Z</time>
      </trkpt>
      <trkpt lat="48.68991" lon="-4.08647">
        <ele>16</ele>
        <time>2025-09-23T11:04:23Z</time>
      </trkpt>
      <trkpt lat="48.69" lon="-4.08674">
        <ele>15.8</ele>
        <time>2025-09-23T11:04:28Z</time>
      </trkpt>
      <trkpt lat="48.69012" lon="-4.08707">
        <ele>16</ele>
        <time>2025-09-23T11:04:34Z</time>
      </trkpt>
      <trkpt lat="48.69022" lon="-4.08726">
        <ele>16</ele>
        <time>2025-09-23T11:04:38Z</time>
      </trkpt>
      <trkpt lat="48.69029" lon="-4.08748">
        <ele>16.4</ele>
        <time>2025-09-23T11:04:44Z</time>
      </trkpt>
      <trkpt lat="48.69035" lon="-4.08776">
        <ele>16.8</ele>
        <time>2025-09-23T11:04:51Z</time>
      </trkpt>
      <trkpt lat="48.69037" lon="-4.0879">
        <ele>16.8</ele>
        <time>2025-09-23T11:04:54Z</time>
      </trkpt>
      <trkpt lat="48.6904" lon="-4.08821">
        <ele>16.8</ele>
        <time>2025-09-23T11:05:01Z</time>
      </trkpt>
      <trkpt lat="48.69035" lon="-4.08839">
        <ele>17.2</ele>
        <time>2025-09-23T11:05:06Z</time>
      </trkpt>
      <trkpt lat="48.69033" lon="-4.08841">
        <ele>17.4</ele>
        <time>2025-09-23T11:05:07Z</time>
      </trkpt>
      <trkpt lat="48.69022" lon="-4.08845">
        <ele>17.8</ele>
        <time>2025-09-23T11:05:12Z</time>
      </trkpt>
      <trkpt lat="48.69006" lon="-4.08851">
        <ele>18.4</ele>
        <time>2025-09-23T11:05:19Z</time>
      </trkpt>
      <trkpt lat="48.69003" lon="-4.08853">
        <ele>18.6</ele>
        <time>2025-09-23T11:05:21Z</time>
      </trkpt>
      <trkpt lat="48.68989" lon="-4.08859">
        <ele>18.8</ele>
        <time>2025-09-23T11:05:28Z</time>
      </trkpt>
      <trkpt lat="48.68973" lon="-4.08862">
        <ele>19.2</ele>
        <time>2025-09-23T11:05:35Z</time>
      </trkpt>
      <trkpt lat="48.68966" lon="-4.08863">
        <ele>19.4</ele>
        <time>2025-09-23T11:05:38Z</time>
      </trkpt>
      <trkpt lat="48.68952" lon="-4.0887">
        <ele>20.2</ele>
        <time>2025-09-23T11:05:44Z</time>
      </trkpt>
      <trkpt lat="48.6895" lon="-4.08871">
        <ele>20.4</ele>
        <time>2025-09-23T11:05:45Z</time>
      </trkpt>
      <trkpt lat="48.68948" lon="-4.08873">
        <ele>20.6</ele>
        <time>2025-09-23T11:05:46Z</time>
      </trkpt>
      <trkpt lat="48.68936" lon="-4.08883">
        <ele>21.6</ele>
        <time>2025-09-23T11:05:52Z</time>
      </trkpt>
      <trkpt lat="48.6893" lon="-4.08887">
        <ele>21.6</ele>
        <time>2025-09-23T11:05:55Z</time>
      </trkpt>
      <trkpt lat="48.68917" lon="-4.08895">
        <ele>22</ele>
        <time>2025-09-23T11:06:01Z</time>
      </trkpt>
      <trkpt lat="48.68907" lon="-4.08913">
        <ele>22.6</ele>
        <time>2025-09-23T11:06:07Z</time>
      </trkpt>
      <trkpt lat="48.68909" lon="-4.08932">
        <ele>22.4</ele>
        <time>2025-09-23T11:06:11Z</time>
      </trkpt>
      <trkpt lat="48.6892" lon="-4.08967">
        <ele>21.2</ele>
        <time>2025-09-23T11:06:16Z</time>
      </trkpt>
      <trkpt lat="48.68925" lon="-4.08982">
        <ele>20.6</ele>
        <time>2025-09-23T11:06:18Z</time>
      </trkpt>
      <trkpt lat="48.68934" lon="-4.09006">
        <ele>19.6</ele>
        <time>2025-09-23T11:06:21Z</time>
      </trkpt>
      <trkpt lat="48.68944" lon="-4.09029">
        <ele>19</ele>
        <time>2025-09-23T11:06:24Z</time>
      </trkpt>
      <trkpt lat="48.68947" lon="-4.09035">
        <ele>19</ele>
        <time>2025-09-23T11:06:25Z</time>
      </trkpt>
      <trkpt lat="48.68958" lon="-4.09054">
        <ele>19</ele>
        <time>2025-09-23T11:06:28Z</time>
      </trkpt>
      <trkpt lat="48.68961" lon="-4.09062">
        <ele>19</ele>
        <time>2025-09-23T11:06:29Z</time>
      </trkpt>
      <trkpt lat="48.68963" lon="-4.09069">
        <ele>19.2</ele>
        <time>2025-09-23T11:06:30Z</time>
      </trkpt>
      <trkpt lat="48.68971" lon="-4.09104">
        <ele>19</ele>
        <time>2025-09-23T11:06:35Z</time>
      </trkpt>
      <trkpt lat="48.68976" lon="-4.09125">
        <ele>18.6</ele>
        <time>2025-09-23T11:06:39Z</time>
      </trkpt>
      <trkpt lat="48.68977" lon="-4.09136">
        <ele>18.4</ele>
        <time>2025-09-23T11:06:41Z</time>
      </trkpt>
      <trkpt lat="48.68975" lon="-4.09168">
        <ele>18</ele>
        <time>2025-09-23T11:06:47Z</time>
      </trkpt>
      <trkpt lat="48.68971" lon="-4.09174">
        <ele>17.6</ele>
        <time>2025-09-23T11:06:50Z</time>
      </trkpt>
      <trkpt lat="48.68969" lon="-4.09174">
        <ele>17.6</ele>
        <time>2025-09-23T11:06:51Z</time>
      </trkpt>
      <trkpt lat="48.68967" lon="-4.09176">
        <ele>17.4</ele>
        <time>2025-09-23T11:06:52Z</time>
      </trkpt>
      <trkpt lat="48.6896" lon="-4.09187">
        <ele>16.4</ele>
        <time>2025-09-23T11:06:55Z</time>
      </trkpt>
      <trkpt lat="48.68958" lon="-4.09192">
        <ele>16</ele>
        <time>2025-09-23T11:06:56Z</time>
      </trkpt>
      <trkpt lat="48.68954" lon="-4.09208">
        <ele>14.8</ele>
        <time>2025-09-23T11:06:59Z</time>
      </trkpt>
      <trkpt lat="48.68952" lon="-4.0922">
        <ele>14.4</ele>
        <time>2025-09-23T11:07:01Z</time>
      </trkpt>
      <trkpt lat="48.68952" lon="-4.09238">
        <ele>13.8</ele>
        <time>2025-09-23T11:07:04Z</time>
      </trkpt>
      <trkpt lat="48.68953" lon="-4.09253">
        <ele>13.2</ele>
        <time>2025-09-23T11:07:07Z</time>
      </trkpt>
      <trkpt lat="48.68953" lon="-4.09261">
        <ele>12.6</ele>
        <time>2025-09-23T11:07:09Z</time>
      </trkpt>
      <trkpt lat="48.68947" lon="-4.09276">
        <ele>12</ele>
        <time>2025-09-23T11:07:20Z</time>
      </trkpt>
      <trkpt lat="48.68943" lon="-4.09269">
        <ele>11.8</ele>
        <time>2025-09-23T11:09:02Z</time>
      </trkpt>
      <trkpt lat="48.68926" lon="-4.09268">
        <ele>11.8</ele>
        <time>2025-09-23T11:09:09Z</time>
      </trkpt>
      <trkpt lat="48.68909" lon="-4.09271">
        <ele>12</ele>
        <time>2025-09-23T11:09:15Z</time>
      </trkpt>
      <trkpt lat="48.68906" lon="-4.09272">
        <ele>12</ele>
        <time>2025-09-23T11:09:16Z</time>
      </trkpt>
      <trkpt lat="48.68879" lon="-4.09284">
        <ele>11.8</ele>
        <time>2025-09-23T11:09:25Z</time>
      </trkpt>
      <trkpt lat="48.68868" lon="-4.09293">
        <ele>11.8</ele>
        <time>2025-09-23T11:09:29Z</time>
      </trkpt>
      <trkpt lat="48.68856" lon="-4.09306">
        <ele>11.4</ele>
        <time>2025-09-23T11:09:33Z</time>
      </trkpt>
      <trkpt lat="48.6884" lon="-4.09327">
        <ele>11</ele>
        <time>2025-09-23T11:09:38Z</time>
      </trkpt>
      <trkpt lat="48.68825" lon="-4.09348">
        <ele>10.4</ele>
        <time>2025-09-23T11:09:42Z</time>
      </trkpt>
      <trkpt lat="48.68812" lon="-4.09362">
        <ele>10.2</ele>
        <time>2025-09-23T11:09:45Z</time>
      </trkpt>
      <trkpt lat="48.68803" lon="-4.09371">
        <ele>10</ele>
        <time>2025-09-23T11:09:47Z</time>
      </trkpt>
      <trkpt lat="48.68788" lon="-4.09382">
        <ele>9.8</ele>
        <time>2025-09-23T11:09:50Z</time>
      </trkpt>
      <trkpt lat="48.68754" lon="-4.09395">
        <ele>9.8</ele>
        <time>2025-09-23T11:09:57Z</time>
      </trkpt>
      <trkpt lat="48.68746" lon="-4.09397">
        <ele>10</ele>
        <time>2025-09-23T11:09:59Z</time>
      </trkpt>
      <trkpt lat="48.68727" lon="-4.09399">
        <ele>10.2</ele>
        <time>2025-09-23T11:10:04Z</time>
      </trkpt>
      <trkpt lat="48.68713" lon="-4.09397">
        <ele>10.6</ele>
        <time>2025-09-23T11:10:08Z</time>
      </trkpt>
      <trkpt lat="48.68703" lon="-4.09396">
        <ele>10.8</ele>
        <time>2025-09-23T11:10:11Z</time>
      </trkpt>
      <trkpt lat="48.68693" lon="-4.09395">
        <ele>10.8</ele>
        <time>2025-09-23T11:10:14Z</time>
      </trkpt>
      <trkpt lat="48.68685" lon="-4.09396">
        <ele>10.8</ele>
        <time>2025-09-23T11:10:16Z</time>
      </trkpt>
      <trkpt lat="48.6867" lon="-4.09398">
        <ele>10.4</ele>
        <time>2025-09-23T11:10:20Z</time>
      </trkpt>
      <trkpt lat="48.68632" lon="-4.09405">
        <ele>10.4</ele>
        <time>2025-09-23T11:10:30Z</time>
      </trkpt>
      <trkpt lat="48.68593" lon="-4.09413">
        <ele>9.4</ele>
        <time>2025-09-23T11:10:39Z</time>
      </trkpt>
      <trkpt lat="48.68588" lon="-4.09413">
        <ele>9.2</ele>
        <time>2025-09-23T11:10:40Z</time>
      </trkpt>
      <trkpt lat="48.68559" lon="-4.09417">
        <ele>7.8</ele>
        <time>2025-09-23T11:10:46Z</time>
      </trkpt>
      <trkpt lat="48.68544" lon="-4.09417">
        <ele>6.8</ele>
        <time>2025-09-23T11:10:50Z</time>
      </trkpt>
      <trkpt lat="48.68532" lon="-4.09416">
        <ele>6.2</ele>
        <time>2025-09-23T11:10:53Z</time>
      </trkpt>
      <trkpt lat="48.68519" lon="-4.09423">
        <ele>5.8</ele>
        <time>2025-09-23T11:10:58Z</time>
      </trkpt>
      <trkpt lat="48.68509" lon="-4.09454">
        <ele>5.2</ele>
        <time>2025-09-23T11:11:04Z</time>
      </trkpt>
      <trkpt lat="48.68495" lon="-4.09492">
        <ele>5</ele>
        <time>2025-09-23T11:11:10Z</time>
      </trkpt>
      <trkpt lat="48.6849" lon="-4.09504">
        <ele>4.8</ele>
        <time>2025-09-23T11:11:12Z</time>
      </trkpt>
      <trkpt lat="48.68478" lon="-4.09535">
        <ele>5</ele>
        <time>2025-09-23T11:11:17Z</time>
      </trkpt>
      <trkpt lat="48.68473" lon="-4.09546">
        <ele>5</ele>
        <time>2025-09-23T11:11:19Z</time>
      </trkpt>
      <trkpt lat="48.68465" lon="-4.09568">
        <ele>5</ele>
        <time>2025-09-23T11:11:23Z</time>
      </trkpt>
      <trkpt lat="48.68451" lon="-4.09602">
        <ele>5.2</ele>
        <time>2025-09-23T11:11:29Z</time>
      </trkpt>
      <trkpt lat="48.68448" lon="-4.09614">
        <ele>5.2</ele>
        <time>2025-09-23T11:11:31Z</time>
      </trkpt>
      <trkpt lat="48.68446" lon="-4.09628">
        <ele>5.2</ele>
        <time>2025-09-23T11:11:33Z</time>
      </trkpt>
      <trkpt lat="48.68446" lon="-4.09635">
        <ele>5.2</ele>
        <time>2025-09-23T11:11:34Z</time>
      </trkpt>
      <trkpt lat="48.68447" lon="-4.09642">
        <ele>5.4</ele>
        <time>2025-09-23T11:11:35Z</time>
      </trkpt>
      <trkpt lat="48.6845" lon="-4.09655">
        <ele>5.6</ele>
        <time>2025-09-23T11:11:37Z</time>
      </trkpt>
      <trkpt lat="48.68453" lon="-4.09661">
        <ele>5.8</ele>
        <time>2025-09-23T11:11:38Z</time>
      </trkpt>
      <trkpt lat="48.68456" lon="-4.09666">
        <ele>5.8</ele>
        <time>2025-09-23T11:11:39Z</time>
      </trkpt>
      <trkpt lat="48.68473" lon="-4.09689">
        <ele>6</ele>
        <time>2025-09-23T11:11:44Z</time>
      </trkpt>
      <trkpt lat="48.68501" lon="-4.09723">
        <ele>6.2</ele>
        <time>2025-09-23T11:11:52Z</time>
      </trkpt>
      <trkpt lat="48.68504" lon="-4.09727">
        <ele>6.2</ele>
        <time>2025-09-23T11:11:53Z</time>
      </trkpt>
      <trkpt lat="48.68528" lon="-4.09761">
        <ele>6.2</ele>
        <time>2025-09-23T11:12:00Z</time>
      </trkpt>
      <trkpt lat="48.68543" lon="-4.09794">
        <ele>6.4</ele>
        <time>2025-09-23T11:12:06Z</time>
      </trkpt>
      <trkpt lat="48.68547" lon="-4.09796">
        <ele>6.6</ele>
        <time>2025-09-23T11:12:07Z</time>
      </trkpt>
      <trkpt lat="48.68554" lon="-4.09798">
        <ele>7</ele>
        <time>2025-09-23T11:12:09Z</time>
      </trkpt>
      <trkpt lat="48.6856" lon="-4.09796">
        <ele>7.4</ele>
        <time>2025-09-23T11:12:11Z</time>
      </trkpt>
      <trkpt lat="48.68566" lon="-4.09792">
        <ele>8</ele>
        <time>2025-09-23T11:12:14Z</time>
      </trkpt>
      <trkpt lat="48.68569" lon="-4.09789">
        <ele>8.4</ele>
        <time>2025-09-23T11:12:16Z</time>
      </trkpt>
      <trkpt lat="48.68576" lon="-4.09786">
        <ele>9.2</ele>
        <time>2025-09-23T11:12:19Z</time>
      </trkpt>
      <trkpt lat="48.68583" lon="-4.09782">
        <ele>10</ele>
        <time>2025-09-23T11:12:22Z</time>
      </trkpt>
      <trkpt lat="48.68588" lon="-4.09781">
        <ele>10.4</ele>
        <time>2025-09-23T11:12:24Z</time>
      </trkpt>
      <trkpt lat="48.68595" lon="-4.09778">
        <ele>10.6</ele>
        <time>2025-09-23T11:12:27Z</time>
      </trkpt>
      <trkpt lat="48.68608" lon="-4.09776">
        <ele>11.2</ele>
        <time>2025-09-23T11:12:32Z</time>
      </trkpt>
      <trkpt lat="48.68611" lon="-4.09776">
        <ele>11.4</ele>
        <time>2025-09-23T11:12:33Z</time>
      </trkpt>
      <trkpt lat="48.68635" lon="-4.09779">
        <ele>12</ele>
        <time>2025-09-23T11:12:42Z</time>
      </trkpt>
      <trkpt lat="48.68643" lon="-4.0978">
        <ele>12.4</ele>
        <time>2025-09-23T11:12:45Z</time>
      </trkpt>
      <trkpt lat="48.68659" lon="-4.09782">
        <ele>12.6</ele>
        <time>2025-09-23T11:12:51Z</time>
      </trkpt>
      <trkpt lat="48.68679" lon="-4.09785">
        <ele>13</ele>
        <time>2025-09-23T11:12:59Z</time>
      </trkpt>
      <trkpt lat="48.68691" lon="-4.09787">
        <ele>13.4</ele>
        <time>2025-09-23T11:13:04Z</time>
      </trkpt>
      <trkpt lat="48.68698" lon="-4.09788">
        <ele>13.8</ele>
        <time>2025-09-23T11:13:07Z</time>
      </trkpt>
      <trkpt lat="48.68717" lon="-4.09792">
        <ele>14.4</ele>
        <time>2025-09-23T11:13:15Z</time>
      </trkpt>
      <trkpt lat="48.68719" lon="-4.09792">
        <ele>14.6</ele>
        <time>2025-09-23T11:13:16Z</time>
      </trkpt>
      <trkpt lat="48.68734" lon="-4.09795">
        <ele>15.4</ele>
        <time>2025-09-23T11:13:23Z</time>
      </trkpt>
      <trkpt lat="48.68736" lon="-4.09796">
        <ele>15.6</ele>
        <time>2025-09-23T11:13:24Z</time>
      </trkpt>
      <trkpt lat="48.68738" lon="-4.09797">
        <ele>15.6</ele>
        <time>2025-09-23T11:13:25Z</time>
      </trkpt>
      <trkpt lat="48.68754" lon="-4.09811">
        <ele>16.2</ele>
        <time>2025-09-23T11:13:33Z</time>
      </trkpt>
      <trkpt lat="48.68765" lon="-4.09821">
        <ele>16.2</ele>
        <time>2025-09-23T11:13:38Z</time>
      </trkpt>
      <trkpt lat="48.68771" lon="-4.09826">
        <ele>16.6</ele>
        <time>2025-09-23T11:13:41Z</time>
      </trkpt>
      <trkpt lat="48.68774" lon="-4.09827">
        <ele>16.6</ele>
        <time>2025-09-23T11:13:42Z</time>
      </trkpt>
      <trkpt lat="48.68776" lon="-4.09828">
        <ele>16.8</ele>
        <time>2025-09-23T11:13:43Z</time>
      </trkpt>
      <trkpt lat="48.68791" lon="-4.09833">
        <ele>17</ele>
        <time>2025-09-23T11:13:51Z</time>
      </trkpt>
      <trkpt lat="48.68807" lon="-4.09834">
        <ele>17.6</ele>
        <time>2025-09-23T11:13:59Z</time>
      </trkpt>
      <trkpt lat="48.68809" lon="-4.09835">
        <ele>17.8</ele>
        <time>2025-09-23T11:14:00Z</time>
      </trkpt>
      <trkpt lat="48.68816" lon="-4.09834">
        <ele>17.8</ele>
        <time>2025-09-23T11:14:03Z</time>
      </trkpt>
      <trkpt lat="48.68822" lon="-4.09833">
        <ele>18</ele>
        <time>2025-09-23T11:14:06Z</time>
      </trkpt>
      <trkpt lat="48.6884" lon="-4.09833">
        <ele>18.4</ele>
        <time>2025-09-23T11:14:14Z</time>
      </trkpt>
      <trkpt lat="48.6885" lon="-4.09832">
        <ele>18.8</ele>
        <time>2025-09-23T11:14:19Z</time>
      </trkpt>
      <trkpt lat="48.68863" lon="-4.09832">
        <ele>18.4</ele>
        <time>2025-09-23T11:14:25Z</time>
      </trkpt>
      <trkpt lat="48.68879" lon="-4.09839">
        <ele>18</ele>
        <time>2025-09-23T11:14:32Z</time>
      </trkpt>
      <trkpt lat="48.68882" lon="-4.09846">
        <ele>17.8</ele>
        <time>2025-09-23T11:14:34Z</time>
      </trkpt>
      <trkpt lat="48.68882" lon="-4.09856">
        <ele>17.4</ele>
        <time>2025-09-23T11:14:36Z</time>
      </trkpt>
      <trkpt lat="48.68883" lon="-4.09879">
        <ele>17.2</ele>
        <time>2025-09-23T11:14:40Z</time>
      </trkpt>
      <trkpt lat="48.68885" lon="-4.0989">
        <ele>17.2</ele>
        <time>2025-09-23T11:14:42Z</time>
      </trkpt>
      <trkpt lat="48.68894" lon="-4.09916">
        <ele>17</ele>
        <time>2025-09-23T11:14:47Z</time>
      </trkpt>
      <trkpt lat="48.68899" lon="-4.09929">
        <ele>17</ele>
        <time>2025-09-23T11:14:50Z</time>
      </trkpt>
      <trkpt lat="48.68909" lon="-4.09937">
        <ele>17</ele>
        <time>2025-09-23T11:14:53Z</time>
      </trkpt>
      <trkpt lat="48.68912" lon="-4.09938">
        <ele>17</ele>
        <time>2025-09-23T11:14:54Z</time>
      </trkpt>
      <trkpt lat="48.68924" lon="-4.09939">
        <ele>16.6</ele>
        <time>2025-09-23T11:14:57Z</time>
      </trkpt>
      <trkpt lat="48.68934" lon="-4.0994">
        <ele>16.6</ele>
        <time>2025-09-23T11:15:00Z</time>
      </trkpt>
      <trkpt lat="48.68964" lon="-4.0995">
        <ele>16.4</ele>
        <time>2025-09-23T11:15:09Z</time>
      </trkpt>
      <trkpt lat="48.68975" lon="-4.09957">
        <ele>16</ele>
        <time>2025-09-23T11:15:13Z</time>
      </trkpt>
      <trkpt lat="48.68985" lon="-4.09966">
        <ele>16</ele>
        <time>2025-09-23T11:15:17Z</time>
      </trkpt>
      <trkpt lat="48.68991" lon="-4.09987">
        <ele>16.4</ele>
        <time>2025-09-23T11:15:23Z</time>
      </trkpt>
      <trkpt lat="48.68993" lon="-4.1">
        <ele>16.2</ele>
        <time>2025-09-23T11:15:26Z</time>
      </trkpt>
      <trkpt lat="48.68997" lon="-4.10019">
        <ele>16.2</ele>
        <time>2025-09-23T11:15:30Z</time>
      </trkpt>
      <trkpt lat="48.68998" lon="-4.10023">
        <ele>16.2</ele>
        <time>2025-09-23T11:15:31Z</time>
      </trkpt>
      <trkpt lat="48.69008" lon="-4.10038">
        <ele>16.2</ele>
        <time>2025-09-23T11:15:36Z</time>
      </trkpt>
      <trkpt lat="48.69023" lon="-4.10042">
        <ele>16.2</ele>
        <time>2025-09-23T11:15:42Z</time>
      </trkpt>
      <trkpt lat="48.69042" lon="-4.10045">
        <ele>16.4</ele>
        <time>2025-09-23T11:15:49Z</time>
      </trkpt>
      <trkpt lat="48.69048" lon="-4.10046">
        <ele>16.6</ele>
        <time>2025-09-23T11:15:51Z</time>
      </trkpt>
      <trkpt lat="48.69063" lon="-4.10049">
        <ele>16.8</ele>
        <time>2025-09-23T11:15:57Z</time>
      </trkpt>
      <trkpt lat="48.69073" lon="-4.1006">
        <ele>17.4</ele>
        <time>2025-09-23T11:16:03Z</time>
      </trkpt>
      <trkpt lat="48.69076" lon="-4.1008">
        <ele>17</ele>
        <time>2025-09-23T11:16:09Z</time>
      </trkpt>
      <trkpt lat="48.69082" lon="-4.10113">
        <ele>17</ele>
        <time>2025-09-23T11:16:18Z</time>
      </trkpt>
      <trkpt lat="48.69086" lon="-4.10149">
        <ele>17.6</ele>
        <time>2025-09-23T11:16:27Z</time>
      </trkpt>
      <trkpt lat="48.69086" lon="-4.10152">
        <ele>17.4</ele>
        <time>2025-09-23T11:16:28Z</time>
      </trkpt>
      <trkpt lat="48.69094" lon="-4.10181">
        <ele>16.8</ele>
        <time>2025-09-23T11:16:37Z</time>
      </trkpt>
      <trkpt lat="48.69096" lon="-4.10187">
        <ele>17.2</ele>
        <time>2025-09-23T11:16:39Z</time>
      </trkpt>
      <trkpt lat="48.69105" lon="-4.10209">
        <ele>17.4</ele>
        <time>2025-09-23T11:16:45Z</time>
      </trkpt>
      <trkpt lat="48.69106" lon="-4.10213">
        <ele>17.4</ele>
        <time>2025-09-23T11:16:46Z</time>
      </trkpt>
      <trkpt lat="48.69109" lon="-4.10221">
        <ele>17.6</ele>
        <time>2025-09-23T11:16:48Z</time>
      </trkpt>
      <trkpt lat="48.6911" lon="-4.10244">
        <ele>17.8</ele>
        <time>2025-09-23T11:16:53Z</time>
      </trkpt>
      <trkpt lat="48.69115" lon="-4.10301">
        <ele>18.4</ele>
        <time>2025-09-23T11:17:05Z</time>
      </trkpt>
      <trkpt lat="48.69119" lon="-4.1033">
        <ele>18.6</ele>
        <time>2025-09-23T11:17:11Z</time>
      </trkpt>
      <trkpt lat="48.6912" lon="-4.10339">
        <ele>18.6</ele>
        <time>2025-09-23T11:17:13Z</time>
      </trkpt>
      <trkpt lat="48.69124" lon="-4.10365">
        <ele>18.4</ele>
        <time>2025-09-23T11:17:19Z</time>
      </trkpt>
      <trkpt lat="48.69123" lon="-4.10396">
        <ele>18.6</ele>
        <time>2025-09-23T11:17:26Z</time>
      </trkpt>
      <trkpt lat="48.69123" lon="-4.10424">
        <ele>18.8</ele>
        <time>2025-09-23T11:17:33Z</time>
      </trkpt>
      <trkpt lat="48.69132" lon="-4.10441">
        <ele>19.2</ele>
        <time>2025-09-23T11:17:38Z</time>
      </trkpt>
      <trkpt lat="48.69146" lon="-4.10447">
        <ele>19.2</ele>
        <time>2025-09-23T11:17:44Z</time>
      </trkpt>
      <trkpt lat="48.69154" lon="-4.10447">
        <ele>19.8</ele>
        <time>2025-09-23T11:17:47Z</time>
      </trkpt>
      <trkpt lat="48.6917" lon="-4.10445">
        <ele>19.4</ele>
        <time>2025-09-23T11:17:52Z</time>
      </trkpt>
      <trkpt lat="48.69182" lon="-4.10445">
        <ele>19</ele>
        <time>2025-09-23T11:17:55Z</time>
      </trkpt>
      <trkpt lat="48.69186" lon="-4.10445">
        <ele>18.8</ele>
        <time>2025-09-23T11:17:56Z</time>
      </trkpt>
      <trkpt lat="48.6919" lon="-4.10445">
        <ele>18.6</ele>
        <time>2025-09-23T11:17:57Z</time>
      </trkpt>
      <trkpt lat="48.69208" lon="-4.10445">
        <ele>18.2</ele>
        <time>2025-09-23T11:18:01Z</time>
      </trkpt>
      <trkpt lat="48.69212" lon="-4.10444">
        <ele>18</ele>
        <time>2025-09-23T11:18:02Z</time>
      </trkpt>
      <trkpt lat="48.69221" lon="-4.10445">
        <ele>17.6</ele>
        <time>2025-09-23T11:18:04Z</time>
      </trkpt>
      <trkpt lat="48.69225" lon="-4.10445">
        <ele>17.6</ele>
        <time>2025-09-23T11:18:05Z</time>
      </trkpt>
      <trkpt lat="48.69244" lon="-4.10445">
        <ele>16.8</ele>
        <time>2025-09-23T11:18:10Z</time>
      </trkpt>
      <trkpt lat="48.69251" lon="-4.10446">
        <ele>16.4</ele>
        <time>2025-09-23T11:18:12Z</time>
      </trkpt>
      <trkpt lat="48.69257" lon="-4.10455">
        <ele>16.2</ele>
        <time>2025-09-23T11:18:15Z</time>
      </trkpt>
      <trkpt lat="48.6926" lon="-4.10468">
        <ele>15.6</ele>
        <time>2025-09-23T11:18:19Z</time>
      </trkpt>
      <trkpt lat="48.69259" lon="-4.10468">
        <ele>15.4</ele>
        <time>2025-09-23T11:18:20Z</time>
      </trkpt>
      <trkpt lat="48.69259" lon="-4.10465">
        <ele>15.4</ele>
        <time>2025-09-23T11:18:25Z</time>
      </trkpt>
      <trkpt lat="48.69261" lon="-4.10464">
        <ele>15.4</ele>
        <time>2025-09-23T11:18:27Z</time>
      </trkpt>
      <trkpt lat="48.6926" lon="-4.10463">
        <ele>15.2</ele>
        <time>2025-09-23T11:18:28Z</time>
      </trkpt>
      <trkpt lat="48.6926" lon="-4.10464">
        <ele>15.4</ele>
        <time>2025-09-23T11:18:31Z</time>
      </trkpt>
      <trkpt lat="48.69258" lon="-4.10466">
        <ele>15.4</ele>
        <time>2025-09-23T11:18:43Z</time>
      </trkpt>
      <trkpt lat="48.69259" lon="-4.1047">
        <ele>15.2</ele>
        <time>2025-09-23T11:18:47Z</time>
      </trkpt>
      <trkpt lat="48.69259" lon="-4.10472">
        <ele>15.2</ele>
        <time>2025-09-23T11:18:55Z</time>
      </trkpt>
      <trkpt lat="48.69259" lon="-4.10489">
        <ele>15</ele>
        <time>2025-09-23T11:19:01Z</time>
      </trkpt>
      <trkpt lat="48.69259" lon="-4.105">
        <ele>15</ele>
        <time>2025-09-23T11:19:04Z</time>
      </trkpt>
      <trkpt lat="48.69258" lon="-4.10513">
        <ele>14.8</ele>
        <time>2025-09-23T11:19:08Z</time>
      </trkpt>
      <trkpt lat="48.69258" lon="-4.10533">
        <ele>14.6</ele>
        <time>2025-09-23T11:19:15Z</time>
      </trkpt>
      <trkpt lat="48.69259" lon="-4.10535">
        <ele>14.4</ele>
        <time>2025-09-23T11:19:16Z</time>
      </trkpt>
      <trkpt lat="48.69265" lon="-4.10554">
        <ele>14</ele>
        <time>2025-09-23T11:19:21Z</time>
      </trkpt>
      <trkpt lat="48.69271" lon="-4.10569">
        <ele>13.4</ele>
        <time>2025-09-23T11:19:24Z</time>
      </trkpt>
      <trkpt lat="48.69282" lon="-4.10596">
        <ele>12.8</ele>
        <time>2025-09-23T11:19:29Z</time>
      </trkpt>
      <trkpt lat="48.69288" lon="-4.10616">
        <ele>12.4</ele>
        <time>2025-09-23T11:19:33Z</time>
      </trkpt>
      <trkpt lat="48.6929" lon="-4.10621">
        <ele>12.2</ele>
        <time>2025-09-23T11:19:34Z</time>
      </trkpt>
      <trkpt lat="48.69294" lon="-4.10633">
        <ele>12</ele>
        <time>2025-09-23T11:19:36Z</time>
      </trkpt>
      <trkpt lat="48.69303" lon="-4.10654">
        <ele>11.6</ele>
        <time>2025-09-23T11:19:40Z</time>
      </trkpt>
      <trkpt lat="48.6931" lon="-4.1067">
        <ele>11.6</ele>
        <time>2025-09-23T11:19:46Z</time>
      </trkpt>
      <trkpt lat="48.69316" lon="-4.10683">
        <ele>11.8</ele>
        <time>2025-09-23T11:19:52Z</time>
      </trkpt>
      <trkpt lat="48.69323" lon="-4.10701">
        <ele>12</ele>
        <time>2025-09-23T11:19:59Z</time>
      </trkpt>
      <trkpt lat="48.69333" lon="-4.10726">
        <ele>12.8</ele>
        <time>2025-09-23T11:20:08Z</time>
      </trkpt>
      <trkpt lat="48.69343" lon="-4.10746">
        <ele>13.2</ele>
        <time>2025-09-23T11:20:15Z</time>
      </trkpt>
      <trkpt lat="48.69345" lon="-4.1075">
        <ele>13.4</ele>
        <time>2025-09-23T11:20:17Z</time>
      </trkpt>
      <trkpt lat="48.69351" lon="-4.10763">
        <ele>13.8</ele>
        <time>2025-09-23T11:20:23Z</time>
      </trkpt>
      <trkpt lat="48.69358" lon="-4.10784">
        <ele>14.2</ele>
        <time>2025-09-23T11:20:33Z</time>
      </trkpt>
      <trkpt lat="48.69359" lon="-4.10787">
        <ele>14.2</ele>
        <time>2025-09-23T11:20:36Z</time>
      </trkpt>
      <trkpt lat="48.6936" lon="-4.1079">
        <ele>14.2</ele>
        <time>2025-09-23T11:20:47Z</time>
      </trkpt>
      <trkpt lat="48.69361" lon="-4.10792">
        <ele>14</ele>
        <time>2025-09-23T11:20:48Z</time>
      </trkpt>
      <trkpt lat="48.69365" lon="-4.10805">
        <ele>14.4</ele>
        <time>2025-09-23T11:20:53Z</time>
      </trkpt>
      <trkpt lat="48.69372" lon="-4.10832">
        <ele>14</ele>
        <time>2025-09-23T11:21:01Z</time>
      </trkpt>
      <trkpt lat="48.69375" lon="-4.10842">
        <ele>13.6</ele>
        <time>2025-09-23T11:21:04Z</time>
      </trkpt>
      <trkpt lat="48.69378" lon="-4.10853">
        <ele>13.6</ele>
        <time>2025-09-23T11:21:07Z</time>
      </trkpt>
      <trkpt lat="48.69381" lon="-4.10861">
        <ele>13.4</ele>
        <time>2025-09-23T11:21:09Z</time>
      </trkpt>
      <trkpt lat="48.69392" lon="-4.10901">
        <ele>13.8</ele>
        <time>2025-09-23T11:21:18Z</time>
      </trkpt>
      <trkpt lat="48.694" lon="-4.10928">
        <ele>13.8</ele>
        <time>2025-09-23T11:21:25Z</time>
      </trkpt>
      <trkpt lat="48.69407" lon="-4.10955">
        <ele>13.8</ele>
        <time>2025-09-23T11:21:32Z</time>
      </trkpt>
      <trkpt lat="48.69408" lon="-4.10959">
        <ele>13.8</ele>
        <time>2025-09-23T11:21:33Z</time>
      </trkpt>
      <trkpt lat="48.69418" lon="-4.10994">
        <ele>14</ele>
        <time>2025-09-23T11:21:42Z</time>
      </trkpt>
      <trkpt lat="48.69423" lon="-4.11009">
        <ele>14.4</ele>
        <time>2025-09-23T11:21:46Z</time>
      </trkpt>
      <trkpt lat="48.69427" lon="-4.11024">
        <ele>14.4</ele>
        <time>2025-09-23T11:21:50Z</time>
      </trkpt>
      <trkpt lat="48.69432" lon="-4.1105">
        <ele>14</ele>
        <time>2025-09-23T11:21:56Z</time>
      </trkpt>
      <trkpt lat="48.69429" lon="-4.11056">
        <ele>14</ele>
        <time>2025-09-23T11:21:58Z</time>
      </trkpt>
      <trkpt lat="48.69425" lon="-4.11058">
        <ele>14</ele>
        <time>2025-09-23T11:22:00Z</time>
      </trkpt>
      <trkpt lat="48.69414" lon="-4.11063">
        <ele>14</ele>
        <time>2025-09-23T11:22:05Z</time>
      </trkpt>
      <trkpt lat="48.69402" lon="-4.11068">
        <ele>14.2</ele>
        <time>2025-09-23T11:22:10Z</time>
      </trkpt>
      <trkpt lat="48.694" lon="-4.1107">
        <ele>14.2</ele>
        <time>2025-09-23T11:22:11Z</time>
      </trkpt>
      <trkpt lat="48.69381" lon="-4.11079">
        <ele>14.2</ele>
        <time>2025-09-23T11:22:18Z</time>
      </trkpt>
      <trkpt lat="48.69364" lon="-4.11089">
        <ele>14.4</ele>
        <time>2025-09-23T11:22:24Z</time>
      </trkpt>
      <trkpt lat="48.69338" lon="-4.11108">
        <ele>14</ele>
        <time>2025-09-23T11:22:32Z</time>
      </trkpt>
      <trkpt lat="48.69309" lon="-4.11129">
        <ele>13.4</ele>
        <time>2025-09-23T11:22:40Z</time>
      </trkpt>
      <trkpt lat="48.69297" lon="-4.11137">
        <ele>13.6</ele>
        <time>2025-09-23T11:22:44Z</time>
      </trkpt>
      <trkpt lat="48.69293" lon="-4.11139">
        <ele>13.6</ele>
        <time>2025-09-23T11:22:45Z</time>
      </trkpt>
      <trkpt lat="48.6929" lon="-4.11141">
        <ele>13.6</ele>
        <time>2025-09-23T11:22:46Z</time>
      </trkpt>
      <trkpt lat="48.69283" lon="-4.11144">
        <ele>13.8</ele>
        <time>2025-09-23T11:22:48Z</time>
      </trkpt>
      <trkpt lat="48.69257" lon="-4.11151">
        <ele>14</ele>
        <time>2025-09-23T11:22:55Z</time>
      </trkpt>
      <trkpt lat="48.69237" lon="-4.11156">
        <ele>14.6</ele>
        <time>2025-09-23T11:23:01Z</time>
      </trkpt>
      <trkpt lat="48.69215" lon="-4.11163">
        <ele>14.8</ele>
        <time>2025-09-23T11:23:08Z</time>
      </trkpt>
      <trkpt lat="48.69213" lon="-4.11164">
        <ele>15</ele>
        <time>2025-09-23T11:23:09Z</time>
      </trkpt>
      <trkpt lat="48.69205" lon="-4.11166">
        <ele>15.4</ele>
        <time>2025-09-23T11:23:12Z</time>
      </trkpt>
      <trkpt lat="48.69202" lon="-4.11167">
        <ele>15.4</ele>
        <time>2025-09-23T11:23:13Z</time>
      </trkpt>
      <trkpt lat="48.69193" lon="-4.11169">
        <ele>15.6</ele>
        <time>2025-09-23T11:23:16Z</time>
      </trkpt>
      <trkpt lat="48.69174" lon="-4.11174">
        <ele>15.8</ele>
        <time>2025-09-23T11:23:23Z</time>
      </trkpt>
      <trkpt lat="48.69165" lon="-4.11176">
        <ele>15.8</ele>
        <time>2025-09-23T11:23:26Z</time>
      </trkpt>
      <trkpt lat="48.69134" lon="-4.11182">
        <ele>16.4</ele>
        <time>2025-09-23T11:23:36Z</time>
      </trkpt>
      <trkpt lat="48.69128" lon="-4.11181">
        <ele>16.4</ele>
        <time>2025-09-23T11:23:38Z</time>
      </trkpt>
      <trkpt lat="48.69115" lon="-4.11175">
        <ele>17</ele>
        <time>2025-09-23T11:23:43Z</time>
      </trkpt>
      <trkpt lat="48.69095" lon="-4.11163">
        <ele>16.6</ele>
        <time>2025-09-23T11:23:52Z</time>
      </trkpt>
      <trkpt lat="48.69075" lon="-4.11162">
        <ele>16.4</ele>
        <time>2025-09-23T11:23:58Z</time>
      </trkpt>
      <trkpt lat="48.6905" lon="-4.11151">
        <ele>16.2</ele>
        <time>2025-09-23T11:24:06Z</time>
      </trkpt>
      <trkpt lat="48.69024" lon="-4.11135">
        <ele>15.4</ele>
        <time>2025-09-23T11:24:14Z</time>
      </trkpt>
      <trkpt lat="48.69022" lon="-4.11134">
        <ele>15.4</ele>
        <time>2025-09-23T11:24:15Z</time>
      </trkpt>
      <trkpt lat="48.69019" lon="-4.11135">
        <ele>15.4</ele>
        <time>2025-09-23T11:24:16Z</time>
      </trkpt>
      <trkpt lat="48.69015" lon="-4.1114">
        <ele>15.4</ele>
        <time>2025-09-23T11:24:18Z</time>
      </trkpt>
      <trkpt lat="48.69016" lon="-4.11156">
        <ele>15.6</ele>
        <time>2025-09-23T11:24:22Z</time>
      </trkpt>
      <trkpt lat="48.69016" lon="-4.11177">
        <ele>16.2</ele>
        <time>2025-09-23T11:24:27Z</time>
      </trkpt>
      <trkpt lat="48.69017" lon="-4.11194">
        <ele>16.4</ele>
        <time>2025-09-23T11:24:31Z</time>
      </trkpt>
      <trkpt lat="48.69021" lon="-4.11231">
        <ele>16.2</ele>
        <time>2025-09-23T11:24:39Z</time>
      </trkpt>
      <trkpt lat="48.69021" lon="-4.11237">
        <ele>16.2</ele>
        <time>2025-09-23T11:24:40Z</time>
      </trkpt>
      <trkpt lat="48.69022" lon="-4.11249">
        <ele>16.2</ele>
        <time>2025-09-23T11:24:42Z</time>
      </trkpt>
      <trkpt lat="48.69025" lon="-4.11277">
        <ele>15.4</ele>
        <time>2025-09-23T11:24:46Z</time>
      </trkpt>
      <trkpt lat="48.69025" lon="-4.11284">
        <ele>15.2</ele>
        <time>2025-09-23T11:24:47Z</time>
      </trkpt>
      <trkpt lat="48.69028" lon="-4.11315">
        <ele>14.2</ele>
        <time>2025-09-23T11:24:52Z</time>
      </trkpt>
      <trkpt lat="48.6903" lon="-4.11336">
        <ele>13.6</ele>
        <time>2025-09-23T11:24:55Z</time>
      </trkpt>
      <trkpt lat="48.69032" lon="-4.11354">
        <ele>13</ele>
        <time>2025-09-23T11:24:57Z</time>
      </trkpt>
      <trkpt lat="48.69035" lon="-4.11383">
        <ele>12</ele>
        <time>2025-09-23T11:25:00Z</time>
      </trkpt>
      <trkpt lat="48.69036" lon="-4.11393">
        <ele>11.8</ele>
        <time>2025-09-23T11:25:01Z</time>
      </trkpt>
      <trkpt lat="48.69039" lon="-4.11427">
        <ele>10.6</ele>
        <time>2025-09-23T11:25:04Z</time>
      </trkpt>
      <trkpt lat="48.69043" lon="-4.11461">
        <ele>9.6</ele>
        <time>2025-09-23T11:25:07Z</time>
      </trkpt>
      <trkpt lat="48.69043" lon="-4.11472">
        <ele>9.4</ele>
        <time>2025-09-23T11:25:08Z</time>
      </trkpt>
      <trkpt lat="48.69044" lon="-4.11519">
        <ele>8</ele>
        <time>2025-09-23T11:25:12Z</time>
      </trkpt>
      <trkpt lat="48.69045" lon="-4.11543">
        <ele>7.2</ele>
        <time>2025-09-23T11:25:14Z</time>
      </trkpt>
      <trkpt lat="48.69045" lon="-4.11555">
        <ele>7</ele>
        <time>2025-09-23T11:25:15Z</time>
      </trkpt>
      <trkpt lat="48.69048" lon="-4.11636">
        <ele>6.2</ele>
        <time>2025-09-23T11:25:22Z</time>
      </trkpt>
      <trkpt lat="48.69051" lon="-4.11657">
        <ele>6.2</ele>
        <time>2025-09-23T11:25:24Z</time>
      </trkpt>
      <trkpt lat="48.69056" lon="-4.11686">
        <ele>6.4</ele>
        <time>2025-09-23T11:25:27Z</time>
      </trkpt>
      <trkpt lat="48.6906" lon="-4.11704">
        <ele>6.2</ele>
        <time>2025-09-23T11:25:29Z</time>
      </trkpt>
      <trkpt lat="48.69063" lon="-4.11723">
        <ele>6</ele>
        <time>2025-09-23T11:25:31Z</time>
      </trkpt>
      <trkpt lat="48.69065" lon="-4.11731">
        <ele>6</ele>
        <time>2025-09-23T11:25:32Z</time>
      </trkpt>
      <trkpt lat="48.69071" lon="-4.11775">
        <ele>6.2</ele>
        <time>2025-09-23T11:25:37Z</time>
      </trkpt>
      <trkpt lat="48.6907" lon="-4.1182">
        <ele>6</ele>
        <time>2025-09-23T11:25:43Z</time>
      </trkpt>
      <trkpt lat="48.69068" lon="-4.11841">
        <ele>5.8</ele>
        <time>2025-09-23T11:25:46Z</time>
      </trkpt>
      <trkpt lat="48.69068" lon="-4.11854">
        <ele>5.8</ele>
        <time>2025-09-23T11:25:48Z</time>
      </trkpt>
      <trkpt lat="48.69067" lon="-4.1186">
        <ele>5.8</ele>
        <time>2025-09-23T11:25:49Z</time>
      </trkpt>
      <trkpt lat="48.69066" lon="-4.1188">
        <ele>5.6</ele>
        <time>2025-09-23T11:25:52Z</time>
      </trkpt>
      <trkpt lat="48.69064" lon="-4.11921">
        <ele>5.8</ele>
        <time>2025-09-23T11:25:58Z</time>
      </trkpt>
      <trkpt lat="48.69062" lon="-4.11948">
        <ele>5.6</ele>
        <time>2025-09-23T11:26:02Z</time>
      </trkpt>
      <trkpt lat="48.69061" lon="-4.11955">
        <ele>5.6</ele>
        <time>2025-09-23T11:26:03Z</time>
      </trkpt>
      <trkpt lat="48.69061" lon="-4.11962">
        <ele>5.8</ele>
        <time>2025-09-23T11:26:04Z</time>
      </trkpt>
      <trkpt lat="48.69054" lon="-4.12035">
        <ele>5.8</ele>
        <time>2025-09-23T11:26:15Z</time>
      </trkpt>
      <trkpt lat="48.69052" lon="-4.12068">
        <ele>5.8</ele>
        <time>2025-09-23T11:26:20Z</time>
      </trkpt>
      <trkpt lat="48.69048" lon="-4.12107">
        <ele>5.6</ele>
        <time>2025-09-23T11:26:26Z</time>
      </trkpt>
      <trkpt lat="48.69044" lon="-4.12173">
        <ele>5.6</ele>
        <time>2025-09-23T11:26:36Z</time>
      </trkpt>
      <trkpt lat="48.69043" lon="-4.12227">
        <ele>5.4</ele>
        <time>2025-09-23T11:26:44Z</time>
      </trkpt>
      <trkpt lat="48.69042" lon="-4.12252">
        <ele>5.4</ele>
        <time>2025-09-23T11:26:48Z</time>
      </trkpt>
      <trkpt lat="48.69041" lon="-4.12285">
        <ele>5.6</ele>
        <time>2025-09-23T11:26:53Z</time>
      </trkpt>
      <trkpt lat="48.69041" lon="-4.12292">
        <ele>5.4</ele>
        <time>2025-09-23T11:26:54Z</time>
      </trkpt>
      <trkpt lat="48.69041" lon="-4.12298">
        <ele>5.4</ele>
        <time>2025-09-23T11:26:55Z</time>
      </trkpt>
      <trkpt lat="48.69041" lon="-4.12304">
        <ele>5.4</ele>
        <time>2025-09-23T11:26:56Z</time>
      </trkpt>
      <trkpt lat="48.69039" lon="-4.12335">
        <ele>5.6</ele>
        <time>2025-09-23T11:27:01Z</time>
      </trkpt>
      <trkpt lat="48.69038" lon="-4.12341">
        <ele>5.6</ele>
        <time>2025-09-23T11:27:02Z</time>
      </trkpt>
      <trkpt lat="48.69035" lon="-4.12394">
        <ele>6</ele>
        <time>2025-09-23T11:27:11Z</time>
      </trkpt>
      <trkpt lat="48.69036" lon="-4.12448">
        <ele>6.8</ele>
        <time>2025-09-23T11:27:21Z</time>
      </trkpt>
      <trkpt lat="48.69036" lon="-4.12453">
        <ele>7</ele>
        <time>2025-09-23T11:27:22Z</time>
      </trkpt>
      <trkpt lat="48.69039" lon="-4.12478">
        <ele>8</ele>
        <time>2025-09-23T11:27:28Z</time>
      </trkpt>
      <trkpt lat="48.6904" lon="-4.12487">
        <ele>8.4</ele>
        <time>2025-09-23T11:27:30Z</time>
      </trkpt>
      <trkpt lat="48.69043" lon="-4.12518">
        <ele>9</ele>
        <time>2025-09-23T11:27:37Z</time>
      </trkpt>
      <trkpt lat="48.69044" lon="-4.12523">
        <ele>9.2</ele>
        <time>2025-09-23T11:27:38Z</time>
      </trkpt>
      <trkpt lat="48.69044" lon="-4.12531">
        <ele>9.2</ele>
        <time>2025-09-23T11:27:40Z</time>
      </trkpt>
      <trkpt lat="48.69045" lon="-4.12576">
        <ele>9.6</ele>
        <time>2025-09-23T11:27:50Z</time>
      </trkpt>
      <trkpt lat="48.69044" lon="-4.12606">
        <ele>9.8</ele>
        <time>2025-09-23T11:27:58Z</time>
      </trkpt>
      <trkpt lat="48.69043" lon="-4.12621">
        <ele>9.8</ele>
        <time>2025-09-23T11:28:04Z</time>
      </trkpt>
      <trkpt lat="48.69043" lon="-4.12624">
        <ele>9.8</ele>
        <time>2025-09-23T11:28:05Z</time>
      </trkpt>
      <trkpt lat="48.69043" lon="-4.12628">
        <ele>9.8</ele>
        <time>2025-09-23T11:28:09Z</time>
      </trkpt>
      <trkpt lat="48.69044" lon="-4.12627">
        <ele>10</ele>
        <time>2025-09-23T11:28:14Z</time>
      </trkpt>
      <trkpt lat="48.69047" lon="-4.12629">
        <ele>9.8</ele>
        <time>2025-09-23T11:28:17Z</time>
      </trkpt>
      <trkpt lat="48.69058" lon="-4.12643">
        <ele>9.6</ele>
        <time>2025-09-23T11:28:22Z</time>
      </trkpt>
      <trkpt lat="48.6908" lon="-4.1268">
        <ele>9.2</ele>
        <time>2025-09-23T11:28:31Z</time>
      </trkpt>
      <trkpt lat="48.69097" lon="-4.12708">
        <ele>9.2</ele>
        <time>2025-09-23T11:28:38Z</time>
      </trkpt>
      <trkpt lat="48.69121" lon="-4.12737">
        <ele>9.2</ele>
        <time>2025-09-23T11:28:46Z</time>
      </trkpt>
      <trkpt lat="48.69124" lon="-4.1274">
        <ele>9.2</ele>
        <time>2025-09-23T11:28:47Z</time>
      </trkpt>
      <trkpt lat="48.69138" lon="-4.12755">
        <ele>9.2</ele>
        <time>2025-09-23T11:28:52Z</time>
      </trkpt>
      <trkpt lat="48.69145" lon="-4.12761">
        <ele>9.2</ele>
        <time>2025-09-23T11:28:54Z</time>
      </trkpt>
      <trkpt lat="48.69155" lon="-4.12769">
        <ele>9</ele>
        <time>2025-09-23T11:28:57Z</time>
      </trkpt>
      <trkpt lat="48.69187" lon="-4.12794">
        <ele>8.8</ele>
        <time>2025-09-23T11:29:06Z</time>
      </trkpt>
      <trkpt lat="48.692" lon="-4.12805">
        <ele>9</ele>
        <time>2025-09-23T11:29:10Z</time>
      </trkpt>
      <trkpt lat="48.69215" lon="-4.12817">
        <ele>9</ele>
        <time>2025-09-23T11:29:15Z</time>
      </trkpt>
      <trkpt lat="48.69249" lon="-4.12842">
        <ele>9.4</ele>
        <time>2025-09-23T11:29:26Z</time>
      </trkpt>
      <trkpt lat="48.69278" lon="-4.12854">
        <ele>9.8</ele>
        <time>2025-09-23T11:29:35Z</time>
      </trkpt>
      <trkpt lat="48.69293" lon="-4.12859">
        <ele>10.2</ele>
        <time>2025-09-23T11:29:40Z</time>
      </trkpt>
      <trkpt lat="48.69306" lon="-4.12863">
        <ele>10.4</ele>
        <time>2025-09-23T11:29:45Z</time>
      </trkpt>
      <trkpt lat="48.69311" lon="-4.12865">
        <ele>10.6</ele>
        <time>2025-09-23T11:29:47Z</time>
      </trkpt>
      <trkpt lat="48.69318" lon="-4.12868">
        <ele>11</ele>
        <time>2025-09-23T11:29:50Z</time>
      </trkpt>
      <trkpt lat="48.69326" lon="-4.12871">
        <ele>11.2</ele>
        <time>2025-09-23T11:29:53Z</time>
      </trkpt>
      <trkpt lat="48.69329" lon="-4.12872">
        <ele>11.4</ele>
        <time>2025-09-23T11:29:54Z</time>
      </trkpt>
      <trkpt lat="48.69345" lon="-4.1287">
        <ele>11.4</ele>
        <time>2025-09-23T11:30:00Z</time>
      </trkpt>
      <trkpt lat="48.69369" lon="-4.12876">
        <ele>11.2</ele>
        <time>2025-09-23T11:30:08Z</time>
      </trkpt>
      <trkpt lat="48.69389" lon="-4.12889">
        <ele>11</ele>
        <time>2025-09-23T11:30:15Z</time>
      </trkpt>
      <trkpt lat="48.69402" lon="-4.12909">
        <ele>10.6</ele>
        <time>2025-09-23T11:30:21Z</time>
      </trkpt>
      <trkpt lat="48.69407" lon="-4.12919">
        <ele>10.2</ele>
        <time>2025-09-23T11:30:24Z</time>
      </trkpt>
      <trkpt lat="48.69409" lon="-4.12925">
        <ele>9.8</ele>
        <time>2025-09-23T11:30:27Z</time>
      </trkpt>
      <trkpt lat="48.69414" lon="-4.12944">
        <ele>9.2</ele>
        <time>2025-09-23T11:30:32Z</time>
      </trkpt>
      <trkpt lat="48.69415" lon="-4.12949">
        <ele>9</ele>
        <time>2025-09-23T11:30:33Z</time>
      </trkpt>
      <trkpt lat="48.69419" lon="-4.12976">
        <ele>8.8</ele>
        <time>2025-09-23T11:30:38Z</time>
      </trkpt>
      <trkpt lat="48.6942" lon="-4.12989">
        <ele>8.4</ele>
        <time>2025-09-23T11:30:40Z</time>
      </trkpt>
      <trkpt lat="48.69421" lon="-4.13002">
        <ele>8</ele>
        <time>2025-09-23T11:30:42Z</time>
      </trkpt>
      <trkpt lat="48.69425" lon="-4.13043">
        <ele>7.6</ele>
        <time>2025-09-23T11:30:48Z</time>
      </trkpt>
      <trkpt lat="48.69425" lon="-4.13049">
        <ele>7.6</ele>
        <time>2025-09-23T11:30:49Z</time>
      </trkpt>
      <trkpt lat="48.69428" lon="-4.13105">
        <ele>7</ele>
        <time>2025-09-23T11:30:57Z</time>
      </trkpt>
      <trkpt lat="48.69429" lon="-4.13112">
        <ele>7</ele>
        <time>2025-09-23T11:30:58Z</time>
      </trkpt>
      <trkpt lat="48.6943" lon="-4.13151">
        <ele>7</ele>
        <time>2025-09-23T11:31:04Z</time>
      </trkpt>
      <trkpt lat="48.6943" lon="-4.13162">
        <ele>7.2</ele>
        <time>2025-09-23T11:31:06Z</time>
      </trkpt>
      <trkpt lat="48.69427" lon="-4.13182">
        <ele>7</ele>
        <time>2025-09-23T11:31:10Z</time>
      </trkpt>
      <trkpt lat="48.69426" lon="-4.13186">
        <ele>7</ele>
        <time>2025-09-23T11:31:11Z</time>
      </trkpt>
      <trkpt lat="48.69425" lon="-4.1321">
        <ele>7.6</ele>
        <time>2025-09-23T11:31:17Z</time>
      </trkpt>
      <trkpt lat="48.69423" lon="-4.13237">
        <ele>8</ele>
        <time>2025-09-23T11:31:24Z</time>
      </trkpt>
      <trkpt lat="48.69423" lon="-4.13244">
        <ele>8.4</ele>
        <time>2025-09-23T11:31:26Z</time>
      </trkpt>
      <trkpt lat="48.69421" lon="-4.13259">
        <ele>9</ele>
        <time>2025-09-23T11:31:31Z</time>
      </trkpt>
      <trkpt lat="48.69421" lon="-4.13264">
        <ele>9.2</ele>
        <time>2025-09-23T11:31:33Z</time>
      </trkpt>
      <trkpt lat="48.6942" lon="-4.13282">
        <ele>9.6</ele>
        <time>2025-09-23T11:31:39Z</time>
      </trkpt>
      <trkpt lat="48.6942" lon="-4.133">
        <ele>9.6</ele>
        <time>2025-09-23T11:31:46Z</time>
      </trkpt>
      <trkpt lat="48.69415" lon="-4.13328">
        <ele>10</ele>
        <time>2025-09-23T11:31:55Z</time>
      </trkpt>
      <trkpt lat="48.69412" lon="-4.13358">
        <ele>10.6</ele>
        <time>2025-09-23T11:32:04Z</time>
      </trkpt>
      <trkpt lat="48.69409" lon="-4.13378">
        <ele>10.8</ele>
        <time>2025-09-23T11:32:10Z</time>
      </trkpt>
      <trkpt lat="48.69408" lon="-4.13384">
        <ele>11</ele>
        <time>2025-09-23T11:32:12Z</time>
      </trkpt>
      <trkpt lat="48.69407" lon="-4.1339">
        <ele>11.2</ele>
        <time>2025-09-23T11:32:14Z</time>
      </trkpt>
      <trkpt lat="48.69405" lon="-4.13406">
        <ele>11.4</ele>
        <time>2025-09-23T11:32:19Z</time>
      </trkpt>
      <trkpt lat="48.69404" lon="-4.13413">
        <ele>11.6</ele>
        <time>2025-09-23T11:32:21Z</time>
      </trkpt>
      <trkpt lat="48.69404" lon="-4.13423">
        <ele>11.8</ele>
        <time>2025-09-23T11:32:24Z</time>
      </trkpt>
      <trkpt lat="48.69404" lon="-4.13442">
        <ele>11.8</ele>
        <time>2025-09-23T11:32:30Z</time>
      </trkpt>
      <trkpt lat="48.69404" lon="-4.13455">
        <ele>12.2</ele>
        <time>2025-09-23T11:32:35Z</time>
      </trkpt>
      <trkpt lat="48.69405" lon="-4.13457">
        <ele>12.4</ele>
        <time>2025-09-23T11:32:36Z</time>
      </trkpt>
      <trkpt lat="48.69407" lon="-4.1346">
        <ele>12.2</ele>
        <time>2025-09-23T11:32:40Z</time>
      </trkpt>
      <trkpt lat="48.69407" lon="-4.13456">
        <ele>12.4</ele>
        <time>2025-09-23T11:33:30Z</time>
      </trkpt>
      <trkpt lat="48.69408" lon="-4.13457">
        <ele>12.8</ele>
        <time>2025-09-23T11:33:33Z</time>
      </trkpt>
      <trkpt lat="48.69408" lon="-4.13456">
        <ele>13.4</ele>
        <time>2025-09-23T11:33:51Z</time>
      </trkpt>
      <trkpt lat="48.69408" lon="-4.13456">
        <ele>13</ele>
        <time>2025-09-23T11:33:52Z</time>
      </trkpt>
      <trkpt lat="48.69407" lon="-4.13457">
        <ele>12.2</ele>
        <time>2025-09-23T11:33:54Z</time>
      </trkpt>
      <trkpt lat="48.69406" lon="-4.13457">
        <ele>12</ele>
        <time>2025-09-23T11:33:55Z</time>
      </trkpt>
      <trkpt lat="48.69406" lon="-4.13456">
        <ele>12</ele>
        <time>2025-09-23T11:34:32Z</time>
      </trkpt>
      <trkpt lat="48.69406" lon="-4.13453">
        <ele>11.8</ele>
        <time>2025-09-23T11:34:34Z</time>
      </trkpt>
      <trkpt lat="48.69403" lon="-4.1345">
        <ele>11.6</ele>
        <time>2025-09-23T11:34:39Z</time>
      </trkpt>
      <trkpt lat="48.69403" lon="-4.1345">
        <ele>12</ele>
        <time>2025-09-23T11:34:40Z</time>
      </trkpt>
      <trkpt lat="48.69405" lon="-4.13453">
        <ele>12.6</ele>
        <time>2025-09-23T11:34:44Z</time>
      </trkpt>
      <trkpt lat="48.69405" lon="-4.13453">
        <ele>12.4</ele>
        <time>2025-09-23T11:34:46Z</time>
      </trkpt>
      <trkpt lat="48.69407" lon="-4.13453">
        <ele>12.8</ele>
        <time>2025-09-23T11:34:58Z</time>
      </trkpt>
      <trkpt lat="48.69407" lon="-4.13454">
        <ele>12.4</ele>
        <time>2025-09-23T11:35:00Z</time>
      </trkpt>
      <trkpt lat="48.69406" lon="-4.13454">
        <ele>12</ele>
        <time>2025-09-23T11:35:02Z</time>
      </trkpt>
      <trkpt lat="48.69407" lon="-4.13454">
        <ele>12.4</ele>
        <time>2025-09-23T11:35:06Z</time>
      </trkpt>
      <trkpt lat="48.69407" lon="-4.13453">
        <ele>12.4</ele>
        <time>2025-09-23T11:35:33Z</time>
      </trkpt>
      <trkpt lat="48.69407" lon="-4.13454">
        <ele>12.4</ele>
        <time>2025-09-23T11:35:37Z</time>
      </trkpt>
      <trkpt lat="48.69407" lon="-4.13454">
        <ele>12.6</ele>
        <time>2025-09-23T11:35:42Z</time>
      </trkpt>
      <trkpt lat="48.69409" lon="-4.13453">
        <ele>12.6</ele>
        <time>2025-09-23T11:35:45Z</time>
      </trkpt>
      <trkpt lat="48.69409" lon="-4.13452">
        <ele>12.6</ele>
        <time>2025-09-23T11:35:46Z</time>
      </trkpt>
      <trkpt lat="48.69409" lon="-4.13453">
        <ele>12.8</ele>
        <time>2025-09-23T11:35:48Z</time>
      </trkpt>
      <trkpt lat="48.69409" lon="-4.13454">
        <ele>13</ele>
        <time>2025-09-23T11:35:51Z</time>
      </trkpt>
      <trkpt lat="48.6941" lon="-4.13453">
        <ele>13</ele>
        <time>2025-09-23T11:35:52Z</time>
      </trkpt>
      <trkpt lat="48.69409" lon="-4.13453">
        <ele>13.2</ele>
        <time>2025-09-23T11:35:53Z</time>
      </trkpt>
      <trkpt lat="48.69408" lon="-4.13454">
        <ele>13</ele>
        <time>2025-09-23T11:35:54Z</time>
      </trkpt>
      <trkpt lat="48.69407" lon="-4.13455">
        <ele>12.6</ele>
        <time>2025-09-23T11:37:18Z</time>
      </trkpt>
      <trkpt lat="48.69407" lon="-4.13455">
        <ele>12.6</ele>
        <time>2025-09-23T11:37:19Z</time>
      </trkpt>
      <trkpt lat="48.69408" lon="-4.13455">
        <ele>12.6</ele>
        <time>2025-09-23T11:37:21Z</time>
      </trkpt>
      <trkpt lat="48.69407" lon="-4.13458">
        <ele>12.6</ele>
        <time>2025-09-23T11:40:17Z</time>
      </trkpt>
      <trkpt lat="48.69406" lon="-4.13459">
        <ele>12.6</ele>
        <time>2025-09-23T11:40:20Z</time>
      </trkpt>
      <trkpt lat="48.69407" lon="-4.13457">
        <ele>12.6</ele>
        <time>2025-09-23T11:43:03Z</time>
      </trkpt>
      <trkpt lat="48.69408" lon="-4.13457">
        <ele>12.6</ele>
        <time>2025-09-23T11:43:04Z</time>
      </trkpt>
      <trkpt lat="48.69408" lon="-4.13457">
        <ele>12.6</ele>
        <time>2025-09-23T11:43:05Z</time>
      </trkpt>
      <trkpt lat="48.69407" lon="-4.13455">
        <ele>12.6</ele>
        <time>2025-09-23T11:47:34Z</time>
      </trkpt>
      <trkpt lat="48.69407" lon="-4.13454">
        <ele>12.6</ele>
        <time>2025-09-23T11:47:35Z</time>
      </trkpt>
      <trkpt lat="48.69405" lon="-4.1345">
        <ele>12.6</ele>
        <time>2025-09-23T11:47:39Z</time>
      </trkpt>
      <trkpt lat="48.69405" lon="-4.13446">
        <ele>12.6</ele>
        <time>2025-09-23T11:47:42Z</time>
      </trkpt>
      <trkpt lat="48.69405" lon="-4.13445">
        <ele>12.6</ele>
        <time>2025-09-23T11:47:44Z</time>
      </trkpt>
      <trkpt lat="48.69404" lon="-4.13444">
        <ele>12.6</ele>
        <time>2025-09-23T11:48:50Z</time>
      </trkpt>
      <trkpt lat="48.69403" lon="-4.13443">
        <ele>12.6</ele>
        <time>2025-09-23T11:48:51Z</time>
      </trkpt>
      <trkpt lat="48.69397" lon="-4.13434">
        <ele>12.6</ele>
        <time>2025-09-23T11:48:57Z</time>
      </trkpt>
      <trkpt lat="48.69394" lon="-4.13433">
        <ele>12.8</ele>
        <time>2025-09-23T11:48:59Z</time>
      </trkpt>
      <trkpt lat="48.69391" lon="-4.13435">
        <ele>13</ele>
        <time>2025-09-23T11:49:01Z</time>
      </trkpt>
      <trkpt lat="48.69386" lon="-4.13443">
        <ele>13</ele>
        <time>2025-09-23T11:49:04Z</time>
      </trkpt>
      <trkpt lat="48.69381" lon="-4.13449">
        <ele>13.2</ele>
        <time>2025-09-23T11:49:07Z</time>
      </trkpt>
      <trkpt lat="48.69377" lon="-4.13454">
        <ele>13.4</ele>
        <time>2025-09-23T11:49:10Z</time>
      </trkpt>
      <trkpt lat="48.69374" lon="-4.13457">
        <ele>13.8</ele>
        <time>2025-09-23T11:49:12Z</time>
      </trkpt>
      <trkpt lat="48.69369" lon="-4.13463">
        <ele>14.2</ele>
        <time>2025-09-23T11:49:16Z</time>
      </trkpt>
      <trkpt lat="48.69363" lon="-4.13469">
        <ele>14.6</ele>
        <time>2025-09-23T11:49:20Z</time>
      </trkpt>
      <trkpt lat="48.69356" lon="-4.13476">
        <ele>15.4</ele>
        <time>2025-09-23T11:49:25Z</time>
      </trkpt>
      <trkpt lat="48.6935" lon="-4.13484">
        <ele>15.4</ele>
        <time>2025-09-23T11:49:29Z</time>
      </trkpt>
      <trkpt lat="48.69341" lon="-4.13499">
        <ele>14.8</ele>
        <time>2025-09-23T11:49:35Z</time>
      </trkpt>
      <trkpt lat="48.69327" lon="-4.13524">
        <ele>14.4</ele>
        <time>2025-09-23T11:49:42Z</time>
      </trkpt>
      <trkpt lat="48.69325" lon="-4.13527">
        <ele>14.2</ele>
        <time>2025-09-23T11:49:43Z</time>
      </trkpt>
      <trkpt lat="48.69316" lon="-4.13541">
        <ele>14</ele>
        <time>2025-09-23T11:49:47Z</time>
      </trkpt>
      <trkpt lat="48.69307" lon="-4.13553">
        <ele>14</ele>
        <time>2025-09-23T11:49:51Z</time>
      </trkpt>
      <trkpt lat="48.69305" lon="-4.13556">
        <ele>14</ele>
        <time>2025-09-23T11:49:52Z</time>
      </trkpt>
      <trkpt lat="48.69286" lon="-4.13581">
        <ele>14.8</ele>
        <time>2025-09-23T11:50:01Z</time>
      </trkpt>
      <trkpt lat="48.69284" lon="-4.13583">
        <ele>15</ele>
        <time>2025-09-23T11:50:02Z</time>
      </trkpt>
      <trkpt lat="48.69281" lon="-4.13587">
        <ele>15.2</ele>
        <time>2025-09-23T11:50:04Z</time>
      </trkpt>
      <trkpt lat="48.69277" lon="-4.13596">
        <ele>15.6</ele>
        <time>2025-09-23T11:50:09Z</time>
      </trkpt>
      <trkpt lat="48.6927" lon="-4.13603">
        <ele>15</ele>
        <time>2025-09-23T11:50:14Z</time>
      </trkpt>
      <trkpt lat="48.69259" lon="-4.13605">
        <ele>14.2</ele>
        <time>2025-09-23T11:50:19Z</time>
      </trkpt>
      <trkpt lat="48.69256" lon="-4.13605">
        <ele>14</ele>
        <time>2025-09-23T11:50:20Z</time>
      </trkpt>
      <trkpt lat="48.69246" lon="-4.13607">
        <ele>13</ele>
        <time>2025-09-23T11:50:24Z</time>
      </trkpt>
      <trkpt lat="48.69231" lon="-4.13609">
        <ele>12</ele>
        <time>2025-09-23T11:50:29Z</time>
      </trkpt>
      <trkpt lat="48.69217" lon="-4.13613">
        <ele>10.8</ele>
        <time>2025-09-23T11:50:33Z</time>
      </trkpt>
      <trkpt lat="48.69209" lon="-4.13612">
        <ele>10.2</ele>
        <time>2025-09-23T11:50:35Z</time>
      </trkpt>
      <trkpt lat="48.69205" lon="-4.1361">
        <ele>9.8</ele>
        <time>2025-09-23T11:50:36Z</time>
      </trkpt>
      <trkpt lat="48.69201" lon="-4.13608">
        <ele>9.6</ele>
        <time>2025-09-23T11:50:37Z</time>
      </trkpt>
      <trkpt lat="48.69184" lon="-4.13593">
        <ele>9</ele>
        <time>2025-09-23T11:50:41Z</time>
      </trkpt>
      <trkpt lat="48.69161" lon="-4.13574">
        <ele>9.2</ele>
        <time>2025-09-23T11:50:47Z</time>
      </trkpt>
      <trkpt lat="48.69156" lon="-4.13571">
        <ele>9.4</ele>
        <time>2025-09-23T11:50:49Z</time>
      </trkpt>
      <trkpt lat="48.69144" lon="-4.13563">
        <ele>10</ele>
        <time>2025-09-23T11:50:53Z</time>
      </trkpt>
      <trkpt lat="48.69142" lon="-4.13562">
        <ele>10</ele>
        <time>2025-09-23T11:50:54Z</time>
      </trkpt>
      <trkpt lat="48.69134" lon="-4.13557">
        <ele>10.2</ele>
        <time>2025-09-23T11:50:57Z</time>
      </trkpt>
      <trkpt lat="48.69122" lon="-4.13552">
        <ele>10.4</ele>
        <time>2025-09-23T11:51:01Z</time>
      </trkpt>
      <trkpt lat="48.69104" lon="-4.13543">
        <ele>10.2</ele>
        <time>2025-09-23T11:51:08Z</time>
      </trkpt>
      <trkpt lat="48.69101" lon="-4.13542">
        <ele>10.2</ele>
        <time>2025-09-23T11:51:09Z</time>
      </trkpt>
      <trkpt lat="48.69084" lon="-4.13535">
        <ele>10.2</ele>
        <time>2025-09-23T11:51:15Z</time>
      </trkpt>
      <trkpt lat="48.69062" lon="-4.13528">
        <ele>10.4</ele>
        <time>2025-09-23T11:51:23Z</time>
      </trkpt>
      <trkpt lat="48.69049" lon="-4.13527">
        <ele>10.6</ele>
        <time>2025-09-23T11:51:29Z</time>
      </trkpt>
      <trkpt lat="48.69047" lon="-4.1353">
        <ele>10.6</ele>
        <time>2025-09-23T11:51:31Z</time>
      </trkpt>
      <trkpt lat="48.69045" lon="-4.13538">
        <ele>10.6</ele>
        <time>2025-09-23T11:51:33Z</time>
      </trkpt>
      <trkpt lat="48.69044" lon="-4.13543">
        <ele>10.8</ele>
        <time>2025-09-23T11:51:34Z</time>
      </trkpt>
      <trkpt lat="48.69041" lon="-4.13568">
        <ele>11</ele>
        <time>2025-09-23T11:51:39Z</time>
      </trkpt>
      <trkpt lat="48.69038" lon="-4.13583">
        <ele>11</ele>
        <time>2025-09-23T11:51:42Z</time>
      </trkpt>
      <trkpt lat="48.69031" lon="-4.1362">
        <ele>11.2</ele>
        <time>2025-09-23T11:51:49Z</time>
      </trkpt>
      <trkpt lat="48.69029" lon="-4.13631">
        <ele>11.2</ele>
        <time>2025-09-23T11:51:51Z</time>
      </trkpt>
      <trkpt lat="48.69027" lon="-4.13647">
        <ele>11</ele>
        <time>2025-09-23T11:51:54Z</time>
      </trkpt>
      <trkpt lat="48.69021" lon="-4.13683">
        <ele>10.8</ele>
        <time>2025-09-23T11:52:00Z</time>
      </trkpt>
      <trkpt lat="48.69013" lon="-4.13731">
        <ele>10.4</ele>
        <time>2025-09-23T11:52:08Z</time>
      </trkpt>
      <trkpt lat="48.6901" lon="-4.1375">
        <ele>10</ele>
        <time>2025-09-23T11:52:11Z</time>
      </trkpt>
      <trkpt lat="48.69006" lon="-4.13772">
        <ele>9.6</ele>
        <time>2025-09-23T11:52:14Z</time>
      </trkpt>
      <trkpt lat="48.69" lon="-4.13803">
        <ele>9</ele>
        <time>2025-09-23T11:52:18Z</time>
      </trkpt>
      <trkpt lat="48.68988" lon="-4.13838">
        <ele>8.6</ele>
        <time>2025-09-23T11:52:23Z</time>
      </trkpt>
      <trkpt lat="48.68986" lon="-4.13845">
        <ele>8.6</ele>
        <time>2025-09-23T11:52:24Z</time>
      </trkpt>
      <trkpt lat="48.68964" lon="-4.13887">
        <ele>8.4</ele>
        <time>2025-09-23T11:52:31Z</time>
      </trkpt>
      <trkpt lat="48.68945" lon="-4.13921">
        <ele>8.4</ele>
        <time>2025-09-23T11:52:37Z</time>
      </trkpt>
      <trkpt lat="48.68936" lon="-4.1394">
        <ele>8.6</ele>
        <time>2025-09-23T11:52:40Z</time>
      </trkpt>
      <trkpt lat="48.68925" lon="-4.13963">
        <ele>8.6</ele>
        <time>2025-09-23T11:52:44Z</time>
      </trkpt>
      <trkpt lat="48.68916" lon="-4.13986">
        <ele>9</ele>
        <time>2025-09-23T11:52:48Z</time>
      </trkpt>
      <trkpt lat="48.68913" lon="-4.13992">
        <ele>9</ele>
        <time>2025-09-23T11:52:49Z</time>
      </trkpt>
      <trkpt lat="48.6891" lon="-4.14004">
        <ele>9</ele>
        <time>2025-09-23T11:52:51Z</time>
      </trkpt>
      <trkpt lat="48.68899" lon="-4.14043">
        <ele>8.8</ele>
        <time>2025-09-23T11:52:57Z</time>
      </trkpt>
      <trkpt lat="48.68897" lon="-4.14091">
        <ele>8.4</ele>
        <time>2025-09-23T11:53:04Z</time>
      </trkpt>
      <trkpt lat="48.68903" lon="-4.14145">
        <ele>8.6</ele>
        <time>2025-09-23T11:53:12Z</time>
      </trkpt>
      <trkpt lat="48.68916" lon="-4.14213">
        <ele>7.6</ele>
        <time>2025-09-23T11:53:22Z</time>
      </trkpt>
      <trkpt lat="48.68922" lon="-4.14252">
        <ele>7.4</ele>
        <time>2025-09-23T11:53:28Z</time>
      </trkpt>
      <trkpt lat="48.68925" lon="-4.14267">
        <ele>7.2</ele>
        <time>2025-09-23T11:53:30Z</time>
      </trkpt>
      <trkpt lat="48.68935" lon="-4.1433">
        <ele>7.6</ele>
        <time>2025-09-23T11:53:39Z</time>
      </trkpt>
      <trkpt lat="48.68936" lon="-4.14336">
        <ele>7.6</ele>
        <time>2025-09-23T11:53:40Z</time>
      </trkpt>
      <trkpt lat="48.68948" lon="-4.14405">
        <ele>6.8</ele>
        <time>2025-09-23T11:53:50Z</time>
      </trkpt>
      <trkpt lat="48.68954" lon="-4.14439">
        <ele>6.4</ele>
        <time>2025-09-23T11:53:55Z</time>
      </trkpt>
      <trkpt lat="48.6896" lon="-4.14475">
        <ele>6.6</ele>
        <time>2025-09-23T11:54:00Z</time>
      </trkpt>
      <trkpt lat="48.68967" lon="-4.14515">
        <ele>6.6</ele>
        <time>2025-09-23T11:54:06Z</time>
      </trkpt>
      <trkpt lat="48.6897" lon="-4.14536">
        <ele>6.8</ele>
        <time>2025-09-23T11:54:09Z</time>
      </trkpt>
      <trkpt lat="48.68972" lon="-4.14549">
        <ele>6.6</ele>
        <time>2025-09-23T11:54:11Z</time>
      </trkpt>
      <trkpt lat="48.68975" lon="-4.14568">
        <ele>6.6</ele>
        <time>2025-09-23T11:54:14Z</time>
      </trkpt>
      <trkpt lat="48.68978" lon="-4.1458">
        <ele>6.8</ele>
        <time>2025-09-23T11:54:16Z</time>
      </trkpt>
      <trkpt lat="48.68985" lon="-4.14607">
        <ele>7.6</ele>
        <time>2025-09-23T11:54:21Z</time>
      </trkpt>
      <trkpt lat="48.68989" lon="-4.14624">
        <ele>8.2</ele>
        <time>2025-09-23T11:54:24Z</time>
      </trkpt>
      <trkpt lat="48.68992" lon="-4.1464">
        <ele>8.6</ele>
        <time>2025-09-23T11:54:27Z</time>
      </trkpt>
      <trkpt lat="48.68997" lon="-4.14666">
        <ele>9.4</ele>
        <time>2025-09-23T11:54:32Z</time>
      </trkpt>
      <trkpt lat="48.68997" lon="-4.14672">
        <ele>9.8</ele>
        <time>2025-09-23T11:54:33Z</time>
      </trkpt>
      <trkpt lat="48.68998" lon="-4.14711">
        <ele>10.6</ele>
        <time>2025-09-23T11:54:40Z</time>
      </trkpt>
      <trkpt lat="48.68998" lon="-4.14721">
        <ele>10.8</ele>
        <time>2025-09-23T11:54:42Z</time>
      </trkpt>
      <trkpt lat="48.68998" lon="-4.14759">
        <ele>11</ele>
        <time>2025-09-23T11:54:49Z</time>
      </trkpt>
      <trkpt lat="48.68997" lon="-4.1477">
        <ele>11</ele>
        <time>2025-09-23T11:54:51Z</time>
      </trkpt>
      <trkpt lat="48.68993" lon="-4.14805">
        <ele>11.2</ele>
        <time>2025-09-23T11:54:57Z</time>
      </trkpt>
      <trkpt lat="48.68989" lon="-4.14829">
        <ele>11.2</ele>
        <time>2025-09-23T11:55:01Z</time>
      </trkpt>
      <trkpt lat="48.68984" lon="-4.14869">
        <ele>11.4</ele>
        <time>2025-09-23T11:55:07Z</time>
      </trkpt>
      <trkpt lat="48.68983" lon="-4.14883">
        <ele>11.2</ele>
        <time>2025-09-23T11:55:09Z</time>
      </trkpt>
      <trkpt lat="48.68981" lon="-4.14919">
        <ele>10.2</ele>
        <time>2025-09-23T11:55:15Z</time>
      </trkpt>
      <trkpt lat="48.68983" lon="-4.1494">
        <ele>9.6</ele>
        <time>2025-09-23T11:55:20Z</time>
      </trkpt>
      <trkpt lat="48.68983" lon="-4.14944">
        <ele>9.6</ele>
        <time>2025-09-23T11:55:21Z</time>
      </trkpt>
      <trkpt lat="48.6898" lon="-4.14955">
        <ele>9.4</ele>
        <time>2025-09-23T11:55:24Z</time>
      </trkpt>
      <trkpt lat="48.68978" lon="-4.14956">
        <ele>9.4</ele>
        <time>2025-09-23T11:55:25Z</time>
      </trkpt>
      <trkpt lat="48.68975" lon="-4.14955">
        <ele>9.4</ele>
        <time>2025-09-23T11:55:26Z</time>
      </trkpt>
      <trkpt lat="48.68975" lon="-4.14958">
        <ele>9.6</ele>
        <time>2025-09-23T11:57:39Z</time>
      </trkpt>
      <trkpt lat="48.68979" lon="-4.14971">
        <ele>9.8</ele>
        <time>2025-09-23T11:57:45Z</time>
      </trkpt>
      <trkpt lat="48.68979" lon="-4.1499">
        <ele>10.4</ele>
        <time>2025-09-23T11:57:51Z</time>
      </trkpt>
      <trkpt lat="48.68982" lon="-4.15009">
        <ele>10.6</ele>
        <time>2025-09-23T11:57:56Z</time>
      </trkpt>
      <trkpt lat="48.68983" lon="-4.15033">
        <ele>11.2</ele>
        <time>2025-09-23T11:58:02Z</time>
      </trkpt>
      <trkpt lat="48.68985" lon="-4.15046">
        <ele>11.6</ele>
        <time>2025-09-23T11:58:05Z</time>
      </trkpt>
      <trkpt lat="48.68985" lon="-4.15066">
        <ele>12.2</ele>
        <time>2025-09-23T11:58:10Z</time>
      </trkpt>
      <trkpt lat="48.68985" lon="-4.15095">
        <ele>12.6</ele>
        <time>2025-09-23T11:58:18Z</time>
      </trkpt>
      <trkpt lat="48.68985" lon="-4.15103">
        <ele>12.6</ele>
        <time>2025-09-23T11:58:20Z</time>
      </trkpt>
      <trkpt lat="48.68985" lon="-4.15107">
        <ele>12.8</ele>
        <time>2025-09-23T11:58:21Z</time>
      </trkpt>
      <trkpt lat="48.68986" lon="-4.15141">
        <ele>13</ele>
        <time>2025-09-23T11:58:29Z</time>
      </trkpt>
      <trkpt lat="48.68986" lon="-4.15162">
        <ele>13.2</ele>
        <time>2025-09-23T11:58:34Z</time>
      </trkpt>
      <trkpt lat="48.68985" lon="-4.15193">
        <ele>13</ele>
        <time>2025-09-23T11:58:41Z</time>
      </trkpt>
      <trkpt lat="48.68985" lon="-4.15235">
        <ele>13.4</ele>
        <time>2025-09-23T11:58:51Z</time>
      </trkpt>
      <trkpt lat="48.68985" lon="-4.15283">
        <ele>13.6</ele>
        <time>2025-09-23T11:59:02Z</time>
      </trkpt>
      <trkpt lat="48.68985" lon="-4.15309">
        <ele>13.4</ele>
        <time>2025-09-23T11:59:08Z</time>
      </trkpt>
      <trkpt lat="48.68984" lon="-4.15317">
        <ele>13.4</ele>
        <time>2025-09-23T11:59:10Z</time>
      </trkpt>
      <trkpt lat="48.68982" lon="-4.15353">
        <ele>13.2</ele>
        <time>2025-09-23T11:59:18Z</time>
      </trkpt>
      <trkpt lat="48.68978" lon="-4.15399">
        <ele>13.2</ele>
        <time>2025-09-23T11:59:27Z</time>
      </trkpt>
      <trkpt lat="48.68977" lon="-4.15418">
        <ele>13.4</ele>
        <time>2025-09-23T11:59:31Z</time>
      </trkpt>
      <trkpt lat="48.68976" lon="-4.15447">
        <ele>13.2</ele>
        <time>2025-09-23T11:59:37Z</time>
      </trkpt>
      <trkpt lat="48.68975" lon="-4.15466">
        <ele>13.4</ele>
        <time>2025-09-23T11:59:41Z</time>
      </trkpt>
      <trkpt lat="48.68974" lon="-4.15485">
        <ele>13.6</ele>
        <time>2025-09-23T11:59:45Z</time>
      </trkpt>
      <trkpt lat="48.68973" lon="-4.15494">
        <ele>13.8</ele>
        <time>2025-09-23T11:59:47Z</time>
      </trkpt>
      <trkpt lat="48.68971" lon="-4.15529">
        <ele>14</ele>
        <time>2025-09-23T11:59:55Z</time>
      </trkpt>
      <trkpt lat="48.68965" lon="-4.15562">
        <ele>14</ele>
        <time>2025-09-23T12:00:02Z</time>
      </trkpt>
      <trkpt lat="48.68964" lon="-4.15567">
        <ele>14</ele>
        <time>2025-09-23T12:00:03Z</time>
      </trkpt>
      <trkpt lat="48.68952" lon="-4.15609">
        <ele>13.6</ele>
        <time>2025-09-23T12:00:11Z</time>
      </trkpt>
      <trkpt lat="48.68941" lon="-4.1565">
        <ele>13.2</ele>
        <time>2025-09-23T12:00:18Z</time>
      </trkpt>
      <trkpt lat="48.68938" lon="-4.15661">
        <ele>13.2</ele>
        <time>2025-09-23T12:00:20Z</time>
      </trkpt>
      <trkpt lat="48.68933" lon="-4.15679">
        <ele>13.2</ele>
        <time>2025-09-23T12:00:23Z</time>
      </trkpt>
      <trkpt lat="48.68924" lon="-4.15713">
        <ele>13.2</ele>
        <time>2025-09-23T12:00:29Z</time>
      </trkpt>
      <trkpt lat="48.68915" lon="-4.15743">
        <ele>12.6</ele>
        <time>2025-09-23T12:00:34Z</time>
      </trkpt>
      <trkpt lat="48.68908" lon="-4.15769">
        <ele>12.4</ele>
        <time>2025-09-23T12:00:38Z</time>
      </trkpt>
      <trkpt lat="48.68906" lon="-4.15776">
        <ele>12.4</ele>
        <time>2025-09-23T12:00:39Z</time>
      </trkpt>
      <trkpt lat="48.68903" lon="-4.15796">
        <ele>12.2</ele>
        <time>2025-09-23T12:00:42Z</time>
      </trkpt>
      <trkpt lat="48.68902" lon="-4.15802">
        <ele>12.2</ele>
        <time>2025-09-23T12:00:43Z</time>
      </trkpt>
      <trkpt lat="48.689" lon="-4.15808">
        <ele>12</ele>
        <time>2025-09-23T12:00:44Z</time>
      </trkpt>
      <trkpt lat="48.68898" lon="-4.15819">
        <ele>12</ele>
        <time>2025-09-23T12:00:46Z</time>
      </trkpt>
      <trkpt lat="48.68893" lon="-4.15854">
        <ele>11.8</ele>
        <time>2025-09-23T12:00:53Z</time>
      </trkpt>
      <trkpt lat="48.68894" lon="-4.1587">
        <ele>11.8</ele>
        <time>2025-09-23T12:01:02Z</time>
      </trkpt>
      <trkpt lat="48.68893" lon="-4.15875">
        <ele>11.2</ele>
        <time>2025-09-23T12:38:03Z</time>
      </trkpt>
      <trkpt lat="48.68903" lon="-4.15878">
        <ele>11.2</ele>
        <time>2025-09-23T12:38:08Z</time>
      </trkpt>
      <trkpt lat="48.68905" lon="-4.15879">
        <ele>11</ele>
        <time>2025-09-23T12:38:09Z</time>
      </trkpt>
      <trkpt lat="48.68922" lon="-4.15888">
        <ele>10.8</ele>
        <time>2025-09-23T12:38:17Z</time>
      </trkpt>
      <trkpt lat="48.68924" lon="-4.15889">
        <ele>10.8</ele>
        <time>2025-09-23T12:38:18Z</time>
      </trkpt>
      <trkpt lat="48.6894" lon="-4.15893">
        <ele>11.2</ele>
        <time>2025-09-23T12:38:26Z</time>
      </trkpt>
      <trkpt lat="48.68945" lon="-4.15889">
        <ele>10.8</ele>
        <time>2025-09-23T12:38:32Z</time>
      </trkpt>
      <trkpt lat="48.68949" lon="-4.15892">
        <ele>10.8</ele>
        <time>2025-09-23T12:38:35Z</time>
      </trkpt>
      <trkpt lat="48.6895" lon="-4.15896">
        <ele>11</ele>
        <time>2025-09-23T12:38:37Z</time>
      </trkpt>
      <trkpt lat="48.68951" lon="-4.15901">
        <ele>11.4</ele>
        <time>2025-09-23T12:38:40Z</time>
      </trkpt>
      <trkpt lat="48.68952" lon="-4.15905">
        <ele>11.8</ele>
        <time>2025-09-23T12:38:43Z</time>
      </trkpt>
      <trkpt lat="48.68952" lon="-4.15905">
        <ele>11.8</ele>
        <time>2025-09-23T12:38:44Z</time>
      </trkpt>
      <trkpt lat="48.68951" lon="-4.15906">
        <ele>11.8</ele>
        <time>2025-09-23T12:38:50Z</time>
      </trkpt>
      <trkpt lat="48.68951" lon="-4.15906">
        <ele>11.8</ele>
        <time>2025-09-23T12:38:52Z</time>
      </trkpt>
      <trkpt lat="48.6895" lon="-4.15907">
        <ele>10.8</ele>
        <time>2025-09-23T12:44:06Z</time>
      </trkpt>
      <trkpt lat="48.68951" lon="-4.15906">
        <ele>10.8</ele>
        <time>2025-09-23T12:44:07Z</time>
      </trkpt>
      <trkpt lat="48.68949" lon="-4.15906">
        <ele>10.8</ele>
        <time>2025-09-23T12:44:16Z</time>
      </trkpt>
      <trkpt lat="48.68949" lon="-4.15904">
        <ele>10.8</ele>
        <time>2025-09-23T12:44:20Z</time>
      </trkpt>
      <trkpt lat="48.68948" lon="-4.15902">
        <ele>10.8</ele>
        <time>2025-09-23T12:44:22Z</time>
      </trkpt>
      <trkpt lat="48.68947" lon="-4.15899">
        <ele>10.8</ele>
        <time>2025-09-23T12:44:26Z</time>
      </trkpt>
      <trkpt lat="48.68948" lon="-4.15898">
        <ele>10.8</ele>
        <time>2025-09-23T12:44:28Z</time>
      </trkpt>
      <trkpt lat="48.68948" lon="-4.15893">
        <ele>10.8</ele>
        <time>2025-09-23T12:44:30Z</time>
      </trkpt>
      <trkpt lat="48.68947" lon="-4.15889">
        <ele>10.8</ele>
        <time>2025-09-23T12:44:32Z</time>
      </trkpt>
      <trkpt lat="48.68946" lon="-4.15889">
        <ele>10.8</ele>
        <time>2025-09-23T12:44:33Z</time>
      </trkpt>
      <trkpt lat="48.68943" lon="-4.1589">
        <ele>11</ele>
        <time>2025-09-23T12:44:35Z</time>
      </trkpt>
      <trkpt lat="48.68943" lon="-4.15891">
        <ele>11.2</ele>
        <time>2025-09-23T12:44:36Z</time>
      </trkpt>
      <trkpt lat="48.68936" lon="-4.15895">
        <ele>11.2</ele>
        <time>2025-09-23T12:44:42Z</time>
      </trkpt>
      <trkpt lat="48.68929" lon="-4.15897">
        <ele>11.2</ele>
        <time>2025-09-23T12:44:46Z</time>
      </trkpt>
      <trkpt lat="48.68927" lon="-4.15899">
        <ele>11.2</ele>
        <time>2025-09-23T12:44:47Z</time>
      </trkpt>
      <trkpt lat="48.6892" lon="-4.15904">
        <ele>11.2</ele>
        <time>2025-09-23T12:44:51Z</time>
      </trkpt>
      <trkpt lat="48.6892" lon="-4.15907">
        <ele>11.2</ele>
        <time>2025-09-23T12:44:52Z</time>
      </trkpt>
      <trkpt lat="48.68914" lon="-4.15918">
        <ele>11.4</ele>
        <time>2025-09-23T12:44:58Z</time>
      </trkpt>
      <trkpt lat="48.68905" lon="-4.15924">
        <ele>11.4</ele>
        <time>2025-09-23T12:45:05Z</time>
      </trkpt>
      <trkpt lat="48.68904" lon="-4.1593">
        <ele>11.6</ele>
        <time>2025-09-23T12:45:09Z</time>
      </trkpt>
      <trkpt lat="48.68903" lon="-4.15931">
        <ele>11.6</ele>
        <time>2025-09-23T12:45:10Z</time>
      </trkpt>
      <trkpt lat="48.68897" lon="-4.15936">
        <ele>11.8</ele>
        <time>2025-09-23T12:45:16Z</time>
      </trkpt>
      <trkpt lat="48.68896" lon="-4.15937">
        <ele>12</ele>
        <time>2025-09-23T12:45:19Z</time>
      </trkpt>
      <trkpt lat="48.68893" lon="-4.15935">
        <ele>11.8</ele>
        <time>2025-09-23T12:45:45Z</time>
      </trkpt>
      <trkpt lat="48.68891" lon="-4.15935">
        <ele>11.8</ele>
        <time>2025-09-23T12:45:46Z</time>
      </trkpt>
      <trkpt lat="48.68889" lon="-4.15936">
        <ele>11.8</ele>
        <time>2025-09-23T12:45:47Z</time>
      </trkpt>
      <trkpt lat="48.68886" lon="-4.15945">
        <ele>12</ele>
        <time>2025-09-23T12:45:50Z</time>
      </trkpt>
      <trkpt lat="48.68883" lon="-4.1597">
        <ele>12</ele>
        <time>2025-09-23T12:45:57Z</time>
      </trkpt>
      <trkpt lat="48.6888" lon="-4.15985">
        <ele>11.8</ele>
        <time>2025-09-23T12:46:01Z</time>
      </trkpt>
      <trkpt lat="48.68876" lon="-4.16005">
        <ele>11.8</ele>
        <time>2025-09-23T12:46:06Z</time>
      </trkpt>
      <trkpt lat="48.68874" lon="-4.16025">
        <ele>12</ele>
        <time>2025-09-23T12:46:11Z</time>
      </trkpt>
      <trkpt lat="48.68867" lon="-4.16068">
        <ele>12</ele>
        <time>2025-09-23T12:46:21Z</time>
      </trkpt>
      <trkpt lat="48.68864" lon="-4.16085">
        <ele>12.2</ele>
        <time>2025-09-23T12:46:25Z</time>
      </trkpt>
      <trkpt lat="48.68862" lon="-4.16103">
        <ele>12.2</ele>
        <time>2025-09-23T12:46:29Z</time>
      </trkpt>
      <trkpt lat="48.6886" lon="-4.16113">
        <ele>12.4</ele>
        <time>2025-09-23T12:46:31Z</time>
      </trkpt>
      <trkpt lat="48.68855" lon="-4.16142">
        <ele>12.2</ele>
        <time>2025-09-23T12:46:37Z</time>
      </trkpt>
      <trkpt lat="48.68853" lon="-4.16159">
        <ele>12.2</ele>
        <time>2025-09-23T12:46:40Z</time>
      </trkpt>
      <trkpt lat="48.68844" lon="-4.16208">
        <ele>12</ele>
        <time>2025-09-23T12:46:48Z</time>
      </trkpt>
      <trkpt lat="48.68834" lon="-4.16266">
        <ele>11.6</ele>
        <time>2025-09-23T12:46:57Z</time>
      </trkpt>
      <trkpt lat="48.68822" lon="-4.16336">
        <ele>10.6</ele>
        <time>2025-09-23T12:47:06Z</time>
      </trkpt>
      <trkpt lat="48.68821" lon="-4.16344">
        <ele>10.4</ele>
        <time>2025-09-23T12:47:07Z</time>
      </trkpt>
      <trkpt lat="48.68816" lon="-4.1637">
        <ele>10.2</ele>
        <time>2025-09-23T12:47:10Z</time>
      </trkpt>
      <trkpt lat="48.68806" lon="-4.16426">
        <ele>10</ele>
        <time>2025-09-23T12:47:17Z</time>
      </trkpt>
      <trkpt lat="48.68798" lon="-4.1648">
        <ele>10.2</ele>
        <time>2025-09-23T12:47:25Z</time>
      </trkpt>
      <trkpt lat="48.68795" lon="-4.16499">
        <ele>10.2</ele>
        <time>2025-09-23T12:47:28Z</time>
      </trkpt>
      <trkpt lat="48.68788" lon="-4.16534">
        <ele>10.4</ele>
        <time>2025-09-23T12:47:34Z</time>
      </trkpt>
      <trkpt lat="48.68783" lon="-4.16572">
        <ele>10.2</ele>
        <time>2025-09-23T12:47:40Z</time>
      </trkpt>
      <trkpt lat="48.68774" lon="-4.16632">
        <ele>9.6</ele>
        <time>2025-09-23T12:47:49Z</time>
      </trkpt>
      <trkpt lat="48.68774" lon="-4.16645">
        <ele>9.6</ele>
        <time>2025-09-23T12:47:51Z</time>
      </trkpt>
      <trkpt lat="48.68774" lon="-4.16659">
        <ele>9.6</ele>
        <time>2025-09-23T12:47:53Z</time>
      </trkpt>
      <trkpt lat="48.68774" lon="-4.16665">
        <ele>9.6</ele>
        <time>2025-09-23T12:47:54Z</time>
      </trkpt>
      <trkpt lat="48.68771" lon="-4.16705">
        <ele>9.6</ele>
        <time>2025-09-23T12:48:00Z</time>
      </trkpt>
      <trkpt lat="48.68769" lon="-4.16718">
        <ele>9.6</ele>
        <time>2025-09-23T12:48:02Z</time>
      </trkpt>
      <trkpt lat="48.68767" lon="-4.16724">
        <ele>9.4</ele>
        <time>2025-09-23T12:48:03Z</time>
      </trkpt>
      <trkpt lat="48.68765" lon="-4.1673">
        <ele>9.4</ele>
        <time>2025-09-23T12:48:04Z</time>
      </trkpt>
      <trkpt lat="48.68756" lon="-4.16767">
        <ele>9.4</ele>
        <time>2025-09-23T12:48:10Z</time>
      </trkpt>
      <trkpt lat="48.68749" lon="-4.16786">
        <ele>9.4</ele>
        <time>2025-09-23T12:48:13Z</time>
      </trkpt>
      <trkpt lat="48.6874" lon="-4.16811">
        <ele>9.4</ele>
        <time>2025-09-23T12:48:17Z</time>
      </trkpt>
      <trkpt lat="48.68719" lon="-4.16868">
        <ele>9.2</ele>
        <time>2025-09-23T12:48:26Z</time>
      </trkpt>
      <trkpt lat="48.68699" lon="-4.16904">
        <ele>9</ele>
        <time>2025-09-23T12:48:33Z</time>
      </trkpt>
      <trkpt lat="48.68694" lon="-4.16912">
        <ele>9.2</ele>
        <time>2025-09-23T12:48:35Z</time>
      </trkpt>
      <trkpt lat="48.6868" lon="-4.16933">
        <ele>9.4</ele>
        <time>2025-09-23T12:48:42Z</time>
      </trkpt>
      <trkpt lat="48.68674" lon="-4.16947">
        <ele>9.6</ele>
        <time>2025-09-23T12:48:47Z</time>
      </trkpt>
      <trkpt lat="48.68672" lon="-4.16961">
        <ele>9.8</ele>
        <time>2025-09-23T12:48:51Z</time>
      </trkpt>
      <trkpt lat="48.68673" lon="-4.16971">
        <ele>10</ele>
        <time>2025-09-23T12:48:54Z</time>
      </trkpt>
      <trkpt lat="48.68675" lon="-4.16983">
        <ele>10.2</ele>
        <time>2025-09-23T12:49:00Z</time>
      </trkpt>
      <trkpt lat="48.68676" lon="-4.16983">
        <ele>10.2</ele>
        <time>2025-09-23T12:49:02Z</time>
      </trkpt>
      <trkpt lat="48.68675" lon="-4.16984">
        <ele>10.2</ele>
        <time>2025-09-23T12:49:31Z</time>
      </trkpt>
      <trkpt lat="48.68673" lon="-4.16986">
        <ele>10.2</ele>
        <time>2025-09-23T12:49:33Z</time>
      </trkpt>
      <trkpt lat="48.68664" lon="-4.16995">
        <ele>10.2</ele>
        <time>2025-09-23T12:49:39Z</time>
      </trkpt>
      <trkpt lat="48.68652" lon="-4.1701">
        <ele>10.4</ele>
        <time>2025-09-23T12:49:46Z</time>
      </trkpt>
      <trkpt lat="48.68646" lon="-4.17023">
        <ele>10.4</ele>
        <time>2025-09-23T12:49:50Z</time>
      </trkpt>
      <trkpt lat="48.68644" lon="-4.17026">
        <ele>10.4</ele>
        <time>2025-09-23T12:49:51Z</time>
      </trkpt>
      <trkpt lat="48.68633" lon="-4.17045">
        <ele>10.4</ele>
        <time>2025-09-23T12:49:57Z</time>
      </trkpt>
      <trkpt lat="48.68629" lon="-4.17052">
        <ele>10.4</ele>
        <time>2025-09-23T12:49:59Z</time>
      </trkpt>
      <trkpt lat="48.68624" lon="-4.1706">
        <ele>10.4</ele>
        <time>2025-09-23T12:50:01Z</time>
      </trkpt>
      <trkpt lat="48.68611" lon="-4.17086">
        <ele>10.4</ele>
        <time>2025-09-23T12:50:07Z</time>
      </trkpt>
      <trkpt lat="48.68594" lon="-4.17123">
        <ele>10.4</ele>
        <time>2025-09-23T12:50:15Z</time>
      </trkpt>
      <trkpt lat="48.68583" lon="-4.17168">
        <ele>10</ele>
        <time>2025-09-23T12:50:22Z</time>
      </trkpt>
      <trkpt lat="48.68576" lon="-4.17205">
        <ele>9.4</ele>
        <time>2025-09-23T12:50:28Z</time>
      </trkpt>
      <trkpt lat="48.68576" lon="-4.1721">
        <ele>9.4</ele>
        <time>2025-09-23T12:50:29Z</time>
      </trkpt>
      <trkpt lat="48.68573" lon="-4.1723">
        <ele>9</ele>
        <time>2025-09-23T12:50:33Z</time>
      </trkpt>
      <trkpt lat="48.68572" lon="-4.17241">
        <ele>8.8</ele>
        <time>2025-09-23T12:50:36Z</time>
      </trkpt>
      <trkpt lat="48.68572" lon="-4.17244">
        <ele>8.8</ele>
        <time>2025-09-23T12:50:37Z</time>
      </trkpt>
      <trkpt lat="48.68571" lon="-4.17251">
        <ele>8.6</ele>
        <time>2025-09-23T12:50:40Z</time>
      </trkpt>
      <trkpt lat="48.6857" lon="-4.17259">
        <ele>8.4</ele>
        <time>2025-09-23T12:50:44Z</time>
      </trkpt>
      <trkpt lat="48.68566" lon="-4.17267">
        <ele>8.4</ele>
        <time>2025-09-23T12:50:48Z</time>
      </trkpt>
      <trkpt lat="48.68565" lon="-4.17271">
        <ele>8</ele>
        <time>2025-09-23T12:50:50Z</time>
      </trkpt>
      <trkpt lat="48.68563" lon="-4.17278">
        <ele>7.8</ele>
        <time>2025-09-23T12:50:55Z</time>
      </trkpt>
      <trkpt lat="48.68561" lon="-4.17282">
        <ele>8</ele>
        <time>2025-09-23T12:50:58Z</time>
      </trkpt>
      <trkpt lat="48.68559" lon="-4.17286">
        <ele>8</ele>
        <time>2025-09-23T12:51:00Z</time>
      </trkpt>
      <trkpt lat="48.68558" lon="-4.17288">
        <ele>8</ele>
        <time>2025-09-23T12:51:02Z</time>
      </trkpt>
      <trkpt lat="48.68559" lon="-4.17288">
        <ele>7.8</ele>
        <time>2025-09-23T12:51:03Z</time>
      </trkpt>
      <trkpt lat="48.68558" lon="-4.17289">
        <ele>7.8</ele>
        <time>2025-09-23T12:51:06Z</time>
      </trkpt>
      <trkpt lat="48.68556" lon="-4.17292">
        <ele>7.8</ele>
        <time>2025-09-23T12:51:10Z</time>
      </trkpt>
      <trkpt lat="48.68553" lon="-4.17296">
        <ele>8.4</ele>
        <time>2025-09-23T12:51:16Z</time>
      </trkpt>
      <trkpt lat="48.68552" lon="-4.17299">
        <ele>8.6</ele>
        <time>2025-09-23T12:51:23Z</time>
      </trkpt>
      <trkpt lat="48.68552" lon="-4.17301">
        <ele>8.6</ele>
        <time>2025-09-23T12:51:26Z</time>
      </trkpt>
      <trkpt lat="48.68553" lon="-4.17302">
        <ele>8.6</ele>
        <time>2025-09-23T12:51:33Z</time>
      </trkpt>
      <trkpt lat="48.68554" lon="-4.17302">
        <ele>8.6</ele>
        <time>2025-09-23T12:51:34Z</time>
      </trkpt>
      <trkpt lat="48.68561" lon="-4.17313">
        <ele>8.4</ele>
        <time>2025-09-23T12:51:41Z</time>
      </trkpt>
      <trkpt lat="48.68563" lon="-4.17318">
        <ele>8.2</ele>
        <time>2025-09-23T12:51:44Z</time>
      </trkpt>
      <trkpt lat="48.68564" lon="-4.17317">
        <ele>8.6</ele>
        <time>2025-09-23T12:54:24Z</time>
      </trkpt>
      <trkpt lat="48.68558" lon="-4.17306">
        <ele>8.6</ele>
        <time>2025-09-23T12:54:31Z</time>
      </trkpt>
      <trkpt lat="48.68554" lon="-4.17302">
        <ele>8.8</ele>
        <time>2025-09-23T12:54:35Z</time>
      </trkpt>
      <trkpt lat="48.68553" lon="-4.173">
        <ele>8.8</ele>
        <time>2025-09-23T12:54:38Z</time>
      </trkpt>
      <trkpt lat="48.68553" lon="-4.173">
        <ele>8.8</ele>
        <time>2025-09-23T12:54:39Z</time>
      </trkpt>
      <trkpt lat="48.68551" lon="-4.173">
        <ele>9</ele>
        <time>2025-09-23T12:54:52Z</time>
      </trkpt>
      <trkpt lat="48.68548" lon="-4.173">
        <ele>9</ele>
        <time>2025-09-23T12:54:55Z</time>
      </trkpt>
      <trkpt lat="48.68536" lon="-4.17301">
        <ele>8.6</ele>
        <time>2025-09-23T12:55:00Z</time>
      </trkpt>
      <trkpt lat="48.68513" lon="-4.17292">
        <ele>9</ele>
        <time>2025-09-23T12:55:08Z</time>
      </trkpt>
      <trkpt lat="48.68483" lon="-4.17279">
        <ele>9.2</ele>
        <time>2025-09-23T12:55:18Z</time>
      </trkpt>
      <trkpt lat="48.68457" lon="-4.17271">
        <ele>8.8</ele>
        <time>2025-09-23T12:55:26Z</time>
      </trkpt>
      <trkpt lat="48.68454" lon="-4.1727">
        <ele>9</ele>
        <time>2025-09-23T12:55:27Z</time>
      </trkpt>
      <trkpt lat="48.68431" lon="-4.17262">
        <ele>9.4</ele>
        <time>2025-09-23T12:55:34Z</time>
      </trkpt>
      <trkpt lat="48.68417" lon="-4.17256">
        <ele>9.4</ele>
        <time>2025-09-23T12:55:38Z</time>
      </trkpt>
      <trkpt lat="48.68405" lon="-4.17251">
        <ele>9.2</ele>
        <time>2025-09-23T12:55:42Z</time>
      </trkpt>
      <trkpt lat="48.68392" lon="-4.17245">
        <ele>9.4</ele>
        <time>2025-09-23T12:55:47Z</time>
      </trkpt>
      <trkpt lat="48.68378" lon="-4.1724">
        <ele>9.6</ele>
        <time>2025-09-23T12:55:52Z</time>
      </trkpt>
      <trkpt lat="48.68366" lon="-4.1724">
        <ele>9.6</ele>
        <time>2025-09-23T12:55:57Z</time>
      </trkpt>
      <trkpt lat="48.68349" lon="-4.17244">
        <ele>9.6</ele>
        <time>2025-09-23T12:56:03Z</time>
      </trkpt>
      <trkpt lat="48.68332" lon="-4.17258">
        <ele>10.2</ele>
        <time>2025-09-23T12:56:10Z</time>
      </trkpt>
      <trkpt lat="48.68328" lon="-4.17269">
        <ele>10.4</ele>
        <time>2025-09-23T12:56:13Z</time>
      </trkpt>
      <trkpt lat="48.68326" lon="-4.17272">
        <ele>10.4</ele>
        <time>2025-09-23T12:56:14Z</time>
      </trkpt>
      <trkpt lat="48.68323" lon="-4.17283">
        <ele>10.6</ele>
        <time>2025-09-23T12:56:17Z</time>
      </trkpt>
      <trkpt lat="48.6832" lon="-4.17294">
        <ele>10.6</ele>
        <time>2025-09-23T12:56:20Z</time>
      </trkpt>
      <trkpt lat="48.68314" lon="-4.17314">
        <ele>10.8</ele>
        <time>2025-09-23T12:56:25Z</time>
      </trkpt>
      <trkpt lat="48.68304" lon="-4.17339">
        <ele>11.2</ele>
        <time>2025-09-23T12:56:31Z</time>
      </trkpt>
      <trkpt lat="48.68302" lon="-4.17345">
        <ele>11.6</ele>
        <time>2025-09-23T12:56:33Z</time>
      </trkpt>
      <trkpt lat="48.68292" lon="-4.17367">
        <ele>12.6</ele>
        <time>2025-09-23T12:56:40Z</time>
      </trkpt>
      <trkpt lat="48.6829" lon="-4.1737">
        <ele>12.6</ele>
        <time>2025-09-23T12:56:41Z</time>
      </trkpt>
      <trkpt lat="48.68277" lon="-4.17393">
        <ele>13.2</ele>
        <time>2025-09-23T12:56:49Z</time>
      </trkpt>
      <trkpt lat="48.68266" lon="-4.17415">
        <ele>13.8</ele>
        <time>2025-09-23T12:56:56Z</time>
      </trkpt>
      <trkpt lat="48.68263" lon="-4.17422">
        <ele>13.8</ele>
        <time>2025-09-23T12:56:58Z</time>
      </trkpt>
      <trkpt lat="48.68248" lon="-4.17459">
        <ele>14.4</ele>
        <time>2025-09-23T12:57:09Z</time>
      </trkpt>
      <trkpt lat="48.68243" lon="-4.17475">
        <ele>14.8</ele>
        <time>2025-09-23T12:57:15Z</time>
      </trkpt>
      <trkpt lat="48.68242" lon="-4.17479">
        <ele>15</ele>
        <time>2025-09-23T12:57:17Z</time>
      </trkpt>
      <trkpt lat="48.68237" lon="-4.17496">
        <ele>14.8</ele>
        <time>2025-09-23T12:57:26Z</time>
      </trkpt>
      <trkpt lat="48.68235" lon="-4.17506">
        <ele>15</ele>
        <time>2025-09-23T12:57:32Z</time>
      </trkpt>
      <trkpt lat="48.68234" lon="-4.17511">
        <ele>15</ele>
        <time>2025-09-23T12:57:34Z</time>
      </trkpt>
      <trkpt lat="48.68231" lon="-4.17532">
        <ele>14.8</ele>
        <time>2025-09-23T12:57:41Z</time>
      </trkpt>
      <trkpt lat="48.68222" lon="-4.17567">
        <ele>15.4</ele>
        <time>2025-09-23T12:57:50Z</time>
      </trkpt>
      <trkpt lat="48.68218" lon="-4.17574">
        <ele>15.4</ele>
        <time>2025-09-23T12:57:52Z</time>
      </trkpt>
      <trkpt lat="48.68206" lon="-4.17593">
        <ele>15.4</ele>
        <time>2025-09-23T12:57:58Z</time>
      </trkpt>
      <trkpt lat="48.68202" lon="-4.17602">
        <ele>15.6</ele>
        <time>2025-09-23T12:58:01Z</time>
      </trkpt>
      <trkpt lat="48.68198" lon="-4.17608">
        <ele>15.6</ele>
        <time>2025-09-23T12:58:03Z</time>
      </trkpt>
      <trkpt lat="48.68192" lon="-4.17616">
        <ele>15.8</ele>
        <time>2025-09-23T12:58:06Z</time>
      </trkpt>
      <trkpt lat="48.68184" lon="-4.17624">
        <ele>15.8</ele>
        <time>2025-09-23T12:58:10Z</time>
      </trkpt>
      <trkpt lat="48.68181" lon="-4.17629">
        <ele>15.8</ele>
        <time>2025-09-23T12:58:12Z</time>
      </trkpt>
      <trkpt lat="48.68172" lon="-4.17641">
        <ele>15.8</ele>
        <time>2025-09-23T12:58:17Z</time>
      </trkpt>
      <trkpt lat="48.68168" lon="-4.17646">
        <ele>16</ele>
        <time>2025-09-23T12:58:19Z</time>
      </trkpt>
      <trkpt lat="48.68159" lon="-4.17656">
        <ele>16.2</ele>
        <time>2025-09-23T12:58:23Z</time>
      </trkpt>
      <trkpt lat="48.68154" lon="-4.1766">
        <ele>16.2</ele>
        <time>2025-09-23T12:58:25Z</time>
      </trkpt>
      <trkpt lat="48.68147" lon="-4.17666">
        <ele>16.2</ele>
        <time>2025-09-23T12:58:28Z</time>
      </trkpt>
      <trkpt lat="48.68142" lon="-4.17669">
        <ele>16.4</ele>
        <time>2025-09-23T12:58:30Z</time>
      </trkpt>
      <trkpt lat="48.68128" lon="-4.17676">
        <ele>16.6</ele>
        <time>2025-09-23T12:58:35Z</time>
      </trkpt>
      <trkpt lat="48.68123" lon="-4.17678">
        <ele>16.6</ele>
        <time>2025-09-23T12:58:37Z</time>
      </trkpt>
      <trkpt lat="48.68111" lon="-4.17691">
        <ele>17</ele>
        <time>2025-09-23T12:58:43Z</time>
      </trkpt>
      <trkpt lat="48.68113" lon="-4.17696">
        <ele>17.2</ele>
        <time>2025-09-23T12:58:45Z</time>
      </trkpt>
      <trkpt lat="48.68115" lon="-4.17698">
        <ele>17.2</ele>
        <time>2025-09-23T12:58:46Z</time>
      </trkpt>
      <trkpt lat="48.6813" lon="-4.17707">
        <ele>17.2</ele>
        <time>2025-09-23T12:58:52Z</time>
      </trkpt>
      <trkpt lat="48.68136" lon="-4.17711">
        <ele>17.2</ele>
        <time>2025-09-23T12:58:54Z</time>
      </trkpt>
      <trkpt lat="48.68155" lon="-4.17727">
        <ele>17.2</ele>
        <time>2025-09-23T12:59:01Z</time>
      </trkpt>
      <trkpt lat="48.68166" lon="-4.17739">
        <ele>17.2</ele>
        <time>2025-09-23T12:59:05Z</time>
      </trkpt>
      <trkpt lat="48.68175" lon="-4.17753">
        <ele>17.2</ele>
        <time>2025-09-23T12:59:09Z</time>
      </trkpt>
      <trkpt lat="48.68186" lon="-4.17782">
        <ele>17.8</ele>
        <time>2025-09-23T12:59:17Z</time>
      </trkpt>
      <trkpt lat="48.68188" lon="-4.17792">
        <ele>17.8</ele>
        <time>2025-09-23T12:59:20Z</time>
      </trkpt>
      <trkpt lat="48.68189" lon="-4.17795">
        <ele>18</ele>
        <time>2025-09-23T12:59:21Z</time>
      </trkpt>
      <trkpt lat="48.6819" lon="-4.17799">
        <ele>18</ele>
        <time>2025-09-23T12:59:22Z</time>
      </trkpt>
      <trkpt lat="48.68193" lon="-4.17814">
        <ele>18.2</ele>
        <time>2025-09-23T12:59:26Z</time>
      </trkpt>
      <trkpt lat="48.682" lon="-4.17849">
        <ele>19</ele>
        <time>2025-09-23T12:59:36Z</time>
      </trkpt>
      <trkpt lat="48.68201" lon="-4.17852">
        <ele>19</ele>
        <time>2025-09-23T12:59:37Z</time>
      </trkpt>
      <trkpt lat="48.68208" lon="-4.17884">
        <ele>19.8</ele>
        <time>2025-09-23T12:59:46Z</time>
      </trkpt>
      <trkpt lat="48.68211" lon="-4.17894">
        <ele>20.2</ele>
        <time>2025-09-23T12:59:49Z</time>
      </trkpt>
      <trkpt lat="48.6822" lon="-4.17921">
        <ele>20.6</ele>
        <time>2025-09-23T12:59:56Z</time>
      </trkpt>
      <trkpt lat="48.68229" lon="-4.1796">
        <ele>20.8</ele>
        <time>2025-09-23T13:00:04Z</time>
      </trkpt>
      <trkpt lat="48.68235" lon="-4.18">
        <ele>20.8</ele>
        <time>2025-09-23T13:00:12Z</time>
      </trkpt>
      <trkpt lat="48.68242" lon="-4.18049">
        <ele>20.2</ele>
        <time>2025-09-23T13:00:22Z</time>
      </trkpt>
      <trkpt lat="48.68245" lon="-4.18075">
        <ele>20.2</ele>
        <time>2025-09-23T13:00:27Z</time>
      </trkpt>
      <trkpt lat="48.68246" lon="-4.1808">
        <ele>20.2</ele>
        <time>2025-09-23T13:00:28Z</time>
      </trkpt>
      <trkpt lat="48.6825" lon="-4.18095">
        <ele>20.2</ele>
        <time>2025-09-23T13:00:31Z</time>
      </trkpt>
      <trkpt lat="48.68264" lon="-4.18106">
        <ele>19.4</ele>
        <time>2025-09-23T13:00:35Z</time>
      </trkpt>
      <trkpt lat="48.68272" lon="-4.18106">
        <ele>19</ele>
        <time>2025-09-23T13:00:37Z</time>
      </trkpt>
      <trkpt lat="48.68286" lon="-4.1811">
        <ele>18.6</ele>
        <time>2025-09-23T13:00:41Z</time>
      </trkpt>
      <trkpt lat="48.68291" lon="-4.18127">
        <ele>18</ele>
        <time>2025-09-23T13:00:45Z</time>
      </trkpt>
      <trkpt lat="48.68289" lon="-4.18167">
        <ele>17.4</ele>
        <time>2025-09-23T13:00:52Z</time>
      </trkpt>
      <trkpt lat="48.68284" lon="-4.18224">
        <ele>17.4</ele>
        <time>2025-09-23T13:01:02Z</time>
      </trkpt>
      <trkpt lat="48.68281" lon="-4.18265">
        <ele>17.2</ele>
        <time>2025-09-23T13:01:10Z</time>
      </trkpt>
      <trkpt lat="48.68279" lon="-4.18284">
        <ele>17.2</ele>
        <time>2025-09-23T13:01:14Z</time>
      </trkpt>
      <trkpt lat="48.68277" lon="-4.18314">
        <ele>17.2</ele>
        <time>2025-09-23T13:01:20Z</time>
      </trkpt>
      <trkpt lat="48.68277" lon="-4.18325">
        <ele>16.8</ele>
        <time>2025-09-23T13:01:22Z</time>
      </trkpt>
      <trkpt lat="48.68274" lon="-4.18352">
        <ele>16.4</ele>
        <time>2025-09-23T13:01:26Z</time>
      </trkpt>
      <trkpt lat="48.68272" lon="-4.18371">
        <ele>15.6</ele>
        <time>2025-09-23T13:01:29Z</time>
      </trkpt>
      <trkpt lat="48.68266" lon="-4.1841">
        <ele>15</ele>
        <time>2025-09-23T13:01:35Z</time>
      </trkpt>
      <trkpt lat="48.6826" lon="-4.18456">
        <ele>14.6</ele>
        <time>2025-09-23T13:01:42Z</time>
      </trkpt>
      <trkpt lat="48.68254" lon="-4.18491">
        <ele>14.4</ele>
        <time>2025-09-23T13:01:49Z</time>
      </trkpt>
      <trkpt lat="48.6825" lon="-4.18513">
        <ele>14.6</ele>
        <time>2025-09-23T13:01:54Z</time>
      </trkpt>
      <trkpt lat="48.68246" lon="-4.18528">
        <ele>14.6</ele>
        <time>2025-09-23T13:01:58Z</time>
      </trkpt>
      <trkpt lat="48.68245" lon="-4.18531">
        <ele>14.6</ele>
        <time>2025-09-23T13:01:59Z</time>
      </trkpt>
      <trkpt lat="48.68236" lon="-4.18553">
        <ele>15</ele>
        <time>2025-09-23T13:02:05Z</time>
      </trkpt>
      <trkpt lat="48.68233" lon="-4.1856">
        <ele>15</ele>
        <time>2025-09-23T13:02:07Z</time>
      </trkpt>
      <trkpt lat="48.68219" lon="-4.18594">
        <ele>15.4</ele>
        <time>2025-09-23T13:02:16Z</time>
      </trkpt>
      <trkpt lat="48.68212" lon="-4.18612">
        <ele>15.6</ele>
        <time>2025-09-23T13:02:21Z</time>
      </trkpt>
      <trkpt lat="48.68209" lon="-4.18619">
        <ele>15.8</ele>
        <time>2025-09-23T13:02:23Z</time>
      </trkpt>
      <trkpt lat="48.68205" lon="-4.18626">
        <ele>15.8</ele>
        <time>2025-09-23T13:02:25Z</time>
      </trkpt>
      <trkpt lat="48.68185" lon="-4.18659">
        <ele>16</ele>
        <time>2025-09-23T13:02:34Z</time>
      </trkpt>
      <trkpt lat="48.68175" lon="-4.18693">
        <ele>16</ele>
        <time>2025-09-23T13:02:41Z</time>
      </trkpt>
      <trkpt lat="48.68169" lon="-4.18724">
        <ele>15.8</ele>
        <time>2025-09-23T13:02:47Z</time>
      </trkpt>
      <trkpt lat="48.68166" lon="-4.18735">
        <ele>15.6</ele>
        <time>2025-09-23T13:02:49Z</time>
      </trkpt>
      <trkpt lat="48.68164" lon="-4.18741">
        <ele>15.4</ele>
        <time>2025-09-23T13:02:50Z</time>
      </trkpt>
      <trkpt lat="48.68152" lon="-4.18763">
        <ele>14.8</ele>
        <time>2025-09-23T13:02:54Z</time>
      </trkpt>
      <trkpt lat="48.68148" lon="-4.18768">
        <ele>14.6</ele>
        <time>2025-09-23T13:02:55Z</time>
      </trkpt>
      <trkpt lat="48.68144" lon="-4.18771">
        <ele>14.4</ele>
        <time>2025-09-23T13:02:56Z</time>
      </trkpt>
      <trkpt lat="48.6813" lon="-4.18778">
        <ele>14.2</ele>
        <time>2025-09-23T13:02:59Z</time>
      </trkpt>
      <trkpt lat="48.68125" lon="-4.18778">
        <ele>14</ele>
        <time>2025-09-23T13:03:00Z</time>
      </trkpt>
      <trkpt lat="48.68111" lon="-4.18782">
        <ele>13.4</ele>
        <time>2025-09-23T13:03:03Z</time>
      </trkpt>
      <trkpt lat="48.68102" lon="-4.18787">
        <ele>13</ele>
        <time>2025-09-23T13:03:05Z</time>
      </trkpt>
      <trkpt lat="48.6809" lon="-4.18797">
        <ele>12.4</ele>
        <time>2025-09-23T13:03:08Z</time>
      </trkpt>
      <trkpt lat="48.68088" lon="-4.18799">
        <ele>12.2</ele>
        <time>2025-09-23T13:03:09Z</time>
      </trkpt>
      <trkpt lat="48.68086" lon="-4.18805">
        <ele>12</ele>
        <time>2025-09-23T13:03:11Z</time>
      </trkpt>
      <trkpt lat="48.68086" lon="-4.1881">
        <ele>12</ele>
        <time>2025-09-23T13:03:13Z</time>
      </trkpt>
      <trkpt lat="48.68085" lon="-4.18813">
        <ele>12</ele>
        <time>2025-09-23T13:03:15Z</time>
      </trkpt>
      <trkpt lat="48.6808" lon="-4.18819">
        <ele>11.8</ele>
        <time>2025-09-23T13:03:18Z</time>
      </trkpt>
      <trkpt lat="48.68077" lon="-4.18831">
        <ele>11.8</ele>
        <time>2025-09-23T13:03:21Z</time>
      </trkpt>
      <trkpt lat="48.68077" lon="-4.18835">
        <ele>12</ele>
        <time>2025-09-23T13:03:22Z</time>
      </trkpt>
      <trkpt lat="48.68086" lon="-4.18858">
        <ele>12.8</ele>
        <time>2025-09-23T13:03:28Z</time>
      </trkpt>
      <trkpt lat="48.68087" lon="-4.18862">
        <ele>12.8</ele>
        <time>2025-09-23T13:03:29Z</time>
      </trkpt>
      <trkpt lat="48.68101" lon="-4.18891">
        <ele>12.8</ele>
        <time>2025-09-23T13:03:37Z</time>
      </trkpt>
      <trkpt lat="48.68114" lon="-4.18904">
        <ele>12.6</ele>
        <time>2025-09-23T13:03:42Z</time>
      </trkpt>
      <trkpt lat="48.68119" lon="-4.1891">
        <ele>12.6</ele>
        <time>2025-09-23T13:03:44Z</time>
      </trkpt>
      <trkpt lat="48.68135" lon="-4.18935">
        <ele>12</ele>
        <time>2025-09-23T13:03:51Z</time>
      </trkpt>
      <trkpt lat="48.68142" lon="-4.18954">
        <ele>11.8</ele>
        <time>2025-09-23T13:03:56Z</time>
      </trkpt>
      <trkpt lat="48.6814" lon="-4.18974">
        <ele>12</ele>
        <time>2025-09-23T13:04:01Z</time>
      </trkpt>
      <trkpt lat="48.6813" lon="-4.18996">
        <ele>12.6</ele>
        <time>2025-09-23T13:04:08Z</time>
      </trkpt>
      <trkpt lat="48.68128" lon="-4.18999">
        <ele>13</ele>
        <time>2025-09-23T13:04:12Z</time>
      </trkpt>
      <trkpt lat="48.68127" lon="-4.18999">
        <ele>13.2</ele>
        <time>2025-09-23T13:04:42Z</time>
      </trkpt>
      <trkpt lat="48.68126" lon="-4.18999">
        <ele>13.2</ele>
        <time>2025-09-23T13:04:43Z</time>
      </trkpt>
      <trkpt lat="48.68128" lon="-4.18998">
        <ele>13.4</ele>
        <time>2025-09-23T13:04:47Z</time>
      </trkpt>
      <trkpt lat="48.6813" lon="-4.18997">
        <ele>13</ele>
        <time>2025-09-23T13:04:50Z</time>
      </trkpt>
      <trkpt lat="48.68132" lon="-4.18999">
        <ele>13</ele>
        <time>2025-09-23T13:04:53Z</time>
      </trkpt>
      <trkpt lat="48.68132" lon="-4.19">
        <ele>12.8</ele>
        <time>2025-09-23T13:04:55Z</time>
      </trkpt>
      <trkpt lat="48.68131" lon="-4.18998">
        <ele>12.8</ele>
        <time>2025-09-23T13:05:02Z</time>
      </trkpt>
      <trkpt lat="48.68129" lon="-4.18999">
        <ele>12.8</ele>
        <time>2025-09-23T13:05:04Z</time>
      </trkpt>
      <trkpt lat="48.68126" lon="-4.18999">
        <ele>13.2</ele>
        <time>2025-09-23T13:05:10Z</time>
      </trkpt>
      <trkpt lat="48.68125" lon="-4.19002">
        <ele>13</ele>
        <time>2025-09-23T13:05:16Z</time>
      </trkpt>
      <trkpt lat="48.68124" lon="-4.19003">
        <ele>13</ele>
        <time>2025-09-23T13:05:17Z</time>
      </trkpt>
      <trkpt lat="48.68122" lon="-4.19006">
        <ele>13.2</ele>
        <time>2025-09-23T13:05:19Z</time>
      </trkpt>
      <trkpt lat="48.68118" lon="-4.19013">
        <ele>13.6</ele>
        <time>2025-09-23T13:05:21Z</time>
      </trkpt>
      <trkpt lat="48.68111" lon="-4.19023">
        <ele>13.8</ele>
        <time>2025-09-23T13:05:24Z</time>
      </trkpt>
      <trkpt lat="48.68092" lon="-4.19053">
        <ele>13.6</ele>
        <time>2025-09-23T13:05:32Z</time>
      </trkpt>
      <trkpt lat="48.68079" lon="-4.1908">
        <ele>12.8</ele>
        <time>2025-09-23T13:05:39Z</time>
      </trkpt>
      <trkpt lat="48.68073" lon="-4.19097">
        <ele>12.8</ele>
        <time>2025-09-23T13:05:43Z</time>
      </trkpt>
      <trkpt lat="48.68071" lon="-4.19101">
        <ele>12.8</ele>
        <time>2025-09-23T13:05:44Z</time>
      </trkpt>
      <trkpt lat="48.68066" lon="-4.19117">
        <ele>12.8</ele>
        <time>2025-09-23T13:05:48Z</time>
      </trkpt>
      <trkpt lat="48.68063" lon="-4.19126">
        <ele>12.8</ele>
        <time>2025-09-23T13:05:50Z</time>
      </trkpt>
      <trkpt lat="48.6806" lon="-4.19149">
        <ele>12.8</ele>
        <time>2025-09-23T13:05:56Z</time>
      </trkpt>
      <trkpt lat="48.68062" lon="-4.19172">
        <ele>12.6</ele>
        <time>2025-09-23T13:06:02Z</time>
      </trkpt>
      <trkpt lat="48.68071" lon="-4.19196">
        <ele>13</ele>
        <time>2025-09-23T13:06:10Z</time>
      </trkpt>
      <trkpt lat="48.68074" lon="-4.19207">
        <ele>12.6</ele>
        <time>2025-09-23T13:06:16Z</time>
      </trkpt>
      <trkpt lat="48.68074" lon="-4.19208">
        <ele>12.6</ele>
        <time>2025-09-23T13:06:17Z</time>
      </trkpt>
      <trkpt lat="48.68077" lon="-4.19219">
        <ele>13</ele>
        <time>2025-09-23T13:06:21Z</time>
      </trkpt>
      <trkpt lat="48.68081" lon="-4.19231">
        <ele>12.4</ele>
        <time>2025-09-23T13:06:24Z</time>
      </trkpt>
      <trkpt lat="48.68086" lon="-4.19248">
        <ele>12</ele>
        <time>2025-09-23T13:06:29Z</time>
      </trkpt>
      <trkpt lat="48.68095" lon="-4.19268">
        <ele>11.4</ele>
        <time>2025-09-23T13:06:36Z</time>
      </trkpt>
      <trkpt lat="48.68103" lon="-4.19285">
        <ele>10.6</ele>
        <time>2025-09-23T13:06:44Z</time>
      </trkpt>
      <trkpt lat="48.68104" lon="-4.19289">
        <ele>10.4</ele>
        <time>2025-09-23T13:06:46Z</time>
      </trkpt>
      <trkpt lat="48.68107" lon="-4.19295">
        <ele>9.8</ele>
        <time>2025-09-23T13:06:49Z</time>
      </trkpt>
      <trkpt lat="48.68111" lon="-4.19301">
        <ele>9.2</ele>
        <time>2025-09-23T13:06:53Z</time>
      </trkpt>
      <trkpt lat="48.6811" lon="-4.19301">
        <ele>9.2</ele>
        <time>2025-09-23T13:06:54Z</time>
      </trkpt>
      <trkpt lat="48.6811" lon="-4.19301">
        <ele>9.2</ele>
        <time>2025-09-23T13:06:55Z</time>
      </trkpt>
      <trkpt lat="48.68111" lon="-4.19303">
        <ele>9.4</ele>
        <time>2025-09-23T13:06:59Z</time>
      </trkpt>
      <trkpt lat="48.68112" lon="-4.19304">
        <ele>9</ele>
        <time>2025-09-23T13:07:02Z</time>
      </trkpt>
      <trkpt lat="48.68112" lon="-4.19306">
        <ele>9</ele>
        <time>2025-09-23T13:07:15Z</time>
      </trkpt>
      <trkpt lat="48.68114" lon="-4.19311">
        <ele>8.6</ele>
        <time>2025-09-23T13:07:23Z</time>
      </trkpt>
      <trkpt lat="48.68114" lon="-4.19316">
        <ele>7.8</ele>
        <time>2025-09-23T13:07:41Z</time>
      </trkpt>
      <trkpt lat="48.68112" lon="-4.19317">
        <ele>8</ele>
        <time>2025-09-23T13:07:46Z</time>
      </trkpt>
      <trkpt lat="48.68112" lon="-4.19318">
        <ele>8</ele>
        <time>2025-09-23T13:07:47Z</time>
      </trkpt>
      <trkpt lat="48.68112" lon="-4.19318">
        <ele>7.8</ele>
        <time>2025-09-23T13:08:16Z</time>
      </trkpt>
      <trkpt lat="48.68113" lon="-4.19319">
        <ele>7.6</ele>
        <time>2025-09-23T13:08:18Z</time>
      </trkpt>
      <trkpt lat="48.68114" lon="-4.19317">
        <ele>7.6</ele>
        <time>2025-09-23T13:08:21Z</time>
      </trkpt>
      <trkpt lat="48.68114" lon="-4.19316">
        <ele>7.6</ele>
        <time>2025-09-23T13:08:23Z</time>
      </trkpt>
      <trkpt lat="48.68114" lon="-4.19314">
        <ele>8.2</ele>
        <time>2025-09-23T13:08:46Z</time>
      </trkpt>
      <trkpt lat="48.68113" lon="-4.19317">
        <ele>8</ele>
        <time>2025-09-23T13:08:49Z</time>
      </trkpt>
      <trkpt lat="48.68111" lon="-4.19325">
        <ele>7.4</ele>
        <time>2025-09-23T13:08:56Z</time>
      </trkpt>
      <trkpt lat="48.68111" lon="-4.19325">
        <ele>7.4</ele>
        <time>2025-09-23T13:08:58Z</time>
      </trkpt>
      <trkpt lat="48.6811" lon="-4.19322">
        <ele>7.4</ele>
        <time>2025-09-23T13:09:18Z</time>
      </trkpt>
      <trkpt lat="48.68108" lon="-4.1932">
        <ele>7.4</ele>
        <time>2025-09-23T13:09:21Z</time>
      </trkpt>
      <trkpt lat="48.68108" lon="-4.19319">
        <ele>7.4</ele>
        <time>2025-09-23T13:09:23Z</time>
      </trkpt>
      <trkpt lat="48.68109" lon="-4.19317">
        <ele>7.4</ele>
        <time>2025-09-23T13:09:37Z</time>
      </trkpt>
      <trkpt lat="48.6811" lon="-4.19318">
        <ele>7.4</ele>
        <time>2025-09-23T13:09:39Z</time>
      </trkpt>
      <trkpt lat="48.68108" lon="-4.19322">
        <ele>7.4</ele>
        <time>2025-09-23T13:09:48Z</time>
      </trkpt>
      <trkpt lat="48.68107" lon="-4.19324">
        <ele>7.4</ele>
        <time>2025-09-23T13:09:51Z</time>
      </trkpt>
      <trkpt lat="48.68106" lon="-4.19323">
        <ele>7.4</ele>
        <time>2025-09-23T13:09:54Z</time>
      </trkpt>
      <trkpt lat="48.68106" lon="-4.19324">
        <ele>7.4</ele>
        <time>2025-09-23T13:09:56Z</time>
      </trkpt>
      <trkpt lat="48.68109" lon="-4.19321">
        <ele>7.4</ele>
        <time>2025-09-23T13:15:56Z</time>
      </trkpt>
      <trkpt lat="48.68109" lon="-4.19321">
        <ele>7.4</ele>
        <time>2025-09-23T13:15:57Z</time>
      </trkpt>
      <trkpt lat="48.6811" lon="-4.1932">
        <ele>7.6</ele>
        <time>2025-09-23T13:16:01Z</time>
      </trkpt>
      <trkpt lat="48.6811" lon="-4.1932">
        <ele>7.4</ele>
        <time>2025-09-23T13:17:10Z</time>
      </trkpt>
      <trkpt lat="48.6811" lon="-4.1932">
        <ele>7.4</ele>
        <time>2025-09-23T13:17:11Z</time>
      </trkpt>
      <trkpt lat="48.68109" lon="-4.19321">
        <ele>7.2</ele>
        <time>2025-09-23T13:17:12Z</time>
      </trkpt>
      <trkpt lat="48.6811" lon="-4.1932">
        <ele>7.4</ele>
        <time>2025-09-23T13:18:27Z</time>
      </trkpt>
      <trkpt lat="48.6811" lon="-4.1932">
        <ele>7.4</ele>
        <time>2025-09-23T13:18:28Z</time>
      </trkpt>
      <trkpt lat="48.6811" lon="-4.1932">
        <ele>7.4</ele>
        <time>2025-09-23T13:18:29Z</time>
      </trkpt>
      <trkpt lat="48.68109" lon="-4.19319">
        <ele>1.4</ele>
        <time>2025-09-23T14:16:38Z</time>
      </trkpt>
      <trkpt lat="48.68109" lon="-4.19318">
        <ele>1.4</ele>
        <time>2025-09-23T14:16:39Z</time>
      </trkpt>
      <trkpt lat="48.68111" lon="-4.1932">
        <ele>1.4</ele>
        <time>2025-09-23T14:17:20Z</time>
      </trkpt>
      <trkpt lat="48.68111" lon="-4.1932">
        <ele>1.4</ele>
        <time>2025-09-23T14:17:21Z</time>
      </trkpt>
      <trkpt lat="48.68113" lon="-4.19317">
        <ele>1.4</ele>
        <time>2025-09-23T14:17:25Z</time>
      </trkpt>
      <trkpt lat="48.68114" lon="-4.1931">
        <ele>1.2</ele>
        <time>2025-09-23T14:17:30Z</time>
      </trkpt>
      <trkpt lat="48.68113" lon="-4.19308">
        <ele>1.4</ele>
        <time>2025-09-23T14:17:32Z</time>
      </trkpt>
      <trkpt lat="48.68111" lon="-4.19302">
        <ele>2.2</ele>
        <time>2025-09-23T14:17:38Z</time>
      </trkpt>
      <trkpt lat="48.6811" lon="-4.19298">
        <ele>2.4</ele>
        <time>2025-09-23T14:17:41Z</time>
      </trkpt>
      <trkpt lat="48.68109" lon="-4.19296">
        <ele>2.6</ele>
        <time>2025-09-23T14:17:43Z</time>
      </trkpt>
      <trkpt lat="48.68103" lon="-4.19282">
        <ele>3.6</ele>
        <time>2025-09-23T14:17:54Z</time>
      </trkpt>
      <trkpt lat="48.681" lon="-4.19275">
        <ele>4.4</ele>
        <time>2025-09-23T14:18:02Z</time>
      </trkpt>
      <trkpt lat="48.68099" lon="-4.19274">
        <ele>4.2</ele>
        <time>2025-09-23T14:18:12Z</time>
      </trkpt>
      <trkpt lat="48.68095" lon="-4.19264">
        <ele>4.6</ele>
        <time>2025-09-23T14:18:20Z</time>
      </trkpt>
      <trkpt lat="48.68093" lon="-4.19261">
        <ele>4.8</ele>
        <time>2025-09-23T14:18:22Z</time>
      </trkpt>
      <trkpt lat="48.68086" lon="-4.19245">
        <ele>5.4</ele>
        <time>2025-09-23T14:18:34Z</time>
      </trkpt>
      <trkpt lat="48.68083" lon="-4.19236">
        <ele>5.2</ele>
        <time>2025-09-23T14:18:40Z</time>
      </trkpt>
      <trkpt lat="48.68081" lon="-4.19231">
        <ele>5.2</ele>
        <time>2025-09-23T14:18:43Z</time>
      </trkpt>
      <trkpt lat="48.68078" lon="-4.19222">
        <ele>5.4</ele>
        <time>2025-09-23T14:18:50Z</time>
      </trkpt>
      <trkpt lat="48.68077" lon="-4.19221">
        <ele>5.6</ele>
        <time>2025-09-23T14:18:51Z</time>
      </trkpt>
      <trkpt lat="48.68077" lon="-4.19219">
        <ele>6</ele>
        <time>2025-09-23T14:18:55Z</time>
      </trkpt>
      <trkpt lat="48.68074" lon="-4.19214">
        <ele>6.4</ele>
        <time>2025-09-23T14:19:28Z</time>
      </trkpt>
      <trkpt lat="48.68073" lon="-4.19214">
        <ele>6.4</ele>
        <time>2025-09-23T14:19:29Z</time>
      </trkpt>
      <trkpt lat="48.68074" lon="-4.19214">
        <ele>6.4</ele>
        <time>2025-09-23T14:19:30Z</time>
      </trkpt>
      <trkpt lat="48.68072" lon="-4.19214">
        <ele>6.2</ele>
        <time>2025-09-23T14:19:36Z</time>
      </trkpt>
      <trkpt lat="48.68069" lon="-4.19213">
        <ele>6.2</ele>
        <time>2025-09-23T14:19:39Z</time>
      </trkpt>
      <trkpt lat="48.68063" lon="-4.19211">
        <ele>6.4</ele>
        <time>2025-09-23T14:19:43Z</time>
      </trkpt>
      <trkpt lat="48.68061" lon="-4.19211">
        <ele>6.6</ele>
        <time>2025-09-23T14:19:44Z</time>
      </trkpt>
      <trkpt lat="48.68059" lon="-4.19211">
        <ele>6.6</ele>
        <time>2025-09-23T14:19:45Z</time>
      </trkpt>
      <trkpt lat="48.68056" lon="-4.19212">
        <ele>6.6</ele>
        <time>2025-09-23T14:19:47Z</time>
      </trkpt>
      <trkpt lat="48.68045" lon="-4.1921">
        <ele>6.8</ele>
        <time>2025-09-23T14:19:52Z</time>
      </trkpt>
      <trkpt lat="48.68033" lon="-4.19209">
        <ele>6.8</ele>
        <time>2025-09-23T14:19:58Z</time>
      </trkpt>
      <trkpt lat="48.68024" lon="-4.19208">
        <ele>7</ele>
        <time>2025-09-23T14:20:02Z</time>
      </trkpt>
      <trkpt lat="48.68009" lon="-4.19213">
        <ele>6.8</ele>
        <time>2025-09-23T14:20:08Z</time>
      </trkpt>
      <trkpt lat="48.68003" lon="-4.19217">
        <ele>6.8</ele>
        <time>2025-09-23T14:20:11Z</time>
      </trkpt>
      <trkpt lat="48.67999" lon="-4.1922">
        <ele>7</ele>
        <time>2025-09-23T14:20:13Z</time>
      </trkpt>
      <trkpt lat="48.67996" lon="-4.19222">
        <ele>7</ele>
        <time>2025-09-23T14:20:15Z</time>
      </trkpt>
      <trkpt lat="48.67981" lon="-4.19238">
        <ele>7.2</ele>
        <time>2025-09-23T14:20:23Z</time>
      </trkpt>
      <trkpt lat="48.67963" lon="-4.19256">
        <ele>7.4</ele>
        <time>2025-09-23T14:20:32Z</time>
      </trkpt>
      <trkpt lat="48.67959" lon="-4.1926">
        <ele>7.4</ele>
        <time>2025-09-23T14:20:34Z</time>
      </trkpt>
      <trkpt lat="48.67955" lon="-4.19266">
        <ele>7.4</ele>
        <time>2025-09-23T14:20:37Z</time>
      </trkpt>
      <trkpt lat="48.67953" lon="-4.19269">
        <ele>7.4</ele>
        <time>2025-09-23T14:20:38Z</time>
      </trkpt>
      <trkpt lat="48.67945" lon="-4.19283">
        <ele>7.6</ele>
        <time>2025-09-23T14:20:44Z</time>
      </trkpt>
      <trkpt lat="48.67931" lon="-4.19309">
        <ele>7.6</ele>
        <time>2025-09-23T14:20:52Z</time>
      </trkpt>
      <trkpt lat="48.67916" lon="-4.19335">
        <ele>7.8</ele>
        <time>2025-09-23T14:21:00Z</time>
      </trkpt>
      <trkpt lat="48.67896" lon="-4.19363">
        <ele>8.4</ele>
        <time>2025-09-23T14:21:10Z</time>
      </trkpt>
      <trkpt lat="48.67884" lon="-4.19379">
        <ele>8.6</ele>
        <time>2025-09-23T14:21:16Z</time>
      </trkpt>
      <trkpt lat="48.67878" lon="-4.19387">
        <ele>9</ele>
        <time>2025-09-23T14:21:19Z</time>
      </trkpt>
      <trkpt lat="48.67865" lon="-4.19407">
        <ele>9.4</ele>
        <time>2025-09-23T14:21:26Z</time>
      </trkpt>
      <trkpt lat="48.67859" lon="-4.19415">
        <ele>9.4</ele>
        <time>2025-09-23T14:21:29Z</time>
      </trkpt>
      <trkpt lat="48.67855" lon="-4.1942">
        <ele>9.6</ele>
        <time>2025-09-23T14:21:31Z</time>
      </trkpt>
      <trkpt lat="48.67849" lon="-4.19429">
        <ele>9.6</ele>
        <time>2025-09-23T14:21:34Z</time>
      </trkpt>
      <trkpt lat="48.67847" lon="-4.19432">
        <ele>9.8</ele>
        <time>2025-09-23T14:21:35Z</time>
      </trkpt>
      <trkpt lat="48.67827" lon="-4.19461">
        <ele>9.6</ele>
        <time>2025-09-23T14:21:44Z</time>
      </trkpt>
      <trkpt lat="48.67804" lon="-4.19496">
        <ele>8.8</ele>
        <time>2025-09-23T14:21:52Z</time>
      </trkpt>
      <trkpt lat="48.67801" lon="-4.19501">
        <ele>8.6</ele>
        <time>2025-09-23T14:21:53Z</time>
      </trkpt>
      <trkpt lat="48.67777" lon="-4.1954">
        <ele>7.8</ele>
        <time>2025-09-23T14:22:00Z</time>
      </trkpt>
      <trkpt lat="48.67769" lon="-4.19552">
        <ele>7.6</ele>
        <time>2025-09-23T14:22:02Z</time>
      </trkpt>
      <trkpt lat="48.67746" lon="-4.19581">
        <ele>6.6</ele>
        <time>2025-09-23T14:22:07Z</time>
      </trkpt>
      <trkpt lat="48.67741" lon="-4.19588">
        <ele>6.4</ele>
        <time>2025-09-23T14:22:08Z</time>
      </trkpt>
      <trkpt lat="48.6772" lon="-4.19615">
        <ele>5.4</ele>
        <time>2025-09-23T14:22:12Z</time>
      </trkpt>
      <trkpt lat="48.67702" lon="-4.19636">
        <ele>4.4</ele>
        <time>2025-09-23T14:22:15Z</time>
      </trkpt>
      <trkpt lat="48.67697" lon="-4.19644">
        <ele>4</ele>
        <time>2025-09-23T14:22:16Z</time>
      </trkpt>
      <trkpt lat="48.67673" lon="-4.19685">
        <ele>4</ele>
        <time>2025-09-23T14:22:21Z</time>
      </trkpt>
      <trkpt lat="48.67659" lon="-4.19725">
        <ele>4.4</ele>
        <time>2025-09-23T14:22:26Z</time>
      </trkpt>
      <trkpt lat="48.67649" lon="-4.1976">
        <ele>5</ele>
        <time>2025-09-23T14:22:32Z</time>
      </trkpt>
      <trkpt lat="48.67646" lon="-4.1977">
        <ele>5.2</ele>
        <time>2025-09-23T14:22:34Z</time>
      </trkpt>
      <trkpt lat="48.67641" lon="-4.19786">
        <ele>5.2</ele>
        <time>2025-09-23T14:22:38Z</time>
      </trkpt>
      <trkpt lat="48.6763" lon="-4.19824">
        <ele>5.6</ele>
        <time>2025-09-23T14:22:47Z</time>
      </trkpt>
      <trkpt lat="48.67623" lon="-4.19851">
        <ele>6</ele>
        <time>2025-09-23T14:22:54Z</time>
      </trkpt>
      <trkpt lat="48.6762" lon="-4.19865">
        <ele>6</ele>
        <time>2025-09-23T14:22:57Z</time>
      </trkpt>
      <trkpt lat="48.67613" lon="-4.19893">
        <ele>5.4</ele>
        <time>2025-09-23T14:23:02Z</time>
      </trkpt>
      <trkpt lat="48.67605" lon="-4.19934">
        <ele>5.6</ele>
        <time>2025-09-23T14:23:09Z</time>
      </trkpt>
      <trkpt lat="48.67603" lon="-4.19944">
        <ele>6</ele>
        <time>2025-09-23T14:23:11Z</time>
      </trkpt>
      <trkpt lat="48.67602" lon="-4.19949">
        <ele>6</ele>
        <time>2025-09-23T14:23:12Z</time>
      </trkpt>
      <trkpt lat="48.67601" lon="-4.19954">
        <ele>6.2</ele>
        <time>2025-09-23T14:23:13Z</time>
      </trkpt>
      <trkpt lat="48.67601" lon="-4.19959">
        <ele>6.6</ele>
        <time>2025-09-23T14:23:14Z</time>
      </trkpt>
      <trkpt lat="48.67599" lon="-4.19975">
        <ele>7</ele>
        <time>2025-09-23T14:23:17Z</time>
      </trkpt>
      <trkpt lat="48.67598" lon="-4.19996">
        <ele>6.8</ele>
        <time>2025-09-23T14:23:21Z</time>
      </trkpt>
      <trkpt lat="48.67596" lon="-4.20018">
        <ele>6.6</ele>
        <time>2025-09-23T14:23:25Z</time>
      </trkpt>
      <trkpt lat="48.67596" lon="-4.20023">
        <ele>6.6</ele>
        <time>2025-09-23T14:23:26Z</time>
      </trkpt>
      <trkpt lat="48.67593" lon="-4.20059">
        <ele>7</ele>
        <time>2025-09-23T14:23:33Z</time>
      </trkpt>
      <trkpt lat="48.67591" lon="-4.20069">
        <ele>7</ele>
        <time>2025-09-23T14:23:35Z</time>
      </trkpt>
      <trkpt lat="48.6758" lon="-4.20101">
        <ele>6.8</ele>
        <time>2025-09-23T14:23:42Z</time>
      </trkpt>
      <trkpt lat="48.6756" lon="-4.20136">
        <ele>7</ele>
        <time>2025-09-23T14:23:51Z</time>
      </trkpt>
      <trkpt lat="48.67546" lon="-4.20153">
        <ele>7.2</ele>
        <time>2025-09-23T14:23:56Z</time>
      </trkpt>
      <trkpt lat="48.67541" lon="-4.2016">
        <ele>7.2</ele>
        <time>2025-09-23T14:23:58Z</time>
      </trkpt>
      <trkpt lat="48.67524" lon="-4.20194">
        <ele>7</ele>
        <time>2025-09-23T14:24:05Z</time>
      </trkpt>
      <trkpt lat="48.67517" lon="-4.20214">
        <ele>6.8</ele>
        <time>2025-09-23T14:24:10Z</time>
      </trkpt>
      <trkpt lat="48.67511" lon="-4.20233">
        <ele>6.6</ele>
        <time>2025-09-23T14:24:15Z</time>
      </trkpt>
      <trkpt lat="48.67508" lon="-4.20243">
        <ele>6.6</ele>
        <time>2025-09-23T14:24:17Z</time>
      </trkpt>
      <trkpt lat="48.67505" lon="-4.20254">
        <ele>6.4</ele>
        <time>2025-09-23T14:24:19Z</time>
      </trkpt>
      <trkpt lat="48.67496" lon="-4.20283">
        <ele>6</ele>
        <time>2025-09-23T14:24:24Z</time>
      </trkpt>
      <trkpt lat="48.67493" lon="-4.20288">
        <ele>5.8</ele>
        <time>2025-09-23T14:24:25Z</time>
      </trkpt>
      <trkpt lat="48.67489" lon="-4.20292">
        <ele>5.8</ele>
        <time>2025-09-23T14:24:26Z</time>
      </trkpt>
      <trkpt lat="48.67482" lon="-4.203">
        <ele>5.6</ele>
        <time>2025-09-23T14:24:28Z</time>
      </trkpt>
      <trkpt lat="48.67475" lon="-4.20306">
        <ele>5.4</ele>
        <time>2025-09-23T14:24:30Z</time>
      </trkpt>
      <trkpt lat="48.67467" lon="-4.20312">
        <ele>5.2</ele>
        <time>2025-09-23T14:24:32Z</time>
      </trkpt>
      <trkpt lat="48.67444" lon="-4.20329">
        <ele>4.8</ele>
        <time>2025-09-23T14:24:38Z</time>
      </trkpt>
      <trkpt lat="48.67413" lon="-4.20354">
        <ele>4.6</ele>
        <time>2025-09-23T14:24:45Z</time>
      </trkpt>
      <trkpt lat="48.67409" lon="-4.20357">
        <ele>4.6</ele>
        <time>2025-09-23T14:24:46Z</time>
      </trkpt>
      <trkpt lat="48.67404" lon="-4.20361">
        <ele>4.6</ele>
        <time>2025-09-23T14:24:47Z</time>
      </trkpt>
      <trkpt lat="48.67377" lon="-4.2038">
        <ele>5</ele>
        <time>2025-09-23T14:24:54Z</time>
      </trkpt>
      <trkpt lat="48.67359" lon="-4.20383">
        <ele>5.2</ele>
        <time>2025-09-23T14:25:00Z</time>
      </trkpt>
      <trkpt lat="48.67331" lon="-4.20376">
        <ele>5.2</ele>
        <time>2025-09-23T14:25:08Z</time>
      </trkpt>
      <trkpt lat="48.67317" lon="-4.20368">
        <ele>5.2</ele>
        <time>2025-09-23T14:25:12Z</time>
      </trkpt>
      <trkpt lat="48.67311" lon="-4.2036">
        <ele>5</ele>
        <time>2025-09-23T14:25:14Z</time>
      </trkpt>
      <trkpt lat="48.67298" lon="-4.20328">
        <ele>5</ele>
        <time>2025-09-23T14:25:21Z</time>
      </trkpt>
      <trkpt lat="48.6729" lon="-4.20305">
        <ele>5</ele>
        <time>2025-09-23T14:25:26Z</time>
      </trkpt>
      <trkpt lat="48.67283" lon="-4.2029">
        <ele>5</ele>
        <time>2025-09-23T14:25:29Z</time>
      </trkpt>
      <trkpt lat="48.67277" lon="-4.20278">
        <ele>4.8</ele>
        <time>2025-09-23T14:25:33Z</time>
      </trkpt>
      <trkpt lat="48.67274" lon="-4.20269">
        <ele>4.8</ele>
        <time>2025-09-23T14:25:38Z</time>
      </trkpt>
      <trkpt lat="48.67273" lon="-4.20268">
        <ele>5</ele>
        <time>2025-09-23T14:25:41Z</time>
      </trkpt>
      <trkpt lat="48.67273" lon="-4.20267">
        <ele>5</ele>
        <time>2025-09-23T14:25:42Z</time>
      </trkpt>
      <trkpt lat="48.67273" lon="-4.20267">
        <ele>5</ele>
        <time>2025-09-23T14:25:43Z</time>
      </trkpt>
      <trkpt lat="48.67273" lon="-4.20266">
        <ele>5.2</ele>
        <time>2025-09-23T14:26:22Z</time>
      </trkpt>
      <trkpt lat="48.67272" lon="-4.20267">
        <ele>5.2</ele>
        <time>2025-09-23T14:26:23Z</time>
      </trkpt>
      <trkpt lat="48.6727" lon="-4.20266">
        <ele>5.4</ele>
        <time>2025-09-23T14:26:25Z</time>
      </trkpt>
      <trkpt lat="48.6727" lon="-4.20265">
        <ele>5.4</ele>
        <time>2025-09-23T14:26:30Z</time>
      </trkpt>
      <trkpt lat="48.67269" lon="-4.20263">
        <ele>5.2</ele>
        <time>2025-09-23T14:26:55Z</time>
      </trkpt>
      <trkpt lat="48.67268" lon="-4.20261">
        <ele>5</ele>
        <time>2025-09-23T14:26:56Z</time>
      </trkpt>
      <trkpt lat="48.67267" lon="-4.20258">
        <ele>5</ele>
        <time>2025-09-23T14:26:58Z</time>
      </trkpt>
      <trkpt lat="48.67258" lon="-4.20244">
        <ele>5.2</ele>
        <time>2025-09-23T14:27:04Z</time>
      </trkpt>
      <trkpt lat="48.67242" lon="-4.20222">
        <ele>5</ele>
        <time>2025-09-23T14:27:12Z</time>
      </trkpt>
      <trkpt lat="48.67225" lon="-4.20217">
        <ele>4.8</ele>
        <time>2025-09-23T14:27:17Z</time>
      </trkpt>
      <trkpt lat="48.67206" lon="-4.20224">
        <ele>4.6</ele>
        <time>2025-09-23T14:27:22Z</time>
      </trkpt>
      <trkpt lat="48.67198" lon="-4.20228">
        <ele>4.4</ele>
        <time>2025-09-23T14:27:24Z</time>
      </trkpt>
      <trkpt lat="48.67178" lon="-4.20237">
        <ele>4.2</ele>
        <time>2025-09-23T14:27:29Z</time>
      </trkpt>
      <trkpt lat="48.67157" lon="-4.20251">
        <ele>3.8</ele>
        <time>2025-09-23T14:27:34Z</time>
      </trkpt>
      <trkpt lat="48.6715" lon="-4.2026">
        <ele>3.8</ele>
        <time>2025-09-23T14:27:36Z</time>
      </trkpt>
      <trkpt lat="48.67141" lon="-4.20276">
        <ele>3.8</ele>
        <time>2025-09-23T14:27:39Z</time>
      </trkpt>
      <trkpt lat="48.67127" lon="-4.2031">
        <ele>3.6</ele>
        <time>2025-09-23T14:27:45Z</time>
      </trkpt>
      <trkpt lat="48.6712" lon="-4.20328">
        <ele>3.4</ele>
        <time>2025-09-23T14:27:48Z</time>
      </trkpt>
      <trkpt lat="48.67115" lon="-4.20338">
        <ele>3.2</ele>
        <time>2025-09-23T14:27:50Z</time>
      </trkpt>
      <trkpt lat="48.67108" lon="-4.20347">
        <ele>3</ele>
        <time>2025-09-23T14:27:52Z</time>
      </trkpt>
      <trkpt lat="48.67104" lon="-4.2035">
        <ele>2.8</ele>
        <time>2025-09-23T14:27:53Z</time>
      </trkpt>
      <trkpt lat="48.67099" lon="-4.20352">
        <ele>2.8</ele>
        <time>2025-09-23T14:27:54Z</time>
      </trkpt>
      <trkpt lat="48.67087" lon="-4.20353">
        <ele>3</ele>
        <time>2025-09-23T14:27:57Z</time>
      </trkpt>
      <trkpt lat="48.67076" lon="-4.2034">
        <ele>3</ele>
        <time>2025-09-23T14:28:01Z</time>
      </trkpt>
      <trkpt lat="48.67066" lon="-4.20323">
        <ele>3.2</ele>
        <time>2025-09-23T14:28:05Z</time>
      </trkpt>
      <trkpt lat="48.67057" lon="-4.20312">
        <ele>3.4</ele>
        <time>2025-09-23T14:28:08Z</time>
      </trkpt>
      <trkpt lat="48.67044" lon="-4.20298">
        <ele>3.6</ele>
        <time>2025-09-23T14:28:12Z</time>
      </trkpt>
      <trkpt lat="48.67028" lon="-4.20281">
        <ele>3.8</ele>
        <time>2025-09-23T14:28:17Z</time>
      </trkpt>
      <trkpt lat="48.67025" lon="-4.20277">
        <ele>4</ele>
        <time>2025-09-23T14:28:18Z</time>
      </trkpt>
      <trkpt lat="48.6701" lon="-4.20259">
        <ele>3.8</ele>
        <time>2025-09-23T14:28:23Z</time>
      </trkpt>
      <trkpt lat="48.66997" lon="-4.20245">
        <ele>3.6</ele>
        <time>2025-09-23T14:28:27Z</time>
      </trkpt>
      <trkpt lat="48.66989" lon="-4.20234">
        <ele>3.6</ele>
        <time>2025-09-23T14:28:30Z</time>
      </trkpt>
      <trkpt lat="48.66979" lon="-4.20234">
        <ele>4</ele>
        <time>2025-09-23T14:28:33Z</time>
      </trkpt>
      <trkpt lat="48.66971" lon="-4.20242">
        <ele>4.2</ele>
        <time>2025-09-23T14:28:36Z</time>
      </trkpt>
      <trkpt lat="48.66962" lon="-4.20248">
        <ele>4.4</ele>
        <time>2025-09-23T14:28:39Z</time>
      </trkpt>
      <trkpt lat="48.66952" lon="-4.20257">
        <ele>4.8</ele>
        <time>2025-09-23T14:28:43Z</time>
      </trkpt>
      <trkpt lat="48.66942" lon="-4.20265">
        <ele>5.2</ele>
        <time>2025-09-23T14:28:47Z</time>
      </trkpt>
      <trkpt lat="48.66939" lon="-4.20268">
        <ele>5.2</ele>
        <time>2025-09-23T14:28:48Z</time>
      </trkpt>
      <trkpt lat="48.66913" lon="-4.2029">
        <ele>6.2</ele>
        <time>2025-09-23T14:28:58Z</time>
      </trkpt>
      <trkpt lat="48.6691" lon="-4.20293">
        <ele>6.2</ele>
        <time>2025-09-23T14:28:59Z</time>
      </trkpt>
      <trkpt lat="48.66886" lon="-4.20315">
        <ele>6.6</ele>
        <time>2025-09-23T14:29:08Z</time>
      </trkpt>
      <trkpt lat="48.66851" lon="-4.20346">
        <ele>7</ele>
        <time>2025-09-23T14:29:21Z</time>
      </trkpt>
      <trkpt lat="48.66834" lon="-4.2036">
        <ele>7.2</ele>
        <time>2025-09-23T14:29:27Z</time>
      </trkpt>
      <trkpt lat="48.66821" lon="-4.2037">
        <ele>7.4</ele>
        <time>2025-09-23T14:29:32Z</time>
      </trkpt>
      <trkpt lat="48.668" lon="-4.20386">
        <ele>8.4</ele>
        <time>2025-09-23T14:29:40Z</time>
      </trkpt>
      <trkpt lat="48.66793" lon="-4.20391">
        <ele>8.6</ele>
        <time>2025-09-23T14:29:43Z</time>
      </trkpt>
      <trkpt lat="48.66781" lon="-4.20401">
        <ele>9.4</ele>
        <time>2025-09-23T14:29:48Z</time>
      </trkpt>
      <trkpt lat="48.66772" lon="-4.20408">
        <ele>10</ele>
        <time>2025-09-23T14:29:52Z</time>
      </trkpt>
      <trkpt lat="48.66746" lon="-4.20427">
        <ele>9.6</ele>
        <time>2025-09-23T14:30:00Z</time>
      </trkpt>
      <trkpt lat="48.66734" lon="-4.20438">
        <ele>9.2</ele>
        <time>2025-09-23T14:30:03Z</time>
      </trkpt>
      <trkpt lat="48.66729" lon="-4.20448">
        <ele>8.8</ele>
        <time>2025-09-23T14:30:05Z</time>
      </trkpt>
      <trkpt lat="48.66729" lon="-4.20461">
        <ele>8.6</ele>
        <time>2025-09-23T14:30:07Z</time>
      </trkpt>
      <trkpt lat="48.6673" lon="-4.20468">
        <ele>8.4</ele>
        <time>2025-09-23T14:30:08Z</time>
      </trkpt>
      <trkpt lat="48.66739" lon="-4.20513">
        <ele>7.6</ele>
        <time>2025-09-23T14:30:14Z</time>
      </trkpt>
      <trkpt lat="48.66747" lon="-4.20543">
        <ele>7.2</ele>
        <time>2025-09-23T14:30:18Z</time>
      </trkpt>
      <trkpt lat="48.66756" lon="-4.20571">
        <ele>6.6</ele>
        <time>2025-09-23T14:30:22Z</time>
      </trkpt>
      <trkpt lat="48.66762" lon="-4.20584">
        <ele>6.2</ele>
        <time>2025-09-23T14:30:24Z</time>
      </trkpt>
      <trkpt lat="48.66767" lon="-4.20596">
        <ele>6.2</ele>
        <time>2025-09-23T14:30:26Z</time>
      </trkpt>
      <trkpt lat="48.6678" lon="-4.20619">
        <ele>6.2</ele>
        <time>2025-09-23T14:30:30Z</time>
      </trkpt>
      <trkpt lat="48.66812" lon="-4.20672">
        <ele>5.6</ele>
        <time>2025-09-23T14:30:39Z</time>
      </trkpt>
      <trkpt lat="48.66819" lon="-4.20683">
        <ele>5.6</ele>
        <time>2025-09-23T14:30:41Z</time>
      </trkpt>
      <trkpt lat="48.66829" lon="-4.20701">
        <ele>5.6</ele>
        <time>2025-09-23T14:30:44Z</time>
      </trkpt>
      <trkpt lat="48.66842" lon="-4.20725">
        <ele>5.4</ele>
        <time>2025-09-23T14:30:48Z</time>
      </trkpt>
      <trkpt lat="48.6685" lon="-4.20744">
        <ele>5.2</ele>
        <time>2025-09-23T14:30:51Z</time>
      </trkpt>
      <trkpt lat="48.66868" lon="-4.20787">
        <ele>5</ele>
        <time>2025-09-23T14:30:58Z</time>
      </trkpt>
      <trkpt lat="48.66874" lon="-4.20805">
        <ele>5</ele>
        <time>2025-09-23T14:31:01Z</time>
      </trkpt>
      <trkpt lat="48.66881" lon="-4.20823">
        <ele>4.8</ele>
        <time>2025-09-23T14:31:04Z</time>
      </trkpt>
      <trkpt lat="48.66896" lon="-4.2087">
        <ele>4.6</ele>
        <time>2025-09-23T14:31:12Z</time>
      </trkpt>
      <trkpt lat="48.66912" lon="-4.20922">
        <ele>4.2</ele>
        <time>2025-09-23T14:31:20Z</time>
      </trkpt>
      <trkpt lat="48.66916" lon="-4.20935">
        <ele>4.2</ele>
        <time>2025-09-23T14:31:22Z</time>
      </trkpt>
      <trkpt lat="48.6692" lon="-4.20947">
        <ele>4</ele>
        <time>2025-09-23T14:31:24Z</time>
      </trkpt>
      <trkpt lat="48.6693" lon="-4.20976">
        <ele>4.4</ele>
        <time>2025-09-23T14:31:29Z</time>
      </trkpt>
      <trkpt lat="48.66931" lon="-4.20982">
        <ele>4.6</ele>
        <time>2025-09-23T14:31:30Z</time>
      </trkpt>
      <trkpt lat="48.66932" lon="-4.20988">
        <ele>4.6</ele>
        <time>2025-09-23T14:31:31Z</time>
      </trkpt>
      <trkpt lat="48.66928" lon="-4.21011">
        <ele>4</ele>
        <time>2025-09-23T14:31:35Z</time>
      </trkpt>
      <trkpt lat="48.66916" lon="-4.21034">
        <ele>4</ele>
        <time>2025-09-23T14:31:41Z</time>
      </trkpt>
      <trkpt lat="48.66907" lon="-4.21047">
        <ele>4.4</ele>
        <time>2025-09-23T14:31:46Z</time>
      </trkpt>
      <trkpt lat="48.66906" lon="-4.2105">
        <ele>4.4</ele>
        <time>2025-09-23T14:31:47Z</time>
      </trkpt>
      <trkpt lat="48.66909" lon="-4.21063">
        <ele>5</ele>
        <time>2025-09-23T14:31:52Z</time>
      </trkpt>
      <trkpt lat="48.66909" lon="-4.21064">
        <ele>5.2</ele>
        <time>2025-09-23T14:31:54Z</time>
      </trkpt>
      <trkpt lat="48.6691" lon="-4.21063">
        <ele>5.4</ele>
        <time>2025-09-23T14:32:30Z</time>
      </trkpt>
      <trkpt lat="48.66911" lon="-4.21063">
        <ele>5.4</ele>
        <time>2025-09-23T14:32:31Z</time>
      </trkpt>
      <trkpt lat="48.66911" lon="-4.21063">
        <ele>5.4</ele>
        <time>2025-09-23T14:32:32Z</time>
      </trkpt>
      <trkpt lat="48.6691" lon="-4.21062">
        <ele>5.4</ele>
        <time>2025-09-23T14:32:40Z</time>
      </trkpt>
      <trkpt lat="48.66911" lon="-4.21063">
        <ele>5.4</ele>
        <time>2025-09-23T14:32:42Z</time>
      </trkpt>
      <trkpt lat="48.66911" lon="-4.21062">
        <ele>5.4</ele>
        <time>2025-09-23T14:33:06Z</time>
      </trkpt>
      <trkpt lat="48.66911" lon="-4.21063">
        <ele>5.4</ele>
        <time>2025-09-23T14:33:07Z</time>
      </trkpt>
      <trkpt lat="48.66911" lon="-4.21063">
        <ele>5.4</ele>
        <time>2025-09-23T14:33:08Z</time>
      </trkpt>
      <trkpt lat="48.66909" lon="-4.21061">
        <ele>5.4</ele>
        <time>2025-09-23T14:33:13Z</time>
      </trkpt>
      <trkpt lat="48.66905" lon="-4.21057">
        <ele>5.4</ele>
        <time>2025-09-23T14:33:17Z</time>
      </trkpt>
      <trkpt lat="48.66894" lon="-4.21048">
        <ele>5.6</ele>
        <time>2025-09-23T14:33:23Z</time>
      </trkpt>
      <trkpt lat="48.66891" lon="-4.21048">
        <ele>5.6</ele>
        <time>2025-09-23T14:33:24Z</time>
      </trkpt>
      <trkpt lat="48.66883" lon="-4.21053">
        <ele>5.4</ele>
        <time>2025-09-23T14:33:27Z</time>
      </trkpt>
      <trkpt lat="48.66865" lon="-4.21062">
        <ele>5.8</ele>
        <time>2025-09-23T14:33:34Z</time>
      </trkpt>
      <trkpt lat="48.66859" lon="-4.21065">
        <ele>6</ele>
        <time>2025-09-23T14:33:36Z</time>
      </trkpt>
      <trkpt lat="48.66837" lon="-4.21074">
        <ele>6.4</ele>
        <time>2025-09-23T14:33:44Z</time>
      </trkpt>
      <trkpt lat="48.66813" lon="-4.21086">
        <ele>6.8</ele>
        <time>2025-09-23T14:33:53Z</time>
      </trkpt>
      <trkpt lat="48.66805" lon="-4.2109">
        <ele>7</ele>
        <time>2025-09-23T14:33:56Z</time>
      </trkpt>
      <trkpt lat="48.66799" lon="-4.21092">
        <ele>7</ele>
        <time>2025-09-23T14:33:58Z</time>
      </trkpt>
      <trkpt lat="48.66793" lon="-4.21095">
        <ele>7</ele>
        <time>2025-09-23T14:34:00Z</time>
      </trkpt>
      <trkpt lat="48.66774" lon="-4.21104">
        <ele>7.2</ele>
        <time>2025-09-23T14:34:06Z</time>
      </trkpt>
      <trkpt lat="48.66767" lon="-4.21104">
        <ele>7.2</ele>
        <time>2025-09-23T14:34:08Z</time>
      </trkpt>
      <trkpt lat="48.66752" lon="-4.21112">
        <ele>7</ele>
        <time>2025-09-23T14:34:13Z</time>
      </trkpt>
      <trkpt lat="48.66734" lon="-4.21113">
        <ele>7.2</ele>
        <time>2025-09-23T14:34:18Z</time>
      </trkpt>
      <trkpt lat="48.66721" lon="-4.21124">
        <ele>7.4</ele>
        <time>2025-09-23T14:34:22Z</time>
      </trkpt>
      <trkpt lat="48.66699" lon="-4.2114">
        <ele>7</ele>
        <time>2025-09-23T14:34:29Z</time>
      </trkpt>
      <trkpt lat="48.66679" lon="-4.21148">
        <ele>7</ele>
        <time>2025-09-23T14:34:35Z</time>
      </trkpt>
      <trkpt lat="48.66668" lon="-4.21151">
        <ele>6.8</ele>
        <time>2025-09-23T14:34:38Z</time>
      </trkpt>
      <trkpt lat="48.66656" lon="-4.21155">
        <ele>7</ele>
        <time>2025-09-23T14:34:42Z</time>
      </trkpt>
      <trkpt lat="48.6664" lon="-4.21165">
        <ele>7.2</ele>
        <time>2025-09-23T14:34:47Z</time>
      </trkpt>
      <trkpt lat="48.66616" lon="-4.21179">
        <ele>7.2</ele>
        <time>2025-09-23T14:34:54Z</time>
      </trkpt>
      <trkpt lat="48.66606" lon="-4.21186">
        <ele>7.4</ele>
        <time>2025-09-23T14:34:57Z</time>
      </trkpt>
      <trkpt lat="48.66602" lon="-4.21189">
        <ele>7.4</ele>
        <time>2025-09-23T14:34:58Z</time>
      </trkpt>
      <trkpt lat="48.66567" lon="-4.2121">
        <ele>6.8</ele>
        <time>2025-09-23T14:35:07Z</time>
      </trkpt>
      <trkpt lat="48.66541" lon="-4.21225">
        <ele>6.6</ele>
        <time>2025-09-23T14:35:13Z</time>
      </trkpt>
      <trkpt lat="48.66533" lon="-4.2123">
        <ele>6.6</ele>
        <time>2025-09-23T14:35:15Z</time>
      </trkpt>
      <trkpt lat="48.66502" lon="-4.21251">
        <ele>7</ele>
        <time>2025-09-23T14:35:24Z</time>
      </trkpt>
      <trkpt lat="48.66498" lon="-4.21253">
        <ele>7</ele>
        <time>2025-09-23T14:35:25Z</time>
      </trkpt>
      <trkpt lat="48.66495" lon="-4.21256">
        <ele>7.2</ele>
        <time>2025-09-23T14:35:26Z</time>
      </trkpt>
      <trkpt lat="48.66486" lon="-4.21262">
        <ele>7.6</ele>
        <time>2025-09-23T14:35:29Z</time>
      </trkpt>
      <trkpt lat="48.66473" lon="-4.21269">
        <ele>7.8</ele>
        <time>2025-09-23T14:35:33Z</time>
      </trkpt>
      <trkpt lat="48.6647" lon="-4.21271">
        <ele>7.8</ele>
        <time>2025-09-23T14:35:34Z</time>
      </trkpt>
      <trkpt lat="48.66457" lon="-4.21279">
        <ele>8.2</ele>
        <time>2025-09-23T14:35:38Z</time>
      </trkpt>
      <trkpt lat="48.66444" lon="-4.21284">
        <ele>8.6</ele>
        <time>2025-09-23T14:35:42Z</time>
      </trkpt>
      <trkpt lat="48.66435" lon="-4.21287">
        <ele>8.6</ele>
        <time>2025-09-23T14:35:45Z</time>
      </trkpt>
      <trkpt lat="48.66412" lon="-4.21284">
        <ele>9.2</ele>
        <time>2025-09-23T14:35:52Z</time>
      </trkpt>
      <trkpt lat="48.66396" lon="-4.21278">
        <ele>9.6</ele>
        <time>2025-09-23T14:35:57Z</time>
      </trkpt>
      <trkpt lat="48.66383" lon="-4.21272">
        <ele>9.4</ele>
        <time>2025-09-23T14:36:01Z</time>
      </trkpt>
      <trkpt lat="48.6637" lon="-4.21263">
        <ele>9.4</ele>
        <time>2025-09-23T14:36:05Z</time>
      </trkpt>
      <trkpt lat="48.66367" lon="-4.2126">
        <ele>9.4</ele>
        <time>2025-09-23T14:36:06Z</time>
      </trkpt>
      <trkpt lat="48.66356" lon="-4.21252">
        <ele>9.4</ele>
        <time>2025-09-23T14:36:09Z</time>
      </trkpt>
      <trkpt lat="48.66353" lon="-4.2125">
        <ele>9.4</ele>
        <time>2025-09-23T14:36:10Z</time>
      </trkpt>
      <trkpt lat="48.66346" lon="-4.21244">
        <ele>9.4</ele>
        <time>2025-09-23T14:36:12Z</time>
      </trkpt>
      <trkpt lat="48.66328" lon="-4.21229">
        <ele>9.2</ele>
        <time>2025-09-23T14:36:18Z</time>
      </trkpt>
      <trkpt lat="48.66304" lon="-4.21212">
        <ele>8.6</ele>
        <time>2025-09-23T14:36:25Z</time>
      </trkpt>
      <trkpt lat="48.66301" lon="-4.21209">
        <ele>8.4</ele>
        <time>2025-09-23T14:36:26Z</time>
      </trkpt>
      <trkpt lat="48.66273" lon="-4.21189">
        <ele>8.2</ele>
        <time>2025-09-23T14:36:34Z</time>
      </trkpt>
      <trkpt lat="48.66258" lon="-4.2118">
        <ele>7.8</ele>
        <time>2025-09-23T14:36:40Z</time>
      </trkpt>
      <trkpt lat="48.66258" lon="-4.2118">
        <ele>7.8</ele>
        <time>2025-09-23T14:36:42Z</time>
      </trkpt>
      <trkpt lat="48.66259" lon="-4.2118">
        <ele>7.6</ele>
        <time>2025-09-23T14:41:57Z</time>
      </trkpt>
      <trkpt lat="48.66258" lon="-4.2118">
        <ele>7.6</ele>
        <time>2025-09-23T14:41:58Z</time>
      </trkpt>
      <trkpt lat="48.66247" lon="-4.21171">
        <ele>7.8</ele>
        <time>2025-09-23T14:42:05Z</time>
      </trkpt>
      <trkpt lat="48.66236" lon="-4.21163">
        <ele>7.6</ele>
        <time>2025-09-23T14:42:11Z</time>
      </trkpt>
      <trkpt lat="48.66232" lon="-4.21159">
        <ele>7.4</ele>
        <time>2025-09-23T14:42:13Z</time>
      </trkpt>
      <trkpt lat="48.66225" lon="-4.21155">
        <ele>7.4</ele>
        <time>2025-09-23T14:42:16Z</time>
      </trkpt>
      <trkpt lat="48.66217" lon="-4.21148">
        <ele>7.6</ele>
        <time>2025-09-23T14:42:20Z</time>
      </trkpt>
      <trkpt lat="48.66213" lon="-4.21144">
        <ele>7.4</ele>
        <time>2025-09-23T14:42:22Z</time>
      </trkpt>
      <trkpt lat="48.66199" lon="-4.21145">
        <ele>7.4</ele>
        <time>2025-09-23T14:42:28Z</time>
      </trkpt>
      <trkpt lat="48.6619" lon="-4.21162">
        <ele>7.2</ele>
        <time>2025-09-23T14:42:34Z</time>
      </trkpt>
      <trkpt lat="48.66179" lon="-4.21194">
        <ele>7.2</ele>
        <time>2025-09-23T14:42:43Z</time>
      </trkpt>
      <trkpt lat="48.66172" lon="-4.21212">
        <ele>7.2</ele>
        <time>2025-09-23T14:42:48Z</time>
      </trkpt>
      <trkpt lat="48.66164" lon="-4.21237">
        <ele>7.2</ele>
        <time>2025-09-23T14:42:54Z</time>
      </trkpt>
      <trkpt lat="48.66163" lon="-4.2124">
        <ele>7.2</ele>
        <time>2025-09-23T14:42:55Z</time>
      </trkpt>
      <trkpt lat="48.66161" lon="-4.21244">
        <ele>7.2</ele>
        <time>2025-09-23T14:42:56Z</time>
      </trkpt>
      <trkpt lat="48.6616" lon="-4.21248">
        <ele>7</ele>
        <time>2025-09-23T14:42:57Z</time>
      </trkpt>
      <trkpt lat="48.66159" lon="-4.21252">
        <ele>7</ele>
        <time>2025-09-23T14:42:58Z</time>
      </trkpt>
      <trkpt lat="48.66155" lon="-4.21263">
        <ele>7</ele>
        <time>2025-09-23T14:43:01Z</time>
      </trkpt>
      <trkpt lat="48.66153" lon="-4.21267">
        <ele>7</ele>
        <time>2025-09-23T14:43:02Z</time>
      </trkpt>
      <trkpt lat="48.66152" lon="-4.21271">
        <ele>7</ele>
        <time>2025-09-23T14:43:03Z</time>
      </trkpt>
      <trkpt lat="48.6615" lon="-4.21275">
        <ele>7.2</ele>
        <time>2025-09-23T14:43:04Z</time>
      </trkpt>
      <trkpt lat="48.66139" lon="-4.21308">
        <ele>7.4</ele>
        <time>2025-09-23T14:43:12Z</time>
      </trkpt>
      <trkpt lat="48.66135" lon="-4.21321">
        <ele>7.2</ele>
        <time>2025-09-23T14:43:15Z</time>
      </trkpt>
      <trkpt lat="48.66118" lon="-4.21364">
        <ele>7</ele>
        <time>2025-09-23T14:43:25Z</time>
      </trkpt>
      <trkpt lat="48.66103" lon="-4.21407">
        <ele>6.6</ele>
        <time>2025-09-23T14:43:34Z</time>
      </trkpt>
      <trkpt lat="48.66087" lon="-4.21452">
        <ele>6.6</ele>
        <time>2025-09-23T14:43:42Z</time>
      </trkpt>
      <trkpt lat="48.66068" lon="-4.21506">
        <ele>7</ele>
        <time>2025-09-23T14:43:53Z</time>
      </trkpt>
      <trkpt lat="48.66041" lon="-4.21576">
        <ele>7.6</ele>
        <time>2025-09-23T14:44:08Z</time>
      </trkpt>
      <trkpt lat="48.66027" lon="-4.21614">
        <ele>8.2</ele>
        <time>2025-09-23T14:44:17Z</time>
      </trkpt>
      <trkpt lat="48.66016" lon="-4.21642">
        <ele>8.6</ele>
        <time>2025-09-23T14:44:24Z</time>
      </trkpt>
      <trkpt lat="48.66012" lon="-4.21654">
        <ele>8.6</ele>
        <time>2025-09-23T14:44:27Z</time>
      </trkpt>
      <trkpt lat="48.65998" lon="-4.21687">
        <ele>8.8</ele>
        <time>2025-09-23T14:44:35Z</time>
      </trkpt>
      <trkpt lat="48.65982" lon="-4.21721">
        <ele>8.8</ele>
        <time>2025-09-23T14:44:44Z</time>
      </trkpt>
      <trkpt lat="48.6596" lon="-4.21766">
        <ele>9.2</ele>
        <time>2025-09-23T14:44:56Z</time>
      </trkpt>
      <trkpt lat="48.6594" lon="-4.21808">
        <ele>8.8</ele>
        <time>2025-09-23T14:45:05Z</time>
      </trkpt>
      <trkpt lat="48.65933" lon="-4.21825">
        <ele>8.4</ele>
        <time>2025-09-23T14:45:08Z</time>
      </trkpt>
      <trkpt lat="48.65921" lon="-4.2185">
        <ele>8</ele>
        <time>2025-09-23T14:45:12Z</time>
      </trkpt>
      <trkpt lat="48.65918" lon="-4.21856">
        <ele>7.8</ele>
        <time>2025-09-23T14:45:13Z</time>
      </trkpt>
      <trkpt lat="48.65908" lon="-4.21877">
        <ele>7.4</ele>
        <time>2025-09-23T14:45:16Z</time>
      </trkpt>
      <trkpt lat="48.65895" lon="-4.21903">
        <ele>7.6</ele>
        <time>2025-09-23T14:45:20Z</time>
      </trkpt>
      <trkpt lat="48.65884" lon="-4.21927">
        <ele>8.2</ele>
        <time>2025-09-23T14:45:25Z</time>
      </trkpt>
      <trkpt lat="48.65876" lon="-4.21945">
        <ele>8.6</ele>
        <time>2025-09-23T14:45:30Z</time>
      </trkpt>
      <trkpt lat="48.65869" lon="-4.21964">
        <ele>9.2</ele>
        <time>2025-09-23T14:45:35Z</time>
      </trkpt>
      <trkpt lat="48.65865" lon="-4.21974">
        <ele>9.6</ele>
        <time>2025-09-23T14:45:38Z</time>
      </trkpt>
      <trkpt lat="48.65861" lon="-4.21993">
        <ele>10.4</ele>
        <time>2025-09-23T14:45:43Z</time>
      </trkpt>
      <trkpt lat="48.65859" lon="-4.22">
        <ele>10.8</ele>
        <time>2025-09-23T14:45:45Z</time>
      </trkpt>
      <trkpt lat="48.65852" lon="-4.2202">
        <ele>11.4</ele>
        <time>2025-09-23T14:45:51Z</time>
      </trkpt>
      <trkpt lat="48.6585" lon="-4.22026">
        <ele>11.8</ele>
        <time>2025-09-23T14:45:53Z</time>
      </trkpt>
      <trkpt lat="48.65839" lon="-4.22061">
        <ele>12</ele>
        <time>2025-09-23T14:46:03Z</time>
      </trkpt>
      <trkpt lat="48.65827" lon="-4.22091">
        <ele>11.6</ele>
        <time>2025-09-23T14:46:10Z</time>
      </trkpt>
      <trkpt lat="48.65817" lon="-4.22114">
        <ele>11</ele>
        <time>2025-09-23T14:46:16Z</time>
      </trkpt>
      <trkpt lat="48.65815" lon="-4.22116">
        <ele>11</ele>
        <time>2025-09-23T14:46:17Z</time>
      </trkpt>
      <trkpt lat="48.65807" lon="-4.22122">
        <ele>10.8</ele>
        <time>2025-09-23T14:46:21Z</time>
      </trkpt>
      <trkpt lat="48.65804" lon="-4.2213">
        <ele>11</ele>
        <time>2025-09-23T14:46:27Z</time>
      </trkpt>
      <trkpt lat="48.65801" lon="-4.22135">
        <ele>10.8</ele>
        <time>2025-09-23T14:46:30Z</time>
      </trkpt>
      <trkpt lat="48.658" lon="-4.22137">
        <ele>10.6</ele>
        <time>2025-09-23T14:46:31Z</time>
      </trkpt>
      <trkpt lat="48.65799" lon="-4.22139">
        <ele>10.6</ele>
        <time>2025-09-23T14:46:32Z</time>
      </trkpt>
      <trkpt lat="48.65798" lon="-4.2214">
        <ele>10.4</ele>
        <time>2025-09-23T14:46:33Z</time>
      </trkpt>
      <trkpt lat="48.65796" lon="-4.22142">
        <ele>10.4</ele>
        <time>2025-09-23T14:46:36Z</time>
      </trkpt>
      <trkpt lat="48.65795" lon="-4.22145">
        <ele>10.6</ele>
        <time>2025-09-23T14:47:21Z</time>
      </trkpt>
      <trkpt lat="48.65796" lon="-4.22146">
        <ele>10.4</ele>
        <time>2025-09-23T14:47:24Z</time>
      </trkpt>
      <trkpt lat="48.65794" lon="-4.22146">
        <ele>10.4</ele>
        <time>2025-09-23T14:47:31Z</time>
      </trkpt>
      <trkpt lat="48.6579" lon="-4.22143">
        <ele>10</ele>
        <time>2025-09-23T14:47:34Z</time>
      </trkpt>
      <trkpt lat="48.65781" lon="-4.22138">
        <ele>9.6</ele>
        <time>2025-09-23T14:47:37Z</time>
      </trkpt>
      <trkpt lat="48.65776" lon="-4.22135">
        <ele>9.2</ele>
        <time>2025-09-23T14:47:39Z</time>
      </trkpt>
      <trkpt lat="48.65765" lon="-4.22127">
        <ele>9.4</ele>
        <time>2025-09-23T14:47:45Z</time>
      </trkpt>
      <trkpt lat="48.65761" lon="-4.2213">
        <ele>9.4</ele>
        <time>2025-09-23T14:47:47Z</time>
      </trkpt>
      <trkpt lat="48.65758" lon="-4.22133">
        <ele>9.6</ele>
        <time>2025-09-23T14:47:49Z</time>
      </trkpt>
      <trkpt lat="48.65757" lon="-4.22135">
        <ele>9.8</ele>
        <time>2025-09-23T14:47:53Z</time>
      </trkpt>
      <trkpt lat="48.65756" lon="-4.22134">
        <ele>10</ele>
        <time>2025-09-23T14:49:01Z</time>
      </trkpt>
      <trkpt lat="48.65756" lon="-4.22132">
        <ele>10</ele>
        <time>2025-09-23T14:49:02Z</time>
      </trkpt>
      <trkpt lat="48.65756" lon="-4.2213">
        <ele>10</ele>
        <time>2025-09-23T14:49:03Z</time>
      </trkpt>
      <trkpt lat="48.65759" lon="-4.22127">
        <ele>10</ele>
        <time>2025-09-23T14:49:07Z</time>
      </trkpt>
      <trkpt lat="48.65764" lon="-4.22128">
        <ele>10.2</ele>
        <time>2025-09-23T14:49:10Z</time>
      </trkpt>
      <trkpt lat="48.65768" lon="-4.2213">
        <ele>10.4</ele>
        <time>2025-09-23T14:49:12Z</time>
      </trkpt>
      <trkpt lat="48.65777" lon="-4.22133">
        <ele>10</ele>
        <time>2025-09-23T14:49:17Z</time>
      </trkpt>
      <trkpt lat="48.65787" lon="-4.22134">
        <ele>10</ele>
        <time>2025-09-23T14:49:24Z</time>
      </trkpt>
      <trkpt lat="48.65792" lon="-4.22126">
        <ele>10.4</ele>
        <time>2025-09-23T14:49:30Z</time>
      </trkpt>
      <trkpt lat="48.65795" lon="-4.22121">
        <ele>10.6</ele>
        <time>2025-09-23T14:49:33Z</time>
      </trkpt>
      <trkpt lat="48.65798" lon="-4.22115">
        <ele>11.4</ele>
        <time>2025-09-23T14:49:37Z</time>
      </trkpt>
      <trkpt lat="48.65796" lon="-4.22106">
        <ele>11</ele>
        <time>2025-09-23T14:49:43Z</time>
      </trkpt>
      <trkpt lat="48.65791" lon="-4.221">
        <ele>11.4</ele>
        <time>2025-09-23T14:49:47Z</time>
      </trkpt>
      <trkpt lat="48.65786" lon="-4.22098">
        <ele>11.4</ele>
        <time>2025-09-23T14:49:50Z</time>
      </trkpt>
      <trkpt lat="48.65781" lon="-4.22096">
        <ele>11.6</ele>
        <time>2025-09-23T14:49:53Z</time>
      </trkpt>
      <trkpt lat="48.65776" lon="-4.22092">
        <ele>11.8</ele>
        <time>2025-09-23T14:49:56Z</time>
      </trkpt>
      <trkpt lat="48.65773" lon="-4.22084">
        <ele>11.6</ele>
        <time>2025-09-23T14:50:02Z</time>
      </trkpt>
      <trkpt lat="48.65772" lon="-4.22083">
        <ele>11.6</ele>
        <time>2025-09-23T14:50:04Z</time>
      </trkpt>
      <trkpt lat="48.65772" lon="-4.22081">
        <ele>11.6</ele>
        <time>2025-09-23T14:50:15Z</time>
      </trkpt>
      <trkpt lat="48.65771" lon="-4.22076">
        <ele>11.4</ele>
        <time>2025-09-23T14:50:17Z</time>
      </trkpt>
      <trkpt lat="48.65766" lon="-4.22062">
        <ele>10.6</ele>
        <time>2025-09-23T14:50:21Z</time>
      </trkpt>
      <trkpt lat="48.65764" lon="-4.22052">
        <ele>10</ele>
        <time>2025-09-23T14:50:23Z</time>
      </trkpt>
      <trkpt lat="48.65762" lon="-4.22021">
        <ele>9.8</ele>
        <time>2025-09-23T14:50:30Z</time>
      </trkpt>
      <trkpt lat="48.65761" lon="-4.22003">
        <ele>9.4</ele>
        <time>2025-09-23T14:50:35Z</time>
      </trkpt>
      <trkpt lat="48.65761" lon="-4.21994">
        <ele>9.4</ele>
        <time>2025-09-23T14:50:38Z</time>
      </trkpt>
      <trkpt lat="48.65759" lon="-4.21975">
        <ele>8.8</ele>
        <time>2025-09-23T14:50:45Z</time>
      </trkpt>
      <trkpt lat="48.65755" lon="-4.21964">
        <ele>8.8</ele>
        <time>2025-09-23T14:50:51Z</time>
      </trkpt>
      <trkpt lat="48.65755" lon="-4.21964">
        <ele>8.6</ele>
        <time>2025-09-23T14:51:05Z</time>
      </trkpt>
      <trkpt lat="48.65755" lon="-4.21955">
        <ele>8.8</ele>
        <time>2025-09-23T14:51:09Z</time>
      </trkpt>
      <trkpt lat="48.65752" lon="-4.21937">
        <ele>8.6</ele>
        <time>2025-09-23T14:51:16Z</time>
      </trkpt>
      <trkpt lat="48.65752" lon="-4.21933">
        <ele>8.4</ele>
        <time>2025-09-23T14:51:17Z</time>
      </trkpt>
      <trkpt lat="48.6575" lon="-4.2192">
        <ele>8.2</ele>
        <time>2025-09-23T14:51:23Z</time>
      </trkpt>
      <trkpt lat="48.6575" lon="-4.21905">
        <ele>8</ele>
        <time>2025-09-23T14:51:29Z</time>
      </trkpt>
      <trkpt lat="48.65749" lon="-4.21884">
        <ele>8.4</ele>
        <time>2025-09-23T14:51:37Z</time>
      </trkpt>
      <trkpt lat="48.65748" lon="-4.21864">
        <ele>9</ele>
        <time>2025-09-23T14:51:47Z</time>
      </trkpt>
      <trkpt lat="48.65748" lon="-4.21849">
        <ele>9.2</ele>
        <time>2025-09-23T14:51:54Z</time>
      </trkpt>
      <trkpt lat="48.65749" lon="-4.21844">
        <ele>8.8</ele>
        <time>2025-09-23T14:51:58Z</time>
      </trkpt>
      <trkpt lat="48.65751" lon="-4.2183">
        <ele>8.4</ele>
        <time>2025-09-23T14:52:04Z</time>
      </trkpt>
      <trkpt lat="48.65751" lon="-4.21819">
        <ele>8</ele>
        <time>2025-09-23T14:52:10Z</time>
      </trkpt>
      <trkpt lat="48.65751" lon="-4.21802">
        <ele>7.8</ele>
        <time>2025-09-23T14:52:16Z</time>
      </trkpt>
      <trkpt lat="48.6575" lon="-4.21794">
        <ele>7.4</ele>
        <time>2025-09-23T14:52:18Z</time>
      </trkpt>
      <trkpt lat="48.65749" lon="-4.21779">
        <ele>6.6</ele>
        <time>2025-09-23T14:52:22Z</time>
      </trkpt>
      <trkpt lat="48.65748" lon="-4.21772">
        <ele>6.2</ele>
        <time>2025-09-23T14:52:24Z</time>
      </trkpt>
      <trkpt lat="48.65745" lon="-4.21752">
        <ele>6.2</ele>
        <time>2025-09-23T14:52:32Z</time>
      </trkpt>
      <trkpt lat="48.65744" lon="-4.21745">
        <ele>6.2</ele>
        <time>2025-09-23T14:52:37Z</time>
      </trkpt>
      <trkpt lat="48.65744" lon="-4.21745">
        <ele>6.4</ele>
        <time>2025-09-23T14:52:38Z</time>
      </trkpt>
      <trkpt lat="48.65745" lon="-4.21741">
        <ele>6.2</ele>
        <time>2025-09-23T14:53:13Z</time>
      </trkpt>
      <trkpt lat="48.65746" lon="-4.21735">
        <ele>6.2</ele>
        <time>2025-09-23T14:53:15Z</time>
      </trkpt>
      <trkpt lat="48.65744" lon="-4.21718">
        <ele>6.2</ele>
        <time>2025-09-23T14:53:20Z</time>
      </trkpt>
      <trkpt lat="48.65742" lon="-4.21698">
        <ele>6</ele>
        <time>2025-09-23T14:53:25Z</time>
      </trkpt>
      <trkpt lat="48.65741" lon="-4.21695">
        <ele>6</ele>
        <time>2025-09-23T14:53:26Z</time>
      </trkpt>
      <trkpt lat="48.65741" lon="-4.21692">
        <ele>6.2</ele>
        <time>2025-09-23T14:53:27Z</time>
      </trkpt>
      <trkpt lat="48.6574" lon="-4.2167">
        <ele>6.2</ele>
        <time>2025-09-23T14:53:34Z</time>
      </trkpt>
      <trkpt lat="48.6574" lon="-4.21653">
        <ele>6.2</ele>
        <time>2025-09-23T14:53:41Z</time>
      </trkpt>
      <trkpt lat="48.6574" lon="-4.21636">
        <ele>6</ele>
        <time>2025-09-23T14:53:47Z</time>
      </trkpt>
      <trkpt lat="48.65743" lon="-4.21619">
        <ele>6.4</ele>
        <time>2025-09-23T14:53:54Z</time>
      </trkpt>
      <trkpt lat="48.65751" lon="-4.21602">
        <ele>7</ele>
        <time>2025-09-23T14:54:01Z</time>
      </trkpt>
      <trkpt lat="48.65754" lon="-4.21589">
        <ele>7.2</ele>
        <time>2025-09-23T14:54:06Z</time>
      </trkpt>
      <trkpt lat="48.65757" lon="-4.21573">
        <ele>7.6</ele>
        <time>2025-09-23T14:54:13Z</time>
      </trkpt>
      <trkpt lat="48.65757" lon="-4.21559">
        <ele>8</ele>
        <time>2025-09-23T14:54:19Z</time>
      </trkpt>
      <trkpt lat="48.65757" lon="-4.21555">
        <ele>8.4</ele>
        <time>2025-09-23T14:54:21Z</time>
      </trkpt>
      <trkpt lat="48.6576" lon="-4.21541">
        <ele>8.8</ele>
        <time>2025-09-23T14:54:27Z</time>
      </trkpt>
      <trkpt lat="48.65764" lon="-4.21526">
        <ele>8.8</ele>
        <time>2025-09-23T14:54:35Z</time>
      </trkpt>
      <trkpt lat="48.65764" lon="-4.21526">
        <ele>8.8</ele>
        <time>2025-09-23T14:54:36Z</time>
      </trkpt>
      <trkpt lat="48.65764" lon="-4.21525">
        <ele>8.8</ele>
        <time>2025-09-23T14:55:05Z</time>
      </trkpt>
      <trkpt lat="48.65765" lon="-4.21523">
        <ele>8.8</ele>
        <time>2025-09-23T14:55:06Z</time>
      </trkpt>
      <trkpt lat="48.65766" lon="-4.21521">
        <ele>8.8</ele>
        <time>2025-09-23T14:55:07Z</time>
      </trkpt>
      <trkpt lat="48.65777" lon="-4.2151">
        <ele>8.4</ele>
        <time>2025-09-23T14:55:13Z</time>
      </trkpt>
      <trkpt lat="48.65785" lon="-4.21507">
        <ele>8.4</ele>
        <time>2025-09-23T14:55:18Z</time>
      </trkpt>
      <trkpt lat="48.65796" lon="-4.21502">
        <ele>8.8</ele>
        <time>2025-09-23T14:55:24Z</time>
      </trkpt>
      <trkpt lat="48.65809" lon="-4.21489">
        <ele>8.8</ele>
        <time>2025-09-23T14:55:33Z</time>
      </trkpt>
      <trkpt lat="48.65821" lon="-4.21476">
        <ele>8.2</ele>
        <time>2025-09-23T14:55:40Z</time>
      </trkpt>
      <trkpt lat="48.65832" lon="-4.21466">
        <ele>8</ele>
        <time>2025-09-23T14:55:46Z</time>
      </trkpt>
      <trkpt lat="48.65836" lon="-4.21461">
        <ele>7.8</ele>
        <time>2025-09-23T14:55:49Z</time>
      </trkpt>
      <trkpt lat="48.65838" lon="-4.21453">
        <ele>7.4</ele>
        <time>2025-09-23T14:55:51Z</time>
      </trkpt>
      <trkpt lat="48.65841" lon="-4.21451">
        <ele>7.2</ele>
        <time>2025-09-23T14:55:52Z</time>
      </trkpt>
      <trkpt lat="48.65849" lon="-4.21445">
        <ele>7</ele>
        <time>2025-09-23T14:55:55Z</time>
      </trkpt>
      <trkpt lat="48.65856" lon="-4.21428">
        <ele>6.6</ele>
        <time>2025-09-23T14:56:00Z</time>
      </trkpt>
      <trkpt lat="48.65858" lon="-4.21408">
        <ele>6.8</ele>
        <time>2025-09-23T14:56:05Z</time>
      </trkpt>
      <trkpt lat="48.65858" lon="-4.214">
        <ele>6.6</ele>
        <time>2025-09-23T14:56:07Z</time>
      </trkpt>
      <trkpt lat="48.65856" lon="-4.21382">
        <ele>6.4</ele>
        <time>2025-09-23T14:56:11Z</time>
      </trkpt>
      <trkpt lat="48.65856" lon="-4.21378">
        <ele>6.2</ele>
        <time>2025-09-23T14:56:12Z</time>
      </trkpt>
      <trkpt lat="48.65857" lon="-4.21374">
        <ele>6.2</ele>
        <time>2025-09-23T14:56:13Z</time>
      </trkpt>
      <trkpt lat="48.65857" lon="-4.21368">
        <ele>6</ele>
        <time>2025-09-23T14:56:15Z</time>
      </trkpt>
      <trkpt lat="48.65866" lon="-4.21351">
        <ele>5.8</ele>
        <time>2025-09-23T14:56:21Z</time>
      </trkpt>
      <trkpt lat="48.65887" lon="-4.21321">
        <ele>5.4</ele>
        <time>2025-09-23T14:56:30Z</time>
      </trkpt>
      <trkpt lat="48.65913" lon="-4.21285">
        <ele>5.2</ele>
        <time>2025-09-23T14:56:41Z</time>
      </trkpt>
      <trkpt lat="48.65915" lon="-4.21282">
        <ele>5.2</ele>
        <time>2025-09-23T14:56:42Z</time>
      </trkpt>
      <trkpt lat="48.65928" lon="-4.21262">
        <ele>5.2</ele>
        <time>2025-09-23T14:56:48Z</time>
      </trkpt>
      <trkpt lat="48.65937" lon="-4.21242">
        <ele>6</ele>
        <time>2025-09-23T14:56:55Z</time>
      </trkpt>
      <trkpt lat="48.65934" lon="-4.21221">
        <ele>5.4</ele>
        <time>2025-09-23T14:57:00Z</time>
      </trkpt>
      <trkpt lat="48.65929" lon="-4.212">
        <ele>5.4</ele>
        <time>2025-09-23T14:57:05Z</time>
      </trkpt>
      <trkpt lat="48.65926" lon="-4.21178">
        <ele>5.6</ele>
        <time>2025-09-23T14:57:10Z</time>
      </trkpt>
      <trkpt lat="48.65924" lon="-4.21145">
        <ele>6</ele>
        <time>2025-09-23T14:57:18Z</time>
      </trkpt>
      <trkpt lat="48.65923" lon="-4.21138">
        <ele>6</ele>
        <time>2025-09-23T14:57:20Z</time>
      </trkpt>
      <trkpt lat="48.65921" lon="-4.21123">
        <ele>6.2</ele>
        <time>2025-09-23T14:57:24Z</time>
      </trkpt>
      <trkpt lat="48.65921" lon="-4.21115">
        <ele>6.2</ele>
        <time>2025-09-23T14:57:26Z</time>
      </trkpt>
      <trkpt lat="48.6592" lon="-4.21079">
        <ele>6.6</ele>
        <time>2025-09-23T14:57:35Z</time>
      </trkpt>
      <trkpt lat="48.6592" lon="-4.21072">
        <ele>6.8</ele>
        <time>2025-09-23T14:57:37Z</time>
      </trkpt>
      <trkpt lat="48.65919" lon="-4.21051">
        <ele>6.8</ele>
        <time>2025-09-23T14:57:43Z</time>
      </trkpt>
      <trkpt lat="48.65919" lon="-4.2104">
        <ele>6.8</ele>
        <time>2025-09-23T14:57:47Z</time>
      </trkpt>
      <trkpt lat="48.65918" lon="-4.21012">
        <ele>7.2</ele>
        <time>2025-09-23T14:57:55Z</time>
      </trkpt>
      <trkpt lat="48.65918" lon="-4.21009">
        <ele>7.2</ele>
        <time>2025-09-23T14:57:56Z</time>
      </trkpt>
      <trkpt lat="48.65916" lon="-4.20977">
        <ele>8.2</ele>
        <time>2025-09-23T14:58:05Z</time>
      </trkpt>
      <trkpt lat="48.65916" lon="-4.2097">
        <ele>8.2</ele>
        <time>2025-09-23T14:58:07Z</time>
      </trkpt>
      <trkpt lat="48.65919" lon="-4.20943">
        <ele>8.4</ele>
        <time>2025-09-23T14:58:15Z</time>
      </trkpt>
      <trkpt lat="48.65926" lon="-4.20916">
        <ele>8.8</ele>
        <time>2025-09-23T14:58:23Z</time>
      </trkpt>
      <trkpt lat="48.65928" lon="-4.20901">
        <ele>9.2</ele>
        <time>2025-09-23T14:58:28Z</time>
      </trkpt>
      <trkpt lat="48.65926" lon="-4.20899">
        <ele>9.4</ele>
        <time>2025-09-23T14:58:29Z</time>
      </trkpt>
      <trkpt lat="48.65927" lon="-4.20901">
        <ele>9.6</ele>
        <time>2025-09-23T15:00:42Z</time>
      </trkpt>
      <trkpt lat="48.65932" lon="-4.20897">
        <ele>9.6</ele>
        <time>2025-09-23T15:00:44Z</time>
      </trkpt>
      <trkpt lat="48.65934" lon="-4.20895">
        <ele>9.6</ele>
        <time>2025-09-23T15:00:45Z</time>
      </trkpt>
      <trkpt lat="48.65939" lon="-4.20882">
        <ele>9.6</ele>
        <time>2025-09-23T15:00:50Z</time>
      </trkpt>
      <trkpt lat="48.6594" lon="-4.2088">
        <ele>9.4</ele>
        <time>2025-09-23T15:00:51Z</time>
      </trkpt>
      <trkpt lat="48.6594" lon="-4.20877">
        <ele>9.2</ele>
        <time>2025-09-23T15:00:52Z</time>
      </trkpt>
      <trkpt lat="48.65938" lon="-4.20865">
        <ele>9</ele>
        <time>2025-09-23T15:00:55Z</time>
      </trkpt>
      <trkpt lat="48.65928" lon="-4.20834">
        <ele>9</ele>
        <time>2025-09-23T15:01:02Z</time>
      </trkpt>
      <trkpt lat="48.65927" lon="-4.2083">
        <ele>9.2</ele>
        <time>2025-09-23T15:01:03Z</time>
      </trkpt>
      <trkpt lat="48.65924" lon="-4.2082">
        <ele>9.2</ele>
        <time>2025-09-23T15:01:05Z</time>
      </trkpt>
      <trkpt lat="48.65917" lon="-4.20789">
        <ele>10</ele>
        <time>2025-09-23T15:01:11Z</time>
      </trkpt>
      <trkpt lat="48.65913" lon="-4.20745">
        <ele>10</ele>
        <time>2025-09-23T15:01:20Z</time>
      </trkpt>
      <trkpt lat="48.65911" lon="-4.20719">
        <ele>10.4</ele>
        <time>2025-09-23T15:01:26Z</time>
      </trkpt>
      <trkpt lat="48.65911" lon="-4.20709">
        <ele>10.4</ele>
        <time>2025-09-23T15:01:28Z</time>
      </trkpt>
      <trkpt lat="48.65911" lon="-4.20704">
        <ele>10.6</ele>
        <time>2025-09-23T15:01:29Z</time>
      </trkpt>
      <trkpt lat="48.6591" lon="-4.20684">
        <ele>10.8</ele>
        <time>2025-09-23T15:01:33Z</time>
      </trkpt>
      <trkpt lat="48.65909" lon="-4.20673">
        <ele>11</ele>
        <time>2025-09-23T15:01:35Z</time>
      </trkpt>
      <trkpt lat="48.65908" lon="-4.20662">
        <ele>11.2</ele>
        <time>2025-09-23T15:01:37Z</time>
      </trkpt>
      <trkpt lat="48.65908" lon="-4.20652">
        <ele>11.2</ele>
        <time>2025-09-23T15:01:39Z</time>
      </trkpt>
      <trkpt lat="48.65907" lon="-4.20642">
        <ele>11.2</ele>
        <time>2025-09-23T15:01:41Z</time>
      </trkpt>
      <trkpt lat="48.65905" lon="-4.20607">
        <ele>11.6</ele>
        <time>2025-09-23T15:01:48Z</time>
      </trkpt>
      <trkpt lat="48.65904" lon="-4.20598">
        <ele>11.8</ele>
        <time>2025-09-23T15:01:50Z</time>
      </trkpt>
      <trkpt lat="48.65904" lon="-4.20588">
        <ele>11.8</ele>
        <time>2025-09-23T15:01:52Z</time>
      </trkpt>
      <trkpt lat="48.65903" lon="-4.20579">
        <ele>11.8</ele>
        <time>2025-09-23T15:01:54Z</time>
      </trkpt>
      <trkpt lat="48.65902" lon="-4.20553">
        <ele>12.2</ele>
        <time>2025-09-23T15:01:59Z</time>
      </trkpt>
      <trkpt lat="48.65901" lon="-4.20543">
        <ele>12.4</ele>
        <time>2025-09-23T15:02:01Z</time>
      </trkpt>
      <trkpt lat="48.65901" lon="-4.20538">
        <ele>12.6</ele>
        <time>2025-09-23T15:02:02Z</time>
      </trkpt>
      <trkpt lat="48.65901" lon="-4.20533">
        <ele>12.6</ele>
        <time>2025-09-23T15:02:03Z</time>
      </trkpt>
      <trkpt lat="48.659" lon="-4.20528">
        <ele>12.8</ele>
        <time>2025-09-23T15:02:04Z</time>
      </trkpt>
      <trkpt lat="48.65898" lon="-4.20491">
        <ele>13.6</ele>
        <time>2025-09-23T15:02:11Z</time>
      </trkpt>
      <trkpt lat="48.65896" lon="-4.20439">
        <ele>12.6</ele>
        <time>2025-09-23T15:02:20Z</time>
      </trkpt>
      <trkpt lat="48.65898" lon="-4.20393">
        <ele>12.6</ele>
        <time>2025-09-23T15:02:28Z</time>
      </trkpt>
      <trkpt lat="48.659" lon="-4.20372">
        <ele>13</ele>
        <time>2025-09-23T15:02:32Z</time>
      </trkpt>
      <trkpt lat="48.65903" lon="-4.20346">
        <ele>13</ele>
        <time>2025-09-23T15:02:37Z</time>
      </trkpt>
      <trkpt lat="48.65909" lon="-4.20303">
        <ele>13.6</ele>
        <time>2025-09-23T15:02:46Z</time>
      </trkpt>
      <trkpt lat="48.65913" lon="-4.20274">
        <ele>13.8</ele>
        <time>2025-09-23T15:02:52Z</time>
      </trkpt>
      <trkpt lat="48.65916" lon="-4.20258">
        <ele>14.2</ele>
        <time>2025-09-23T15:02:55Z</time>
      </trkpt>
      <trkpt lat="48.65923" lon="-4.20204">
        <ele>14.6</ele>
        <time>2025-09-23T15:03:06Z</time>
      </trkpt>
      <trkpt lat="48.65926" lon="-4.20184">
        <ele>14.8</ele>
        <time>2025-09-23T15:03:10Z</time>
      </trkpt>
      <trkpt lat="48.6593" lon="-4.20155">
        <ele>15.2</ele>
        <time>2025-09-23T15:03:16Z</time>
      </trkpt>
      <trkpt lat="48.65936" lon="-4.20108">
        <ele>15.6</ele>
        <time>2025-09-23T15:03:26Z</time>
      </trkpt>
      <trkpt lat="48.65936" lon="-4.20099">
        <ele>15.8</ele>
        <time>2025-09-23T15:03:28Z</time>
      </trkpt>
      <trkpt lat="48.65933" lon="-4.20063">
        <ele>16.2</ele>
        <time>2025-09-23T15:03:36Z</time>
      </trkpt>
      <trkpt lat="48.65923" lon="-4.20032">
        <ele>16.4</ele>
        <time>2025-09-23T15:03:44Z</time>
      </trkpt>
      <trkpt lat="48.65907" lon="-4.20028">
        <ele>16.4</ele>
        <time>2025-09-23T15:03:49Z</time>
      </trkpt>
      <trkpt lat="48.65879" lon="-4.20017">
        <ele>15.6</ele>
        <time>2025-09-23T15:03:56Z</time>
      </trkpt>
      <trkpt lat="48.65867" lon="-4.20011">
        <ele>14.4</ele>
        <time>2025-09-23T15:04:00Z</time>
      </trkpt>
      <trkpt lat="48.65866" lon="-4.20009">
        <ele>14.2</ele>
        <time>2025-09-23T15:04:01Z</time>
      </trkpt>
      <trkpt lat="48.65863" lon="-4.19997">
        <ele>13.4</ele>
        <time>2025-09-23T15:04:05Z</time>
      </trkpt>
      <trkpt lat="48.65863" lon="-4.19993">
        <ele>13.4</ele>
        <time>2025-09-23T15:04:06Z</time>
      </trkpt>
      <trkpt lat="48.65871" lon="-4.19967">
        <ele>13.8</ele>
        <time>2025-09-23T15:04:13Z</time>
      </trkpt>
      <trkpt lat="48.65884" lon="-4.1993">
        <ele>13.6</ele>
        <time>2025-09-23T15:04:22Z</time>
      </trkpt>
      <trkpt lat="48.65896" lon="-4.199">
        <ele>12.8</ele>
        <time>2025-09-23T15:04:28Z</time>
      </trkpt>
      <trkpt lat="48.65897" lon="-4.19883">
        <ele>12.6</ele>
        <time>2025-09-23T15:04:31Z</time>
      </trkpt>
      <trkpt lat="48.65896" lon="-4.19877">
        <ele>12.2</ele>
        <time>2025-09-23T15:04:32Z</time>
      </trkpt>
      <trkpt lat="48.65893" lon="-4.19856">
        <ele>11.2</ele>
        <time>2025-09-23T15:04:35Z</time>
      </trkpt>
      <trkpt lat="48.65891" lon="-4.19833">
        <ele>10.4</ele>
        <time>2025-09-23T15:04:38Z</time>
      </trkpt>
      <trkpt lat="48.65891" lon="-4.19816">
        <ele>10</ele>
        <time>2025-09-23T15:04:40Z</time>
      </trkpt>
      <trkpt lat="48.6589" lon="-4.19741">
        <ele>9</ele>
        <time>2025-09-23T15:04:49Z</time>
      </trkpt>
      <trkpt lat="48.65889" lon="-4.19692">
        <ele>9.4</ele>
        <time>2025-09-23T15:04:56Z</time>
      </trkpt>
      <trkpt lat="48.65885" lon="-4.19643">
        <ele>9.6</ele>
        <time>2025-09-23T15:05:04Z</time>
      </trkpt>
      <trkpt lat="48.65878" lon="-4.19587">
        <ele>9.8</ele>
        <time>2025-09-23T15:05:13Z</time>
      </trkpt>
      <trkpt lat="48.65869" lon="-4.19539">
        <ele>9.8</ele>
        <time>2025-09-23T15:05:22Z</time>
      </trkpt>
      <trkpt lat="48.65867" lon="-4.19534">
        <ele>9.8</ele>
        <time>2025-09-23T15:05:23Z</time>
      </trkpt>
      <trkpt lat="48.65863" lon="-4.19504">
        <ele>10.2</ele>
        <time>2025-09-23T15:05:28Z</time>
      </trkpt>
      <trkpt lat="48.65862" lon="-4.1948">
        <ele>10.4</ele>
        <time>2025-09-23T15:05:32Z</time>
      </trkpt>
      <trkpt lat="48.6586" lon="-4.19456">
        <ele>10.2</ele>
        <time>2025-09-23T15:05:36Z</time>
      </trkpt>
      <trkpt lat="48.65859" lon="-4.19438">
        <ele>10.4</ele>
        <time>2025-09-23T15:05:39Z</time>
      </trkpt>
      <trkpt lat="48.65857" lon="-4.19421">
        <ele>10.6</ele>
        <time>2025-09-23T15:05:42Z</time>
      </trkpt>
      <trkpt lat="48.65853" lon="-4.19366">
        <ele>10.8</ele>
        <time>2025-09-23T15:05:52Z</time>
      </trkpt>
      <trkpt lat="48.6585" lon="-4.1932">
        <ele>11.2</ele>
        <time>2025-09-23T15:06:00Z</time>
      </trkpt>
      <trkpt lat="48.6585" lon="-4.19315">
        <ele>11.2</ele>
        <time>2025-09-23T15:06:01Z</time>
      </trkpt>
      <trkpt lat="48.65844" lon="-4.1926">
        <ele>11.4</ele>
        <time>2025-09-23T15:06:11Z</time>
      </trkpt>
      <trkpt lat="48.65835" lon="-4.19225">
        <ele>12.2</ele>
        <time>2025-09-23T15:06:18Z</time>
      </trkpt>
      <trkpt lat="48.65832" lon="-4.19217">
        <ele>12.2</ele>
        <time>2025-09-23T15:06:20Z</time>
      </trkpt>
      <trkpt lat="48.65811" lon="-4.19182">
        <ele>12.8</ele>
        <time>2025-09-23T15:06:29Z</time>
      </trkpt>
      <trkpt lat="48.65796" lon="-4.19166">
        <ele>13.2</ele>
        <time>2025-09-23T15:06:35Z</time>
      </trkpt>
      <trkpt lat="48.6579" lon="-4.19162">
        <ele>13.4</ele>
        <time>2025-09-23T15:06:37Z</time>
      </trkpt>
      <trkpt lat="48.65764" lon="-4.19151">
        <ele>13.4</ele>
        <time>2025-09-23T15:06:45Z</time>
      </trkpt>
      <trkpt lat="48.65747" lon="-4.1915">
        <ele>13.6</ele>
        <time>2025-09-23T15:06:50Z</time>
      </trkpt>
      <trkpt lat="48.65739" lon="-4.1915">
        <ele>13.8</ele>
        <time>2025-09-23T15:06:52Z</time>
      </trkpt>
      <trkpt lat="48.65736" lon="-4.19151">
        <ele>13.8</ele>
        <time>2025-09-23T15:06:53Z</time>
      </trkpt>
      <trkpt lat="48.65717" lon="-4.19149">
        <ele>13.6</ele>
        <time>2025-09-23T15:06:59Z</time>
      </trkpt>
      <trkpt lat="48.65706" lon="-4.19139">
        <ele>13.4</ele>
        <time>2025-09-23T15:07:04Z</time>
      </trkpt>
      <trkpt lat="48.65687" lon="-4.19124">
        <ele>12.4</ele>
        <time>2025-09-23T15:07:09Z</time>
      </trkpt>
      <trkpt lat="48.65683" lon="-4.1912">
        <ele>12.2</ele>
        <time>2025-09-23T15:07:10Z</time>
      </trkpt>
      <trkpt lat="48.65676" lon="-4.19109">
        <ele>11.8</ele>
        <time>2025-09-23T15:07:12Z</time>
      </trkpt>
      <trkpt lat="48.65671" lon="-4.19095">
        <ele>11.6</ele>
        <time>2025-09-23T15:07:14Z</time>
      </trkpt>
      <trkpt lat="48.65668" lon="-4.19088">
        <ele>11.4</ele>
        <time>2025-09-23T15:07:15Z</time>
      </trkpt>
      <trkpt lat="48.65666" lon="-4.1908">
        <ele>11.4</ele>
        <time>2025-09-23T15:07:16Z</time>
      </trkpt>
      <trkpt lat="48.65663" lon="-4.19065">
        <ele>11.2</ele>
        <time>2025-09-23T15:07:18Z</time>
      </trkpt>
      <trkpt lat="48.65658" lon="-4.19051">
        <ele>11</ele>
        <time>2025-09-23T15:07:20Z</time>
      </trkpt>
      <trkpt lat="48.65655" lon="-4.19044">
        <ele>10.8</ele>
        <time>2025-09-23T15:07:21Z</time>
      </trkpt>
      <trkpt lat="48.6564" lon="-4.19019">
        <ele>11</ele>
        <time>2025-09-23T15:07:26Z</time>
      </trkpt>
      <trkpt lat="48.65637" lon="-4.19015">
        <ele>11</ele>
        <time>2025-09-23T15:07:27Z</time>
      </trkpt>
      <trkpt lat="48.65628" lon="-4.1899">
        <ele>11.8</ele>
        <time>2025-09-23T15:07:33Z</time>
      </trkpt>
      <trkpt lat="48.65628" lon="-4.18981">
        <ele>12.2</ele>
        <time>2025-09-23T15:07:35Z</time>
      </trkpt>
      <trkpt lat="48.65629" lon="-4.18968">
        <ele>12.6</ele>
        <time>2025-09-23T15:07:38Z</time>
      </trkpt>
      <trkpt lat="48.6563" lon="-4.1896">
        <ele>13</ele>
        <time>2025-09-23T15:07:40Z</time>
      </trkpt>
      <trkpt lat="48.65631" lon="-4.18953">
        <ele>13.2</ele>
        <time>2025-09-23T15:07:42Z</time>
      </trkpt>
      <trkpt lat="48.65636" lon="-4.18916">
        <ele>14.2</ele>
        <time>2025-09-23T15:07:51Z</time>
      </trkpt>
      <trkpt lat="48.65639" lon="-4.1889">
        <ele>15.2</ele>
        <time>2025-09-23T15:07:58Z</time>
      </trkpt>
      <trkpt lat="48.6564" lon="-4.18883">
        <ele>15.4</ele>
        <time>2025-09-23T15:08:00Z</time>
      </trkpt>
      <trkpt lat="48.65645" lon="-4.18842">
        <ele>16</ele>
        <time>2025-09-23T15:08:11Z</time>
      </trkpt>
      <trkpt lat="48.65649" lon="-4.18823">
        <ele>16.2</ele>
        <time>2025-09-23T15:08:16Z</time>
      </trkpt>
      <trkpt lat="48.65649" lon="-4.18819">
        <ele>16.2</ele>
        <time>2025-09-23T15:08:17Z</time>
      </trkpt>
      <trkpt lat="48.6565" lon="-4.18815">
        <ele>16.2</ele>
        <time>2025-09-23T15:08:18Z</time>
      </trkpt>
      <trkpt lat="48.65655" lon="-4.18794">
        <ele>16.2</ele>
        <time>2025-09-23T15:08:24Z</time>
      </trkpt>
      <trkpt lat="48.65661" lon="-4.18766">
        <ele>16.4</ele>
        <time>2025-09-23T15:08:31Z</time>
      </trkpt>
      <trkpt lat="48.65668" lon="-4.18727">
        <ele>16.8</ele>
        <time>2025-09-23T15:08:40Z</time>
      </trkpt>
      <trkpt lat="48.65675" lon="-4.18679">
        <ele>16.8</ele>
        <time>2025-09-23T15:08:50Z</time>
      </trkpt>
      <trkpt lat="48.6568" lon="-4.18644">
        <ele>17</ele>
        <time>2025-09-23T15:08:57Z</time>
      </trkpt>
      <trkpt lat="48.65683" lon="-4.18629">
        <ele>16.8</ele>
        <time>2025-09-23T15:09:00Z</time>
      </trkpt>
      <trkpt lat="48.65689" lon="-4.18577">
        <ele>16.6</ele>
        <time>2025-09-23T15:09:10Z</time>
      </trkpt>
      <trkpt lat="48.65699" lon="-4.18519">
        <ele>16.4</ele>
        <time>2025-09-23T15:09:21Z</time>
      </trkpt>
      <trkpt lat="48.65701" lon="-4.18497">
        <ele>16.6</ele>
        <time>2025-09-23T15:09:25Z</time>
      </trkpt>
      <trkpt lat="48.65705" lon="-4.18477">
        <ele>16.4</ele>
        <time>2025-09-23T15:09:29Z</time>
      </trkpt>
      <trkpt lat="48.65707" lon="-4.18473">
        <ele>16.4</ele>
        <time>2025-09-23T15:09:30Z</time>
      </trkpt>
      <trkpt lat="48.6571" lon="-4.18463">
        <ele>16.2</ele>
        <time>2025-09-23T15:09:32Z</time>
      </trkpt>
      <trkpt lat="48.65723" lon="-4.18436">
        <ele>16.2</ele>
        <time>2025-09-23T15:09:38Z</time>
      </trkpt>
      <trkpt lat="48.65742" lon="-4.18395">
        <ele>16.4</ele>
        <time>2025-09-23T15:09:48Z</time>
      </trkpt>
      <trkpt lat="48.65751" lon="-4.18359">
        <ele>16.8</ele>
        <time>2025-09-23T15:09:56Z</time>
      </trkpt>
      <trkpt lat="48.65765" lon="-4.18304">
        <ele>17</ele>
        <time>2025-09-23T15:10:08Z</time>
      </trkpt>
      <trkpt lat="48.6577" lon="-4.18283">
        <ele>17.2</ele>
        <time>2025-09-23T15:10:13Z</time>
      </trkpt>
      <trkpt lat="48.65771" lon="-4.18279">
        <ele>17.2</ele>
        <time>2025-09-23T15:10:14Z</time>
      </trkpt>
      <trkpt lat="48.65772" lon="-4.18275">
        <ele>17.2</ele>
        <time>2025-09-23T15:10:15Z</time>
      </trkpt>
      <trkpt lat="48.65773" lon="-4.18266">
        <ele>17.2</ele>
        <time>2025-09-23T15:10:17Z</time>
      </trkpt>
      <trkpt lat="48.65774" lon="-4.18262">
        <ele>17.4</ele>
        <time>2025-09-23T15:10:18Z</time>
      </trkpt>
      <trkpt lat="48.65783" lon="-4.18227">
        <ele>18</ele>
        <time>2025-09-23T15:10:26Z</time>
      </trkpt>
      <trkpt lat="48.65785" lon="-4.18201">
        <ele>18.2</ele>
        <time>2025-09-23T15:10:32Z</time>
      </trkpt>
      <trkpt lat="48.65785" lon="-4.18196">
        <ele>18.4</ele>
        <time>2025-09-23T15:10:33Z</time>
      </trkpt>
      <trkpt lat="48.65783" lon="-4.18187">
        <ele>18.4</ele>
        <time>2025-09-23T15:10:35Z</time>
      </trkpt>
      <trkpt lat="48.6578" lon="-4.18166">
        <ele>18.6</ele>
        <time>2025-09-23T15:10:40Z</time>
      </trkpt>
      <trkpt lat="48.65775" lon="-4.18142">
        <ele>19</ele>
        <time>2025-09-23T15:10:46Z</time>
      </trkpt>
      <trkpt lat="48.65772" lon="-4.18123">
        <ele>19.4</ele>
        <time>2025-09-23T15:10:51Z</time>
      </trkpt>
      <trkpt lat="48.65771" lon="-4.18108">
        <ele>19.6</ele>
        <time>2025-09-23T15:10:55Z</time>
      </trkpt>
      <trkpt lat="48.65772" lon="-4.18069">
        <ele>20.2</ele>
        <time>2025-09-23T15:11:05Z</time>
      </trkpt>
      <trkpt lat="48.65774" lon="-4.18058">
        <ele>20.4</ele>
        <time>2025-09-23T15:11:08Z</time>
      </trkpt>
      <trkpt lat="48.65775" lon="-4.18044">
        <ele>20.4</ele>
        <time>2025-09-23T15:11:12Z</time>
      </trkpt>
      <trkpt lat="48.65775" lon="-4.1804">
        <ele>20.4</ele>
        <time>2025-09-23T15:11:13Z</time>
      </trkpt>
      <trkpt lat="48.65775" lon="-4.18036">
        <ele>20.6</ele>
        <time>2025-09-23T15:11:14Z</time>
      </trkpt>
      <trkpt lat="48.65776" lon="-4.18028">
        <ele>20.8</ele>
        <time>2025-09-23T15:11:16Z</time>
      </trkpt>
      <trkpt lat="48.65778" lon="-4.18004">
        <ele>21.4</ele>
        <time>2025-09-23T15:11:22Z</time>
      </trkpt>
      <trkpt lat="48.6578" lon="-4.17984">
        <ele>22</ele>
        <time>2025-09-23T15:11:27Z</time>
      </trkpt>
      <trkpt lat="48.65781" lon="-4.17964">
        <ele>22.4</ele>
        <time>2025-09-23T15:11:33Z</time>
      </trkpt>
      <trkpt lat="48.65782" lon="-4.17957">
        <ele>22.8</ele>
        <time>2025-09-23T15:11:35Z</time>
      </trkpt>
      <trkpt lat="48.65786" lon="-4.17933">
        <ele>23.6</ele>
        <time>2025-09-23T15:11:42Z</time>
      </trkpt>
      <trkpt lat="48.65788" lon="-4.17926">
        <ele>23.8</ele>
        <time>2025-09-23T15:11:44Z</time>
      </trkpt>
      <trkpt lat="48.658" lon="-4.17897">
        <ele>24.6</ele>
        <time>2025-09-23T15:11:52Z</time>
      </trkpt>
      <trkpt lat="48.65802" lon="-4.17894">
        <ele>24.6</ele>
        <time>2025-09-23T15:11:53Z</time>
      </trkpt>
      <trkpt lat="48.6581" lon="-4.17876">
        <ele>24.8</ele>
        <time>2025-09-23T15:11:58Z</time>
      </trkpt>
      <trkpt lat="48.65814" lon="-4.1787">
        <ele>24.8</ele>
        <time>2025-09-23T15:12:00Z</time>
      </trkpt>
      <trkpt lat="48.65818" lon="-4.17862">
        <ele>25</ele>
        <time>2025-09-23T15:12:03Z</time>
      </trkpt>
      <trkpt lat="48.65827" lon="-4.17843">
        <ele>25.2</ele>
        <time>2025-09-23T15:12:10Z</time>
      </trkpt>
      <trkpt lat="48.65829" lon="-4.1784">
        <ele>25.2</ele>
        <time>2025-09-23T15:12:11Z</time>
      </trkpt>
      <trkpt lat="48.65832" lon="-4.17834">
        <ele>25.2</ele>
        <time>2025-09-23T15:12:13Z</time>
      </trkpt>
      <trkpt lat="48.65837" lon="-4.17825">
        <ele>25.2</ele>
        <time>2025-09-23T15:12:16Z</time>
      </trkpt>
      <trkpt lat="48.65849" lon="-4.178">
        <ele>24.8</ele>
        <time>2025-09-23T15:12:24Z</time>
      </trkpt>
      <trkpt lat="48.65859" lon="-4.17777">
        <ele>24.2</ele>
        <time>2025-09-23T15:12:30Z</time>
      </trkpt>
      <trkpt lat="48.65861" lon="-4.17764">
        <ele>24.2</ele>
        <time>2025-09-23T15:12:35Z</time>
      </trkpt>
      <trkpt lat="48.65861" lon="-4.17741">
        <ele>24.6</ele>
        <time>2025-09-23T15:12:41Z</time>
      </trkpt>
      <trkpt lat="48.65852" lon="-4.17718">
        <ele>25.2</ele>
        <time>2025-09-23T15:12:48Z</time>
      </trkpt>
      <trkpt lat="48.65843" lon="-4.17695">
        <ele>25.6</ele>
        <time>2025-09-23T15:12:55Z</time>
      </trkpt>
      <trkpt lat="48.65841" lon="-4.17689">
        <ele>25.8</ele>
        <time>2025-09-23T15:12:57Z</time>
      </trkpt>
      <trkpt lat="48.65837" lon="-4.17668">
        <ele>26.6</ele>
        <time>2025-09-23T15:13:03Z</time>
      </trkpt>
      <trkpt lat="48.65836" lon="-4.1766">
        <ele>26.8</ele>
        <time>2025-09-23T15:13:06Z</time>
      </trkpt>
      <trkpt lat="48.65833" lon="-4.17638">
        <ele>27.8</ele>
        <time>2025-09-23T15:13:14Z</time>
      </trkpt>
      <trkpt lat="48.65833" lon="-4.17632">
        <ele>27.8</ele>
        <time>2025-09-23T15:13:16Z</time>
      </trkpt>
      <trkpt lat="48.65834" lon="-4.17598">
        <ele>28.4</ele>
        <time>2025-09-23T15:13:27Z</time>
      </trkpt>
      <trkpt lat="48.65834" lon="-4.17585">
        <ele>28.8</ele>
        <time>2025-09-23T15:13:31Z</time>
      </trkpt>
      <trkpt lat="48.65834" lon="-4.17576">
        <ele>29</ele>
        <time>2025-09-23T15:13:34Z</time>
      </trkpt>
      <trkpt lat="48.65834" lon="-4.17567">
        <ele>29.2</ele>
        <time>2025-09-23T15:13:37Z</time>
      </trkpt>
      <trkpt lat="48.65834" lon="-4.17551">
        <ele>29.8</ele>
        <time>2025-09-23T15:13:43Z</time>
      </trkpt>
      <trkpt lat="48.65835" lon="-4.17544">
        <ele>30</ele>
        <time>2025-09-23T15:13:46Z</time>
      </trkpt>
      <trkpt lat="48.65835" lon="-4.17528">
        <ele>30.8</ele>
        <time>2025-09-23T15:13:52Z</time>
      </trkpt>
      <trkpt lat="48.65833" lon="-4.17519">
        <ele>31.2</ele>
        <time>2025-09-23T15:13:55Z</time>
      </trkpt>
      <trkpt lat="48.65823" lon="-4.17511">
        <ele>31.6</ele>
        <time>2025-09-23T15:14:01Z</time>
      </trkpt>
      <trkpt lat="48.65819" lon="-4.17507">
        <ele>31.8</ele>
        <time>2025-09-23T15:14:03Z</time>
      </trkpt>
      <trkpt lat="48.65807" lon="-4.17495">
        <ele>32.2</ele>
        <time>2025-09-23T15:14:10Z</time>
      </trkpt>
      <trkpt lat="48.65794" lon="-4.17466">
        <ele>32.2</ele>
        <time>2025-09-23T15:14:19Z</time>
      </trkpt>
      <trkpt lat="48.65753" lon="-4.17439">
        <ele>34</ele>
        <time>2025-09-24T07:53:17Z</time>
      </trkpt>
      <trkpt lat="48.65751" lon="-4.17441">
        <ele>34</ele>
        <time>2025-09-24T07:53:18Z</time>
      </trkpt>
      <trkpt lat="48.6575" lon="-4.17445">
        <ele>33.8</ele>
        <time>2025-09-24T07:53:19Z</time>
      </trkpt>
      <trkpt lat="48.65747" lon="-4.17456">
        <ele>33.6</ele>
        <time>2025-09-24T07:53:22Z</time>
      </trkpt>
      <trkpt lat="48.65741" lon="-4.17474">
        <ele>33.6</ele>
        <time>2025-09-24T07:53:28Z</time>
      </trkpt>
      <trkpt lat="48.65731" lon="-4.17492">
        <ele>33.4</ele>
        <time>2025-09-24T07:53:34Z</time>
      </trkpt>
      <trkpt lat="48.65722" lon="-4.17508">
        <ele>33.2</ele>
        <time>2025-09-24T07:53:39Z</time>
      </trkpt>
      <trkpt lat="48.65705" lon="-4.17544">
        <ele>33</ele>
        <time>2025-09-24T07:53:48Z</time>
      </trkpt>
      <trkpt lat="48.65685" lon="-4.17589">
        <ele>32.6</ele>
        <time>2025-09-24T07:53:58Z</time>
      </trkpt>
      <trkpt lat="48.65675" lon="-4.17628">
        <ele>32</ele>
        <time>2025-09-24T07:54:05Z</time>
      </trkpt>
      <trkpt lat="48.65673" lon="-4.17634">
        <ele>32</ele>
        <time>2025-09-24T07:54:06Z</time>
      </trkpt>
      <trkpt lat="48.65663" lon="-4.17673">
        <ele>31.2</ele>
        <time>2025-09-24T07:54:12Z</time>
      </trkpt>
      <trkpt lat="48.65657" lon="-4.17695">
        <ele>30.8</ele>
        <time>2025-09-24T07:54:15Z</time>
      </trkpt>
      <trkpt lat="48.65648" lon="-4.17728">
        <ele>30</ele>
        <time>2025-09-24T07:54:19Z</time>
      </trkpt>
      <trkpt lat="48.65644" lon="-4.17746">
        <ele>29.6</ele>
        <time>2025-09-24T07:54:21Z</time>
      </trkpt>
      <trkpt lat="48.65639" lon="-4.17766">
        <ele>29</ele>
        <time>2025-09-24T07:54:23Z</time>
      </trkpt>
      <trkpt lat="48.65635" lon="-4.17786">
        <ele>28.4</ele>
        <time>2025-09-24T07:54:25Z</time>
      </trkpt>
      <trkpt lat="48.65632" lon="-4.17796">
        <ele>28</ele>
        <time>2025-09-24T07:54:26Z</time>
      </trkpt>
      <trkpt lat="48.65625" lon="-4.17816">
        <ele>27</ele>
        <time>2025-09-24T07:54:28Z</time>
      </trkpt>
      <trkpt lat="48.65621" lon="-4.17826">
        <ele>26.6</ele>
        <time>2025-09-24T07:54:29Z</time>
      </trkpt>
      <trkpt lat="48.65611" lon="-4.17845">
        <ele>26</ele>
        <time>2025-09-24T07:54:31Z</time>
      </trkpt>
      <trkpt lat="48.65606" lon="-4.17854">
        <ele>25.8</ele>
        <time>2025-09-24T07:54:32Z</time>
      </trkpt>
      <trkpt lat="48.65596" lon="-4.17871">
        <ele>25.6</ele>
        <time>2025-09-24T07:54:34Z</time>
      </trkpt>
      <trkpt lat="48.65568" lon="-4.17922">
        <ele>25</ele>
        <time>2025-09-24T07:54:40Z</time>
      </trkpt>
      <trkpt lat="48.65564" lon="-4.17931">
        <ele>24.8</ele>
        <time>2025-09-24T07:54:41Z</time>
      </trkpt>
      <trkpt lat="48.65545" lon="-4.17973">
        <ele>24.4</ele>
        <time>2025-09-24T07:54:46Z</time>
      </trkpt>
      <trkpt lat="48.65541" lon="-4.17982">
        <ele>24.4</ele>
        <time>2025-09-24T07:54:47Z</time>
      </trkpt>
      <trkpt lat="48.65517" lon="-4.18048">
        <ele>23.8</ele>
        <time>2025-09-24T07:54:55Z</time>
      </trkpt>
      <trkpt lat="48.65515" lon="-4.18066">
        <ele>23.8</ele>
        <time>2025-09-24T07:54:57Z</time>
      </trkpt>
      <trkpt lat="48.65514" lon="-4.18084">
        <ele>23.6</ele>
        <time>2025-09-24T07:54:59Z</time>
      </trkpt>
      <trkpt lat="48.65513" lon="-4.18131">
        <ele>23</ele>
        <time>2025-09-24T07:55:05Z</time>
      </trkpt>
      <trkpt lat="48.65513" lon="-4.18136">
        <ele>22.8</ele>
        <time>2025-09-24T07:55:07Z</time>
      </trkpt>
      <trkpt lat="48.65513" lon="-4.18135">
        <ele>22.6</ele>
        <time>2025-09-24T07:55:08Z</time>
      </trkpt>
      <trkpt lat="48.65514" lon="-4.18135">
        <ele>22.6</ele>
        <time>2025-09-24T07:55:09Z</time>
      </trkpt>
      <trkpt lat="48.65513" lon="-4.18137">
        <ele>22.4</ele>
        <time>2025-09-24T07:57:53Z</time>
      </trkpt>
      <trkpt lat="48.65512" lon="-4.18139">
        <ele>22.4</ele>
        <time>2025-09-24T07:57:54Z</time>
      </trkpt>
      <trkpt lat="48.65511" lon="-4.18145">
        <ele>22.4</ele>
        <time>2025-09-24T07:57:56Z</time>
      </trkpt>
      <trkpt lat="48.65502" lon="-4.18171">
        <ele>21.8</ele>
        <time>2025-09-24T07:58:02Z</time>
      </trkpt>
      <trkpt lat="48.65502" lon="-4.18177">
        <ele>21.6</ele>
        <time>2025-09-24T07:58:03Z</time>
      </trkpt>
      <trkpt lat="48.65494" lon="-4.18209">
        <ele>20.6</ele>
        <time>2025-09-24T07:58:08Z</time>
      </trkpt>
      <trkpt lat="48.65493" lon="-4.18217">
        <ele>20.4</ele>
        <time>2025-09-24T07:58:09Z</time>
      </trkpt>
      <trkpt lat="48.65485" lon="-4.18251">
        <ele>19.2</ele>
        <time>2025-09-24T07:58:13Z</time>
      </trkpt>
      <trkpt lat="48.65482" lon="-4.18261">
        <ele>18.8</ele>
        <time>2025-09-24T07:58:14Z</time>
      </trkpt>
      <trkpt lat="48.65478" lon="-4.18281">
        <ele>18.2</ele>
        <time>2025-09-24T07:58:16Z</time>
      </trkpt>
      <trkpt lat="48.65465" lon="-4.18333">
        <ele>16.8</ele>
        <time>2025-09-24T07:58:21Z</time>
      </trkpt>
      <trkpt lat="48.65463" lon="-4.18344">
        <ele>16.2</ele>
        <time>2025-09-24T07:58:22Z</time>
      </trkpt>
      <trkpt lat="48.65461" lon="-4.18354">
        <ele>15.6</ele>
        <time>2025-09-24T07:58:23Z</time>
      </trkpt>
      <trkpt lat="48.65455" lon="-4.18385">
        <ele>14.2</ele>
        <time>2025-09-24T07:58:26Z</time>
      </trkpt>
      <trkpt lat="48.6545" lon="-4.18415">
        <ele>15</ele>
        <time>2025-09-24T07:58:29Z</time>
      </trkpt>
      <trkpt lat="48.65449" lon="-4.18425">
        <ele>15.4</ele>
        <time>2025-09-24T07:58:30Z</time>
      </trkpt>
      <trkpt lat="48.65449" lon="-4.1845">
        <ele>16</ele>
        <time>2025-09-24T07:58:33Z</time>
      </trkpt>
      <trkpt lat="48.65446" lon="-4.18473">
        <ele>16.4</ele>
        <time>2025-09-24T07:58:36Z</time>
      </trkpt>
      <trkpt lat="48.65444" lon="-4.18487">
        <ele>16.6</ele>
        <time>2025-09-24T07:58:38Z</time>
      </trkpt>
      <trkpt lat="48.65442" lon="-4.18493">
        <ele>16.6</ele>
        <time>2025-09-24T07:58:39Z</time>
      </trkpt>
      <trkpt lat="48.65441" lon="-4.185">
        <ele>16.8</ele>
        <time>2025-09-24T07:58:40Z</time>
      </trkpt>
      <trkpt lat="48.6544" lon="-4.18514">
        <ele>17</ele>
        <time>2025-09-24T07:58:42Z</time>
      </trkpt>
      <trkpt lat="48.6544" lon="-4.1852">
        <ele>17.2</ele>
        <time>2025-09-24T07:58:43Z</time>
      </trkpt>
      <trkpt lat="48.6544" lon="-4.18533">
        <ele>17.4</ele>
        <time>2025-09-24T07:58:45Z</time>
      </trkpt>
      <trkpt lat="48.65436" lon="-4.18566">
        <ele>18.4</ele>
        <time>2025-09-24T07:58:51Z</time>
      </trkpt>
      <trkpt lat="48.65435" lon="-4.18571">
        <ele>18.6</ele>
        <time>2025-09-24T07:58:52Z</time>
      </trkpt>
      <trkpt lat="48.65425" lon="-4.18607">
        <ele>19.6</ele>
        <time>2025-09-24T07:59:00Z</time>
      </trkpt>
      <trkpt lat="48.65424" lon="-4.18612">
        <ele>19.6</ele>
        <time>2025-09-24T07:59:01Z</time>
      </trkpt>
      <trkpt lat="48.65415" lon="-4.18644">
        <ele>20.2</ele>
        <time>2025-09-24T07:59:09Z</time>
      </trkpt>
      <trkpt lat="48.65411" lon="-4.18661">
        <ele>20.6</ele>
        <time>2025-09-24T07:59:13Z</time>
      </trkpt>
      <trkpt lat="48.65408" lon="-4.1868">
        <ele>20.4</ele>
        <time>2025-09-24T07:59:17Z</time>
      </trkpt>
      <trkpt lat="48.65406" lon="-4.1869">
        <ele>20.4</ele>
        <time>2025-09-24T07:59:19Z</time>
      </trkpt>
      <trkpt lat="48.65404" lon="-4.18701">
        <ele>20</ele>
        <time>2025-09-24T07:59:21Z</time>
      </trkpt>
      <trkpt lat="48.65402" lon="-4.18712">
        <ele>19.8</ele>
        <time>2025-09-24T07:59:23Z</time>
      </trkpt>
      <trkpt lat="48.65393" lon="-4.1875">
        <ele>19.6</ele>
        <time>2025-09-24T07:59:29Z</time>
      </trkpt>
      <trkpt lat="48.65383" lon="-4.18806">
        <ele>19.2</ele>
        <time>2025-09-24T07:59:38Z</time>
      </trkpt>
      <trkpt lat="48.65381" lon="-4.18818">
        <ele>19.2</ele>
        <time>2025-09-24T07:59:40Z</time>
      </trkpt>
      <trkpt lat="48.65373" lon="-4.18863">
        <ele>19</ele>
        <time>2025-09-24T07:59:47Z</time>
      </trkpt>
      <trkpt lat="48.6537" lon="-4.18883">
        <ele>18.6</ele>
        <time>2025-09-24T07:59:50Z</time>
      </trkpt>
      <trkpt lat="48.65367" lon="-4.1892">
        <ele>17.8</ele>
        <time>2025-09-24T07:59:55Z</time>
      </trkpt>
      <trkpt lat="48.65366" lon="-4.18928">
        <ele>17.6</ele>
        <time>2025-09-24T07:59:56Z</time>
      </trkpt>
      <trkpt lat="48.65364" lon="-4.18955">
        <ele>16.8</ele>
        <time>2025-09-24T07:59:59Z</time>
      </trkpt>
      <trkpt lat="48.65362" lon="-4.18975">
        <ele>16.4</ele>
        <time>2025-09-24T08:00:01Z</time>
      </trkpt>
      <trkpt lat="48.65361" lon="-4.18985">
        <ele>16</ele>
        <time>2025-09-24T08:00:02Z</time>
      </trkpt>
      <trkpt lat="48.65358" lon="-4.19006">
        <ele>15</ele>
        <time>2025-09-24T08:00:04Z</time>
      </trkpt>
      <trkpt lat="48.65353" lon="-4.19028">
        <ele>14</ele>
        <time>2025-09-24T08:00:06Z</time>
      </trkpt>
      <trkpt lat="48.65349" lon="-4.19052">
        <ele>13</ele>
        <time>2025-09-24T08:00:08Z</time>
      </trkpt>
      <trkpt lat="48.65346" lon="-4.19064">
        <ele>12.6</ele>
        <time>2025-09-24T08:00:09Z</time>
      </trkpt>
      <trkpt lat="48.65339" lon="-4.19102">
        <ele>11.2</ele>
        <time>2025-09-24T08:00:12Z</time>
      </trkpt>
      <trkpt lat="48.6533" lon="-4.19142">
        <ele>9.8</ele>
        <time>2025-09-24T08:00:15Z</time>
      </trkpt>
      <trkpt lat="48.65328" lon="-4.19155">
        <ele>9.4</ele>
        <time>2025-09-24T08:00:16Z</time>
      </trkpt>
      <trkpt lat="48.65321" lon="-4.19177">
        <ele>8.8</ele>
        <time>2025-09-24T08:00:18Z</time>
      </trkpt>
      <trkpt lat="48.65315" lon="-4.19186">
        <ele>8.6</ele>
        <time>2025-09-24T08:00:19Z</time>
      </trkpt>
      <trkpt lat="48.65309" lon="-4.19192">
        <ele>8.4</ele>
        <time>2025-09-24T08:00:20Z</time>
      </trkpt>
      <trkpt lat="48.65297" lon="-4.19202">
        <ele>8.2</ele>
        <time>2025-09-24T08:00:22Z</time>
      </trkpt>
      <trkpt lat="48.65287" lon="-4.19214">
        <ele>8</ele>
        <time>2025-09-24T08:00:24Z</time>
      </trkpt>
      <trkpt lat="48.65272" lon="-4.1923">
        <ele>7.8</ele>
        <time>2025-09-24T08:00:27Z</time>
      </trkpt>
      <trkpt lat="48.65256" lon="-4.19244">
        <ele>7.6</ele>
        <time>2025-09-24T08:00:30Z</time>
      </trkpt>
      <trkpt lat="48.65248" lon="-4.19257">
        <ele>7.8</ele>
        <time>2025-09-24T08:00:32Z</time>
      </trkpt>
      <trkpt lat="48.65231" lon="-4.19291">
        <ele>8</ele>
        <time>2025-09-24T08:00:37Z</time>
      </trkpt>
      <trkpt lat="48.65226" lon="-4.19306">
        <ele>8</ele>
        <time>2025-09-24T08:00:39Z</time>
      </trkpt>
      <trkpt lat="48.65202" lon="-4.19373">
        <ele>7.8</ele>
        <time>2025-09-24T08:00:48Z</time>
      </trkpt>
      <trkpt lat="48.65192" lon="-4.19404">
        <ele>7.6</ele>
        <time>2025-09-24T08:00:52Z</time>
      </trkpt>
      <trkpt lat="48.6519" lon="-4.1941">
        <ele>7.6</ele>
        <time>2025-09-24T08:00:53Z</time>
      </trkpt>
      <trkpt lat="48.65186" lon="-4.19425">
        <ele>7.6</ele>
        <time>2025-09-24T08:00:55Z</time>
      </trkpt>
      <trkpt lat="48.65174" lon="-4.19465">
        <ele>7.4</ele>
        <time>2025-09-24T08:01:01Z</time>
      </trkpt>
      <trkpt lat="48.65171" lon="-4.19467">
        <ele>7.6</ele>
        <time>2025-09-24T08:01:02Z</time>
      </trkpt>
      <trkpt lat="48.65165" lon="-4.19467">
        <ele>7.6</ele>
        <time>2025-09-24T08:01:04Z</time>
      </trkpt>
      <trkpt lat="48.65154" lon="-4.19466">
        <ele>7.6</ele>
        <time>2025-09-24T08:01:07Z</time>
      </trkpt>
      <trkpt lat="48.65146" lon="-4.1947">
        <ele>7.4</ele>
        <time>2025-09-24T08:01:09Z</time>
      </trkpt>
      <trkpt lat="48.65115" lon="-4.19492">
        <ele>7</ele>
        <time>2025-09-24T08:01:15Z</time>
      </trkpt>
      <trkpt lat="48.65066" lon="-4.19526">
        <ele>7</ele>
        <time>2025-09-24T08:01:24Z</time>
      </trkpt>
      <trkpt lat="48.65056" lon="-4.19533">
        <ele>7</ele>
        <time>2025-09-24T08:01:26Z</time>
      </trkpt>
      <trkpt lat="48.65045" lon="-4.1954">
        <ele>7</ele>
        <time>2025-09-24T08:01:28Z</time>
      </trkpt>
      <trkpt lat="48.65014" lon="-4.19561">
        <ele>7</ele>
        <time>2025-09-24T08:01:34Z</time>
      </trkpt>
      <trkpt lat="48.64998" lon="-4.19571">
        <ele>7</ele>
        <time>2025-09-24T08:01:37Z</time>
      </trkpt>
      <trkpt lat="48.64946" lon="-4.19607">
        <ele>7.2</ele>
        <time>2025-09-24T08:01:47Z</time>
      </trkpt>
      <trkpt lat="48.64921" lon="-4.19625">
        <ele>7.2</ele>
        <time>2025-09-24T08:01:52Z</time>
      </trkpt>
      <trkpt lat="48.64891" lon="-4.19645">
        <ele>6.8</ele>
        <time>2025-09-24T08:01:58Z</time>
      </trkpt>
      <trkpt lat="48.64854" lon="-4.19671">
        <ele>7.4</ele>
        <time>2025-09-24T08:02:05Z</time>
      </trkpt>
      <trkpt lat="48.64844" lon="-4.19679">
        <ele>7.4</ele>
        <time>2025-09-24T08:02:07Z</time>
      </trkpt>
      <trkpt lat="48.64804" lon="-4.19705">
        <ele>7.6</ele>
        <time>2025-09-24T08:02:15Z</time>
      </trkpt>
      <trkpt lat="48.64763" lon="-4.19735">
        <ele>8.2</ele>
        <time>2025-09-24T08:02:24Z</time>
      </trkpt>
      <trkpt lat="48.6472" lon="-4.19751">
        <ele>8.8</ele>
        <time>2025-09-24T08:02:33Z</time>
      </trkpt>
      <trkpt lat="48.64696" lon="-4.19765">
        <ele>9</ele>
        <time>2025-09-24T08:02:39Z</time>
      </trkpt>
      <trkpt lat="48.64671" lon="-4.19787">
        <ele>9.8</ele>
        <time>2025-09-24T08:02:47Z</time>
      </trkpt>
      <trkpt lat="48.64667" lon="-4.1979">
        <ele>9.8</ele>
        <time>2025-09-24T08:02:48Z</time>
      </trkpt>
      <trkpt lat="48.64635" lon="-4.19814">
        <ele>10.4</ele>
        <time>2025-09-24T08:02:57Z</time>
      </trkpt>
      <trkpt lat="48.64612" lon="-4.19824">
        <ele>10.8</ele>
        <time>2025-09-24T08:03:03Z</time>
      </trkpt>
      <trkpt lat="48.64597" lon="-4.19827">
        <ele>11.2</ele>
        <time>2025-09-24T08:03:07Z</time>
      </trkpt>
      <trkpt lat="48.64579" lon="-4.1983">
        <ele>11.8</ele>
        <time>2025-09-24T08:03:12Z</time>
      </trkpt>
      <trkpt lat="48.64567" lon="-4.19831">
        <ele>12.4</ele>
        <time>2025-09-24T08:03:16Z</time>
      </trkpt>
      <trkpt lat="48.64554" lon="-4.19831">
        <ele>13</ele>
        <time>2025-09-24T08:03:21Z</time>
      </trkpt>
      <trkpt lat="48.64541" lon="-4.19834">
        <ele>13.6</ele>
        <time>2025-09-24T08:03:26Z</time>
      </trkpt>
      <trkpt lat="48.64534" lon="-4.19838">
        <ele>14</ele>
        <time>2025-09-24T08:03:29Z</time>
      </trkpt>
      <trkpt lat="48.64523" lon="-4.19848">
        <ele>15</ele>
        <time>2025-09-24T08:03:34Z</time>
      </trkpt>
      <trkpt lat="48.64519" lon="-4.19852">
        <ele>15.2</ele>
        <time>2025-09-24T08:03:36Z</time>
      </trkpt>
      <trkpt lat="48.64509" lon="-4.19872">
        <ele>15.8</ele>
        <time>2025-09-24T08:03:42Z</time>
      </trkpt>
      <trkpt lat="48.64502" lon="-4.19906">
        <ele>15.4</ele>
        <time>2025-09-24T08:03:48Z</time>
      </trkpt>
      <trkpt lat="48.64501" lon="-4.19913">
        <ele>15.2</ele>
        <time>2025-09-24T08:03:49Z</time>
      </trkpt>
      <trkpt lat="48.64501" lon="-4.19939">
        <ele>14.2</ele>
        <time>2025-09-24T08:03:52Z</time>
      </trkpt>
      <trkpt lat="48.64501" lon="-4.1995">
        <ele>13.8</ele>
        <time>2025-09-24T08:03:53Z</time>
      </trkpt>
      <trkpt lat="48.64502" lon="-4.19971">
        <ele>13.2</ele>
        <time>2025-09-24T08:03:55Z</time>
      </trkpt>
      <trkpt lat="48.64505" lon="-4.20004">
        <ele>12</ele>
        <time>2025-09-24T08:03:58Z</time>
      </trkpt>
      <trkpt lat="48.64505" lon="-4.20015">
        <ele>11.6</ele>
        <time>2025-09-24T08:03:59Z</time>
      </trkpt>
      <trkpt lat="48.64505" lon="-4.20038">
        <ele>11</ele>
        <time>2025-09-24T08:04:01Z</time>
      </trkpt>
      <trkpt lat="48.64503" lon="-4.20049">
        <ele>10.8</ele>
        <time>2025-09-24T08:04:02Z</time>
      </trkpt>
      <trkpt lat="48.64499" lon="-4.20059">
        <ele>10.6</ele>
        <time>2025-09-24T08:04:03Z</time>
      </trkpt>
      <trkpt lat="48.64489" lon="-4.20076">
        <ele>10.4</ele>
        <time>2025-09-24T08:04:05Z</time>
      </trkpt>
      <trkpt lat="48.64482" lon="-4.20083">
        <ele>10.2</ele>
        <time>2025-09-24T08:04:06Z</time>
      </trkpt>
      <trkpt lat="48.64451" lon="-4.20108">
        <ele>10.2</ele>
        <time>2025-09-24T08:04:11Z</time>
      </trkpt>
      <trkpt lat="48.64422" lon="-4.20133">
        <ele>10.6</ele>
        <time>2025-09-24T08:04:17Z</time>
      </trkpt>
      <trkpt lat="48.64397" lon="-4.20151">
        <ele>11.2</ele>
        <time>2025-09-24T08:04:23Z</time>
      </trkpt>
      <trkpt lat="48.64392" lon="-4.20154">
        <ele>11.4</ele>
        <time>2025-09-24T08:04:24Z</time>
      </trkpt>
      <trkpt lat="48.64388" lon="-4.20158">
        <ele>11.4</ele>
        <time>2025-09-24T08:04:25Z</time>
      </trkpt>
      <trkpt lat="48.64384" lon="-4.20161">
        <ele>11.6</ele>
        <time>2025-09-24T08:04:26Z</time>
      </trkpt>
      <trkpt lat="48.6436" lon="-4.2018">
        <ele>11.6</ele>
        <time>2025-09-24T08:04:32Z</time>
      </trkpt>
      <trkpt lat="48.64348" lon="-4.2019">
        <ele>11.8</ele>
        <time>2025-09-24T08:04:35Z</time>
      </trkpt>
      <trkpt lat="48.64344" lon="-4.20193">
        <ele>11.8</ele>
        <time>2025-09-24T08:04:36Z</time>
      </trkpt>
      <trkpt lat="48.6432" lon="-4.20212">
        <ele>11.8</ele>
        <time>2025-09-24T08:04:42Z</time>
      </trkpt>
      <trkpt lat="48.64305" lon="-4.20222">
        <ele>12</ele>
        <time>2025-09-24T08:04:46Z</time>
      </trkpt>
      <trkpt lat="48.64287" lon="-4.20242">
        <ele>12.4</ele>
        <time>2025-09-24T08:04:52Z</time>
      </trkpt>
      <trkpt lat="48.6428" lon="-4.20258">
        <ele>12.6</ele>
        <time>2025-09-24T08:04:55Z</time>
      </trkpt>
      <trkpt lat="48.64277" lon="-4.20271">
        <ele>12.6</ele>
        <time>2025-09-24T08:04:57Z</time>
      </trkpt>
      <trkpt lat="48.64276" lon="-4.20277">
        <ele>12.8</ele>
        <time>2025-09-24T08:04:58Z</time>
      </trkpt>
      <trkpt lat="48.64272" lon="-4.20315">
        <ele>13.2</ele>
        <time>2025-09-24T08:05:04Z</time>
      </trkpt>
      <trkpt lat="48.64271" lon="-4.20335">
        <ele>13.2</ele>
        <time>2025-09-24T08:05:07Z</time>
      </trkpt>
      <trkpt lat="48.64269" lon="-4.2039">
        <ele>13.4</ele>
        <time>2025-09-24T08:05:16Z</time>
      </trkpt>
      <trkpt lat="48.64269" lon="-4.20403">
        <ele>13.6</ele>
        <time>2025-09-24T08:05:18Z</time>
      </trkpt>
      <trkpt lat="48.64271" lon="-4.20426">
        <ele>13.8</ele>
        <time>2025-09-24T08:05:22Z</time>
      </trkpt>
      <trkpt lat="48.64272" lon="-4.20431">
        <ele>13.8</ele>
        <time>2025-09-24T08:05:23Z</time>
      </trkpt>
      <trkpt lat="48.64275" lon="-4.20443">
        <ele>14</ele>
        <time>2025-09-24T08:05:25Z</time>
      </trkpt>
      <trkpt lat="48.64289" lon="-4.20487">
        <ele>14.2</ele>
        <time>2025-09-24T08:05:33Z</time>
      </trkpt>
      <trkpt lat="48.64302" lon="-4.20526">
        <ele>13.4</ele>
        <time>2025-09-24T08:05:39Z</time>
      </trkpt>
      <trkpt lat="48.64307" lon="-4.2054">
        <ele>13</ele>
        <time>2025-09-24T08:05:41Z</time>
      </trkpt>
      <trkpt lat="48.64309" lon="-4.20547">
        <ele>12.8</ele>
        <time>2025-09-24T08:05:42Z</time>
      </trkpt>
      <trkpt lat="48.64317" lon="-4.20572">
        <ele>11.8</ele>
        <time>2025-09-24T08:05:45Z</time>
      </trkpt>
      <trkpt lat="48.64324" lon="-4.2059">
        <ele>11</ele>
        <time>2025-09-24T08:05:47Z</time>
      </trkpt>
      <trkpt lat="48.64327" lon="-4.20601">
        <ele>10.4</ele>
        <time>2025-09-24T08:05:48Z</time>
      </trkpt>
      <trkpt lat="48.64333" lon="-4.20622">
        <ele>9.4</ele>
        <time>2025-09-24T08:05:50Z</time>
      </trkpt>
      <trkpt lat="48.64334" lon="-4.20634">
        <ele>9</ele>
        <time>2025-09-24T08:05:51Z</time>
      </trkpt>
      <trkpt lat="48.64335" lon="-4.20647">
        <ele>8.4</ele>
        <time>2025-09-24T08:05:52Z</time>
      </trkpt>
      <trkpt lat="48.64335" lon="-4.20659">
        <ele>8</ele>
        <time>2025-09-24T08:05:53Z</time>
      </trkpt>
      <trkpt lat="48.64332" lon="-4.20695">
        <ele>7.4</ele>
        <time>2025-09-24T08:05:56Z</time>
      </trkpt>
      <trkpt lat="48.64331" lon="-4.20706">
        <ele>7.4</ele>
        <time>2025-09-24T08:05:57Z</time>
      </trkpt>
      <trkpt lat="48.6433" lon="-4.20717">
        <ele>7.4</ele>
        <time>2025-09-24T08:05:58Z</time>
      </trkpt>
      <trkpt lat="48.64329" lon="-4.20727">
        <ele>7.4</ele>
        <time>2025-09-24T08:05:59Z</time>
      </trkpt>
      <trkpt lat="48.64329" lon="-4.20737">
        <ele>7.4</ele>
        <time>2025-09-24T08:06:00Z</time>
      </trkpt>
      <trkpt lat="48.64326" lon="-4.20766">
        <ele>7.6</ele>
        <time>2025-09-24T08:06:03Z</time>
      </trkpt>
      <trkpt lat="48.64325" lon="-4.20775">
        <ele>7.8</ele>
        <time>2025-09-24T08:06:04Z</time>
      </trkpt>
      <trkpt lat="48.64322" lon="-4.20807">
        <ele>8.6</ele>
        <time>2025-09-24T08:06:08Z</time>
      </trkpt>
      <trkpt lat="48.64321" lon="-4.20815">
        <ele>8.4</ele>
        <time>2025-09-24T08:06:09Z</time>
      </trkpt>
      <trkpt lat="48.64317" lon="-4.20862">
        <ele>9.4</ele>
        <time>2025-09-24T08:06:16Z</time>
      </trkpt>
      <trkpt lat="48.64316" lon="-4.20868">
        <ele>9.6</ele>
        <time>2025-09-24T08:06:17Z</time>
      </trkpt>
      <trkpt lat="48.64312" lon="-4.20902">
        <ele>10.6</ele>
        <time>2025-09-24T08:06:22Z</time>
      </trkpt>
      <trkpt lat="48.64308" lon="-4.20933">
        <ele>11.2</ele>
        <time>2025-09-24T08:06:27Z</time>
      </trkpt>
      <trkpt lat="48.64306" lon="-4.20951">
        <ele>11.6</ele>
        <time>2025-09-24T08:06:30Z</time>
      </trkpt>
      <trkpt lat="48.64303" lon="-4.20977">
        <ele>12.2</ele>
        <time>2025-09-24T08:06:35Z</time>
      </trkpt>
      <trkpt lat="48.643" lon="-4.20997">
        <ele>12.6</ele>
        <time>2025-09-24T08:06:39Z</time>
      </trkpt>
      <trkpt lat="48.64293" lon="-4.21036">
        <ele>13.4</ele>
        <time>2025-09-24T08:06:47Z</time>
      </trkpt>
      <trkpt lat="48.64291" lon="-4.21049">
        <ele>13.8</ele>
        <time>2025-09-24T08:06:50Z</time>
      </trkpt>
      <trkpt lat="48.64287" lon="-4.21076">
        <ele>14.4</ele>
        <time>2025-09-24T08:06:57Z</time>
      </trkpt>
      <trkpt lat="48.64284" lon="-4.21094">
        <ele>14.8</ele>
        <time>2025-09-24T08:07:02Z</time>
      </trkpt>
      <trkpt lat="48.64284" lon="-4.21097">
        <ele>14.8</ele>
        <time>2025-09-24T08:07:03Z</time>
      </trkpt>
      <trkpt lat="48.64282" lon="-4.21107">
        <ele>15.2</ele>
        <time>2025-09-24T08:07:06Z</time>
      </trkpt>
      <trkpt lat="48.64281" lon="-4.21119">
        <ele>15.6</ele>
        <time>2025-09-24T08:07:09Z</time>
      </trkpt>
      <trkpt lat="48.64279" lon="-4.2113">
        <ele>15.8</ele>
        <time>2025-09-24T08:07:12Z</time>
      </trkpt>
      <trkpt lat="48.64278" lon="-4.21134">
        <ele>15.8</ele>
        <time>2025-09-24T08:07:13Z</time>
      </trkpt>
      <trkpt lat="48.64278" lon="-4.21137">
        <ele>16</ele>
        <time>2025-09-24T08:07:14Z</time>
      </trkpt>
      <trkpt lat="48.64276" lon="-4.21155">
        <ele>16.4</ele>
        <time>2025-09-24T08:07:19Z</time>
      </trkpt>
      <trkpt lat="48.64274" lon="-4.2117">
        <ele>16.8</ele>
        <time>2025-09-24T08:07:23Z</time>
      </trkpt>
      <trkpt lat="48.6427" lon="-4.21194">
        <ele>17.4</ele>
        <time>2025-09-24T08:07:29Z</time>
      </trkpt>
      <trkpt lat="48.64267" lon="-4.21213">
        <ele>18</ele>
        <time>2025-09-24T08:07:34Z</time>
      </trkpt>
      <trkpt lat="48.64265" lon="-4.21228">
        <ele>18.4</ele>
        <time>2025-09-24T08:07:38Z</time>
      </trkpt>
      <trkpt lat="48.64262" lon="-4.21244">
        <ele>18.8</ele>
        <time>2025-09-24T08:07:42Z</time>
      </trkpt>
      <trkpt lat="48.64261" lon="-4.21256">
        <ele>19</ele>
        <time>2025-09-24T08:07:45Z</time>
      </trkpt>
      <trkpt lat="48.64259" lon="-4.21275">
        <ele>19.4</ele>
        <time>2025-09-24T08:07:50Z</time>
      </trkpt>
      <trkpt lat="48.64255" lon="-4.21302">
        <ele>20</ele>
        <time>2025-09-24T08:07:57Z</time>
      </trkpt>
      <trkpt lat="48.64254" lon="-4.21311">
        <ele>20.2</ele>
        <time>2025-09-24T08:07:59Z</time>
      </trkpt>
      <trkpt lat="48.64251" lon="-4.21348">
        <ele>21.2</ele>
        <time>2025-09-24T08:08:08Z</time>
      </trkpt>
      <trkpt lat="48.64251" lon="-4.21356">
        <ele>21.4</ele>
        <time>2025-09-24T08:08:10Z</time>
      </trkpt>
      <trkpt lat="48.6425" lon="-4.2138">
        <ele>22.2</ele>
        <time>2025-09-24T08:08:17Z</time>
      </trkpt>
      <trkpt lat="48.6425" lon="-4.21384">
        <ele>22.2</ele>
        <time>2025-09-24T08:08:18Z</time>
      </trkpt>
      <trkpt lat="48.64248" lon="-4.21416">
        <ele>23.2</ele>
        <time>2025-09-24T08:08:26Z</time>
      </trkpt>
      <trkpt lat="48.64248" lon="-4.2142">
        <ele>23.4</ele>
        <time>2025-09-24T08:08:27Z</time>
      </trkpt>
      <trkpt lat="48.64244" lon="-4.2145">
        <ele>24</ele>
        <time>2025-09-24T08:08:36Z</time>
      </trkpt>
      <trkpt lat="48.64243" lon="-4.21462">
        <ele>24.4</ele>
        <time>2025-09-24T08:08:40Z</time>
      </trkpt>
      <trkpt lat="48.64241" lon="-4.2147">
        <ele>24.6</ele>
        <time>2025-09-24T08:08:43Z</time>
      </trkpt>
      <trkpt lat="48.64237" lon="-4.2149">
        <ele>24.6</ele>
        <time>2025-09-24T08:08:50Z</time>
      </trkpt>
      <trkpt lat="48.64236" lon="-4.21497">
        <ele>24.6</ele>
        <time>2025-09-24T08:08:53Z</time>
      </trkpt>
      <trkpt lat="48.64235" lon="-4.21499">
        <ele>24.6</ele>
        <time>2025-09-24T08:08:56Z</time>
      </trkpt>
      <trkpt lat="48.64235" lon="-4.21501">
        <ele>24.6</ele>
        <time>2025-09-24T08:09:08Z</time>
      </trkpt>
      <trkpt lat="48.64234" lon="-4.21503">
        <ele>24.6</ele>
        <time>2025-09-24T08:09:09Z</time>
      </trkpt>
      <trkpt lat="48.64225" lon="-4.21519">
        <ele>24.8</ele>
        <time>2025-09-24T08:09:14Z</time>
      </trkpt>
      <trkpt lat="48.64209" lon="-4.21551">
        <ele>24.6</ele>
        <time>2025-09-24T08:09:22Z</time>
      </trkpt>
      <trkpt lat="48.64196" lon="-4.21586">
        <ele>24.4</ele>
        <time>2025-09-24T08:09:29Z</time>
      </trkpt>
      <trkpt lat="48.64195" lon="-4.21592">
        <ele>24.4</ele>
        <time>2025-09-24T08:09:30Z</time>
      </trkpt>
      <trkpt lat="48.64182" lon="-4.21643">
        <ele>23</ele>
        <time>2025-09-24T08:09:37Z</time>
      </trkpt>
      <trkpt lat="48.64176" lon="-4.21671">
        <ele>22</ele>
        <time>2025-09-24T08:09:40Z</time>
      </trkpt>
      <trkpt lat="48.6417" lon="-4.21704">
        <ele>20.4</ele>
        <time>2025-09-24T08:09:43Z</time>
      </trkpt>
      <trkpt lat="48.64165" lon="-4.21729">
        <ele>19.4</ele>
        <time>2025-09-24T08:09:45Z</time>
      </trkpt>
      <trkpt lat="48.64161" lon="-4.21755">
        <ele>18</ele>
        <time>2025-09-24T08:09:47Z</time>
      </trkpt>
      <trkpt lat="48.64154" lon="-4.2178">
        <ele>17.2</ele>
        <time>2025-09-24T08:09:49Z</time>
      </trkpt>
      <trkpt lat="48.6415" lon="-4.21792">
        <ele>16.8</ele>
        <time>2025-09-24T08:09:50Z</time>
      </trkpt>
      <trkpt lat="48.64138" lon="-4.21815">
        <ele>16.4</ele>
        <time>2025-09-24T08:09:52Z</time>
      </trkpt>
      <trkpt lat="48.64132" lon="-4.21825">
        <ele>16</ele>
        <time>2025-09-24T08:09:53Z</time>
      </trkpt>
      <trkpt lat="48.64125" lon="-4.21835">
        <ele>15.8</ele>
        <time>2025-09-24T08:09:54Z</time>
      </trkpt>
      <trkpt lat="48.641" lon="-4.21871">
        <ele>15.2</ele>
        <time>2025-09-24T08:09:58Z</time>
      </trkpt>
      <trkpt lat="48.64094" lon="-4.21879">
        <ele>15</ele>
        <time>2025-09-24T08:09:59Z</time>
      </trkpt>
      <trkpt lat="48.6407" lon="-4.21916">
        <ele>16</ele>
        <time>2025-09-24T08:10:04Z</time>
      </trkpt>
      <trkpt lat="48.64059" lon="-4.21932">
        <ele>17</ele>
        <time>2025-09-24T08:10:07Z</time>
      </trkpt>
      <trkpt lat="48.64053" lon="-4.21941">
        <ele>17.6</ele>
        <time>2025-09-24T08:10:09Z</time>
      </trkpt>
      <trkpt lat="48.64048" lon="-4.21949">
        <ele>18.2</ele>
        <time>2025-09-24T08:10:11Z</time>
      </trkpt>
      <trkpt lat="48.64041" lon="-4.21961">
        <ele>19</ele>
        <time>2025-09-24T08:10:15Z</time>
      </trkpt>
      <trkpt lat="48.64039" lon="-4.21964">
        <ele>19.2</ele>
        <time>2025-09-24T08:10:16Z</time>
      </trkpt>
      <trkpt lat="48.64038" lon="-4.21967">
        <ele>19.4</ele>
        <time>2025-09-24T08:10:17Z</time>
      </trkpt>
      <trkpt lat="48.64031" lon="-4.21978">
        <ele>20.2</ele>
        <time>2025-09-24T08:10:21Z</time>
      </trkpt>
      <trkpt lat="48.64029" lon="-4.21983">
        <ele>20.6</ele>
        <time>2025-09-24T08:10:23Z</time>
      </trkpt>
      <trkpt lat="48.64021" lon="-4.21997">
        <ele>21.4</ele>
        <time>2025-09-24T08:10:29Z</time>
      </trkpt>
      <trkpt lat="48.64015" lon="-4.22009">
        <ele>22</ele>
        <time>2025-09-24T08:10:34Z</time>
      </trkpt>
      <trkpt lat="48.64011" lon="-4.22017">
        <ele>22.4</ele>
        <time>2025-09-24T08:10:37Z</time>
      </trkpt>
      <trkpt lat="48.64008" lon="-4.22024">
        <ele>22.8</ele>
        <time>2025-09-24T08:10:40Z</time>
      </trkpt>
      <trkpt lat="48.64006" lon="-4.22029">
        <ele>23.2</ele>
        <time>2025-09-24T08:10:42Z</time>
      </trkpt>
      <trkpt lat="48.64003" lon="-4.22036">
        <ele>23.6</ele>
        <time>2025-09-24T08:10:45Z</time>
      </trkpt>
      <trkpt lat="48.63996" lon="-4.22052">
        <ele>24.4</ele>
        <time>2025-09-24T08:10:52Z</time>
      </trkpt>
      <trkpt lat="48.63996" lon="-4.22054">
        <ele>24.4</ele>
        <time>2025-09-24T08:10:53Z</time>
      </trkpt>
      <trkpt lat="48.63995" lon="-4.22056">
        <ele>24.6</ele>
        <time>2025-09-24T08:10:54Z</time>
      </trkpt>
      <trkpt lat="48.63988" lon="-4.22076">
        <ele>25.6</ele>
        <time>2025-09-24T08:11:02Z</time>
      </trkpt>
      <trkpt lat="48.63988" lon="-4.22079">
        <ele>25.8</ele>
        <time>2025-09-24T08:11:03Z</time>
      </trkpt>
      <trkpt lat="48.63982" lon="-4.221">
        <ele>26.6</ele>
        <time>2025-09-24T08:11:10Z</time>
      </trkpt>
      <trkpt lat="48.63977" lon="-4.22118">
        <ele>27.6</ele>
        <time>2025-09-24T08:11:17Z</time>
      </trkpt>
      <trkpt lat="48.63976" lon="-4.2212">
        <ele>27.8</ele>
        <time>2025-09-24T08:11:18Z</time>
      </trkpt>
      <trkpt lat="48.63974" lon="-4.22127">
        <ele>28.2</ele>
        <time>2025-09-24T08:11:21Z</time>
      </trkpt>
      <trkpt lat="48.63973" lon="-4.2213">
        <ele>28.4</ele>
        <time>2025-09-24T08:11:22Z</time>
      </trkpt>
      <trkpt lat="48.63971" lon="-4.22142">
        <ele>28.8</ele>
        <time>2025-09-24T08:11:27Z</time>
      </trkpt>
      <trkpt lat="48.6397" lon="-4.22147">
        <ele>29</ele>
        <time>2025-09-24T08:11:29Z</time>
      </trkpt>
      <trkpt lat="48.63968" lon="-4.22157">
        <ele>29.6</ele>
        <time>2025-09-24T08:11:34Z</time>
      </trkpt>
      <trkpt lat="48.63967" lon="-4.22161">
        <ele>29.8</ele>
        <time>2025-09-24T08:11:36Z</time>
      </trkpt>
      <trkpt lat="48.63966" lon="-4.22163">
        <ele>30</ele>
        <time>2025-09-24T08:11:37Z</time>
      </trkpt>
      <trkpt lat="48.63965" lon="-4.22176">
        <ele>30.6</ele>
        <time>2025-09-24T08:11:44Z</time>
      </trkpt>
      <trkpt lat="48.63964" lon="-4.22189">
        <ele>31</ele>
        <time>2025-09-24T08:11:50Z</time>
      </trkpt>
      <trkpt lat="48.63963" lon="-4.22196">
        <ele>31.4</ele>
        <time>2025-09-24T08:11:53Z</time>
      </trkpt>
      <trkpt lat="48.63962" lon="-4.22214">
        <ele>32.2</ele>
        <time>2025-09-24T08:12:00Z</time>
      </trkpt>
      <trkpt lat="48.63962" lon="-4.22216">
        <ele>32.2</ele>
        <time>2025-09-24T08:12:01Z</time>
      </trkpt>
      <trkpt lat="48.63961" lon="-4.22236">
        <ele>33.2</ele>
        <time>2025-09-24T08:12:09Z</time>
      </trkpt>
      <trkpt lat="48.6396" lon="-4.22241">
        <ele>33.4</ele>
        <time>2025-09-24T08:12:11Z</time>
      </trkpt>
      <trkpt lat="48.63959" lon="-4.22255">
        <ele>34.4</ele>
        <time>2025-09-24T08:12:17Z</time>
      </trkpt>
      <trkpt lat="48.63958" lon="-4.22264">
        <ele>34.8</ele>
        <time>2025-09-24T08:12:21Z</time>
      </trkpt>
      <trkpt lat="48.63956" lon="-4.22275">
        <ele>35.4</ele>
        <time>2025-09-24T08:12:26Z</time>
      </trkpt>
      <trkpt lat="48.63954" lon="-4.22286">
        <ele>36</ele>
        <time>2025-09-24T08:12:31Z</time>
      </trkpt>
      <trkpt lat="48.63951" lon="-4.22296">
        <ele>36.4</ele>
        <time>2025-09-24T08:12:35Z</time>
      </trkpt>
      <trkpt lat="48.63949" lon="-4.22302">
        <ele>36.8</ele>
        <time>2025-09-24T08:12:38Z</time>
      </trkpt>
      <trkpt lat="48.63942" lon="-4.22314">
        <ele>37.6</ele>
        <time>2025-09-24T08:12:44Z</time>
      </trkpt>
      <trkpt lat="48.63941" lon="-4.22316">
        <ele>37.6</ele>
        <time>2025-09-24T08:12:45Z</time>
      </trkpt>
      <trkpt lat="48.6393" lon="-4.22328">
        <ele>38.4</ele>
        <time>2025-09-24T08:12:53Z</time>
      </trkpt>
      <trkpt lat="48.63929" lon="-4.22329">
        <ele>38.6</ele>
        <time>2025-09-24T08:12:54Z</time>
      </trkpt>
      <trkpt lat="48.63919" lon="-4.22342">
        <ele>39.6</ele>
        <time>2025-09-24T08:13:02Z</time>
      </trkpt>
      <trkpt lat="48.63918" lon="-4.22343">
        <ele>39.6</ele>
        <time>2025-09-24T08:13:03Z</time>
      </trkpt>
      <trkpt lat="48.63905" lon="-4.22357">
        <ele>40.6</ele>
        <time>2025-09-24T08:13:12Z</time>
      </trkpt>
      <trkpt lat="48.63894" lon="-4.22368">
        <ele>41.6</ele>
        <time>2025-09-24T08:13:20Z</time>
      </trkpt>
      <trkpt lat="48.63893" lon="-4.22369">
        <ele>41.6</ele>
        <time>2025-09-24T08:13:21Z</time>
      </trkpt>
      <trkpt lat="48.63884" lon="-4.22382">
        <ele>42.6</ele>
        <time>2025-09-24T08:13:29Z</time>
      </trkpt>
      <trkpt lat="48.63882" lon="-4.22384">
        <ele>42.8</ele>
        <time>2025-09-24T08:13:30Z</time>
      </trkpt>
      <trkpt lat="48.6387" lon="-4.22399">
        <ele>43.8</ele>
        <time>2025-09-24T08:13:39Z</time>
      </trkpt>
      <trkpt lat="48.63869" lon="-4.224">
        <ele>44</ele>
        <time>2025-09-24T08:13:40Z</time>
      </trkpt>
      <trkpt lat="48.63858" lon="-4.22413">
        <ele>44.8</ele>
        <time>2025-09-24T08:13:48Z</time>
      </trkpt>
      <trkpt lat="48.63856" lon="-4.22416">
        <ele>45.2</ele>
        <time>2025-09-24T08:13:50Z</time>
      </trkpt>
      <trkpt lat="48.63846" lon="-4.22428">
        <ele>46</ele>
        <time>2025-09-24T08:13:57Z</time>
      </trkpt>
      <trkpt lat="48.63841" lon="-4.22434">
        <ele>46.2</ele>
        <time>2025-09-24T08:14:01Z</time>
      </trkpt>
      <trkpt lat="48.63832" lon="-4.22447">
        <ele>47</ele>
        <time>2025-09-24T08:14:08Z</time>
      </trkpt>
      <trkpt lat="48.63828" lon="-4.22451">
        <ele>47.2</ele>
        <time>2025-09-24T08:14:11Z</time>
      </trkpt>
      <trkpt lat="48.63815" lon="-4.22466">
        <ele>47.8</ele>
        <time>2025-09-24T08:14:20Z</time>
      </trkpt>
      <trkpt lat="48.63809" lon="-4.22473">
        <ele>48</ele>
        <time>2025-09-24T08:14:24Z</time>
      </trkpt>
      <trkpt lat="48.63803" lon="-4.22481">
        <ele>48</ele>
        <time>2025-09-24T08:14:28Z</time>
      </trkpt>
      <trkpt lat="48.63798" lon="-4.22488">
        <ele>48.2</ele>
        <time>2025-09-24T08:14:31Z</time>
      </trkpt>
      <trkpt lat="48.63784" lon="-4.22503">
        <ele>48.4</ele>
        <time>2025-09-24T08:14:38Z</time>
      </trkpt>
      <trkpt lat="48.63761" lon="-4.22527">
        <ele>48.6</ele>
        <time>2025-09-24T08:14:49Z</time>
      </trkpt>
      <trkpt lat="48.63749" lon="-4.22537">
        <ele>48.8</ele>
        <time>2025-09-24T08:14:54Z</time>
      </trkpt>
      <trkpt lat="48.63742" lon="-4.22543">
        <ele>48.8</ele>
        <time>2025-09-24T08:14:57Z</time>
      </trkpt>
      <trkpt lat="48.63733" lon="-4.22551">
        <ele>49</ele>
        <time>2025-09-24T08:15:01Z</time>
      </trkpt>
      <trkpt lat="48.63718" lon="-4.22562">
        <ele>49.2</ele>
        <time>2025-09-24T08:15:07Z</time>
      </trkpt>
      <trkpt lat="48.637" lon="-4.22586">
        <ele>49.2</ele>
        <time>2025-09-24T08:15:15Z</time>
      </trkpt>
      <trkpt lat="48.63685" lon="-4.22621">
        <ele>49.8</ele>
        <time>2025-09-24T08:15:24Z</time>
      </trkpt>
      <trkpt lat="48.63679" lon="-4.22637">
        <ele>50</ele>
        <time>2025-09-24T08:15:28Z</time>
      </trkpt>
      <trkpt lat="48.63669" lon="-4.22668">
        <ele>50.6</ele>
        <time>2025-09-24T08:15:36Z</time>
      </trkpt>
      <trkpt lat="48.63658" lon="-4.22694">
        <ele>51.2</ele>
        <time>2025-09-24T08:15:43Z</time>
      </trkpt>
      <trkpt lat="48.63652" lon="-4.22704">
        <ele>51.2</ele>
        <time>2025-09-24T08:15:46Z</time>
      </trkpt>
      <trkpt lat="48.63639" lon="-4.22722">
        <ele>51.4</ele>
        <time>2025-09-24T08:15:52Z</time>
      </trkpt>
      <trkpt lat="48.63629" lon="-4.22732">
        <ele>51.6</ele>
        <time>2025-09-24T08:15:56Z</time>
      </trkpt>
      <trkpt lat="48.63606" lon="-4.22752">
        <ele>52.2</ele>
        <time>2025-09-24T08:16:05Z</time>
      </trkpt>
      <trkpt lat="48.63602" lon="-4.22757">
        <ele>52.2</ele>
        <time>2025-09-24T08:16:07Z</time>
      </trkpt>
      <trkpt lat="48.63581" lon="-4.22782">
        <ele>52.8</ele>
        <time>2025-09-24T08:16:16Z</time>
      </trkpt>
      <trkpt lat="48.63568" lon="-4.228">
        <ele>53.2</ele>
        <time>2025-09-24T08:16:22Z</time>
      </trkpt>
      <trkpt lat="48.63556" lon="-4.22816">
        <ele>53.4</ele>
        <time>2025-09-24T08:16:27Z</time>
      </trkpt>
      <trkpt lat="48.63529" lon="-4.22853">
        <ele>53.2</ele>
        <time>2025-09-24T08:16:38Z</time>
      </trkpt>
      <trkpt lat="48.63522" lon="-4.22863">
        <ele>53.2</ele>
        <time>2025-09-24T08:16:41Z</time>
      </trkpt>
      <trkpt lat="48.63503" lon="-4.22895">
        <ele>52.8</ele>
        <time>2025-09-24T08:16:49Z</time>
      </trkpt>
      <trkpt lat="48.63495" lon="-4.22918">
        <ele>52.2</ele>
        <time>2025-09-24T08:16:53Z</time>
      </trkpt>
      <trkpt lat="48.63493" lon="-4.22925">
        <ele>52</ele>
        <time>2025-09-24T08:16:54Z</time>
      </trkpt>
      <trkpt lat="48.63491" lon="-4.22931">
        <ele>51.8</ele>
        <time>2025-09-24T08:16:55Z</time>
      </trkpt>
      <trkpt lat="48.63489" lon="-4.22936">
        <ele>51.8</ele>
        <time>2025-09-24T08:16:56Z</time>
      </trkpt>
      <trkpt lat="48.63481" lon="-4.22961">
        <ele>51</ele>
        <time>2025-09-24T08:17:00Z</time>
      </trkpt>
      <trkpt lat="48.63476" lon="-4.22977">
        <ele>50.4</ele>
        <time>2025-09-24T08:17:02Z</time>
      </trkpt>
      <trkpt lat="48.63471" lon="-4.22993">
        <ele>50</ele>
        <time>2025-09-24T08:17:04Z</time>
      </trkpt>
      <trkpt lat="48.63457" lon="-4.23038">
        <ele>48.6</ele>
        <time>2025-09-24T08:17:09Z</time>
      </trkpt>
      <trkpt lat="48.63454" lon="-4.23048">
        <ele>48.4</ele>
        <time>2025-09-24T08:17:10Z</time>
      </trkpt>
      <trkpt lat="48.63444" lon="-4.23079">
        <ele>47.4</ele>
        <time>2025-09-24T08:17:13Z</time>
      </trkpt>
      <trkpt lat="48.63434" lon="-4.23112">
        <ele>46.2</ele>
        <time>2025-09-24T08:17:16Z</time>
      </trkpt>
      <trkpt lat="48.6343" lon="-4.23125">
        <ele>45.8</ele>
        <time>2025-09-24T08:17:17Z</time>
      </trkpt>
      <trkpt lat="48.63415" lon="-4.23174">
        <ele>44.8</ele>
        <time>2025-09-24T08:17:21Z</time>
      </trkpt>
      <trkpt lat="48.63406" lon="-4.23198">
        <ele>43.8</ele>
        <time>2025-09-24T08:17:23Z</time>
      </trkpt>
      <trkpt lat="48.634" lon="-4.23209">
        <ele>43.4</ele>
        <time>2025-09-24T08:17:24Z</time>
      </trkpt>
      <trkpt lat="48.63386" lon="-4.23227">
        <ele>42.4</ele>
        <time>2025-09-24T08:17:26Z</time>
      </trkpt>
      <trkpt lat="48.63371" lon="-4.23244">
        <ele>41.2</ele>
        <time>2025-09-24T08:17:28Z</time>
      </trkpt>
      <trkpt lat="48.63355" lon="-4.23263">
        <ele>40</ele>
        <time>2025-09-24T08:17:30Z</time>
      </trkpt>
      <trkpt lat="48.63334" lon="-4.23294">
        <ele>38.6</ele>
        <time>2025-09-24T08:17:33Z</time>
      </trkpt>
      <trkpt lat="48.63319" lon="-4.23318">
        <ele>36.8</ele>
        <time>2025-09-24T08:17:35Z</time>
      </trkpt>
      <trkpt lat="48.63303" lon="-4.23341">
        <ele>35.6</ele>
        <time>2025-09-24T08:17:37Z</time>
      </trkpt>
      <trkpt lat="48.6328" lon="-4.23376">
        <ele>34.2</ele>
        <time>2025-09-24T08:17:40Z</time>
      </trkpt>
      <trkpt lat="48.63272" lon="-4.23387">
        <ele>33.8</ele>
        <time>2025-09-24T08:17:41Z</time>
      </trkpt>
      <trkpt lat="48.63233" lon="-4.23432">
        <ele>33.4</ele>
        <time>2025-09-24T08:17:46Z</time>
      </trkpt>
      <trkpt lat="48.63189" lon="-4.23472">
        <ele>33.8</ele>
        <time>2025-09-24T08:17:52Z</time>
      </trkpt>
      <trkpt lat="48.63155" lon="-4.235">
        <ele>33.8</ele>
        <time>2025-09-24T08:17:57Z</time>
      </trkpt>
      <trkpt lat="48.63136" lon="-4.23515">
        <ele>34</ele>
        <time>2025-09-24T08:18:00Z</time>
      </trkpt>
      <trkpt lat="48.63088" lon="-4.23554">
        <ele>33.8</ele>
        <time>2025-09-24T08:18:08Z</time>
      </trkpt>
      <trkpt lat="48.63082" lon="-4.23558">
        <ele>34</ele>
        <time>2025-09-24T08:18:09Z</time>
      </trkpt>
      <trkpt lat="48.63059" lon="-4.23576">
        <ele>33.8</ele>
        <time>2025-09-24T08:18:13Z</time>
      </trkpt>
      <trkpt lat="48.63042" lon="-4.2359">
        <ele>33.6</ele>
        <time>2025-09-24T08:18:16Z</time>
      </trkpt>
      <trkpt lat="48.63036" lon="-4.23593">
        <ele>33.6</ele>
        <time>2025-09-24T08:18:17Z</time>
      </trkpt>
      <trkpt lat="48.63031" lon="-4.23597">
        <ele>33.4</ele>
        <time>2025-09-24T08:18:18Z</time>
      </trkpt>
      <trkpt lat="48.6302" lon="-4.23606">
        <ele>33.2</ele>
        <time>2025-09-24T08:18:20Z</time>
      </trkpt>
      <trkpt lat="48.62998" lon="-4.23628">
        <ele>32.2</ele>
        <time>2025-09-24T08:18:24Z</time>
      </trkpt>
      <trkpt lat="48.62992" lon="-4.23634">
        <ele>31.8</ele>
        <time>2025-09-24T08:18:25Z</time>
      </trkpt>
      <trkpt lat="48.62972" lon="-4.23653">
        <ele>30.8</ele>
        <time>2025-09-24T08:18:28Z</time>
      </trkpt>
      <trkpt lat="48.62958" lon="-4.23668">
        <ele>29.6</ele>
        <time>2025-09-24T08:18:30Z</time>
      </trkpt>
      <trkpt lat="48.62951" lon="-4.23676">
        <ele>29</ele>
        <time>2025-09-24T08:18:31Z</time>
      </trkpt>
      <trkpt lat="48.62944" lon="-4.23685">
        <ele>28.4</ele>
        <time>2025-09-24T08:18:32Z</time>
      </trkpt>
      <trkpt lat="48.6293" lon="-4.23706">
        <ele>27.2</ele>
        <time>2025-09-24T08:18:34Z</time>
      </trkpt>
      <trkpt lat="48.62924" lon="-4.23717">
        <ele>26.8</ele>
        <time>2025-09-24T08:18:35Z</time>
      </trkpt>
      <trkpt lat="48.62919" lon="-4.23729">
        <ele>26.8</ele>
        <time>2025-09-24T08:18:36Z</time>
      </trkpt>
      <trkpt lat="48.62913" lon="-4.23753">
        <ele>27</ele>
        <time>2025-09-24T08:18:38Z</time>
      </trkpt>
      <trkpt lat="48.62911" lon="-4.23783">
        <ele>28.4</ele>
        <time>2025-09-24T08:18:41Z</time>
      </trkpt>
      <trkpt lat="48.62911" lon="-4.23791">
        <ele>28.8</ele>
        <time>2025-09-24T08:18:42Z</time>
      </trkpt>
      <trkpt lat="48.62911" lon="-4.23798">
        <ele>29.4</ele>
        <time>2025-09-24T08:18:43Z</time>
      </trkpt>
      <trkpt lat="48.62913" lon="-4.23804">
        <ele>29.8</ele>
        <time>2025-09-24T08:18:44Z</time>
      </trkpt>
      <trkpt lat="48.62914" lon="-4.23815">
        <ele>30.4</ele>
        <time>2025-09-24T08:18:46Z</time>
      </trkpt>
      <trkpt lat="48.62915" lon="-4.23821">
        <ele>30.6</ele>
        <time>2025-09-24T08:18:47Z</time>
      </trkpt>
      <trkpt lat="48.62917" lon="-4.23841">
        <ele>31.6</ele>
        <time>2025-09-24T08:18:51Z</time>
      </trkpt>
      <trkpt lat="48.62919" lon="-4.23854">
        <ele>32.2</ele>
        <time>2025-09-24T08:18:54Z</time>
      </trkpt>
      <trkpt lat="48.62921" lon="-4.23866">
        <ele>32.8</ele>
        <time>2025-09-24T08:18:57Z</time>
      </trkpt>
      <trkpt lat="48.62923" lon="-4.23878">
        <ele>33.2</ele>
        <time>2025-09-24T08:19:00Z</time>
      </trkpt>
      <trkpt lat="48.62923" lon="-4.23886">
        <ele>33.8</ele>
        <time>2025-09-24T08:19:02Z</time>
      </trkpt>
      <trkpt lat="48.62924" lon="-4.23902">
        <ele>34.4</ele>
        <time>2025-09-24T08:19:06Z</time>
      </trkpt>
      <trkpt lat="48.62924" lon="-4.23911">
        <ele>34.6</ele>
        <time>2025-09-24T08:19:08Z</time>
      </trkpt>
      <trkpt lat="48.62925" lon="-4.23915">
        <ele>34.8</ele>
        <time>2025-09-24T08:19:09Z</time>
      </trkpt>
      <trkpt lat="48.62925" lon="-4.23939">
        <ele>35.8</ele>
        <time>2025-09-24T08:19:15Z</time>
      </trkpt>
      <trkpt lat="48.62925" lon="-4.23943">
        <ele>36</ele>
        <time>2025-09-24T08:19:16Z</time>
      </trkpt>
      <trkpt lat="48.62925" lon="-4.2395">
        <ele>36.2</ele>
        <time>2025-09-24T08:19:18Z</time>
      </trkpt>
      <trkpt lat="48.62925" lon="-4.23974">
        <ele>36.8</ele>
        <time>2025-09-24T08:19:24Z</time>
      </trkpt>
      <trkpt lat="48.62926" lon="-4.23978">
        <ele>37</ele>
        <time>2025-09-24T08:19:25Z</time>
      </trkpt>
      <trkpt lat="48.62927" lon="-4.24017">
        <ele>38</ele>
        <time>2025-09-24T08:19:36Z</time>
      </trkpt>
      <trkpt lat="48.62927" lon="-4.24025">
        <ele>38</ele>
        <time>2025-09-24T08:19:38Z</time>
      </trkpt>
      <trkpt lat="48.62928" lon="-4.24057">
        <ele>38.8</ele>
        <time>2025-09-24T08:19:46Z</time>
      </trkpt>
      <trkpt lat="48.6293" lon="-4.2408">
        <ele>39</ele>
        <time>2025-09-24T08:19:52Z</time>
      </trkpt>
      <trkpt lat="48.62931" lon="-4.24101">
        <ele>39.2</ele>
        <time>2025-09-24T08:19:57Z</time>
      </trkpt>
      <trkpt lat="48.62932" lon="-4.24133">
        <ele>39.6</ele>
        <time>2025-09-24T08:20:05Z</time>
      </trkpt>
      <trkpt lat="48.62933" lon="-4.24141">
        <ele>39.6</ele>
        <time>2025-09-24T08:20:07Z</time>
      </trkpt>
      <trkpt lat="48.62935" lon="-4.24172">
        <ele>39.8</ele>
        <time>2025-09-24T08:20:14Z</time>
      </trkpt>
      <trkpt lat="48.62936" lon="-4.24181">
        <ele>40</ele>
        <time>2025-09-24T08:20:16Z</time>
      </trkpt>
      <trkpt lat="48.62938" lon="-4.24194">
        <ele>40</ele>
        <time>2025-09-24T08:20:19Z</time>
      </trkpt>
      <trkpt lat="48.62942" lon="-4.24227">
        <ele>39.8</ele>
        <time>2025-09-24T08:20:27Z</time>
      </trkpt>
      <trkpt lat="48.62948" lon="-4.24268">
        <ele>39.4</ele>
        <time>2025-09-24T08:20:36Z</time>
      </trkpt>
      <trkpt lat="48.62952" lon="-4.24303">
        <ele>39.2</ele>
        <time>2025-09-24T08:20:43Z</time>
      </trkpt>
      <trkpt lat="48.62954" lon="-4.2432">
        <ele>39.2</ele>
        <time>2025-09-24T08:20:46Z</time>
      </trkpt>
      <trkpt lat="48.62961" lon="-4.24375">
        <ele>38.8</ele>
        <time>2025-09-24T08:20:55Z</time>
      </trkpt>
      <trkpt lat="48.62962" lon="-4.24381">
        <ele>38.8</ele>
        <time>2025-09-24T08:20:56Z</time>
      </trkpt>
      <trkpt lat="48.62968" lon="-4.24432">
        <ele>38.6</ele>
        <time>2025-09-24T08:21:05Z</time>
      </trkpt>
      <trkpt lat="48.62968" lon="-4.24479">
        <ele>38.4</ele>
        <time>2025-09-24T08:21:13Z</time>
      </trkpt>
      <trkpt lat="48.62966" lon="-4.2449">
        <ele>38.2</ele>
        <time>2025-09-24T08:21:15Z</time>
      </trkpt>
      <trkpt lat="48.62962" lon="-4.24502">
        <ele>38</ele>
        <time>2025-09-24T08:21:17Z</time>
      </trkpt>
      <trkpt lat="48.62959" lon="-4.24508">
        <ele>37.8</ele>
        <time>2025-09-24T08:21:18Z</time>
      </trkpt>
      <trkpt lat="48.62949" lon="-4.24524">
        <ele>37.4</ele>
        <time>2025-09-24T08:21:21Z</time>
      </trkpt>
      <trkpt lat="48.62936" lon="-4.2454">
        <ele>36.8</ele>
        <time>2025-09-24T08:21:24Z</time>
      </trkpt>
      <trkpt lat="48.62916" lon="-4.24564">
        <ele>35.8</ele>
        <time>2025-09-24T08:21:28Z</time>
      </trkpt>
      <trkpt lat="48.62906" lon="-4.24578">
        <ele>35</ele>
        <time>2025-09-24T08:21:30Z</time>
      </trkpt>
      <trkpt lat="48.629" lon="-4.24585">
        <ele>34.4</ele>
        <time>2025-09-24T08:21:31Z</time>
      </trkpt>
      <trkpt lat="48.62881" lon="-4.24609">
        <ele>33</ele>
        <time>2025-09-24T08:21:34Z</time>
      </trkpt>
      <trkpt lat="48.62868" lon="-4.24625">
        <ele>32.4</ele>
        <time>2025-09-24T08:21:36Z</time>
      </trkpt>
      <trkpt lat="48.62861" lon="-4.24634">
        <ele>31.8</ele>
        <time>2025-09-24T08:21:37Z</time>
      </trkpt>
      <trkpt lat="48.62841" lon="-4.24659">
        <ele>30.8</ele>
        <time>2025-09-24T08:21:40Z</time>
      </trkpt>
      <trkpt lat="48.62834" lon="-4.24667">
        <ele>30.8</ele>
        <time>2025-09-24T08:21:41Z</time>
      </trkpt>
      <trkpt lat="48.62808" lon="-4.24701">
        <ele>30.2</ele>
        <time>2025-09-24T08:21:45Z</time>
      </trkpt>
      <trkpt lat="48.62774" lon="-4.24743">
        <ele>30.4</ele>
        <time>2025-09-24T08:21:51Z</time>
      </trkpt>
      <trkpt lat="48.62761" lon="-4.2476">
        <ele>31.2</ele>
        <time>2025-09-24T08:21:54Z</time>
      </trkpt>
      <trkpt lat="48.62747" lon="-4.24776">
        <ele>32</ele>
        <time>2025-09-24T08:21:57Z</time>
      </trkpt>
      <trkpt lat="48.62731" lon="-4.24792">
        <ele>33</ele>
        <time>2025-09-24T08:22:01Z</time>
      </trkpt>
      <trkpt lat="48.62722" lon="-4.24797">
        <ele>33.6</ele>
        <time>2025-09-24T08:22:03Z</time>
      </trkpt>
      <trkpt lat="48.6271" lon="-4.24803">
        <ele>34.2</ele>
        <time>2025-09-24T08:22:06Z</time>
      </trkpt>
      <trkpt lat="48.62706" lon="-4.24804">
        <ele>34.2</ele>
        <time>2025-09-24T08:22:07Z</time>
      </trkpt>
      <trkpt lat="48.62702" lon="-4.24805">
        <ele>34.4</ele>
        <time>2025-09-24T08:22:08Z</time>
      </trkpt>
      <trkpt lat="48.62698" lon="-4.24806">
        <ele>34.6</ele>
        <time>2025-09-24T08:22:09Z</time>
      </trkpt>
      <trkpt lat="48.62688" lon="-4.2481">
        <ele>35</ele>
        <time>2025-09-24T08:22:12Z</time>
      </trkpt>
      <trkpt lat="48.62682" lon="-4.2481">
        <ele>35.2</ele>
        <time>2025-09-24T08:22:14Z</time>
      </trkpt>
      <trkpt lat="48.62673" lon="-4.24813">
        <ele>35.4</ele>
        <time>2025-09-24T08:22:17Z</time>
      </trkpt>
      <trkpt lat="48.62657" lon="-4.24816">
        <ele>35.8</ele>
        <time>2025-09-24T08:22:22Z</time>
      </trkpt>
      <trkpt lat="48.62638" lon="-4.24819">
        <ele>36.2</ele>
        <time>2025-09-24T08:22:28Z</time>
      </trkpt>
      <trkpt lat="48.62635" lon="-4.2482">
        <ele>36.2</ele>
        <time>2025-09-24T08:22:29Z</time>
      </trkpt>
      <trkpt lat="48.62605" lon="-4.24827">
        <ele>36.8</ele>
        <time>2025-09-24T08:22:39Z</time>
      </trkpt>
      <trkpt lat="48.62587" lon="-4.2483">
        <ele>37.2</ele>
        <time>2025-09-24T08:22:45Z</time>
      </trkpt>
      <trkpt lat="48.62577" lon="-4.24832">
        <ele>37.6</ele>
        <time>2025-09-24T08:22:49Z</time>
      </trkpt>
      <trkpt lat="48.62549" lon="-4.2484">
        <ele>38.2</ele>
        <time>2025-09-24T08:22:59Z</time>
      </trkpt>
      <trkpt lat="48.62543" lon="-4.24842">
        <ele>38.4</ele>
        <time>2025-09-24T08:23:01Z</time>
      </trkpt>
      <trkpt lat="48.62532" lon="-4.24846">
        <ele>38.6</ele>
        <time>2025-09-24T08:23:05Z</time>
      </trkpt>
      <trkpt lat="48.62524" lon="-4.24851">
        <ele>39</ele>
        <time>2025-09-24T08:23:08Z</time>
      </trkpt>
      <trkpt lat="48.62515" lon="-4.2486">
        <ele>39.4</ele>
        <time>2025-09-24T08:23:12Z</time>
      </trkpt>
      <trkpt lat="48.62507" lon="-4.24871">
        <ele>39.8</ele>
        <time>2025-09-24T08:23:16Z</time>
      </trkpt>
      <trkpt lat="48.62501" lon="-4.24883">
        <ele>40.2</ele>
        <time>2025-09-24T08:23:20Z</time>
      </trkpt>
      <trkpt lat="48.62497" lon="-4.24889">
        <ele>40.6</ele>
        <time>2025-09-24T08:23:22Z</time>
      </trkpt>
      <trkpt lat="48.6249" lon="-4.249">
        <ele>40.8</ele>
        <time>2025-09-24T08:23:26Z</time>
      </trkpt>
      <trkpt lat="48.62482" lon="-4.24915">
        <ele>41.2</ele>
        <time>2025-09-24T08:23:31Z</time>
      </trkpt>
      <trkpt lat="48.62476" lon="-4.24927">
        <ele>41.6</ele>
        <time>2025-09-24T08:23:35Z</time>
      </trkpt>
      <trkpt lat="48.62471" lon="-4.24937">
        <ele>41.8</ele>
        <time>2025-09-24T08:23:38Z</time>
      </trkpt>
      <trkpt lat="48.62455" lon="-4.24966">
        <ele>42.4</ele>
        <time>2025-09-24T08:23:47Z</time>
      </trkpt>
      <trkpt lat="48.62443" lon="-4.24988">
        <ele>42.6</ele>
        <time>2025-09-24T08:23:53Z</time>
      </trkpt>
      <trkpt lat="48.6243" lon="-4.25013">
        <ele>42.8</ele>
        <time>2025-09-24T08:24:00Z</time>
      </trkpt>
      <trkpt lat="48.62417" lon="-4.25035">
        <ele>43</ele>
        <time>2025-09-24T08:24:06Z</time>
      </trkpt>
      <trkpt lat="48.62408" lon="-4.2505">
        <ele>43</ele>
        <time>2025-09-24T08:24:10Z</time>
      </trkpt>
      <trkpt lat="48.62393" lon="-4.25064">
        <ele>43.2</ele>
        <time>2025-09-24T08:24:16Z</time>
      </trkpt>
      <trkpt lat="48.62384" lon="-4.2507">
        <ele>43.2</ele>
        <time>2025-09-24T08:24:19Z</time>
      </trkpt>
      <trkpt lat="48.62369" lon="-4.25075">
        <ele>43.6</ele>
        <time>2025-09-24T08:24:24Z</time>
      </trkpt>
      <trkpt lat="48.62364" lon="-4.25076">
        <ele>43.8</ele>
        <time>2025-09-24T08:24:26Z</time>
      </trkpt>
      <trkpt lat="48.62338" lon="-4.25085">
        <ele>44.4</ele>
        <time>2025-09-24T08:24:35Z</time>
      </trkpt>
      <trkpt lat="48.62331" lon="-4.25087">
        <ele>44.6</ele>
        <time>2025-09-24T08:24:38Z</time>
      </trkpt>
      <trkpt lat="48.62319" lon="-4.25093">
        <ele>44.8</ele>
        <time>2025-09-24T08:24:43Z</time>
      </trkpt>
      <trkpt lat="48.62297" lon="-4.25107">
        <ele>45.2</ele>
        <time>2025-09-24T08:24:51Z</time>
      </trkpt>
      <trkpt lat="48.62288" lon="-4.25114">
        <ele>45.2</ele>
        <time>2025-09-24T08:24:54Z</time>
      </trkpt>
      <trkpt lat="48.62272" lon="-4.25131">
        <ele>45.2</ele>
        <time>2025-09-24T08:25:00Z</time>
      </trkpt>
      <trkpt lat="48.62248" lon="-4.25165">
        <ele>44.6</ele>
        <time>2025-09-24T08:25:09Z</time>
      </trkpt>
      <trkpt lat="48.62242" lon="-4.25175">
        <ele>44.4</ele>
        <time>2025-09-24T08:25:11Z</time>
      </trkpt>
      <trkpt lat="48.62228" lon="-4.25198">
        <ele>43.6</ele>
        <time>2025-09-24T08:25:15Z</time>
      </trkpt>
      <trkpt lat="48.62211" lon="-4.25222">
        <ele>42.4</ele>
        <time>2025-09-24T08:25:19Z</time>
      </trkpt>
      <trkpt lat="48.62201" lon="-4.25235">
        <ele>41.8</ele>
        <time>2025-09-24T08:25:21Z</time>
      </trkpt>
      <trkpt lat="48.62191" lon="-4.25249">
        <ele>41</ele>
        <time>2025-09-24T08:25:23Z</time>
      </trkpt>
      <trkpt lat="48.62181" lon="-4.25265">
        <ele>40.2</ele>
        <time>2025-09-24T08:25:25Z</time>
      </trkpt>
      <trkpt lat="48.62176" lon="-4.25274">
        <ele>39.8</ele>
        <time>2025-09-24T08:25:26Z</time>
      </trkpt>
      <trkpt lat="48.62173" lon="-4.25284">
        <ele>39.2</ele>
        <time>2025-09-24T08:25:27Z</time>
      </trkpt>
      <trkpt lat="48.62167" lon="-4.25305">
        <ele>38.2</ele>
        <time>2025-09-24T08:25:29Z</time>
      </trkpt>
      <trkpt lat="48.62162" lon="-4.25329">
        <ele>37.2</ele>
        <time>2025-09-24T08:25:31Z</time>
      </trkpt>
      <trkpt lat="48.62157" lon="-4.25354">
        <ele>35.8</ele>
        <time>2025-09-24T08:25:33Z</time>
      </trkpt>
      <trkpt lat="48.6215" lon="-4.2539">
        <ele>34.2</ele>
        <time>2025-09-24T08:25:36Z</time>
      </trkpt>
      <trkpt lat="48.62148" lon="-4.25402">
        <ele>33.8</ele>
        <time>2025-09-24T08:25:37Z</time>
      </trkpt>
      <trkpt lat="48.62144" lon="-4.25426">
        <ele>32.8</ele>
        <time>2025-09-24T08:25:39Z</time>
      </trkpt>
      <trkpt lat="48.62135" lon="-4.2546">
        <ele>31.2</ele>
        <time>2025-09-24T08:25:42Z</time>
      </trkpt>
      <trkpt lat="48.62131" lon="-4.2547">
        <ele>30.8</ele>
        <time>2025-09-24T08:25:43Z</time>
      </trkpt>
      <trkpt lat="48.62121" lon="-4.25484">
        <ele>30</ele>
        <time>2025-09-24T08:25:45Z</time>
      </trkpt>
      <trkpt lat="48.62117" lon="-4.2549">
        <ele>29.8</ele>
        <time>2025-09-24T08:25:46Z</time>
      </trkpt>
      <trkpt lat="48.62114" lon="-4.25497">
        <ele>29.6</ele>
        <time>2025-09-24T08:25:47Z</time>
      </trkpt>
      <trkpt lat="48.62113" lon="-4.25512">
        <ele>28.8</ele>
        <time>2025-09-24T08:25:49Z</time>
      </trkpt>
      <trkpt lat="48.62115" lon="-4.25528">
        <ele>28.4</ele>
        <time>2025-09-24T08:25:51Z</time>
      </trkpt>
      <trkpt lat="48.62114" lon="-4.25543">
        <ele>28</ele>
        <time>2025-09-24T08:25:53Z</time>
      </trkpt>
      <trkpt lat="48.62114" lon="-4.25551">
        <ele>27.8</ele>
        <time>2025-09-24T08:25:54Z</time>
      </trkpt>
      <trkpt lat="48.62112" lon="-4.25586">
        <ele>27</ele>
        <time>2025-09-24T08:25:58Z</time>
      </trkpt>
      <trkpt lat="48.62111" lon="-4.25595">
        <ele>26.6</ele>
        <time>2025-09-24T08:25:59Z</time>
      </trkpt>
      <trkpt lat="48.6211" lon="-4.25614">
        <ele>26.2</ele>
        <time>2025-09-24T08:26:01Z</time>
      </trkpt>
      <trkpt lat="48.62108" lon="-4.25634">
        <ele>25.6</ele>
        <time>2025-09-24T08:26:03Z</time>
      </trkpt>
      <trkpt lat="48.62108" lon="-4.25645">
        <ele>25.6</ele>
        <time>2025-09-24T08:26:04Z</time>
      </trkpt>
      <trkpt lat="48.62107" lon="-4.25666">
        <ele>25.2</ele>
        <time>2025-09-24T08:26:06Z</time>
      </trkpt>
      <trkpt lat="48.62107" lon="-4.25697">
        <ele>25.2</ele>
        <time>2025-09-24T08:26:09Z</time>
      </trkpt>
      <trkpt lat="48.62109" lon="-4.25774">
        <ele>24.6</ele>
        <time>2025-09-24T08:26:17Z</time>
      </trkpt>
      <trkpt lat="48.62108" lon="-4.258">
        <ele>24.6</ele>
        <time>2025-09-24T08:26:20Z</time>
      </trkpt>
      <trkpt lat="48.62106" lon="-4.25816">
        <ele>24.6</ele>
        <time>2025-09-24T08:26:22Z</time>
      </trkpt>
      <trkpt lat="48.62104" lon="-4.25831">
        <ele>24.4</ele>
        <time>2025-09-24T08:26:24Z</time>
      </trkpt>
      <trkpt lat="48.62102" lon="-4.25869">
        <ele>24.6</ele>
        <time>2025-09-24T08:26:30Z</time>
      </trkpt>
      <trkpt lat="48.62098" lon="-4.25919">
        <ele>24.2</ele>
        <time>2025-09-24T08:26:38Z</time>
      </trkpt>
      <trkpt lat="48.62097" lon="-4.2595">
        <ele>23.6</ele>
        <time>2025-09-24T08:26:42Z</time>
      </trkpt>
      <trkpt lat="48.62097" lon="-4.25979">
        <ele>23.6</ele>
        <time>2025-09-24T08:26:46Z</time>
      </trkpt>
      <trkpt lat="48.62097" lon="-4.25986">
        <ele>23.6</ele>
        <time>2025-09-24T08:26:47Z</time>
      </trkpt>
      <trkpt lat="48.62101" lon="-4.26033">
        <ele>24.4</ele>
        <time>2025-09-24T08:26:55Z</time>
      </trkpt>
      <trkpt lat="48.62103" lon="-4.2605">
        <ele>24.6</ele>
        <time>2025-09-24T08:26:58Z</time>
      </trkpt>
      <trkpt lat="48.62104" lon="-4.26079">
        <ele>25</ele>
        <time>2025-09-24T08:27:03Z</time>
      </trkpt>
      <trkpt lat="48.62104" lon="-4.2609">
        <ele>25.2</ele>
        <time>2025-09-24T08:27:05Z</time>
      </trkpt>
      <trkpt lat="48.62103" lon="-4.26096">
        <ele>25.2</ele>
        <time>2025-09-24T08:27:06Z</time>
      </trkpt>
      <trkpt lat="48.62102" lon="-4.26101">
        <ele>25.4</ele>
        <time>2025-09-24T08:27:07Z</time>
      </trkpt>
      <trkpt lat="48.62101" lon="-4.26107">
        <ele>25.4</ele>
        <time>2025-09-24T08:27:08Z</time>
      </trkpt>
      <trkpt lat="48.62097" lon="-4.26128">
        <ele>25.6</ele>
        <time>2025-09-24T08:27:12Z</time>
      </trkpt>
      <trkpt lat="48.62095" lon="-4.26138">
        <ele>25.6</ele>
        <time>2025-09-24T08:27:14Z</time>
      </trkpt>
      <trkpt lat="48.62088" lon="-4.26172">
        <ele>25.6</ele>
        <time>2025-09-24T08:27:20Z</time>
      </trkpt>
      <trkpt lat="48.62084" lon="-4.26194">
        <ele>26</ele>
        <time>2025-09-24T08:27:24Z</time>
      </trkpt>
      <trkpt lat="48.62079" lon="-4.26241">
        <ele>26.4</ele>
        <time>2025-09-24T08:27:33Z</time>
      </trkpt>
      <trkpt lat="48.62075" lon="-4.26273">
        <ele>26.4</ele>
        <time>2025-09-24T08:27:39Z</time>
      </trkpt>
      <trkpt lat="48.62073" lon="-4.26291">
        <ele>26.4</ele>
        <time>2025-09-24T08:27:42Z</time>
      </trkpt>
      <trkpt lat="48.62068" lon="-4.26338">
        <ele>25.8</ele>
        <time>2025-09-24T08:27:50Z</time>
      </trkpt>
      <trkpt lat="48.62063" lon="-4.26361">
        <ele>25.8</ele>
        <time>2025-09-24T08:27:54Z</time>
      </trkpt>
      <trkpt lat="48.6206" lon="-4.2638">
        <ele>25.6</ele>
        <time>2025-09-24T08:27:57Z</time>
      </trkpt>
      <trkpt lat="48.62054" lon="-4.26424">
        <ele>24.6</ele>
        <time>2025-09-24T08:28:04Z</time>
      </trkpt>
      <trkpt lat="48.62054" lon="-4.26433">
        <ele>24.4</ele>
        <time>2025-09-24T08:28:05Z</time>
      </trkpt>
      <trkpt lat="48.62057" lon="-4.26462">
        <ele>23.2</ele>
        <time>2025-09-24T08:28:08Z</time>
      </trkpt>
      <trkpt lat="48.62059" lon="-4.26472">
        <ele>22.6</ele>
        <time>2025-09-24T08:28:09Z</time>
      </trkpt>
      <trkpt lat="48.62061" lon="-4.26483">
        <ele>22</ele>
        <time>2025-09-24T08:28:10Z</time>
      </trkpt>
      <trkpt lat="48.62067" lon="-4.26505">
        <ele>20.8</ele>
        <time>2025-09-24T08:28:12Z</time>
      </trkpt>
      <trkpt lat="48.62072" lon="-4.26529">
        <ele>19.8</ele>
        <time>2025-09-24T08:28:14Z</time>
      </trkpt>
      <trkpt lat="48.62076" lon="-4.26542">
        <ele>18.6</ele>
        <time>2025-09-24T08:28:15Z</time>
      </trkpt>
      <trkpt lat="48.62082" lon="-4.26568">
        <ele>17</ele>
        <time>2025-09-24T08:28:17Z</time>
      </trkpt>
      <trkpt lat="48.62087" lon="-4.2661">
        <ele>15.8</ele>
        <time>2025-09-24T08:28:20Z</time>
      </trkpt>
      <trkpt lat="48.62093" lon="-4.26655">
        <ele>14.6</ele>
        <time>2025-09-24T08:28:23Z</time>
      </trkpt>
      <trkpt lat="48.62096" lon="-4.26685">
        <ele>13.4</ele>
        <time>2025-09-24T08:28:25Z</time>
      </trkpt>
      <trkpt lat="48.621" lon="-4.26716">
        <ele>12.2</ele>
        <time>2025-09-24T08:28:27Z</time>
      </trkpt>
      <trkpt lat="48.62101" lon="-4.26731">
        <ele>11.6</ele>
        <time>2025-09-24T08:28:28Z</time>
      </trkpt>
      <trkpt lat="48.62105" lon="-4.26761">
        <ele>10.6</ele>
        <time>2025-09-24T08:28:30Z</time>
      </trkpt>
      <trkpt lat="48.62109" lon="-4.26806">
        <ele>9.4</ele>
        <time>2025-09-24T08:28:33Z</time>
      </trkpt>
      <trkpt lat="48.62109" lon="-4.26837">
        <ele>8.6</ele>
        <time>2025-09-24T08:28:35Z</time>
      </trkpt>
      <trkpt lat="48.62107" lon="-4.26852">
        <ele>8.2</ele>
        <time>2025-09-24T08:28:36Z</time>
      </trkpt>
      <trkpt lat="48.62099" lon="-4.26898">
        <ele>7</ele>
        <time>2025-09-24T08:28:39Z</time>
      </trkpt>
      <trkpt lat="48.62097" lon="-4.26913">
        <ele>6.4</ele>
        <time>2025-09-24T08:28:40Z</time>
      </trkpt>
      <trkpt lat="48.62094" lon="-4.26928">
        <ele>6.2</ele>
        <time>2025-09-24T08:28:41Z</time>
      </trkpt>
      <trkpt lat="48.62091" lon="-4.26943">
        <ele>6</ele>
        <time>2025-09-24T08:28:42Z</time>
      </trkpt>
      <trkpt lat="48.62084" lon="-4.26984">
        <ele>6.6</ele>
        <time>2025-09-24T08:28:45Z</time>
      </trkpt>
      <trkpt lat="48.62072" lon="-4.27041">
        <ele>7.4</ele>
        <time>2025-09-24T08:28:50Z</time>
      </trkpt>
      <trkpt lat="48.6206" lon="-4.27106">
        <ele>7.6</ele>
        <time>2025-09-24T08:28:57Z</time>
      </trkpt>
      <trkpt lat="48.62057" lon="-4.27121">
        <ele>8</ele>
        <time>2025-09-24T08:28:59Z</time>
      </trkpt>
      <trkpt lat="48.62055" lon="-4.27135">
        <ele>8.2</ele>
        <time>2025-09-24T08:29:01Z</time>
      </trkpt>
      <trkpt lat="48.62052" lon="-4.27148">
        <ele>8.4</ele>
        <time>2025-09-24T08:29:03Z</time>
      </trkpt>
      <trkpt lat="48.62049" lon="-4.27165">
        <ele>8.8</ele>
        <time>2025-09-24T08:29:06Z</time>
      </trkpt>
      <trkpt lat="48.62046" lon="-4.27181">
        <ele>9</ele>
        <time>2025-09-24T08:29:09Z</time>
      </trkpt>
      <trkpt lat="48.62044" lon="-4.27192">
        <ele>9.4</ele>
        <time>2025-09-24T08:29:11Z</time>
      </trkpt>
      <trkpt lat="48.62041" lon="-4.27225">
        <ele>10</ele>
        <time>2025-09-24T08:29:17Z</time>
      </trkpt>
      <trkpt lat="48.62041" lon="-4.27235">
        <ele>10.2</ele>
        <time>2025-09-24T08:29:19Z</time>
      </trkpt>
      <trkpt lat="48.62044" lon="-4.27267">
        <ele>11</ele>
        <time>2025-09-24T08:29:25Z</time>
      </trkpt>
      <trkpt lat="48.62046" lon="-4.27278">
        <ele>11.2</ele>
        <time>2025-09-24T08:29:27Z</time>
      </trkpt>
      <trkpt lat="48.62053" lon="-4.27297">
        <ele>11.6</ele>
        <time>2025-09-24T08:29:31Z</time>
      </trkpt>
      <trkpt lat="48.62059" lon="-4.2731">
        <ele>12.2</ele>
        <time>2025-09-24T08:29:34Z</time>
      </trkpt>
      <trkpt lat="48.62065" lon="-4.27322">
        <ele>12.4</ele>
        <time>2025-09-24T08:29:37Z</time>
      </trkpt>
      <trkpt lat="48.62081" lon="-4.2735">
        <ele>13</ele>
        <time>2025-09-24T08:29:44Z</time>
      </trkpt>
      <trkpt lat="48.62086" lon="-4.27357">
        <ele>13.2</ele>
        <time>2025-09-24T08:29:46Z</time>
      </trkpt>
      <trkpt lat="48.6209" lon="-4.27365">
        <ele>13.4</ele>
        <time>2025-09-24T08:29:48Z</time>
      </trkpt>
      <trkpt lat="48.6211" lon="-4.27399">
        <ele>13.4</ele>
        <time>2025-09-24T08:29:56Z</time>
      </trkpt>
      <trkpt lat="48.62138" lon="-4.27446">
        <ele>14</ele>
        <time>2025-09-24T08:30:07Z</time>
      </trkpt>
      <trkpt lat="48.62164" lon="-4.27482">
        <ele>13.8</ele>
        <time>2025-09-24T08:30:16Z</time>
      </trkpt>
      <trkpt lat="48.6219" lon="-4.27511">
        <ele>14.2</ele>
        <time>2025-09-24T08:30:24Z</time>
      </trkpt>
      <trkpt lat="48.62193" lon="-4.27514">
        <ele>14.2</ele>
        <time>2025-09-24T08:30:25Z</time>
      </trkpt>
      <trkpt lat="48.62205" lon="-4.27528">
        <ele>14.4</ele>
        <time>2025-09-24T08:30:29Z</time>
      </trkpt>
      <trkpt lat="48.62217" lon="-4.27542">
        <ele>14.4</ele>
        <time>2025-09-24T08:30:33Z</time>
      </trkpt>
      <trkpt lat="48.62246" lon="-4.27572">
        <ele>14.4</ele>
        <time>2025-09-24T08:30:42Z</time>
      </trkpt>
      <trkpt lat="48.6225" lon="-4.27575">
        <ele>14.4</ele>
        <time>2025-09-24T08:30:43Z</time>
      </trkpt>
      <trkpt lat="48.62285" lon="-4.27617">
        <ele>13.6</ele>
        <time>2025-09-24T08:30:53Z</time>
      </trkpt>
      <trkpt lat="48.62301" lon="-4.27641">
        <ele>13.2</ele>
        <time>2025-09-24T08:30:58Z</time>
      </trkpt>
      <trkpt lat="48.62311" lon="-4.27663">
        <ele>13.2</ele>
        <time>2025-09-24T08:31:02Z</time>
      </trkpt>
      <trkpt lat="48.62322" lon="-4.27701">
        <ele>13</ele>
        <time>2025-09-24T08:31:08Z</time>
      </trkpt>
      <trkpt lat="48.62324" lon="-4.27708">
        <ele>12.8</ele>
        <time>2025-09-24T08:31:09Z</time>
      </trkpt>
      <trkpt lat="48.62325" lon="-4.27716">
        <ele>12.8</ele>
        <time>2025-09-24T08:31:10Z</time>
      </trkpt>
      <trkpt lat="48.62327" lon="-4.2773">
        <ele>12.8</ele>
        <time>2025-09-24T08:31:12Z</time>
      </trkpt>
      <trkpt lat="48.62328" lon="-4.27752">
        <ele>12.4</ele>
        <time>2025-09-24T08:31:15Z</time>
      </trkpt>
      <trkpt lat="48.62328" lon="-4.2776">
        <ele>12</ele>
        <time>2025-09-24T08:31:16Z</time>
      </trkpt>
      <trkpt lat="48.62326" lon="-4.2779">
        <ele>11</ele>
        <time>2025-09-24T08:31:20Z</time>
      </trkpt>
      <trkpt lat="48.62325" lon="-4.27806">
        <ele>10.8</ele>
        <time>2025-09-24T08:31:22Z</time>
      </trkpt>
      <trkpt lat="48.62322" lon="-4.27862">
        <ele>10.4</ele>
        <time>2025-09-24T08:31:29Z</time>
      </trkpt>
      <trkpt lat="48.6232" lon="-4.27893">
        <ele>10.4</ele>
        <time>2025-09-24T08:31:33Z</time>
      </trkpt>
      <trkpt lat="48.6232" lon="-4.279">
        <ele>10.4</ele>
        <time>2025-09-24T08:31:34Z</time>
      </trkpt>
      <trkpt lat="48.6232" lon="-4.27914">
        <ele>10.6</ele>
        <time>2025-09-24T08:31:36Z</time>
      </trkpt>
      <trkpt lat="48.62322" lon="-4.27983">
        <ele>10.6</ele>
        <time>2025-09-24T08:31:45Z</time>
      </trkpt>
      <trkpt lat="48.62324" lon="-4.28053">
        <ele>10.2</ele>
        <time>2025-09-24T08:31:54Z</time>
      </trkpt>
      <trkpt lat="48.62327" lon="-4.28097">
        <ele>10.4</ele>
        <time>2025-09-24T08:32:00Z</time>
      </trkpt>
      <trkpt lat="48.62328" lon="-4.28128">
        <ele>10.2</ele>
        <time>2025-09-24T08:32:04Z</time>
      </trkpt>
      <trkpt lat="48.62329" lon="-4.28144">
        <ele>10</ele>
        <time>2025-09-24T08:32:06Z</time>
      </trkpt>
      <trkpt lat="48.6233" lon="-4.28203">
        <ele>10</ele>
        <time>2025-09-24T08:32:14Z</time>
      </trkpt>
      <trkpt lat="48.62329" lon="-4.28261">
        <ele>10</ele>
        <time>2025-09-24T08:32:22Z</time>
      </trkpt>
      <trkpt lat="48.62327" lon="-4.28307">
        <ele>10.6</ele>
        <time>2025-09-24T08:32:29Z</time>
      </trkpt>
      <trkpt lat="48.62328" lon="-4.28319">
        <ele>10.8</ele>
        <time>2025-09-24T08:32:31Z</time>
      </trkpt>
      <trkpt lat="48.62328" lon="-4.28336">
        <ele>11.2</ele>
        <time>2025-09-24T08:32:34Z</time>
      </trkpt>
      <trkpt lat="48.62331" lon="-4.28369">
        <ele>11.8</ele>
        <time>2025-09-24T08:32:40Z</time>
      </trkpt>
      <trkpt lat="48.62332" lon="-4.28375">
        <ele>12</ele>
        <time>2025-09-24T08:32:41Z</time>
      </trkpt>
      <trkpt lat="48.62333" lon="-4.28381">
        <ele>12.2</ele>
        <time>2025-09-24T08:32:42Z</time>
      </trkpt>
      <trkpt lat="48.62339" lon="-4.28422">
        <ele>12.4</ele>
        <time>2025-09-24T08:32:49Z</time>
      </trkpt>
      <trkpt lat="48.62351" lon="-4.28478">
        <ele>12.2</ele>
        <time>2025-09-24T08:32:58Z</time>
      </trkpt>
      <trkpt lat="48.62358" lon="-4.28503">
        <ele>12.2</ele>
        <time>2025-09-24T08:33:02Z</time>
      </trkpt>
      <trkpt lat="48.62363" lon="-4.28512">
        <ele>12.2</ele>
        <time>2025-09-24T08:33:04Z</time>
      </trkpt>
      <trkpt lat="48.6237" lon="-4.2852">
        <ele>12</ele>
        <time>2025-09-24T08:33:06Z</time>
      </trkpt>
      <trkpt lat="48.62384" lon="-4.28534">
        <ele>12</ele>
        <time>2025-09-24T08:33:10Z</time>
      </trkpt>
      <trkpt lat="48.62387" lon="-4.28538">
        <ele>12</ele>
        <time>2025-09-24T08:33:11Z</time>
      </trkpt>
      <trkpt lat="48.624" lon="-4.28562">
        <ele>12</ele>
        <time>2025-09-24T08:33:16Z</time>
      </trkpt>
      <trkpt lat="48.62414" lon="-4.28602">
        <ele>12.2</ele>
        <time>2025-09-24T08:33:24Z</time>
      </trkpt>
      <trkpt lat="48.62415" lon="-4.28607">
        <ele>12.2</ele>
        <time>2025-09-24T08:33:25Z</time>
      </trkpt>
      <trkpt lat="48.62416" lon="-4.28612">
        <ele>12.2</ele>
        <time>2025-09-24T08:33:26Z</time>
      </trkpt>
      <trkpt lat="48.6242" lon="-4.28629">
        <ele>12.4</ele>
        <time>2025-09-24T08:33:29Z</time>
      </trkpt>
      <trkpt lat="48.62427" lon="-4.28663">
        <ele>12.2</ele>
        <time>2025-09-24T08:33:35Z</time>
      </trkpt>
      <trkpt lat="48.62435" lon="-4.28677">
        <ele>12.4</ele>
        <time>2025-09-24T08:33:38Z</time>
      </trkpt>
      <trkpt lat="48.62444" lon="-4.2869">
        <ele>12.6</ele>
        <time>2025-09-24T08:33:41Z</time>
      </trkpt>
      <trkpt lat="48.62465" lon="-4.28722">
        <ele>12.8</ele>
        <time>2025-09-24T08:33:49Z</time>
      </trkpt>
      <trkpt lat="48.6247" lon="-4.28749">
        <ele>13.2</ele>
        <time>2025-09-24T08:33:54Z</time>
      </trkpt>
      <trkpt lat="48.62471" lon="-4.2876">
        <ele>13.4</ele>
        <time>2025-09-24T08:33:56Z</time>
      </trkpt>
      <trkpt lat="48.62474" lon="-4.28805">
        <ele>14.4</ele>
        <time>2025-09-24T08:34:05Z</time>
      </trkpt>
      <trkpt lat="48.62474" lon="-4.28838">
        <ele>15.4</ele>
        <time>2025-09-24T08:34:12Z</time>
      </trkpt>
      <trkpt lat="48.62474" lon="-4.28847">
        <ele>15.6</ele>
        <time>2025-09-24T08:34:14Z</time>
      </trkpt>
      <trkpt lat="48.62478" lon="-4.28875">
        <ele>16.4</ele>
        <time>2025-09-24T08:34:20Z</time>
      </trkpt>
      <trkpt lat="48.62485" lon="-4.28901">
        <ele>17.4</ele>
        <time>2025-09-24T08:34:27Z</time>
      </trkpt>
      <trkpt lat="48.62487" lon="-4.28907">
        <ele>17.8</ele>
        <time>2025-09-24T08:34:29Z</time>
      </trkpt>
      <trkpt lat="48.62489" lon="-4.28913">
        <ele>18</ele>
        <time>2025-09-24T08:34:31Z</time>
      </trkpt>
      <trkpt lat="48.62491" lon="-4.28919">
        <ele>18.4</ele>
        <time>2025-09-24T08:34:33Z</time>
      </trkpt>
      <trkpt lat="48.62496" lon="-4.28938">
        <ele>19</ele>
        <time>2025-09-24T08:34:39Z</time>
      </trkpt>
      <trkpt lat="48.62499" lon="-4.28948">
        <ele>19.6</ele>
        <time>2025-09-24T08:34:43Z</time>
      </trkpt>
      <trkpt lat="48.62502" lon="-4.28961">
        <ele>20.2</ele>
        <time>2025-09-24T08:34:48Z</time>
      </trkpt>
      <trkpt lat="48.62505" lon="-4.28969">
        <ele>20.6</ele>
        <time>2025-09-24T08:34:51Z</time>
      </trkpt>
      <trkpt lat="48.62509" lon="-4.28982">
        <ele>21.4</ele>
        <time>2025-09-24T08:34:56Z</time>
      </trkpt>
      <trkpt lat="48.6251" lon="-4.28985">
        <ele>21.6</ele>
        <time>2025-09-24T08:34:57Z</time>
      </trkpt>
      <trkpt lat="48.6251" lon="-4.28987">
        <ele>21.6</ele>
        <time>2025-09-24T08:34:58Z</time>
      </trkpt>
      <trkpt lat="48.62515" lon="-4.29002">
        <ele>22.4</ele>
        <time>2025-09-24T08:35:04Z</time>
      </trkpt>
      <trkpt lat="48.62517" lon="-4.2901">
        <ele>22.8</ele>
        <time>2025-09-24T08:35:07Z</time>
      </trkpt>
      <trkpt lat="48.62522" lon="-4.29023">
        <ele>23.6</ele>
        <time>2025-09-24T08:35:13Z</time>
      </trkpt>
      <trkpt lat="48.62524" lon="-4.29027">
        <ele>23.8</ele>
        <time>2025-09-24T08:35:15Z</time>
      </trkpt>
      <trkpt lat="48.62531" lon="-4.29038">
        <ele>24.6</ele>
        <time>2025-09-24T08:35:22Z</time>
      </trkpt>
      <trkpt lat="48.62535" lon="-4.29044">
        <ele>25</ele>
        <time>2025-09-24T08:35:25Z</time>
      </trkpt>
      <trkpt lat="48.62542" lon="-4.29055">
        <ele>25.6</ele>
        <time>2025-09-24T08:35:31Z</time>
      </trkpt>
      <trkpt lat="48.62543" lon="-4.29056">
        <ele>25.8</ele>
        <time>2025-09-24T08:35:32Z</time>
      </trkpt>
      <trkpt lat="48.62544" lon="-4.29059">
        <ele>26</ele>
        <time>2025-09-24T08:35:33Z</time>
      </trkpt>
      <trkpt lat="48.62546" lon="-4.29062">
        <ele>26.2</ele>
        <time>2025-09-24T08:35:35Z</time>
      </trkpt>
      <trkpt lat="48.62549" lon="-4.29074">
        <ele>26.6</ele>
        <time>2025-09-24T08:35:40Z</time>
      </trkpt>
      <trkpt lat="48.6255" lon="-4.2908">
        <ele>27</ele>
        <time>2025-09-24T08:35:43Z</time>
      </trkpt>
      <trkpt lat="48.62551" lon="-4.29082">
        <ele>27</ele>
        <time>2025-09-24T08:35:44Z</time>
      </trkpt>
      <trkpt lat="48.62553" lon="-4.29091">
        <ele>27.6</ele>
        <time>2025-09-24T08:35:48Z</time>
      </trkpt>
      <trkpt lat="48.62555" lon="-4.29102">
        <ele>28.2</ele>
        <time>2025-09-24T08:35:53Z</time>
      </trkpt>
      <trkpt lat="48.62556" lon="-4.29111">
        <ele>28.6</ele>
        <time>2025-09-24T08:35:57Z</time>
      </trkpt>
      <trkpt lat="48.62558" lon="-4.29122">
        <ele>29.2</ele>
        <time>2025-09-24T08:36:02Z</time>
      </trkpt>
      <trkpt lat="48.62559" lon="-4.29138">
        <ele>30</ele>
        <time>2025-09-24T08:36:08Z</time>
      </trkpt>
      <trkpt lat="48.62561" lon="-4.29158">
        <ele>30.2</ele>
        <time>2025-09-24T08:36:15Z</time>
      </trkpt>
      <trkpt lat="48.62562" lon="-4.29165">
        <ele>30.2</ele>
        <time>2025-09-24T08:36:17Z</time>
      </trkpt>
      <trkpt lat="48.62562" lon="-4.29177">
        <ele>30.2</ele>
        <time>2025-09-24T08:36:20Z</time>
      </trkpt>
      <trkpt lat="48.62563" lon="-4.29198">
        <ele>29.8</ele>
        <time>2025-09-24T08:36:25Z</time>
      </trkpt>
      <trkpt lat="48.62563" lon="-4.29207">
        <ele>29.8</ele>
        <time>2025-09-24T08:36:27Z</time>
      </trkpt>
      <trkpt lat="48.62563" lon="-4.29216">
        <ele>29.8</ele>
        <time>2025-09-24T08:36:29Z</time>
      </trkpt>
      <trkpt lat="48.62563" lon="-4.2923">
        <ele>29.6</ele>
        <time>2025-09-24T08:36:32Z</time>
      </trkpt>
      <trkpt lat="48.62562" lon="-4.29255">
        <ele>29.4</ele>
        <time>2025-09-24T08:36:37Z</time>
      </trkpt>
      <trkpt lat="48.62563" lon="-4.29288">
        <ele>29.4</ele>
        <time>2025-09-24T08:36:44Z</time>
      </trkpt>
      <trkpt lat="48.62564" lon="-4.29342">
        <ele>30</ele>
        <time>2025-09-24T08:36:55Z</time>
      </trkpt>
      <trkpt lat="48.62563" lon="-4.2936">
        <ele>30.4</ele>
        <time>2025-09-24T08:36:59Z</time>
      </trkpt>
      <trkpt lat="48.62562" lon="-4.2938">
        <ele>30.6</ele>
        <time>2025-09-24T08:37:04Z</time>
      </trkpt>
      <trkpt lat="48.6256" lon="-4.29418">
        <ele>31</ele>
        <time>2025-09-24T08:37:12Z</time>
      </trkpt>
      <trkpt lat="48.62563" lon="-4.29445">
        <ele>30.6</ele>
        <time>2025-09-24T08:37:17Z</time>
      </trkpt>
      <trkpt lat="48.62565" lon="-4.29459">
        <ele>30.4</ele>
        <time>2025-09-24T08:37:19Z</time>
      </trkpt>
      <trkpt lat="48.62572" lon="-4.29511">
        <ele>29.2</ele>
        <time>2025-09-24T08:37:26Z</time>
      </trkpt>
      <trkpt lat="48.62573" lon="-4.29519">
        <ele>29</ele>
        <time>2025-09-24T08:37:27Z</time>
      </trkpt>
      <trkpt lat="48.62577" lon="-4.29553">
        <ele>28.2</ele>
        <time>2025-09-24T08:37:31Z</time>
      </trkpt>
      <trkpt lat="48.62578" lon="-4.29561">
        <ele>28</ele>
        <time>2025-09-24T08:37:32Z</time>
      </trkpt>
      <trkpt lat="48.62582" lon="-4.2959">
        <ele>27.4</ele>
        <time>2025-09-24T08:37:35Z</time>
      </trkpt>
      <trkpt lat="48.62584" lon="-4.2961">
        <ele>27</ele>
        <time>2025-09-24T08:37:37Z</time>
      </trkpt>
      <trkpt lat="48.62589" lon="-4.29652">
        <ele>25.6</ele>
        <time>2025-09-24T08:37:41Z</time>
      </trkpt>
      <trkpt lat="48.62591" lon="-4.29674">
        <ele>24.8</ele>
        <time>2025-09-24T08:37:43Z</time>
      </trkpt>
      <trkpt lat="48.62593" lon="-4.29685">
        <ele>24.2</ele>
        <time>2025-09-24T08:37:44Z</time>
      </trkpt>
      <trkpt lat="48.62596" lon="-4.29706">
        <ele>23.2</ele>
        <time>2025-09-24T08:37:46Z</time>
      </trkpt>
      <trkpt lat="48.62599" lon="-4.29727">
        <ele>22</ele>
        <time>2025-09-24T08:37:48Z</time>
      </trkpt>
      <trkpt lat="48.62603" lon="-4.29747">
        <ele>20.8</ele>
        <time>2025-09-24T08:37:50Z</time>
      </trkpt>
      <trkpt lat="48.62605" lon="-4.29757">
        <ele>20.2</ele>
        <time>2025-09-24T08:37:51Z</time>
      </trkpt>
      <trkpt lat="48.62607" lon="-4.29766">
        <ele>19.6</ele>
        <time>2025-09-24T08:37:52Z</time>
      </trkpt>
      <trkpt lat="48.62613" lon="-4.2979">
        <ele>18.6</ele>
        <time>2025-09-24T08:37:55Z</time>
      </trkpt>
      <trkpt lat="48.62616" lon="-4.29804">
        <ele>18</ele>
        <time>2025-09-24T08:37:57Z</time>
      </trkpt>
      <trkpt lat="48.6262" lon="-4.29821">
        <ele>17.4</ele>
        <time>2025-09-24T08:38:00Z</time>
      </trkpt>
      <trkpt lat="48.62622" lon="-4.29829">
        <ele>17</ele>
        <time>2025-09-24T08:38:02Z</time>
      </trkpt>
      <trkpt lat="48.62625" lon="-4.29837">
        <ele>16.4</ele>
        <time>2025-09-24T08:38:07Z</time>
      </trkpt>
      <trkpt lat="48.62625" lon="-4.29837">
        <ele>16.4</ele>
        <time>2025-09-24T08:38:08Z</time>
      </trkpt>
      <trkpt lat="48.62625" lon="-4.29839">
        <ele>16.2</ele>
        <time>2025-09-24T08:38:30Z</time>
      </trkpt>
      <trkpt lat="48.62628" lon="-4.29844">
        <ele>16.4</ele>
        <time>2025-09-24T08:38:32Z</time>
      </trkpt>
      <trkpt lat="48.62635" lon="-4.29865">
        <ele>15.8</ele>
        <time>2025-09-24T08:38:37Z</time>
      </trkpt>
      <trkpt lat="48.62637" lon="-4.2987">
        <ele>15.6</ele>
        <time>2025-09-24T08:38:38Z</time>
      </trkpt>
      <trkpt lat="48.62644" lon="-4.29879">
        <ele>15.2</ele>
        <time>2025-09-24T08:38:40Z</time>
      </trkpt>
      <trkpt lat="48.62652" lon="-4.29888">
        <ele>14.8</ele>
        <time>2025-09-24T08:38:42Z</time>
      </trkpt>
      <trkpt lat="48.62658" lon="-4.29895">
        <ele>14</ele>
        <time>2025-09-24T08:38:45Z</time>
      </trkpt>
      <trkpt lat="48.62655" lon="-4.29891">
        <ele>13.8</ele>
        <time>2025-09-24T08:38:48Z</time>
      </trkpt>
      <trkpt lat="48.62649" lon="-4.29884">
        <ele>13.8</ele>
        <time>2025-09-24T08:38:53Z</time>
      </trkpt>
      <trkpt lat="48.62649" lon="-4.29882">
        <ele>14</ele>
        <time>2025-09-24T08:38:56Z</time>
      </trkpt>
      <trkpt lat="48.62649" lon="-4.29882">
        <ele>14</ele>
        <time>2025-09-24T08:38:57Z</time>
      </trkpt>
      <trkpt lat="48.62648" lon="-4.29882">
        <ele>14.4</ele>
        <time>2025-09-24T08:40:09Z</time>
      </trkpt>
      <trkpt lat="48.62648" lon="-4.29883">
        <ele>14.4</ele>
        <time>2025-09-24T08:40:10Z</time>
      </trkpt>
      <trkpt lat="48.62652" lon="-4.29888">
        <ele>14.2</ele>
        <time>2025-09-24T08:40:14Z</time>
      </trkpt>
      <trkpt lat="48.62664" lon="-4.29902">
        <ele>13.8</ele>
        <time>2025-09-24T08:40:20Z</time>
      </trkpt>
      <trkpt lat="48.6268" lon="-4.29914">
        <ele>13.6</ele>
        <time>2025-09-24T08:40:26Z</time>
      </trkpt>
      <trkpt lat="48.62698" lon="-4.29921">
        <ele>13</ele>
        <time>2025-09-24T08:40:31Z</time>
      </trkpt>
      <trkpt lat="48.62702" lon="-4.29921">
        <ele>13</ele>
        <time>2025-09-24T08:40:32Z</time>
      </trkpt>
      <trkpt lat="48.62721" lon="-4.29922">
        <ele>12.8</ele>
        <time>2025-09-24T08:40:37Z</time>
      </trkpt>
      <trkpt lat="48.62741" lon="-4.29922">
        <ele>12.4</ele>
        <time>2025-09-24T08:40:43Z</time>
      </trkpt>
      <trkpt lat="48.62745" lon="-4.29922">
        <ele>12.4</ele>
        <time>2025-09-24T08:40:44Z</time>
      </trkpt>
      <trkpt lat="48.62751" lon="-4.29921">
        <ele>12.4</ele>
        <time>2025-09-24T08:40:46Z</time>
      </trkpt>
      <trkpt lat="48.62765" lon="-4.29922">
        <ele>12.2</ele>
        <time>2025-09-24T08:40:50Z</time>
      </trkpt>
      <trkpt lat="48.62785" lon="-4.29919">
        <ele>12.2</ele>
        <time>2025-09-24T08:40:56Z</time>
      </trkpt>
      <trkpt lat="48.62789" lon="-4.29919">
        <ele>12</ele>
        <time>2025-09-24T08:40:58Z</time>
      </trkpt>
      <trkpt lat="48.62798" lon="-4.29918">
        <ele>12</ele>
        <time>2025-09-24T08:41:03Z</time>
      </trkpt>
      <trkpt lat="48.62799" lon="-4.29918">
        <ele>12</ele>
        <time>2025-09-24T08:41:04Z</time>
      </trkpt>
      <trkpt lat="48.62799" lon="-4.29922">
        <ele>12</ele>
        <time>2025-09-24T08:41:54Z</time>
      </trkpt>
      <trkpt lat="48.628" lon="-4.29923">
        <ele>12</ele>
        <time>2025-09-24T08:41:55Z</time>
      </trkpt>
      <trkpt lat="48.628" lon="-4.29923">
        <ele>12</ele>
        <time>2025-09-24T08:41:56Z</time>
      </trkpt>
      <trkpt lat="48.628" lon="-4.29923">
        <ele>12</ele>
        <time>2025-09-24T08:41:58Z</time>
      </trkpt>
      <trkpt lat="48.62801" lon="-4.29925">
        <ele>11.8</ele>
        <time>2025-09-24T08:42:06Z</time>
      </trkpt>
      <trkpt lat="48.62801" lon="-4.2993">
        <ele>11.8</ele>
        <time>2025-09-24T08:42:08Z</time>
      </trkpt>
      <trkpt lat="48.62807" lon="-4.29943">
        <ele>11.8</ele>
        <time>2025-09-24T08:42:15Z</time>
      </trkpt>
      <trkpt lat="48.62812" lon="-4.29954">
        <ele>12</ele>
        <time>2025-09-24T08:42:20Z</time>
      </trkpt>
      <trkpt lat="48.62814" lon="-4.29958">
        <ele>12</ele>
        <time>2025-09-24T08:42:21Z</time>
      </trkpt>
      <trkpt lat="48.62822" lon="-4.29985">
        <ele>12.6</ele>
        <time>2025-09-24T08:42:29Z</time>
      </trkpt>
      <trkpt lat="48.62825" lon="-4.29996">
        <ele>12.4</ele>
        <time>2025-09-24T08:42:32Z</time>
      </trkpt>
      <trkpt lat="48.62828" lon="-4.30008">
        <ele>12.4</ele>
        <time>2025-09-24T08:42:36Z</time>
      </trkpt>
      <trkpt lat="48.62832" lon="-4.30027">
        <ele>12.6</ele>
        <time>2025-09-24T08:42:42Z</time>
      </trkpt>
      <trkpt lat="48.6284" lon="-4.30055">
        <ele>13</ele>
        <time>2025-09-24T08:42:49Z</time>
      </trkpt>
      <trkpt lat="48.6285" lon="-4.30086">
        <ele>13.2</ele>
        <time>2025-09-24T08:42:57Z</time>
      </trkpt>
      <trkpt lat="48.62863" lon="-4.30095">
        <ele>13.6</ele>
        <time>2025-09-24T08:43:02Z</time>
      </trkpt>
      <trkpt lat="48.62868" lon="-4.30098">
        <ele>13.4</ele>
        <time>2025-09-24T08:43:04Z</time>
      </trkpt>
      <trkpt lat="48.62871" lon="-4.30098">
        <ele>13.4</ele>
        <time>2025-09-24T08:43:05Z</time>
      </trkpt>
      <trkpt lat="48.62873" lon="-4.30099">
        <ele>13.4</ele>
        <time>2025-09-24T08:43:06Z</time>
      </trkpt>
      <trkpt lat="48.62886" lon="-4.30102">
        <ele>13.4</ele>
        <time>2025-09-24T08:43:11Z</time>
      </trkpt>
      <trkpt lat="48.62893" lon="-4.30106">
        <ele>13</ele>
        <time>2025-09-24T08:43:15Z</time>
      </trkpt>
      <trkpt lat="48.62894" lon="-4.30109">
        <ele>13</ele>
        <time>2025-09-24T08:43:16Z</time>
      </trkpt>
      <trkpt lat="48.62893" lon="-4.30128">
        <ele>13</ele>
        <time>2025-09-24T08:43:21Z</time>
      </trkpt>
      <trkpt lat="48.62894" lon="-4.30147">
        <ele>13</ele>
        <time>2025-09-24T08:43:25Z</time>
      </trkpt>
      <trkpt lat="48.62897" lon="-4.30163">
        <ele>12.8</ele>
        <time>2025-09-24T08:43:29Z</time>
      </trkpt>
      <trkpt lat="48.62898" lon="-4.30165">
        <ele>12.8</ele>
        <time>2025-09-24T08:43:31Z</time>
      </trkpt>
      <trkpt lat="48.62898" lon="-4.30165">
        <ele>12.8</ele>
        <time>2025-09-24T08:43:32Z</time>
      </trkpt>
      <trkpt lat="48.62896" lon="-4.30165">
        <ele>12.8</ele>
        <time>2025-09-24T08:44:40Z</time>
      </trkpt>
      <trkpt lat="48.62895" lon="-4.30165">
        <ele>12.8</ele>
        <time>2025-09-24T08:44:41Z</time>
      </trkpt>
      <trkpt lat="48.62894" lon="-4.30156">
        <ele>12.8</ele>
        <time>2025-09-24T08:44:45Z</time>
      </trkpt>
      <trkpt lat="48.62892" lon="-4.30131">
        <ele>13.4</ele>
        <time>2025-09-24T08:44:51Z</time>
      </trkpt>
      <trkpt lat="48.629" lon="-4.30105">
        <ele>13</ele>
        <time>2025-09-24T08:44:57Z</time>
      </trkpt>
      <trkpt lat="48.62913" lon="-4.30099">
        <ele>12.8</ele>
        <time>2025-09-24T08:45:01Z</time>
      </trkpt>
      <trkpt lat="48.62933" lon="-4.30088">
        <ele>12.6</ele>
        <time>2025-09-24T08:45:07Z</time>
      </trkpt>
      <trkpt lat="48.62937" lon="-4.30069">
        <ele>12</ele>
        <time>2025-09-24T08:45:11Z</time>
      </trkpt>
      <trkpt lat="48.62948" lon="-4.30028">
        <ele>12</ele>
        <time>2025-09-24T08:45:19Z</time>
      </trkpt>
      <trkpt lat="48.62949" lon="-4.30024">
        <ele>11.8</ele>
        <time>2025-09-24T08:45:20Z</time>
      </trkpt>
      <trkpt lat="48.62948" lon="-4.30013">
        <ele>11.4</ele>
        <time>2025-09-24T08:45:24Z</time>
      </trkpt>
      <trkpt lat="48.62948" lon="-4.30012">
        <ele>11.4</ele>
        <time>2025-09-24T08:45:26Z</time>
      </trkpt>
      <trkpt lat="48.62946" lon="-4.3001">
        <ele>11.6</ele>
        <time>2025-09-24T08:46:03Z</time>
      </trkpt>
      <trkpt lat="48.62945" lon="-4.30009">
        <ele>11.6</ele>
        <time>2025-09-24T08:46:04Z</time>
      </trkpt>
      <trkpt lat="48.62935" lon="-4.30007">
        <ele>12</ele>
        <time>2025-09-24T08:46:10Z</time>
      </trkpt>
      <trkpt lat="48.62927" lon="-4.30006">
        <ele>12.2</ele>
        <time>2025-09-24T08:46:14Z</time>
      </trkpt>
      <trkpt lat="48.62925" lon="-4.30003">
        <ele>12.2</ele>
        <time>2025-09-24T08:46:16Z</time>
      </trkpt>
      <trkpt lat="48.62925" lon="-4.29999">
        <ele>12.2</ele>
        <time>2025-09-24T08:46:18Z</time>
      </trkpt>
      <trkpt lat="48.62925" lon="-4.29996">
        <ele>12.2</ele>
        <time>2025-09-24T08:46:20Z</time>
      </trkpt>
      <trkpt lat="48.62925" lon="-4.29995">
        <ele>12.2</ele>
        <time>2025-09-24T08:46:21Z</time>
      </trkpt>
      <trkpt lat="48.62924" lon="-4.29995">
        <ele>12.2</ele>
        <time>2025-09-24T08:46:23Z</time>
      </trkpt>
      <trkpt lat="48.62924" lon="-4.29992">
        <ele>12.2</ele>
        <time>2025-09-24T08:46:26Z</time>
      </trkpt>
      <trkpt lat="48.62923" lon="-4.29992">
        <ele>12.2</ele>
        <time>2025-09-24T08:46:27Z</time>
      </trkpt>
      <trkpt lat="48.62921" lon="-4.29999">
        <ele>12.2</ele>
        <time>2025-09-24T08:46:31Z</time>
      </trkpt>
      <trkpt lat="48.62922" lon="-4.30004">
        <ele>12.4</ele>
        <time>2025-09-24T08:46:33Z</time>
      </trkpt>
      <trkpt lat="48.62926" lon="-4.30007">
        <ele>12.6</ele>
        <time>2025-09-24T08:46:36Z</time>
      </trkpt>
      <trkpt lat="48.62941" lon="-4.30011">
        <ele>12.6</ele>
        <time>2025-09-24T08:46:42Z</time>
      </trkpt>
      <trkpt lat="48.62947" lon="-4.30015">
        <ele>12.2</ele>
        <time>2025-09-24T08:46:44Z</time>
      </trkpt>
      <trkpt lat="48.6295" lon="-4.30021">
        <ele>12</ele>
        <time>2025-09-24T08:46:46Z</time>
      </trkpt>
      <trkpt lat="48.62948" lon="-4.3004">
        <ele>12</ele>
        <time>2025-09-24T08:46:51Z</time>
      </trkpt>
      <trkpt lat="48.6294" lon="-4.3007">
        <ele>12.2</ele>
        <time>2025-09-24T08:46:58Z</time>
      </trkpt>
      <trkpt lat="48.62932" lon="-4.30096">
        <ele>12.4</ele>
        <time>2025-09-24T08:47:06Z</time>
      </trkpt>
      <trkpt lat="48.62928" lon="-4.30099">
        <ele>12.6</ele>
        <time>2025-09-24T08:47:08Z</time>
      </trkpt>
      <trkpt lat="48.62923" lon="-4.30099">
        <ele>12.6</ele>
        <time>2025-09-24T08:47:11Z</time>
      </trkpt>
      <trkpt lat="48.62908" lon="-4.30105">
        <ele>13</ele>
        <time>2025-09-24T08:47:18Z</time>
      </trkpt>
      <trkpt lat="48.62903" lon="-4.30107">
        <ele>13.2</ele>
        <time>2025-09-24T08:47:20Z</time>
      </trkpt>
      <trkpt lat="48.62894" lon="-4.30116">
        <ele>13.2</ele>
        <time>2025-09-24T08:47:25Z</time>
      </trkpt>
      <trkpt lat="48.62892" lon="-4.3014">
        <ele>13.6</ele>
        <time>2025-09-24T08:47:31Z</time>
      </trkpt>
      <trkpt lat="48.62896" lon="-4.3017">
        <ele>13.4</ele>
        <time>2025-09-24T08:47:37Z</time>
      </trkpt>
      <trkpt lat="48.62897" lon="-4.30175">
        <ele>13.4</ele>
        <time>2025-09-24T08:47:38Z</time>
      </trkpt>
      <trkpt lat="48.62902" lon="-4.30207">
        <ele>13.2</ele>
        <time>2025-09-24T08:47:44Z</time>
      </trkpt>
      <trkpt lat="48.62904" lon="-4.3023">
        <ele>12.8</ele>
        <time>2025-09-24T08:47:48Z</time>
      </trkpt>
      <trkpt lat="48.62909" lon="-4.30246">
        <ele>12.8</ele>
        <time>2025-09-24T08:47:51Z</time>
      </trkpt>
      <trkpt lat="48.62917" lon="-4.30253">
        <ele>12.6</ele>
        <time>2025-09-24T08:47:53Z</time>
      </trkpt>
      <trkpt lat="48.62935" lon="-4.30262">
        <ele>11.8</ele>
        <time>2025-09-24T08:47:57Z</time>
      </trkpt>
      <trkpt lat="48.62945" lon="-4.30268">
        <ele>11.4</ele>
        <time>2025-09-24T08:47:59Z</time>
      </trkpt>
      <trkpt lat="48.62971" lon="-4.30278">
        <ele>10.8</ele>
        <time>2025-09-24T08:48:04Z</time>
      </trkpt>
      <trkpt lat="48.62992" lon="-4.30287">
        <ele>10.4</ele>
        <time>2025-09-24T08:48:08Z</time>
      </trkpt>
      <trkpt lat="48.63033" lon="-4.30292">
        <ele>10</ele>
        <time>2025-09-24T08:48:16Z</time>
      </trkpt>
      <trkpt lat="48.63066" lon="-4.3029">
        <ele>9.8</ele>
        <time>2025-09-24T08:48:22Z</time>
      </trkpt>
      <trkpt lat="48.63071" lon="-4.3029">
        <ele>9.6</ele>
        <time>2025-09-24T08:48:23Z</time>
      </trkpt>
      <trkpt lat="48.63119" lon="-4.30283">
        <ele>9</ele>
        <time>2025-09-24T08:48:32Z</time>
      </trkpt>
      <trkpt lat="48.63129" lon="-4.30281">
        <ele>9</ele>
        <time>2025-09-24T08:48:34Z</time>
      </trkpt>
      <trkpt lat="48.63154" lon="-4.30275">
        <ele>8.6</ele>
        <time>2025-09-24T08:48:39Z</time>
      </trkpt>
      <trkpt lat="48.63173" lon="-4.30269">
        <ele>8.6</ele>
        <time>2025-09-24T08:48:43Z</time>
      </trkpt>
      <trkpt lat="48.63199" lon="-4.30266">
        <ele>8.2</ele>
        <time>2025-09-24T08:48:49Z</time>
      </trkpt>
      <trkpt lat="48.63203" lon="-4.30265">
        <ele>8.2</ele>
        <time>2025-09-24T08:48:50Z</time>
      </trkpt>
      <trkpt lat="48.63213" lon="-4.30264">
        <ele>8.2</ele>
        <time>2025-09-24T08:48:54Z</time>
      </trkpt>
      <trkpt lat="48.63219" lon="-4.30263">
        <ele>8.6</ele>
        <time>2025-09-24T08:48:58Z</time>
      </trkpt>
      <trkpt lat="48.63222" lon="-4.30264">
        <ele>8.6</ele>
        <time>2025-09-24T08:48:59Z</time>
      </trkpt>
      <trkpt lat="48.63238" lon="-4.30264">
        <ele>8.4</ele>
        <time>2025-09-24T08:49:04Z</time>
      </trkpt>
      <trkpt lat="48.63249" lon="-4.30265">
        <ele>8.2</ele>
        <time>2025-09-24T08:49:07Z</time>
      </trkpt>
      <trkpt lat="48.63252" lon="-4.30266">
        <ele>8.2</ele>
        <time>2025-09-24T08:49:08Z</time>
      </trkpt>
      <trkpt lat="48.63257" lon="-4.30268">
        <ele>8</ele>
        <time>2025-09-24T08:49:10Z</time>
      </trkpt>
      <trkpt lat="48.6327" lon="-4.30278">
        <ele>7.8</ele>
        <time>2025-09-24T08:49:17Z</time>
      </trkpt>
      <trkpt lat="48.6328" lon="-4.30297">
        <ele>7.6</ele>
        <time>2025-09-24T08:49:22Z</time>
      </trkpt>
      <trkpt lat="48.63281" lon="-4.30302">
        <ele>7.4</ele>
        <time>2025-09-24T08:49:23Z</time>
      </trkpt>
      <trkpt lat="48.63295" lon="-4.30343">
        <ele>7.6</ele>
        <time>2025-09-24T08:49:32Z</time>
      </trkpt>
      <trkpt lat="48.63306" lon="-4.30374">
        <ele>7.2</ele>
        <time>2025-09-24T08:49:39Z</time>
      </trkpt>
      <trkpt lat="48.63318" lon="-4.30401">
        <ele>7</ele>
        <time>2025-09-24T08:49:45Z</time>
      </trkpt>
      <trkpt lat="48.63326" lon="-4.30435">
        <ele>7.2</ele>
        <time>2025-09-24T08:49:52Z</time>
      </trkpt>
      <trkpt lat="48.63334" lon="-4.30468">
        <ele>7.2</ele>
        <time>2025-09-24T08:49:59Z</time>
      </trkpt>
      <trkpt lat="48.63335" lon="-4.30473">
        <ele>7.2</ele>
        <time>2025-09-24T08:50:00Z</time>
      </trkpt>
      <trkpt lat="48.63337" lon="-4.30483">
        <ele>7.2</ele>
        <time>2025-09-24T08:50:02Z</time>
      </trkpt>
      <trkpt lat="48.63347" lon="-4.30522">
        <ele>7.2</ele>
        <time>2025-09-24T08:50:10Z</time>
      </trkpt>
      <trkpt lat="48.63358" lon="-4.30565">
        <ele>7</ele>
        <time>2025-09-24T08:50:19Z</time>
      </trkpt>
      <trkpt lat="48.63369" lon="-4.30609">
        <ele>7</ele>
        <time>2025-09-24T08:50:28Z</time>
      </trkpt>
      <trkpt lat="48.63378" lon="-4.30644">
        <ele>7.4</ele>
        <time>2025-09-24T08:50:36Z</time>
      </trkpt>
      <trkpt lat="48.63388" lon="-4.30684">
        <ele>7</ele>
        <time>2025-09-24T08:50:45Z</time>
      </trkpt>
      <trkpt lat="48.63396" lon="-4.30715">
        <ele>7</ele>
        <time>2025-09-24T08:50:53Z</time>
      </trkpt>
      <trkpt lat="48.63401" lon="-4.30729">
        <ele>7.2</ele>
        <time>2025-09-24T08:50:59Z</time>
      </trkpt>
      <trkpt lat="48.63401" lon="-4.30729">
        <ele>7.2</ele>
        <time>2025-09-24T08:51:00Z</time>
      </trkpt>
      <trkpt lat="48.63401" lon="-4.30731">
        <ele>7</ele>
        <time>2025-09-24T08:51:44Z</time>
      </trkpt>
      <trkpt lat="48.63402" lon="-4.30733">
        <ele>7</ele>
        <time>2025-09-24T08:51:45Z</time>
      </trkpt>
      <trkpt lat="48.63402" lon="-4.30736">
        <ele>7</ele>
        <time>2025-09-24T08:51:46Z</time>
      </trkpt>
      <trkpt lat="48.63407" lon="-4.30756">
        <ele>7.2</ele>
        <time>2025-09-24T08:51:51Z</time>
      </trkpt>
      <trkpt lat="48.63419" lon="-4.30804">
        <ele>7</ele>
        <time>2025-09-24T08:52:01Z</time>
      </trkpt>
      <trkpt lat="48.63426" lon="-4.30834">
        <ele>7.2</ele>
        <time>2025-09-24T08:52:07Z</time>
      </trkpt>
      <trkpt lat="48.63428" lon="-4.30843">
        <ele>7.2</ele>
        <time>2025-09-24T08:52:09Z</time>
      </trkpt>
      <trkpt lat="48.63437" lon="-4.3088">
        <ele>7.4</ele>
        <time>2025-09-24T08:52:17Z</time>
      </trkpt>
      <trkpt lat="48.6344" lon="-4.3089">
        <ele>7.2</ele>
        <time>2025-09-24T08:52:19Z</time>
      </trkpt>
      <trkpt lat="48.63453" lon="-4.30947">
        <ele>7</ele>
        <time>2025-09-24T08:52:31Z</time>
      </trkpt>
      <trkpt lat="48.63466" lon="-4.30995">
        <ele>7.2</ele>
        <time>2025-09-24T08:52:41Z</time>
      </trkpt>
      <trkpt lat="48.63481" lon="-4.31053">
        <ele>7.2</ele>
        <time>2025-09-24T08:52:53Z</time>
      </trkpt>
      <trkpt lat="48.63493" lon="-4.31094">
        <ele>7</ele>
        <time>2025-09-24T08:53:02Z</time>
      </trkpt>
      <trkpt lat="48.63504" lon="-4.31126">
        <ele>7.4</ele>
        <time>2025-09-24T08:53:10Z</time>
      </trkpt>
      <trkpt lat="48.63517" lon="-4.31165">
        <ele>7.4</ele>
        <time>2025-09-24T08:53:20Z</time>
      </trkpt>
      <trkpt lat="48.63531" lon="-4.31202">
        <ele>7.2</ele>
        <time>2025-09-24T08:53:29Z</time>
      </trkpt>
      <trkpt lat="48.63548" lon="-4.31242">
        <ele>7.2</ele>
        <time>2025-09-24T08:53:38Z</time>
      </trkpt>
      <trkpt lat="48.63563" lon="-4.31278">
        <ele>7.2</ele>
        <time>2025-09-24T08:53:46Z</time>
      </trkpt>
      <trkpt lat="48.63582" lon="-4.31317">
        <ele>7.4</ele>
        <time>2025-09-24T08:53:55Z</time>
      </trkpt>
      <trkpt lat="48.63599" lon="-4.31352">
        <ele>7.2</ele>
        <time>2025-09-24T08:54:04Z</time>
      </trkpt>
      <trkpt lat="48.63617" lon="-4.31386">
        <ele>7</ele>
        <time>2025-09-24T08:54:13Z</time>
      </trkpt>
      <trkpt lat="48.63635" lon="-4.31416">
        <ele>7.2</ele>
        <time>2025-09-24T08:54:21Z</time>
      </trkpt>
      <trkpt lat="48.63655" lon="-4.31448">
        <ele>7.2</ele>
        <time>2025-09-24T08:54:29Z</time>
      </trkpt>
      <trkpt lat="48.6368" lon="-4.31487">
        <ele>7.2</ele>
        <time>2025-09-24T08:54:39Z</time>
      </trkpt>
      <trkpt lat="48.63702" lon="-4.31521">
        <ele>7</ele>
        <time>2025-09-24T08:54:48Z</time>
      </trkpt>
      <trkpt lat="48.63729" lon="-4.31559">
        <ele>7</ele>
        <time>2025-09-24T08:54:58Z</time>
      </trkpt>
      <trkpt lat="48.63747" lon="-4.3159">
        <ele>7</ele>
        <time>2025-09-24T08:55:06Z</time>
      </trkpt>
      <trkpt lat="48.63756" lon="-4.31604">
        <ele>7.2</ele>
        <time>2025-09-24T08:55:12Z</time>
      </trkpt>
      <trkpt lat="48.63772" lon="-4.31609">
        <ele>7.6</ele>
        <time>2025-09-24T08:55:18Z</time>
      </trkpt>
      <trkpt lat="48.63803" lon="-4.31619">
        <ele>7.6</ele>
        <time>2025-09-24T08:55:28Z</time>
      </trkpt>
      <trkpt lat="48.63816" lon="-4.31626">
        <ele>7.8</ele>
        <time>2025-09-24T08:55:33Z</time>
      </trkpt>
      <trkpt lat="48.6382" lon="-4.31644">
        <ele>7.2</ele>
        <time>2025-09-24T08:55:37Z</time>
      </trkpt>
      <trkpt lat="48.63821" lon="-4.31662">
        <ele>7.4</ele>
        <time>2025-09-24T08:55:41Z</time>
      </trkpt>
      <trkpt lat="48.63835" lon="-4.31681">
        <ele>7.6</ele>
        <time>2025-09-24T08:55:47Z</time>
      </trkpt>
      <trkpt lat="48.63856" lon="-4.31706">
        <ele>7.6</ele>
        <time>2025-09-24T08:55:55Z</time>
      </trkpt>
      <trkpt lat="48.63882" lon="-4.31738">
        <ele>8.4</ele>
        <time>2025-09-24T08:56:05Z</time>
      </trkpt>
      <trkpt lat="48.63913" lon="-4.31774">
        <ele>8.2</ele>
        <time>2025-09-24T08:56:16Z</time>
      </trkpt>
      <trkpt lat="48.63934" lon="-4.31802">
        <ele>8.2</ele>
        <time>2025-09-24T08:56:24Z</time>
      </trkpt>
      <trkpt lat="48.63955" lon="-4.31826">
        <ele>7.8</ele>
        <time>2025-09-24T08:56:32Z</time>
      </trkpt>
      <trkpt lat="48.6397" lon="-4.31844">
        <ele>7.6</ele>
        <time>2025-09-24T08:56:39Z</time>
      </trkpt>
      <trkpt lat="48.64003" lon="-4.3188">
        <ele>8.4</ele>
        <time>2025-09-24T08:56:51Z</time>
      </trkpt>
      <trkpt lat="48.64027" lon="-4.31904">
        <ele>8.4</ele>
        <time>2025-09-24T08:57:00Z</time>
      </trkpt>
      <trkpt lat="48.64036" lon="-4.31913">
        <ele>8.8</ele>
        <time>2025-09-24T08:57:04Z</time>
      </trkpt>
      <trkpt lat="48.6405" lon="-4.31927">
        <ele>9</ele>
        <time>2025-09-24T08:57:10Z</time>
      </trkpt>
      <trkpt lat="48.64073" lon="-4.31952">
        <ele>9.4</ele>
        <time>2025-09-24T08:57:20Z</time>
      </trkpt>
      <trkpt lat="48.64086" lon="-4.31966">
        <ele>9.4</ele>
        <time>2025-09-24T08:57:26Z</time>
      </trkpt>
      <trkpt lat="48.64089" lon="-4.31968">
        <ele>9.4</ele>
        <time>2025-09-24T08:57:27Z</time>
      </trkpt>
      <trkpt lat="48.64093" lon="-4.31971">
        <ele>9.6</ele>
        <time>2025-09-24T08:57:29Z</time>
      </trkpt>
      <trkpt lat="48.64097" lon="-4.31975">
        <ele>9.8</ele>
        <time>2025-09-24T08:57:31Z</time>
      </trkpt>
      <trkpt lat="48.64108" lon="-4.31987">
        <ele>10.4</ele>
        <time>2025-09-24T08:57:37Z</time>
      </trkpt>
      <trkpt lat="48.64127" lon="-4.3201">
        <ele>10.8</ele>
        <time>2025-09-24T08:57:48Z</time>
      </trkpt>
      <trkpt lat="48.64142" lon="-4.32027">
        <ele>11.2</ele>
        <time>2025-09-24T08:57:57Z</time>
      </trkpt>
      <trkpt lat="48.64156" lon="-4.32042">
        <ele>11.4</ele>
        <time>2025-09-24T08:58:06Z</time>
      </trkpt>
      <trkpt lat="48.64165" lon="-4.3205">
        <ele>12</ele>
        <time>2025-09-24T08:58:12Z</time>
      </trkpt>
      <trkpt lat="48.6417" lon="-4.32055">
        <ele>12.2</ele>
        <time>2025-09-24T08:58:15Z</time>
      </trkpt>
      <trkpt lat="48.64173" lon="-4.3206">
        <ele>13</ele>
        <time>2025-09-24T08:58:18Z</time>
      </trkpt>
      <trkpt lat="48.64175" lon="-4.32072">
        <ele>13.2</ele>
        <time>2025-09-24T08:58:22Z</time>
      </trkpt>
      <trkpt lat="48.64184" lon="-4.32084">
        <ele>12.8</ele>
        <time>2025-09-24T08:58:26Z</time>
      </trkpt>
      <trkpt lat="48.64202" lon="-4.32106">
        <ele>12.6</ele>
        <time>2025-09-24T08:58:34Z</time>
      </trkpt>
      <trkpt lat="48.64207" lon="-4.32115">
        <ele>12.8</ele>
        <time>2025-09-24T08:58:37Z</time>
      </trkpt>
      <trkpt lat="48.64213" lon="-4.32124">
        <ele>12.8</ele>
        <time>2025-09-24T08:58:40Z</time>
      </trkpt>
      <trkpt lat="48.64218" lon="-4.32134">
        <ele>12.8</ele>
        <time>2025-09-24T08:58:43Z</time>
      </trkpt>
      <trkpt lat="48.64231" lon="-4.32153">
        <ele>12.8</ele>
        <time>2025-09-24T08:58:50Z</time>
      </trkpt>
      <trkpt lat="48.64233" lon="-4.32155">
        <ele>12.8</ele>
        <time>2025-09-24T08:58:54Z</time>
      </trkpt>
      <trkpt lat="48.64233" lon="-4.32156">
        <ele>12.8</ele>
        <time>2025-09-24T08:59:28Z</time>
      </trkpt>
      <trkpt lat="48.64236" lon="-4.32161">
        <ele>12.8</ele>
        <time>2025-09-24T08:59:31Z</time>
      </trkpt>
      <trkpt lat="48.64248" lon="-4.32177">
        <ele>12.8</ele>
        <time>2025-09-24T08:59:36Z</time>
      </trkpt>
      <trkpt lat="48.6427" lon="-4.32217">
        <ele>12.4</ele>
        <time>2025-09-24T08:59:45Z</time>
      </trkpt>
      <trkpt lat="48.64284" lon="-4.32239">
        <ele>12.2</ele>
        <time>2025-09-24T08:59:51Z</time>
      </trkpt>
      <trkpt lat="48.6429" lon="-4.32249">
        <ele>11.8</ele>
        <time>2025-09-24T08:59:54Z</time>
      </trkpt>
      <trkpt lat="48.64294" lon="-4.32257">
        <ele>11.8</ele>
        <time>2025-09-24T08:59:57Z</time>
      </trkpt>
      <trkpt lat="48.64303" lon="-4.32275">
        <ele>11.8</ele>
        <time>2025-09-24T09:00:02Z</time>
      </trkpt>
      <trkpt lat="48.64318" lon="-4.323">
        <ele>11.6</ele>
        <time>2025-09-24T09:00:08Z</time>
      </trkpt>
      <trkpt lat="48.64334" lon="-4.32327">
        <ele>11.4</ele>
        <time>2025-09-24T09:00:14Z</time>
      </trkpt>
      <trkpt lat="48.64355" lon="-4.32366">
        <ele>10.8</ele>
        <time>2025-09-24T09:00:21Z</time>
      </trkpt>
      <trkpt lat="48.64358" lon="-4.32371">
        <ele>10.6</ele>
        <time>2025-09-24T09:00:22Z</time>
      </trkpt>
      <trkpt lat="48.64363" lon="-4.3238">
        <ele>10.4</ele>
        <time>2025-09-24T09:00:24Z</time>
      </trkpt>
      <trkpt lat="48.64371" lon="-4.32393">
        <ele>10.4</ele>
        <time>2025-09-24T09:00:27Z</time>
      </trkpt>
      <trkpt lat="48.64375" lon="-4.324">
        <ele>10.4</ele>
        <time>2025-09-24T09:00:29Z</time>
      </trkpt>
      <trkpt lat="48.64393" lon="-4.32431">
        <ele>10</ele>
        <time>2025-09-24T09:00:37Z</time>
      </trkpt>
      <trkpt lat="48.64399" lon="-4.32443">
        <ele>10</ele>
        <time>2025-09-24T09:00:42Z</time>
      </trkpt>
      <trkpt lat="48.6441" lon="-4.32461">
        <ele>10.2</ele>
        <time>2025-09-24T09:00:47Z</time>
      </trkpt>
      <trkpt lat="48.64419" lon="-4.32477">
        <ele>10</ele>
        <time>2025-09-24T09:00:51Z</time>
      </trkpt>
      <trkpt lat="48.64429" lon="-4.32494">
        <ele>10.4</ele>
        <time>2025-09-24T09:00:55Z</time>
      </trkpt>
      <trkpt lat="48.64442" lon="-4.32516">
        <ele>9.8</ele>
        <time>2025-09-24T09:01:01Z</time>
      </trkpt>
      <trkpt lat="48.64454" lon="-4.32535">
        <ele>10.2</ele>
        <time>2025-09-24T09:01:07Z</time>
      </trkpt>
      <trkpt lat="48.64471" lon="-4.32564">
        <ele>10</ele>
        <time>2025-09-24T09:01:15Z</time>
      </trkpt>
      <trkpt lat="48.6448" lon="-4.32579">
        <ele>10.2</ele>
        <time>2025-09-24T09:01:19Z</time>
      </trkpt>
      <trkpt lat="48.64485" lon="-4.32587">
        <ele>10.4</ele>
        <time>2025-09-24T09:01:21Z</time>
      </trkpt>
      <trkpt lat="48.64496" lon="-4.32606">
        <ele>10.6</ele>
        <time>2025-09-24T09:01:26Z</time>
      </trkpt>
      <trkpt lat="48.64513" lon="-4.32639">
        <ele>11</ele>
        <time>2025-09-24T09:01:35Z</time>
      </trkpt>
      <trkpt lat="48.64522" lon="-4.32662">
        <ele>11.2</ele>
        <time>2025-09-24T09:01:41Z</time>
      </trkpt>
      <trkpt lat="48.64532" lon="-4.327">
        <ele>11.6</ele>
        <time>2025-09-24T09:01:49Z</time>
      </trkpt>
      <trkpt lat="48.64533" lon="-4.32704">
        <ele>11.8</ele>
        <time>2025-09-24T09:01:50Z</time>
      </trkpt>
      <trkpt lat="48.64537" lon="-4.3274">
        <ele>12.6</ele>
        <time>2025-09-24T09:01:57Z</time>
      </trkpt>
      <trkpt lat="48.64546" lon="-4.32781">
        <ele>12.8</ele>
        <time>2025-09-24T09:02:05Z</time>
      </trkpt>
      <trkpt lat="48.64559" lon="-4.32828">
        <ele>13.2</ele>
        <time>2025-09-24T09:02:15Z</time>
      </trkpt>
      <trkpt lat="48.64566" lon="-4.3285">
        <ele>13</ele>
        <time>2025-09-24T09:02:20Z</time>
      </trkpt>
      <trkpt lat="48.64569" lon="-4.32851">
        <ele>13</ele>
        <time>2025-09-24T09:02:21Z</time>
      </trkpt>
      <trkpt lat="48.64584" lon="-4.3285">
        <ele>12.8</ele>
        <time>2025-09-24T09:02:26Z</time>
      </trkpt>
      <trkpt lat="48.6459" lon="-4.3285">
        <ele>12.8</ele>
        <time>2025-09-24T09:02:28Z</time>
      </trkpt>
      <trkpt lat="48.64607" lon="-4.32847">
        <ele>12.6</ele>
        <time>2025-09-24T09:02:33Z</time>
      </trkpt>
      <trkpt lat="48.6461" lon="-4.32846">
        <ele>12.6</ele>
        <time>2025-09-24T09:02:34Z</time>
      </trkpt>
      <trkpt lat="48.64618" lon="-4.32842">
        <ele>12.8</ele>
        <time>2025-09-24T09:02:38Z</time>
      </trkpt>
      <trkpt lat="48.6462" lon="-4.3284">
        <ele>12.8</ele>
        <time>2025-09-24T09:02:39Z</time>
      </trkpt>
      <trkpt lat="48.64626" lon="-4.32824">
        <ele>12.8</ele>
        <time>2025-09-24T09:02:43Z</time>
      </trkpt>
      <trkpt lat="48.6463" lon="-4.32815">
        <ele>12.8</ele>
        <time>2025-09-24T09:02:45Z</time>
      </trkpt>
      <trkpt lat="48.64648" lon="-4.32774">
        <ele>12.4</ele>
        <time>2025-09-24T09:02:53Z</time>
      </trkpt>
      <trkpt lat="48.64663" lon="-4.32739">
        <ele>12.4</ele>
        <time>2025-09-24T09:03:01Z</time>
      </trkpt>
      <trkpt lat="48.64683" lon="-4.32692">
        <ele>12.8</ele>
        <time>2025-09-24T09:03:11Z</time>
      </trkpt>
      <trkpt lat="48.64693" lon="-4.32667">
        <ele>12.8</ele>
        <time>2025-09-24T09:03:16Z</time>
      </trkpt>
      <trkpt lat="48.64702" lon="-4.32647">
        <ele>12.8</ele>
        <time>2025-09-24T09:03:20Z</time>
      </trkpt>
      <trkpt lat="48.64717" lon="-4.32607">
        <ele>12.8</ele>
        <time>2025-09-24T09:03:28Z</time>
      </trkpt>
      <trkpt lat="48.64731" lon="-4.32559">
        <ele>13</ele>
        <time>2025-09-24T09:03:37Z</time>
      </trkpt>
      <trkpt lat="48.64738" lon="-4.32514">
        <ele>13</ele>
        <time>2025-09-24T09:03:45Z</time>
      </trkpt>
      <trkpt lat="48.64739" lon="-4.32503">
        <ele>13</ele>
        <time>2025-09-24T09:03:47Z</time>
      </trkpt>
      <trkpt lat="48.64747" lon="-4.32437">
        <ele>13.4</ele>
        <time>2025-09-24T09:03:59Z</time>
      </trkpt>
      <trkpt lat="48.64752" lon="-4.32381">
        <ele>13.6</ele>
        <time>2025-09-24T09:04:09Z</time>
      </trkpt>
      <trkpt lat="48.64762" lon="-4.32339">
        <ele>13.8</ele>
        <time>2025-09-24T09:04:17Z</time>
      </trkpt>
      <trkpt lat="48.64764" lon="-4.32335">
        <ele>13.8</ele>
        <time>2025-09-24T09:04:18Z</time>
      </trkpt>
      <trkpt lat="48.64775" lon="-4.323">
        <ele>14.2</ele>
        <time>2025-09-24T09:04:27Z</time>
      </trkpt>
      <trkpt lat="48.64776" lon="-4.32269">
        <ele>14.4</ele>
        <time>2025-09-24T09:04:33Z</time>
      </trkpt>
      <trkpt lat="48.64776" lon="-4.32263">
        <ele>14.4</ele>
        <time>2025-09-24T09:04:34Z</time>
      </trkpt>
      <trkpt lat="48.64776" lon="-4.32246">
        <ele>14.4</ele>
        <time>2025-09-24T09:04:37Z</time>
      </trkpt>
      <trkpt lat="48.64776" lon="-4.32234">
        <ele>14.4</ele>
        <time>2025-09-24T09:04:39Z</time>
      </trkpt>
      <trkpt lat="48.64776" lon="-4.32221">
        <ele>14.4</ele>
        <time>2025-09-24T09:04:41Z</time>
      </trkpt>
      <trkpt lat="48.64774" lon="-4.32173">
        <ele>13.6</ele>
        <time>2025-09-24T09:04:48Z</time>
      </trkpt>
      <trkpt lat="48.64774" lon="-4.32166">
        <ele>13.6</ele>
        <time>2025-09-24T09:04:49Z</time>
      </trkpt>
      <trkpt lat="48.64773" lon="-4.32139">
        <ele>13.2</ele>
        <time>2025-09-24T09:04:53Z</time>
      </trkpt>
      <trkpt lat="48.64773" lon="-4.3212">
        <ele>12.8</ele>
        <time>2025-09-24T09:04:56Z</time>
      </trkpt>
      <trkpt lat="48.64773" lon="-4.32113">
        <ele>12.8</ele>
        <time>2025-09-24T09:04:57Z</time>
      </trkpt>
      <trkpt lat="48.64773" lon="-4.321">
        <ele>12.6</ele>
        <time>2025-09-24T09:04:59Z</time>
      </trkpt>
      <trkpt lat="48.64773" lon="-4.32051">
        <ele>12</ele>
        <time>2025-09-24T09:05:06Z</time>
      </trkpt>
      <trkpt lat="48.64773" lon="-4.32036">
        <ele>11.8</ele>
        <time>2025-09-24T09:05:08Z</time>
      </trkpt>
      <trkpt lat="48.64773" lon="-4.32029">
        <ele>11.6</ele>
        <time>2025-09-24T09:05:09Z</time>
      </trkpt>
      <trkpt lat="48.64775" lon="-4.31994">
        <ele>11</ele>
        <time>2025-09-24T09:05:14Z</time>
      </trkpt>
      <trkpt lat="48.64781" lon="-4.31985">
        <ele>10.8</ele>
        <time>2025-09-24T09:05:16Z</time>
      </trkpt>
      <trkpt lat="48.64785" lon="-4.31982">
        <ele>10.8</ele>
        <time>2025-09-24T09:05:17Z</time>
      </trkpt>
      <trkpt lat="48.64813" lon="-4.31972">
        <ele>11.4</ele>
        <time>2025-09-24T09:05:24Z</time>
      </trkpt>
      <trkpt lat="48.64832" lon="-4.31964">
        <ele>12</ele>
        <time>2025-09-24T09:05:29Z</time>
      </trkpt>
      <trkpt lat="48.64839" lon="-4.31961">
        <ele>12.2</ele>
        <time>2025-09-24T09:05:31Z</time>
      </trkpt>
      <trkpt lat="48.64843" lon="-4.3196">
        <ele>12.2</ele>
        <time>2025-09-24T09:05:32Z</time>
      </trkpt>
      <trkpt lat="48.64854" lon="-4.31956">
        <ele>12.4</ele>
        <time>2025-09-24T09:05:35Z</time>
      </trkpt>
      <trkpt lat="48.6487" lon="-4.31952">
        <ele>12.8</ele>
        <time>2025-09-24T09:05:40Z</time>
      </trkpt>
      <trkpt lat="48.64883" lon="-4.3195">
        <ele>13.2</ele>
        <time>2025-09-24T09:05:44Z</time>
      </trkpt>
      <trkpt lat="48.64897" lon="-4.31949">
        <ele>13.6</ele>
        <time>2025-09-24T09:05:49Z</time>
      </trkpt>
      <trkpt lat="48.649" lon="-4.31948">
        <ele>13.8</ele>
        <time>2025-09-24T09:05:50Z</time>
      </trkpt>
      <trkpt lat="48.64906" lon="-4.31947">
        <ele>14.2</ele>
        <time>2025-09-24T09:05:52Z</time>
      </trkpt>
      <trkpt lat="48.64927" lon="-4.31947">
        <ele>15</ele>
        <time>2025-09-24T09:05:59Z</time>
      </trkpt>
      <trkpt lat="48.64933" lon="-4.31946">
        <ele>15.2</ele>
        <time>2025-09-24T09:06:01Z</time>
      </trkpt>
      <trkpt lat="48.64936" lon="-4.31946">
        <ele>15.2</ele>
        <time>2025-09-24T09:06:02Z</time>
      </trkpt>
      <trkpt lat="48.64944" lon="-4.31945">
        <ele>15.6</ele>
        <time>2025-09-24T09:06:05Z</time>
      </trkpt>
      <trkpt lat="48.64957" lon="-4.31943">
        <ele>16</ele>
        <time>2025-09-24T09:06:10Z</time>
      </trkpt>
      <trkpt lat="48.64962" lon="-4.31943">
        <ele>16.2</ele>
        <time>2025-09-24T09:06:12Z</time>
      </trkpt>
      <trkpt lat="48.64977" lon="-4.31943">
        <ele>17</ele>
        <time>2025-09-24T09:06:18Z</time>
      </trkpt>
      <trkpt lat="48.64984" lon="-4.31942">
        <ele>17.2</ele>
        <time>2025-09-24T09:06:21Z</time>
      </trkpt>
      <trkpt lat="48.64998" lon="-4.31942">
        <ele>18.2</ele>
        <time>2025-09-24T09:06:27Z</time>
      </trkpt>
      <trkpt lat="48.65002" lon="-4.31942">
        <ele>18.4</ele>
        <time>2025-09-24T09:06:29Z</time>
      </trkpt>
      <trkpt lat="48.65011" lon="-4.31941">
        <ele>18.8</ele>
        <time>2025-09-24T09:06:35Z</time>
      </trkpt>
      <trkpt lat="48.65013" lon="-4.3194">
        <ele>18.8</ele>
        <time>2025-09-24T09:06:36Z</time>
      </trkpt>
      <trkpt lat="48.65018" lon="-4.31941">
        <ele>19.2</ele>
        <time>2025-09-24T09:06:39Z</time>
      </trkpt>
      <trkpt lat="48.6503" lon="-4.31941">
        <ele>19.8</ele>
        <time>2025-09-24T09:06:45Z</time>
      </trkpt>
      <trkpt lat="48.65039" lon="-4.31941">
        <ele>20.2</ele>
        <time>2025-09-24T09:06:50Z</time>
      </trkpt>
      <trkpt lat="48.65041" lon="-4.3194">
        <ele>20.4</ele>
        <time>2025-09-24T09:06:51Z</time>
      </trkpt>
      <trkpt lat="48.65042" lon="-4.31937">
        <ele>20.6</ele>
        <time>2025-09-24T09:06:52Z</time>
      </trkpt>
      <trkpt lat="48.65044" lon="-4.31919">
        <ele>21</ele>
        <time>2025-09-24T09:06:58Z</time>
      </trkpt>
      <trkpt lat="48.65045" lon="-4.31904">
        <ele>21.4</ele>
        <time>2025-09-24T09:07:04Z</time>
      </trkpt>
      <trkpt lat="48.65046" lon="-4.31898">
        <ele>21.6</ele>
        <time>2025-09-24T09:07:07Z</time>
      </trkpt>
      <trkpt lat="48.65046" lon="-4.3188">
        <ele>22</ele>
        <time>2025-09-24T09:07:13Z</time>
      </trkpt>
      <trkpt lat="48.65048" lon="-4.31872">
        <ele>22.4</ele>
        <time>2025-09-24T09:07:16Z</time>
      </trkpt>
      <trkpt lat="48.65049" lon="-4.31864">
        <ele>22.6</ele>
        <time>2025-09-24T09:07:19Z</time>
      </trkpt>
      <trkpt lat="48.65051" lon="-4.3186">
        <ele>22.8</ele>
        <time>2025-09-24T09:07:21Z</time>
      </trkpt>
      <trkpt lat="48.65054" lon="-4.31845">
        <ele>23.4</ele>
        <time>2025-09-24T09:07:27Z</time>
      </trkpt>
      <trkpt lat="48.65055" lon="-4.3184">
        <ele>23.6</ele>
        <time>2025-09-24T09:07:29Z</time>
      </trkpt>
      <trkpt lat="48.65057" lon="-4.31817">
        <ele>24</ele>
        <time>2025-09-24T09:07:38Z</time>
      </trkpt>
      <trkpt lat="48.65056" lon="-4.31803">
        <ele>24.4</ele>
        <time>2025-09-24T09:07:44Z</time>
      </trkpt>
      <trkpt lat="48.65056" lon="-4.31801">
        <ele>24.4</ele>
        <time>2025-09-24T09:07:45Z</time>
      </trkpt>
      <trkpt lat="48.65055" lon="-4.31795">
        <ele>25</ele>
        <time>2025-09-24T09:07:51Z</time>
      </trkpt>
      <trkpt lat="48.65054" lon="-4.31794">
        <ele>25</ele>
        <time>2025-09-24T09:07:52Z</time>
      </trkpt>
      <trkpt lat="48.65054" lon="-4.31794">
        <ele>25</ele>
        <time>2025-09-24T09:07:53Z</time>
      </trkpt>
      <trkpt lat="48.65056" lon="-4.31794">
        <ele>25.2</ele>
        <time>2025-09-24T09:08:28Z</time>
      </trkpt>
      <trkpt lat="48.65058" lon="-4.31793">
        <ele>25.2</ele>
        <time>2025-09-24T09:08:32Z</time>
      </trkpt>
      <trkpt lat="48.65059" lon="-4.31793">
        <ele>25.2</ele>
        <time>2025-09-24T09:08:35Z</time>
      </trkpt>
      <trkpt lat="48.65058" lon="-4.31792">
        <ele>25.2</ele>
        <time>2025-09-24T09:09:16Z</time>
      </trkpt>
      <trkpt lat="48.65057" lon="-4.31792">
        <ele>25.2</ele>
        <time>2025-09-24T09:09:17Z</time>
      </trkpt>
      <trkpt lat="48.65056" lon="-4.31793">
        <ele>25.2</ele>
        <time>2025-09-24T09:09:20Z</time>
      </trkpt>
      <trkpt lat="48.65055" lon="-4.31794">
        <ele>25.2</ele>
        <time>2025-09-24T09:09:22Z</time>
      </trkpt>
      <trkpt lat="48.65054" lon="-4.31793">
        <ele>25.2</ele>
        <time>2025-09-24T09:09:23Z</time>
      </trkpt>
      <trkpt lat="48.65052" lon="-4.31789">
        <ele>25.2</ele>
        <time>2025-09-24T09:09:28Z</time>
      </trkpt>
      <trkpt lat="48.65052" lon="-4.31786">
        <ele>25.4</ele>
        <time>2025-09-24T09:09:30Z</time>
      </trkpt>
      <trkpt lat="48.65052" lon="-4.31785">
        <ele>25.4</ele>
        <time>2025-09-24T09:09:31Z</time>
      </trkpt>
      <trkpt lat="48.6505" lon="-4.31781">
        <ele>25.6</ele>
        <time>2025-09-24T09:09:36Z</time>
      </trkpt>
      <trkpt lat="48.6505" lon="-4.31782">
        <ele>25.6</ele>
        <time>2025-09-24T09:09:37Z</time>
      </trkpt>
      <trkpt lat="48.65079" lon="-4.31796">
        <ele>24.6</ele>
        <time>2025-09-24T09:15:50Z</time>
      </trkpt>
      <trkpt lat="48.65079" lon="-4.31796">
        <ele>24.6</ele>
        <time>2025-09-24T09:15:51Z</time>
      </trkpt>
      <trkpt lat="48.65078" lon="-4.31797">
        <ele>24.6</ele>
        <time>2025-09-24T09:16:26Z</time>
      </trkpt>
      <trkpt lat="48.65077" lon="-4.31796">
        <ele>24.6</ele>
        <time>2025-09-24T09:16:28Z</time>
      </trkpt>
      <trkpt lat="48.65078" lon="-4.31794">
        <ele>24.6</ele>
        <time>2025-09-24T09:17:08Z</time>
      </trkpt>
      <trkpt lat="48.65079" lon="-4.31788">
        <ele>24.6</ele>
        <time>2025-09-24T09:17:12Z</time>
      </trkpt>
      <trkpt lat="48.65081" lon="-4.31787">
        <ele>24.6</ele>
        <time>2025-09-24T09:17:13Z</time>
      </trkpt>
      <trkpt lat="48.65083" lon="-4.31779">
        <ele>24.8</ele>
        <time>2025-09-24T09:17:16Z</time>
      </trkpt>
      <trkpt lat="48.65081" lon="-4.31766">
        <ele>25</ele>
        <time>2025-09-24T09:17:21Z</time>
      </trkpt>
      <trkpt lat="48.6508" lon="-4.3176">
        <ele>25.2</ele>
        <time>2025-09-24T09:17:23Z</time>
      </trkpt>
      <trkpt lat="48.65075" lon="-4.31744">
        <ele>25.2</ele>
        <time>2025-09-24T09:17:29Z</time>
      </trkpt>
      <trkpt lat="48.6507" lon="-4.31724">
        <ele>25.8</ele>
        <time>2025-09-24T09:17:36Z</time>
      </trkpt>
      <trkpt lat="48.65067" lon="-4.31709">
        <ele>25.8</ele>
        <time>2025-09-24T09:17:41Z</time>
      </trkpt>
      <trkpt lat="48.65067" lon="-4.31698">
        <ele>25.8</ele>
        <time>2025-09-24T09:17:44Z</time>
      </trkpt>
      <trkpt lat="48.65067" lon="-4.31672">
        <ele>25.4</ele>
        <time>2025-09-24T09:17:51Z</time>
      </trkpt>
      <trkpt lat="48.65067" lon="-4.31668">
        <ele>25.4</ele>
        <time>2025-09-24T09:17:52Z</time>
      </trkpt>
      <trkpt lat="48.6507" lon="-4.31648">
        <ele>26.8</ele>
        <time>2025-09-24T09:17:58Z</time>
      </trkpt>
      <trkpt lat="48.65071" lon="-4.31641">
        <ele>26.8</ele>
        <time>2025-09-24T09:18:00Z</time>
      </trkpt>
      <trkpt lat="48.65076" lon="-4.31628">
        <ele>25.6</ele>
        <time>2025-09-24T09:18:04Z</time>
      </trkpt>
      <trkpt lat="48.65079" lon="-4.31622">
        <ele>25.8</ele>
        <time>2025-09-24T09:18:06Z</time>
      </trkpt>
      <trkpt lat="48.65084" lon="-4.31605">
        <ele>26</ele>
        <time>2025-09-24T09:18:11Z</time>
      </trkpt>
      <trkpt lat="48.65088" lon="-4.31594">
        <ele>25.8</ele>
        <time>2025-09-24T09:18:14Z</time>
      </trkpt>
      <trkpt lat="48.65101" lon="-4.3157">
        <ele>25.6</ele>
        <time>2025-09-24T09:18:21Z</time>
      </trkpt>
      <trkpt lat="48.65113" lon="-4.31552">
        <ele>24.6</ele>
        <time>2025-09-24T09:18:26Z</time>
      </trkpt>
      <trkpt lat="48.65118" lon="-4.31545">
        <ele>24.4</ele>
        <time>2025-09-24T09:18:28Z</time>
      </trkpt>
      <trkpt lat="48.65121" lon="-4.31541">
        <ele>24.2</ele>
        <time>2025-09-24T09:18:29Z</time>
      </trkpt>
      <trkpt lat="48.65133" lon="-4.31526">
        <ele>23.6</ele>
        <time>2025-09-24T09:18:33Z</time>
      </trkpt>
      <trkpt lat="48.65147" lon="-4.31508">
        <ele>23.6</ele>
        <time>2025-09-24T09:18:37Z</time>
      </trkpt>
      <trkpt lat="48.65157" lon="-4.31495">
        <ele>22.8</ele>
        <time>2025-09-24T09:18:40Z</time>
      </trkpt>
      <trkpt lat="48.65165" lon="-4.31485">
        <ele>22.4</ele>
        <time>2025-09-24T09:18:42Z</time>
      </trkpt>
      <trkpt lat="48.65181" lon="-4.31465">
        <ele>23</ele>
        <time>2025-09-24T09:18:46Z</time>
      </trkpt>
      <trkpt lat="48.65208" lon="-4.31435">
        <ele>23</ele>
        <time>2025-09-24T09:18:53Z</time>
      </trkpt>
      <trkpt lat="48.65211" lon="-4.3143">
        <ele>22.8</ele>
        <time>2025-09-24T09:18:54Z</time>
      </trkpt>
      <trkpt lat="48.65215" lon="-4.31425">
        <ele>22.8</ele>
        <time>2025-09-24T09:18:55Z</time>
      </trkpt>
      <trkpt lat="48.65232" lon="-4.31394">
        <ele>22.6</ele>
        <time>2025-09-24T09:19:01Z</time>
      </trkpt>
      <trkpt lat="48.65241" lon="-4.31378">
        <ele>22.4</ele>
        <time>2025-09-24T09:19:04Z</time>
      </trkpt>
      <trkpt lat="48.65259" lon="-4.31341">
        <ele>22.2</ele>
        <time>2025-09-24T09:19:11Z</time>
      </trkpt>
      <trkpt lat="48.65265" lon="-4.31325">
        <ele>22.2</ele>
        <time>2025-09-24T09:19:14Z</time>
      </trkpt>
      <trkpt lat="48.65277" lon="-4.31296">
        <ele>21.4</ele>
        <time>2025-09-24T09:19:19Z</time>
      </trkpt>
      <trkpt lat="48.65286" lon="-4.31273">
        <ele>20.6</ele>
        <time>2025-09-24T09:19:23Z</time>
      </trkpt>
      <trkpt lat="48.65305" lon="-4.31229">
        <ele>21.2</ele>
        <time>2025-09-24T09:19:31Z</time>
      </trkpt>
      <trkpt lat="48.65319" lon="-4.31191">
        <ele>20.8</ele>
        <time>2025-09-24T09:19:38Z</time>
      </trkpt>
      <trkpt lat="48.65326" lon="-4.31176">
        <ele>20.4</ele>
        <time>2025-09-24T09:19:41Z</time>
      </trkpt>
      <trkpt lat="48.65344" lon="-4.31144">
        <ele>21</ele>
        <time>2025-09-24T09:19:48Z</time>
      </trkpt>
      <trkpt lat="48.65365" lon="-4.31103">
        <ele>21.6</ele>
        <time>2025-09-24T09:19:58Z</time>
      </trkpt>
      <trkpt lat="48.65373" lon="-4.3109">
        <ele>22.4</ele>
        <time>2025-09-24T09:20:02Z</time>
      </trkpt>
      <trkpt lat="48.6538" lon="-4.31075">
        <ele>23.6</ele>
        <time>2025-09-24T09:20:07Z</time>
      </trkpt>
      <trkpt lat="48.65382" lon="-4.31072">
        <ele>24</ele>
        <time>2025-09-24T09:20:08Z</time>
      </trkpt>
      <trkpt lat="48.65386" lon="-4.31063">
        <ele>24.8</ele>
        <time>2025-09-24T09:20:11Z</time>
      </trkpt>
      <trkpt lat="48.65396" lon="-4.31042">
        <ele>26</ele>
        <time>2025-09-24T09:20:18Z</time>
      </trkpt>
      <trkpt lat="48.65402" lon="-4.3101">
        <ele>26.8</ele>
        <time>2025-09-24T09:20:25Z</time>
      </trkpt>
      <trkpt lat="48.65402" lon="-4.31003">
        <ele>26.8</ele>
        <time>2025-09-24T09:20:26Z</time>
      </trkpt>
      <trkpt lat="48.65398" lon="-4.30973">
        <ele>26</ele>
        <time>2025-09-24T09:20:30Z</time>
      </trkpt>
      <trkpt lat="48.65391" lon="-4.30938">
        <ele>25.4</ele>
        <time>2025-09-24T09:20:35Z</time>
      </trkpt>
      <trkpt lat="48.65389" lon="-4.30925">
        <ele>25.2</ele>
        <time>2025-09-24T09:20:37Z</time>
      </trkpt>
      <trkpt lat="48.65387" lon="-4.30918">
        <ele>25.2</ele>
        <time>2025-09-24T09:20:38Z</time>
      </trkpt>
      <trkpt lat="48.65374" lon="-4.30855">
        <ele>25.4</ele>
        <time>2025-09-24T09:20:48Z</time>
      </trkpt>
      <trkpt lat="48.65365" lon="-4.308">
        <ele>25.8</ele>
        <time>2025-09-24T09:20:57Z</time>
      </trkpt>
      <trkpt lat="48.65367" lon="-4.30764">
        <ele>26.4</ele>
        <time>2025-09-24T09:21:04Z</time>
      </trkpt>
      <trkpt lat="48.65375" lon="-4.30734">
        <ele>27</ele>
        <time>2025-09-24T09:21:11Z</time>
      </trkpt>
      <trkpt lat="48.65392" lon="-4.30694">
        <ele>26.6</ele>
        <time>2025-09-24T09:21:19Z</time>
      </trkpt>
      <trkpt lat="48.65413" lon="-4.30652">
        <ele>25</ele>
        <time>2025-09-24T09:21:26Z</time>
      </trkpt>
      <trkpt lat="48.65429" lon="-4.30625">
        <ele>23.8</ele>
        <time>2025-09-24T09:21:30Z</time>
      </trkpt>
      <trkpt lat="48.65439" lon="-4.30612">
        <ele>23.2</ele>
        <time>2025-09-24T09:21:32Z</time>
      </trkpt>
      <trkpt lat="48.65451" lon="-4.30603">
        <ele>22.6</ele>
        <time>2025-09-24T09:21:34Z</time>
      </trkpt>
      <trkpt lat="48.65465" lon="-4.30598">
        <ele>21.8</ele>
        <time>2025-09-24T09:21:36Z</time>
      </trkpt>
      <trkpt lat="48.65472" lon="-4.30596">
        <ele>21.4</ele>
        <time>2025-09-24T09:21:37Z</time>
      </trkpt>
      <trkpt lat="48.65495" lon="-4.3059">
        <ele>20</ele>
        <time>2025-09-24T09:21:40Z</time>
      </trkpt>
      <trkpt lat="48.65502" lon="-4.30586">
        <ele>19.4</ele>
        <time>2025-09-24T09:21:41Z</time>
      </trkpt>
      <trkpt lat="48.65509" lon="-4.30581">
        <ele>18.8</ele>
        <time>2025-09-24T09:21:42Z</time>
      </trkpt>
      <trkpt lat="48.6552" lon="-4.30565">
        <ele>17.8</ele>
        <time>2025-09-24T09:21:44Z</time>
      </trkpt>
      <trkpt lat="48.65528" lon="-4.30546">
        <ele>16.8</ele>
        <time>2025-09-24T09:21:46Z</time>
      </trkpt>
      <trkpt lat="48.65531" lon="-4.30535">
        <ele>16.4</ele>
        <time>2025-09-24T09:21:47Z</time>
      </trkpt>
      <trkpt lat="48.65533" lon="-4.30523">
        <ele>16</ele>
        <time>2025-09-24T09:21:48Z</time>
      </trkpt>
      <trkpt lat="48.65536" lon="-4.30499">
        <ele>15.4</ele>
        <time>2025-09-24T09:21:50Z</time>
      </trkpt>
      <trkpt lat="48.6554" lon="-4.30464">
        <ele>14.4</ele>
        <time>2025-09-24T09:21:53Z</time>
      </trkpt>
      <trkpt lat="48.65541" lon="-4.30452">
        <ele>14</ele>
        <time>2025-09-24T09:21:54Z</time>
      </trkpt>
      <trkpt lat="48.65544" lon="-4.30416">
        <ele>12.8</ele>
        <time>2025-09-24T09:21:57Z</time>
      </trkpt>
      <trkpt lat="48.6555" lon="-4.30392">
        <ele>11.8</ele>
        <time>2025-09-24T09:21:59Z</time>
      </trkpt>
      <trkpt lat="48.65554" lon="-4.30382">
        <ele>11.6</ele>
        <time>2025-09-24T09:22:00Z</time>
      </trkpt>
      <trkpt lat="48.65559" lon="-4.30373">
        <ele>11.2</ele>
        <time>2025-09-24T09:22:01Z</time>
      </trkpt>
      <trkpt lat="48.65569" lon="-4.30356">
        <ele>10.8</ele>
        <time>2025-09-24T09:22:03Z</time>
      </trkpt>
      <trkpt lat="48.65584" lon="-4.30334">
        <ele>10.6</ele>
        <time>2025-09-24T09:22:06Z</time>
      </trkpt>
      <trkpt lat="48.656" lon="-4.30316">
        <ele>10.2</ele>
        <time>2025-09-24T09:22:09Z</time>
      </trkpt>
      <trkpt lat="48.6561" lon="-4.30308">
        <ele>10.4</ele>
        <time>2025-09-24T09:22:11Z</time>
      </trkpt>
      <trkpt lat="48.65621" lon="-4.30303">
        <ele>10.6</ele>
        <time>2025-09-24T09:22:13Z</time>
      </trkpt>
      <trkpt lat="48.65654" lon="-4.30289">
        <ele>9.6</ele>
        <time>2025-09-24T09:22:20Z</time>
      </trkpt>
      <trkpt lat="48.65659" lon="-4.30287">
        <ele>9.4</ele>
        <time>2025-09-24T09:22:21Z</time>
      </trkpt>
      <trkpt lat="48.65676" lon="-4.30276">
        <ele>9.4</ele>
        <time>2025-09-24T09:22:27Z</time>
      </trkpt>
      <trkpt lat="48.65676" lon="-4.30276">
        <ele>9.2</ele>
        <time>2025-09-24T09:22:29Z</time>
      </trkpt>
      <trkpt lat="48.65677" lon="-4.30276">
        <ele>9.2</ele>
        <time>2025-09-24T09:22:46Z</time>
      </trkpt>
      <trkpt lat="48.65679" lon="-4.30276">
        <ele>9.2</ele>
        <time>2025-09-24T09:22:47Z</time>
      </trkpt>
      <trkpt lat="48.65692" lon="-4.30271">
        <ele>9.4</ele>
        <time>2025-09-24T09:22:51Z</time>
      </trkpt>
      <trkpt lat="48.65722" lon="-4.30252">
        <ele>9.4</ele>
        <time>2025-09-24T09:22:58Z</time>
      </trkpt>
      <trkpt lat="48.65746" lon="-4.30232">
        <ele>9.4</ele>
        <time>2025-09-24T09:23:04Z</time>
      </trkpt>
      <trkpt lat="48.6579" lon="-4.30197">
        <ele>10.4</ele>
        <time>2025-09-24T09:23:14Z</time>
      </trkpt>
      <trkpt lat="48.65795" lon="-4.30193">
        <ele>10.6</ele>
        <time>2025-09-24T09:23:15Z</time>
      </trkpt>
      <trkpt lat="48.65827" lon="-4.30164">
        <ele>11.2</ele>
        <time>2025-09-24T09:23:22Z</time>
      </trkpt>
      <trkpt lat="48.65831" lon="-4.3016">
        <ele>11.2</ele>
        <time>2025-09-24T09:23:23Z</time>
      </trkpt>
      <trkpt lat="48.6585" lon="-4.3014">
        <ele>11</ele>
        <time>2025-09-24T09:23:28Z</time>
      </trkpt>
      <trkpt lat="48.65858" lon="-4.30129">
        <ele>10.8</ele>
        <time>2025-09-24T09:23:31Z</time>
      </trkpt>
      <trkpt lat="48.65863" lon="-4.30122">
        <ele>10.8</ele>
        <time>2025-09-24T09:23:33Z</time>
      </trkpt>
      <trkpt lat="48.65866" lon="-4.30119">
        <ele>10.8</ele>
        <time>2025-09-24T09:23:34Z</time>
      </trkpt>
      <trkpt lat="48.65868" lon="-4.30115">
        <ele>10.8</ele>
        <time>2025-09-24T09:23:35Z</time>
      </trkpt>
      <trkpt lat="48.65873" lon="-4.30108">
        <ele>10.8</ele>
        <time>2025-09-24T09:23:37Z</time>
      </trkpt>
      <trkpt lat="48.65889" lon="-4.30086">
        <ele>10.8</ele>
        <time>2025-09-24T09:23:43Z</time>
      </trkpt>
      <trkpt lat="48.65915" lon="-4.30048">
        <ele>10.4</ele>
        <time>2025-09-24T09:23:54Z</time>
      </trkpt>
      <trkpt lat="48.6593" lon="-4.30022">
        <ele>10.2</ele>
        <time>2025-09-24T09:24:02Z</time>
      </trkpt>
      <trkpt lat="48.65934" lon="-4.30013">
        <ele>10</ele>
        <time>2025-09-24T09:24:04Z</time>
      </trkpt>
      <trkpt lat="48.65948" lon="-4.29987">
        <ele>10.2</ele>
        <time>2025-09-24T09:24:10Z</time>
      </trkpt>
      <trkpt lat="48.65956" lon="-4.29961">
        <ele>10.4</ele>
        <time>2025-09-24T09:24:16Z</time>
      </trkpt>
      <trkpt lat="48.65958" lon="-4.29947">
        <ele>10.6</ele>
        <time>2025-09-24T09:24:21Z</time>
      </trkpt>
      <trkpt lat="48.65959" lon="-4.29942">
        <ele>11</ele>
        <time>2025-09-24T09:24:26Z</time>
      </trkpt>
      <trkpt lat="48.65961" lon="-4.2994">
        <ele>10.8</ele>
        <time>2025-09-24T09:24:29Z</time>
      </trkpt>
      <trkpt lat="48.65962" lon="-4.29931">
        <ele>11</ele>
        <time>2025-09-24T09:24:35Z</time>
      </trkpt>
      <trkpt lat="48.65963" lon="-4.29923">
        <ele>11.6</ele>
        <time>2025-09-24T09:24:41Z</time>
      </trkpt>
      <trkpt lat="48.65962" lon="-4.29922">
        <ele>11.6</ele>
        <time>2025-09-24T09:24:43Z</time>
      </trkpt>
      <trkpt lat="48.65961" lon="-4.2992">
        <ele>11.6</ele>
        <time>2025-09-24T09:24:45Z</time>
      </trkpt>
      <trkpt lat="48.6596" lon="-4.29917">
        <ele>11.4</ele>
        <time>2025-09-24T09:24:47Z</time>
      </trkpt>
      <trkpt lat="48.65958" lon="-4.29915">
        <ele>11.2</ele>
        <time>2025-09-24T09:24:49Z</time>
      </trkpt>
      <trkpt lat="48.65957" lon="-4.29914">
        <ele>11.2</ele>
        <time>2025-09-24T09:24:50Z</time>
      </trkpt>
      <trkpt lat="48.65956" lon="-4.29913">
        <ele>11.2</ele>
        <time>2025-09-24T09:24:53Z</time>
      </trkpt>
      <trkpt lat="48.65958" lon="-4.29914">
        <ele>11.2</ele>
        <time>2025-09-24T09:26:14Z</time>
      </trkpt>
      <trkpt lat="48.65959" lon="-4.29915">
        <ele>11.2</ele>
        <time>2025-09-24T09:26:15Z</time>
      </trkpt>
      <trkpt lat="48.65961" lon="-4.2992">
        <ele>11.2</ele>
        <time>2025-09-24T09:26:19Z</time>
      </trkpt>
      <trkpt lat="48.65962" lon="-4.29923">
        <ele>11.6</ele>
        <time>2025-09-24T09:26:22Z</time>
      </trkpt>
      <trkpt lat="48.65962" lon="-4.29925">
        <ele>11.8</ele>
        <time>2025-09-24T09:26:25Z</time>
      </trkpt>
      <trkpt lat="48.65962" lon="-4.29928">
        <ele>12</ele>
        <time>2025-09-24T09:29:34Z</time>
      </trkpt>
      <trkpt lat="48.65962" lon="-4.29929">
        <ele>12</ele>
        <time>2025-09-24T09:29:35Z</time>
      </trkpt>
      <trkpt lat="48.65963" lon="-4.29934">
        <ele>12</ele>
        <time>2025-09-24T09:29:41Z</time>
      </trkpt>
      <trkpt lat="48.65963" lon="-4.29936">
        <ele>11.8</ele>
        <time>2025-09-24T09:29:43Z</time>
      </trkpt>
      <trkpt lat="48.65965" lon="-4.29938">
        <ele>11.8</ele>
        <time>2025-09-24T09:29:45Z</time>
      </trkpt>
      <trkpt lat="48.65967" lon="-4.29939">
        <ele>12</ele>
        <time>2025-09-24T09:29:46Z</time>
      </trkpt>
      <trkpt lat="48.65974" lon="-4.29933">
        <ele>12</ele>
        <time>2025-09-24T09:29:51Z</time>
      </trkpt>
      <trkpt lat="48.65984" lon="-4.29918">
        <ele>12.2</ele>
        <time>2025-09-24T09:29:57Z</time>
      </trkpt>
      <trkpt lat="48.65989" lon="-4.29912">
        <ele>12.2</ele>
        <time>2025-09-24T09:29:59Z</time>
      </trkpt>
      <trkpt lat="48.66" lon="-4.29899">
        <ele>12.4</ele>
        <time>2025-09-24T09:30:04Z</time>
      </trkpt>
      <trkpt lat="48.66019" lon="-4.29873">
        <ele>11.8</ele>
        <time>2025-09-24T09:30:12Z</time>
      </trkpt>
      <trkpt lat="48.66033" lon="-4.29855">
        <ele>11.8</ele>
        <time>2025-09-24T09:30:17Z</time>
      </trkpt>
      <trkpt lat="48.66038" lon="-4.29848">
        <ele>11.8</ele>
        <time>2025-09-24T09:30:19Z</time>
      </trkpt>
      <trkpt lat="48.66047" lon="-4.29833">
        <ele>11.2</ele>
        <time>2025-09-24T09:30:23Z</time>
      </trkpt>
      <trkpt lat="48.6606" lon="-4.29812">
        <ele>10.8</ele>
        <time>2025-09-24T09:30:28Z</time>
      </trkpt>
      <trkpt lat="48.66068" lon="-4.298">
        <ele>10.6</ele>
        <time>2025-09-24T09:30:31Z</time>
      </trkpt>
      <trkpt lat="48.66072" lon="-4.29792">
        <ele>10.4</ele>
        <time>2025-09-24T09:30:33Z</time>
      </trkpt>
      <trkpt lat="48.66083" lon="-4.29773">
        <ele>10.2</ele>
        <time>2025-09-24T09:30:38Z</time>
      </trkpt>
      <trkpt lat="48.66102" lon="-4.29742">
        <ele>10.6</ele>
        <time>2025-09-24T09:30:46Z</time>
      </trkpt>
      <trkpt lat="48.66104" lon="-4.29738">
        <ele>10.6</ele>
        <time>2025-09-24T09:30:47Z</time>
      </trkpt>
      <trkpt lat="48.66122" lon="-4.29709">
        <ele>10.8</ele>
        <time>2025-09-24T09:30:55Z</time>
      </trkpt>
      <trkpt lat="48.66125" lon="-4.29705">
        <ele>10.8</ele>
        <time>2025-09-24T09:30:56Z</time>
      </trkpt>
      <trkpt lat="48.66142" lon="-4.29677">
        <ele>11.2</ele>
        <time>2025-09-24T09:31:04Z</time>
      </trkpt>
      <trkpt lat="48.66144" lon="-4.29674">
        <ele>11.4</ele>
        <time>2025-09-24T09:31:05Z</time>
      </trkpt>
      <trkpt lat="48.66163" lon="-4.29645">
        <ele>12</ele>
        <time>2025-09-24T09:31:14Z</time>
      </trkpt>
      <trkpt lat="48.66167" lon="-4.29637">
        <ele>12.4</ele>
        <time>2025-09-24T09:31:18Z</time>
      </trkpt>
      <trkpt lat="48.66166" lon="-4.29636">
        <ele>12.4</ele>
        <time>2025-09-24T09:31:19Z</time>
      </trkpt>
      <trkpt lat="48.66157" lon="-4.29629">
        <ele>12.4</ele>
        <time>2025-09-24T09:31:24Z</time>
      </trkpt>
      <trkpt lat="48.66155" lon="-4.29625">
        <ele>12.4</ele>
        <time>2025-09-24T09:31:26Z</time>
      </trkpt>
      <trkpt lat="48.66153" lon="-4.29618">
        <ele>12.6</ele>
        <time>2025-09-24T09:31:30Z</time>
      </trkpt>
      <trkpt lat="48.66151" lon="-4.29601">
        <ele>12.6</ele>
        <time>2025-09-24T09:31:36Z</time>
      </trkpt>
      <trkpt lat="48.66145" lon="-4.29585">
        <ele>12.6</ele>
        <time>2025-09-24T09:31:42Z</time>
      </trkpt>
      <trkpt lat="48.66138" lon="-4.29565">
        <ele>12.6</ele>
        <time>2025-09-24T09:31:49Z</time>
      </trkpt>
      <trkpt lat="48.66134" lon="-4.29551">
        <ele>12.2</ele>
        <time>2025-09-24T09:31:54Z</time>
      </trkpt>
      <trkpt lat="48.66133" lon="-4.2955">
        <ele>12.2</ele>
        <time>2025-09-24T09:31:55Z</time>
      </trkpt>
      <trkpt lat="48.66127" lon="-4.29538">
        <ele>12.4</ele>
        <time>2025-09-24T09:32:02Z</time>
      </trkpt>
      <trkpt lat="48.66124" lon="-4.29532">
        <ele>12.6</ele>
        <time>2025-09-24T09:32:08Z</time>
      </trkpt>
      <trkpt lat="48.66123" lon="-4.29531">
        <ele>12.6</ele>
        <time>2025-09-24T09:32:12Z</time>
      </trkpt>
      <trkpt lat="48.66121" lon="-4.29525">
        <ele>12.2</ele>
        <time>2025-09-24T09:32:16Z</time>
      </trkpt>
      <trkpt lat="48.66124" lon="-4.2951">
        <ele>12.2</ele>
        <time>2025-09-24T09:32:22Z</time>
      </trkpt>
      <trkpt lat="48.66129" lon="-4.29493">
        <ele>12.2</ele>
        <time>2025-09-24T09:32:28Z</time>
      </trkpt>
      <trkpt lat="48.66131" lon="-4.29487">
        <ele>12</ele>
        <time>2025-09-24T09:32:30Z</time>
      </trkpt>
      <trkpt lat="48.66132" lon="-4.29484">
        <ele>12</ele>
        <time>2025-09-24T09:32:31Z</time>
      </trkpt>
      <trkpt lat="48.66135" lon="-4.29479">
        <ele>12</ele>
        <time>2025-09-24T09:32:33Z</time>
      </trkpt>
      <trkpt lat="48.6614" lon="-4.29472">
        <ele>12.4</ele>
        <time>2025-09-24T09:32:37Z</time>
      </trkpt>
      <trkpt lat="48.66148" lon="-4.29462">
        <ele>12.8</ele>
        <time>2025-09-24T09:32:45Z</time>
      </trkpt>
      <trkpt lat="48.66148" lon="-4.29462">
        <ele>12.6</ele>
        <time>2025-09-24T09:32:47Z</time>
      </trkpt>
      <trkpt lat="48.66148" lon="-4.29461">
        <ele>13</ele>
        <time>2025-09-24T09:32:51Z</time>
      </trkpt>
      <trkpt lat="48.66149" lon="-4.29461">
        <ele>13</ele>
        <time>2025-09-24T09:32:52Z</time>
      </trkpt>
      <trkpt lat="48.66149" lon="-4.29461">
        <ele>13</ele>
        <time>2025-09-24T09:32:53Z</time>
      </trkpt>
      <trkpt lat="48.6615" lon="-4.29461">
        <ele>13</ele>
        <time>2025-09-24T09:33:17Z</time>
      </trkpt>
      <trkpt lat="48.66152" lon="-4.2946">
        <ele>13</ele>
        <time>2025-09-24T09:33:20Z</time>
      </trkpt>
      <trkpt lat="48.66157" lon="-4.29465">
        <ele>13</ele>
        <time>2025-09-24T09:33:24Z</time>
      </trkpt>
      <trkpt lat="48.66162" lon="-4.29471">
        <ele>12.6</ele>
        <time>2025-09-24T09:33:30Z</time>
      </trkpt>
      <trkpt lat="48.66165" lon="-4.29472">
        <ele>11.8</ele>
        <time>2025-09-24T09:33:35Z</time>
      </trkpt>
      <trkpt lat="48.66164" lon="-4.29471">
        <ele>11.2</ele>
        <time>2025-09-24T09:33:53Z</time>
      </trkpt>
      <trkpt lat="48.66163" lon="-4.29471">
        <ele>11.2</ele>
        <time>2025-09-24T09:33:54Z</time>
      </trkpt>
      <trkpt lat="48.66161" lon="-4.29469">
        <ele>11.2</ele>
        <time>2025-09-24T09:33:56Z</time>
      </trkpt>
      <trkpt lat="48.66157" lon="-4.29462">
        <ele>12</ele>
        <time>2025-09-24T09:34:02Z</time>
      </trkpt>
      <trkpt lat="48.66156" lon="-4.29459">
        <ele>12</ele>
        <time>2025-09-24T09:34:05Z</time>
      </trkpt>
      <trkpt lat="48.66158" lon="-4.29458">
        <ele>12.4</ele>
        <time>2025-09-24T09:34:07Z</time>
      </trkpt>
      <trkpt lat="48.66159" lon="-4.29455">
        <ele>12.8</ele>
        <time>2025-09-24T09:34:09Z</time>
      </trkpt>
      <trkpt lat="48.66159" lon="-4.2945">
        <ele>12.6</ele>
        <time>2025-09-24T09:34:12Z</time>
      </trkpt>
      <trkpt lat="48.66159" lon="-4.2945">
        <ele>12.8</ele>
        <time>2025-09-24T09:34:15Z</time>
      </trkpt>
      <trkpt lat="48.66158" lon="-4.2945">
        <ele>12.6</ele>
        <time>2025-09-24T09:34:23Z</time>
      </trkpt>
      <trkpt lat="48.66156" lon="-4.29452">
        <ele>12.6</ele>
        <time>2025-09-24T09:34:25Z</time>
      </trkpt>
      <trkpt lat="48.66149" lon="-4.29459">
        <ele>12.4</ele>
        <time>2025-09-24T09:34:32Z</time>
      </trkpt>
      <trkpt lat="48.66148" lon="-4.29461">
        <ele>12.4</ele>
        <time>2025-09-24T09:34:35Z</time>
      </trkpt>
      <trkpt lat="48.66149" lon="-4.29463">
        <ele>12.4</ele>
        <time>2025-09-24T09:36:26Z</time>
      </trkpt>
      <trkpt lat="48.66149" lon="-4.29465">
        <ele>12.4</ele>
        <time>2025-09-24T09:36:29Z</time>
      </trkpt>
      <trkpt lat="48.66149" lon="-4.29465">
        <ele>12.4</ele>
        <time>2025-09-24T09:36:30Z</time>
      </trkpt>
      <trkpt lat="48.66147" lon="-4.2947">
        <ele>12</ele>
        <time>2025-09-24T09:38:22Z</time>
      </trkpt>
      <trkpt lat="48.66147" lon="-4.29471">
        <ele>12</ele>
        <time>2025-09-24T09:38:23Z</time>
      </trkpt>
      <trkpt lat="48.66145" lon="-4.29476">
        <ele>12.2</ele>
        <time>2025-09-24T09:38:25Z</time>
      </trkpt>
      <trkpt lat="48.6614" lon="-4.29495">
        <ele>11.8</ele>
        <time>2025-09-24T09:38:33Z</time>
      </trkpt>
      <trkpt lat="48.66138" lon="-4.29506">
        <ele>12</ele>
        <time>2025-09-24T09:38:40Z</time>
      </trkpt>
      <trkpt lat="48.66138" lon="-4.29507">
        <ele>12</ele>
        <time>2025-09-24T09:38:41Z</time>
      </trkpt>
      <trkpt lat="48.66138" lon="-4.29507">
        <ele>12</ele>
        <time>2025-09-24T09:38:57Z</time>
      </trkpt>
      <trkpt lat="48.66137" lon="-4.29509">
        <ele>12</ele>
        <time>2025-09-24T09:38:59Z</time>
      </trkpt>
      <trkpt lat="48.66136" lon="-4.29512">
        <ele>12</ele>
        <time>2025-09-24T09:39:01Z</time>
      </trkpt>
      <trkpt lat="48.66135" lon="-4.29518">
        <ele>12</ele>
        <time>2025-09-24T09:39:08Z</time>
      </trkpt>
      <trkpt lat="48.66135" lon="-4.29519">
        <ele>12</ele>
        <time>2025-09-24T09:39:13Z</time>
      </trkpt>
      <trkpt lat="48.66134" lon="-4.29527">
        <ele>11.8</ele>
        <time>2025-09-24T09:39:17Z</time>
      </trkpt>
      <trkpt lat="48.66133" lon="-4.2954">
        <ele>11.8</ele>
        <time>2025-09-24T09:39:24Z</time>
      </trkpt>
      <trkpt lat="48.66135" lon="-4.29553">
        <ele>12</ele>
        <time>2025-09-24T09:39:30Z</time>
      </trkpt>
      <trkpt lat="48.66139" lon="-4.29565">
        <ele>12</ele>
        <time>2025-09-24T09:39:37Z</time>
      </trkpt>
      <trkpt lat="48.66143" lon="-4.29579">
        <ele>12.2</ele>
        <time>2025-09-24T09:39:45Z</time>
      </trkpt>
      <trkpt lat="48.66145" lon="-4.29585">
        <ele>12.2</ele>
        <time>2025-09-24T09:39:47Z</time>
      </trkpt>
      <trkpt lat="48.6615" lon="-4.29598">
        <ele>12.2</ele>
        <time>2025-09-24T09:39:54Z</time>
      </trkpt>
      <trkpt lat="48.66152" lon="-4.29613">
        <ele>12</ele>
        <time>2025-09-24T09:40:01Z</time>
      </trkpt>
      <trkpt lat="48.66154" lon="-4.29619">
        <ele>12.2</ele>
        <time>2025-09-24T09:40:04Z</time>
      </trkpt>
      <trkpt lat="48.66156" lon="-4.29623">
        <ele>12</ele>
        <time>2025-09-24T09:40:06Z</time>
      </trkpt>
      <trkpt lat="48.66156" lon="-4.29623">
        <ele>12</ele>
        <time>2025-09-24T09:40:08Z</time>
      </trkpt>
      <trkpt lat="48.66155" lon="-4.29625">
        <ele>12</ele>
        <time>2025-09-24T09:40:31Z</time>
      </trkpt>
      <trkpt lat="48.66156" lon="-4.29627">
        <ele>12</ele>
        <time>2025-09-24T09:40:32Z</time>
      </trkpt>
      <trkpt lat="48.66159" lon="-4.29635">
        <ele>12</ele>
        <time>2025-09-24T09:40:35Z</time>
      </trkpt>
      <trkpt lat="48.66161" lon="-4.29637">
        <ele>12.2</ele>
        <time>2025-09-24T09:40:36Z</time>
      </trkpt>
      <trkpt lat="48.66163" lon="-4.29637">
        <ele>12.2</ele>
        <time>2025-09-24T09:40:37Z</time>
      </trkpt>
      <trkpt lat="48.66167" lon="-4.29634">
        <ele>12</ele>
        <time>2025-09-24T09:40:39Z</time>
      </trkpt>
      <trkpt lat="48.66172" lon="-4.29627">
        <ele>12.2</ele>
        <time>2025-09-24T09:40:42Z</time>
      </trkpt>
      <trkpt lat="48.66188" lon="-4.29603">
        <ele>12.6</ele>
        <time>2025-09-24T09:40:51Z</time>
      </trkpt>
      <trkpt lat="48.66205" lon="-4.29598">
        <ele>13.2</ele>
        <time>2025-09-24T09:40:57Z</time>
      </trkpt>
      <trkpt lat="48.66225" lon="-4.29608">
        <ele>13</ele>
        <time>2025-09-24T09:41:04Z</time>
      </trkpt>
      <trkpt lat="48.66251" lon="-4.29626">
        <ele>13.4</ele>
        <time>2025-09-24T09:41:14Z</time>
      </trkpt>
      <trkpt lat="48.66254" lon="-4.29628">
        <ele>13.4</ele>
        <time>2025-09-24T09:41:15Z</time>
      </trkpt>
      <trkpt lat="48.66272" lon="-4.29641">
        <ele>13.6</ele>
        <time>2025-09-24T09:41:22Z</time>
      </trkpt>
      <trkpt lat="48.66277" lon="-4.29645">
        <ele>13.8</ele>
        <time>2025-09-24T09:41:24Z</time>
      </trkpt>
      <trkpt lat="48.66299" lon="-4.29663">
        <ele>14</ele>
        <time>2025-09-24T09:41:33Z</time>
      </trkpt>
      <trkpt lat="48.66318" lon="-4.29682">
        <ele>14.4</ele>
        <time>2025-09-24T09:41:41Z</time>
      </trkpt>
      <trkpt lat="48.6632" lon="-4.29684">
        <ele>14.4</ele>
        <time>2025-09-24T09:41:42Z</time>
      </trkpt>
      <trkpt lat="48.6635" lon="-4.29721">
        <ele>15</ele>
        <time>2025-09-24T09:41:55Z</time>
      </trkpt>
      <trkpt lat="48.66377" lon="-4.29753">
        <ele>15.2</ele>
        <time>2025-09-24T09:42:06Z</time>
      </trkpt>
      <trkpt lat="48.66387" lon="-4.29765">
        <ele>15.6</ele>
        <time>2025-09-24T09:42:10Z</time>
      </trkpt>
      <trkpt lat="48.66397" lon="-4.29778">
        <ele>15.4</ele>
        <time>2025-09-24T09:42:14Z</time>
      </trkpt>
      <trkpt lat="48.66419" lon="-4.29815">
        <ele>15.4</ele>
        <time>2025-09-24T09:42:23Z</time>
      </trkpt>
      <trkpt lat="48.66429" lon="-4.29851">
        <ele>15.4</ele>
        <time>2025-09-24T09:42:30Z</time>
      </trkpt>
      <trkpt lat="48.66436" lon="-4.29907">
        <ele>15</ele>
        <time>2025-09-24T09:42:40Z</time>
      </trkpt>
      <trkpt lat="48.66437" lon="-4.29917">
        <ele>15</ele>
        <time>2025-09-24T09:42:42Z</time>
      </trkpt>
      <trkpt lat="48.6644" lon="-4.29945">
        <ele>15</ele>
        <time>2025-09-24T09:42:48Z</time>
      </trkpt>
      <trkpt lat="48.66445" lon="-4.29996">
        <ele>15.2</ele>
        <time>2025-09-24T09:42:58Z</time>
      </trkpt>
      <trkpt lat="48.66449" lon="-4.30034">
        <ele>15</ele>
        <time>2025-09-24T09:43:05Z</time>
      </trkpt>
      <trkpt lat="48.66454" lon="-4.3008">
        <ele>14.4</ele>
        <time>2025-09-24T09:43:13Z</time>
      </trkpt>
      <trkpt lat="48.66456" lon="-4.30092">
        <ele>14.4</ele>
        <time>2025-09-24T09:43:15Z</time>
      </trkpt>
      <trkpt lat="48.66463" lon="-4.30156">
        <ele>14</ele>
        <time>2025-09-24T09:43:25Z</time>
      </trkpt>
      <trkpt lat="48.66471" lon="-4.30232">
        <ele>13.8</ele>
        <time>2025-09-24T09:43:36Z</time>
      </trkpt>
      <trkpt lat="48.66474" lon="-4.30261">
        <ele>13.4</ele>
        <time>2025-09-24T09:43:40Z</time>
      </trkpt>
      <trkpt lat="48.66478" lon="-4.30299">
        <ele>12.6</ele>
        <time>2025-09-24T09:43:45Z</time>
      </trkpt>
      <trkpt lat="48.6648" lon="-4.30315">
        <ele>12.4</ele>
        <time>2025-09-24T09:43:47Z</time>
      </trkpt>
      <trkpt lat="48.66487" lon="-4.30361">
        <ele>11.8</ele>
        <time>2025-09-24T09:43:52Z</time>
      </trkpt>
      <trkpt lat="48.66497" lon="-4.30407">
        <ele>11.2</ele>
        <time>2025-09-24T09:43:57Z</time>
      </trkpt>
      <trkpt lat="48.66503" lon="-4.30433">
        <ele>10.8</ele>
        <time>2025-09-24T09:44:00Z</time>
      </trkpt>
      <trkpt lat="48.66505" lon="-4.30441">
        <ele>10.8</ele>
        <time>2025-09-24T09:44:01Z</time>
      </trkpt>
      <trkpt lat="48.66522" lon="-4.305">
        <ele>11</ele>
        <time>2025-09-24T09:44:09Z</time>
      </trkpt>
      <trkpt lat="48.66528" lon="-4.30521">
        <ele>11</ele>
        <time>2025-09-24T09:44:12Z</time>
      </trkpt>
      <trkpt lat="48.66542" lon="-4.30568">
        <ele>10.8</ele>
        <time>2025-09-24T09:44:19Z</time>
      </trkpt>
      <trkpt lat="48.66563" lon="-4.30636">
        <ele>11.4</ele>
        <time>2025-09-24T09:44:30Z</time>
      </trkpt>
      <trkpt lat="48.66582" lon="-4.3069">
        <ele>11</ele>
        <time>2025-09-24T09:44:39Z</time>
      </trkpt>
      <trkpt lat="48.66589" lon="-4.30708">
        <ele>11.2</ele>
        <time>2025-09-24T09:44:42Z</time>
      </trkpt>
      <trkpt lat="48.66606" lon="-4.30749">
        <ele>11</ele>
        <time>2025-09-24T09:44:49Z</time>
      </trkpt>
      <trkpt lat="48.66631" lon="-4.3081">
        <ele>11.2</ele>
        <time>2025-09-24T09:44:59Z</time>
      </trkpt>
      <trkpt lat="48.66651" lon="-4.3086">
        <ele>11</ele>
        <time>2025-09-24T09:45:07Z</time>
      </trkpt>
      <trkpt lat="48.66661" lon="-4.30883">
        <ele>11</ele>
        <time>2025-09-24T09:45:11Z</time>
      </trkpt>
      <trkpt lat="48.66685" lon="-4.30941">
        <ele>11</ele>
        <time>2025-09-24T09:45:21Z</time>
      </trkpt>
      <trkpt lat="48.66716" lon="-4.31013">
        <ele>11</ele>
        <time>2025-09-24T09:45:33Z</time>
      </trkpt>
      <trkpt lat="48.66737" lon="-4.31066">
        <ele>11.4</ele>
        <time>2025-09-24T09:45:42Z</time>
      </trkpt>
      <trkpt lat="48.66758" lon="-4.31116">
        <ele>11.8</ele>
        <time>2025-09-24T09:45:51Z</time>
      </trkpt>
      <trkpt lat="48.66765" lon="-4.31132">
        <ele>11.8</ele>
        <time>2025-09-24T09:45:54Z</time>
      </trkpt>
      <trkpt lat="48.66774" lon="-4.31155">
        <ele>11.8</ele>
        <time>2025-09-24T09:45:58Z</time>
      </trkpt>
      <trkpt lat="48.66786" lon="-4.3119">
        <ele>11.8</ele>
        <time>2025-09-24T09:46:04Z</time>
      </trkpt>
      <trkpt lat="48.66795" lon="-4.3123">
        <ele>11.6</ele>
        <time>2025-09-24T09:46:11Z</time>
      </trkpt>
      <trkpt lat="48.66796" lon="-4.31236">
        <ele>11.4</ele>
        <time>2025-09-24T09:46:12Z</time>
      </trkpt>
      <trkpt lat="48.66795" lon="-4.31261">
        <ele>11.2</ele>
        <time>2025-09-24T09:46:16Z</time>
      </trkpt>
      <trkpt lat="48.66794" lon="-4.31276">
        <ele>10.8</ele>
        <time>2025-09-24T09:46:18Z</time>
      </trkpt>
      <trkpt lat="48.66788" lon="-4.31299">
        <ele>10</ele>
        <time>2025-09-24T09:46:21Z</time>
      </trkpt>
      <trkpt lat="48.66784" lon="-4.31306">
        <ele>9.6</ele>
        <time>2025-09-24T09:46:22Z</time>
      </trkpt>
      <trkpt lat="48.6678" lon="-4.31314">
        <ele>9.4</ele>
        <time>2025-09-24T09:46:23Z</time>
      </trkpt>
      <trkpt lat="48.66771" lon="-4.31327">
        <ele>9</ele>
        <time>2025-09-24T09:46:25Z</time>
      </trkpt>
      <trkpt lat="48.66762" lon="-4.31339">
        <ele>8.6</ele>
        <time>2025-09-24T09:46:27Z</time>
      </trkpt>
      <trkpt lat="48.66752" lon="-4.3135">
        <ele>8.6</ele>
        <time>2025-09-24T09:46:29Z</time>
      </trkpt>
      <trkpt lat="48.66729" lon="-4.31378">
        <ele>9</ele>
        <time>2025-09-24T09:46:34Z</time>
      </trkpt>
      <trkpt lat="48.66719" lon="-4.31389">
        <ele>9.4</ele>
        <time>2025-09-24T09:46:36Z</time>
      </trkpt>
      <trkpt lat="48.66696" lon="-4.31415">
        <ele>10</ele>
        <time>2025-09-24T09:46:41Z</time>
      </trkpt>
      <trkpt lat="48.66678" lon="-4.31435">
        <ele>10.4</ele>
        <time>2025-09-24T09:46:45Z</time>
      </trkpt>
      <trkpt lat="48.66653" lon="-4.31461">
        <ele>11</ele>
        <time>2025-09-24T09:46:51Z</time>
      </trkpt>
      <trkpt lat="48.66641" lon="-4.31474">
        <ele>11.2</ele>
        <time>2025-09-24T09:46:54Z</time>
      </trkpt>
      <trkpt lat="48.66614" lon="-4.3151">
        <ele>12</ele>
        <time>2025-09-24T09:47:02Z</time>
      </trkpt>
      <trkpt lat="48.66612" lon="-4.31515">
        <ele>12</ele>
        <time>2025-09-24T09:47:03Z</time>
      </trkpt>
      <trkpt lat="48.66604" lon="-4.31534">
        <ele>12.2</ele>
        <time>2025-09-24T09:47:06Z</time>
      </trkpt>
      <trkpt lat="48.66599" lon="-4.31552">
        <ele>12.4</ele>
        <time>2025-09-24T09:47:09Z</time>
      </trkpt>
      <trkpt lat="48.66594" lon="-4.31592">
        <ele>12.8</ele>
        <time>2025-09-24T09:47:15Z</time>
      </trkpt>
      <trkpt lat="48.66593" lon="-4.31605">
        <ele>12.6</ele>
        <time>2025-09-24T09:47:17Z</time>
      </trkpt>
      <trkpt lat="48.66593" lon="-4.31619">
        <ele>12.4</ele>
        <time>2025-09-24T09:47:19Z</time>
      </trkpt>
      <trkpt lat="48.66594" lon="-4.31641">
        <ele>12.6</ele>
        <time>2025-09-24T09:47:22Z</time>
      </trkpt>
      <trkpt lat="48.66594" lon="-4.31656">
        <ele>12.6</ele>
        <time>2025-09-24T09:47:24Z</time>
      </trkpt>
      <trkpt lat="48.66594" lon="-4.31671">
        <ele>12.6</ele>
        <time>2025-09-24T09:47:26Z</time>
      </trkpt>
      <trkpt lat="48.66596" lon="-4.31723">
        <ele>12.4</ele>
        <time>2025-09-24T09:47:33Z</time>
      </trkpt>
      <trkpt lat="48.66608" lon="-4.31774">
        <ele>12.2</ele>
        <time>2025-09-24T09:47:41Z</time>
      </trkpt>
      <trkpt lat="48.6662" lon="-4.31803">
        <ele>12.4</ele>
        <time>2025-09-24T09:47:47Z</time>
      </trkpt>
      <trkpt lat="48.66627" lon="-4.31815">
        <ele>12.6</ele>
        <time>2025-09-24T09:47:50Z</time>
      </trkpt>
      <trkpt lat="48.6664" lon="-4.31829">
        <ele>12.8</ele>
        <time>2025-09-24T09:47:54Z</time>
      </trkpt>
      <trkpt lat="48.66648" lon="-4.31837">
        <ele>12.6</ele>
        <time>2025-09-24T09:47:56Z</time>
      </trkpt>
      <trkpt lat="48.66652" lon="-4.31841">
        <ele>12.4</ele>
        <time>2025-09-24T09:47:57Z</time>
      </trkpt>
      <trkpt lat="48.66666" lon="-4.31855">
        <ele>11.4</ele>
        <time>2025-09-24T09:48:00Z</time>
      </trkpt>
      <trkpt lat="48.66676" lon="-4.31865">
        <ele>10.8</ele>
        <time>2025-09-24T09:48:02Z</time>
      </trkpt>
      <trkpt lat="48.66692" lon="-4.31886">
        <ele>9.6</ele>
        <time>2025-09-24T09:48:06Z</time>
      </trkpt>
      <trkpt lat="48.66696" lon="-4.31891">
        <ele>9.4</ele>
        <time>2025-09-24T09:48:07Z</time>
      </trkpt>
      <trkpt lat="48.66708" lon="-4.31906">
        <ele>8.6</ele>
        <time>2025-09-24T09:48:10Z</time>
      </trkpt>
      <trkpt lat="48.66717" lon="-4.31923">
        <ele>8.4</ele>
        <time>2025-09-24T09:48:13Z</time>
      </trkpt>
      <trkpt lat="48.66719" lon="-4.3193">
        <ele>8.4</ele>
        <time>2025-09-24T09:48:14Z</time>
      </trkpt>
      <trkpt lat="48.6672" lon="-4.31936">
        <ele>8.2</ele>
        <time>2025-09-24T09:48:15Z</time>
      </trkpt>
      <trkpt lat="48.66719" lon="-4.31949">
        <ele>8.2</ele>
        <time>2025-09-24T09:48:17Z</time>
      </trkpt>
      <trkpt lat="48.66707" lon="-4.31964">
        <ele>8.2</ele>
        <time>2025-09-24T09:48:21Z</time>
      </trkpt>
      <trkpt lat="48.66684" lon="-4.31985">
        <ele>8.4</ele>
        <time>2025-09-24T09:48:29Z</time>
      </trkpt>
      <trkpt lat="48.66677" lon="-4.31997">
        <ele>8.4</ele>
        <time>2025-09-24T09:48:32Z</time>
      </trkpt>
      <trkpt lat="48.66675" lon="-4.32005">
        <ele>8.6</ele>
        <time>2025-09-24T09:48:34Z</time>
      </trkpt>
      <trkpt lat="48.66669" lon="-4.32022">
        <ele>8.6</ele>
        <time>2025-09-24T09:48:38Z</time>
      </trkpt>
      <trkpt lat="48.66664" lon="-4.32035">
        <ele>8.8</ele>
        <time>2025-09-24T09:48:41Z</time>
      </trkpt>
      <trkpt lat="48.66649" lon="-4.32065">
        <ele>9</ele>
        <time>2025-09-24T09:48:49Z</time>
      </trkpt>
      <trkpt lat="48.66644" lon="-4.32073">
        <ele>9</ele>
        <time>2025-09-24T09:48:52Z</time>
      </trkpt>
      <trkpt lat="48.6664" lon="-4.32081">
        <ele>9.2</ele>
        <time>2025-09-24T09:48:55Z</time>
      </trkpt>
      <trkpt lat="48.66638" lon="-4.32087">
        <ele>9.2</ele>
        <time>2025-09-24T09:48:57Z</time>
      </trkpt>
      <trkpt lat="48.66636" lon="-4.3209">
        <ele>9.2</ele>
        <time>2025-09-24T09:48:58Z</time>
      </trkpt>
      <trkpt lat="48.66634" lon="-4.32093">
        <ele>9.2</ele>
        <time>2025-09-24T09:48:59Z</time>
      </trkpt>
      <trkpt lat="48.6663" lon="-4.32105">
        <ele>9.2</ele>
        <time>2025-09-24T09:49:02Z</time>
      </trkpt>
      <trkpt lat="48.66616" lon="-4.3214">
        <ele>9.4</ele>
        <time>2025-09-24T09:49:10Z</time>
      </trkpt>
      <trkpt lat="48.66606" lon="-4.3217">
        <ele>9.4</ele>
        <time>2025-09-24T09:49:16Z</time>
      </trkpt>
      <trkpt lat="48.66599" lon="-4.32191">
        <ele>9.2</ele>
        <time>2025-09-24T09:49:20Z</time>
      </trkpt>
      <trkpt lat="48.66586" lon="-4.32236">
        <ele>9.2</ele>
        <time>2025-09-24T09:49:29Z</time>
      </trkpt>
      <trkpt lat="48.66572" lon="-4.32277">
        <ele>9.2</ele>
        <time>2025-09-24T09:49:38Z</time>
      </trkpt>
      <trkpt lat="48.66567" lon="-4.3229">
        <ele>9.2</ele>
        <time>2025-09-24T09:49:41Z</time>
      </trkpt>
      <trkpt lat="48.6656" lon="-4.32303">
        <ele>9.2</ele>
        <time>2025-09-24T09:49:44Z</time>
      </trkpt>
      <trkpt lat="48.66556" lon="-4.32312">
        <ele>9.2</ele>
        <time>2025-09-24T09:49:46Z</time>
      </trkpt>
      <trkpt lat="48.66546" lon="-4.3233">
        <ele>9.2</ele>
        <time>2025-09-24T09:49:50Z</time>
      </trkpt>
      <trkpt lat="48.66538" lon="-4.32342">
        <ele>9.4</ele>
        <time>2025-09-24T09:49:53Z</time>
      </trkpt>
      <trkpt lat="48.66528" lon="-4.32359">
        <ele>9.6</ele>
        <time>2025-09-24T09:49:57Z</time>
      </trkpt>
      <trkpt lat="48.66511" lon="-4.32387">
        <ele>10.2</ele>
        <time>2025-09-24T09:50:04Z</time>
      </trkpt>
      <trkpt lat="48.66501" lon="-4.32403">
        <ele>10.6</ele>
        <time>2025-09-24T09:50:09Z</time>
      </trkpt>
      <trkpt lat="48.665" lon="-4.32407">
        <ele>10.6</ele>
        <time>2025-09-24T09:50:10Z</time>
      </trkpt>
      <trkpt lat="48.66496" lon="-4.32412">
        <ele>10.8</ele>
        <time>2025-09-24T09:50:12Z</time>
      </trkpt>
      <trkpt lat="48.66486" lon="-4.32433">
        <ele>11.6</ele>
        <time>2025-09-24T09:50:19Z</time>
      </trkpt>
      <trkpt lat="48.66476" lon="-4.32457">
        <ele>12.6</ele>
        <time>2025-09-24T09:50:27Z</time>
      </trkpt>
      <trkpt lat="48.66475" lon="-4.3246">
        <ele>12.8</ele>
        <time>2025-09-24T09:50:28Z</time>
      </trkpt>
      <trkpt lat="48.6647" lon="-4.32472">
        <ele>13.2</ele>
        <time>2025-09-24T09:50:32Z</time>
      </trkpt>
      <trkpt lat="48.66468" lon="-4.32478">
        <ele>13.6</ele>
        <time>2025-09-24T09:50:34Z</time>
      </trkpt>
      <trkpt lat="48.66465" lon="-4.32484">
        <ele>13.8</ele>
        <time>2025-09-24T09:50:36Z</time>
      </trkpt>
      <trkpt lat="48.66455" lon="-4.32507">
        <ele>15</ele>
        <time>2025-09-24T09:50:44Z</time>
      </trkpt>
      <trkpt lat="48.66455" lon="-4.3251">
        <ele>15</ele>
        <time>2025-09-24T09:50:45Z</time>
      </trkpt>
      <trkpt lat="48.66454" lon="-4.32514">
        <ele>15.2</ele>
        <time>2025-09-24T09:50:46Z</time>
      </trkpt>
      <trkpt lat="48.6645" lon="-4.32532">
        <ele>16</ele>
        <time>2025-09-24T09:50:52Z</time>
      </trkpt>
      <trkpt lat="48.6645" lon="-4.32535">
        <ele>16.2</ele>
        <time>2025-09-24T09:50:53Z</time>
      </trkpt>
      <trkpt lat="48.66446" lon="-4.32555">
        <ele>17.2</ele>
        <time>2025-09-24T09:51:00Z</time>
      </trkpt>
      <trkpt lat="48.66445" lon="-4.32561">
        <ele>17.4</ele>
        <time>2025-09-24T09:51:02Z</time>
      </trkpt>
      <trkpt lat="48.66442" lon="-4.3258">
        <ele>18.2</ele>
        <time>2025-09-24T09:51:08Z</time>
      </trkpt>
      <trkpt lat="48.66441" lon="-4.32586">
        <ele>18.4</ele>
        <time>2025-09-24T09:51:10Z</time>
      </trkpt>
      <trkpt lat="48.66437" lon="-4.32612">
        <ele>19.2</ele>
        <time>2025-09-24T09:51:18Z</time>
      </trkpt>
      <trkpt lat="48.66436" lon="-4.32618">
        <ele>19.4</ele>
        <time>2025-09-24T09:51:20Z</time>
      </trkpt>
      <trkpt lat="48.66433" lon="-4.32637">
        <ele>20</ele>
        <time>2025-09-24T09:51:27Z</time>
      </trkpt>
      <trkpt lat="48.66435" lon="-4.32653">
        <ele>20.2</ele>
        <time>2025-09-24T09:51:34Z</time>
      </trkpt>
      <trkpt lat="48.66436" lon="-4.32652">
        <ele>20.2</ele>
        <time>2025-09-24T09:51:35Z</time>
      </trkpt>
      <trkpt lat="48.66436" lon="-4.32654">
        <ele>20</ele>
        <time>2025-09-24T09:51:37Z</time>
      </trkpt>
      <trkpt lat="48.66438" lon="-4.32658">
        <ele>20</ele>
        <time>2025-09-24T09:51:42Z</time>
      </trkpt>
      <trkpt lat="48.6644" lon="-4.32659">
        <ele>20</ele>
        <time>2025-09-24T09:51:44Z</time>
      </trkpt>
      <trkpt lat="48.66445" lon="-4.32661">
        <ele>19.8</ele>
        <time>2025-09-24T09:51:47Z</time>
      </trkpt>
      <trkpt lat="48.66455" lon="-4.3266">
        <ele>19.4</ele>
        <time>2025-09-24T09:51:52Z</time>
      </trkpt>
      <trkpt lat="48.66474" lon="-4.32659">
        <ele>18.6</ele>
        <time>2025-09-24T09:51:58Z</time>
      </trkpt>
      <trkpt lat="48.66482" lon="-4.3266">
        <ele>18.2</ele>
        <time>2025-09-24T09:52:01Z</time>
      </trkpt>
      <trkpt lat="48.6649" lon="-4.32661">
        <ele>17.8</ele>
        <time>2025-09-24T09:52:03Z</time>
      </trkpt>
      <trkpt lat="48.66501" lon="-4.32666">
        <ele>17</ele>
        <time>2025-09-24T09:52:06Z</time>
      </trkpt>
      <trkpt lat="48.66511" lon="-4.32676">
        <ele>16.2</ele>
        <time>2025-09-24T09:52:09Z</time>
      </trkpt>
      <trkpt lat="48.66517" lon="-4.32685">
        <ele>15.8</ele>
        <time>2025-09-24T09:52:11Z</time>
      </trkpt>
      <trkpt lat="48.66529" lon="-4.32696">
        <ele>15.2</ele>
        <time>2025-09-24T09:52:14Z</time>
      </trkpt>
      <trkpt lat="48.66534" lon="-4.32699">
        <ele>15</ele>
        <time>2025-09-24T09:52:15Z</time>
      </trkpt>
      <trkpt lat="48.66538" lon="-4.32702">
        <ele>14.6</ele>
        <time>2025-09-24T09:52:16Z</time>
      </trkpt>
      <trkpt lat="48.66555" lon="-4.32713">
        <ele>13.4</ele>
        <time>2025-09-24T09:52:19Z</time>
      </trkpt>
      <trkpt lat="48.66567" lon="-4.32719">
        <ele>12.8</ele>
        <time>2025-09-24T09:52:21Z</time>
      </trkpt>
      <trkpt lat="48.66593" lon="-4.3273">
        <ele>12.4</ele>
        <time>2025-09-24T09:52:25Z</time>
      </trkpt>
      <trkpt lat="48.66612" lon="-4.32738">
        <ele>11.8</ele>
        <time>2025-09-24T09:52:28Z</time>
      </trkpt>
      <trkpt lat="48.66625" lon="-4.32744">
        <ele>11.2</ele>
        <time>2025-09-24T09:52:30Z</time>
      </trkpt>
      <trkpt lat="48.66644" lon="-4.32752">
        <ele>10.4</ele>
        <time>2025-09-24T09:52:33Z</time>
      </trkpt>
      <trkpt lat="48.66654" lon="-4.32764">
        <ele>10.2</ele>
        <time>2025-09-24T09:52:35Z</time>
      </trkpt>
      <trkpt lat="48.66656" lon="-4.32771">
        <ele>10.2</ele>
        <time>2025-09-24T09:52:36Z</time>
      </trkpt>
      <trkpt lat="48.66674" lon="-4.32814">
        <ele>10.2</ele>
        <time>2025-09-24T09:52:42Z</time>
      </trkpt>
      <trkpt lat="48.66681" lon="-4.32828">
        <ele>10.2</ele>
        <time>2025-09-24T09:52:44Z</time>
      </trkpt>
      <trkpt lat="48.66684" lon="-4.32835">
        <ele>10</ele>
        <time>2025-09-24T09:52:45Z</time>
      </trkpt>
      <trkpt lat="48.66699" lon="-4.32875">
        <ele>9.8</ele>
        <time>2025-09-24T09:52:50Z</time>
      </trkpt>
      <trkpt lat="48.6672" lon="-4.32931">
        <ele>9.2</ele>
        <time>2025-09-24T09:52:57Z</time>
      </trkpt>
      <trkpt lat="48.66723" lon="-4.32939">
        <ele>9</ele>
        <time>2025-09-24T09:52:58Z</time>
      </trkpt>
      <trkpt lat="48.66738" lon="-4.32972">
        <ele>8.4</ele>
        <time>2025-09-24T09:53:03Z</time>
      </trkpt>
      <trkpt lat="48.66751" lon="-4.32993">
        <ele>8.4</ele>
        <time>2025-09-24T09:53:08Z</time>
      </trkpt>
      <trkpt lat="48.66769" lon="-4.33001">
        <ele>8.4</ele>
        <time>2025-09-24T09:53:14Z</time>
      </trkpt>
      <trkpt lat="48.66786" lon="-4.32997">
        <ele>8.2</ele>
        <time>2025-09-24T09:53:19Z</time>
      </trkpt>
      <trkpt lat="48.66815" lon="-4.32994">
        <ele>9</ele>
        <time>2025-09-24T09:53:28Z</time>
      </trkpt>
      <trkpt lat="48.66817" lon="-4.32993">
        <ele>9.2</ele>
        <time>2025-09-24T09:53:29Z</time>
      </trkpt>
      <trkpt lat="48.66839" lon="-4.32991">
        <ele>8.6</ele>
        <time>2025-09-24T09:53:36Z</time>
      </trkpt>
      <trkpt lat="48.66864" lon="-4.32996">
        <ele>8.6</ele>
        <time>2025-09-24T09:53:45Z</time>
      </trkpt>
      <trkpt lat="48.66882" lon="-4.33001">
        <ele>9</ele>
        <time>2025-09-24T09:53:53Z</time>
      </trkpt>
      <trkpt lat="48.6689" lon="-4.33003">
        <ele>9</ele>
        <time>2025-09-24T09:53:57Z</time>
      </trkpt>
      <trkpt lat="48.66896" lon="-4.33006">
        <ele>8.6</ele>
        <time>2025-09-24T09:54:00Z</time>
      </trkpt>
      <trkpt lat="48.66898" lon="-4.3301">
        <ele>8.6</ele>
        <time>2025-09-24T09:54:02Z</time>
      </trkpt>
      <trkpt lat="48.669" lon="-4.3302">
        <ele>8.6</ele>
        <time>2025-09-24T09:54:05Z</time>
      </trkpt>
      <trkpt lat="48.66903" lon="-4.33052">
        <ele>9.2</ele>
        <time>2025-09-24T09:54:13Z</time>
      </trkpt>
      <trkpt lat="48.66901" lon="-4.33093">
        <ele>9.6</ele>
        <time>2025-09-24T09:54:22Z</time>
      </trkpt>
      <trkpt lat="48.66893" lon="-4.33132">
        <ele>9.8</ele>
        <time>2025-09-24T09:54:30Z</time>
      </trkpt>
      <trkpt lat="48.66888" lon="-4.33162">
        <ele>10</ele>
        <time>2025-09-24T09:54:36Z</time>
      </trkpt>
      <trkpt lat="48.66889" lon="-4.33172">
        <ele>10</ele>
        <time>2025-09-24T09:54:38Z</time>
      </trkpt>
      <trkpt lat="48.66896" lon="-4.33195">
        <ele>10</ele>
        <time>2025-09-24T09:54:43Z</time>
      </trkpt>
      <trkpt lat="48.66913" lon="-4.3323">
        <ele>10.6</ele>
        <time>2025-09-24T09:54:51Z</time>
      </trkpt>
      <trkpt lat="48.66915" lon="-4.33234">
        <ele>10.6</ele>
        <time>2025-09-24T09:54:52Z</time>
      </trkpt>
      <trkpt lat="48.66923" lon="-4.3325">
        <ele>11</ele>
        <time>2025-09-24T09:54:56Z</time>
      </trkpt>
      <trkpt lat="48.66932" lon="-4.3327">
        <ele>11.4</ele>
        <time>2025-09-24T09:55:01Z</time>
      </trkpt>
      <trkpt lat="48.66938" lon="-4.33282">
        <ele>11.6</ele>
        <time>2025-09-24T09:55:04Z</time>
      </trkpt>
      <trkpt lat="48.6695" lon="-4.33299">
        <ele>12</ele>
        <time>2025-09-24T09:55:09Z</time>
      </trkpt>
      <trkpt lat="48.66959" lon="-4.33311">
        <ele>12.6</ele>
        <time>2025-09-24T09:55:13Z</time>
      </trkpt>
      <trkpt lat="48.66976" lon="-4.33333">
        <ele>13.2</ele>
        <time>2025-09-24T09:55:20Z</time>
      </trkpt>
      <trkpt lat="48.6698" lon="-4.33338">
        <ele>13.4</ele>
        <time>2025-09-24T09:55:22Z</time>
      </trkpt>
      <trkpt lat="48.66987" lon="-4.33348">
        <ele>13.6</ele>
        <time>2025-09-24T09:55:25Z</time>
      </trkpt>
      <trkpt lat="48.66991" lon="-4.33354">
        <ele>14</ele>
        <time>2025-09-24T09:55:27Z</time>
      </trkpt>
      <trkpt lat="48.66995" lon="-4.33362">
        <ele>14.2</ele>
        <time>2025-09-24T09:55:29Z</time>
      </trkpt>
      <trkpt lat="48.66999" lon="-4.3337">
        <ele>14.2</ele>
        <time>2025-09-24T09:55:31Z</time>
      </trkpt>
      <trkpt lat="48.67008" lon="-4.33401">
        <ele>14.4</ele>
        <time>2025-09-24T09:55:39Z</time>
      </trkpt>
      <trkpt lat="48.67013" lon="-4.33428">
        <ele>15</ele>
        <time>2025-09-24T09:55:47Z</time>
      </trkpt>
      <trkpt lat="48.67017" lon="-4.33442">
        <ele>15.2</ele>
        <time>2025-09-24T09:55:51Z</time>
      </trkpt>
      <trkpt lat="48.67021" lon="-4.33459">
        <ele>16</ele>
        <time>2025-09-24T09:55:56Z</time>
      </trkpt>
      <trkpt lat="48.67023" lon="-4.33468">
        <ele>16.4</ele>
        <time>2025-09-24T09:55:59Z</time>
      </trkpt>
      <trkpt lat="48.67026" lon="-4.33474">
        <ele>16.6</ele>
        <time>2025-09-24T09:56:03Z</time>
      </trkpt>
      <trkpt lat="48.67026" lon="-4.33474">
        <ele>16.6</ele>
        <time>2025-09-24T09:56:04Z</time>
      </trkpt>
      <trkpt lat="48.67026" lon="-4.33476">
        <ele>16.4</ele>
        <time>2025-09-24T09:57:12Z</time>
      </trkpt>
      <trkpt lat="48.67028" lon="-4.33478">
        <ele>16.4</ele>
        <time>2025-09-24T09:57:13Z</time>
      </trkpt>
      <trkpt lat="48.67029" lon="-4.33479">
        <ele>16.6</ele>
        <time>2025-09-24T09:57:14Z</time>
      </trkpt>
      <trkpt lat="48.67034" lon="-4.33489">
        <ele>17</ele>
        <time>2025-09-24T09:57:18Z</time>
      </trkpt>
      <trkpt lat="48.67038" lon="-4.33494">
        <ele>17.2</ele>
        <time>2025-09-24T09:57:20Z</time>
      </trkpt>
      <trkpt lat="48.67041" lon="-4.33497">
        <ele>17.2</ele>
        <time>2025-09-24T09:57:22Z</time>
      </trkpt>
      <trkpt lat="48.67047" lon="-4.33501">
        <ele>16.4</ele>
        <time>2025-09-24T09:57:26Z</time>
      </trkpt>
      <trkpt lat="48.6705" lon="-4.33501">
        <ele>16.2</ele>
        <time>2025-09-24T09:57:29Z</time>
      </trkpt>
      <trkpt lat="48.67049" lon="-4.33501">
        <ele>16</ele>
        <time>2025-09-24T09:57:30Z</time>
      </trkpt>
      <trkpt lat="48.67049" lon="-4.33501">
        <ele>16</ele>
        <time>2025-09-24T09:57:31Z</time>
      </trkpt>
      <trkpt lat="48.67051" lon="-4.33503">
        <ele>16.2</ele>
        <time>2025-09-24T09:58:28Z</time>
      </trkpt>
      <trkpt lat="48.67055" lon="-4.33505">
        <ele>16.2</ele>
        <time>2025-09-24T09:58:30Z</time>
      </trkpt>
      <trkpt lat="48.67073" lon="-4.33508">
        <ele>15.8</ele>
        <time>2025-09-24T09:58:35Z</time>
      </trkpt>
      <trkpt lat="48.67077" lon="-4.33507">
        <ele>15.6</ele>
        <time>2025-09-24T09:58:36Z</time>
      </trkpt>
      <trkpt lat="48.67086" lon="-4.33507">
        <ele>15.4</ele>
        <time>2025-09-24T09:58:38Z</time>
      </trkpt>
      <trkpt lat="48.671" lon="-4.33506">
        <ele>14.8</ele>
        <time>2025-09-24T09:58:41Z</time>
      </trkpt>
      <trkpt lat="48.6711" lon="-4.33503">
        <ele>14.2</ele>
        <time>2025-09-24T09:58:43Z</time>
      </trkpt>
      <trkpt lat="48.67129" lon="-4.33494">
        <ele>13.6</ele>
        <time>2025-09-24T09:58:47Z</time>
      </trkpt>
      <trkpt lat="48.67146" lon="-4.33483">
        <ele>13.2</ele>
        <time>2025-09-24T09:58:51Z</time>
      </trkpt>
      <trkpt lat="48.67167" lon="-4.33468">
        <ele>12.6</ele>
        <time>2025-09-24T09:58:56Z</time>
      </trkpt>
      <trkpt lat="48.6718" lon="-4.33458">
        <ele>12.6</ele>
        <time>2025-09-24T09:58:59Z</time>
      </trkpt>
      <trkpt lat="48.67189" lon="-4.33452">
        <ele>12.2</ele>
        <time>2025-09-24T09:59:01Z</time>
      </trkpt>
      <trkpt lat="48.67217" lon="-4.33434">
        <ele>11.6</ele>
        <time>2025-09-24T09:59:07Z</time>
      </trkpt>
      <trkpt lat="48.67251" lon="-4.33411">
        <ele>11</ele>
        <time>2025-09-24T09:59:14Z</time>
      </trkpt>
      <trkpt lat="48.67294" lon="-4.33385">
        <ele>10.2</ele>
        <time>2025-09-24T09:59:23Z</time>
      </trkpt>
      <trkpt lat="48.67303" lon="-4.33383">
        <ele>10.2</ele>
        <time>2025-09-24T09:59:25Z</time>
      </trkpt>
      <trkpt lat="48.67319" lon="-4.3338">
        <ele>10.4</ele>
        <time>2025-09-24T09:59:29Z</time>
      </trkpt>
      <trkpt lat="48.67326" lon="-4.33369">
        <ele>10.4</ele>
        <time>2025-09-24T09:59:32Z</time>
      </trkpt>
      <trkpt lat="48.67329" lon="-4.33347">
        <ele>10.8</ele>
        <time>2025-09-24T09:59:37Z</time>
      </trkpt>
      <trkpt lat="48.67335" lon="-4.33321">
        <ele>11.6</ele>
        <time>2025-09-24T09:59:44Z</time>
      </trkpt>
      <trkpt lat="48.67336" lon="-4.33317">
        <ele>11.6</ele>
        <time>2025-09-24T09:59:45Z</time>
      </trkpt>
      <trkpt lat="48.67337" lon="-4.33313">
        <ele>11.6</ele>
        <time>2025-09-24T09:59:46Z</time>
      </trkpt>
      <trkpt lat="48.67337" lon="-4.33309">
        <ele>11.6</ele>
        <time>2025-09-24T09:59:47Z</time>
      </trkpt>
      <trkpt lat="48.6734" lon="-4.33284">
        <ele>11.6</ele>
        <time>2025-09-24T09:59:53Z</time>
      </trkpt>
      <trkpt lat="48.67334" lon="-4.33257">
        <ele>11</ele>
        <time>2025-09-24T09:59:59Z</time>
      </trkpt>
      <trkpt lat="48.67322" lon="-4.3322">
        <ele>10.2</ele>
        <time>2025-09-24T10:00:05Z</time>
      </trkpt>
      <trkpt lat="48.67317" lon="-4.33207">
        <ele>10</ele>
        <time>2025-09-24T10:00:07Z</time>
      </trkpt>
      <trkpt lat="48.67303" lon="-4.33156">
        <ele>9.4</ele>
        <time>2025-09-24T10:00:14Z</time>
      </trkpt>
      <trkpt lat="48.67299" lon="-4.33134">
        <ele>8.6</ele>
        <time>2025-09-24T10:00:17Z</time>
      </trkpt>
      <trkpt lat="48.6729" lon="-4.33077">
        <ele>7.8</ele>
        <time>2025-09-24T10:00:25Z</time>
      </trkpt>
      <trkpt lat="48.67289" lon="-4.3307">
        <ele>7.6</ele>
        <time>2025-09-24T10:00:26Z</time>
      </trkpt>
      <trkpt lat="48.67287" lon="-4.3305">
        <ele>7.4</ele>
        <time>2025-09-24T10:00:29Z</time>
      </trkpt>
      <trkpt lat="48.67286" lon="-4.33024">
        <ele>7.2</ele>
        <time>2025-09-24T10:00:33Z</time>
      </trkpt>
      <trkpt lat="48.67286" lon="-4.32995">
        <ele>7.4</ele>
        <time>2025-09-24T10:00:38Z</time>
      </trkpt>
      <trkpt lat="48.67286" lon="-4.32978">
        <ele>7.4</ele>
        <time>2025-09-24T10:00:41Z</time>
      </trkpt>
      <trkpt lat="48.67288" lon="-4.32934">
        <ele>7.4</ele>
        <time>2025-09-24T10:00:49Z</time>
      </trkpt>
      <trkpt lat="48.67292" lon="-4.329">
        <ele>7.4</ele>
        <time>2025-09-24T10:00:56Z</time>
      </trkpt>
      <trkpt lat="48.67292" lon="-4.32895">
        <ele>7.4</ele>
        <time>2025-09-24T10:00:57Z</time>
      </trkpt>
      <trkpt lat="48.67298" lon="-4.32863">
        <ele>8</ele>
        <time>2025-09-24T10:01:04Z</time>
      </trkpt>
      <trkpt lat="48.67305" lon="-4.3283">
        <ele>8.2</ele>
        <time>2025-09-24T10:01:11Z</time>
      </trkpt>
      <trkpt lat="48.67305" lon="-4.32826">
        <ele>8.2</ele>
        <time>2025-09-24T10:01:12Z</time>
      </trkpt>
      <trkpt lat="48.67306" lon="-4.32817">
        <ele>8.4</ele>
        <time>2025-09-24T10:01:14Z</time>
      </trkpt>
      <trkpt lat="48.67312" lon="-4.32802">
        <ele>8.6</ele>
        <time>2025-09-24T10:01:18Z</time>
      </trkpt>
      <trkpt lat="48.67316" lon="-4.32796">
        <ele>8.8</ele>
        <time>2025-09-24T10:01:20Z</time>
      </trkpt>
      <trkpt lat="48.67328" lon="-4.3278">
        <ele>9</ele>
        <time>2025-09-24T10:01:25Z</time>
      </trkpt>
      <trkpt lat="48.67333" lon="-4.32774">
        <ele>9</ele>
        <time>2025-09-24T10:01:27Z</time>
      </trkpt>
      <trkpt lat="48.67359" lon="-4.32745">
        <ele>9</ele>
        <time>2025-09-24T10:01:37Z</time>
      </trkpt>
      <trkpt lat="48.67378" lon="-4.32722">
        <ele>9.2</ele>
        <time>2025-09-24T10:01:45Z</time>
      </trkpt>
      <trkpt lat="48.67398" lon="-4.32698">
        <ele>9.4</ele>
        <time>2025-09-24T10:01:53Z</time>
      </trkpt>
      <trkpt lat="48.67404" lon="-4.32688">
        <ele>9.8</ele>
        <time>2025-09-24T10:01:56Z</time>
      </trkpt>
      <trkpt lat="48.67415" lon="-4.32667">
        <ele>10.2</ele>
        <time>2025-09-24T10:02:02Z</time>
      </trkpt>
      <trkpt lat="48.67428" lon="-4.32634">
        <ele>10.6</ele>
        <time>2025-09-24T10:02:11Z</time>
      </trkpt>
      <trkpt lat="48.67432" lon="-4.32623">
        <ele>10.8</ele>
        <time>2025-09-24T10:02:14Z</time>
      </trkpt>
      <trkpt lat="48.67442" lon="-4.32601">
        <ele>10.6</ele>
        <time>2025-09-24T10:02:20Z</time>
      </trkpt>
      <trkpt lat="48.67453" lon="-4.32572">
        <ele>10.4</ele>
        <time>2025-09-24T10:02:28Z</time>
      </trkpt>
      <trkpt lat="48.67459" lon="-4.3256">
        <ele>10.4</ele>
        <time>2025-09-24T10:02:32Z</time>
      </trkpt>
      <trkpt lat="48.67461" lon="-4.32557">
        <ele>10.6</ele>
        <time>2025-09-24T10:02:33Z</time>
      </trkpt>
      <trkpt lat="48.67465" lon="-4.32551">
        <ele>10.4</ele>
        <time>2025-09-24T10:02:35Z</time>
      </trkpt>
      <trkpt lat="48.67468" lon="-4.32543">
        <ele>10.2</ele>
        <time>2025-09-24T10:02:37Z</time>
      </trkpt>
      <trkpt lat="48.67471" lon="-4.32533">
        <ele>10</ele>
        <time>2025-09-24T10:02:40Z</time>
      </trkpt>
      <trkpt lat="48.67472" lon="-4.32515">
        <ele>10</ele>
        <time>2025-09-24T10:02:46Z</time>
      </trkpt>
      <trkpt lat="48.67468" lon="-4.32511">
        <ele>10.6</ele>
        <time>2025-09-24T10:02:52Z</time>
      </trkpt>
      <trkpt lat="48.67467" lon="-4.32511">
        <ele>11</ele>
        <time>2025-09-24T10:03:19Z</time>
      </trkpt>
      <trkpt lat="48.67467" lon="-4.32511">
        <ele>11.2</ele>
        <time>2025-09-24T10:03:20Z</time>
      </trkpt>
      <trkpt lat="48.67467" lon="-4.32512">
        <ele>11.2</ele>
        <time>2025-09-24T10:03:21Z</time>
      </trkpt>
      <trkpt lat="48.67465" lon="-4.32514">
        <ele>10.8</ele>
        <time>2025-09-24T10:03:23Z</time>
      </trkpt>
      <trkpt lat="48.67461" lon="-4.32519">
        <ele>10.8</ele>
        <time>2025-09-24T10:03:29Z</time>
      </trkpt>
      <trkpt lat="48.67461" lon="-4.32517">
        <ele>10.6</ele>
        <time>2025-09-24T10:03:38Z</time>
      </trkpt>
      <trkpt lat="48.67461" lon="-4.32518">
        <ele>10.6</ele>
        <time>2025-09-24T10:03:42Z</time>
      </trkpt>
      <trkpt lat="48.67462" lon="-4.32517">
        <ele>10</ele>
        <time>2025-09-24T10:08:32Z</time>
      </trkpt>
      <trkpt lat="48.67461" lon="-4.32517">
        <ele>10</ele>
        <time>2025-09-24T10:08:33Z</time>
      </trkpt>
      <trkpt lat="48.67461" lon="-4.3252">
        <ele>10</ele>
        <time>2025-09-24T10:08:36Z</time>
      </trkpt>
      <trkpt lat="48.67461" lon="-4.32519">
        <ele>10</ele>
        <time>2025-09-24T10:08:37Z</time>
      </trkpt>
      <trkpt lat="48.67462" lon="-4.32517">
        <ele>10</ele>
        <time>2025-09-24T10:13:32Z</time>
      </trkpt>
      <trkpt lat="48.67462" lon="-4.32517">
        <ele>10.2</ele>
        <time>2025-09-24T10:13:33Z</time>
      </trkpt>
      <trkpt lat="48.67462" lon="-4.32518">
        <ele>10.4</ele>
        <time>2025-09-24T10:13:36Z</time>
      </trkpt>
      <trkpt lat="48.67462" lon="-4.32519">
        <ele>10.4</ele>
        <time>2025-09-24T10:13:38Z</time>
      </trkpt>
      <trkpt lat="48.67463" lon="-4.32521">
        <ele>10.4</ele>
        <time>2025-09-24T10:13:44Z</time>
      </trkpt>
      <trkpt lat="48.67465" lon="-4.32524">
        <ele>10.2</ele>
        <time>2025-09-24T10:13:46Z</time>
      </trkpt>
      <trkpt lat="48.67465" lon="-4.3254">
        <ele>10</ele>
        <time>2025-09-24T10:13:51Z</time>
      </trkpt>
      <trkpt lat="48.67461" lon="-4.32557">
        <ele>10</ele>
        <time>2025-09-24T10:13:57Z</time>
      </trkpt>
      <trkpt lat="48.67458" lon="-4.32569">
        <ele>10</ele>
        <time>2025-09-24T10:14:01Z</time>
      </trkpt>
      <trkpt lat="48.67453" lon="-4.3258">
        <ele>10.4</ele>
        <time>2025-09-24T10:14:05Z</time>
      </trkpt>
      <trkpt lat="48.67452" lon="-4.32583">
        <ele>10.4</ele>
        <time>2025-09-24T10:14:06Z</time>
      </trkpt>
      <trkpt lat="48.6744" lon="-4.32612">
        <ele>10.8</ele>
        <time>2025-09-24T10:14:16Z</time>
      </trkpt>
      <trkpt lat="48.67427" lon="-4.32645">
        <ele>10.8</ele>
        <time>2025-09-24T10:14:26Z</time>
      </trkpt>
      <trkpt lat="48.67418" lon="-4.32666">
        <ele>10.4</ele>
        <time>2025-09-24T10:14:31Z</time>
      </trkpt>
      <trkpt lat="48.67412" lon="-4.3268">
        <ele>10.2</ele>
        <time>2025-09-24T10:14:34Z</time>
      </trkpt>
      <trkpt lat="48.67402" lon="-4.32698">
        <ele>9.8</ele>
        <time>2025-09-24T10:14:38Z</time>
      </trkpt>
      <trkpt lat="48.67395" lon="-4.32707">
        <ele>9.6</ele>
        <time>2025-09-24T10:14:40Z</time>
      </trkpt>
      <trkpt lat="48.67386" lon="-4.3272">
        <ele>9</ele>
        <time>2025-09-24T10:14:43Z</time>
      </trkpt>
      <trkpt lat="48.67382" lon="-4.32727">
        <ele>8.8</ele>
        <time>2025-09-24T10:14:45Z</time>
      </trkpt>
      <trkpt lat="48.6738" lon="-4.32729">
        <ele>8.8</ele>
        <time>2025-09-24T10:14:46Z</time>
      </trkpt>
      <trkpt lat="48.67378" lon="-4.32734">
        <ele>8.8</ele>
        <time>2025-09-24T10:14:48Z</time>
      </trkpt>
      <trkpt lat="48.67381" lon="-4.32737">
        <ele>9.2</ele>
        <time>2025-09-24T10:14:50Z</time>
      </trkpt>
      <trkpt lat="48.67396" lon="-4.32747">
        <ele>8.8</ele>
        <time>2025-09-24T10:14:56Z</time>
      </trkpt>
      <trkpt lat="48.67411" lon="-4.32771">
        <ele>8.8</ele>
        <time>2025-09-24T10:15:03Z</time>
      </trkpt>
      <trkpt lat="48.67418" lon="-4.32781">
        <ele>9.8</ele>
        <time>2025-09-24T10:15:06Z</time>
      </trkpt>
      <trkpt lat="48.67432" lon="-4.32801">
        <ele>10.6</ele>
        <time>2025-09-24T10:15:13Z</time>
      </trkpt>
      <trkpt lat="48.67448" lon="-4.32822">
        <ele>10.4</ele>
        <time>2025-09-24T10:15:20Z</time>
      </trkpt>
      <trkpt lat="48.67449" lon="-4.32827">
        <ele>10.4</ele>
        <time>2025-09-24T10:15:21Z</time>
      </trkpt>
      <trkpt lat="48.67463" lon="-4.32857">
        <ele>10.4</ele>
        <time>2025-09-24T10:15:27Z</time>
      </trkpt>
      <trkpt lat="48.67466" lon="-4.32868">
        <ele>10</ele>
        <time>2025-09-24T10:15:29Z</time>
      </trkpt>
      <trkpt lat="48.67468" lon="-4.32875">
        <ele>9.6</ele>
        <time>2025-09-24T10:15:30Z</time>
      </trkpt>
      <trkpt lat="48.67473" lon="-4.32898">
        <ele>9.2</ele>
        <time>2025-09-24T10:15:34Z</time>
      </trkpt>
      <trkpt lat="48.67474" lon="-4.32903">
        <ele>9</ele>
        <time>2025-09-24T10:15:35Z</time>
      </trkpt>
      <trkpt lat="48.67488" lon="-4.32946">
        <ele>9.2</ele>
        <time>2025-09-24T10:15:44Z</time>
      </trkpt>
      <trkpt lat="48.67499" lon="-4.32978">
        <ele>9.2</ele>
        <time>2025-09-24T10:15:52Z</time>
      </trkpt>
      <trkpt lat="48.6751" lon="-4.33005">
        <ele>9</ele>
        <time>2025-09-24T10:15:59Z</time>
      </trkpt>
      <trkpt lat="48.67522" lon="-4.33039">
        <ele>9</ele>
        <time>2025-09-24T10:16:07Z</time>
      </trkpt>
      <trkpt lat="48.67537" lon="-4.33065">
        <ele>9.2</ele>
        <time>2025-09-24T10:16:14Z</time>
      </trkpt>
      <trkpt lat="48.67542" lon="-4.3307">
        <ele>9.4</ele>
        <time>2025-09-24T10:16:16Z</time>
      </trkpt>
      <trkpt lat="48.67562" lon="-4.33083">
        <ele>9.4</ele>
        <time>2025-09-24T10:16:23Z</time>
      </trkpt>
      <trkpt lat="48.67579" lon="-4.33087">
        <ele>9</ele>
        <time>2025-09-24T10:16:28Z</time>
      </trkpt>
      <trkpt lat="48.67589" lon="-4.33086">
        <ele>9.2</ele>
        <time>2025-09-24T10:16:31Z</time>
      </trkpt>
      <trkpt lat="48.67604" lon="-4.33077">
        <ele>9.6</ele>
        <time>2025-09-24T10:16:37Z</time>
      </trkpt>
      <trkpt lat="48.67619" lon="-4.33074">
        <ele>9.8</ele>
        <time>2025-09-24T10:16:43Z</time>
      </trkpt>
      <trkpt lat="48.67622" lon="-4.33086">
        <ele>9.8</ele>
        <time>2025-09-24T10:16:47Z</time>
      </trkpt>
      <trkpt lat="48.67621" lon="-4.33107">
        <ele>10.6</ele>
        <time>2025-09-24T10:16:54Z</time>
      </trkpt>
      <trkpt lat="48.67621" lon="-4.33113">
        <ele>10.8</ele>
        <time>2025-09-24T10:16:56Z</time>
      </trkpt>
      <trkpt lat="48.67619" lon="-4.33139">
        <ele>10.8</ele>
        <time>2025-09-24T10:17:03Z</time>
      </trkpt>
      <trkpt lat="48.67613" lon="-4.33165">
        <ele>10.8</ele>
        <time>2025-09-24T10:17:10Z</time>
      </trkpt>
      <trkpt lat="48.67602" lon="-4.33202">
        <ele>11.2</ele>
        <time>2025-09-24T10:17:20Z</time>
      </trkpt>
      <trkpt lat="48.67592" lon="-4.33234">
        <ele>11.2</ele>
        <time>2025-09-24T10:17:29Z</time>
      </trkpt>
      <trkpt lat="48.67588" lon="-4.33244">
        <ele>11.4</ele>
        <time>2025-09-24T10:17:32Z</time>
      </trkpt>
      <trkpt lat="48.67581" lon="-4.33264">
        <ele>11.6</ele>
        <time>2025-09-24T10:17:38Z</time>
      </trkpt>
      <trkpt lat="48.67574" lon="-4.3328">
        <ele>11.6</ele>
        <time>2025-09-24T10:17:43Z</time>
      </trkpt>
      <trkpt lat="48.67568" lon="-4.33295">
        <ele>11.2</ele>
        <time>2025-09-24T10:17:47Z</time>
      </trkpt>
      <trkpt lat="48.67563" lon="-4.33308">
        <ele>10.8</ele>
        <time>2025-09-24T10:17:51Z</time>
      </trkpt>
      <trkpt lat="48.67558" lon="-4.33327">
        <ele>10.4</ele>
        <time>2025-09-24T10:17:55Z</time>
      </trkpt>
      <trkpt lat="48.67556" lon="-4.33337">
        <ele>10.2</ele>
        <time>2025-09-24T10:17:57Z</time>
      </trkpt>
      <trkpt lat="48.67553" lon="-4.33349">
        <ele>10</ele>
        <time>2025-09-24T10:17:59Z</time>
      </trkpt>
      <trkpt lat="48.6755" lon="-4.3337">
        <ele>9.8</ele>
        <time>2025-09-24T10:18:02Z</time>
      </trkpt>
      <trkpt lat="48.6755" lon="-4.33377">
        <ele>9.8</ele>
        <time>2025-09-24T10:18:03Z</time>
      </trkpt>
      <trkpt lat="48.67549" lon="-4.33384">
        <ele>9.6</ele>
        <time>2025-09-24T10:18:04Z</time>
      </trkpt>
      <trkpt lat="48.67542" lon="-4.33447">
        <ele>9</ele>
        <time>2025-09-24T10:18:13Z</time>
      </trkpt>
      <trkpt lat="48.67537" lon="-4.33475">
        <ele>9</ele>
        <time>2025-09-24T10:18:17Z</time>
      </trkpt>
      <trkpt lat="48.67529" lon="-4.33494">
        <ele>8.8</ele>
        <time>2025-09-24T10:18:20Z</time>
      </trkpt>
      <trkpt lat="48.67527" lon="-4.33499">
        <ele>8.8</ele>
        <time>2025-09-24T10:18:21Z</time>
      </trkpt>
      <trkpt lat="48.67514" lon="-4.33511">
        <ele>8.6</ele>
        <time>2025-09-24T10:18:25Z</time>
      </trkpt>
      <trkpt lat="48.675" lon="-4.33508">
        <ele>8.4</ele>
        <time>2025-09-24T10:18:29Z</time>
      </trkpt>
      <trkpt lat="48.67479" lon="-4.33492">
        <ele>8.4</ele>
        <time>2025-09-24T10:18:35Z</time>
      </trkpt>
      <trkpt lat="48.67473" lon="-4.33492">
        <ele>8.6</ele>
        <time>2025-09-24T10:18:37Z</time>
      </trkpt>
      <trkpt lat="48.67472" lon="-4.33495">
        <ele>8.6</ele>
        <time>2025-09-24T10:18:38Z</time>
      </trkpt>
      <trkpt lat="48.67469" lon="-4.33514">
        <ele>8.6</ele>
        <time>2025-09-24T10:18:42Z</time>
      </trkpt>
      <trkpt lat="48.67461" lon="-4.33561">
        <ele>9</ele>
        <time>2025-09-24T10:18:50Z</time>
      </trkpt>
      <trkpt lat="48.67457" lon="-4.33576">
        <ele>9</ele>
        <time>2025-09-24T10:18:53Z</time>
      </trkpt>
      <trkpt lat="48.67451" lon="-4.33613">
        <ele>9.2</ele>
        <time>2025-09-24T10:19:00Z</time>
      </trkpt>
      <trkpt lat="48.6745" lon="-4.33623">
        <ele>9.2</ele>
        <time>2025-09-24T10:19:02Z</time>
      </trkpt>
      <trkpt lat="48.67445" lon="-4.33683">
        <ele>9.4</ele>
        <time>2025-09-24T10:19:13Z</time>
      </trkpt>
      <trkpt lat="48.67443" lon="-4.33712">
        <ele>9.6</ele>
        <time>2025-09-24T10:19:18Z</time>
      </trkpt>
      <trkpt lat="48.6744" lon="-4.33725">
        <ele>9.4</ele>
        <time>2025-09-24T10:19:20Z</time>
      </trkpt>
      <trkpt lat="48.67434" lon="-4.33762">
        <ele>9.4</ele>
        <time>2025-09-24T10:19:26Z</time>
      </trkpt>
      <trkpt lat="48.67434" lon="-4.33775">
        <ele>9.2</ele>
        <time>2025-09-24T10:19:28Z</time>
      </trkpt>
      <trkpt lat="48.67433" lon="-4.338">
        <ele>8.8</ele>
        <time>2025-09-24T10:19:32Z</time>
      </trkpt>
      <trkpt lat="48.67428" lon="-4.33811">
        <ele>8.6</ele>
        <time>2025-09-24T10:19:34Z</time>
      </trkpt>
      <trkpt lat="48.67407" lon="-4.33834">
        <ele>8.6</ele>
        <time>2025-09-24T10:19:40Z</time>
      </trkpt>
      <trkpt lat="48.67404" lon="-4.33838">
        <ele>8.8</ele>
        <time>2025-09-24T10:19:41Z</time>
      </trkpt>
      <trkpt lat="48.67401" lon="-4.33849">
        <ele>8.8</ele>
        <time>2025-09-24T10:19:43Z</time>
      </trkpt>
      <trkpt lat="48.67402" lon="-4.33855">
        <ele>8.8</ele>
        <time>2025-09-24T10:19:44Z</time>
      </trkpt>
      <trkpt lat="48.67403" lon="-4.33861">
        <ele>9</ele>
        <time>2025-09-24T10:19:45Z</time>
      </trkpt>
      <trkpt lat="48.67406" lon="-4.33885">
        <ele>9.2</ele>
        <time>2025-09-24T10:19:49Z</time>
      </trkpt>
      <trkpt lat="48.67406" lon="-4.33891">
        <ele>9.2</ele>
        <time>2025-09-24T10:19:50Z</time>
      </trkpt>
      <trkpt lat="48.67401" lon="-4.33915">
        <ele>9</ele>
        <time>2025-09-24T10:19:54Z</time>
      </trkpt>
      <trkpt lat="48.6739" lon="-4.3396">
        <ele>9.6</ele>
        <time>2025-09-24T10:20:03Z</time>
      </trkpt>
      <trkpt lat="48.67384" lon="-4.3398">
        <ele>9.8</ele>
        <time>2025-09-24T10:20:07Z</time>
      </trkpt>
      <trkpt lat="48.6738" lon="-4.33995">
        <ele>9.8</ele>
        <time>2025-09-24T10:20:10Z</time>
      </trkpt>
      <trkpt lat="48.67378" lon="-4.34011">
        <ele>10</ele>
        <time>2025-09-24T10:20:13Z</time>
      </trkpt>
      <trkpt lat="48.67382" lon="-4.34045">
        <ele>10.4</ele>
        <time>2025-09-24T10:20:20Z</time>
      </trkpt>
      <trkpt lat="48.67387" lon="-4.34062">
        <ele>10.8</ele>
        <time>2025-09-24T10:20:24Z</time>
      </trkpt>
      <trkpt lat="48.67392" lon="-4.3408">
        <ele>11</ele>
        <time>2025-09-24T10:20:28Z</time>
      </trkpt>
      <trkpt lat="48.67397" lon="-4.34102">
        <ele>11.4</ele>
        <time>2025-09-24T10:20:34Z</time>
      </trkpt>
      <trkpt lat="48.67399" lon="-4.34121">
        <ele>11.8</ele>
        <time>2025-09-24T10:20:39Z</time>
      </trkpt>
      <trkpt lat="48.674" lon="-4.34137">
        <ele>12.2</ele>
        <time>2025-09-24T10:20:43Z</time>
      </trkpt>
      <trkpt lat="48.67401" lon="-4.34144">
        <ele>12.2</ele>
        <time>2025-09-24T10:20:45Z</time>
      </trkpt>
      <trkpt lat="48.67406" lon="-4.34164">
        <ele>12.8</ele>
        <time>2025-09-24T10:20:51Z</time>
      </trkpt>
      <trkpt lat="48.67408" lon="-4.34168">
        <ele>13</ele>
        <time>2025-09-24T10:20:53Z</time>
      </trkpt>
      <trkpt lat="48.67417" lon="-4.34177">
        <ele>13</ele>
        <time>2025-09-24T10:20:58Z</time>
      </trkpt>
      <trkpt lat="48.67421" lon="-4.34182">
        <ele>13</ele>
        <time>2025-09-24T10:21:00Z</time>
      </trkpt>
      <trkpt lat="48.67434" lon="-4.34202">
        <ele>13.2</ele>
        <time>2025-09-24T10:21:07Z</time>
      </trkpt>
      <trkpt lat="48.67446" lon="-4.34208">
        <ele>13.2</ele>
        <time>2025-09-24T10:21:12Z</time>
      </trkpt>
      <trkpt lat="48.67457" lon="-4.34208">
        <ele>14</ele>
        <time>2025-09-24T10:21:17Z</time>
      </trkpt>
      <trkpt lat="48.67462" lon="-4.34205">
        <ele>14.2</ele>
        <time>2025-09-24T10:21:19Z</time>
      </trkpt>
      <trkpt lat="48.67476" lon="-4.34202">
        <ele>15</ele>
        <time>2025-09-24T10:21:26Z</time>
      </trkpt>
      <trkpt lat="48.67478" lon="-4.34203">
        <ele>15.2</ele>
        <time>2025-09-24T10:21:27Z</time>
      </trkpt>
      <trkpt lat="48.67501" lon="-4.34207">
        <ele>15.2</ele>
        <time>2025-09-24T10:21:36Z</time>
      </trkpt>
      <trkpt lat="48.6752" lon="-4.34211">
        <ele>14.8</ele>
        <time>2025-09-24T10:21:42Z</time>
      </trkpt>
      <trkpt lat="48.67532" lon="-4.34212">
        <ele>14.4</ele>
        <time>2025-09-24T10:21:45Z</time>
      </trkpt>
      <trkpt lat="48.6754" lon="-4.34207">
        <ele>14.2</ele>
        <time>2025-09-24T10:21:47Z</time>
      </trkpt>
      <trkpt lat="48.67546" lon="-4.342">
        <ele>14.2</ele>
        <time>2025-09-24T10:21:49Z</time>
      </trkpt>
      <trkpt lat="48.6755" lon="-4.34191">
        <ele>14</ele>
        <time>2025-09-24T10:21:51Z</time>
      </trkpt>
      <trkpt lat="48.67552" lon="-4.34188">
        <ele>14</ele>
        <time>2025-09-24T10:21:52Z</time>
      </trkpt>
      <trkpt lat="48.67554" lon="-4.34184">
        <ele>13.8</ele>
        <time>2025-09-24T10:21:53Z</time>
      </trkpt>
      <trkpt lat="48.67556" lon="-4.3418">
        <ele>13.8</ele>
        <time>2025-09-24T10:21:54Z</time>
      </trkpt>
      <trkpt lat="48.67558" lon="-4.34177">
        <ele>13.8</ele>
        <time>2025-09-24T10:21:55Z</time>
      </trkpt>
      <trkpt lat="48.67562" lon="-4.34169">
        <ele>13.6</ele>
        <time>2025-09-24T10:21:57Z</time>
      </trkpt>
      <trkpt lat="48.67566" lon="-4.34162">
        <ele>13.6</ele>
        <time>2025-09-24T10:21:59Z</time>
      </trkpt>
      <trkpt lat="48.67573" lon="-4.3415">
        <ele>13</ele>
        <time>2025-09-24T10:22:02Z</time>
      </trkpt>
      <trkpt lat="48.67577" lon="-4.34146">
        <ele>12.8</ele>
        <time>2025-09-24T10:22:03Z</time>
      </trkpt>
      <trkpt lat="48.67584" lon="-4.3414">
        <ele>12.2</ele>
        <time>2025-09-24T10:22:05Z</time>
      </trkpt>
      <trkpt lat="48.67588" lon="-4.34137">
        <ele>11.8</ele>
        <time>2025-09-24T10:22:06Z</time>
      </trkpt>
      <trkpt lat="48.67611" lon="-4.34129">
        <ele>10.8</ele>
        <time>2025-09-24T10:22:11Z</time>
      </trkpt>
      <trkpt lat="48.67616" lon="-4.34127">
        <ele>10.8</ele>
        <time>2025-09-24T10:22:12Z</time>
      </trkpt>
      <trkpt lat="48.67647" lon="-4.34113">
        <ele>10.2</ele>
        <time>2025-09-24T10:22:19Z</time>
      </trkpt>
      <trkpt lat="48.67656" lon="-4.34111">
        <ele>10</ele>
        <time>2025-09-24T10:22:21Z</time>
      </trkpt>
      <trkpt lat="48.67678" lon="-4.34101">
        <ele>10.4</ele>
        <time>2025-09-24T10:22:28Z</time>
      </trkpt>
      <trkpt lat="48.67696" lon="-4.34093">
        <ele>10.6</ele>
        <time>2025-09-24T10:22:36Z</time>
      </trkpt>
      <trkpt lat="48.67703" lon="-4.34088">
        <ele>11.2</ele>
        <time>2025-09-24T10:22:40Z</time>
      </trkpt>
      <trkpt lat="48.67704" lon="-4.34087">
        <ele>11.4</ele>
        <time>2025-09-24T10:22:42Z</time>
      </trkpt>
      <trkpt lat="48.67704" lon="-4.34088">
        <ele>11</ele>
        <time>2025-09-24T10:22:55Z</time>
      </trkpt>
      <trkpt lat="48.67706" lon="-4.34084">
        <ele>11</ele>
        <time>2025-09-24T10:22:58Z</time>
      </trkpt>
      <trkpt lat="48.67706" lon="-4.34078">
        <ele>10.8</ele>
        <time>2025-09-24T10:23:04Z</time>
      </trkpt>
      <trkpt lat="48.67706" lon="-4.34077">
        <ele>10.8</ele>
        <time>2025-09-24T10:23:05Z</time>
      </trkpt>
      <trkpt lat="48.67706" lon="-4.34078">
        <ele>11</ele>
        <time>2025-09-24T10:23:09Z</time>
      </trkpt>
      <trkpt lat="48.67707" lon="-4.3408">
        <ele>11</ele>
        <time>2025-09-24T10:23:12Z</time>
      </trkpt>
      <trkpt lat="48.67707" lon="-4.34082">
        <ele>11</ele>
        <time>2025-09-24T10:23:13Z</time>
      </trkpt>
      <trkpt lat="48.67707" lon="-4.34093">
        <ele>10.6</ele>
        <time>2025-09-24T10:23:19Z</time>
      </trkpt>
      <trkpt lat="48.67705" lon="-4.34102">
        <ele>9.6</ele>
        <time>2025-09-24T10:23:24Z</time>
      </trkpt>
      <trkpt lat="48.67705" lon="-4.34107">
        <ele>9.4</ele>
        <time>2025-09-24T10:23:26Z</time>
      </trkpt>
      <trkpt lat="48.67703" lon="-4.34114">
        <ele>9.8</ele>
        <time>2025-09-24T10:23:30Z</time>
      </trkpt>
      <trkpt lat="48.67701" lon="-4.34116">
        <ele>9.6</ele>
        <time>2025-09-24T10:23:32Z</time>
      </trkpt>
      <trkpt lat="48.677" lon="-4.34117">
        <ele>9.6</ele>
        <time>2025-09-24T10:23:33Z</time>
      </trkpt>
      <trkpt lat="48.67699" lon="-4.34119">
        <ele>9.4</ele>
        <time>2025-09-24T10:23:36Z</time>
      </trkpt>
      <trkpt lat="48.67699" lon="-4.3412">
        <ele>9.6</ele>
        <time>2025-09-24T10:23:43Z</time>
      </trkpt>
      <trkpt lat="48.67699" lon="-4.34119">
        <ele>9.6</ele>
        <time>2025-09-24T10:23:44Z</time>
      </trkpt>
      <trkpt lat="48.67699" lon="-4.34119">
        <ele>9.8</ele>
        <time>2025-09-24T10:23:45Z</time>
      </trkpt>
      <trkpt lat="48.67699" lon="-4.3412">
        <ele>9.6</ele>
        <time>2025-09-24T10:24:10Z</time>
      </trkpt>
      <trkpt lat="48.67697" lon="-4.34118">
        <ele>9.4</ele>
        <time>2025-09-24T10:24:13Z</time>
      </trkpt>
      <trkpt lat="48.67691" lon="-4.34118">
        <ele>9.2</ele>
        <time>2025-09-24T10:24:18Z</time>
      </trkpt>
      <trkpt lat="48.67686" lon="-4.34117">
        <ele>9</ele>
        <time>2025-09-24T10:24:25Z</time>
      </trkpt>
      <trkpt lat="48.67682" lon="-4.34116">
        <ele>9</ele>
        <time>2025-09-24T10:24:29Z</time>
      </trkpt>
      <trkpt lat="48.6768" lon="-4.34114">
        <ele>9.2</ele>
        <time>2025-09-24T10:24:38Z</time>
      </trkpt>
      <trkpt lat="48.67679" lon="-4.34112">
        <ele>9.2</ele>
        <time>2025-09-24T10:24:39Z</time>
      </trkpt>
      <trkpt lat="48.67678" lon="-4.34108">
        <ele>9.2</ele>
        <time>2025-09-24T10:24:41Z</time>
      </trkpt>
      <trkpt lat="48.67679" lon="-4.34103">
        <ele>9.4</ele>
        <time>2025-09-24T10:24:44Z</time>
      </trkpt>
      <trkpt lat="48.67687" lon="-4.34099">
        <ele>9.8</ele>
        <time>2025-09-24T10:24:51Z</time>
      </trkpt>
      <trkpt lat="48.67689" lon="-4.34099">
        <ele>9.8</ele>
        <time>2025-09-24T10:24:56Z</time>
      </trkpt>
      <trkpt lat="48.67687" lon="-4.34101">
        <ele>9.6</ele>
        <time>2025-09-24T10:25:20Z</time>
      </trkpt>
      <trkpt lat="48.67684" lon="-4.34102">
        <ele>9.6</ele>
        <time>2025-09-24T10:25:25Z</time>
      </trkpt>
      <trkpt lat="48.67671" lon="-4.34107">
        <ele>9.6</ele>
        <time>2025-09-24T10:25:31Z</time>
      </trkpt>
      <trkpt lat="48.67647" lon="-4.34116">
        <ele>9.6</ele>
        <time>2025-09-24T10:25:40Z</time>
      </trkpt>
      <trkpt lat="48.67626" lon="-4.34126">
        <ele>9.6</ele>
        <time>2025-09-24T10:25:49Z</time>
      </trkpt>
      <trkpt lat="48.67616" lon="-4.3413">
        <ele>9.8</ele>
        <time>2025-09-24T10:25:53Z</time>
      </trkpt>
      <trkpt lat="48.67608" lon="-4.34133">
        <ele>10.2</ele>
        <time>2025-09-24T10:25:56Z</time>
      </trkpt>
      <trkpt lat="48.67598" lon="-4.34136">
        <ele>10.6</ele>
        <time>2025-09-24T10:26:00Z</time>
      </trkpt>
      <trkpt lat="48.67588" lon="-4.34141">
        <ele>11</ele>
        <time>2025-09-24T10:26:04Z</time>
      </trkpt>
      <trkpt lat="48.67577" lon="-4.3415">
        <ele>11.6</ele>
        <time>2025-09-24T10:26:10Z</time>
      </trkpt>
      <trkpt lat="48.67576" lon="-4.34152">
        <ele>11.8</ele>
        <time>2025-09-24T10:26:11Z</time>
      </trkpt>
      <trkpt lat="48.67568" lon="-4.34164">
        <ele>12.8</ele>
        <time>2025-09-24T10:26:16Z</time>
      </trkpt>
      <trkpt lat="48.67562" lon="-4.34174">
        <ele>13</ele>
        <time>2025-09-24T10:26:20Z</time>
      </trkpt>
      <trkpt lat="48.67548" lon="-4.34201">
        <ele>13.4</ele>
        <time>2025-09-24T10:26:29Z</time>
      </trkpt>
      <trkpt lat="48.67544" lon="-4.34207">
        <ele>13.4</ele>
        <time>2025-09-24T10:26:31Z</time>
      </trkpt>
      <trkpt lat="48.67541" lon="-4.34209">
        <ele>13.4</ele>
        <time>2025-09-24T10:26:32Z</time>
      </trkpt>
      <trkpt lat="48.67537" lon="-4.34213">
        <ele>13.4</ele>
        <time>2025-09-24T10:26:34Z</time>
      </trkpt>
      <trkpt lat="48.67535" lon="-4.34214">
        <ele>13.4</ele>
        <time>2025-09-24T10:26:35Z</time>
      </trkpt>
      <trkpt lat="48.67522" lon="-4.34214">
        <ele>13.8</ele>
        <time>2025-09-24T10:26:40Z</time>
      </trkpt>
      <trkpt lat="48.6752" lon="-4.34214">
        <ele>13.8</ele>
        <time>2025-09-24T10:26:41Z</time>
      </trkpt>
      <trkpt lat="48.67496" lon="-4.34206">
        <ele>14.8</ele>
        <time>2025-09-24T10:26:51Z</time>
      </trkpt>
      <trkpt lat="48.67494" lon="-4.34206">
        <ele>14.8</ele>
        <time>2025-09-24T10:26:52Z</time>
      </trkpt>
      <trkpt lat="48.67482" lon="-4.34206">
        <ele>14.8</ele>
        <time>2025-09-24T10:26:57Z</time>
      </trkpt>
      <trkpt lat="48.6747" lon="-4.34205">
        <ele>14.6</ele>
        <time>2025-09-24T10:27:01Z</time>
      </trkpt>
      <trkpt lat="48.67462" lon="-4.3421">
        <ele>14.2</ele>
        <time>2025-09-24T10:27:04Z</time>
      </trkpt>
      <trkpt lat="48.6746" lon="-4.34214">
        <ele>14</ele>
        <time>2025-09-24T10:27:05Z</time>
      </trkpt>
      <trkpt lat="48.6746" lon="-4.34219">
        <ele>13.8</ele>
        <time>2025-09-24T10:27:06Z</time>
      </trkpt>
      <trkpt lat="48.67462" lon="-4.34227">
        <ele>13.4</ele>
        <time>2025-09-24T10:27:08Z</time>
      </trkpt>
      <trkpt lat="48.67464" lon="-4.34234">
        <ele>13.2</ele>
        <time>2025-09-24T10:27:10Z</time>
      </trkpt>
      <trkpt lat="48.67465" lon="-4.34238">
        <ele>12.8</ele>
        <time>2025-09-24T10:27:11Z</time>
      </trkpt>
      <trkpt lat="48.67465" lon="-4.34243">
        <ele>12.6</ele>
        <time>2025-09-24T10:27:12Z</time>
      </trkpt>
      <trkpt lat="48.67464" lon="-4.34249">
        <ele>12.4</ele>
        <time>2025-09-24T10:27:13Z</time>
      </trkpt>
      <trkpt lat="48.67462" lon="-4.34261">
        <ele>12</ele>
        <time>2025-09-24T10:27:15Z</time>
      </trkpt>
      <trkpt lat="48.67458" lon="-4.34273">
        <ele>11.6</ele>
        <time>2025-09-24T10:27:17Z</time>
      </trkpt>
      <trkpt lat="48.67456" lon="-4.34279">
        <ele>11.4</ele>
        <time>2025-09-24T10:27:18Z</time>
      </trkpt>
      <trkpt lat="48.67444" lon="-4.34305">
        <ele>10.6</ele>
        <time>2025-09-24T10:27:22Z</time>
      </trkpt>
      <trkpt lat="48.67436" lon="-4.34318">
        <ele>10.2</ele>
        <time>2025-09-24T10:27:24Z</time>
      </trkpt>
      <trkpt lat="48.67433" lon="-4.34325">
        <ele>9.8</ele>
        <time>2025-09-24T10:27:25Z</time>
      </trkpt>
      <trkpt lat="48.67428" lon="-4.34339">
        <ele>9.4</ele>
        <time>2025-09-24T10:27:27Z</time>
      </trkpt>
      <trkpt lat="48.67426" lon="-4.34346">
        <ele>9.2</ele>
        <time>2025-09-24T10:27:28Z</time>
      </trkpt>
      <trkpt lat="48.6742" lon="-4.34368">
        <ele>8.4</ele>
        <time>2025-09-24T10:27:32Z</time>
      </trkpt>
      <trkpt lat="48.67421" lon="-4.34372">
        <ele>8.4</ele>
        <time>2025-09-24T10:27:33Z</time>
      </trkpt>
      <trkpt lat="48.67425" lon="-4.34381">
        <ele>8</ele>
        <time>2025-09-24T10:27:35Z</time>
      </trkpt>
      <trkpt lat="48.67445" lon="-4.34415">
        <ele>7.6</ele>
        <time>2025-09-24T10:27:43Z</time>
      </trkpt>
      <trkpt lat="48.67453" lon="-4.34431">
        <ele>7.4</ele>
        <time>2025-09-24T10:27:46Z</time>
      </trkpt>
      <trkpt lat="48.6746" lon="-4.34441">
        <ele>7.2</ele>
        <time>2025-09-24T10:27:48Z</time>
      </trkpt>
      <trkpt lat="48.67464" lon="-4.34446">
        <ele>7.2</ele>
        <time>2025-09-24T10:27:49Z</time>
      </trkpt>
      <trkpt lat="48.67492" lon="-4.34472">
        <ele>6.8</ele>
        <time>2025-09-24T10:27:56Z</time>
      </trkpt>
      <trkpt lat="48.67513" lon="-4.34491">
        <ele>6.8</ele>
        <time>2025-09-24T10:28:02Z</time>
      </trkpt>
      <trkpt lat="48.67525" lon="-4.345">
        <ele>6.8</ele>
        <time>2025-09-24T10:28:05Z</time>
      </trkpt>
      <trkpt lat="48.67552" lon="-4.3453">
        <ele>7</ele>
        <time>2025-09-24T10:28:13Z</time>
      </trkpt>
      <trkpt lat="48.67578" lon="-4.34562">
        <ele>8</ele>
        <time>2025-09-24T10:28:22Z</time>
      </trkpt>
      <trkpt lat="48.67585" lon="-4.34574">
        <ele>8.4</ele>
        <time>2025-09-24T10:28:25Z</time>
      </trkpt>
      <trkpt lat="48.6759" lon="-4.34582">
        <ele>8.4</ele>
        <time>2025-09-24T10:28:27Z</time>
      </trkpt>
      <trkpt lat="48.67601" lon="-4.34601">
        <ele>8.6</ele>
        <time>2025-09-24T10:28:31Z</time>
      </trkpt>
      <trkpt lat="48.67603" lon="-4.34606">
        <ele>8.6</ele>
        <time>2025-09-24T10:28:32Z</time>
      </trkpt>
      <trkpt lat="48.67624" lon="-4.3464">
        <ele>7.4</ele>
        <time>2025-09-24T10:28:39Z</time>
      </trkpt>
      <trkpt lat="48.67632" lon="-4.34649">
        <ele>7.6</ele>
        <time>2025-09-24T10:28:42Z</time>
      </trkpt>
      <trkpt lat="48.67638" lon="-4.34653">
        <ele>7.8</ele>
        <time>2025-09-24T10:28:45Z</time>
      </trkpt>
      <trkpt lat="48.67647" lon="-4.34663">
        <ele>8.2</ele>
        <time>2025-09-24T10:28:52Z</time>
      </trkpt>
      <trkpt lat="48.67647" lon="-4.34671">
        <ele>8.4</ele>
        <time>2025-09-24T10:28:55Z</time>
      </trkpt>
      <trkpt lat="48.67646" lon="-4.34677">
        <ele>8.4</ele>
        <time>2025-09-24T10:28:57Z</time>
      </trkpt>
      <trkpt lat="48.67644" lon="-4.34687">
        <ele>8.8</ele>
        <time>2025-09-24T10:29:01Z</time>
      </trkpt>
      <trkpt lat="48.67643" lon="-4.34693">
        <ele>8.8</ele>
        <time>2025-09-24T10:29:03Z</time>
      </trkpt>
      <trkpt lat="48.67641" lon="-4.34705">
        <ele>8.6</ele>
        <time>2025-09-24T10:29:06Z</time>
      </trkpt>
      <trkpt lat="48.67639" lon="-4.34712">
        <ele>8.8</ele>
        <time>2025-09-24T10:29:08Z</time>
      </trkpt>
      <trkpt lat="48.67638" lon="-4.34735">
        <ele>9</ele>
        <time>2025-09-24T10:29:15Z</time>
      </trkpt>
      <trkpt lat="48.67641" lon="-4.34741">
        <ele>9.2</ele>
        <time>2025-09-24T10:29:17Z</time>
      </trkpt>
      <trkpt lat="48.67643" lon="-4.34755">
        <ele>9.4</ele>
        <time>2025-09-24T10:29:21Z</time>
      </trkpt>
      <trkpt lat="48.67644" lon="-4.34777">
        <ele>9.8</ele>
        <time>2025-09-24T10:29:28Z</time>
      </trkpt>
      <trkpt lat="48.67642" lon="-4.34798">
        <ele>10</ele>
        <time>2025-09-24T10:29:34Z</time>
      </trkpt>
      <trkpt lat="48.67638" lon="-4.34811">
        <ele>10.2</ele>
        <time>2025-09-24T10:29:39Z</time>
      </trkpt>
      <trkpt lat="48.67639" lon="-4.34822">
        <ele>10.2</ele>
        <time>2025-09-24T10:29:43Z</time>
      </trkpt>
      <trkpt lat="48.67639" lon="-4.34823">
        <ele>10</ele>
        <time>2025-09-24T10:29:44Z</time>
      </trkpt>
      <trkpt lat="48.67638" lon="-4.34826">
        <ele>10</ele>
        <time>2025-09-24T10:29:55Z</time>
      </trkpt>
      <trkpt lat="48.67636" lon="-4.3483">
        <ele>10</ele>
        <time>2025-09-24T10:29:57Z</time>
      </trkpt>
      <trkpt lat="48.67635" lon="-4.34844">
        <ele>10</ele>
        <time>2025-09-24T10:30:01Z</time>
      </trkpt>
      <trkpt lat="48.67636" lon="-4.34861">
        <ele>10.4</ele>
        <time>2025-09-24T10:30:05Z</time>
      </trkpt>
      <trkpt lat="48.67637" lon="-4.34873">
        <ele>10.4</ele>
        <time>2025-09-24T10:30:08Z</time>
      </trkpt>
      <trkpt lat="48.67638" lon="-4.34907">
        <ele>10.8</ele>
        <time>2025-09-24T10:30:17Z</time>
      </trkpt>
      <trkpt lat="48.67641" lon="-4.3491">
        <ele>11</ele>
        <time>2025-09-24T10:30:21Z</time>
      </trkpt>
      <trkpt lat="48.6764" lon="-4.34912">
        <ele>10.8</ele>
        <time>2025-09-24T10:33:28Z</time>
      </trkpt>
      <trkpt lat="48.67639" lon="-4.34913">
        <ele>10.8</ele>
        <time>2025-09-24T10:33:29Z</time>
      </trkpt>
      <trkpt lat="48.67636" lon="-4.34916">
        <ele>11</ele>
        <time>2025-09-24T10:33:31Z</time>
      </trkpt>
      <trkpt lat="48.67634" lon="-4.34929">
        <ele>10.2</ele>
        <time>2025-09-24T10:33:36Z</time>
      </trkpt>
      <trkpt lat="48.67628" lon="-4.34941">
        <ele>9</ele>
        <time>2025-09-24T10:33:40Z</time>
      </trkpt>
      <trkpt lat="48.67626" lon="-4.34944">
        <ele>8.6</ele>
        <time>2025-09-24T10:33:41Z</time>
      </trkpt>
      <trkpt lat="48.67622" lon="-4.34952">
        <ele>8</ele>
        <time>2025-09-24T10:33:43Z</time>
      </trkpt>
      <trkpt lat="48.67612" lon="-4.34968">
        <ele>7</ele>
        <time>2025-09-24T10:33:47Z</time>
      </trkpt>
      <trkpt lat="48.67609" lon="-4.34973">
        <ele>6.8</ele>
        <time>2025-09-24T10:33:48Z</time>
      </trkpt>
      <trkpt lat="48.67603" lon="-4.34982">
        <ele>6.6</ele>
        <time>2025-09-24T10:33:50Z</time>
      </trkpt>
      <trkpt lat="48.67596" lon="-4.34999">
        <ele>6.2</ele>
        <time>2025-09-24T10:33:53Z</time>
      </trkpt>
      <trkpt lat="48.67586" lon="-4.35025">
        <ele>6.2</ele>
        <time>2025-09-24T10:33:58Z</time>
      </trkpt>
      <trkpt lat="48.67574" lon="-4.35042">
        <ele>6.6</ele>
        <time>2025-09-24T10:34:04Z</time>
      </trkpt>
      <trkpt lat="48.6756" lon="-4.35054">
        <ele>6.8</ele>
        <time>2025-09-24T10:34:10Z</time>
      </trkpt>
      <trkpt lat="48.67555" lon="-4.35059">
        <ele>6.8</ele>
        <time>2025-09-24T10:34:12Z</time>
      </trkpt>
      <trkpt lat="48.6755" lon="-4.35063">
        <ele>7</ele>
        <time>2025-09-24T10:34:14Z</time>
      </trkpt>
      <trkpt lat="48.67534" lon="-4.35084">
        <ele>7.4</ele>
        <time>2025-09-24T10:34:22Z</time>
      </trkpt>
      <trkpt lat="48.67522" lon="-4.35101">
        <ele>7.4</ele>
        <time>2025-09-24T10:34:28Z</time>
      </trkpt>
      <trkpt lat="48.67517" lon="-4.35109">
        <ele>7.4</ele>
        <time>2025-09-24T10:34:31Z</time>
      </trkpt>
      <trkpt lat="48.67504" lon="-4.35125">
        <ele>7.8</ele>
        <time>2025-09-24T10:34:37Z</time>
      </trkpt>
      <trkpt lat="48.67498" lon="-4.35133">
        <ele>7.8</ele>
        <time>2025-09-24T10:34:40Z</time>
      </trkpt>
      <trkpt lat="48.67481" lon="-4.35156">
        <ele>8</ele>
        <time>2025-09-24T10:34:48Z</time>
      </trkpt>
      <trkpt lat="48.67476" lon="-4.35161">
        <ele>8</ele>
        <time>2025-09-24T10:34:50Z</time>
      </trkpt>
      <trkpt lat="48.67467" lon="-4.3517">
        <ele>8.2</ele>
        <time>2025-09-24T10:34:54Z</time>
      </trkpt>
      <trkpt lat="48.67454" lon="-4.35178">
        <ele>8.4</ele>
        <time>2025-09-24T10:34:59Z</time>
      </trkpt>
      <trkpt lat="48.67431" lon="-4.35196">
        <ele>8.8</ele>
        <time>2025-09-24T10:35:08Z</time>
      </trkpt>
      <trkpt lat="48.67415" lon="-4.35217">
        <ele>8.8</ele>
        <time>2025-09-24T10:35:14Z</time>
      </trkpt>
      <trkpt lat="48.67413" lon="-4.35222">
        <ele>8.8</ele>
        <time>2025-09-24T10:35:15Z</time>
      </trkpt>
      <trkpt lat="48.67403" lon="-4.35256">
        <ele>8.8</ele>
        <time>2025-09-24T10:35:21Z</time>
      </trkpt>
      <trkpt lat="48.67402" lon="-4.35262">
        <ele>9</ele>
        <time>2025-09-24T10:35:22Z</time>
      </trkpt>
      <trkpt lat="48.67387" lon="-4.35288">
        <ele>9.6</ele>
        <time>2025-09-24T10:35:28Z</time>
      </trkpt>
      <trkpt lat="48.67358" lon="-4.35341">
        <ele>9.8</ele>
        <time>2025-09-24T10:35:39Z</time>
      </trkpt>
      <trkpt lat="48.67351" lon="-4.35353">
        <ele>10</ele>
        <time>2025-09-24T10:35:42Z</time>
      </trkpt>
      <trkpt lat="48.67344" lon="-4.35368">
        <ele>10.2</ele>
        <time>2025-09-24T10:35:46Z</time>
      </trkpt>
      <trkpt lat="48.67337" lon="-4.35398">
        <ele>10.2</ele>
        <time>2025-09-24T10:35:52Z</time>
      </trkpt>
      <trkpt lat="48.6734" lon="-4.35439">
        <ele>10.8</ele>
        <time>2025-09-24T10:35:58Z</time>
      </trkpt>
      <trkpt lat="48.67344" lon="-4.35465">
        <ele>11</ele>
        <time>2025-09-24T10:36:02Z</time>
      </trkpt>
      <trkpt lat="48.67344" lon="-4.355">
        <ele>11</ele>
        <time>2025-09-24T10:36:07Z</time>
      </trkpt>
      <trkpt lat="48.67341" lon="-4.35517">
        <ele>11.2</ele>
        <time>2025-09-24T10:36:10Z</time>
      </trkpt>
      <trkpt lat="48.67338" lon="-4.35526">
        <ele>11.4</ele>
        <time>2025-09-24T10:36:12Z</time>
      </trkpt>
      <trkpt lat="48.67329" lon="-4.35543">
        <ele>12.2</ele>
        <time>2025-09-24T10:36:16Z</time>
      </trkpt>
      <trkpt lat="48.67321" lon="-4.35554">
        <ele>12.6</ele>
        <time>2025-09-24T10:36:19Z</time>
      </trkpt>
      <trkpt lat="48.67316" lon="-4.35562">
        <ele>12.8</ele>
        <time>2025-09-24T10:36:21Z</time>
      </trkpt>
      <trkpt lat="48.67312" lon="-4.35571">
        <ele>13</ele>
        <time>2025-09-24T10:36:23Z</time>
      </trkpt>
      <trkpt lat="48.67308" lon="-4.3558">
        <ele>13</ele>
        <time>2025-09-24T10:36:25Z</time>
      </trkpt>
      <trkpt lat="48.67307" lon="-4.35586">
        <ele>12.8</ele>
        <time>2025-09-24T10:36:26Z</time>
      </trkpt>
      <trkpt lat="48.67298" lon="-4.3561">
        <ele>12.4</ele>
        <time>2025-09-24T10:36:30Z</time>
      </trkpt>
      <trkpt lat="48.67289" lon="-4.35627">
        <ele>12</ele>
        <time>2025-09-24T10:36:33Z</time>
      </trkpt>
      <trkpt lat="48.67266" lon="-4.35668">
        <ele>11.4</ele>
        <time>2025-09-24T10:36:40Z</time>
      </trkpt>
      <trkpt lat="48.67248" lon="-4.35698">
        <ele>11</ele>
        <time>2025-09-24T10:36:45Z</time>
      </trkpt>
      <trkpt lat="48.67239" lon="-4.3571">
        <ele>10.8</ele>
        <time>2025-09-24T10:36:47Z</time>
      </trkpt>
      <trkpt lat="48.67221" lon="-4.3573">
        <ele>10.4</ele>
        <time>2025-09-24T10:36:51Z</time>
      </trkpt>
      <trkpt lat="48.67203" lon="-4.35747">
        <ele>10.4</ele>
        <time>2025-09-24T10:36:55Z</time>
      </trkpt>
      <trkpt lat="48.67176" lon="-4.35774">
        <ele>10.6</ele>
        <time>2025-09-24T10:37:02Z</time>
      </trkpt>
      <trkpt lat="48.67154" lon="-4.35801">
        <ele>10</ele>
        <time>2025-09-24T10:37:08Z</time>
      </trkpt>
      <trkpt lat="48.67148" lon="-4.35816">
        <ele>9.6</ele>
        <time>2025-09-24T10:37:10Z</time>
      </trkpt>
      <trkpt lat="48.67143" lon="-4.35832">
        <ele>9.4</ele>
        <time>2025-09-24T10:37:12Z</time>
      </trkpt>
      <trkpt lat="48.67141" lon="-4.35841">
        <ele>9.2</ele>
        <time>2025-09-24T10:37:13Z</time>
      </trkpt>
      <trkpt lat="48.67134" lon="-4.3588">
        <ele>9.2</ele>
        <time>2025-09-24T10:37:18Z</time>
      </trkpt>
      <trkpt lat="48.67132" lon="-4.35887">
        <ele>9.2</ele>
        <time>2025-09-24T10:37:19Z</time>
      </trkpt>
      <trkpt lat="48.6712" lon="-4.35919">
        <ele>9.2</ele>
        <time>2025-09-24T10:37:24Z</time>
      </trkpt>
      <trkpt lat="48.67118" lon="-4.35925">
        <ele>9.2</ele>
        <time>2025-09-24T10:37:25Z</time>
      </trkpt>
      <trkpt lat="48.67099" lon="-4.35956">
        <ele>9.2</ele>
        <time>2025-09-24T10:37:32Z</time>
      </trkpt>
      <trkpt lat="48.67073" lon="-4.35987">
        <ele>9</ele>
        <time>2025-09-24T10:37:40Z</time>
      </trkpt>
      <trkpt lat="48.67066" lon="-4.35995">
        <ele>9</ele>
        <time>2025-09-24T10:37:42Z</time>
      </trkpt>
      <trkpt lat="48.67049" lon="-4.36014">
        <ele>8.6</ele>
        <time>2025-09-24T10:37:46Z</time>
      </trkpt>
      <trkpt lat="48.67022" lon="-4.36048">
        <ele>8.6</ele>
        <time>2025-09-24T10:37:52Z</time>
      </trkpt>
      <trkpt lat="48.67018" lon="-4.36054">
        <ele>8.6</ele>
        <time>2025-09-24T10:37:53Z</time>
      </trkpt>
      <trkpt lat="48.67013" lon="-4.36059">
        <ele>8.6</ele>
        <time>2025-09-24T10:37:54Z</time>
      </trkpt>
      <trkpt lat="48.67004" lon="-4.36068">
        <ele>8.6</ele>
        <time>2025-09-24T10:37:56Z</time>
      </trkpt>
      <trkpt lat="48.66967" lon="-4.36111">
        <ele>8.6</ele>
        <time>2025-09-24T10:38:04Z</time>
      </trkpt>
      <trkpt lat="48.6693" lon="-4.36151">
        <ele>8.6</ele>
        <time>2025-09-24T10:38:12Z</time>
      </trkpt>
      <trkpt lat="48.66926" lon="-4.36155">
        <ele>8.6</ele>
        <time>2025-09-24T10:38:13Z</time>
      </trkpt>
      <trkpt lat="48.66893" lon="-4.36193">
        <ele>8.6</ele>
        <time>2025-09-24T10:38:21Z</time>
      </trkpt>
      <trkpt lat="48.66858" lon="-4.3623">
        <ele>8.8</ele>
        <time>2025-09-24T10:38:30Z</time>
      </trkpt>
      <trkpt lat="48.66849" lon="-4.36242">
        <ele>8.8</ele>
        <time>2025-09-24T10:38:33Z</time>
      </trkpt>
      <trkpt lat="48.66846" lon="-4.36253">
        <ele>8.8</ele>
        <time>2025-09-24T10:38:35Z</time>
      </trkpt>
      <trkpt lat="48.66844" lon="-4.36288">
        <ele>8.8</ele>
        <time>2025-09-24T10:38:40Z</time>
      </trkpt>
      <trkpt lat="48.66841" lon="-4.36309">
        <ele>9</ele>
        <time>2025-09-24T10:38:43Z</time>
      </trkpt>
      <trkpt lat="48.66839" lon="-4.36315">
        <ele>9</ele>
        <time>2025-09-24T10:38:44Z</time>
      </trkpt>
      <trkpt lat="48.66837" lon="-4.36322">
        <ele>8.8</ele>
        <time>2025-09-24T10:38:45Z</time>
      </trkpt>
      <trkpt lat="48.66834" lon="-4.36328">
        <ele>8.8</ele>
        <time>2025-09-24T10:38:46Z</time>
      </trkpt>
      <trkpt lat="48.66827" lon="-4.3634">
        <ele>9</ele>
        <time>2025-09-24T10:38:48Z</time>
      </trkpt>
      <trkpt lat="48.6682" lon="-4.3635">
        <ele>8.8</ele>
        <time>2025-09-24T10:38:50Z</time>
      </trkpt>
      <trkpt lat="48.668" lon="-4.36377">
        <ele>8.4</ele>
        <time>2025-09-24T10:38:55Z</time>
      </trkpt>
      <trkpt lat="48.66795" lon="-4.36382">
        <ele>8.6</ele>
        <time>2025-09-24T10:38:56Z</time>
      </trkpt>
      <trkpt lat="48.6679" lon="-4.36387">
        <ele>8.6</ele>
        <time>2025-09-24T10:38:57Z</time>
      </trkpt>
      <trkpt lat="48.66786" lon="-4.36393">
        <ele>8.6</ele>
        <time>2025-09-24T10:38:58Z</time>
      </trkpt>
      <trkpt lat="48.66781" lon="-4.36398">
        <ele>8.6</ele>
        <time>2025-09-24T10:38:59Z</time>
      </trkpt>
      <trkpt lat="48.66737" lon="-4.36449">
        <ele>9.2</ele>
        <time>2025-09-24T10:39:09Z</time>
      </trkpt>
      <trkpt lat="48.66732" lon="-4.36454">
        <ele>9.2</ele>
        <time>2025-09-24T10:39:10Z</time>
      </trkpt>
      <trkpt lat="48.66712" lon="-4.36477">
        <ele>8.8</ele>
        <time>2025-09-24T10:39:15Z</time>
      </trkpt>
      <trkpt lat="48.66689" lon="-4.36507">
        <ele>9.2</ele>
        <time>2025-09-24T10:39:21Z</time>
      </trkpt>
      <trkpt lat="48.66676" lon="-4.36523">
        <ele>9.2</ele>
        <time>2025-09-24T10:39:24Z</time>
      </trkpt>
      <trkpt lat="48.66635" lon="-4.36576">
        <ele>9.2</ele>
        <time>2025-09-24T10:39:34Z</time>
      </trkpt>
      <trkpt lat="48.66623" lon="-4.36592">
        <ele>9.4</ele>
        <time>2025-09-24T10:39:37Z</time>
      </trkpt>
      <trkpt lat="48.66591" lon="-4.36637">
        <ele>9</ele>
        <time>2025-09-24T10:39:45Z</time>
      </trkpt>
      <trkpt lat="48.66587" lon="-4.36643">
        <ele>9.2</ele>
        <time>2025-09-24T10:39:46Z</time>
      </trkpt>
      <trkpt lat="48.66571" lon="-4.36666">
        <ele>9.4</ele>
        <time>2025-09-24T10:39:50Z</time>
      </trkpt>
      <trkpt lat="48.6654" lon="-4.36714">
        <ele>9.6</ele>
        <time>2025-09-24T10:39:58Z</time>
      </trkpt>
      <trkpt lat="48.66501" lon="-4.36773">
        <ele>9.2</ele>
        <time>2025-09-24T10:40:08Z</time>
      </trkpt>
      <trkpt lat="48.66492" lon="-4.36793">
        <ele>9.4</ele>
        <time>2025-09-24T10:40:12Z</time>
      </trkpt>
      <trkpt lat="48.66497" lon="-4.36814">
        <ele>9.6</ele>
        <time>2025-09-24T10:40:16Z</time>
      </trkpt>
      <trkpt lat="48.66504" lon="-4.36821">
        <ele>9.6</ele>
        <time>2025-09-24T10:40:18Z</time>
      </trkpt>
      <trkpt lat="48.66511" lon="-4.36829">
        <ele>9</ele>
        <time>2025-09-24T10:40:20Z</time>
      </trkpt>
      <trkpt lat="48.66542" lon="-4.36855">
        <ele>9</ele>
        <time>2025-09-24T10:40:28Z</time>
      </trkpt>
      <trkpt lat="48.6655" lon="-4.36862">
        <ele>9</ele>
        <time>2025-09-24T10:40:30Z</time>
      </trkpt>
      <trkpt lat="48.66587" lon="-4.36894">
        <ele>8.2</ele>
        <time>2025-09-24T10:40:39Z</time>
      </trkpt>
      <trkpt lat="48.66619" lon="-4.36922">
        <ele>9.2</ele>
        <time>2025-09-24T10:40:47Z</time>
      </trkpt>
      <trkpt lat="48.66659" lon="-4.36956">
        <ele>8.4</ele>
        <time>2025-09-24T10:40:57Z</time>
      </trkpt>
      <trkpt lat="48.66701" lon="-4.36987">
        <ele>8.4</ele>
        <time>2025-09-24T10:41:07Z</time>
      </trkpt>
      <trkpt lat="48.66731" lon="-4.37009">
        <ele>8.6</ele>
        <time>2025-09-24T10:41:15Z</time>
      </trkpt>
      <trkpt lat="48.6676" lon="-4.3703">
        <ele>9.6</ele>
        <time>2025-09-24T10:41:24Z</time>
      </trkpt>
      <trkpt lat="48.66769" lon="-4.37037">
        <ele>10</ele>
        <time>2025-09-24T10:41:28Z</time>
      </trkpt>
      <trkpt lat="48.66772" lon="-4.3704">
        <ele>10.2</ele>
        <time>2025-09-24T10:41:30Z</time>
      </trkpt>
      <trkpt lat="48.66778" lon="-4.37055">
        <ele>10.2</ele>
        <time>2025-09-24T10:41:37Z</time>
      </trkpt>
      <trkpt lat="48.66778" lon="-4.37061">
        <ele>10.2</ele>
        <time>2025-09-24T10:41:40Z</time>
      </trkpt>
      <trkpt lat="48.66775" lon="-4.37063">
        <ele>10.2</ele>
        <time>2025-09-24T10:41:42Z</time>
      </trkpt>
      <trkpt lat="48.66772" lon="-4.37062">
        <ele>10.2</ele>
        <time>2025-09-24T10:41:46Z</time>
      </trkpt>
      <trkpt lat="48.66771" lon="-4.37063">
        <ele>10.2</ele>
        <time>2025-09-24T10:41:56Z</time>
      </trkpt>
      <trkpt lat="48.66771" lon="-4.37067">
        <ele>10.6</ele>
        <time>2025-09-24T10:42:01Z</time>
      </trkpt>
      <trkpt lat="48.66774" lon="-4.37078">
        <ele>10.6</ele>
        <time>2025-09-24T10:42:06Z</time>
      </trkpt>
      <trkpt lat="48.66771" lon="-4.37084">
        <ele>10.6</ele>
        <time>2025-09-24T10:42:13Z</time>
      </trkpt>
      <trkpt lat="48.66767" lon="-4.37091">
        <ele>10.8</ele>
        <time>2025-09-24T10:42:18Z</time>
      </trkpt>
      <trkpt lat="48.6676" lon="-4.37104">
        <ele>11.2</ele>
        <time>2025-09-24T10:42:28Z</time>
      </trkpt>
      <trkpt lat="48.66757" lon="-4.37108">
        <ele>11.4</ele>
        <time>2025-09-24T10:42:31Z</time>
      </trkpt>
      <trkpt lat="48.66752" lon="-4.37124">
        <ele>12.2</ele>
        <time>2025-09-24T10:42:41Z</time>
      </trkpt>
      <trkpt lat="48.66752" lon="-4.37125">
        <ele>12.2</ele>
        <time>2025-09-24T10:42:42Z</time>
      </trkpt>
      <trkpt lat="48.66748" lon="-4.37138">
        <ele>12.6</ele>
        <time>2025-09-24T10:42:52Z</time>
      </trkpt>
      <trkpt lat="48.66747" lon="-4.37148">
        <ele>12.4</ele>
        <time>2025-09-24T10:43:02Z</time>
      </trkpt>
      <trkpt lat="48.66747" lon="-4.37148">
        <ele>12.2</ele>
        <time>2025-09-24T10:43:04Z</time>
      </trkpt>
      <trkpt lat="48.66746" lon="-4.37151">
        <ele>12.2</ele>
        <time>2025-09-24T10:43:43Z</time>
      </trkpt>
      <trkpt lat="48.66745" lon="-4.37153">
        <ele>12.2</ele>
        <time>2025-09-24T10:43:44Z</time>
      </trkpt>
      <trkpt lat="48.66745" lon="-4.37155">
        <ele>12</ele>
        <time>2025-09-24T10:43:45Z</time>
      </trkpt>
      <trkpt lat="48.66743" lon="-4.37154">
        <ele>12</ele>
        <time>2025-09-24T10:43:48Z</time>
      </trkpt>
      <trkpt lat="48.66742" lon="-4.37155">
        <ele>12.2</ele>
        <time>2025-09-24T10:43:49Z</time>
      </trkpt>
      <trkpt lat="48.66741" lon="-4.37154">
        <ele>12.2</ele>
        <time>2025-09-24T10:43:50Z</time>
      </trkpt>
      <trkpt lat="48.6674" lon="-4.37155">
        <ele>12.2</ele>
        <time>2025-09-24T10:43:52Z</time>
      </trkpt>
      <trkpt lat="48.6674" lon="-4.37155">
        <ele>12.2</ele>
        <time>2025-09-24T10:43:53Z</time>
      </trkpt>
      <trkpt lat="48.66741" lon="-4.37154">
        <ele>12.2</ele>
        <time>2025-09-24T10:46:34Z</time>
      </trkpt>
      <trkpt lat="48.6674" lon="-4.37153">
        <ele>12.2</ele>
        <time>2025-09-24T10:46:35Z</time>
      </trkpt>
      <trkpt lat="48.66739" lon="-4.37153">
        <ele>12.2</ele>
        <time>2025-09-24T10:46:36Z</time>
      </trkpt>
      <trkpt lat="48.66739" lon="-4.37153">
        <ele>12.2</ele>
        <time>2025-09-24T10:46:37Z</time>
      </trkpt>
      <trkpt lat="48.66739" lon="-4.37153">
        <ele>12.2</ele>
        <time>2025-09-24T10:46:39Z</time>
      </trkpt>
      <trkpt lat="48.66741" lon="-4.37154">
        <ele>12.2</ele>
        <time>2025-09-24T10:46:42Z</time>
      </trkpt>
      <trkpt lat="48.66741" lon="-4.37154">
        <ele>12.2</ele>
        <time>2025-09-24T10:46:43Z</time>
      </trkpt>
      <trkpt lat="48.66741" lon="-4.37154">
        <ele>12.2</ele>
        <time>2025-09-24T10:46:47Z</time>
      </trkpt>
      <trkpt lat="48.66742" lon="-4.37154">
        <ele>12.2</ele>
        <time>2025-09-24T10:46:52Z</time>
      </trkpt>
      <trkpt lat="48.66744" lon="-4.37153">
        <ele>12.2</ele>
        <time>2025-09-24T10:46:56Z</time>
      </trkpt>
      <trkpt lat="48.66745" lon="-4.37154">
        <ele>12.2</ele>
        <time>2025-09-24T10:46:58Z</time>
      </trkpt>
      <trkpt lat="48.66745" lon="-4.37155">
        <ele>12.2</ele>
        <time>2025-09-24T10:46:59Z</time>
      </trkpt>
      <trkpt lat="48.66745" lon="-4.37157">
        <ele>12.2</ele>
        <time>2025-09-24T10:47:00Z</time>
      </trkpt>
      <trkpt lat="48.66745" lon="-4.37162">
        <ele>12.2</ele>
        <time>2025-09-24T10:47:04Z</time>
      </trkpt>
      <trkpt lat="48.66744" lon="-4.37166">
        <ele>12.6</ele>
        <time>2025-09-24T10:47:07Z</time>
      </trkpt>
      <trkpt lat="48.66743" lon="-4.37168">
        <ele>12.8</ele>
        <time>2025-09-24T10:47:10Z</time>
      </trkpt>
      <trkpt lat="48.66739" lon="-4.37169">
        <ele>12.2</ele>
        <time>2025-09-24T10:47:14Z</time>
      </trkpt>
      <trkpt lat="48.66731" lon="-4.37174">
        <ele>11.4</ele>
        <time>2025-09-24T10:47:23Z</time>
      </trkpt>
      <trkpt lat="48.66727" lon="-4.37175">
        <ele>11.4</ele>
        <time>2025-09-24T10:47:27Z</time>
      </trkpt>
      <trkpt lat="48.66724" lon="-4.37178">
        <ele>11.2</ele>
        <time>2025-09-24T10:47:31Z</time>
      </trkpt>
      <trkpt lat="48.66722" lon="-4.37181">
        <ele>11.4</ele>
        <time>2025-09-24T10:47:34Z</time>
      </trkpt>
      <trkpt lat="48.66722" lon="-4.37181">
        <ele>11.4</ele>
        <time>2025-09-24T10:47:35Z</time>
      </trkpt>
      <trkpt lat="48.66721" lon="-4.37181">
        <ele>11.4</ele>
        <time>2025-09-24T10:47:36Z</time>
      </trkpt>
      <trkpt lat="48.66721" lon="-4.37182">
        <ele>11.2</ele>
        <time>2025-09-24T10:47:37Z</time>
      </trkpt>
      <trkpt lat="48.66719" lon="-4.37183">
        <ele>11</ele>
        <time>2025-09-24T10:47:39Z</time>
      </trkpt>
      <trkpt lat="48.66718" lon="-4.37185">
        <ele>11</ele>
        <time>2025-09-24T10:47:41Z</time>
      </trkpt>
      <trkpt lat="48.66717" lon="-4.37186">
        <ele>11</ele>
        <time>2025-09-24T10:47:44Z</time>
      </trkpt>
      <trkpt lat="48.66717" lon="-4.37188">
        <ele>10.8</ele>
        <time>2025-09-24T10:47:48Z</time>
      </trkpt>
      <trkpt lat="48.66717" lon="-4.37189">
        <ele>10.8</ele>
        <time>2025-09-24T10:47:49Z</time>
      </trkpt>
      <trkpt lat="48.66715" lon="-4.37193">
        <ele>10.8</ele>
        <time>2025-09-24T10:47:55Z</time>
      </trkpt>
      <trkpt lat="48.66716" lon="-4.37195">
        <ele>10.8</ele>
        <time>2025-09-24T10:47:56Z</time>
      </trkpt>
      <trkpt lat="48.66716" lon="-4.37199">
        <ele>11</ele>
        <time>2025-09-24T10:48:01Z</time>
      </trkpt>
      <trkpt lat="48.66715" lon="-4.372">
        <ele>11</ele>
        <time>2025-09-24T10:48:03Z</time>
      </trkpt>
      <trkpt lat="48.66715" lon="-4.37202">
        <ele>10.8</ele>
        <time>2025-09-24T10:48:05Z</time>
      </trkpt>
      <trkpt lat="48.66713" lon="-4.37207">
        <ele>11</ele>
        <time>2025-09-24T10:48:09Z</time>
      </trkpt>
      <trkpt lat="48.6671" lon="-4.37211">
        <ele>11</ele>
        <time>2025-09-24T10:48:16Z</time>
      </trkpt>
      <trkpt lat="48.6671" lon="-4.3721">
        <ele>11</ele>
        <time>2025-09-24T10:49:20Z</time>
      </trkpt>
      <trkpt lat="48.6671" lon="-4.37209">
        <ele>11</ele>
        <time>2025-09-24T10:49:21Z</time>
      </trkpt>
      <trkpt lat="48.66713" lon="-4.37203">
        <ele>11</ele>
        <time>2025-09-24T10:49:27Z</time>
      </trkpt>
      <trkpt lat="48.66716" lon="-4.37192">
        <ele>11.2</ele>
        <time>2025-09-24T10:49:36Z</time>
      </trkpt>
      <trkpt lat="48.66718" lon="-4.37185">
        <ele>11.4</ele>
        <time>2025-09-24T10:49:41Z</time>
      </trkpt>
      <trkpt lat="48.6672" lon="-4.37182">
        <ele>11.6</ele>
        <time>2025-09-24T10:49:45Z</time>
      </trkpt>
      <trkpt lat="48.66719" lon="-4.37181">
        <ele>11.6</ele>
        <time>2025-09-24T10:49:46Z</time>
      </trkpt>
      <trkpt lat="48.66721" lon="-4.37181">
        <ele>11.8</ele>
        <time>2025-09-24T10:53:07Z</time>
      </trkpt>
      <trkpt lat="48.66722" lon="-4.3718">
        <ele>11.8</ele>
        <time>2025-09-24T10:53:08Z</time>
      </trkpt>
      <trkpt lat="48.66724" lon="-4.37178">
        <ele>11.6</ele>
        <time>2025-09-24T10:53:11Z</time>
      </trkpt>
      <trkpt lat="48.66724" lon="-4.37178">
        <ele>11.4</ele>
        <time>2025-09-24T10:53:13Z</time>
      </trkpt>
      <trkpt lat="48.66725" lon="-4.37177">
        <ele>11.2</ele>
        <time>2025-09-24T10:53:18Z</time>
      </trkpt>
      <trkpt lat="48.66727" lon="-4.37176">
        <ele>11.2</ele>
        <time>2025-09-24T10:53:20Z</time>
      </trkpt>
      <trkpt lat="48.66734" lon="-4.37173">
        <ele>12</ele>
        <time>2025-09-24T10:53:26Z</time>
      </trkpt>
      <trkpt lat="48.66739" lon="-4.37172">
        <ele>12.2</ele>
        <time>2025-09-24T10:53:31Z</time>
      </trkpt>
      <trkpt lat="48.66745" lon="-4.37169">
        <ele>13.2</ele>
        <time>2025-09-24T10:53:37Z</time>
      </trkpt>
      <trkpt lat="48.66748" lon="-4.37169">
        <ele>13.4</ele>
        <time>2025-09-24T10:53:41Z</time>
      </trkpt>
      <trkpt lat="48.66753" lon="-4.37169">
        <ele>12.6</ele>
        <time>2025-09-24T10:53:48Z</time>
      </trkpt>
      <trkpt lat="48.66761" lon="-4.37169">
        <ele>12.8</ele>
        <time>2025-09-24T10:53:56Z</time>
      </trkpt>
      <trkpt lat="48.66763" lon="-4.37169">
        <ele>12.6</ele>
        <time>2025-09-24T10:53:58Z</time>
      </trkpt>
      <trkpt lat="48.66763" lon="-4.37169">
        <ele>12.6</ele>
        <time>2025-09-24T10:53:59Z</time>
      </trkpt>
      <trkpt lat="48.66765" lon="-4.37169">
        <ele>12.6</ele>
        <time>2025-09-24T10:54:00Z</time>
      </trkpt>
      <trkpt lat="48.66767" lon="-4.37169">
        <ele>12.6</ele>
        <time>2025-09-24T10:54:02Z</time>
      </trkpt>
      <trkpt lat="48.66768" lon="-4.37169">
        <ele>12.6</ele>
        <time>2025-09-24T10:54:03Z</time>
      </trkpt>
      <trkpt lat="48.66768" lon="-4.37169">
        <ele>12.4</ele>
        <time>2025-09-24T10:54:04Z</time>
      </trkpt>
      <trkpt lat="48.66769" lon="-4.37169">
        <ele>12.4</ele>
        <time>2025-09-24T10:54:05Z</time>
      </trkpt>
      <trkpt lat="48.66772" lon="-4.37169">
        <ele>12.6</ele>
        <time>2025-09-24T10:54:10Z</time>
      </trkpt>
      <trkpt lat="48.66777" lon="-4.37169">
        <ele>12.2</ele>
        <time>2025-09-24T10:54:17Z</time>
      </trkpt>
      <trkpt lat="48.66779" lon="-4.3717">
        <ele>12.2</ele>
        <time>2025-09-24T10:54:18Z</time>
      </trkpt>
      <trkpt lat="48.66779" lon="-4.3717">
        <ele>12</ele>
        <time>2025-09-24T10:54:20Z</time>
      </trkpt>
      <trkpt lat="48.66781" lon="-4.3717">
        <ele>12.4</ele>
        <time>2025-09-24T10:54:44Z</time>
      </trkpt>
      <trkpt lat="48.66782" lon="-4.3717">
        <ele>12.4</ele>
        <time>2025-09-24T10:54:45Z</time>
      </trkpt>
      <trkpt lat="48.66782" lon="-4.3717">
        <ele>12.4</ele>
        <time>2025-09-24T10:54:46Z</time>
      </trkpt>
      <trkpt lat="48.66785" lon="-4.3717">
        <ele>12.2</ele>
        <time>2025-09-24T10:54:51Z</time>
      </trkpt>
      <trkpt lat="48.6679" lon="-4.37176">
        <ele>12.4</ele>
        <time>2025-09-24T10:54:57Z</time>
      </trkpt>
      <trkpt lat="48.66793" lon="-4.37178">
        <ele>12.4</ele>
        <time>2025-09-24T10:54:59Z</time>
      </trkpt>
      <trkpt lat="48.66796" lon="-4.3718">
        <ele>12.4</ele>
        <time>2025-09-24T10:55:02Z</time>
      </trkpt>
      <trkpt lat="48.66806" lon="-4.37187">
        <ele>12.8</ele>
        <time>2025-09-24T10:55:10Z</time>
      </trkpt>
      <trkpt lat="48.66817" lon="-4.37193">
        <ele>13.2</ele>
        <time>2025-09-24T10:55:18Z</time>
      </trkpt>
      <trkpt lat="48.66819" lon="-4.37194">
        <ele>13.4</ele>
        <time>2025-09-24T10:55:19Z</time>
      </trkpt>
      <trkpt lat="48.66821" lon="-4.37195">
        <ele>13.4</ele>
        <time>2025-09-24T10:55:21Z</time>
      </trkpt>
      <trkpt lat="48.66823" lon="-4.37196">
        <ele>13.6</ele>
        <time>2025-09-24T10:55:22Z</time>
      </trkpt>
      <trkpt lat="48.66824" lon="-4.37196">
        <ele>13.6</ele>
        <time>2025-09-24T10:55:23Z</time>
      </trkpt>
      <trkpt lat="48.66826" lon="-4.37197">
        <ele>13.6</ele>
        <time>2025-09-24T10:55:24Z</time>
      </trkpt>
      <trkpt lat="48.66827" lon="-4.37197">
        <ele>13.8</ele>
        <time>2025-09-24T10:55:25Z</time>
      </trkpt>
      <trkpt lat="48.6683" lon="-4.37197">
        <ele>14</ele>
        <time>2025-09-24T10:55:27Z</time>
      </trkpt>
      <trkpt lat="48.66833" lon="-4.37198">
        <ele>14.4</ele>
        <time>2025-09-24T10:55:30Z</time>
      </trkpt>
      <trkpt lat="48.66834" lon="-4.37201">
        <ele>14.6</ele>
        <time>2025-09-24T10:55:32Z</time>
      </trkpt>
      <trkpt lat="48.66834" lon="-4.37206">
        <ele>14.6</ele>
        <time>2025-09-24T10:55:34Z</time>
      </trkpt>
      <trkpt lat="48.6683" lon="-4.3722">
        <ele>15</ele>
        <time>2025-09-24T10:55:41Z</time>
      </trkpt>
      <trkpt lat="48.66826" lon="-4.37229">
        <ele>15.4</ele>
        <time>2025-09-24T10:55:46Z</time>
      </trkpt>
      <trkpt lat="48.66827" lon="-4.37229">
        <ele>15.4</ele>
        <time>2025-09-24T10:55:47Z</time>
      </trkpt>
      <trkpt lat="48.66826" lon="-4.37231">
        <ele>15.8</ele>
        <time>2025-09-24T10:56:14Z</time>
      </trkpt>
      <trkpt lat="48.66826" lon="-4.37235">
        <ele>15.4</ele>
        <time>2025-09-24T10:56:16Z</time>
      </trkpt>
      <trkpt lat="48.66827" lon="-4.37237">
        <ele>15.4</ele>
        <time>2025-09-24T10:56:19Z</time>
      </trkpt>
      <trkpt lat="48.66826" lon="-4.37242">
        <ele>15.2</ele>
        <time>2025-09-24T10:57:29Z</time>
      </trkpt>
      <trkpt lat="48.66825" lon="-4.37244">
        <ele>15.2</ele>
        <time>2025-09-24T10:57:30Z</time>
      </trkpt>
      <trkpt lat="48.66819" lon="-4.3726">
        <ele>14.8</ele>
        <time>2025-09-24T10:57:36Z</time>
      </trkpt>
      <trkpt lat="48.66806" lon="-4.37279">
        <ele>14.8</ele>
        <time>2025-09-24T10:57:44Z</time>
      </trkpt>
      <trkpt lat="48.66795" lon="-4.37293">
        <ele>14.4</ele>
        <time>2025-09-24T10:57:49Z</time>
      </trkpt>
      <trkpt lat="48.66793" lon="-4.37297">
        <ele>14.2</ele>
        <time>2025-09-24T10:57:50Z</time>
      </trkpt>
      <trkpt lat="48.66785" lon="-4.3731">
        <ele>14</ele>
        <time>2025-09-24T10:57:53Z</time>
      </trkpt>
      <trkpt lat="48.66782" lon="-4.37314">
        <ele>13.8</ele>
        <time>2025-09-24T10:57:54Z</time>
      </trkpt>
      <trkpt lat="48.66772" lon="-4.37329">
        <ele>13.8</ele>
        <time>2025-09-24T10:57:58Z</time>
      </trkpt>
      <trkpt lat="48.66762" lon="-4.37343">
        <ele>14.2</ele>
        <time>2025-09-24T10:58:04Z</time>
      </trkpt>
      <trkpt lat="48.66754" lon="-4.3735">
        <ele>14</ele>
        <time>2025-09-24T10:58:08Z</time>
      </trkpt>
      <trkpt lat="48.66745" lon="-4.37357">
        <ele>13.4</ele>
        <time>2025-09-24T10:58:11Z</time>
      </trkpt>
      <trkpt lat="48.66741" lon="-4.37359">
        <ele>13.2</ele>
        <time>2025-09-24T10:58:12Z</time>
      </trkpt>
      <trkpt lat="48.66737" lon="-4.37361">
        <ele>13.2</ele>
        <time>2025-09-24T10:58:13Z</time>
      </trkpt>
      <trkpt lat="48.66722" lon="-4.37364">
        <ele>13</ele>
        <time>2025-09-24T10:58:17Z</time>
      </trkpt>
      <trkpt lat="48.66719" lon="-4.37364">
        <ele>13</ele>
        <time>2025-09-24T10:58:18Z</time>
      </trkpt>
      <trkpt lat="48.66704" lon="-4.37356">
        <ele>13</ele>
        <time>2025-09-24T10:58:23Z</time>
      </trkpt>
      <trkpt lat="48.66695" lon="-4.37352">
        <ele>12.4</ele>
        <time>2025-09-24T10:58:25Z</time>
      </trkpt>
      <trkpt lat="48.66691" lon="-4.3735">
        <ele>12</ele>
        <time>2025-09-24T10:58:26Z</time>
      </trkpt>
      <trkpt lat="48.66685" lon="-4.3735">
        <ele>11.4</ele>
        <time>2025-09-24T10:58:27Z</time>
      </trkpt>
      <trkpt lat="48.66679" lon="-4.3735">
        <ele>10.8</ele>
        <time>2025-09-24T10:58:28Z</time>
      </trkpt>
      <trkpt lat="48.66673" lon="-4.37352">
        <ele>10.4</ele>
        <time>2025-09-24T10:58:29Z</time>
      </trkpt>
      <trkpt lat="48.66661" lon="-4.37361">
        <ele>9.6</ele>
        <time>2025-09-24T10:58:31Z</time>
      </trkpt>
      <trkpt lat="48.66641" lon="-4.37391">
        <ele>9.4</ele>
        <time>2025-09-24T10:58:35Z</time>
      </trkpt>
      <trkpt lat="48.6663" lon="-4.37415">
        <ele>9.8</ele>
        <time>2025-09-24T10:58:38Z</time>
      </trkpt>
      <trkpt lat="48.66625" lon="-4.37433">
        <ele>9.8</ele>
        <time>2025-09-24T10:58:40Z</time>
      </trkpt>
      <trkpt lat="48.66617" lon="-4.3748">
        <ele>10.4</ele>
        <time>2025-09-24T10:58:46Z</time>
      </trkpt>
      <trkpt lat="48.66616" lon="-4.37486">
        <ele>10.8</ele>
        <time>2025-09-24T10:58:47Z</time>
      </trkpt>
      <trkpt lat="48.66614" lon="-4.37505">
        <ele>12</ele>
        <time>2025-09-24T10:58:51Z</time>
      </trkpt>
      <trkpt lat="48.66611" lon="-4.37516">
        <ele>12.6</ele>
        <time>2025-09-24T10:58:54Z</time>
      </trkpt>
      <trkpt lat="48.66608" lon="-4.37519">
        <ele>12.8</ele>
        <time>2025-09-24T10:58:56Z</time>
      </trkpt>
      <trkpt lat="48.666" lon="-4.37521">
        <ele>13</ele>
        <time>2025-09-24T10:59:01Z</time>
      </trkpt>
      <trkpt lat="48.66599" lon="-4.37521">
        <ele>13</ele>
        <time>2025-09-24T10:59:02Z</time>
      </trkpt>
      <trkpt lat="48.66584" lon="-4.37514">
        <ele>12.6</ele>
        <time>2025-09-24T10:59:09Z</time>
      </trkpt>
      <trkpt lat="48.66558" lon="-4.37508">
        <ele>12.2</ele>
        <time>2025-09-24T10:59:17Z</time>
      </trkpt>
      <trkpt lat="48.66526" lon="-4.37501">
        <ele>11.8</ele>
        <time>2025-09-24T10:59:26Z</time>
      </trkpt>
      <trkpt lat="48.665" lon="-4.37493">
        <ele>11.6</ele>
        <time>2025-09-24T10:59:33Z</time>
      </trkpt>
      <trkpt lat="48.66492" lon="-4.3749">
        <ele>11.6</ele>
        <time>2025-09-24T10:59:35Z</time>
      </trkpt>
      <trkpt lat="48.66471" lon="-4.37482">
        <ele>12</ele>
        <time>2025-09-24T10:59:41Z</time>
      </trkpt>
      <trkpt lat="48.66467" lon="-4.37481">
        <ele>12.2</ele>
        <time>2025-09-24T10:59:42Z</time>
      </trkpt>
      <trkpt lat="48.66464" lon="-4.3748">
        <ele>12.4</ele>
        <time>2025-09-24T10:59:43Z</time>
      </trkpt>
      <trkpt lat="48.6646" lon="-4.3748">
        <ele>12.6</ele>
        <time>2025-09-24T10:59:44Z</time>
      </trkpt>
      <trkpt lat="48.66454" lon="-4.37478">
        <ele>12.6</ele>
        <time>2025-09-24T10:59:46Z</time>
      </trkpt>
      <trkpt lat="48.6643" lon="-4.37468">
        <ele>13.2</ele>
        <time>2025-09-24T10:59:53Z</time>
      </trkpt>
      <trkpt lat="48.66427" lon="-4.37466">
        <ele>13.2</ele>
        <time>2025-09-24T10:59:54Z</time>
      </trkpt>
      <trkpt lat="48.66407" lon="-4.37454">
        <ele>14.2</ele>
        <time>2025-09-24T11:00:02Z</time>
      </trkpt>
      <trkpt lat="48.66401" lon="-4.37451">
        <ele>14.8</ele>
        <time>2025-09-24T11:00:04Z</time>
      </trkpt>
      <trkpt lat="48.66393" lon="-4.37447">
        <ele>15.2</ele>
        <time>2025-09-24T11:00:07Z</time>
      </trkpt>
      <trkpt lat="48.66381" lon="-4.37441">
        <ele>15.6</ele>
        <time>2025-09-24T11:00:11Z</time>
      </trkpt>
      <trkpt lat="48.66358" lon="-4.37434">
        <ele>14.6</ele>
        <time>2025-09-24T11:00:18Z</time>
      </trkpt>
      <trkpt lat="48.66341" lon="-4.37428">
        <ele>14.2</ele>
        <time>2025-09-24T11:00:22Z</time>
      </trkpt>
      <trkpt lat="48.66336" lon="-4.37427">
        <ele>14.2</ele>
        <time>2025-09-24T11:00:23Z</time>
      </trkpt>
      <trkpt lat="48.66331" lon="-4.37425">
        <ele>14</ele>
        <time>2025-09-24T11:00:24Z</time>
      </trkpt>
      <trkpt lat="48.66321" lon="-4.37422">
        <ele>13.8</ele>
        <time>2025-09-24T11:00:26Z</time>
      </trkpt>
      <trkpt lat="48.66316" lon="-4.3742">
        <ele>13.4</ele>
        <time>2025-09-24T11:00:27Z</time>
      </trkpt>
      <trkpt lat="48.6631" lon="-4.37418">
        <ele>13.2</ele>
        <time>2025-09-24T11:00:28Z</time>
      </trkpt>
      <trkpt lat="48.6629" lon="-4.37411">
        <ele>11.8</ele>
        <time>2025-09-24T11:00:31Z</time>
      </trkpt>
      <trkpt lat="48.66283" lon="-4.37408">
        <ele>11.2</ele>
        <time>2025-09-24T11:00:32Z</time>
      </trkpt>
      <trkpt lat="48.66277" lon="-4.37406">
        <ele>10.6</ele>
        <time>2025-09-24T11:00:33Z</time>
      </trkpt>
      <trkpt lat="48.66257" lon="-4.37399">
        <ele>9.6</ele>
        <time>2025-09-24T11:00:36Z</time>
      </trkpt>
      <trkpt lat="48.66251" lon="-4.37399">
        <ele>9.2</ele>
        <time>2025-09-24T11:00:37Z</time>
      </trkpt>
      <trkpt lat="48.66245" lon="-4.37403">
        <ele>9</ele>
        <time>2025-09-24T11:00:38Z</time>
      </trkpt>
      <trkpt lat="48.66239" lon="-4.37409">
        <ele>8.8</ele>
        <time>2025-09-24T11:00:39Z</time>
      </trkpt>
      <trkpt lat="48.66235" lon="-4.37417">
        <ele>8.4</ele>
        <time>2025-09-24T11:00:40Z</time>
      </trkpt>
      <trkpt lat="48.66232" lon="-4.37426">
        <ele>8.4</ele>
        <time>2025-09-24T11:00:41Z</time>
      </trkpt>
      <trkpt lat="48.66213" lon="-4.37481">
        <ele>7.4</ele>
        <time>2025-09-24T11:00:47Z</time>
      </trkpt>
      <trkpt lat="48.66199" lon="-4.37517">
        <ele>6.8</ele>
        <time>2025-09-24T11:00:51Z</time>
      </trkpt>
      <trkpt lat="48.66189" lon="-4.37545">
        <ele>6.4</ele>
        <time>2025-09-24T11:00:54Z</time>
      </trkpt>
      <trkpt lat="48.66185" lon="-4.37555">
        <ele>6.4</ele>
        <time>2025-09-24T11:00:55Z</time>
      </trkpt>
      <trkpt lat="48.66182" lon="-4.37563">
        <ele>6.4</ele>
        <time>2025-09-24T11:00:56Z</time>
      </trkpt>
      <trkpt lat="48.66178" lon="-4.37572">
        <ele>6.4</ele>
        <time>2025-09-24T11:00:57Z</time>
      </trkpt>
      <trkpt lat="48.66169" lon="-4.37598">
        <ele>6.6</ele>
        <time>2025-09-24T11:01:00Z</time>
      </trkpt>
      <trkpt lat="48.66161" lon="-4.37624">
        <ele>6.6</ele>
        <time>2025-09-24T11:01:03Z</time>
      </trkpt>
      <trkpt lat="48.66157" lon="-4.3765">
        <ele>6.8</ele>
        <time>2025-09-24T11:01:06Z</time>
      </trkpt>
      <trkpt lat="48.6616" lon="-4.37667">
        <ele>7</ele>
        <time>2025-09-24T11:01:08Z</time>
      </trkpt>
      <trkpt lat="48.66165" lon="-4.37682">
        <ele>6.8</ele>
        <time>2025-09-24T11:01:10Z</time>
      </trkpt>
      <trkpt lat="48.66175" lon="-4.3771">
        <ele>6.6</ele>
        <time>2025-09-24T11:01:14Z</time>
      </trkpt>
      <trkpt lat="48.66176" lon="-4.37718">
        <ele>6.6</ele>
        <time>2025-09-24T11:01:15Z</time>
      </trkpt>
      <trkpt lat="48.66181" lon="-4.37774">
        <ele>6.8</ele>
        <time>2025-09-24T11:01:22Z</time>
      </trkpt>
      <trkpt lat="48.66182" lon="-4.37826">
        <ele>7.2</ele>
        <time>2025-09-24T11:01:30Z</time>
      </trkpt>
      <trkpt lat="48.66182" lon="-4.37832">
        <ele>7.4</ele>
        <time>2025-09-24T11:01:31Z</time>
      </trkpt>
      <trkpt lat="48.66185" lon="-4.37858">
        <ele>8</ele>
        <time>2025-09-24T11:01:36Z</time>
      </trkpt>
      <trkpt lat="48.66184" lon="-4.37862">
        <ele>8</ele>
        <time>2025-09-24T11:01:37Z</time>
      </trkpt>
      <trkpt lat="48.66177" lon="-4.37868">
        <ele>8.2</ele>
        <time>2025-09-24T11:01:40Z</time>
      </trkpt>
      <trkpt lat="48.66159" lon="-4.37869">
        <ele>8.4</ele>
        <time>2025-09-24T11:01:46Z</time>
      </trkpt>
      <trkpt lat="48.66136" lon="-4.37868">
        <ele>8.8</ele>
        <time>2025-09-24T11:01:53Z</time>
      </trkpt>
      <trkpt lat="48.66133" lon="-4.37868">
        <ele>8.8</ele>
        <time>2025-09-24T11:01:54Z</time>
      </trkpt>
      <trkpt lat="48.66124" lon="-4.37867">
        <ele>9</ele>
        <time>2025-09-24T11:01:57Z</time>
      </trkpt>
      <trkpt lat="48.66106" lon="-4.37864">
        <ele>9</ele>
        <time>2025-09-24T11:02:03Z</time>
      </trkpt>
      <trkpt lat="48.66074" lon="-4.37862">
        <ele>9.2</ele>
        <time>2025-09-24T11:02:12Z</time>
      </trkpt>
      <trkpt lat="48.66045" lon="-4.37857">
        <ele>9</ele>
        <time>2025-09-24T11:02:20Z</time>
      </trkpt>
      <trkpt lat="48.66037" lon="-4.37858">
        <ele>9</ele>
        <time>2025-09-24T11:02:22Z</time>
      </trkpt>
      <trkpt lat="48.66027" lon="-4.3786">
        <ele>9.2</ele>
        <time>2025-09-24T11:02:25Z</time>
      </trkpt>
      <trkpt lat="48.66002" lon="-4.37873">
        <ele>8.8</ele>
        <time>2025-09-24T11:02:32Z</time>
      </trkpt>
      <trkpt lat="48.65982" lon="-4.37892">
        <ele>9</ele>
        <time>2025-09-24T11:02:38Z</time>
      </trkpt>
      <trkpt lat="48.65972" lon="-4.37903">
        <ele>8.8</ele>
        <time>2025-09-24T11:02:41Z</time>
      </trkpt>
      <trkpt lat="48.65941" lon="-4.37938">
        <ele>8.6</ele>
        <time>2025-09-24T11:02:50Z</time>
      </trkpt>
      <trkpt lat="48.65933" lon="-4.37949">
        <ele>8</ele>
        <time>2025-09-24T11:02:52Z</time>
      </trkpt>
      <trkpt lat="48.65928" lon="-4.37964">
        <ele>7.4</ele>
        <time>2025-09-24T11:02:54Z</time>
      </trkpt>
      <trkpt lat="48.65921" lon="-4.37987">
        <ele>7</ele>
        <time>2025-09-24T11:02:57Z</time>
      </trkpt>
      <trkpt lat="48.65917" lon="-4.37994">
        <ele>7</ele>
        <time>2025-09-24T11:02:58Z</time>
      </trkpt>
      <trkpt lat="48.65912" lon="-4.38">
        <ele>6.8</ele>
        <time>2025-09-24T11:02:59Z</time>
      </trkpt>
      <trkpt lat="48.65899" lon="-4.38022">
        <ele>6.6</ele>
        <time>2025-09-24T11:03:02Z</time>
      </trkpt>
      <trkpt lat="48.65891" lon="-4.38037">
        <ele>6.4</ele>
        <time>2025-09-24T11:03:04Z</time>
      </trkpt>
      <trkpt lat="48.6587" lon="-4.38078">
        <ele>6.4</ele>
        <time>2025-09-24T11:03:10Z</time>
      </trkpt>
      <trkpt lat="48.65856" lon="-4.38103">
        <ele>6.6</ele>
        <time>2025-09-24T11:03:14Z</time>
      </trkpt>
      <trkpt lat="48.65856" lon="-4.38117">
        <ele>6.8</ele>
        <time>2025-09-24T11:03:16Z</time>
      </trkpt>
      <trkpt lat="48.65866" lon="-4.38128">
        <ele>6.6</ele>
        <time>2025-09-24T11:03:19Z</time>
      </trkpt>
      <trkpt lat="48.65888" lon="-4.38153">
        <ele>6.8</ele>
        <time>2025-09-24T11:03:26Z</time>
      </trkpt>
      <trkpt lat="48.65903" lon="-4.38169">
        <ele>7</ele>
        <time>2025-09-24T11:03:30Z</time>
      </trkpt>
      <trkpt lat="48.65913" lon="-4.38181">
        <ele>7.2</ele>
        <time>2025-09-24T11:03:33Z</time>
      </trkpt>
      <trkpt lat="48.65936" lon="-4.38208">
        <ele>7</ele>
        <time>2025-09-24T11:03:40Z</time>
      </trkpt>
      <trkpt lat="48.65943" lon="-4.38216">
        <ele>7.6</ele>
        <time>2025-09-24T11:03:42Z</time>
      </trkpt>
      <trkpt lat="48.65975" lon="-4.38258">
        <ele>7.4</ele>
        <time>2025-09-24T11:03:52Z</time>
      </trkpt>
      <trkpt lat="48.65984" lon="-4.38272">
        <ele>7.6</ele>
        <time>2025-09-24T11:03:55Z</time>
      </trkpt>
      <trkpt lat="48.65995" lon="-4.38294">
        <ele>7.4</ele>
        <time>2025-09-24T11:03:59Z</time>
      </trkpt>
      <trkpt lat="48.66004" lon="-4.38332">
        <ele>7.4</ele>
        <time>2025-09-24T11:04:05Z</time>
      </trkpt>
      <trkpt lat="48.66006" lon="-4.38352">
        <ele>7.8</ele>
        <time>2025-09-24T11:04:08Z</time>
      </trkpt>
      <trkpt lat="48.66006" lon="-4.38379">
        <ele>8.2</ele>
        <time>2025-09-24T11:04:12Z</time>
      </trkpt>
      <trkpt lat="48.66004" lon="-4.384">
        <ele>8.6</ele>
        <time>2025-09-24T11:04:15Z</time>
      </trkpt>
      <trkpt lat="48.66001" lon="-4.38431">
        <ele>9.2</ele>
        <time>2025-09-24T11:04:20Z</time>
      </trkpt>
      <trkpt lat="48.65999" lon="-4.38456">
        <ele>9.6</ele>
        <time>2025-09-24T11:04:24Z</time>
      </trkpt>
      <trkpt lat="48.65997" lon="-4.3848">
        <ele>10</ele>
        <time>2025-09-24T11:04:28Z</time>
      </trkpt>
      <trkpt lat="48.65996" lon="-4.38492">
        <ele>10.2</ele>
        <time>2025-09-24T11:04:30Z</time>
      </trkpt>
      <trkpt lat="48.65996" lon="-4.38529">
        <ele>10.4</ele>
        <time>2025-09-24T11:04:36Z</time>
      </trkpt>
      <trkpt lat="48.65998" lon="-4.38571">
        <ele>9.8</ele>
        <time>2025-09-24T11:04:42Z</time>
      </trkpt>
      <trkpt lat="48.66" lon="-4.38626">
        <ele>10</ele>
        <time>2025-09-24T11:04:50Z</time>
      </trkpt>
      <trkpt lat="48.66002" lon="-4.38664">
        <ele>10.6</ele>
        <time>2025-09-24T11:04:56Z</time>
      </trkpt>
      <trkpt lat="48.66002" lon="-4.38669">
        <ele>10.6</ele>
        <time>2025-09-24T11:04:57Z</time>
      </trkpt>
      <trkpt lat="48.66002" lon="-4.38681">
        <ele>11</ele>
        <time>2025-09-24T11:04:59Z</time>
      </trkpt>
      <trkpt lat="48.66" lon="-4.38714">
        <ele>11.6</ele>
        <time>2025-09-24T11:05:05Z</time>
      </trkpt>
      <trkpt lat="48.66" lon="-4.3872">
        <ele>11.8</ele>
        <time>2025-09-24T11:05:06Z</time>
      </trkpt>
      <trkpt lat="48.65999" lon="-4.38726">
        <ele>11.8</ele>
        <time>2025-09-24T11:05:07Z</time>
      </trkpt>
      <trkpt lat="48.6599" lon="-4.38774">
        <ele>11.8</ele>
        <time>2025-09-24T11:05:15Z</time>
      </trkpt>
      <trkpt lat="48.65988" lon="-4.3878">
        <ele>12</ele>
        <time>2025-09-24T11:05:16Z</time>
      </trkpt>
      <trkpt lat="48.65973" lon="-4.3882">
        <ele>11.8</ele>
        <time>2025-09-24T11:05:23Z</time>
      </trkpt>
      <trkpt lat="48.65956" lon="-4.38855">
        <ele>12.2</ele>
        <time>2025-09-24T11:05:30Z</time>
      </trkpt>
      <trkpt lat="48.65942" lon="-4.38888">
        <ele>12.4</ele>
        <time>2025-09-24T11:05:36Z</time>
      </trkpt>
      <trkpt lat="48.65925" lon="-4.38924">
        <ele>12.4</ele>
        <time>2025-09-24T11:05:43Z</time>
      </trkpt>
      <trkpt lat="48.65923" lon="-4.38928">
        <ele>12.8</ele>
        <time>2025-09-24T11:05:44Z</time>
      </trkpt>
      <trkpt lat="48.65912" lon="-4.38954">
        <ele>13.4</ele>
        <time>2025-09-24T11:05:51Z</time>
      </trkpt>
      <trkpt lat="48.65912" lon="-4.38963">
        <ele>13.8</ele>
        <time>2025-09-24T11:05:54Z</time>
      </trkpt>
      <trkpt lat="48.65912" lon="-4.38964">
        <ele>14</ele>
        <time>2025-09-24T11:05:55Z</time>
      </trkpt>
      <trkpt lat="48.65913" lon="-4.38966">
        <ele>14</ele>
        <time>2025-09-24T11:05:58Z</time>
      </trkpt>
      <trkpt lat="48.65912" lon="-4.38966">
        <ele>14</ele>
        <time>2025-09-24T11:07:38Z</time>
      </trkpt>
      <trkpt lat="48.65911" lon="-4.38967">
        <ele>14</ele>
        <time>2025-09-24T11:07:39Z</time>
      </trkpt>
      <trkpt lat="48.65908" lon="-4.38967">
        <ele>13.8</ele>
        <time>2025-09-24T11:07:41Z</time>
      </trkpt>
      <trkpt lat="48.65903" lon="-4.38968">
        <ele>13.8</ele>
        <time>2025-09-24T11:07:44Z</time>
      </trkpt>
      <trkpt lat="48.65895" lon="-4.3898">
        <ele>13.6</ele>
        <time>2025-09-24T11:07:49Z</time>
      </trkpt>
      <trkpt lat="48.65887" lon="-4.38991">
        <ele>13.6</ele>
        <time>2025-09-24T11:07:53Z</time>
      </trkpt>
      <trkpt lat="48.65878" lon="-4.39002">
        <ele>13.8</ele>
        <time>2025-09-24T11:07:57Z</time>
      </trkpt>
      <trkpt lat="48.65864" lon="-4.39029">
        <ele>13.6</ele>
        <time>2025-09-24T11:08:04Z</time>
      </trkpt>
      <trkpt lat="48.65838" lon="-4.39073">
        <ele>13.6</ele>
        <time>2025-09-24T11:08:14Z</time>
      </trkpt>
      <trkpt lat="48.65829" lon="-4.39089">
        <ele>13.2</ele>
        <time>2025-09-24T11:08:17Z</time>
      </trkpt>
      <trkpt lat="48.65819" lon="-4.39106">
        <ele>12.6</ele>
        <time>2025-09-24T11:08:20Z</time>
      </trkpt>
      <trkpt lat="48.65811" lon="-4.39118">
        <ele>12.2</ele>
        <time>2025-09-24T11:08:22Z</time>
      </trkpt>
      <trkpt lat="48.65799" lon="-4.39138">
        <ele>11.6</ele>
        <time>2025-09-24T11:08:25Z</time>
      </trkpt>
      <trkpt lat="48.65772" lon="-4.39177">
        <ele>10.8</ele>
        <time>2025-09-24T11:08:31Z</time>
      </trkpt>
      <trkpt lat="48.65763" lon="-4.39191">
        <ele>10.6</ele>
        <time>2025-09-24T11:08:33Z</time>
      </trkpt>
      <trkpt lat="48.65753" lon="-4.39205">
        <ele>10.2</ele>
        <time>2025-09-24T11:08:35Z</time>
      </trkpt>
      <trkpt lat="48.65729" lon="-4.3924">
        <ele>10</ele>
        <time>2025-09-24T11:08:40Z</time>
      </trkpt>
      <trkpt lat="48.65724" lon="-4.39247">
        <ele>10</ele>
        <time>2025-09-24T11:08:41Z</time>
      </trkpt>
      <trkpt lat="48.65709" lon="-4.39269">
        <ele>9.4</ele>
        <time>2025-09-24T11:08:44Z</time>
      </trkpt>
      <trkpt lat="48.657" lon="-4.39284">
        <ele>9</ele>
        <time>2025-09-24T11:08:46Z</time>
      </trkpt>
      <trkpt lat="48.65691" lon="-4.39302">
        <ele>8.8</ele>
        <time>2025-09-24T11:08:48Z</time>
      </trkpt>
      <trkpt lat="48.65687" lon="-4.3931">
        <ele>8.6</ele>
        <time>2025-09-24T11:08:49Z</time>
      </trkpt>
      <trkpt lat="48.65683" lon="-4.3932">
        <ele>8.4</ele>
        <time>2025-09-24T11:08:50Z</time>
      </trkpt>
      <trkpt lat="48.65652" lon="-4.39382">
        <ele>7.4</ele>
        <time>2025-09-24T11:08:57Z</time>
      </trkpt>
      <trkpt lat="48.65647" lon="-4.3939">
        <ele>7.2</ele>
        <time>2025-09-24T11:08:58Z</time>
      </trkpt>
      <trkpt lat="48.65637" lon="-4.39418">
        <ele>7.4</ele>
        <time>2025-09-24T11:09:01Z</time>
      </trkpt>
      <trkpt lat="48.65635" lon="-4.39428">
        <ele>7.2</ele>
        <time>2025-09-24T11:09:02Z</time>
      </trkpt>
      <trkpt lat="48.65626" lon="-4.39465">
        <ele>7</ele>
        <time>2025-09-24T11:09:06Z</time>
      </trkpt>
      <trkpt lat="48.6562" lon="-4.39481">
        <ele>7.2</ele>
        <time>2025-09-24T11:09:08Z</time>
      </trkpt>
      <trkpt lat="48.656" lon="-4.39525">
        <ele>8.4</ele>
        <time>2025-09-24T11:09:14Z</time>
      </trkpt>
      <trkpt lat="48.65596" lon="-4.39539">
        <ele>8.6</ele>
        <time>2025-09-24T11:09:16Z</time>
      </trkpt>
      <trkpt lat="48.65579" lon="-4.39586">
        <ele>9</ele>
        <time>2025-09-24T11:09:23Z</time>
      </trkpt>
      <trkpt lat="48.65569" lon="-4.39608">
        <ele>8.8</ele>
        <time>2025-09-24T11:09:26Z</time>
      </trkpt>
      <trkpt lat="48.65548" lon="-4.39669">
        <ele>8.2</ele>
        <time>2025-09-24T11:09:34Z</time>
      </trkpt>
      <trkpt lat="48.65543" lon="-4.39688">
        <ele>8.8</ele>
        <time>2025-09-24T11:09:37Z</time>
      </trkpt>
      <trkpt lat="48.65539" lon="-4.39705">
        <ele>9</ele>
        <time>2025-09-24T11:09:40Z</time>
      </trkpt>
      <trkpt lat="48.65522" lon="-4.39762">
        <ele>9</ele>
        <time>2025-09-24T11:09:50Z</time>
      </trkpt>
      <trkpt lat="48.65506" lon="-4.3981">
        <ele>8.8</ele>
        <time>2025-09-24T11:09:58Z</time>
      </trkpt>
      <trkpt lat="48.65487" lon="-4.3987">
        <ele>9</ele>
        <time>2025-09-24T11:10:08Z</time>
      </trkpt>
      <trkpt lat="48.65482" lon="-4.39895">
        <ele>9.2</ele>
        <time>2025-09-24T11:10:12Z</time>
      </trkpt>
      <trkpt lat="48.65481" lon="-4.39901">
        <ele>9.4</ele>
        <time>2025-09-24T11:10:13Z</time>
      </trkpt>
      <trkpt lat="48.65478" lon="-4.3992">
        <ele>9.4</ele>
        <time>2025-09-24T11:10:16Z</time>
      </trkpt>
      <trkpt lat="48.65473" lon="-4.39956">
        <ele>9.4</ele>
        <time>2025-09-24T11:10:23Z</time>
      </trkpt>
      <trkpt lat="48.65469" lon="-4.39982">
        <ele>9</ele>
        <time>2025-09-24T11:10:28Z</time>
      </trkpt>
      <trkpt lat="48.65459" lon="-4.40021">
        <ele>9</ele>
        <time>2025-09-24T11:10:35Z</time>
      </trkpt>
      <trkpt lat="48.6544" lon="-4.40078">
        <ele>9</ele>
        <time>2025-09-24T11:10:44Z</time>
      </trkpt>
      <trkpt lat="48.6543" lon="-4.40126">
        <ele>9.6</ele>
        <time>2025-09-24T11:10:51Z</time>
      </trkpt>
      <trkpt lat="48.65429" lon="-4.40133">
        <ele>9.6</ele>
        <time>2025-09-24T11:10:52Z</time>
      </trkpt>
      <trkpt lat="48.6542" lon="-4.40184">
        <ele>10.2</ele>
        <time>2025-09-24T11:11:00Z</time>
      </trkpt>
      <trkpt lat="48.65414" lon="-4.40204">
        <ele>10.2</ele>
        <time>2025-09-24T11:11:03Z</time>
      </trkpt>
      <trkpt lat="48.65399" lon="-4.40249">
        <ele>10.2</ele>
        <time>2025-09-24T11:11:10Z</time>
      </trkpt>
      <trkpt lat="48.65381" lon="-4.40313">
        <ele>9.6</ele>
        <time>2025-09-24T11:11:19Z</time>
      </trkpt>
      <trkpt lat="48.65368" lon="-4.40382">
        <ele>9</ele>
        <time>2025-09-24T11:11:28Z</time>
      </trkpt>
      <trkpt lat="48.65367" lon="-4.40389">
        <ele>9</ele>
        <time>2025-09-24T11:11:29Z</time>
      </trkpt>
      <trkpt lat="48.65366" lon="-4.40396">
        <ele>9</ele>
        <time>2025-09-24T11:11:30Z</time>
      </trkpt>
      <trkpt lat="48.65366" lon="-4.40403">
        <ele>9</ele>
        <time>2025-09-24T11:11:31Z</time>
      </trkpt>
      <trkpt lat="48.65362" lon="-4.40446">
        <ele>9</ele>
        <time>2025-09-24T11:11:37Z</time>
      </trkpt>
      <trkpt lat="48.65364" lon="-4.40505">
        <ele>8.8</ele>
        <time>2025-09-24T11:11:45Z</time>
      </trkpt>
      <trkpt lat="48.65372" lon="-4.40558">
        <ele>9.2</ele>
        <time>2025-09-24T11:11:52Z</time>
      </trkpt>
      <trkpt lat="48.65373" lon="-4.40566">
        <ele>9.2</ele>
        <time>2025-09-24T11:11:53Z</time>
      </trkpt>
      <trkpt lat="48.65375" lon="-4.40642">
        <ele>9</ele>
        <time>2025-09-24T11:12:03Z</time>
      </trkpt>
      <trkpt lat="48.65373" lon="-4.40714">
        <ele>8.8</ele>
        <time>2025-09-24T11:12:12Z</time>
      </trkpt>
      <trkpt lat="48.65373" lon="-4.40722">
        <ele>8.8</ele>
        <time>2025-09-24T11:12:13Z</time>
      </trkpt>
      <trkpt lat="48.65374" lon="-4.40754">
        <ele>8.8</ele>
        <time>2025-09-24T11:12:17Z</time>
      </trkpt>
      <trkpt lat="48.65374" lon="-4.40777">
        <ele>8.8</ele>
        <time>2025-09-24T11:12:20Z</time>
      </trkpt>
      <trkpt lat="48.65374" lon="-4.40785">
        <ele>8.8</ele>
        <time>2025-09-24T11:12:21Z</time>
      </trkpt>
      <trkpt lat="48.65374" lon="-4.40793">
        <ele>8.8</ele>
        <time>2025-09-24T11:12:22Z</time>
      </trkpt>
      <trkpt lat="48.65372" lon="-4.40854">
        <ele>8.6</ele>
        <time>2025-09-24T11:12:30Z</time>
      </trkpt>
      <trkpt lat="48.65371" lon="-4.40861">
        <ele>8.6</ele>
        <time>2025-09-24T11:12:31Z</time>
      </trkpt>
      <trkpt lat="48.6537" lon="-4.40877">
        <ele>8.8</ele>
        <time>2025-09-24T11:12:33Z</time>
      </trkpt>
      <trkpt lat="48.65369" lon="-4.40892">
        <ele>9</ele>
        <time>2025-09-24T11:12:35Z</time>
      </trkpt>
      <trkpt lat="48.6537" lon="-4.40921">
        <ele>9</ele>
        <time>2025-09-24T11:12:39Z</time>
      </trkpt>
      <trkpt lat="48.65377" lon="-4.40963">
        <ele>9.6</ele>
        <time>2025-09-24T11:12:45Z</time>
      </trkpt>
      <trkpt lat="48.65381" lon="-4.40992">
        <ele>10.2</ele>
        <time>2025-09-24T11:12:49Z</time>
      </trkpt>
      <trkpt lat="48.65383" lon="-4.40999">
        <ele>10.4</ele>
        <time>2025-09-24T11:12:50Z</time>
      </trkpt>
      <trkpt lat="48.65388" lon="-4.41024">
        <ele>11</ele>
        <time>2025-09-24T11:12:54Z</time>
      </trkpt>
      <trkpt lat="48.65395" lon="-4.41047">
        <ele>11.4</ele>
        <time>2025-09-24T11:12:58Z</time>
      </trkpt>
      <trkpt lat="48.65403" lon="-4.41077">
        <ele>12</ele>
        <time>2025-09-24T11:13:03Z</time>
      </trkpt>
      <trkpt lat="48.65416" lon="-4.41118">
        <ele>12.2</ele>
        <time>2025-09-24T11:13:10Z</time>
      </trkpt>
      <trkpt lat="48.65431" lon="-4.41169">
        <ele>12.2</ele>
        <time>2025-09-24T11:13:18Z</time>
      </trkpt>
      <trkpt lat="48.65433" lon="-4.41183">
        <ele>12</ele>
        <time>2025-09-24T11:13:20Z</time>
      </trkpt>
      <trkpt lat="48.65432" lon="-4.41212">
        <ele>12</ele>
        <time>2025-09-24T11:13:24Z</time>
      </trkpt>
      <trkpt lat="48.65429" lon="-4.41239">
        <ele>12.2</ele>
        <time>2025-09-24T11:13:28Z</time>
      </trkpt>
      <trkpt lat="48.65425" lon="-4.41258">
        <ele>12</ele>
        <time>2025-09-24T11:13:31Z</time>
      </trkpt>
      <trkpt lat="48.65419" lon="-4.4129">
        <ele>12.2</ele>
        <time>2025-09-24T11:13:36Z</time>
      </trkpt>
      <trkpt lat="48.65419" lon="-4.41297">
        <ele>12.2</ele>
        <time>2025-09-24T11:13:37Z</time>
      </trkpt>
      <trkpt lat="48.65418" lon="-4.41304">
        <ele>12.2</ele>
        <time>2025-09-24T11:13:38Z</time>
      </trkpt>
      <trkpt lat="48.65414" lon="-4.41352">
        <ele>12</ele>
        <time>2025-09-24T11:13:45Z</time>
      </trkpt>
      <trkpt lat="48.65405" lon="-4.41404">
        <ele>11.8</ele>
        <time>2025-09-24T11:13:53Z</time>
      </trkpt>
      <trkpt lat="48.65389" lon="-4.41469">
        <ele>11.8</ele>
        <time>2025-09-24T11:14:02Z</time>
      </trkpt>
      <trkpt lat="48.65371" lon="-4.41521">
        <ele>11</ele>
        <time>2025-09-24T11:14:10Z</time>
      </trkpt>
      <trkpt lat="48.65354" lon="-4.4158">
        <ele>11.6</ele>
        <time>2025-09-24T11:14:19Z</time>
      </trkpt>
      <trkpt lat="48.65348" lon="-4.41627">
        <ele>11.8</ele>
        <time>2025-09-24T11:14:26Z</time>
      </trkpt>
      <trkpt lat="48.65345" lon="-4.41652">
        <ele>11.6</ele>
        <time>2025-09-24T11:14:30Z</time>
      </trkpt>
      <trkpt lat="48.65343" lon="-4.41672">
        <ele>11.6</ele>
        <time>2025-09-24T11:14:33Z</time>
      </trkpt>
      <trkpt lat="48.6534" lon="-4.41693">
        <ele>11.6</ele>
        <time>2025-09-24T11:14:36Z</time>
      </trkpt>
      <trkpt lat="48.65327" lon="-4.41736">
        <ele>11</ele>
        <time>2025-09-24T11:14:42Z</time>
      </trkpt>
      <trkpt lat="48.65313" lon="-4.41773">
        <ele>10.4</ele>
        <time>2025-09-24T11:14:47Z</time>
      </trkpt>
      <trkpt lat="48.65307" lon="-4.41798">
        <ele>10</ele>
        <time>2025-09-24T11:14:50Z</time>
      </trkpt>
      <trkpt lat="48.65298" lon="-4.41858">
        <ele>10</ele>
        <time>2025-09-24T11:14:57Z</time>
      </trkpt>
      <trkpt lat="48.65296" lon="-4.41876">
        <ele>9.8</ele>
        <time>2025-09-24T11:14:59Z</time>
      </trkpt>
      <trkpt lat="48.65286" lon="-4.41934">
        <ele>10</ele>
        <time>2025-09-24T11:15:06Z</time>
      </trkpt>
      <trkpt lat="48.65281" lon="-4.41958">
        <ele>9.8</ele>
        <time>2025-09-24T11:15:09Z</time>
      </trkpt>
      <trkpt lat="48.65268" lon="-4.42023">
        <ele>9.6</ele>
        <time>2025-09-24T11:15:17Z</time>
      </trkpt>
      <trkpt lat="48.65258" lon="-4.42073">
        <ele>9.4</ele>
        <time>2025-09-24T11:15:23Z</time>
      </trkpt>
      <trkpt lat="48.65252" lon="-4.42107">
        <ele>9</ele>
        <time>2025-09-24T11:15:27Z</time>
      </trkpt>
      <trkpt lat="48.65237" lon="-4.42183">
        <ele>9.2</ele>
        <time>2025-09-24T11:15:36Z</time>
      </trkpt>
      <trkpt lat="48.65223" lon="-4.42258">
        <ele>9.6</ele>
        <time>2025-09-24T11:15:45Z</time>
      </trkpt>
      <trkpt lat="48.65207" lon="-4.42302">
        <ele>9.8</ele>
        <time>2025-09-24T11:15:51Z</time>
      </trkpt>
      <trkpt lat="48.65189" lon="-4.42333">
        <ele>9.8</ele>
        <time>2025-09-24T11:15:56Z</time>
      </trkpt>
      <trkpt lat="48.65184" lon="-4.42349">
        <ele>9.8</ele>
        <time>2025-09-24T11:15:58Z</time>
      </trkpt>
      <trkpt lat="48.65159" lon="-4.42423">
        <ele>9.8</ele>
        <time>2025-09-24T11:16:07Z</time>
      </trkpt>
      <trkpt lat="48.65156" lon="-4.42432">
        <ele>9.8</ele>
        <time>2025-09-24T11:16:08Z</time>
      </trkpt>
      <trkpt lat="48.65131" lon="-4.42496">
        <ele>9.8</ele>
        <time>2025-09-24T11:16:16Z</time>
      </trkpt>
      <trkpt lat="48.65124" lon="-4.42519">
        <ele>9.8</ele>
        <time>2025-09-24T11:16:19Z</time>
      </trkpt>
      <trkpt lat="48.65123" lon="-4.42533">
        <ele>9.8</ele>
        <time>2025-09-24T11:16:21Z</time>
      </trkpt>
      <trkpt lat="48.65125" lon="-4.42561">
        <ele>10</ele>
        <time>2025-09-24T11:16:25Z</time>
      </trkpt>
      <trkpt lat="48.65127" lon="-4.42576">
        <ele>10</ele>
        <time>2025-09-24T11:16:27Z</time>
      </trkpt>
      <trkpt lat="48.65135" lon="-4.42619">
        <ele>10</ele>
        <time>2025-09-24T11:16:33Z</time>
      </trkpt>
      <trkpt lat="48.65139" lon="-4.42633">
        <ele>10</ele>
        <time>2025-09-24T11:16:35Z</time>
      </trkpt>
      <trkpt lat="48.65142" lon="-4.42647">
        <ele>10</ele>
        <time>2025-09-24T11:16:37Z</time>
      </trkpt>
      <trkpt lat="48.65144" lon="-4.42654">
        <ele>10</ele>
        <time>2025-09-24T11:16:38Z</time>
      </trkpt>
      <trkpt lat="48.65146" lon="-4.42661">
        <ele>10</ele>
        <time>2025-09-24T11:16:39Z</time>
      </trkpt>
      <trkpt lat="48.65151" lon="-4.42682">
        <ele>10</ele>
        <time>2025-09-24T11:16:42Z</time>
      </trkpt>
      <trkpt lat="48.65152" lon="-4.42689">
        <ele>10</ele>
        <time>2025-09-24T11:16:43Z</time>
      </trkpt>
      <trkpt lat="48.65154" lon="-4.42696">
        <ele>10</ele>
        <time>2025-09-24T11:16:44Z</time>
      </trkpt>
      <trkpt lat="48.65158" lon="-4.42709">
        <ele>9.6</ele>
        <time>2025-09-24T11:16:46Z</time>
      </trkpt>
      <trkpt lat="48.65176" lon="-4.42779">
        <ele>10.4</ele>
        <time>2025-09-24T11:16:56Z</time>
      </trkpt>
      <trkpt lat="48.65187" lon="-4.42837">
        <ele>10.4</ele>
        <time>2025-09-24T11:17:04Z</time>
      </trkpt>
      <trkpt lat="48.65189" lon="-4.42859">
        <ele>10.4</ele>
        <time>2025-09-24T11:17:07Z</time>
      </trkpt>
      <trkpt lat="48.65188" lon="-4.42887">
        <ele>10.8</ele>
        <time>2025-09-24T11:17:11Z</time>
      </trkpt>
      <trkpt lat="48.65183" lon="-4.42922">
        <ele>11.6</ele>
        <time>2025-09-24T11:17:16Z</time>
      </trkpt>
      <trkpt lat="48.65178" lon="-4.42942">
        <ele>11.6</ele>
        <time>2025-09-24T11:17:19Z</time>
      </trkpt>
      <trkpt lat="48.65164" lon="-4.43005">
        <ele>12</ele>
        <time>2025-09-24T11:17:29Z</time>
      </trkpt>
      <trkpt lat="48.65154" lon="-4.43053">
        <ele>12.6</ele>
        <time>2025-09-24T11:17:37Z</time>
      </trkpt>
      <trkpt lat="48.65149" lon="-4.43077">
        <ele>12.6</ele>
        <time>2025-09-24T11:17:41Z</time>
      </trkpt>
      <trkpt lat="48.65135" lon="-4.4313">
        <ele>13</ele>
        <time>2025-09-24T11:17:50Z</time>
      </trkpt>
      <trkpt lat="48.65127" lon="-4.43149">
        <ele>13.2</ele>
        <time>2025-09-24T11:17:54Z</time>
      </trkpt>
      <trkpt lat="48.65106" lon="-4.43197">
        <ele>13.2</ele>
        <time>2025-09-24T11:18:03Z</time>
      </trkpt>
      <trkpt lat="48.65093" lon="-4.43229">
        <ele>12.6</ele>
        <time>2025-09-24T11:18:10Z</time>
      </trkpt>
      <trkpt lat="48.65079" lon="-4.4325">
        <ele>12</ele>
        <time>2025-09-24T11:18:16Z</time>
      </trkpt>
      <trkpt lat="48.65068" lon="-4.43254">
        <ele>11.4</ele>
        <time>2025-09-24T11:18:19Z</time>
      </trkpt>
      <trkpt lat="48.65059" lon="-4.43257">
        <ele>11</ele>
        <time>2025-09-24T11:18:21Z</time>
      </trkpt>
      <trkpt lat="48.65055" lon="-4.43258">
        <ele>11</ele>
        <time>2025-09-24T11:18:22Z</time>
      </trkpt>
      <trkpt lat="48.65037" lon="-4.43265">
        <ele>11.6</ele>
        <time>2025-09-24T11:18:27Z</time>
      </trkpt>
      <trkpt lat="48.65021" lon="-4.43268">
        <ele>12.4</ele>
        <time>2025-09-24T11:18:32Z</time>
      </trkpt>
      <trkpt lat="48.65018" lon="-4.43268">
        <ele>12.6</ele>
        <time>2025-09-24T11:18:33Z</time>
      </trkpt>
      <trkpt lat="48.65015" lon="-4.43266">
        <ele>12.6</ele>
        <time>2025-09-24T11:18:34Z</time>
      </trkpt>
      <trkpt lat="48.65012" lon="-4.43264">
        <ele>12.6</ele>
        <time>2025-09-24T11:18:35Z</time>
      </trkpt>
      <trkpt lat="48.65009" lon="-4.43261">
        <ele>12.2</ele>
        <time>2025-09-24T11:18:36Z</time>
      </trkpt>
      <trkpt lat="48.65005" lon="-4.43258">
        <ele>12</ele>
        <time>2025-09-24T11:18:37Z</time>
      </trkpt>
      <trkpt lat="48.65001" lon="-4.43254">
        <ele>11.4</ele>
        <time>2025-09-24T11:18:38Z</time>
      </trkpt>
      <trkpt lat="48.64998" lon="-4.43248">
        <ele>11</ele>
        <time>2025-09-24T11:18:39Z</time>
      </trkpt>
      <trkpt lat="48.64993" lon="-4.43237">
        <ele>10.8</ele>
        <time>2025-09-24T11:18:41Z</time>
      </trkpt>
      <trkpt lat="48.64989" lon="-4.43225">
        <ele>11.2</ele>
        <time>2025-09-24T11:18:43Z</time>
      </trkpt>
      <trkpt lat="48.64972" lon="-4.43167">
        <ele>12.4</ele>
        <time>2025-09-24T11:18:54Z</time>
      </trkpt>
      <trkpt lat="48.64965" lon="-4.43136">
        <ele>12.4</ele>
        <time>2025-09-24T11:19:00Z</time>
      </trkpt>
      <trkpt lat="48.64962" lon="-4.43127">
        <ele>13</ele>
        <time>2025-09-24T11:19:02Z</time>
      </trkpt>
      <trkpt lat="48.6496" lon="-4.43119">
        <ele>13.4</ele>
        <time>2025-09-24T11:19:04Z</time>
      </trkpt>
      <trkpt lat="48.64955" lon="-4.43092">
        <ele>13.4</ele>
        <time>2025-09-24T11:19:10Z</time>
      </trkpt>
      <trkpt lat="48.64952" lon="-4.43072">
        <ele>12.4</ele>
        <time>2025-09-24T11:19:14Z</time>
      </trkpt>
      <trkpt lat="48.64948" lon="-4.43063">
        <ele>12.4</ele>
        <time>2025-09-24T11:19:16Z</time>
      </trkpt>
      <trkpt lat="48.6494" lon="-4.43055">
        <ele>13.6</ele>
        <time>2025-09-24T11:19:19Z</time>
      </trkpt>
      <trkpt lat="48.64934" lon="-4.43052">
        <ele>13.8</ele>
        <time>2025-09-24T11:19:21Z</time>
      </trkpt>
      <trkpt lat="48.64914" lon="-4.43047">
        <ele>14</ele>
        <time>2025-09-24T11:19:27Z</time>
      </trkpt>
      <trkpt lat="48.649" lon="-4.43042">
        <ele>14.6</ele>
        <time>2025-09-24T11:19:32Z</time>
      </trkpt>
      <trkpt lat="48.64892" lon="-4.43039">
        <ele>15</ele>
        <time>2025-09-24T11:19:35Z</time>
      </trkpt>
      <trkpt lat="48.64882" lon="-4.43032">
        <ele>15.8</ele>
        <time>2025-09-24T11:19:39Z</time>
      </trkpt>
      <trkpt lat="48.64875" lon="-4.43023">
        <ele>16</ele>
        <time>2025-09-24T11:19:42Z</time>
      </trkpt>
      <trkpt lat="48.64867" lon="-4.42999">
        <ele>15.2</ele>
        <time>2025-09-24T11:19:48Z</time>
      </trkpt>
      <trkpt lat="48.64853" lon="-4.42959">
        <ele>16.4</ele>
        <time>2025-09-24T11:19:59Z</time>
      </trkpt>
      <trkpt lat="48.6485" lon="-4.42954">
        <ele>17</ele>
        <time>2025-09-24T11:20:01Z</time>
      </trkpt>
      <trkpt lat="48.64843" lon="-4.42948">
        <ele>18</ele>
        <time>2025-09-24T11:20:05Z</time>
      </trkpt>
      <trkpt lat="48.64834" lon="-4.42947">
        <ele>19.2</ele>
        <time>2025-09-24T11:20:10Z</time>
      </trkpt>
      <trkpt lat="48.64825" lon="-4.42949">
        <ele>20.4</ele>
        <time>2025-09-24T11:20:15Z</time>
      </trkpt>
      <trkpt lat="48.6482" lon="-4.4295">
        <ele>20.4</ele>
        <time>2025-09-24T11:20:17Z</time>
      </trkpt>
      <trkpt lat="48.64811" lon="-4.42948">
        <ele>19.2</ele>
        <time>2025-09-24T11:20:21Z</time>
      </trkpt>
      <trkpt lat="48.64809" lon="-4.42945">
        <ele>18.8</ele>
        <time>2025-09-24T11:20:22Z</time>
      </trkpt>
      <trkpt lat="48.64805" lon="-4.42937">
        <ele>18</ele>
        <time>2025-09-24T11:20:24Z</time>
      </trkpt>
      <trkpt lat="48.648" lon="-4.42923">
        <ele>16.8</ele>
        <time>2025-09-24T11:20:27Z</time>
      </trkpt>
      <trkpt lat="48.64793" lon="-4.42907">
        <ele>15.8</ele>
        <time>2025-09-24T11:20:30Z</time>
      </trkpt>
      <trkpt lat="48.64788" lon="-4.42893">
        <ele>15</ele>
        <time>2025-09-24T11:20:32Z</time>
      </trkpt>
      <trkpt lat="48.64786" lon="-4.42885">
        <ele>14.4</ele>
        <time>2025-09-24T11:20:33Z</time>
      </trkpt>
      <trkpt lat="48.64779" lon="-4.42861">
        <ele>13.4</ele>
        <time>2025-09-24T11:20:36Z</time>
      </trkpt>
      <trkpt lat="48.6477" lon="-4.42839">
        <ele>12.8</ele>
        <time>2025-09-24T11:20:39Z</time>
      </trkpt>
      <trkpt lat="48.64753" lon="-4.42792">
        <ele>13.6</ele>
        <time>2025-09-24T11:20:46Z</time>
      </trkpt>
      <trkpt lat="48.64747" lon="-4.4276">
        <ele>14.4</ele>
        <time>2025-09-24T11:20:51Z</time>
      </trkpt>
      <trkpt lat="48.64745" lon="-4.42747">
        <ele>14.4</ele>
        <time>2025-09-24T11:20:53Z</time>
      </trkpt>
      <trkpt lat="48.64736" lon="-4.42711">
        <ele>14.8</ele>
        <time>2025-09-24T11:21:00Z</time>
      </trkpt>
      <trkpt lat="48.64726" lon="-4.42666">
        <ele>14.4</ele>
        <time>2025-09-24T11:21:08Z</time>
      </trkpt>
      <trkpt lat="48.64719" lon="-4.42634">
        <ele>13.2</ele>
        <time>2025-09-24T11:21:13Z</time>
      </trkpt>
      <trkpt lat="48.64716" lon="-4.4262">
        <ele>12.2</ele>
        <time>2025-09-24T11:21:15Z</time>
      </trkpt>
      <trkpt lat="48.64712" lon="-4.42597">
        <ele>11</ele>
        <time>2025-09-24T11:21:18Z</time>
      </trkpt>
      <trkpt lat="48.64707" lon="-4.42582">
        <ele>10.8</ele>
        <time>2025-09-24T11:21:20Z</time>
      </trkpt>
      <trkpt lat="48.64704" lon="-4.42575">
        <ele>10.8</ele>
        <time>2025-09-24T11:21:21Z</time>
      </trkpt>
      <trkpt lat="48.64699" lon="-4.4255">
        <ele>10.8</ele>
        <time>2025-09-24T11:21:24Z</time>
      </trkpt>
      <trkpt lat="48.64698" lon="-4.42529">
        <ele>10.4</ele>
        <time>2025-09-24T11:21:26Z</time>
      </trkpt>
      <trkpt lat="48.64697" lon="-4.42519">
        <ele>10</ele>
        <time>2025-09-24T11:21:27Z</time>
      </trkpt>
      <trkpt lat="48.64693" lon="-4.42474">
        <ele>9.6</ele>
        <time>2025-09-24T11:21:32Z</time>
      </trkpt>
      <trkpt lat="48.64691" lon="-4.42455">
        <ele>10.6</ele>
        <time>2025-09-24T11:21:35Z</time>
      </trkpt>
      <trkpt lat="48.6469" lon="-4.4245">
        <ele>10.8</ele>
        <time>2025-09-24T11:21:36Z</time>
      </trkpt>
      <trkpt lat="48.64689" lon="-4.42445">
        <ele>11.2</ele>
        <time>2025-09-24T11:21:37Z</time>
      </trkpt>
      <trkpt lat="48.64676" lon="-4.42416">
        <ele>10.8</ele>
        <time>2025-09-24T11:21:43Z</time>
      </trkpt>
      <trkpt lat="48.64661" lon="-4.42381">
        <ele>11.4</ele>
        <time>2025-09-24T11:21:50Z</time>
      </trkpt>
      <trkpt lat="48.64655" lon="-4.42373">
        <ele>11.8</ele>
        <time>2025-09-24T11:21:52Z</time>
      </trkpt>
      <trkpt lat="48.64652" lon="-4.42369">
        <ele>12</ele>
        <time>2025-09-24T11:21:53Z</time>
      </trkpt>
      <trkpt lat="48.64646" lon="-4.42362">
        <ele>12.2</ele>
        <time>2025-09-24T11:21:55Z</time>
      </trkpt>
      <trkpt lat="48.64637" lon="-4.42352">
        <ele>12.6</ele>
        <time>2025-09-24T11:21:58Z</time>
      </trkpt>
      <trkpt lat="48.64623" lon="-4.42336">
        <ele>12.8</ele>
        <time>2025-09-24T11:22:04Z</time>
      </trkpt>
      <trkpt lat="48.6462" lon="-4.42334">
        <ele>13.2</ele>
        <time>2025-09-24T11:22:06Z</time>
      </trkpt>
      <trkpt lat="48.64619" lon="-4.42333">
        <ele>13.8</ele>
        <time>2025-09-24T11:22:08Z</time>
      </trkpt>
      <trkpt lat="48.64619" lon="-4.42334">
        <ele>13.8</ele>
        <time>2025-09-24T11:22:09Z</time>
      </trkpt>
      <trkpt lat="48.64619" lon="-4.42331">
        <ele>14.2</ele>
        <time>2025-09-24T11:25:29Z</time>
      </trkpt>
      <trkpt lat="48.64619" lon="-4.4233">
        <ele>14.2</ele>
        <time>2025-09-24T11:25:30Z</time>
      </trkpt>
      <trkpt lat="48.64618" lon="-4.42327">
        <ele>14.6</ele>
        <time>2025-09-24T11:25:31Z</time>
      </trkpt>
      <trkpt lat="48.64618" lon="-4.42325">
        <ele>14.4</ele>
        <time>2025-09-24T11:25:32Z</time>
      </trkpt>
      <trkpt lat="48.64617" lon="-4.42314">
        <ele>14.8</ele>
        <time>2025-09-24T11:25:35Z</time>
      </trkpt>
      <trkpt lat="48.64615" lon="-4.42302">
        <ele>14.8</ele>
        <time>2025-09-24T11:25:38Z</time>
      </trkpt>
      <trkpt lat="48.64613" lon="-4.42285">
        <ele>15.8</ele>
        <time>2025-09-24T11:25:43Z</time>
      </trkpt>
      <trkpt lat="48.6461" lon="-4.42281">
        <ele>16</ele>
        <time>2025-09-24T11:25:45Z</time>
      </trkpt>
      <trkpt lat="48.64606" lon="-4.42264">
        <ele>15.6</ele>
        <time>2025-09-24T11:25:50Z</time>
      </trkpt>
      <trkpt lat="48.64603" lon="-4.42245">
        <ele>14.4</ele>
        <time>2025-09-24T11:25:53Z</time>
      </trkpt>
      <trkpt lat="48.64601" lon="-4.42238">
        <ele>13.8</ele>
        <time>2025-09-24T11:25:54Z</time>
      </trkpt>
      <trkpt lat="48.646" lon="-4.4223">
        <ele>13.4</ele>
        <time>2025-09-24T11:25:55Z</time>
      </trkpt>
      <trkpt lat="48.64596" lon="-4.42214">
        <ele>12.2</ele>
        <time>2025-09-24T11:25:57Z</time>
      </trkpt>
      <trkpt lat="48.64591" lon="-4.42183">
        <ele>12.6</ele>
        <time>2025-09-24T11:26:01Z</time>
      </trkpt>
      <trkpt lat="48.64583" lon="-4.4214">
        <ele>13</ele>
        <time>2025-09-24T11:26:08Z</time>
      </trkpt>
      <trkpt lat="48.64579" lon="-4.42117">
        <ele>13.2</ele>
        <time>2025-09-24T11:26:12Z</time>
      </trkpt>
      <trkpt lat="48.64575" lon="-4.42105">
        <ele>13</ele>
        <time>2025-09-24T11:26:14Z</time>
      </trkpt>
      <trkpt lat="48.6457" lon="-4.42089">
        <ele>13</ele>
        <time>2025-09-24T11:26:17Z</time>
      </trkpt>
      <trkpt lat="48.64555" lon="-4.42054">
        <ele>12</ele>
        <time>2025-09-24T11:26:23Z</time>
      </trkpt>
      <trkpt lat="48.64541" lon="-4.42027">
        <ele>10.8</ele>
        <time>2025-09-24T11:26:27Z</time>
      </trkpt>
      <trkpt lat="48.64531" lon="-4.42009">
        <ele>10.6</ele>
        <time>2025-09-24T11:26:30Z</time>
      </trkpt>
      <trkpt lat="48.64507" lon="-4.41983">
        <ele>11.4</ele>
        <time>2025-09-24T11:26:36Z</time>
      </trkpt>
      <trkpt lat="48.64486" lon="-4.41961">
        <ele>12</ele>
        <time>2025-09-24T11:26:42Z</time>
      </trkpt>
      <trkpt lat="48.64484" lon="-4.41958">
        <ele>12.4</ele>
        <time>2025-09-24T11:26:43Z</time>
      </trkpt>
      <trkpt lat="48.6447" lon="-4.41938">
        <ele>13.2</ele>
        <time>2025-09-24T11:26:48Z</time>
      </trkpt>
      <trkpt lat="48.64457" lon="-4.41918">
        <ele>13.4</ele>
        <time>2025-09-24T11:26:53Z</time>
      </trkpt>
      <trkpt lat="48.64455" lon="-4.41914">
        <ele>13.4</ele>
        <time>2025-09-24T11:26:54Z</time>
      </trkpt>
      <trkpt lat="48.64432" lon="-4.41876">
        <ele>14</ele>
        <time>2025-09-24T11:27:04Z</time>
      </trkpt>
      <trkpt lat="48.6443" lon="-4.41873">
        <ele>14.2</ele>
        <time>2025-09-24T11:27:05Z</time>
      </trkpt>
      <trkpt lat="48.64417" lon="-4.41851">
        <ele>14.8</ele>
        <time>2025-09-24T11:27:11Z</time>
      </trkpt>
      <trkpt lat="48.64412" lon="-4.41844">
        <ele>14.8</ele>
        <time>2025-09-24T11:27:13Z</time>
      </trkpt>
      <trkpt lat="48.64402" lon="-4.41827">
        <ele>15.2</ele>
        <time>2025-09-24T11:27:18Z</time>
      </trkpt>
      <trkpt lat="48.64393" lon="-4.41809">
        <ele>15.6</ele>
        <time>2025-09-24T11:27:23Z</time>
      </trkpt>
      <trkpt lat="48.64376" lon="-4.41779">
        <ele>16.2</ele>
        <time>2025-09-24T11:27:32Z</time>
      </trkpt>
      <trkpt lat="48.64359" lon="-4.41745">
        <ele>17.2</ele>
        <time>2025-09-24T11:27:42Z</time>
      </trkpt>
      <trkpt lat="48.64344" lon="-4.41705">
        <ele>17.8</ele>
        <time>2025-09-24T11:27:53Z</time>
      </trkpt>
      <trkpt lat="48.64337" lon="-4.41683">
        <ele>18.2</ele>
        <time>2025-09-24T11:27:59Z</time>
      </trkpt>
      <trkpt lat="48.64333" lon="-4.41668">
        <ele>18.2</ele>
        <time>2025-09-24T11:28:03Z</time>
      </trkpt>
      <trkpt lat="48.64323" lon="-4.41632">
        <ele>18.6</ele>
        <time>2025-09-24T11:28:13Z</time>
      </trkpt>
      <trkpt lat="48.64318" lon="-4.41608">
        <ele>18</ele>
        <time>2025-09-24T11:28:20Z</time>
      </trkpt>
      <trkpt lat="48.64306" lon="-4.41559">
        <ele>18.2</ele>
        <time>2025-09-24T11:28:31Z</time>
      </trkpt>
      <trkpt lat="48.64295" lon="-4.41514">
        <ele>17.8</ele>
        <time>2025-09-24T11:28:40Z</time>
      </trkpt>
      <trkpt lat="48.64287" lon="-4.41482">
        <ele>17.2</ele>
        <time>2025-09-24T11:28:46Z</time>
      </trkpt>
      <trkpt lat="48.64284" lon="-4.4147">
        <ele>17.2</ele>
        <time>2025-09-24T11:28:48Z</time>
      </trkpt>
      <trkpt lat="48.64272" lon="-4.41421">
        <ele>16</ele>
        <time>2025-09-24T11:28:56Z</time>
      </trkpt>
      <trkpt lat="48.6427" lon="-4.41414">
        <ele>15.8</ele>
        <time>2025-09-24T11:28:57Z</time>
      </trkpt>
      <trkpt lat="48.64263" lon="-4.41387">
        <ele>14.8</ele>
        <time>2025-09-24T11:29:01Z</time>
      </trkpt>
      <trkpt lat="48.6426" lon="-4.41373">
        <ele>14.6</ele>
        <time>2025-09-24T11:29:03Z</time>
      </trkpt>
      <trkpt lat="48.64254" lon="-4.41352">
        <ele>14.4</ele>
        <time>2025-09-24T11:29:06Z</time>
      </trkpt>
      <trkpt lat="48.64245" lon="-4.41316">
        <ele>13.8</ele>
        <time>2025-09-24T11:29:11Z</time>
      </trkpt>
      <trkpt lat="48.64238" lon="-4.41286">
        <ele>13.4</ele>
        <time>2025-09-24T11:29:15Z</time>
      </trkpt>
      <trkpt lat="48.64229" lon="-4.41248">
        <ele>12.6</ele>
        <time>2025-09-24T11:29:20Z</time>
      </trkpt>
      <trkpt lat="48.64221" lon="-4.41216">
        <ele>11.8</ele>
        <time>2025-09-24T11:29:24Z</time>
      </trkpt>
      <trkpt lat="48.64219" lon="-4.41208">
        <ele>11.4</ele>
        <time>2025-09-24T11:29:25Z</time>
      </trkpt>
      <trkpt lat="48.64209" lon="-4.41168">
        <ele>11.2</ele>
        <time>2025-09-24T11:29:30Z</time>
      </trkpt>
      <trkpt lat="48.64201" lon="-4.41136">
        <ele>11.2</ele>
        <time>2025-09-24T11:29:34Z</time>
      </trkpt>
      <trkpt lat="48.64189" lon="-4.41087">
        <ele>10.4</ele>
        <time>2025-09-24T11:29:40Z</time>
      </trkpt>
      <trkpt lat="48.64183" lon="-4.41063">
        <ele>9.2</ele>
        <time>2025-09-24T11:29:43Z</time>
      </trkpt>
      <trkpt lat="48.64179" lon="-4.41046">
        <ele>8.8</ele>
        <time>2025-09-24T11:29:45Z</time>
      </trkpt>
      <trkpt lat="48.64165" lon="-4.40986">
        <ele>8.2</ele>
        <time>2025-09-24T11:29:52Z</time>
      </trkpt>
      <trkpt lat="48.64165" lon="-4.40977">
        <ele>8.4</ele>
        <time>2025-09-24T11:29:53Z</time>
      </trkpt>
      <trkpt lat="48.64165" lon="-4.40952">
        <ele>8.6</ele>
        <time>2025-09-24T11:29:56Z</time>
      </trkpt>
      <trkpt lat="48.64166" lon="-4.40944">
        <ele>8.8</ele>
        <time>2025-09-24T11:29:57Z</time>
      </trkpt>
      <trkpt lat="48.6417" lon="-4.40929">
        <ele>8.2</ele>
        <time>2025-09-24T11:29:59Z</time>
      </trkpt>
      <trkpt lat="48.64172" lon="-4.40922">
        <ele>8.2</ele>
        <time>2025-09-24T11:30:00Z</time>
      </trkpt>
      <trkpt lat="48.64178" lon="-4.40902">
        <ele>8.4</ele>
        <time>2025-09-24T11:30:03Z</time>
      </trkpt>
      <trkpt lat="48.64185" lon="-4.40881">
        <ele>8.2</ele>
        <time>2025-09-24T11:30:06Z</time>
      </trkpt>
      <trkpt lat="48.64192" lon="-4.40854">
        <ele>8.4</ele>
        <time>2025-09-24T11:30:10Z</time>
      </trkpt>
      <trkpt lat="48.64199" lon="-4.40834">
        <ele>9</ele>
        <time>2025-09-24T11:30:13Z</time>
      </trkpt>
      <trkpt lat="48.64211" lon="-4.40789">
        <ele>9.2</ele>
        <time>2025-09-24T11:30:20Z</time>
      </trkpt>
      <trkpt lat="48.64216" lon="-4.40769">
        <ele>9.2</ele>
        <time>2025-09-24T11:30:23Z</time>
      </trkpt>
      <trkpt lat="48.64224" lon="-4.40744">
        <ele>9.4</ele>
        <time>2025-09-24T11:30:27Z</time>
      </trkpt>
      <trkpt lat="48.6423" lon="-4.40725">
        <ele>9.4</ele>
        <time>2025-09-24T11:30:30Z</time>
      </trkpt>
      <trkpt lat="48.64234" lon="-4.40707">
        <ele>9.4</ele>
        <time>2025-09-24T11:30:33Z</time>
      </trkpt>
      <trkpt lat="48.64249" lon="-4.4066">
        <ele>10.4</ele>
        <time>2025-09-24T11:30:41Z</time>
      </trkpt>
      <trkpt lat="48.6425" lon="-4.40654">
        <ele>10.6</ele>
        <time>2025-09-24T11:30:42Z</time>
      </trkpt>
      <trkpt lat="48.64264" lon="-4.40609">
        <ele>10.2</ele>
        <time>2025-09-24T11:30:51Z</time>
      </trkpt>
      <trkpt lat="48.64264" lon="-4.40602">
        <ele>11</ele>
        <time>2025-09-24T11:30:53Z</time>
      </trkpt>
      <trkpt lat="48.64259" lon="-4.40597">
        <ele>11.2</ele>
        <time>2025-09-24T11:30:55Z</time>
      </trkpt>
      <trkpt lat="48.64254" lon="-4.40592">
        <ele>10.8</ele>
        <time>2025-09-24T11:30:57Z</time>
      </trkpt>
      <trkpt lat="48.64248" lon="-4.40585">
        <ele>10.6</ele>
        <time>2025-09-24T11:30:59Z</time>
      </trkpt>
      <trkpt lat="48.64243" lon="-4.40577">
        <ele>10.6</ele>
        <time>2025-09-24T11:31:01Z</time>
      </trkpt>
      <trkpt lat="48.64224" lon="-4.40548">
        <ele>10.2</ele>
        <time>2025-09-24T11:31:09Z</time>
      </trkpt>
      <trkpt lat="48.64199" lon="-4.40511">
        <ele>10</ele>
        <time>2025-09-24T11:31:18Z</time>
      </trkpt>
      <trkpt lat="48.6419" lon="-4.40498">
        <ele>9.4</ele>
        <time>2025-09-24T11:31:21Z</time>
      </trkpt>
      <trkpt lat="48.64186" lon="-4.40495">
        <ele>9.2</ele>
        <time>2025-09-24T11:31:22Z</time>
      </trkpt>
      <trkpt lat="48.64181" lon="-4.40487">
        <ele>9</ele>
        <time>2025-09-24T11:31:24Z</time>
      </trkpt>
      <trkpt lat="48.64164" lon="-4.40456">
        <ele>8.4</ele>
        <time>2025-09-24T11:31:31Z</time>
      </trkpt>
      <trkpt lat="48.64148" lon="-4.40423">
        <ele>9</ele>
        <time>2025-09-24T11:31:38Z</time>
      </trkpt>
      <trkpt lat="48.64135" lon="-4.40386">
        <ele>8.2</ele>
        <time>2025-09-24T11:31:46Z</time>
      </trkpt>
      <trkpt lat="48.64122" lon="-4.40351">
        <ele>8.6</ele>
        <time>2025-09-24T11:31:55Z</time>
      </trkpt>
      <trkpt lat="48.64115" lon="-4.40333">
        <ele>8.8</ele>
        <time>2025-09-24T11:32:02Z</time>
      </trkpt>
      <trkpt lat="48.6411" lon="-4.40317">
        <ele>8.8</ele>
        <time>2025-09-24T11:32:08Z</time>
      </trkpt>
      <trkpt lat="48.64101" lon="-4.40294">
        <ele>8.8</ele>
        <time>2025-09-24T11:32:16Z</time>
      </trkpt>
      <trkpt lat="48.64097" lon="-4.40283">
        <ele>8.8</ele>
        <time>2025-09-24T11:32:20Z</time>
      </trkpt>
      <trkpt lat="48.64095" lon="-4.40276">
        <ele>8.8</ele>
        <time>2025-09-24T11:32:23Z</time>
      </trkpt>
      <trkpt lat="48.64095" lon="-4.40273">
        <ele>8.8</ele>
        <time>2025-09-24T11:32:24Z</time>
      </trkpt>
      <trkpt lat="48.6409" lon="-4.40252">
        <ele>8.6</ele>
        <time>2025-09-24T11:32:31Z</time>
      </trkpt>
      <trkpt lat="48.64084" lon="-4.40234">
        <ele>8.4</ele>
        <time>2025-09-24T11:32:37Z</time>
      </trkpt>
      <trkpt lat="48.6408" lon="-4.40229">
        <ele>8.6</ele>
        <time>2025-09-24T11:32:40Z</time>
      </trkpt>
      <trkpt lat="48.64079" lon="-4.40228">
        <ele>8.6</ele>
        <time>2025-09-24T11:32:43Z</time>
      </trkpt>
      <trkpt lat="48.64078" lon="-4.40227">
        <ele>8.6</ele>
        <time>2025-09-24T11:33:17Z</time>
      </trkpt>
      <trkpt lat="48.64077" lon="-4.40226">
        <ele>8.6</ele>
        <time>2025-09-24T11:33:18Z</time>
      </trkpt>
      <trkpt lat="48.64071" lon="-4.40226">
        <ele>8.6</ele>
        <time>2025-09-24T11:33:21Z</time>
      </trkpt>
      <trkpt lat="48.64058" lon="-4.4024">
        <ele>8.8</ele>
        <time>2025-09-24T11:33:27Z</time>
      </trkpt>
      <trkpt lat="48.64047" lon="-4.40244">
        <ele>8.4</ele>
        <time>2025-09-24T11:33:31Z</time>
      </trkpt>
      <trkpt lat="48.64045" lon="-4.40242">
        <ele>8.4</ele>
        <time>2025-09-24T11:33:32Z</time>
      </trkpt>
      <trkpt lat="48.64036" lon="-4.40232">
        <ele>8.6</ele>
        <time>2025-09-24T11:33:38Z</time>
      </trkpt>
      <trkpt lat="48.64027" lon="-4.4021">
        <ele>8.6</ele>
        <time>2025-09-24T11:33:45Z</time>
      </trkpt>
      <trkpt lat="48.64023" lon="-4.40199">
        <ele>8.8</ele>
        <time>2025-09-24T11:33:48Z</time>
      </trkpt>
      <trkpt lat="48.64019" lon="-4.40186">
        <ele>9.2</ele>
        <time>2025-09-24T11:33:52Z</time>
      </trkpt>
      <trkpt lat="48.64007" lon="-4.40141">
        <ele>9.4</ele>
        <time>2025-09-24T11:34:03Z</time>
      </trkpt>
      <trkpt lat="48.64001" lon="-4.40122">
        <ele>9.6</ele>
        <time>2025-09-24T11:34:08Z</time>
      </trkpt>
      <trkpt lat="48.63996" lon="-4.40104">
        <ele>9.8</ele>
        <time>2025-09-24T11:34:12Z</time>
      </trkpt>
      <trkpt lat="48.63986" lon="-4.4006">
        <ele>10</ele>
        <time>2025-09-24T11:34:22Z</time>
      </trkpt>
      <trkpt lat="48.63978" lon="-4.40023">
        <ele>9.8</ele>
        <time>2025-09-24T11:34:30Z</time>
      </trkpt>
      <trkpt lat="48.63976" lon="-4.40019">
        <ele>10</ele>
        <time>2025-09-24T11:34:31Z</time>
      </trkpt>
      <trkpt lat="48.63975" lon="-4.40015">
        <ele>10.4</ele>
        <time>2025-09-24T11:34:32Z</time>
      </trkpt>
      <trkpt lat="48.63965" lon="-4.3998">
        <ele>10.6</ele>
        <time>2025-09-24T11:34:40Z</time>
      </trkpt>
      <trkpt lat="48.6396" lon="-4.39964">
        <ele>11.4</ele>
        <time>2025-09-24T11:34:44Z</time>
      </trkpt>
      <trkpt lat="48.63953" lon="-4.39936">
        <ele>12</ele>
        <time>2025-09-24T11:34:51Z</time>
      </trkpt>
      <trkpt lat="48.63949" lon="-4.39906">
        <ele>12.2</ele>
        <time>2025-09-24T11:34:58Z</time>
      </trkpt>
      <trkpt lat="48.63947" lon="-4.39861">
        <ele>10.8</ele>
        <time>2025-09-24T11:35:06Z</time>
      </trkpt>
      <trkpt lat="48.63946" lon="-4.39845">
        <ele>10.2</ele>
        <time>2025-09-24T11:35:09Z</time>
      </trkpt>
      <trkpt lat="48.63946" lon="-4.39833">
        <ele>10.2</ele>
        <time>2025-09-24T11:35:11Z</time>
      </trkpt>
      <trkpt lat="48.63945" lon="-4.39817">
        <ele>9.8</ele>
        <time>2025-09-24T11:35:14Z</time>
      </trkpt>
      <trkpt lat="48.63944" lon="-4.39811">
        <ele>9.8</ele>
        <time>2025-09-24T11:35:15Z</time>
      </trkpt>
      <trkpt lat="48.63944" lon="-4.398">
        <ele>10.2</ele>
        <time>2025-09-24T11:35:17Z</time>
      </trkpt>
      <trkpt lat="48.63938" lon="-4.39765">
        <ele>10.8</ele>
        <time>2025-09-24T11:35:23Z</time>
      </trkpt>
      <trkpt lat="48.63927" lon="-4.39723">
        <ele>10.4</ele>
        <time>2025-09-24T11:35:31Z</time>
      </trkpt>
      <trkpt lat="48.63919" lon="-4.39697">
        <ele>11.4</ele>
        <time>2025-09-24T11:35:37Z</time>
      </trkpt>
      <trkpt lat="48.63917" lon="-4.39688">
        <ele>11.4</ele>
        <time>2025-09-24T11:35:39Z</time>
      </trkpt>
      <trkpt lat="48.63908" lon="-4.39651">
        <ele>11.6</ele>
        <time>2025-09-24T11:35:48Z</time>
      </trkpt>
      <trkpt lat="48.63903" lon="-4.3963">
        <ele>11.6</ele>
        <time>2025-09-24T11:35:55Z</time>
      </trkpt>
      <trkpt lat="48.63895" lon="-4.39624">
        <ele>12.4</ele>
        <time>2025-09-24T11:35:59Z</time>
      </trkpt>
      <trkpt lat="48.63892" lon="-4.39624">
        <ele>12.4</ele>
        <time>2025-09-24T11:36:00Z</time>
      </trkpt>
      <trkpt lat="48.6387" lon="-4.39634">
        <ele>12.4</ele>
        <time>2025-09-24T11:36:06Z</time>
      </trkpt>
      <trkpt lat="48.63855" lon="-4.3964">
        <ele>12.4</ele>
        <time>2025-09-24T11:36:10Z</time>
      </trkpt>
      <trkpt lat="48.63851" lon="-4.39641">
        <ele>12.4</ele>
        <time>2025-09-24T11:36:11Z</time>
      </trkpt>
      <trkpt lat="48.63834" lon="-4.39647">
        <ele>12.4</ele>
        <time>2025-09-24T11:36:15Z</time>
      </trkpt>
      <trkpt lat="48.63803" lon="-4.39658">
        <ele>12.2</ele>
        <time>2025-09-24T11:36:22Z</time>
      </trkpt>
      <trkpt lat="48.63795" lon="-4.39661">
        <ele>12</ele>
        <time>2025-09-24T11:36:24Z</time>
      </trkpt>
      <trkpt lat="48.63769" lon="-4.39666">
        <ele>11.2</ele>
        <time>2025-09-24T11:36:29Z</time>
      </trkpt>
      <trkpt lat="48.63765" lon="-4.39669">
        <ele>11.2</ele>
        <time>2025-09-24T11:36:30Z</time>
      </trkpt>
      <trkpt lat="48.63761" lon="-4.39673">
        <ele>11</ele>
        <time>2025-09-24T11:36:31Z</time>
      </trkpt>
      <trkpt lat="48.63757" lon="-4.39676">
        <ele>10.8</ele>
        <time>2025-09-24T11:36:32Z</time>
      </trkpt>
      <trkpt lat="48.63744" lon="-4.39687">
        <ele>10.6</ele>
        <time>2025-09-24T11:36:35Z</time>
      </trkpt>
      <trkpt lat="48.6374" lon="-4.3969">
        <ele>10.4</ele>
        <time>2025-09-24T11:36:36Z</time>
      </trkpt>
      <trkpt lat="48.63735" lon="-4.39692">
        <ele>10.2</ele>
        <time>2025-09-24T11:36:37Z</time>
      </trkpt>
      <trkpt lat="48.63726" lon="-4.39696">
        <ele>10</ele>
        <time>2025-09-24T11:36:39Z</time>
      </trkpt>
      <trkpt lat="48.6371" lon="-4.39702">
        <ele>9.4</ele>
        <time>2025-09-24T11:36:43Z</time>
      </trkpt>
      <trkpt lat="48.63702" lon="-4.39704">
        <ele>9.4</ele>
        <time>2025-09-24T11:36:45Z</time>
      </trkpt>
      <trkpt lat="48.63699" lon="-4.39705">
        <ele>9.2</ele>
        <time>2025-09-24T11:36:46Z</time>
      </trkpt>
      <trkpt lat="48.6369" lon="-4.39707">
        <ele>9.2</ele>
        <time>2025-09-24T11:36:48Z</time>
      </trkpt>
      <trkpt lat="48.63673" lon="-4.39712">
        <ele>9</ele>
        <time>2025-09-24T11:36:52Z</time>
      </trkpt>
      <trkpt lat="48.6366" lon="-4.39717">
        <ele>9.2</ele>
        <time>2025-09-24T11:36:55Z</time>
      </trkpt>
      <trkpt lat="48.63655" lon="-4.39718">
        <ele>9.4</ele>
        <time>2025-09-24T11:36:56Z</time>
      </trkpt>
      <trkpt lat="48.63643" lon="-4.39724">
        <ele>9.6</ele>
        <time>2025-09-24T11:36:59Z</time>
      </trkpt>
      <trkpt lat="48.63635" lon="-4.39728">
        <ele>10</ele>
        <time>2025-09-24T11:37:01Z</time>
      </trkpt>
      <trkpt lat="48.63624" lon="-4.39736">
        <ele>10.2</ele>
        <time>2025-09-24T11:37:04Z</time>
      </trkpt>
      <trkpt lat="48.6362" lon="-4.39739">
        <ele>10.4</ele>
        <time>2025-09-24T11:37:05Z</time>
      </trkpt>
      <trkpt lat="48.63604" lon="-4.39753">
        <ele>11</ele>
        <time>2025-09-24T11:37:10Z</time>
      </trkpt>
      <trkpt lat="48.63589" lon="-4.39767">
        <ele>11.4</ele>
        <time>2025-09-24T11:37:15Z</time>
      </trkpt>
      <trkpt lat="48.63575" lon="-4.3978">
        <ele>12</ele>
        <time>2025-09-24T11:37:20Z</time>
      </trkpt>
      <trkpt lat="48.63566" lon="-4.39788">
        <ele>12.4</ele>
        <time>2025-09-24T11:37:23Z</time>
      </trkpt>
      <trkpt lat="48.6355" lon="-4.3981">
        <ele>13.4</ele>
        <time>2025-09-24T11:37:30Z</time>
      </trkpt>
      <trkpt lat="48.63543" lon="-4.39819">
        <ele>13.6</ele>
        <time>2025-09-24T11:37:33Z</time>
      </trkpt>
      <trkpt lat="48.63533" lon="-4.39837">
        <ele>14.6</ele>
        <time>2025-09-24T11:37:39Z</time>
      </trkpt>
      <trkpt lat="48.63531" lon="-4.3984">
        <ele>14.8</ele>
        <time>2025-09-24T11:37:40Z</time>
      </trkpt>
      <trkpt lat="48.63525" lon="-4.39854">
        <ele>15.2</ele>
        <time>2025-09-24T11:37:45Z</time>
      </trkpt>
      <trkpt lat="48.63523" lon="-4.3986">
        <ele>15.2</ele>
        <time>2025-09-24T11:37:47Z</time>
      </trkpt>
      <trkpt lat="48.6352" lon="-4.3987">
        <ele>15.2</ele>
        <time>2025-09-24T11:37:50Z</time>
      </trkpt>
      <trkpt lat="48.63517" lon="-4.39886">
        <ele>15.4</ele>
        <time>2025-09-24T11:37:54Z</time>
      </trkpt>
      <trkpt lat="48.63513" lon="-4.39908">
        <ele>15.6</ele>
        <time>2025-09-24T11:37:59Z</time>
      </trkpt>
      <trkpt lat="48.63512" lon="-4.39924">
        <ele>16.2</ele>
        <time>2025-09-24T11:38:03Z</time>
      </trkpt>
      <trkpt lat="48.63512" lon="-4.3995">
        <ele>16.6</ele>
        <time>2025-09-24T11:38:09Z</time>
      </trkpt>
      <trkpt lat="48.63512" lon="-4.39955">
        <ele>16.8</ele>
        <time>2025-09-24T11:38:10Z</time>
      </trkpt>
      <trkpt lat="48.63514" lon="-4.3997">
        <ele>16.6</ele>
        <time>2025-09-24T11:38:13Z</time>
      </trkpt>
      <trkpt lat="48.6352" lon="-4.40015">
        <ele>15.8</ele>
        <time>2025-09-24T11:38:22Z</time>
      </trkpt>
      <trkpt lat="48.63522" lon="-4.40031">
        <ele>16</ele>
        <time>2025-09-24T11:38:25Z</time>
      </trkpt>
      <trkpt lat="48.63525" lon="-4.40056">
        <ele>16</ele>
        <time>2025-09-24T11:38:30Z</time>
      </trkpt>
      <trkpt lat="48.63528" lon="-4.40085">
        <ele>15.8</ele>
        <time>2025-09-24T11:38:35Z</time>
      </trkpt>
      <trkpt lat="48.6353" lon="-4.40107">
        <ele>15.8</ele>
        <time>2025-09-24T11:38:39Z</time>
      </trkpt>
      <trkpt lat="48.63532" lon="-4.40151">
        <ele>16.6</ele>
        <time>2025-09-24T11:38:47Z</time>
      </trkpt>
      <trkpt lat="48.63534" lon="-4.40202">
        <ele>16.8</ele>
        <time>2025-09-24T11:38:57Z</time>
      </trkpt>
      <trkpt lat="48.63532" lon="-4.40258">
        <ele>16.8</ele>
        <time>2025-09-24T11:39:08Z</time>
      </trkpt>
      <trkpt lat="48.63525" lon="-4.40307">
        <ele>17.2</ele>
        <time>2025-09-24T11:39:18Z</time>
      </trkpt>
      <trkpt lat="48.63511" lon="-4.40361">
        <ele>17.2</ele>
        <time>2025-09-24T11:39:29Z</time>
      </trkpt>
      <trkpt lat="48.63505" lon="-4.40387">
        <ele>16.8</ele>
        <time>2025-09-24T11:39:34Z</time>
      </trkpt>
      <trkpt lat="48.63502" lon="-4.40405">
        <ele>16.6</ele>
        <time>2025-09-24T11:39:37Z</time>
      </trkpt>
      <trkpt lat="48.63496" lon="-4.40444">
        <ele>15.6</ele>
        <time>2025-09-24T11:39:43Z</time>
      </trkpt>
      <trkpt lat="48.63495" lon="-4.40451">
        <ele>15.4</ele>
        <time>2025-09-24T11:39:44Z</time>
      </trkpt>
      <trkpt lat="48.63487" lon="-4.4051">
        <ele>14.4</ele>
        <time>2025-09-24T11:39:52Z</time>
      </trkpt>
      <trkpt lat="48.63486" lon="-4.40517">
        <ele>14.2</ele>
        <time>2025-09-24T11:39:53Z</time>
      </trkpt>
      <trkpt lat="48.63481" lon="-4.40546">
        <ele>13.6</ele>
        <time>2025-09-24T11:39:57Z</time>
      </trkpt>
      <trkpt lat="48.63477" lon="-4.40561">
        <ele>13.6</ele>
        <time>2025-09-24T11:39:59Z</time>
      </trkpt>
      <trkpt lat="48.63475" lon="-4.40568">
        <ele>13.6</ele>
        <time>2025-09-24T11:40:00Z</time>
      </trkpt>
      <trkpt lat="48.63474" lon="-4.40575">
        <ele>13.6</ele>
        <time>2025-09-24T11:40:01Z</time>
      </trkpt>
      <trkpt lat="48.63471" lon="-4.40598">
        <ele>14</ele>
        <time>2025-09-24T11:40:05Z</time>
      </trkpt>
      <trkpt lat="48.6347" lon="-4.40603">
        <ele>14.2</ele>
        <time>2025-09-24T11:40:06Z</time>
      </trkpt>
      <trkpt lat="48.63466" lon="-4.40639">
        <ele>15.4</ele>
        <time>2025-09-24T11:40:14Z</time>
      </trkpt>
      <trkpt lat="48.63465" lon="-4.40643">
        <ele>15.6</ele>
        <time>2025-09-24T11:40:15Z</time>
      </trkpt>
      <trkpt lat="48.63463" lon="-4.40664">
        <ele>16.4</ele>
        <time>2025-09-24T11:40:20Z</time>
      </trkpt>
      <trkpt lat="48.63463" lon="-4.40673">
        <ele>16.6</ele>
        <time>2025-09-24T11:40:22Z</time>
      </trkpt>
      <trkpt lat="48.63462" lon="-4.40677">
        <ele>16.8</ele>
        <time>2025-09-24T11:40:23Z</time>
      </trkpt>
      <trkpt lat="48.63459" lon="-4.40705">
        <ele>17.8</ele>
        <time>2025-09-24T11:40:31Z</time>
      </trkpt>
      <trkpt lat="48.63453" lon="-4.40726">
        <ele>18.6</ele>
        <time>2025-09-24T11:40:37Z</time>
      </trkpt>
      <trkpt lat="48.6345" lon="-4.40732">
        <ele>18.8</ele>
        <time>2025-09-24T11:40:39Z</time>
      </trkpt>
      <trkpt lat="48.63448" lon="-4.40739">
        <ele>19</ele>
        <time>2025-09-24T11:40:41Z</time>
      </trkpt>
      <trkpt lat="48.63443" lon="-4.40756">
        <ele>19.8</ele>
        <time>2025-09-24T11:40:46Z</time>
      </trkpt>
      <trkpt lat="48.63442" lon="-4.40759">
        <ele>20</ele>
        <time>2025-09-24T11:40:47Z</time>
      </trkpt>
      <trkpt lat="48.6344" lon="-4.40766">
        <ele>20.4</ele>
        <time>2025-09-24T11:40:49Z</time>
      </trkpt>
      <trkpt lat="48.63438" lon="-4.40772">
        <ele>20.6</ele>
        <time>2025-09-24T11:40:51Z</time>
      </trkpt>
      <trkpt lat="48.63432" lon="-4.40788">
        <ele>21.2</ele>
        <time>2025-09-24T11:40:56Z</time>
      </trkpt>
      <trkpt lat="48.63426" lon="-4.40806">
        <ele>21.8</ele>
        <time>2025-09-24T11:41:02Z</time>
      </trkpt>
      <trkpt lat="48.63423" lon="-4.40818">
        <ele>22.2</ele>
        <time>2025-09-24T11:41:06Z</time>
      </trkpt>
      <trkpt lat="48.63418" lon="-4.40833">
        <ele>22.6</ele>
        <time>2025-09-24T11:41:11Z</time>
      </trkpt>
      <trkpt lat="48.63411" lon="-4.40857">
        <ele>23</ele>
        <time>2025-09-24T11:41:19Z</time>
      </trkpt>
      <trkpt lat="48.63409" lon="-4.40869">
        <ele>23.2</ele>
        <time>2025-09-24T11:41:25Z</time>
      </trkpt>
      <trkpt lat="48.63409" lon="-4.40882">
        <ele>23.4</ele>
        <time>2025-09-24T11:41:30Z</time>
      </trkpt>
      <trkpt lat="48.63408" lon="-4.40888">
        <ele>23.4</ele>
        <time>2025-09-24T11:41:32Z</time>
      </trkpt>
      <trkpt lat="48.63408" lon="-4.40896">
        <ele>23.6</ele>
        <time>2025-09-24T11:41:36Z</time>
      </trkpt>
      <trkpt lat="48.63407" lon="-4.40902">
        <ele>23.8</ele>
        <time>2025-09-24T11:41:39Z</time>
      </trkpt>
      <trkpt lat="48.63407" lon="-4.4091">
        <ele>24.2</ele>
        <time>2025-09-24T11:41:44Z</time>
      </trkpt>
      <trkpt lat="48.63407" lon="-4.40916">
        <ele>24.2</ele>
        <time>2025-09-24T11:41:47Z</time>
      </trkpt>
      <trkpt lat="48.63406" lon="-4.40936">
        <ele>23.6</ele>
        <time>2025-09-24T11:41:53Z</time>
      </trkpt>
      <trkpt lat="48.63407" lon="-4.40957">
        <ele>23.2</ele>
        <time>2025-09-24T11:41:58Z</time>
      </trkpt>
      <trkpt lat="48.63408" lon="-4.40967">
        <ele>23.2</ele>
        <time>2025-09-24T11:42:01Z</time>
      </trkpt>
      <trkpt lat="48.63408" lon="-4.4097">
        <ele>23.2</ele>
        <time>2025-09-24T11:42:04Z</time>
      </trkpt>
      <trkpt lat="48.63408" lon="-4.40969">
        <ele>23.2</ele>
        <time>2025-09-24T11:42:05Z</time>
      </trkpt>
      <trkpt lat="48.63407" lon="-4.40971">
        <ele>23.2</ele>
        <time>2025-09-24T11:42:17Z</time>
      </trkpt>
      <trkpt lat="48.63408" lon="-4.40972">
        <ele>23.2</ele>
        <time>2025-09-24T11:42:19Z</time>
      </trkpt>
      <trkpt lat="48.63408" lon="-4.40971">
        <ele>23.4</ele>
        <time>2025-09-24T11:42:37Z</time>
      </trkpt>
      <trkpt lat="48.63407" lon="-4.4097">
        <ele>23.4</ele>
        <time>2025-09-24T11:42:41Z</time>
      </trkpt>
      <trkpt lat="48.63407" lon="-4.40972">
        <ele>23.2</ele>
        <time>2025-09-24T11:42:46Z</time>
      </trkpt>
      <trkpt lat="48.63407" lon="-4.40972">
        <ele>23.2</ele>
        <time>2025-09-24T11:42:48Z</time>
      </trkpt>
      <trkpt lat="48.63405" lon="-4.40968">
        <ele>23.4</ele>
        <time>2025-09-24T11:44:24Z</time>
      </trkpt>
      <trkpt lat="48.63406" lon="-4.40966">
        <ele>23.4</ele>
        <time>2025-09-24T11:44:26Z</time>
      </trkpt>
      <trkpt lat="48.63406" lon="-4.40964">
        <ele>23.4</ele>
        <time>2025-09-24T11:44:30Z</time>
      </trkpt>
      <trkpt lat="48.63406" lon="-4.40962">
        <ele>23.4</ele>
        <time>2025-09-24T11:44:33Z</time>
      </trkpt>
      <trkpt lat="48.63406" lon="-4.40961">
        <ele>23.4</ele>
        <time>2025-09-24T11:44:34Z</time>
      </trkpt>
      <trkpt lat="48.63406" lon="-4.40961">
        <ele>23.4</ele>
        <time>2025-09-24T11:44:49Z</time>
      </trkpt>
      <trkpt lat="48.63406" lon="-4.40961">
        <ele>23.4</ele>
        <time>2025-09-24T11:45:01Z</time>
      </trkpt>
      <trkpt lat="48.63406" lon="-4.40961">
        <ele>23.4</ele>
        <time>2025-09-24T11:45:03Z</time>
      </trkpt>
      <trkpt lat="48.63406" lon="-4.40961">
        <ele>23.4</ele>
        <time>2025-09-24T11:45:05Z</time>
      </trkpt>
      <trkpt lat="48.63406" lon="-4.40961">
        <ele>23.4</ele>
        <time>2025-09-24T11:45:30Z</time>
      </trkpt>
      <trkpt lat="48.63406" lon="-4.40961">
        <ele>23.4</ele>
        <time>2025-09-24T11:45:59Z</time>
      </trkpt>
      <trkpt lat="48.63406" lon="-4.40961">
        <ele>23.4</ele>
        <time>2025-09-24T11:46:00Z</time>
      </trkpt>
      <trkpt lat="48.63406" lon="-4.40961">
        <ele>23.4</ele>
        <time>2025-09-24T11:46:01Z</time>
      </trkpt>
      <trkpt lat="48.63406" lon="-4.40961">
        <ele>23.4</ele>
        <time>2025-09-24T11:46:02Z</time>
      </trkpt>
      <trkpt lat="48.63406" lon="-4.40961">
        <ele>23.4</ele>
        <time>2025-09-24T11:46:06Z</time>
      </trkpt>
      <trkpt lat="48.63406" lon="-4.40961">
        <ele>23.4</ele>
        <time>2025-09-24T11:46:07Z</time>
      </trkpt>
      <trkpt lat="48.63406" lon="-4.40961">
        <ele>23.4</ele>
        <time>2025-09-24T11:46:08Z</time>
      </trkpt>
      <trkpt lat="48.63406" lon="-4.40961">
        <ele>23.4</ele>
        <time>2025-09-24T11:46:10Z</time>
      </trkpt>
      <trkpt lat="48.63406" lon="-4.40961">
        <ele>23.4</ele>
        <time>2025-09-24T11:46:19Z</time>
      </trkpt>
      <trkpt lat="48.63406" lon="-4.40961">
        <ele>23.4</ele>
        <time>2025-09-24T11:46:51Z</time>
      </trkpt>
      <trkpt lat="48.63406" lon="-4.40961">
        <ele>23.4</ele>
        <time>2025-09-24T11:46:54Z</time>
      </trkpt>
      <trkpt lat="48.63406" lon="-4.40961">
        <ele>23.4</ele>
        <time>2025-09-24T11:47:15Z</time>
      </trkpt>
      <trkpt lat="48.63406" lon="-4.40961">
        <ele>23.4</ele>
        <time>2025-09-24T11:47:25Z</time>
      </trkpt>
      <trkpt lat="48.63406" lon="-4.40961">
        <ele>23.4</ele>
        <time>2025-09-24T11:47:35Z</time>
      </trkpt>
      <trkpt lat="48.63406" lon="-4.40961">
        <ele>23.4</ele>
        <time>2025-09-24T11:47:47Z</time>
      </trkpt>
      <trkpt lat="48.63406" lon="-4.40961">
        <ele>23.4</ele>
        <time>2025-09-24T11:47:54Z</time>
      </trkpt>
      <trkpt lat="48.63406" lon="-4.40961">
        <ele>23.4</ele>
        <time>2025-09-24T11:47:55Z</time>
      </trkpt>
      <trkpt lat="48.63406" lon="-4.40961">
        <ele>23.4</ele>
        <time>2025-09-24T11:47:57Z</time>
      </trkpt>
      <trkpt lat="48.63406" lon="-4.40961">
        <ele>23.4</ele>
        <time>2025-09-24T11:48:01Z</time>
      </trkpt>
      <trkpt lat="48.63406" lon="-4.40961">
        <ele>23.4</ele>
        <time>2025-09-24T11:48:04Z</time>
      </trkpt>
      <trkpt lat="48.63406" lon="-4.40961">
        <ele>23.4</ele>
        <time>2025-09-24T11:48:12Z</time>
      </trkpt>
      <trkpt lat="48.63406" lon="-4.40961">
        <ele>23.4</ele>
        <time>2025-09-24T11:48:27Z</time>
      </trkpt>
      <trkpt lat="48.63406" lon="-4.40961">
        <ele>23.4</ele>
        <time>2025-09-24T11:48:28Z</time>
      </trkpt>
      <trkpt lat="48.63406" lon="-4.40961">
        <ele>23.4</ele>
        <time>2025-09-24T11:48:29Z</time>
      </trkpt>
      <trkpt lat="48.63406" lon="-4.40961">
        <ele>23.4</ele>
        <time>2025-09-24T11:48:30Z</time>
      </trkpt>
      <trkpt lat="48.63406" lon="-4.40961">
        <ele>23.4</ele>
        <time>2025-09-24T11:48:31Z</time>
      </trkpt>
      <trkpt lat="48.63406" lon="-4.40961">
        <ele>23.4</ele>
        <time>2025-09-24T11:48:32Z</time>
      </trkpt>
      <trkpt lat="48.63406" lon="-4.40961">
        <ele>23.4</ele>
        <time>2025-09-24T11:48:41Z</time>
      </trkpt>
      <trkpt lat="48.63406" lon="-4.40961">
        <ele>23.4</ele>
        <time>2025-09-24T11:48:42Z</time>
      </trkpt>
      <trkpt lat="48.63406" lon="-4.40961">
        <ele>23.4</ele>
        <time>2025-09-24T11:48:43Z</time>
      </trkpt>
      <trkpt lat="48.63406" lon="-4.40961">
        <ele>23.4</ele>
        <time>2025-09-24T11:49:03Z</time>
      </trkpt>
      <trkpt lat="48.63406" lon="-4.40961">
        <ele>23.4</ele>
        <time>2025-09-24T11:49:18Z</time>
      </trkpt>
      <trkpt lat="48.63406" lon="-4.40961">
        <ele>23.4</ele>
        <time>2025-09-24T11:49:25Z</time>
      </trkpt>
      <trkpt lat="48.63406" lon="-4.40961">
        <ele>23.4</ele>
        <time>2025-09-24T11:49:59Z</time>
      </trkpt>
      <trkpt lat="48.63406" lon="-4.40961">
        <ele>23.4</ele>
        <time>2025-09-24T11:50:03Z</time>
      </trkpt>
      <trkpt lat="48.63406" lon="-4.40961">
        <ele>23.4</ele>
        <time>2025-09-24T11:50:22Z</time>
      </trkpt>
      <trkpt lat="48.63406" lon="-4.40961">
        <ele>23.4</ele>
        <time>2025-09-24T11:50:46Z</time>
      </trkpt>
      <trkpt lat="48.63406" lon="-4.40961">
        <ele>23.4</ele>
        <time>2025-09-24T11:50:49Z</time>
      </trkpt>
      <trkpt lat="48.63406" lon="-4.40961">
        <ele>23.4</ele>
        <time>2025-09-24T11:51:15Z</time>
      </trkpt>
      <trkpt lat="48.63409" lon="-4.40974">
        <ele>23.4</ele>
        <time>2025-09-24T11:51:17Z</time>
      </trkpt>
      <trkpt lat="48.63404" lon="-4.40973">
        <ele>23.4</ele>
        <time>2025-09-24T11:51:19Z</time>
      </trkpt>
      <trkpt lat="48.63409" lon="-4.40973">
        <ele>23.4</ele>
        <time>2025-09-24T11:51:23Z</time>
      </trkpt>
      <trkpt lat="48.63409" lon="-4.40973">
        <ele>23.4</ele>
        <time>2025-09-24T11:51:25Z</time>
      </trkpt>
      <trkpt lat="48.63407" lon="-4.40972">
        <ele>23.4</ele>
        <time>2025-09-24T11:53:50Z</time>
      </trkpt>
      <trkpt lat="48.63407" lon="-4.40972">
        <ele>23.4</ele>
        <time>2025-09-24T11:53:52Z</time>
      </trkpt>
      <trkpt lat="48.63408" lon="-4.40972">
        <ele>23.4</ele>
        <time>2025-09-24T11:54:30Z</time>
      </trkpt>
      <trkpt lat="48.63408" lon="-4.40972">
        <ele>23.4</ele>
        <time>2025-09-24T11:54:31Z</time>
      </trkpt>
      <trkpt lat="48.63407" lon="-4.40972">
        <ele>23.4</ele>
        <time>2025-09-24T11:54:32Z</time>
      </trkpt>
      <trkpt lat="48.63407" lon="-4.40973">
        <ele>23.4</ele>
        <time>2025-09-24T11:54:45Z</time>
      </trkpt>
      <trkpt lat="48.63405" lon="-4.40978">
        <ele>23.2</ele>
        <time>2025-09-24T11:54:48Z</time>
      </trkpt>
      <trkpt lat="48.63406" lon="-4.40993">
        <ele>23</ele>
        <time>2025-09-24T11:54:53Z</time>
      </trkpt>
      <trkpt lat="48.63407" lon="-4.41007">
        <ele>22.2</ele>
        <time>2025-09-24T11:54:57Z</time>
      </trkpt>
      <trkpt lat="48.63406" lon="-4.41019">
        <ele>22.4</ele>
        <time>2025-09-24T11:55:00Z</time>
      </trkpt>
      <trkpt lat="48.63406" lon="-4.41046">
        <ele>22</ele>
        <time>2025-09-24T11:55:06Z</time>
      </trkpt>
      <trkpt lat="48.63406" lon="-4.41051">
        <ele>22</ele>
        <time>2025-09-24T11:55:07Z</time>
      </trkpt>
      <trkpt lat="48.63406" lon="-4.41072">
        <ele>21.8</ele>
        <time>2025-09-24T11:55:12Z</time>
      </trkpt>
      <trkpt lat="48.63406" lon="-4.41077">
        <ele>21.8</ele>
        <time>2025-09-24T11:55:14Z</time>
      </trkpt>
      <trkpt lat="48.63415" lon="-4.41082">
        <ele>21.4</ele>
        <time>2025-09-24T11:55:18Z</time>
      </trkpt>
      <trkpt lat="48.63417" lon="-4.41083">
        <ele>21</ele>
        <time>2025-09-24T11:55:19Z</time>
      </trkpt>
      <trkpt lat="48.63433" lon="-4.41086">
        <ele>20.8</ele>
        <time>2025-09-24T11:55:25Z</time>
      </trkpt>
      <trkpt lat="48.63452" lon="-4.41082">
        <ele>21.2</ele>
        <time>2025-09-24T11:55:32Z</time>
      </trkpt>
      <trkpt lat="48.63476" lon="-4.41073">
        <ele>20.8</ele>
        <time>2025-09-24T11:55:39Z</time>
      </trkpt>
      <trkpt lat="48.63487" lon="-4.4107">
        <ele>19.8</ele>
        <time>2025-09-24T11:55:42Z</time>
      </trkpt>
      <trkpt lat="48.63505" lon="-4.41067">
        <ele>18.6</ele>
        <time>2025-09-24T11:55:46Z</time>
      </trkpt>
      <trkpt lat="48.6352" lon="-4.41063">
        <ele>17.8</ele>
        <time>2025-09-24T11:55:49Z</time>
      </trkpt>
      <trkpt lat="48.63525" lon="-4.41062">
        <ele>17.2</ele>
        <time>2025-09-24T11:55:50Z</time>
      </trkpt>
      <trkpt lat="48.63537" lon="-4.41059">
        <ele>16</ele>
        <time>2025-09-24T11:55:52Z</time>
      </trkpt>
      <trkpt lat="48.63543" lon="-4.41057">
        <ele>15.6</ele>
        <time>2025-09-24T11:55:53Z</time>
      </trkpt>
      <trkpt lat="48.63556" lon="-4.41053">
        <ele>14.8</ele>
        <time>2025-09-24T11:55:55Z</time>
      </trkpt>
      <trkpt lat="48.63576" lon="-4.41049">
        <ele>14</ele>
        <time>2025-09-24T11:55:58Z</time>
      </trkpt>
      <trkpt lat="48.63583" lon="-4.41047">
        <ele>13.4</ele>
        <time>2025-09-24T11:55:59Z</time>
      </trkpt>
      <trkpt lat="48.6359" lon="-4.41045">
        <ele>12.8</ele>
        <time>2025-09-24T11:56:00Z</time>
      </trkpt>
      <trkpt lat="48.63604" lon="-4.4104">
        <ele>12.2</ele>
        <time>2025-09-24T11:56:02Z</time>
      </trkpt>
      <trkpt lat="48.63631" lon="-4.41032">
        <ele>11.8</ele>
        <time>2025-09-24T11:56:06Z</time>
      </trkpt>
      <trkpt lat="48.63658" lon="-4.41024">
        <ele>11.2</ele>
        <time>2025-09-24T11:56:10Z</time>
      </trkpt>
      <trkpt lat="48.63664" lon="-4.41023">
        <ele>11</ele>
        <time>2025-09-24T11:56:11Z</time>
      </trkpt>
      <trkpt lat="48.63699" lon="-4.41017">
        <ele>9.8</ele>
        <time>2025-09-24T11:56:17Z</time>
      </trkpt>
      <trkpt lat="48.63735" lon="-4.41008">
        <ele>9</ele>
        <time>2025-09-24T11:56:24Z</time>
      </trkpt>
      <trkpt lat="48.63745" lon="-4.41005">
        <ele>8.4</ele>
        <time>2025-09-24T11:56:26Z</time>
      </trkpt>
      <trkpt lat="48.6375" lon="-4.41003">
        <ele>7.2</ele>
        <time>2025-09-24T11:56:27Z</time>
      </trkpt>
      <trkpt lat="48.63755" lon="-4.41002">
        <ele>7.4</ele>
        <time>2025-09-24T11:56:28Z</time>
      </trkpt>
      <trkpt lat="48.6376" lon="-4.41002">
        <ele>7.2</ele>
        <time>2025-09-24T11:56:29Z</time>
      </trkpt>
      <trkpt lat="48.63765" lon="-4.41001">
        <ele>7.6</ele>
        <time>2025-09-24T11:56:30Z</time>
      </trkpt>
      <trkpt lat="48.63772" lon="-4.41003">
        <ele>8.8</ele>
        <time>2025-09-24T11:56:32Z</time>
      </trkpt>
      <trkpt lat="48.63776" lon="-4.41006">
        <ele>9.8</ele>
        <time>2025-09-24T11:56:34Z</time>
      </trkpt>
      <trkpt lat="48.63779" lon="-4.41013">
        <ele>10.8</ele>
        <time>2025-09-24T11:56:36Z</time>
      </trkpt>
      <trkpt lat="48.6378" lon="-4.41015">
        <ele>11</ele>
        <time>2025-09-24T11:56:37Z</time>
      </trkpt>
      <trkpt lat="48.63782" lon="-4.41034">
        <ele>11</ele>
        <time>2025-09-24T11:56:42Z</time>
      </trkpt>
      <trkpt lat="48.63785" lon="-4.41056">
        <ele>10.6</ele>
        <time>2025-09-24T11:56:47Z</time>
      </trkpt>
      <trkpt lat="48.63787" lon="-4.41074">
        <ele>10.8</ele>
        <time>2025-09-24T11:56:51Z</time>
      </trkpt>
      <trkpt lat="48.6379" lon="-4.41098">
        <ele>11.2</ele>
        <time>2025-09-24T11:56:56Z</time>
      </trkpt>
      <trkpt lat="48.63793" lon="-4.4112">
        <ele>11.2</ele>
        <time>2025-09-24T11:57:01Z</time>
      </trkpt>
      <trkpt lat="48.63797" lon="-4.41143">
        <ele>11.6</ele>
        <time>2025-09-24T11:57:06Z</time>
      </trkpt>
      <trkpt lat="48.63798" lon="-4.41147">
        <ele>11.6</ele>
        <time>2025-09-24T11:57:07Z</time>
      </trkpt>
      <trkpt lat="48.638" lon="-4.41166">
        <ele>11.6</ele>
        <time>2025-09-24T11:57:11Z</time>
      </trkpt>
      <trkpt lat="48.638" lon="-4.41208">
        <ele>12.2</ele>
        <time>2025-09-24T11:57:20Z</time>
      </trkpt>
      <trkpt lat="48.638" lon="-4.41211">
        <ele>12.2</ele>
        <time>2025-09-24T11:57:21Z</time>
      </trkpt>
      <trkpt lat="48.638" lon="-4.41213">
        <ele>12.4</ele>
        <time>2025-09-24T11:57:22Z</time>
      </trkpt>
      <trkpt lat="48.638" lon="-4.41216">
        <ele>12.4</ele>
        <time>2025-09-24T11:57:24Z</time>
      </trkpt>
      <trkpt lat="48.63802" lon="-4.41218">
        <ele>12.4</ele>
        <time>2025-09-24T11:57:26Z</time>
      </trkpt>
      <trkpt lat="48.63803" lon="-4.41217">
        <ele>12.4</ele>
        <time>2025-09-24T11:57:29Z</time>
      </trkpt>
      <trkpt lat="48.63804" lon="-4.41217">
        <ele>12.6</ele>
        <time>2025-09-24T11:57:36Z</time>
      </trkpt>
      <trkpt lat="48.63806" lon="-4.4121">
        <ele>12.8</ele>
        <time>2025-09-24T11:57:42Z</time>
      </trkpt>
      <trkpt lat="48.63811" lon="-4.41219">
        <ele>12.8</ele>
        <time>2025-09-24T11:57:49Z</time>
      </trkpt>
      <trkpt lat="48.63812" lon="-4.4122">
        <ele>13.2</ele>
        <time>2025-09-24T11:57:51Z</time>
      </trkpt>
      <trkpt lat="48.63813" lon="-4.41221">
        <ele>13.2</ele>
        <time>2025-09-24T11:57:52Z</time>
      </trkpt>
      <trkpt lat="48.63817" lon="-4.4123">
        <ele>13.2</ele>
        <time>2025-09-24T11:58:01Z</time>
      </trkpt>
      <trkpt lat="48.63817" lon="-4.4123">
        <ele>13</ele>
        <time>2025-09-24T11:58:02Z</time>
      </trkpt>
      <trkpt lat="48.63818" lon="-4.41231">
        <ele>12.8</ele>
        <time>2025-09-24T11:58:24Z</time>
      </trkpt>
      <trkpt lat="48.63818" lon="-4.41231">
        <ele>12.8</ele>
        <time>2025-09-24T11:58:26Z</time>
      </trkpt>
      <trkpt lat="48.63818" lon="-4.41231">
        <ele>13</ele>
        <time>2025-09-24T11:58:27Z</time>
      </trkpt>
      <trkpt lat="48.63817" lon="-4.41231">
        <ele>12.4</ele>
        <time>2025-09-24T11:58:53Z</time>
      </trkpt>
      <trkpt lat="48.63817" lon="-4.41231">
        <ele>12.4</ele>
        <time>2025-09-24T11:58:55Z</time>
      </trkpt>
      <trkpt lat="48.63819" lon="-4.41229">
        <ele>12.4</ele>
        <time>2025-09-24T12:01:24Z</time>
      </trkpt>
      <trkpt lat="48.63819" lon="-4.41229">
        <ele>12.4</ele>
        <time>2025-09-24T12:01:25Z</time>
      </trkpt>
      <trkpt lat="48.63818" lon="-4.4123">
        <ele>10.8</ele>
        <time>2025-09-24T12:50:05Z</time>
      </trkpt>
      <trkpt lat="48.63818" lon="-4.41231">
        <ele>11</ele>
        <time>2025-09-24T12:50:06Z</time>
      </trkpt>
      <trkpt lat="48.63817" lon="-4.4123">
        <ele>10.4</ele>
        <time>2025-09-24T12:50:39Z</time>
      </trkpt>
      <trkpt lat="48.63815" lon="-4.41225">
        <ele>10.4</ele>
        <time>2025-09-24T12:50:42Z</time>
      </trkpt>
      <trkpt lat="48.63808" lon="-4.41212">
        <ele>10.2</ele>
        <time>2025-09-24T12:50:51Z</time>
      </trkpt>
      <trkpt lat="48.63803" lon="-4.41211">
        <ele>10.4</ele>
        <time>2025-09-24T12:50:57Z</time>
      </trkpt>
      <trkpt lat="48.63803" lon="-4.41212">
        <ele>10.2</ele>
        <time>2025-09-24T12:51:01Z</time>
      </trkpt>
      <trkpt lat="48.63803" lon="-4.41216">
        <ele>10.2</ele>
        <time>2025-09-24T12:51:03Z</time>
      </trkpt>
      <trkpt lat="48.63802" lon="-4.41231">
        <ele>10.6</ele>
        <time>2025-09-24T12:51:08Z</time>
      </trkpt>
      <trkpt lat="48.63797" lon="-4.41251">
        <ele>10.8</ele>
        <time>2025-09-24T12:51:15Z</time>
      </trkpt>
      <trkpt lat="48.63793" lon="-4.41269">
        <ele>11.2</ele>
        <time>2025-09-24T12:51:22Z</time>
      </trkpt>
      <trkpt lat="48.6379" lon="-4.41291">
        <ele>11.8</ele>
        <time>2025-09-24T12:51:29Z</time>
      </trkpt>
      <trkpt lat="48.63789" lon="-4.41307">
        <ele>11.8</ele>
        <time>2025-09-24T12:51:35Z</time>
      </trkpt>
      <trkpt lat="48.63789" lon="-4.4131">
        <ele>12</ele>
        <time>2025-09-24T12:51:36Z</time>
      </trkpt>
      <trkpt lat="48.63787" lon="-4.41325">
        <ele>12.2</ele>
        <time>2025-09-24T12:51:41Z</time>
      </trkpt>
      <trkpt lat="48.63784" lon="-4.41351">
        <ele>12.4</ele>
        <time>2025-09-24T12:51:48Z</time>
      </trkpt>
      <trkpt lat="48.63784" lon="-4.41366">
        <ele>12.8</ele>
        <time>2025-09-24T12:51:52Z</time>
      </trkpt>
      <trkpt lat="48.63784" lon="-4.4137">
        <ele>12.8</ele>
        <time>2025-09-24T12:51:53Z</time>
      </trkpt>
      <trkpt lat="48.63784" lon="-4.41375">
        <ele>12.8</ele>
        <time>2025-09-24T12:51:54Z</time>
      </trkpt>
      <trkpt lat="48.63784" lon="-4.41394">
        <ele>13</ele>
        <time>2025-09-24T12:51:58Z</time>
      </trkpt>
      <trkpt lat="48.63784" lon="-4.41403">
        <ele>13.2</ele>
        <time>2025-09-24T12:52:00Z</time>
      </trkpt>
      <trkpt lat="48.63781" lon="-4.41432">
        <ele>13.4</ele>
        <time>2025-09-24T12:52:07Z</time>
      </trkpt>
      <trkpt lat="48.63773" lon="-4.41464">
        <ele>14</ele>
        <time>2025-09-24T12:52:15Z</time>
      </trkpt>
      <trkpt lat="48.63766" lon="-4.41493">
        <ele>13.6</ele>
        <time>2025-09-24T12:52:23Z</time>
      </trkpt>
      <trkpt lat="48.63763" lon="-4.41505">
        <ele>13.6</ele>
        <time>2025-09-24T12:52:26Z</time>
      </trkpt>
      <trkpt lat="48.63762" lon="-4.41509">
        <ele>13.6</ele>
        <time>2025-09-24T12:52:27Z</time>
      </trkpt>
      <trkpt lat="48.63761" lon="-4.41512">
        <ele>13.8</ele>
        <time>2025-09-24T12:52:28Z</time>
      </trkpt>
      <trkpt lat="48.6376" lon="-4.41516">
        <ele>13.8</ele>
        <time>2025-09-24T12:52:29Z</time>
      </trkpt>
      <trkpt lat="48.63758" lon="-4.4152">
        <ele>13.8</ele>
        <time>2025-09-24T12:52:30Z</time>
      </trkpt>
      <trkpt lat="48.63756" lon="-4.41527">
        <ele>14</ele>
        <time>2025-09-24T12:52:32Z</time>
      </trkpt>
      <trkpt lat="48.63755" lon="-4.41531">
        <ele>14</ele>
        <time>2025-09-24T12:52:33Z</time>
      </trkpt>
      <trkpt lat="48.63743" lon="-4.41569">
        <ele>14.6</ele>
        <time>2025-09-24T12:52:43Z</time>
      </trkpt>
      <trkpt lat="48.63735" lon="-4.41596">
        <ele>15</ele>
        <time>2025-09-24T12:52:50Z</time>
      </trkpt>
      <trkpt lat="48.63732" lon="-4.41607">
        <ele>15.2</ele>
        <time>2025-09-24T12:52:53Z</time>
      </trkpt>
      <trkpt lat="48.6372" lon="-4.41644">
        <ele>15.2</ele>
        <time>2025-09-24T12:53:03Z</time>
      </trkpt>
      <trkpt lat="48.63713" lon="-4.41654">
        <ele>15.2</ele>
        <time>2025-09-24T12:53:08Z</time>
      </trkpt>
      <trkpt lat="48.63711" lon="-4.41658">
        <ele>15.6</ele>
        <time>2025-09-24T12:53:10Z</time>
      </trkpt>
      <trkpt lat="48.63704" lon="-4.41666">
        <ele>15.2</ele>
        <time>2025-09-24T12:53:14Z</time>
      </trkpt>
      <trkpt lat="48.63685" lon="-4.41672">
        <ele>14.8</ele>
        <time>2025-09-24T12:53:21Z</time>
      </trkpt>
      <trkpt lat="48.63661" lon="-4.41676">
        <ele>14.6</ele>
        <time>2025-09-24T12:53:28Z</time>
      </trkpt>
      <trkpt lat="48.63632" lon="-4.41677">
        <ele>15</ele>
        <time>2025-09-24T12:53:37Z</time>
      </trkpt>
      <trkpt lat="48.636" lon="-4.41678">
        <ele>15</ele>
        <time>2025-09-24T12:53:46Z</time>
      </trkpt>
      <trkpt lat="48.63574" lon="-4.41682">
        <ele>15</ele>
        <time>2025-09-24T12:53:54Z</time>
      </trkpt>
      <trkpt lat="48.63571" lon="-4.41683">
        <ele>15.2</ele>
        <time>2025-09-24T12:53:55Z</time>
      </trkpt>
      <trkpt lat="48.63564" lon="-4.41688">
        <ele>15.2</ele>
        <time>2025-09-24T12:54:00Z</time>
      </trkpt>
      <trkpt lat="48.63563" lon="-4.41688">
        <ele>15.4</ele>
        <time>2025-09-24T12:54:01Z</time>
      </trkpt>
      <trkpt lat="48.63562" lon="-4.41689">
        <ele>15.4</ele>
        <time>2025-09-24T12:54:03Z</time>
      </trkpt>
      <trkpt lat="48.63563" lon="-4.41698">
        <ele>15.4</ele>
        <time>2025-09-24T12:54:07Z</time>
      </trkpt>
      <trkpt lat="48.63567" lon="-4.41718">
        <ele>15.2</ele>
        <time>2025-09-24T12:54:12Z</time>
      </trkpt>
      <trkpt lat="48.63569" lon="-4.41727">
        <ele>15.2</ele>
        <time>2025-09-24T12:54:14Z</time>
      </trkpt>
      <trkpt lat="48.6357" lon="-4.41737">
        <ele>15</ele>
        <time>2025-09-24T12:54:16Z</time>
      </trkpt>
      <trkpt lat="48.63572" lon="-4.41748">
        <ele>15</ele>
        <time>2025-09-24T12:54:18Z</time>
      </trkpt>
      <trkpt lat="48.63579" lon="-4.4178">
        <ele>14.8</ele>
        <time>2025-09-24T12:54:24Z</time>
      </trkpt>
      <trkpt lat="48.63593" lon="-4.41835">
        <ele>14.8</ele>
        <time>2025-09-24T12:54:34Z</time>
      </trkpt>
      <trkpt lat="48.63597" lon="-4.41851">
        <ele>15</ele>
        <time>2025-09-24T12:54:37Z</time>
      </trkpt>
      <trkpt lat="48.63603" lon="-4.41879">
        <ele>15.2</ele>
        <time>2025-09-24T12:54:42Z</time>
      </trkpt>
      <trkpt lat="48.6361" lon="-4.41906">
        <ele>15</ele>
        <time>2025-09-24T12:54:47Z</time>
      </trkpt>
      <trkpt lat="48.63612" lon="-4.41912">
        <ele>15</ele>
        <time>2025-09-24T12:54:48Z</time>
      </trkpt>
      <trkpt lat="48.63613" lon="-4.41917">
        <ele>15</ele>
        <time>2025-09-24T12:54:49Z</time>
      </trkpt>
      <trkpt lat="48.63616" lon="-4.41929">
        <ele>15</ele>
        <time>2025-09-24T12:54:51Z</time>
      </trkpt>
      <trkpt lat="48.63618" lon="-4.41935">
        <ele>14.8</ele>
        <time>2025-09-24T12:54:52Z</time>
      </trkpt>
      <trkpt lat="48.63622" lon="-4.41947">
        <ele>14.6</ele>
        <time>2025-09-24T12:54:54Z</time>
      </trkpt>
      <trkpt lat="48.63632" lon="-4.41987">
        <ele>14.2</ele>
        <time>2025-09-24T12:55:00Z</time>
      </trkpt>
      <trkpt lat="48.63644" lon="-4.42047">
        <ele>14</ele>
        <time>2025-09-24T12:55:09Z</time>
      </trkpt>
      <trkpt lat="48.63659" lon="-4.42119">
        <ele>13.8</ele>
        <time>2025-09-24T12:55:20Z</time>
      </trkpt>
      <trkpt lat="48.63666" lon="-4.42149">
        <ele>14.2</ele>
        <time>2025-09-24T12:55:25Z</time>
      </trkpt>
      <trkpt lat="48.63667" lon="-4.42154">
        <ele>14.2</ele>
        <time>2025-09-24T12:55:26Z</time>
      </trkpt>
      <trkpt lat="48.63668" lon="-4.4216">
        <ele>14</ele>
        <time>2025-09-24T12:55:27Z</time>
      </trkpt>
      <trkpt lat="48.6367" lon="-4.42165">
        <ele>14</ele>
        <time>2025-09-24T12:55:28Z</time>
      </trkpt>
      <trkpt lat="48.63671" lon="-4.4217">
        <ele>14</ele>
        <time>2025-09-24T12:55:29Z</time>
      </trkpt>
      <trkpt lat="48.63675" lon="-4.42196">
        <ele>14.4</ele>
        <time>2025-09-24T12:55:34Z</time>
      </trkpt>
      <trkpt lat="48.63677" lon="-4.42217">
        <ele>14.8</ele>
        <time>2025-09-24T12:55:38Z</time>
      </trkpt>
      <trkpt lat="48.63671" lon="-4.42254">
        <ele>14.4</ele>
        <time>2025-09-24T12:55:44Z</time>
      </trkpt>
      <trkpt lat="48.63654" lon="-4.42318">
        <ele>13.6</ele>
        <time>2025-09-24T12:55:53Z</time>
      </trkpt>
      <trkpt lat="48.63644" lon="-4.42365">
        <ele>13</ele>
        <time>2025-09-24T12:55:59Z</time>
      </trkpt>
      <trkpt lat="48.63642" lon="-4.4238">
        <ele>13</ele>
        <time>2025-09-24T12:56:01Z</time>
      </trkpt>
      <trkpt lat="48.63639" lon="-4.42429">
        <ele>13.6</ele>
        <time>2025-09-24T12:56:08Z</time>
      </trkpt>
      <trkpt lat="48.63641" lon="-4.42448">
        <ele>14.2</ele>
        <time>2025-09-24T12:56:11Z</time>
      </trkpt>
      <trkpt lat="48.63647" lon="-4.42491">
        <ele>14.2</ele>
        <time>2025-09-24T12:56:18Z</time>
      </trkpt>
      <trkpt lat="48.63658" lon="-4.42528">
        <ele>14.8</ele>
        <time>2025-09-24T12:56:25Z</time>
      </trkpt>
      <trkpt lat="48.6366" lon="-4.42537">
        <ele>15.4</ele>
        <time>2025-09-24T12:56:27Z</time>
      </trkpt>
      <trkpt lat="48.63667" lon="-4.42558">
        <ele>15.8</ele>
        <time>2025-09-24T12:56:32Z</time>
      </trkpt>
      <trkpt lat="48.6367" lon="-4.42557">
        <ele>15.8</ele>
        <time>2025-09-24T12:56:33Z</time>
      </trkpt>
      <trkpt lat="48.63674" lon="-4.4255">
        <ele>15.6</ele>
        <time>2025-09-24T12:56:37Z</time>
      </trkpt>
      <trkpt lat="48.63682" lon="-4.4255">
        <ele>16.6</ele>
        <time>2025-09-24T12:56:41Z</time>
      </trkpt>
      <trkpt lat="48.63686" lon="-4.4255">
        <ele>17</ele>
        <time>2025-09-24T12:56:43Z</time>
      </trkpt>
      <trkpt lat="48.63701" lon="-4.42557">
        <ele>17.4</ele>
        <time>2025-09-24T12:56:49Z</time>
      </trkpt>
      <trkpt lat="48.63709" lon="-4.42552">
        <ele>17.4</ele>
        <time>2025-09-24T12:56:53Z</time>
      </trkpt>
      <trkpt lat="48.63711" lon="-4.42555">
        <ele>17.4</ele>
        <time>2025-09-24T12:56:55Z</time>
      </trkpt>
      <trkpt lat="48.6371" lon="-4.42559">
        <ele>17.6</ele>
        <time>2025-09-24T12:56:57Z</time>
      </trkpt>
      <trkpt lat="48.63711" lon="-4.42562">
        <ele>17.8</ele>
        <time>2025-09-24T12:56:58Z</time>
      </trkpt>
      <trkpt lat="48.63717" lon="-4.42567">
        <ele>18</ele>
        <time>2025-09-24T12:57:01Z</time>
      </trkpt>
      <trkpt lat="48.63743" lon="-4.42583">
        <ele>17</ele>
        <time>2025-09-24T12:57:10Z</time>
      </trkpt>
      <trkpt lat="48.63746" lon="-4.42584">
        <ele>16.6</ele>
        <time>2025-09-24T12:57:11Z</time>
      </trkpt>
      <trkpt lat="48.63771" lon="-4.42601">
        <ele>16.8</ele>
        <time>2025-09-24T12:57:18Z</time>
      </trkpt>
      <trkpt lat="48.63784" lon="-4.42616">
        <ele>16.6</ele>
        <time>2025-09-24T12:57:22Z</time>
      </trkpt>
      <trkpt lat="48.6379" lon="-4.42623">
        <ele>16.4</ele>
        <time>2025-09-24T12:57:24Z</time>
      </trkpt>
      <trkpt lat="48.63798" lon="-4.42633">
        <ele>16.6</ele>
        <time>2025-09-24T12:57:27Z</time>
      </trkpt>
      <trkpt lat="48.63802" lon="-4.42635">
        <ele>17.4</ele>
        <time>2025-09-24T12:57:30Z</time>
      </trkpt>
      <trkpt lat="48.63802" lon="-4.42634">
        <ele>17.6</ele>
        <time>2025-09-24T12:57:31Z</time>
      </trkpt>
      <trkpt lat="48.63799" lon="-4.42634">
        <ele>18.2</ele>
        <time>2025-09-24T13:01:38Z</time>
      </trkpt>
      <trkpt lat="48.63796" lon="-4.42633">
        <ele>18.2</ele>
        <time>2025-09-24T13:01:40Z</time>
      </trkpt>
      <trkpt lat="48.63784" lon="-4.42619">
        <ele>18.2</ele>
        <time>2025-09-24T13:01:45Z</time>
      </trkpt>
      <trkpt lat="48.63763" lon="-4.42598">
        <ele>18.4</ele>
        <time>2025-09-24T13:01:53Z</time>
      </trkpt>
      <trkpt lat="48.63743" lon="-4.42585">
        <ele>19</ele>
        <time>2025-09-24T13:02:00Z</time>
      </trkpt>
      <trkpt lat="48.6372" lon="-4.42572">
        <ele>19</ele>
        <time>2025-09-24T13:02:08Z</time>
      </trkpt>
      <trkpt lat="48.63695" lon="-4.42557">
        <ele>18.4</ele>
        <time>2025-09-24T13:02:16Z</time>
      </trkpt>
      <trkpt lat="48.63673" lon="-4.42551">
        <ele>17.4</ele>
        <time>2025-09-24T13:02:22Z</time>
      </trkpt>
      <trkpt lat="48.63671" lon="-4.42553">
        <ele>17.2</ele>
        <time>2025-09-24T13:02:23Z</time>
      </trkpt>
      <trkpt lat="48.63668" lon="-4.42562">
        <ele>16.8</ele>
        <time>2025-09-24T13:02:25Z</time>
      </trkpt>
      <trkpt lat="48.63669" lon="-4.42567">
        <ele>16.8</ele>
        <time>2025-09-24T13:02:26Z</time>
      </trkpt>
      <trkpt lat="48.63676" lon="-4.42597">
        <ele>16.6</ele>
        <time>2025-09-24T13:02:32Z</time>
      </trkpt>
      <trkpt lat="48.63679" lon="-4.42635">
        <ele>16.2</ele>
        <time>2025-09-24T13:02:38Z</time>
      </trkpt>
      <trkpt lat="48.63679" lon="-4.42642">
        <ele>16.2</ele>
        <time>2025-09-24T13:02:39Z</time>
      </trkpt>
      <trkpt lat="48.63678" lon="-4.4268">
        <ele>15.8</ele>
        <time>2025-09-24T13:02:45Z</time>
      </trkpt>
      <trkpt lat="48.63673" lon="-4.42719">
        <ele>15.4</ele>
        <time>2025-09-24T13:02:51Z</time>
      </trkpt>
      <trkpt lat="48.63671" lon="-4.42731">
        <ele>15.2</ele>
        <time>2025-09-24T13:02:53Z</time>
      </trkpt>
      <trkpt lat="48.63669" lon="-4.42737">
        <ele>15.2</ele>
        <time>2025-09-24T13:02:54Z</time>
      </trkpt>
      <trkpt lat="48.63664" lon="-4.42754">
        <ele>15.2</ele>
        <time>2025-09-24T13:02:57Z</time>
      </trkpt>
      <trkpt lat="48.63658" lon="-4.42771">
        <ele>15.2</ele>
        <time>2025-09-24T13:03:00Z</time>
      </trkpt>
      <trkpt lat="48.63655" lon="-4.42776">
        <ele>15.2</ele>
        <time>2025-09-24T13:03:01Z</time>
      </trkpt>
      <trkpt lat="48.6365" lon="-4.42786">
        <ele>15</ele>
        <time>2025-09-24T13:03:03Z</time>
      </trkpt>
      <trkpt lat="48.63638" lon="-4.42807">
        <ele>15</ele>
        <time>2025-09-24T13:03:07Z</time>
      </trkpt>
      <trkpt lat="48.63627" lon="-4.42824">
        <ele>14.6</ele>
        <time>2025-09-24T13:03:10Z</time>
      </trkpt>
      <trkpt lat="48.63608" lon="-4.42854">
        <ele>14</ele>
        <time>2025-09-24T13:03:15Z</time>
      </trkpt>
      <trkpt lat="48.63599" lon="-4.42867">
        <ele>13.6</ele>
        <time>2025-09-24T13:03:17Z</time>
      </trkpt>
      <trkpt lat="48.63585" lon="-4.42887">
        <ele>13</ele>
        <time>2025-09-24T13:03:20Z</time>
      </trkpt>
      <trkpt lat="48.63567" lon="-4.42916">
        <ele>12.4</ele>
        <time>2025-09-24T13:03:24Z</time>
      </trkpt>
      <trkpt lat="48.63547" lon="-4.42946">
        <ele>11.6</ele>
        <time>2025-09-24T13:03:28Z</time>
      </trkpt>
      <trkpt lat="48.63537" lon="-4.42961">
        <ele>11</ele>
        <time>2025-09-24T13:03:30Z</time>
      </trkpt>
      <trkpt lat="48.63527" lon="-4.42975">
        <ele>10.4</ele>
        <time>2025-09-24T13:03:32Z</time>
      </trkpt>
      <trkpt lat="48.63517" lon="-4.4299">
        <ele>10</ele>
        <time>2025-09-24T13:03:34Z</time>
      </trkpt>
      <trkpt lat="48.63503" lon="-4.43016">
        <ele>9.4</ele>
        <time>2025-09-24T13:03:37Z</time>
      </trkpt>
      <trkpt lat="48.63486" lon="-4.43067">
        <ele>8.4</ele>
        <time>2025-09-24T13:03:42Z</time>
      </trkpt>
      <trkpt lat="48.63479" lon="-4.43133">
        <ele>7.4</ele>
        <time>2025-09-24T13:03:48Z</time>
      </trkpt>
      <trkpt lat="48.63478" lon="-4.43144">
        <ele>7.2</ele>
        <time>2025-09-24T13:03:49Z</time>
      </trkpt>
      <trkpt lat="48.63474" lon="-4.43202">
        <ele>7</ele>
        <time>2025-09-24T13:03:55Z</time>
      </trkpt>
      <trkpt lat="48.6347" lon="-4.43254">
        <ele>7.6</ele>
        <time>2025-09-24T13:04:01Z</time>
      </trkpt>
      <trkpt lat="48.63468" lon="-4.43289">
        <ele>7.6</ele>
        <time>2025-09-24T13:04:05Z</time>
      </trkpt>
      <trkpt lat="48.63471" lon="-4.43337">
        <ele>8</ele>
        <time>2025-09-24T13:04:11Z</time>
      </trkpt>
      <trkpt lat="48.63475" lon="-4.43359">
        <ele>8</ele>
        <time>2025-09-24T13:04:14Z</time>
      </trkpt>
      <trkpt lat="48.6348" lon="-4.43376">
        <ele>8</ele>
        <time>2025-09-24T13:04:17Z</time>
      </trkpt>
      <trkpt lat="48.63489" lon="-4.43399">
        <ele>7.8</ele>
        <time>2025-09-24T13:04:21Z</time>
      </trkpt>
      <trkpt lat="48.63496" lon="-4.43411">
        <ele>7.8</ele>
        <time>2025-09-24T13:04:23Z</time>
      </trkpt>
      <trkpt lat="48.63526" lon="-4.43476">
        <ele>7.6</ele>
        <time>2025-09-24T13:04:33Z</time>
      </trkpt>
      <trkpt lat="48.63554" lon="-4.4354">
        <ele>7.4</ele>
        <time>2025-09-24T13:04:43Z</time>
      </trkpt>
      <trkpt lat="48.63582" lon="-4.43601">
        <ele>7.4</ele>
        <time>2025-09-24T13:04:53Z</time>
      </trkpt>
      <trkpt lat="48.63605" lon="-4.43652">
        <ele>7.2</ele>
        <time>2025-09-24T13:05:02Z</time>
      </trkpt>
      <trkpt lat="48.63629" lon="-4.43705">
        <ele>7</ele>
        <time>2025-09-24T13:05:11Z</time>
      </trkpt>
      <trkpt lat="48.63657" lon="-4.43766">
        <ele>7.6</ele>
        <time>2025-09-24T13:05:22Z</time>
      </trkpt>
      <trkpt lat="48.63662" lon="-4.43777">
        <ele>7.6</ele>
        <time>2025-09-24T13:05:24Z</time>
      </trkpt>
      <trkpt lat="48.63667" lon="-4.43788">
        <ele>7.6</ele>
        <time>2025-09-24T13:05:26Z</time>
      </trkpt>
      <trkpt lat="48.6368" lon="-4.43819">
        <ele>7.8</ele>
        <time>2025-09-24T13:05:32Z</time>
      </trkpt>
      <trkpt lat="48.63697" lon="-4.43857">
        <ele>7.8</ele>
        <time>2025-09-24T13:05:39Z</time>
      </trkpt>
      <trkpt lat="48.63702" lon="-4.43868">
        <ele>7.6</ele>
        <time>2025-09-24T13:05:41Z</time>
      </trkpt>
      <trkpt lat="48.63726" lon="-4.43924">
        <ele>7.4</ele>
        <time>2025-09-24T13:05:52Z</time>
      </trkpt>
      <trkpt lat="48.63736" lon="-4.43959">
        <ele>7.6</ele>
        <time>2025-09-24T13:05:59Z</time>
      </trkpt>
      <trkpt lat="48.63745" lon="-4.43979">
        <ele>8</ele>
        <time>2025-09-24T13:06:05Z</time>
      </trkpt>
      <trkpt lat="48.63744" lon="-4.43982">
        <ele>8</ele>
        <time>2025-09-24T13:06:06Z</time>
      </trkpt>
      <trkpt lat="48.63739" lon="-4.43993">
        <ele>7.8</ele>
        <time>2025-09-24T13:06:09Z</time>
      </trkpt>
      <trkpt lat="48.63731" lon="-4.44022">
        <ele>7.2</ele>
        <time>2025-09-24T13:06:15Z</time>
      </trkpt>
      <trkpt lat="48.63715" lon="-4.44058">
        <ele>7</ele>
        <time>2025-09-24T13:06:22Z</time>
      </trkpt>
      <trkpt lat="48.63713" lon="-4.44063">
        <ele>7</ele>
        <time>2025-09-24T13:06:23Z</time>
      </trkpt>
      <trkpt lat="48.63693" lon="-4.44108">
        <ele>7.6</ele>
        <time>2025-09-24T13:06:32Z</time>
      </trkpt>
      <trkpt lat="48.6367" lon="-4.44162">
        <ele>8</ele>
        <time>2025-09-24T13:06:43Z</time>
      </trkpt>
      <trkpt lat="48.63657" lon="-4.44205">
        <ele>8</ele>
        <time>2025-09-24T13:06:51Z</time>
      </trkpt>
      <trkpt lat="48.63652" lon="-4.44229">
        <ele>8.4</ele>
        <time>2025-09-24T13:06:55Z</time>
      </trkpt>
      <trkpt lat="48.63647" lon="-4.44264">
        <ele>8.2</ele>
        <time>2025-09-24T13:07:01Z</time>
      </trkpt>
      <trkpt lat="48.63641" lon="-4.44314">
        <ele>8.4</ele>
        <time>2025-09-24T13:07:09Z</time>
      </trkpt>
      <trkpt lat="48.63637" lon="-4.44381">
        <ele>9</ele>
        <time>2025-09-24T13:07:20Z</time>
      </trkpt>
      <trkpt lat="48.63634" lon="-4.4443">
        <ele>9</ele>
        <time>2025-09-24T13:07:28Z</time>
      </trkpt>
      <trkpt lat="48.63634" lon="-4.44441">
        <ele>8.8</ele>
        <time>2025-09-24T13:07:30Z</time>
      </trkpt>
      <trkpt lat="48.63628" lon="-4.44493">
        <ele>9</ele>
        <time>2025-09-24T13:07:39Z</time>
      </trkpt>
      <trkpt lat="48.63616" lon="-4.44532">
        <ele>9.4</ele>
        <time>2025-09-24T13:07:46Z</time>
      </trkpt>
      <trkpt lat="48.63614" lon="-4.44537">
        <ele>9.2</ele>
        <time>2025-09-24T13:07:47Z</time>
      </trkpt>
      <trkpt lat="48.63606" lon="-4.44567">
        <ele>9.4</ele>
        <time>2025-09-24T13:07:52Z</time>
      </trkpt>
      <trkpt lat="48.63599" lon="-4.4459">
        <ele>9.2</ele>
        <time>2025-09-24T13:07:56Z</time>
      </trkpt>
      <trkpt lat="48.63588" lon="-4.44626">
        <ele>9.2</ele>
        <time>2025-09-24T13:08:02Z</time>
      </trkpt>
      <trkpt lat="48.63577" lon="-4.4466">
        <ele>9.2</ele>
        <time>2025-09-24T13:08:08Z</time>
      </trkpt>
      <trkpt lat="48.63558" lon="-4.44708">
        <ele>9.4</ele>
        <time>2025-09-24T13:08:17Z</time>
      </trkpt>
      <trkpt lat="48.63529" lon="-4.44762">
        <ele>9.6</ele>
        <time>2025-09-24T13:08:28Z</time>
      </trkpt>
      <trkpt lat="48.63506" lon="-4.44802">
        <ele>9.8</ele>
        <time>2025-09-24T13:08:36Z</time>
      </trkpt>
      <trkpt lat="48.63472" lon="-4.44859">
        <ele>10</ele>
        <time>2025-09-24T13:08:47Z</time>
      </trkpt>
      <trkpt lat="48.63433" lon="-4.44924">
        <ele>10</ele>
        <time>2025-09-24T13:09:00Z</time>
      </trkpt>
      <trkpt lat="48.63407" lon="-4.44969">
        <ele>10.4</ele>
        <time>2025-09-24T13:09:09Z</time>
      </trkpt>
      <trkpt lat="48.63371" lon="-4.45027">
        <ele>10.4</ele>
        <time>2025-09-24T13:09:21Z</time>
      </trkpt>
      <trkpt lat="48.63344" lon="-4.45071">
        <ele>10.6</ele>
        <time>2025-09-24T13:09:31Z</time>
      </trkpt>
      <trkpt lat="48.63315" lon="-4.45116">
        <ele>10.8</ele>
        <time>2025-09-24T13:09:42Z</time>
      </trkpt>
      <trkpt lat="48.63286" lon="-4.45159">
        <ele>10.8</ele>
        <time>2025-09-24T13:09:53Z</time>
      </trkpt>
      <trkpt lat="48.63264" lon="-4.45192">
        <ele>11</ele>
        <time>2025-09-24T13:10:01Z</time>
      </trkpt>
      <trkpt lat="48.63261" lon="-4.45197">
        <ele>11</ele>
        <time>2025-09-24T13:10:02Z</time>
      </trkpt>
      <trkpt lat="48.63249" lon="-4.45214">
        <ele>11</ele>
        <time>2025-09-24T13:10:06Z</time>
      </trkpt>
      <trkpt lat="48.63232" lon="-4.45241">
        <ele>11.2</ele>
        <time>2025-09-24T13:10:12Z</time>
      </trkpt>
      <trkpt lat="48.63218" lon="-4.45262">
        <ele>11</ele>
        <time>2025-09-24T13:10:17Z</time>
      </trkpt>
      <trkpt lat="48.63205" lon="-4.4528">
        <ele>11.2</ele>
        <time>2025-09-24T13:10:21Z</time>
      </trkpt>
      <trkpt lat="48.63193" lon="-4.45299">
        <ele>11.2</ele>
        <time>2025-09-24T13:10:25Z</time>
      </trkpt>
      <trkpt lat="48.63175" lon="-4.45325">
        <ele>11.4</ele>
        <time>2025-09-24T13:10:31Z</time>
      </trkpt>
      <trkpt lat="48.63169" lon="-4.45334">
        <ele>11.4</ele>
        <time>2025-09-24T13:10:33Z</time>
      </trkpt>
      <trkpt lat="48.63163" lon="-4.45343">
        <ele>11.6</ele>
        <time>2025-09-24T13:10:35Z</time>
      </trkpt>
      <trkpt lat="48.63157" lon="-4.45352">
        <ele>11.8</ele>
        <time>2025-09-24T13:10:37Z</time>
      </trkpt>
      <trkpt lat="48.63123" lon="-4.45402">
        <ele>12.2</ele>
        <time>2025-09-24T13:10:48Z</time>
      </trkpt>
      <trkpt lat="48.63093" lon="-4.45446">
        <ele>12.2</ele>
        <time>2025-09-24T13:10:58Z</time>
      </trkpt>
      <trkpt lat="48.63081" lon="-4.45464">
        <ele>12.4</ele>
        <time>2025-09-24T13:11:02Z</time>
      </trkpt>
      <trkpt lat="48.63053" lon="-4.45506">
        <ele>12.4</ele>
        <time>2025-09-24T13:11:11Z</time>
      </trkpt>
      <trkpt lat="48.63018" lon="-4.45559">
        <ele>12.6</ele>
        <time>2025-09-24T13:11:22Z</time>
      </trkpt>
      <trkpt lat="48.6299" lon="-4.45605">
        <ele>12.6</ele>
        <time>2025-09-24T13:11:31Z</time>
      </trkpt>
      <trkpt lat="48.62979" lon="-4.45627">
        <ele>12.4</ele>
        <time>2025-09-24T13:11:35Z</time>
      </trkpt>
      <trkpt lat="48.62972" lon="-4.45642">
        <ele>12.6</ele>
        <time>2025-09-24T13:11:38Z</time>
      </trkpt>
      <trkpt lat="48.62967" lon="-4.45651">
        <ele>12.8</ele>
        <time>2025-09-24T13:11:40Z</time>
      </trkpt>
      <trkpt lat="48.62962" lon="-4.45666">
        <ele>12.8</ele>
        <time>2025-09-24T13:11:45Z</time>
      </trkpt>
      <trkpt lat="48.62963" lon="-4.45667">
        <ele>12.8</ele>
        <time>2025-09-24T13:11:48Z</time>
      </trkpt>
      <trkpt lat="48.62962" lon="-4.45669">
        <ele>13</ele>
        <time>2025-09-24T13:12:50Z</time>
      </trkpt>
      <trkpt lat="48.62961" lon="-4.45669">
        <ele>13</ele>
        <time>2025-09-24T13:12:51Z</time>
      </trkpt>
      <trkpt lat="48.6296" lon="-4.4567">
        <ele>13</ele>
        <time>2025-09-24T13:12:52Z</time>
      </trkpt>
      <trkpt lat="48.62956" lon="-4.45675">
        <ele>13</ele>
        <time>2025-09-24T13:12:55Z</time>
      </trkpt>
      <trkpt lat="48.62945" lon="-4.45698">
        <ele>13.2</ele>
        <time>2025-09-24T13:13:02Z</time>
      </trkpt>
      <trkpt lat="48.62933" lon="-4.45722">
        <ele>13.4</ele>
        <time>2025-09-24T13:13:08Z</time>
      </trkpt>
      <trkpt lat="48.62924" lon="-4.45738">
        <ele>13.2</ele>
        <time>2025-09-24T13:13:12Z</time>
      </trkpt>
      <trkpt lat="48.62908" lon="-4.45771">
        <ele>13.2</ele>
        <time>2025-09-24T13:13:19Z</time>
      </trkpt>
      <trkpt lat="48.62878" lon="-4.45831">
        <ele>13.2</ele>
        <time>2025-09-24T13:13:30Z</time>
      </trkpt>
      <trkpt lat="48.62869" lon="-4.45849">
        <ele>13.2</ele>
        <time>2025-09-24T13:13:33Z</time>
      </trkpt>
      <trkpt lat="48.6285" lon="-4.45889">
        <ele>13.2</ele>
        <time>2025-09-24T13:13:40Z</time>
      </trkpt>
      <trkpt lat="48.62841" lon="-4.45906">
        <ele>13.2</ele>
        <time>2025-09-24T13:13:43Z</time>
      </trkpt>
      <trkpt lat="48.62835" lon="-4.45918">
        <ele>13.4</ele>
        <time>2025-09-24T13:13:45Z</time>
      </trkpt>
      <trkpt lat="48.62818" lon="-4.45955">
        <ele>13.2</ele>
        <time>2025-09-24T13:13:52Z</time>
      </trkpt>
      <trkpt lat="48.62798" lon="-4.45995">
        <ele>13.6</ele>
        <time>2025-09-24T13:14:01Z</time>
      </trkpt>
      <trkpt lat="48.62778" lon="-4.46035">
        <ele>13.8</ele>
        <time>2025-09-24T13:14:10Z</time>
      </trkpt>
      <trkpt lat="48.62756" lon="-4.46079">
        <ele>14.2</ele>
        <time>2025-09-24T13:14:20Z</time>
      </trkpt>
      <trkpt lat="48.62752" lon="-4.46088">
        <ele>14.4</ele>
        <time>2025-09-24T13:14:22Z</time>
      </trkpt>
      <trkpt lat="48.62732" lon="-4.46125">
        <ele>15.4</ele>
        <time>2025-09-24T13:14:31Z</time>
      </trkpt>
      <trkpt lat="48.62727" lon="-4.46133">
        <ele>15.6</ele>
        <time>2025-09-24T13:14:33Z</time>
      </trkpt>
      <trkpt lat="48.62706" lon="-4.46165">
        <ele>16.4</ele>
        <time>2025-09-24T13:14:42Z</time>
      </trkpt>
      <trkpt lat="48.62701" lon="-4.4617">
        <ele>16.6</ele>
        <time>2025-09-24T13:14:44Z</time>
      </trkpt>
      <trkpt lat="48.62692" lon="-4.46176">
        <ele>17</ele>
        <time>2025-09-24T13:14:48Z</time>
      </trkpt>
      <trkpt lat="48.62683" lon="-4.46179">
        <ele>17.6</ele>
        <time>2025-09-24T13:14:53Z</time>
      </trkpt>
      <trkpt lat="48.62681" lon="-4.46178">
        <ele>17.8</ele>
        <time>2025-09-24T13:14:54Z</time>
      </trkpt>
      <trkpt lat="48.62671" lon="-4.46168">
        <ele>18.4</ele>
        <time>2025-09-24T13:15:00Z</time>
      </trkpt>
      <trkpt lat="48.62668" lon="-4.46162">
        <ele>18.8</ele>
        <time>2025-09-24T13:15:02Z</time>
      </trkpt>
      <trkpt lat="48.62663" lon="-4.46144">
        <ele>19.8</ele>
        <time>2025-09-24T13:15:09Z</time>
      </trkpt>
      <trkpt lat="48.62663" lon="-4.46141">
        <ele>20</ele>
        <time>2025-09-24T13:15:10Z</time>
      </trkpt>
      <trkpt lat="48.62658" lon="-4.46124">
        <ele>21.2</ele>
        <time>2025-09-24T13:15:17Z</time>
      </trkpt>
      <trkpt lat="48.62656" lon="-4.46117">
        <ele>21.6</ele>
        <time>2025-09-24T13:15:20Z</time>
      </trkpt>
      <trkpt lat="48.62651" lon="-4.46098">
        <ele>22</ele>
        <time>2025-09-24T13:15:28Z</time>
      </trkpt>
      <trkpt lat="48.6265" lon="-4.46093">
        <ele>22.2</ele>
        <time>2025-09-24T13:15:30Z</time>
      </trkpt>
      <trkpt lat="48.62647" lon="-4.46079">
        <ele>23</ele>
        <time>2025-09-24T13:15:35Z</time>
      </trkpt>
      <trkpt lat="48.62646" lon="-4.46076">
        <ele>23.2</ele>
        <time>2025-09-24T13:15:36Z</time>
      </trkpt>
      <trkpt lat="48.62646" lon="-4.46073">
        <ele>23.2</ele>
        <time>2025-09-24T13:15:37Z</time>
      </trkpt>
      <trkpt lat="48.62642" lon="-4.46053">
        <ele>24.2</ele>
        <time>2025-09-24T13:15:44Z</time>
      </trkpt>
      <trkpt lat="48.62641" lon="-4.46051">
        <ele>24.4</ele>
        <time>2025-09-24T13:15:45Z</time>
      </trkpt>
      <trkpt lat="48.62639" lon="-4.46031">
        <ele>25</ele>
        <time>2025-09-24T13:15:52Z</time>
      </trkpt>
      <trkpt lat="48.62638" lon="-4.46022">
        <ele>25.2</ele>
        <time>2025-09-24T13:15:55Z</time>
      </trkpt>
      <trkpt lat="48.62636" lon="-4.46011">
        <ele>25.8</ele>
        <time>2025-09-24T13:15:59Z</time>
      </trkpt>
      <trkpt lat="48.62631" lon="-4.45988">
        <ele>26.4</ele>
        <time>2025-09-24T13:16:05Z</time>
      </trkpt>
      <trkpt lat="48.62625" lon="-4.45955">
        <ele>27.4</ele>
        <time>2025-09-24T13:16:14Z</time>
      </trkpt>
      <trkpt lat="48.62623" lon="-4.45951">
        <ele>27.4</ele>
        <time>2025-09-24T13:16:15Z</time>
      </trkpt>
      <trkpt lat="48.62613" lon="-4.45933">
        <ele>28.4</ele>
        <time>2025-09-24T13:16:22Z</time>
      </trkpt>
      <trkpt lat="48.62596" lon="-4.45916">
        <ele>29.4</ele>
        <time>2025-09-24T13:16:30Z</time>
      </trkpt>
      <trkpt lat="48.62594" lon="-4.45914">
        <ele>29.4</ele>
        <time>2025-09-24T13:16:31Z</time>
      </trkpt>
      <trkpt lat="48.6258" lon="-4.45901">
        <ele>30.6</ele>
        <time>2025-09-24T13:16:38Z</time>
      </trkpt>
      <trkpt lat="48.62576" lon="-4.45898">
        <ele>30.8</ele>
        <time>2025-09-24T13:16:40Z</time>
      </trkpt>
      <trkpt lat="48.62566" lon="-4.45888">
        <ele>31.6</ele>
        <time>2025-09-24T13:16:46Z</time>
      </trkpt>
      <trkpt lat="48.62563" lon="-4.45886">
        <ele>31.8</ele>
        <time>2025-09-24T13:16:48Z</time>
      </trkpt>
      <trkpt lat="48.62553" lon="-4.45876">
        <ele>32.4</ele>
        <time>2025-09-24T13:16:54Z</time>
      </trkpt>
      <trkpt lat="48.62549" lon="-4.45872">
        <ele>32.6</ele>
        <time>2025-09-24T13:16:57Z</time>
      </trkpt>
      <trkpt lat="48.62542" lon="-4.45865">
        <ele>33.4</ele>
        <time>2025-09-24T13:17:02Z</time>
      </trkpt>
      <trkpt lat="48.6254" lon="-4.45863">
        <ele>33.8</ele>
        <time>2025-09-24T13:17:04Z</time>
      </trkpt>
      <trkpt lat="48.62532" lon="-4.45853">
        <ele>34.4</ele>
        <time>2025-09-24T13:17:10Z</time>
      </trkpt>
      <trkpt lat="48.62529" lon="-4.45848">
        <ele>34.8</ele>
        <time>2025-09-24T13:17:13Z</time>
      </trkpt>
      <trkpt lat="48.62523" lon="-4.45838">
        <ele>35.2</ele>
        <time>2025-09-24T13:17:18Z</time>
      </trkpt>
      <trkpt lat="48.62519" lon="-4.45826">
        <ele>35.8</ele>
        <time>2025-09-24T13:17:23Z</time>
      </trkpt>
      <trkpt lat="48.62516" lon="-4.45817">
        <ele>36.4</ele>
        <time>2025-09-24T13:17:27Z</time>
      </trkpt>
      <trkpt lat="48.62514" lon="-4.45813">
        <ele>37</ele>
        <time>2025-09-24T13:17:29Z</time>
      </trkpt>
      <trkpt lat="48.6251" lon="-4.45802">
        <ele>37.2</ele>
        <time>2025-09-24T13:17:34Z</time>
      </trkpt>
      <trkpt lat="48.62504" lon="-4.45783">
        <ele>37.8</ele>
        <time>2025-09-24T13:17:42Z</time>
      </trkpt>
      <trkpt lat="48.62502" lon="-4.45779">
        <ele>38</ele>
        <time>2025-09-24T13:17:44Z</time>
      </trkpt>
      <trkpt lat="48.62496" lon="-4.45765">
        <ele>38.6</ele>
        <time>2025-09-24T13:17:50Z</time>
      </trkpt>
      <trkpt lat="48.62493" lon="-4.4576">
        <ele>39</ele>
        <time>2025-09-24T13:17:53Z</time>
      </trkpt>
      <trkpt lat="48.62486" lon="-4.45752">
        <ele>39.6</ele>
        <time>2025-09-24T13:17:59Z</time>
      </trkpt>
      <trkpt lat="48.6248" lon="-4.45749">
        <ele>40.2</ele>
        <time>2025-09-24T13:18:03Z</time>
      </trkpt>
      <trkpt lat="48.62474" lon="-4.45746">
        <ele>40.6</ele>
        <time>2025-09-24T13:18:07Z</time>
      </trkpt>
      <trkpt lat="48.62469" lon="-4.45745">
        <ele>41.2</ele>
        <time>2025-09-24T13:18:10Z</time>
      </trkpt>
      <trkpt lat="48.6246" lon="-4.45743">
        <ele>41.8</ele>
        <time>2025-09-24T13:18:15Z</time>
      </trkpt>
      <trkpt lat="48.62457" lon="-4.45743">
        <ele>42</ele>
        <time>2025-09-24T13:18:17Z</time>
      </trkpt>
      <trkpt lat="48.62455" lon="-4.45743">
        <ele>42.2</ele>
        <time>2025-09-24T13:18:18Z</time>
      </trkpt>
      <trkpt lat="48.62449" lon="-4.45743">
        <ele>42.8</ele>
        <time>2025-09-24T13:18:23Z</time>
      </trkpt>
      <trkpt lat="48.62443" lon="-4.45745">
        <ele>43.2</ele>
        <time>2025-09-24T13:18:27Z</time>
      </trkpt>
      <trkpt lat="48.6244" lon="-4.45746">
        <ele>43.4</ele>
        <time>2025-09-24T13:18:29Z</time>
      </trkpt>
      <trkpt lat="48.62428" lon="-4.4575">
        <ele>44.2</ele>
        <time>2025-09-24T13:18:37Z</time>
      </trkpt>
      <trkpt lat="48.62427" lon="-4.4575">
        <ele>44.4</ele>
        <time>2025-09-24T13:18:38Z</time>
      </trkpt>
      <trkpt lat="48.62417" lon="-4.45754">
        <ele>45.4</ele>
        <time>2025-09-24T13:18:44Z</time>
      </trkpt>
      <trkpt lat="48.62415" lon="-4.45755">
        <ele>45.6</ele>
        <time>2025-09-24T13:18:45Z</time>
      </trkpt>
      <trkpt lat="48.62402" lon="-4.45759">
        <ele>46.4</ele>
        <time>2025-09-24T13:18:53Z</time>
      </trkpt>
      <trkpt lat="48.624" lon="-4.4576">
        <ele>46.4</ele>
        <time>2025-09-24T13:18:54Z</time>
      </trkpt>
      <trkpt lat="48.6239" lon="-4.45764">
        <ele>47.6</ele>
        <time>2025-09-24T13:19:00Z</time>
      </trkpt>
      <trkpt lat="48.62386" lon="-4.45766">
        <ele>47.8</ele>
        <time>2025-09-24T13:19:03Z</time>
      </trkpt>
      <trkpt lat="48.62374" lon="-4.45774">
        <ele>48.6</ele>
        <time>2025-09-24T13:19:11Z</time>
      </trkpt>
      <trkpt lat="48.62372" lon="-4.45775">
        <ele>48.6</ele>
        <time>2025-09-24T13:19:12Z</time>
      </trkpt>
      <trkpt lat="48.62364" lon="-4.45784">
        <ele>49.6</ele>
        <time>2025-09-24T13:19:18Z</time>
      </trkpt>
      <trkpt lat="48.62361" lon="-4.45787">
        <ele>49.8</ele>
        <time>2025-09-24T13:19:20Z</time>
      </trkpt>
      <trkpt lat="48.62352" lon="-4.45796">
        <ele>50.6</ele>
        <time>2025-09-24T13:19:26Z</time>
      </trkpt>
      <trkpt lat="48.62349" lon="-4.458">
        <ele>51</ele>
        <time>2025-09-24T13:19:28Z</time>
      </trkpt>
      <trkpt lat="48.62345" lon="-4.45812">
        <ele>51.8</ele>
        <time>2025-09-24T13:19:33Z</time>
      </trkpt>
      <trkpt lat="48.62346" lon="-4.45814">
        <ele>51.8</ele>
        <time>2025-09-24T13:19:34Z</time>
      </trkpt>
      <trkpt lat="48.62354" lon="-4.45819">
        <ele>52.6</ele>
        <time>2025-09-24T13:19:39Z</time>
      </trkpt>
      <trkpt lat="48.62355" lon="-4.4582">
        <ele>53</ele>
        <time>2025-09-24T13:19:40Z</time>
      </trkpt>
      <trkpt lat="48.6236" lon="-4.45827">
        <ele>53.8</ele>
        <time>2025-09-24T13:19:45Z</time>
      </trkpt>
      <trkpt lat="48.62361" lon="-4.45829">
        <ele>54</ele>
        <time>2025-09-24T13:19:47Z</time>
      </trkpt>
      <trkpt lat="48.62362" lon="-4.45832">
        <ele>54.2</ele>
        <time>2025-09-24T13:19:50Z</time>
      </trkpt>
      <trkpt lat="48.62364" lon="-4.45833">
        <ele>54.4</ele>
        <time>2025-09-24T13:19:52Z</time>
      </trkpt>
      <trkpt lat="48.62366" lon="-4.45836">
        <ele>54.4</ele>
        <time>2025-09-24T13:19:56Z</time>
      </trkpt>
      <trkpt lat="48.62369" lon="-4.45841">
        <ele>54.8</ele>
        <time>2025-09-24T13:20:00Z</time>
      </trkpt>
      <trkpt lat="48.62369" lon="-4.45841">
        <ele>55</ele>
        <time>2025-09-24T13:20:01Z</time>
      </trkpt>
      <trkpt lat="48.62374" lon="-4.45849">
        <ele>56</ele>
        <time>2025-09-24T13:20:09Z</time>
      </trkpt>
      <trkpt lat="48.62383" lon="-4.45858">
        <ele>56.2</ele>
        <time>2025-09-24T13:20:19Z</time>
      </trkpt>
      <trkpt lat="48.6239" lon="-4.45868">
        <ele>56.8</ele>
        <time>2025-09-24T13:20:29Z</time>
      </trkpt>
      <trkpt lat="48.62391" lon="-4.45871">
        <ele>57</ele>
        <time>2025-09-24T13:20:31Z</time>
      </trkpt>
      <trkpt lat="48.62391" lon="-4.45872">
        <ele>57.2</ele>
        <time>2025-09-24T13:20:32Z</time>
      </trkpt>
      <trkpt lat="48.6239" lon="-4.45877">
        <ele>57</ele>
        <time>2025-09-24T13:20:35Z</time>
      </trkpt>
      <trkpt lat="48.62388" lon="-4.45885">
        <ele>57</ele>
        <time>2025-09-24T13:20:41Z</time>
      </trkpt>
      <trkpt lat="48.62385" lon="-4.45891">
        <ele>57.2</ele>
        <time>2025-09-24T13:20:47Z</time>
      </trkpt>
      <trkpt lat="48.62385" lon="-4.45892">
        <ele>57.2</ele>
        <time>2025-09-24T13:20:48Z</time>
      </trkpt>
      <trkpt lat="48.62384" lon="-4.45894">
        <ele>57.4</ele>
        <time>2025-09-24T13:20:50Z</time>
      </trkpt>
      <trkpt lat="48.62381" lon="-4.45898">
        <ele>57.6</ele>
        <time>2025-09-24T13:20:55Z</time>
      </trkpt>
      <trkpt lat="48.62377" lon="-4.4591">
        <ele>57.8</ele>
        <time>2025-09-24T13:21:03Z</time>
      </trkpt>
      <trkpt lat="48.62372" lon="-4.4592">
        <ele>58</ele>
        <time>2025-09-24T13:21:07Z</time>
      </trkpt>
      <trkpt lat="48.6237" lon="-4.45924">
        <ele>58.2</ele>
        <time>2025-09-24T13:21:09Z</time>
      </trkpt>
      <trkpt lat="48.62364" lon="-4.45942">
        <ele>59</ele>
        <time>2025-09-24T13:21:16Z</time>
      </trkpt>
      <trkpt lat="48.62357" lon="-4.45967">
        <ele>59.4</ele>
        <time>2025-09-24T13:21:25Z</time>
      </trkpt>
      <trkpt lat="48.62348" lon="-4.45985">
        <ele>59.6</ele>
        <time>2025-09-24T13:21:32Z</time>
      </trkpt>
      <trkpt lat="48.62341" lon="-4.45997">
        <ele>60.2</ele>
        <time>2025-09-24T13:21:38Z</time>
      </trkpt>
      <trkpt lat="48.62335" lon="-4.46006">
        <ele>60.2</ele>
        <time>2025-09-24T13:21:42Z</time>
      </trkpt>
      <trkpt lat="48.62328" lon="-4.46018">
        <ele>60.2</ele>
        <time>2025-09-24T13:21:47Z</time>
      </trkpt>
      <trkpt lat="48.62322" lon="-4.46027">
        <ele>60.4</ele>
        <time>2025-09-24T13:21:51Z</time>
      </trkpt>
      <trkpt lat="48.62311" lon="-4.46054">
        <ele>60.6</ele>
        <time>2025-09-24T13:22:00Z</time>
      </trkpt>
      <trkpt lat="48.62308" lon="-4.46084">
        <ele>60.6</ele>
        <time>2025-09-24T13:22:08Z</time>
      </trkpt>
      <trkpt lat="48.62308" lon="-4.46118">
        <ele>61.2</ele>
        <time>2025-09-24T13:22:17Z</time>
      </trkpt>
      <trkpt lat="48.62308" lon="-4.46122">
        <ele>61.2</ele>
        <time>2025-09-24T13:22:18Z</time>
      </trkpt>
      <trkpt lat="48.62309" lon="-4.46152">
        <ele>61.4</ele>
        <time>2025-09-24T13:22:26Z</time>
      </trkpt>
      <trkpt lat="48.62308" lon="-4.46185">
        <ele>61.6</ele>
        <time>2025-09-24T13:22:34Z</time>
      </trkpt>
      <trkpt lat="48.62307" lon="-4.46192">
        <ele>61.6</ele>
        <time>2025-09-24T13:22:36Z</time>
      </trkpt>
      <trkpt lat="48.62304" lon="-4.46226">
        <ele>61.4</ele>
        <time>2025-09-24T13:22:45Z</time>
      </trkpt>
      <trkpt lat="48.62294" lon="-4.46248">
        <ele>61.4</ele>
        <time>2025-09-24T13:22:52Z</time>
      </trkpt>
      <trkpt lat="48.62283" lon="-4.46256">
        <ele>62.2</ele>
        <time>2025-09-24T13:22:57Z</time>
      </trkpt>
      <trkpt lat="48.62277" lon="-4.46258">
        <ele>62.4</ele>
        <time>2025-09-24T13:22:59Z</time>
      </trkpt>
      <trkpt lat="48.62261" lon="-4.46265">
        <ele>61.8</ele>
        <time>2025-09-24T13:23:04Z</time>
      </trkpt>
      <trkpt lat="48.62255" lon="-4.46269">
        <ele>61.6</ele>
        <time>2025-09-24T13:23:06Z</time>
      </trkpt>
      <trkpt lat="48.62228" lon="-4.46286">
        <ele>62</ele>
        <time>2025-09-24T13:23:15Z</time>
      </trkpt>
      <trkpt lat="48.62215" lon="-4.46292">
        <ele>62</ele>
        <time>2025-09-24T13:23:19Z</time>
      </trkpt>
      <trkpt lat="48.62193" lon="-4.46304">
        <ele>61.8</ele>
        <time>2025-09-24T13:23:26Z</time>
      </trkpt>
      <trkpt lat="48.62174" lon="-4.46313">
        <ele>61.8</ele>
        <time>2025-09-24T13:23:32Z</time>
      </trkpt>
      <trkpt lat="48.62161" lon="-4.46319">
        <ele>61.6</ele>
        <time>2025-09-24T13:23:36Z</time>
      </trkpt>
      <trkpt lat="48.62147" lon="-4.46323">
        <ele>61.8</ele>
        <time>2025-09-24T13:23:40Z</time>
      </trkpt>
      <trkpt lat="48.62132" lon="-4.4633">
        <ele>62.4</ele>
        <time>2025-09-24T13:23:45Z</time>
      </trkpt>
      <trkpt lat="48.62101" lon="-4.46342">
        <ele>62.6</ele>
        <time>2025-09-24T13:23:55Z</time>
      </trkpt>
      <trkpt lat="48.62073" lon="-4.46353">
        <ele>63</ele>
        <time>2025-09-24T13:24:04Z</time>
      </trkpt>
      <trkpt lat="48.62057" lon="-4.46361">
        <ele>63.4</ele>
        <time>2025-09-24T13:24:09Z</time>
      </trkpt>
      <trkpt lat="48.62042" lon="-4.46366">
        <ele>63.6</ele>
        <time>2025-09-24T13:24:14Z</time>
      </trkpt>
      <trkpt lat="48.62022" lon="-4.46374">
        <ele>63.8</ele>
        <time>2025-09-24T13:24:21Z</time>
      </trkpt>
      <trkpt lat="48.62017" lon="-4.46378">
        <ele>64</ele>
        <time>2025-09-24T13:24:23Z</time>
      </trkpt>
      <trkpt lat="48.62012" lon="-4.46397">
        <ele>64</ele>
        <time>2025-09-24T13:24:27Z</time>
      </trkpt>
      <trkpt lat="48.62011" lon="-4.46438">
        <ele>64.2</ele>
        <time>2025-09-24T13:24:35Z</time>
      </trkpt>
      <trkpt lat="48.62011" lon="-4.46445">
        <ele>64.4</ele>
        <time>2025-09-24T13:24:36Z</time>
      </trkpt>
      <trkpt lat="48.6201" lon="-4.46476">
        <ele>64.4</ele>
        <time>2025-09-24T13:24:41Z</time>
      </trkpt>
      <trkpt lat="48.62003" lon="-4.46518">
        <ele>64.2</ele>
        <time>2025-09-24T13:24:49Z</time>
      </trkpt>
      <trkpt lat="48.61994" lon="-4.46552">
        <ele>64.8</ele>
        <time>2025-09-24T13:24:55Z</time>
      </trkpt>
      <trkpt lat="48.61989" lon="-4.46567">
        <ele>64.6</ele>
        <time>2025-09-24T13:24:58Z</time>
      </trkpt>
      <trkpt lat="48.61979" lon="-4.46592">
        <ele>64.2</ele>
        <time>2025-09-24T13:25:04Z</time>
      </trkpt>
      <trkpt lat="48.61974" lon="-4.46606">
        <ele>64.2</ele>
        <time>2025-09-24T13:25:07Z</time>
      </trkpt>
      <trkpt lat="48.61952" lon="-4.46647">
        <ele>64.8</ele>
        <time>2025-09-24T13:25:17Z</time>
      </trkpt>
      <trkpt lat="48.61926" lon="-4.46686">
        <ele>65.4</ele>
        <time>2025-09-24T13:25:28Z</time>
      </trkpt>
      <trkpt lat="48.61923" lon="-4.46694">
        <ele>65.6</ele>
        <time>2025-09-24T13:25:30Z</time>
      </trkpt>
      <trkpt lat="48.61913" lon="-4.46727">
        <ele>66</ele>
        <time>2025-09-24T13:25:37Z</time>
      </trkpt>
      <trkpt lat="48.61906" lon="-4.46767">
        <ele>66.2</ele>
        <time>2025-09-24T13:25:44Z</time>
      </trkpt>
      <trkpt lat="48.61895" lon="-4.46829">
        <ele>64.6</ele>
        <time>2025-09-24T13:25:53Z</time>
      </trkpt>
      <trkpt lat="48.61893" lon="-4.46836">
        <ele>64.4</ele>
        <time>2025-09-24T13:25:54Z</time>
      </trkpt>
      <trkpt lat="48.61886" lon="-4.4688">
        <ele>63.4</ele>
        <time>2025-09-24T13:25:59Z</time>
      </trkpt>
      <trkpt lat="48.61882" lon="-4.46898">
        <ele>63.2</ele>
        <time>2025-09-24T13:26:01Z</time>
      </trkpt>
      <trkpt lat="48.61871" lon="-4.46956">
        <ele>62.2</ele>
        <time>2025-09-24T13:26:07Z</time>
      </trkpt>
      <trkpt lat="48.61871" lon="-4.46967">
        <ele>61.6</ele>
        <time>2025-09-24T13:26:08Z</time>
      </trkpt>
      <trkpt lat="48.61871" lon="-4.46977">
        <ele>61.2</ele>
        <time>2025-09-24T13:26:09Z</time>
      </trkpt>
      <trkpt lat="48.61871" lon="-4.46988">
        <ele>61</ele>
        <time>2025-09-24T13:26:10Z</time>
      </trkpt>
      <trkpt lat="48.61875" lon="-4.47026">
        <ele>60</ele>
        <time>2025-09-24T13:26:14Z</time>
      </trkpt>
      <trkpt lat="48.61877" lon="-4.47036">
        <ele>59.6</ele>
        <time>2025-09-24T13:26:15Z</time>
      </trkpt>
      <trkpt lat="48.61884" lon="-4.47083">
        <ele>59.8</ele>
        <time>2025-09-24T13:26:21Z</time>
      </trkpt>
      <trkpt lat="48.61889" lon="-4.47128">
        <ele>60.4</ele>
        <time>2025-09-24T13:26:28Z</time>
      </trkpt>
      <trkpt lat="48.61893" lon="-4.47149">
        <ele>60.8</ele>
        <time>2025-09-24T13:26:32Z</time>
      </trkpt>
      <trkpt lat="48.61896" lon="-4.47175">
        <ele>61.8</ele>
        <time>2025-09-24T13:26:37Z</time>
      </trkpt>
      <trkpt lat="48.61902" lon="-4.47223">
        <ele>62.8</ele>
        <time>2025-09-24T13:26:46Z</time>
      </trkpt>
      <trkpt lat="48.61903" lon="-4.47228">
        <ele>63</ele>
        <time>2025-09-24T13:26:47Z</time>
      </trkpt>
      <trkpt lat="48.61906" lon="-4.4725">
        <ele>63.4</ele>
        <time>2025-09-24T13:26:52Z</time>
      </trkpt>
      <trkpt lat="48.61909" lon="-4.47268">
        <ele>64</ele>
        <time>2025-09-24T13:26:56Z</time>
      </trkpt>
      <trkpt lat="48.61913" lon="-4.47288">
        <ele>65</ele>
        <time>2025-09-24T13:27:01Z</time>
      </trkpt>
      <trkpt lat="48.61917" lon="-4.47302">
        <ele>65.2</ele>
        <time>2025-09-24T13:27:05Z</time>
      </trkpt>
      <trkpt lat="48.61924" lon="-4.47332">
        <ele>66.2</ele>
        <time>2025-09-24T13:27:14Z</time>
      </trkpt>
      <trkpt lat="48.61925" lon="-4.47335">
        <ele>66.4</ele>
        <time>2025-09-24T13:27:15Z</time>
      </trkpt>
      <trkpt lat="48.61929" lon="-4.47353">
        <ele>67.2</ele>
        <time>2025-09-24T13:27:20Z</time>
      </trkpt>
      <trkpt lat="48.61931" lon="-4.4736">
        <ele>67.2</ele>
        <time>2025-09-24T13:27:22Z</time>
      </trkpt>
      <trkpt lat="48.61932" lon="-4.47364">
        <ele>67.4</ele>
        <time>2025-09-24T13:27:23Z</time>
      </trkpt>
      <trkpt lat="48.61935" lon="-4.47371">
        <ele>67.2</ele>
        <time>2025-09-24T13:27:25Z</time>
      </trkpt>
      <trkpt lat="48.61944" lon="-4.47408">
        <ele>67.2</ele>
        <time>2025-09-24T13:27:33Z</time>
      </trkpt>
      <trkpt lat="48.61951" lon="-4.47441">
        <ele>67.4</ele>
        <time>2025-09-24T13:27:41Z</time>
      </trkpt>
      <trkpt lat="48.61955" lon="-4.47463">
        <ele>67.2</ele>
        <time>2025-09-24T13:27:48Z</time>
      </trkpt>
      <trkpt lat="48.61956" lon="-4.4747">
        <ele>67</ele>
        <time>2025-09-24T13:27:50Z</time>
      </trkpt>
      <trkpt lat="48.61956" lon="-4.47479">
        <ele>67</ele>
        <time>2025-09-24T13:27:52Z</time>
      </trkpt>
      <trkpt lat="48.61957" lon="-4.47489">
        <ele>66.8</ele>
        <time>2025-09-24T13:27:55Z</time>
      </trkpt>
      <trkpt lat="48.61957" lon="-4.47514">
        <ele>66.2</ele>
        <time>2025-09-24T13:28:02Z</time>
      </trkpt>
      <trkpt lat="48.61956" lon="-4.47555">
        <ele>65.4</ele>
        <time>2025-09-24T13:28:09Z</time>
      </trkpt>
      <trkpt lat="48.61955" lon="-4.4757">
        <ele>65</ele>
        <time>2025-09-24T13:28:11Z</time>
      </trkpt>
      <trkpt lat="48.61952" lon="-4.47594">
        <ele>63.8</ele>
        <time>2025-09-24T13:28:14Z</time>
      </trkpt>
      <trkpt lat="48.61951" lon="-4.47601">
        <ele>63.4</ele>
        <time>2025-09-24T13:28:15Z</time>
      </trkpt>
      <trkpt lat="48.61948" lon="-4.47619">
        <ele>62.4</ele>
        <time>2025-09-24T13:28:17Z</time>
      </trkpt>
      <trkpt lat="48.61944" lon="-4.47636">
        <ele>61.6</ele>
        <time>2025-09-24T13:28:19Z</time>
      </trkpt>
      <trkpt lat="48.61943" lon="-4.47646">
        <ele>61</ele>
        <time>2025-09-24T13:28:20Z</time>
      </trkpt>
      <trkpt lat="48.61942" lon="-4.47656">
        <ele>60.6</ele>
        <time>2025-09-24T13:28:21Z</time>
      </trkpt>
      <trkpt lat="48.61941" lon="-4.47666">
        <ele>60</ele>
        <time>2025-09-24T13:28:22Z</time>
      </trkpt>
      <trkpt lat="48.6194" lon="-4.47689">
        <ele>58.8</ele>
        <time>2025-09-24T13:28:24Z</time>
      </trkpt>
      <trkpt lat="48.61939" lon="-4.47713">
        <ele>57.6</ele>
        <time>2025-09-24T13:28:26Z</time>
      </trkpt>
      <trkpt lat="48.61939" lon="-4.47783">
        <ele>58.2</ele>
        <time>2025-09-24T13:28:32Z</time>
      </trkpt>
      <trkpt lat="48.61939" lon="-4.47793">
        <ele>58.8</ele>
        <time>2025-09-24T13:28:33Z</time>
      </trkpt>
      <trkpt lat="48.61939" lon="-4.47815">
        <ele>59.6</ele>
        <time>2025-09-24T13:28:36Z</time>
      </trkpt>
      <trkpt lat="48.61938" lon="-4.47821">
        <ele>59.8</ele>
        <time>2025-09-24T13:28:37Z</time>
      </trkpt>
      <trkpt lat="48.61938" lon="-4.47837">
        <ele>60.8</ele>
        <time>2025-09-24T13:28:40Z</time>
      </trkpt>
      <trkpt lat="48.61938" lon="-4.4785">
        <ele>61.4</ele>
        <time>2025-09-24T13:28:43Z</time>
      </trkpt>
      <trkpt lat="48.61938" lon="-4.47862">
        <ele>61.6</ele>
        <time>2025-09-24T13:28:46Z</time>
      </trkpt>
      <trkpt lat="48.6194" lon="-4.47878">
        <ele>61.8</ele>
        <time>2025-09-24T13:28:50Z</time>
      </trkpt>
      <trkpt lat="48.61948" lon="-4.47901">
        <ele>61.8</ele>
        <time>2025-09-24T13:28:56Z</time>
      </trkpt>
      <trkpt lat="48.61956" lon="-4.47919">
        <ele>60.6</ele>
        <time>2025-09-24T13:29:00Z</time>
      </trkpt>
      <trkpt lat="48.6196" lon="-4.4793">
        <ele>60</ele>
        <time>2025-09-24T13:29:02Z</time>
      </trkpt>
      <trkpt lat="48.61964" lon="-4.47938">
        <ele>59.6</ele>
        <time>2025-09-24T13:29:04Z</time>
      </trkpt>
      <trkpt lat="48.61965" lon="-4.47944">
        <ele>59.4</ele>
        <time>2025-09-24T13:29:06Z</time>
      </trkpt>
      <trkpt lat="48.61971" lon="-4.47964">
        <ele>58.8</ele>
        <time>2025-09-24T13:29:13Z</time>
      </trkpt>
      <trkpt lat="48.61974" lon="-4.47975">
        <ele>58.6</ele>
        <time>2025-09-24T13:29:15Z</time>
      </trkpt>
      <trkpt lat="48.61979" lon="-4.47995">
        <ele>58</ele>
        <time>2025-09-24T13:29:18Z</time>
      </trkpt>
      <trkpt lat="48.61987" lon="-4.4803">
        <ele>57.4</ele>
        <time>2025-09-24T13:29:23Z</time>
      </trkpt>
      <trkpt lat="48.61988" lon="-4.48037">
        <ele>57.4</ele>
        <time>2025-09-24T13:29:24Z</time>
      </trkpt>
      <trkpt lat="48.61994" lon="-4.48087">
        <ele>56.2</ele>
        <time>2025-09-24T13:29:30Z</time>
      </trkpt>
      <trkpt lat="48.61995" lon="-4.48096">
        <ele>56</ele>
        <time>2025-09-24T13:29:31Z</time>
      </trkpt>
      <trkpt lat="48.62001" lon="-4.48163">
        <ele>56</ele>
        <time>2025-09-24T13:29:39Z</time>
      </trkpt>
      <trkpt lat="48.62002" lon="-4.48184">
        <ele>56.2</ele>
        <time>2025-09-24T13:29:42Z</time>
      </trkpt>
      <trkpt lat="48.62005" lon="-4.48209">
        <ele>56.6</ele>
        <time>2025-09-24T13:29:46Z</time>
      </trkpt>
      <trkpt lat="48.62006" lon="-4.48214">
        <ele>56.6</ele>
        <time>2025-09-24T13:29:47Z</time>
      </trkpt>
      <trkpt lat="48.62009" lon="-4.4822">
        <ele>56.6</ele>
        <time>2025-09-24T13:29:48Z</time>
      </trkpt>
      <trkpt lat="48.62016" lon="-4.48236">
        <ele>56.4</ele>
        <time>2025-09-24T13:29:51Z</time>
      </trkpt>
      <trkpt lat="48.62018" lon="-4.48242">
        <ele>56.2</ele>
        <time>2025-09-24T13:29:52Z</time>
      </trkpt>
      <trkpt lat="48.6202" lon="-4.48248">
        <ele>56.2</ele>
        <time>2025-09-24T13:29:53Z</time>
      </trkpt>
      <trkpt lat="48.62023" lon="-4.48277">
        <ele>56</ele>
        <time>2025-09-24T13:29:58Z</time>
      </trkpt>
      <trkpt lat="48.62025" lon="-4.48313">
        <ele>55.2</ele>
        <time>2025-09-24T13:30:04Z</time>
      </trkpt>
      <trkpt lat="48.62025" lon="-4.48318">
        <ele>55</ele>
        <time>2025-09-24T13:30:05Z</time>
      </trkpt>
      <trkpt lat="48.62025" lon="-4.48342">
        <ele>53.8</ele>
        <time>2025-09-24T13:30:09Z</time>
      </trkpt>
      <trkpt lat="48.62026" lon="-4.48357">
        <ele>53.2</ele>
        <time>2025-09-24T13:30:11Z</time>
      </trkpt>
      <trkpt lat="48.62027" lon="-4.48364">
        <ele>53</ele>
        <time>2025-09-24T13:30:12Z</time>
      </trkpt>
      <trkpt lat="48.62027" lon="-4.48372">
        <ele>52.6</ele>
        <time>2025-09-24T13:30:13Z</time>
      </trkpt>
      <trkpt lat="48.62028" lon="-4.48408">
        <ele>52.4</ele>
        <time>2025-09-24T13:30:18Z</time>
      </trkpt>
      <trkpt lat="48.6203" lon="-4.48455">
        <ele>51.8</ele>
        <time>2025-09-24T13:30:24Z</time>
      </trkpt>
      <trkpt lat="48.6203" lon="-4.48465">
        <ele>51.4</ele>
        <time>2025-09-24T13:30:25Z</time>
      </trkpt>
      <trkpt lat="48.62032" lon="-4.48506">
        <ele>50.2</ele>
        <time>2025-09-24T13:30:29Z</time>
      </trkpt>
      <trkpt lat="48.62032" lon="-4.48527">
        <ele>50.2</ele>
        <time>2025-09-24T13:30:31Z</time>
      </trkpt>
      <trkpt lat="48.62029" lon="-4.4858">
        <ele>49.2</ele>
        <time>2025-09-24T13:30:36Z</time>
      </trkpt>
      <trkpt lat="48.62028" lon="-4.48591">
        <ele>48.8</ele>
        <time>2025-09-24T13:30:37Z</time>
      </trkpt>
      <trkpt lat="48.62027" lon="-4.48601">
        <ele>48.6</ele>
        <time>2025-09-24T13:30:38Z</time>
      </trkpt>
      <trkpt lat="48.62025" lon="-4.48613">
        <ele>48.4</ele>
        <time>2025-09-24T13:30:39Z</time>
      </trkpt>
      <trkpt lat="48.62025" lon="-4.48624">
        <ele>48.2</ele>
        <time>2025-09-24T13:30:40Z</time>
      </trkpt>
      <trkpt lat="48.62026" lon="-4.48635">
        <ele>47.8</ele>
        <time>2025-09-24T13:30:41Z</time>
      </trkpt>
      <trkpt lat="48.62028" lon="-4.48646">
        <ele>47.4</ele>
        <time>2025-09-24T13:30:42Z</time>
      </trkpt>
      <trkpt lat="48.62037" lon="-4.48666">
        <ele>46.6</ele>
        <time>2025-09-24T13:30:44Z</time>
      </trkpt>
      <trkpt lat="48.62041" lon="-4.48675">
        <ele>46</ele>
        <time>2025-09-24T13:30:45Z</time>
      </trkpt>
      <trkpt lat="48.62045" lon="-4.48684">
        <ele>45.6</ele>
        <time>2025-09-24T13:30:46Z</time>
      </trkpt>
      <trkpt lat="48.62049" lon="-4.48694">
        <ele>45.4</ele>
        <time>2025-09-24T13:30:47Z</time>
      </trkpt>
      <trkpt lat="48.62057" lon="-4.48724">
        <ele>45.2</ele>
        <time>2025-09-24T13:30:50Z</time>
      </trkpt>
      <trkpt lat="48.62063" lon="-4.48767">
        <ele>44.8</ele>
        <time>2025-09-24T13:30:54Z</time>
      </trkpt>
      <trkpt lat="48.62067" lon="-4.48798">
        <ele>44.8</ele>
        <time>2025-09-24T13:30:57Z</time>
      </trkpt>
      <trkpt lat="48.62069" lon="-4.4883">
        <ele>45</ele>
        <time>2025-09-24T13:31:00Z</time>
      </trkpt>
      <trkpt lat="48.62067" lon="-4.4885">
        <ele>44.8</ele>
        <time>2025-09-24T13:31:02Z</time>
      </trkpt>
      <trkpt lat="48.62059" lon="-4.48877">
        <ele>44.4</ele>
        <time>2025-09-24T13:31:05Z</time>
      </trkpt>
      <trkpt lat="48.62053" lon="-4.48894">
        <ele>44.4</ele>
        <time>2025-09-24T13:31:07Z</time>
      </trkpt>
      <trkpt lat="48.62035" lon="-4.48956">
        <ele>44</ele>
        <time>2025-09-24T13:31:14Z</time>
      </trkpt>
      <trkpt lat="48.62035" lon="-4.48965">
        <ele>43.8</ele>
        <time>2025-09-24T13:31:15Z</time>
      </trkpt>
      <trkpt lat="48.62035" lon="-4.48974">
        <ele>43.8</ele>
        <time>2025-09-24T13:31:16Z</time>
      </trkpt>
      <trkpt lat="48.62037" lon="-4.48991">
        <ele>43.8</ele>
        <time>2025-09-24T13:31:18Z</time>
      </trkpt>
      <trkpt lat="48.62039" lon="-4.48999">
        <ele>43.8</ele>
        <time>2025-09-24T13:31:19Z</time>
      </trkpt>
      <trkpt lat="48.62054" lon="-4.4904">
        <ele>43.2</ele>
        <time>2025-09-24T13:31:24Z</time>
      </trkpt>
      <trkpt lat="48.62057" lon="-4.49049">
        <ele>43</ele>
        <time>2025-09-24T13:31:25Z</time>
      </trkpt>
      <trkpt lat="48.62069" lon="-4.49083">
        <ele>42.6</ele>
        <time>2025-09-24T13:31:29Z</time>
      </trkpt>
      <trkpt lat="48.62078" lon="-4.49117">
        <ele>42.8</ele>
        <time>2025-09-24T13:31:33Z</time>
      </trkpt>
      <trkpt lat="48.62079" lon="-4.4915">
        <ele>43.4</ele>
        <time>2025-09-24T13:31:37Z</time>
      </trkpt>
      <trkpt lat="48.62078" lon="-4.49158">
        <ele>43.4</ele>
        <time>2025-09-24T13:31:38Z</time>
      </trkpt>
      <trkpt lat="48.62076" lon="-4.49173">
        <ele>43.2</ele>
        <time>2025-09-24T13:31:40Z</time>
      </trkpt>
      <trkpt lat="48.62075" lon="-4.49189">
        <ele>43</ele>
        <time>2025-09-24T13:31:42Z</time>
      </trkpt>
      <trkpt lat="48.62071" lon="-4.49222">
        <ele>42.6</ele>
        <time>2025-09-24T13:31:46Z</time>
      </trkpt>
      <trkpt lat="48.6207" lon="-4.49231">
        <ele>42.4</ele>
        <time>2025-09-24T13:31:47Z</time>
      </trkpt>
      <trkpt lat="48.62068" lon="-4.49249">
        <ele>42</ele>
        <time>2025-09-24T13:31:49Z</time>
      </trkpt>
      <trkpt lat="48.62064" lon="-4.49285">
        <ele>42</ele>
        <time>2025-09-24T13:31:53Z</time>
      </trkpt>
      <trkpt lat="48.62063" lon="-4.49302">
        <ele>41.6</ele>
        <time>2025-09-24T13:31:55Z</time>
      </trkpt>
      <trkpt lat="48.6206" lon="-4.49337">
        <ele>40.8</ele>
        <time>2025-09-24T13:31:59Z</time>
      </trkpt>
      <trkpt lat="48.62056" lon="-4.49382">
        <ele>40.8</ele>
        <time>2025-09-24T13:32:04Z</time>
      </trkpt>
      <trkpt lat="48.62053" lon="-4.49429">
        <ele>39.4</ele>
        <time>2025-09-24T13:32:09Z</time>
      </trkpt>
      <trkpt lat="48.62052" lon="-4.4945">
        <ele>37.8</ele>
        <time>2025-09-24T13:32:11Z</time>
      </trkpt>
      <trkpt lat="48.62051" lon="-4.49471">
        <ele>36.2</ele>
        <time>2025-09-24T13:32:13Z</time>
      </trkpt>
      <trkpt lat="48.6205" lon="-4.49493">
        <ele>35</ele>
        <time>2025-09-24T13:32:15Z</time>
      </trkpt>
      <trkpt lat="48.62049" lon="-4.49515">
        <ele>33.6</ele>
        <time>2025-09-24T13:32:17Z</time>
      </trkpt>
      <trkpt lat="48.62048" lon="-4.49538">
        <ele>32.4</ele>
        <time>2025-09-24T13:32:19Z</time>
      </trkpt>
      <trkpt lat="48.62047" lon="-4.49548">
        <ele>32</ele>
        <time>2025-09-24T13:32:20Z</time>
      </trkpt>
      <trkpt lat="48.62047" lon="-4.4956">
        <ele>31.2</ele>
        <time>2025-09-24T13:32:21Z</time>
      </trkpt>
      <trkpt lat="48.62046" lon="-4.49583">
        <ele>30</ele>
        <time>2025-09-24T13:32:23Z</time>
      </trkpt>
      <trkpt lat="48.62044" lon="-4.49607">
        <ele>28.2</ele>
        <time>2025-09-24T13:32:25Z</time>
      </trkpt>
      <trkpt lat="48.62043" lon="-4.4962">
        <ele>27.6</ele>
        <time>2025-09-24T13:32:26Z</time>
      </trkpt>
      <trkpt lat="48.62041" lon="-4.49634">
        <ele>26.4</ele>
        <time>2025-09-24T13:32:27Z</time>
      </trkpt>
      <trkpt lat="48.62036" lon="-4.49661">
        <ele>25</ele>
        <time>2025-09-24T13:32:29Z</time>
      </trkpt>
      <trkpt lat="48.6203" lon="-4.49689">
        <ele>23</ele>
        <time>2025-09-24T13:32:31Z</time>
      </trkpt>
      <trkpt lat="48.62028" lon="-4.49703">
        <ele>22.2</ele>
        <time>2025-09-24T13:32:32Z</time>
      </trkpt>
      <trkpt lat="48.62028" lon="-4.49717">
        <ele>21</ele>
        <time>2025-09-24T13:32:33Z</time>
      </trkpt>
      <trkpt lat="48.62028" lon="-4.49731">
        <ele>19.8</ele>
        <time>2025-09-24T13:32:34Z</time>
      </trkpt>
      <trkpt lat="48.6203" lon="-4.49744">
        <ele>18.8</ele>
        <time>2025-09-24T13:32:35Z</time>
      </trkpt>
      <trkpt lat="48.62031" lon="-4.49757">
        <ele>18.2</ele>
        <time>2025-09-24T13:32:36Z</time>
      </trkpt>
      <trkpt lat="48.62032" lon="-4.49769">
        <ele>17.6</ele>
        <time>2025-09-24T13:32:37Z</time>
      </trkpt>
      <trkpt lat="48.62027" lon="-4.49792">
        <ele>17.8</ele>
        <time>2025-09-24T13:32:39Z</time>
      </trkpt>
      <trkpt lat="48.62014" lon="-4.49828">
        <ele>17.4</ele>
        <time>2025-09-24T13:32:43Z</time>
      </trkpt>
      <trkpt lat="48.62014" lon="-4.49848">
        <ele>17</ele>
        <time>2025-09-24T13:32:45Z</time>
      </trkpt>
      <trkpt lat="48.62016" lon="-4.49859">
        <ele>16.4</ele>
        <time>2025-09-24T13:32:46Z</time>
      </trkpt>
      <trkpt lat="48.62018" lon="-4.4987">
        <ele>15.6</ele>
        <time>2025-09-24T13:32:47Z</time>
      </trkpt>
      <trkpt lat="48.62023" lon="-4.49894">
        <ele>14</ele>
        <time>2025-09-24T13:32:49Z</time>
      </trkpt>
      <trkpt lat="48.62027" lon="-4.4992">
        <ele>12.6</ele>
        <time>2025-09-24T13:32:51Z</time>
      </trkpt>
      <trkpt lat="48.62029" lon="-4.49933">
        <ele>12</ele>
        <time>2025-09-24T13:32:52Z</time>
      </trkpt>
      <trkpt lat="48.62031" lon="-4.49946">
        <ele>11.2</ele>
        <time>2025-09-24T13:32:53Z</time>
      </trkpt>
      <trkpt lat="48.62034" lon="-4.49959">
        <ele>10.8</ele>
        <time>2025-09-24T13:32:54Z</time>
      </trkpt>
      <trkpt lat="48.62038" lon="-4.49971">
        <ele>10.4</ele>
        <time>2025-09-24T13:32:55Z</time>
      </trkpt>
      <trkpt lat="48.62044" lon="-4.49982">
        <ele>9.8</ele>
        <time>2025-09-24T13:32:56Z</time>
      </trkpt>
      <trkpt lat="48.6205" lon="-4.49992">
        <ele>9.4</ele>
        <time>2025-09-24T13:32:57Z</time>
      </trkpt>
      <trkpt lat="48.62067" lon="-4.50023">
        <ele>8.8</ele>
        <time>2025-09-24T13:33:00Z</time>
      </trkpt>
      <trkpt lat="48.62075" lon="-4.50047">
        <ele>9.6</ele>
        <time>2025-09-24T13:33:02Z</time>
      </trkpt>
      <trkpt lat="48.62082" lon="-4.50082">
        <ele>11</ele>
        <time>2025-09-24T13:33:05Z</time>
      </trkpt>
      <trkpt lat="48.62085" lon="-4.50104">
        <ele>10</ele>
        <time>2025-09-24T13:33:07Z</time>
      </trkpt>
      <trkpt lat="48.62087" lon="-4.50116">
        <ele>9.8</ele>
        <time>2025-09-24T13:33:08Z</time>
      </trkpt>
      <trkpt lat="48.62097" lon="-4.50187">
        <ele>9.2</ele>
        <time>2025-09-24T13:33:15Z</time>
      </trkpt>
      <trkpt lat="48.62108" lon="-4.50236">
        <ele>9.2</ele>
        <time>2025-09-24T13:33:21Z</time>
      </trkpt>
      <trkpt lat="48.62122" lon="-4.50271">
        <ele>8.8</ele>
        <time>2025-09-24T13:33:26Z</time>
      </trkpt>
      <trkpt lat="48.62128" lon="-4.50283">
        <ele>8.6</ele>
        <time>2025-09-24T13:33:28Z</time>
      </trkpt>
      <trkpt lat="48.62136" lon="-4.503">
        <ele>9.8</ele>
        <time>2025-09-24T13:33:31Z</time>
      </trkpt>
      <trkpt lat="48.62147" lon="-4.50327">
        <ele>10.8</ele>
        <time>2025-09-24T13:33:36Z</time>
      </trkpt>
      <trkpt lat="48.62166" lon="-4.50375">
        <ele>10.8</ele>
        <time>2025-09-24T13:33:44Z</time>
      </trkpt>
      <trkpt lat="48.62168" lon="-4.50381">
        <ele>11</ele>
        <time>2025-09-24T13:33:45Z</time>
      </trkpt>
      <trkpt lat="48.62182" lon="-4.50422">
        <ele>10.8</ele>
        <time>2025-09-24T13:33:52Z</time>
      </trkpt>
      <trkpt lat="48.62195" lon="-4.50462">
        <ele>10</ele>
        <time>2025-09-24T13:33:58Z</time>
      </trkpt>
      <trkpt lat="48.622" lon="-4.50475">
        <ele>10</ele>
        <time>2025-09-24T13:34:00Z</time>
      </trkpt>
      <trkpt lat="48.62213" lon="-4.50522">
        <ele>10.4</ele>
        <time>2025-09-24T13:34:07Z</time>
      </trkpt>
      <trkpt lat="48.6222" lon="-4.50567">
        <ele>10.6</ele>
        <time>2025-09-24T13:34:14Z</time>
      </trkpt>
      <trkpt lat="48.62216" lon="-4.50595">
        <ele>11</ele>
        <time>2025-09-24T13:34:19Z</time>
      </trkpt>
      <trkpt lat="48.62215" lon="-4.506">
        <ele>11.2</ele>
        <time>2025-09-24T13:34:20Z</time>
      </trkpt>
      <trkpt lat="48.62206" lon="-4.50632">
        <ele>12.2</ele>
        <time>2025-09-24T13:34:27Z</time>
      </trkpt>
      <trkpt lat="48.62205" lon="-4.50636">
        <ele>12.4</ele>
        <time>2025-09-24T13:34:28Z</time>
      </trkpt>
      <trkpt lat="48.62201" lon="-4.50651">
        <ele>13.4</ele>
        <time>2025-09-24T13:34:32Z</time>
      </trkpt>
      <trkpt lat="48.62199" lon="-4.50658">
        <ele>13.8</ele>
        <time>2025-09-24T13:34:34Z</time>
      </trkpt>
      <trkpt lat="48.62196" lon="-4.50667">
        <ele>14.6</ele>
        <time>2025-09-24T13:34:37Z</time>
      </trkpt>
      <trkpt lat="48.62193" lon="-4.50685">
        <ele>15.4</ele>
        <time>2025-09-24T13:34:43Z</time>
      </trkpt>
      <trkpt lat="48.62192" lon="-4.50688">
        <ele>15.6</ele>
        <time>2025-09-24T13:34:44Z</time>
      </trkpt>
      <trkpt lat="48.62192" lon="-4.50701">
        <ele>16.6</ele>
        <time>2025-09-24T13:34:48Z</time>
      </trkpt>
      <trkpt lat="48.62194" lon="-4.50713">
        <ele>16.8</ele>
        <time>2025-09-24T13:34:52Z</time>
      </trkpt>
      <trkpt lat="48.62207" lon="-4.50729">
        <ele>16.8</ele>
        <time>2025-09-24T13:34:59Z</time>
      </trkpt>
      <trkpt lat="48.62224" lon="-4.50737">
        <ele>15.4</ele>
        <time>2025-09-24T13:35:04Z</time>
      </trkpt>
      <trkpt lat="48.62228" lon="-4.50739">
        <ele>15.2</ele>
        <time>2025-09-24T13:35:05Z</time>
      </trkpt>
      <trkpt lat="48.62236" lon="-4.50744">
        <ele>15</ele>
        <time>2025-09-24T13:35:07Z</time>
      </trkpt>
      <trkpt lat="48.62245" lon="-4.50757">
        <ele>14.8</ele>
        <time>2025-09-24T13:35:10Z</time>
      </trkpt>
      <trkpt lat="48.62251" lon="-4.50781">
        <ele>15.6</ele>
        <time>2025-09-24T13:35:15Z</time>
      </trkpt>
      <trkpt lat="48.62251" lon="-4.50804">
        <ele>15.6</ele>
        <time>2025-09-24T13:35:20Z</time>
      </trkpt>
      <trkpt lat="48.62248" lon="-4.50821">
        <ele>15.2</ele>
        <time>2025-09-24T13:35:23Z</time>
      </trkpt>
      <trkpt lat="48.62238" lon="-4.50865">
        <ele>15</ele>
        <time>2025-09-24T13:35:30Z</time>
      </trkpt>
      <trkpt lat="48.62225" lon="-4.50926">
        <ele>15.2</ele>
        <time>2025-09-24T13:35:40Z</time>
      </trkpt>
      <trkpt lat="48.62221" lon="-4.50941">
        <ele>15</ele>
        <time>2025-09-24T13:35:43Z</time>
      </trkpt>
      <trkpt lat="48.6222" lon="-4.50945">
        <ele>15.2</ele>
        <time>2025-09-24T13:35:44Z</time>
      </trkpt>
      <trkpt lat="48.62217" lon="-4.50954">
        <ele>15.4</ele>
        <time>2025-09-24T13:35:46Z</time>
      </trkpt>
      <trkpt lat="48.62215" lon="-4.50963">
        <ele>15.6</ele>
        <time>2025-09-24T13:35:48Z</time>
      </trkpt>
      <trkpt lat="48.62212" lon="-4.50972">
        <ele>15.8</ele>
        <time>2025-09-24T13:35:50Z</time>
      </trkpt>
      <trkpt lat="48.62207" lon="-4.50991">
        <ele>15.8</ele>
        <time>2025-09-24T13:35:54Z</time>
      </trkpt>
      <trkpt lat="48.62198" lon="-4.51024">
        <ele>15.8</ele>
        <time>2025-09-24T13:36:02Z</time>
      </trkpt>
      <trkpt lat="48.62195" lon="-4.51032">
        <ele>15.6</ele>
        <time>2025-09-24T13:36:04Z</time>
      </trkpt>
      <trkpt lat="48.62191" lon="-4.51047">
        <ele>15.8</ele>
        <time>2025-09-24T13:36:09Z</time>
      </trkpt>
      <trkpt lat="48.62184" lon="-4.5106">
        <ele>15.8</ele>
        <time>2025-09-24T13:36:14Z</time>
      </trkpt>
      <trkpt lat="48.62173" lon="-4.51082">
        <ele>15.2</ele>
        <time>2025-09-24T13:36:19Z</time>
      </trkpt>
      <trkpt lat="48.62169" lon="-4.51096">
        <ele>14.2</ele>
        <time>2025-09-24T13:36:21Z</time>
      </trkpt>
      <trkpt lat="48.6217" lon="-4.51115">
        <ele>12.6</ele>
        <time>2025-09-24T13:36:23Z</time>
      </trkpt>
      <trkpt lat="48.62177" lon="-4.51134">
        <ele>10.8</ele>
        <time>2025-09-24T13:36:25Z</time>
      </trkpt>
      <trkpt lat="48.62183" lon="-4.51143">
        <ele>10.4</ele>
        <time>2025-09-24T13:36:26Z</time>
      </trkpt>
      <trkpt lat="48.62188" lon="-4.51152">
        <ele>9.4</ele>
        <time>2025-09-24T13:36:27Z</time>
      </trkpt>
      <trkpt lat="48.62198" lon="-4.51173">
        <ele>7.8</ele>
        <time>2025-09-24T13:36:29Z</time>
      </trkpt>
      <trkpt lat="48.62202" lon="-4.51184">
        <ele>7.4</ele>
        <time>2025-09-24T13:36:30Z</time>
      </trkpt>
      <trkpt lat="48.62204" lon="-4.51196">
        <ele>7.2</ele>
        <time>2025-09-24T13:36:31Z</time>
      </trkpt>
      <trkpt lat="48.62205" lon="-4.51208">
        <ele>7.6</ele>
        <time>2025-09-24T13:36:32Z</time>
      </trkpt>
      <trkpt lat="48.62202" lon="-4.51229">
        <ele>8.4</ele>
        <time>2025-09-24T13:36:34Z</time>
      </trkpt>
      <trkpt lat="48.62199" lon="-4.5125">
        <ele>9</ele>
        <time>2025-09-24T13:36:36Z</time>
      </trkpt>
      <trkpt lat="48.62199" lon="-4.51259">
        <ele>9.4</ele>
        <time>2025-09-24T13:36:37Z</time>
      </trkpt>
      <trkpt lat="48.62201" lon="-4.51276">
        <ele>9.8</ele>
        <time>2025-09-24T13:36:39Z</time>
      </trkpt>
      <trkpt lat="48.62203" lon="-4.5129">
        <ele>10.2</ele>
        <time>2025-09-24T13:36:41Z</time>
      </trkpt>
      <trkpt lat="48.62208" lon="-4.51308">
        <ele>10.4</ele>
        <time>2025-09-24T13:36:44Z</time>
      </trkpt>
      <trkpt lat="48.62216" lon="-4.51344">
        <ele>11.2</ele>
        <time>2025-09-24T13:36:50Z</time>
      </trkpt>
      <trkpt lat="48.62216" lon="-4.51355">
        <ele>11.2</ele>
        <time>2025-09-24T13:36:52Z</time>
      </trkpt>
      <trkpt lat="48.62214" lon="-4.51398">
        <ele>12</ele>
        <time>2025-09-24T13:37:00Z</time>
      </trkpt>
      <trkpt lat="48.62213" lon="-4.51403">
        <ele>12.2</ele>
        <time>2025-09-24T13:37:01Z</time>
      </trkpt>
      <trkpt lat="48.62208" lon="-4.51432">
        <ele>12.2</ele>
        <time>2025-09-24T13:37:07Z</time>
      </trkpt>
      <trkpt lat="48.62207" lon="-4.51437">
        <ele>12.2</ele>
        <time>2025-09-24T13:37:08Z</time>
      </trkpt>
      <trkpt lat="48.62202" lon="-4.51453">
        <ele>12.4</ele>
        <time>2025-09-24T13:37:11Z</time>
      </trkpt>
      <trkpt lat="48.62201" lon="-4.51469">
        <ele>12.8</ele>
        <time>2025-09-24T13:37:14Z</time>
      </trkpt>
      <trkpt lat="48.62203" lon="-4.51473">
        <ele>13.2</ele>
        <time>2025-09-24T13:37:15Z</time>
      </trkpt>
      <trkpt lat="48.62206" lon="-4.51474">
        <ele>13.4</ele>
        <time>2025-09-24T13:37:16Z</time>
      </trkpt>
      <trkpt lat="48.62209" lon="-4.51473">
        <ele>13.6</ele>
        <time>2025-09-24T13:37:17Z</time>
      </trkpt>
      <trkpt lat="48.62218" lon="-4.51467">
        <ele>14.4</ele>
        <time>2025-09-24T13:37:21Z</time>
      </trkpt>
      <trkpt lat="48.62226" lon="-4.51465">
        <ele>14.6</ele>
        <time>2025-09-24T13:37:24Z</time>
      </trkpt>
      <trkpt lat="48.62242" lon="-4.51459">
        <ele>14.6</ele>
        <time>2025-09-24T13:37:30Z</time>
      </trkpt>
      <trkpt lat="48.62251" lon="-4.51461">
        <ele>15</ele>
        <time>2025-09-24T13:37:33Z</time>
      </trkpt>
      <trkpt lat="48.62258" lon="-4.51465">
        <ele>15.4</ele>
        <time>2025-09-24T13:37:36Z</time>
      </trkpt>
      <trkpt lat="48.62261" lon="-4.51467">
        <ele>15.6</ele>
        <time>2025-09-24T13:37:37Z</time>
      </trkpt>
      <trkpt lat="48.62269" lon="-4.51479">
        <ele>16.4</ele>
        <time>2025-09-24T13:37:42Z</time>
      </trkpt>
      <trkpt lat="48.62271" lon="-4.51481">
        <ele>16.6</ele>
        <time>2025-09-24T13:37:43Z</time>
      </trkpt>
      <trkpt lat="48.62278" lon="-4.51485">
        <ele>17.2</ele>
        <time>2025-09-24T13:37:47Z</time>
      </trkpt>
      <trkpt lat="48.62286" lon="-4.51482">
        <ele>17.6</ele>
        <time>2025-09-24T13:37:52Z</time>
      </trkpt>
      <trkpt lat="48.6229" lon="-4.5148">
        <ele>17.8</ele>
        <time>2025-09-24T13:37:54Z</time>
      </trkpt>
      <trkpt lat="48.62299" lon="-4.51475">
        <ele>18.8</ele>
        <time>2025-09-24T13:37:59Z</time>
      </trkpt>
      <trkpt lat="48.62308" lon="-4.5147">
        <ele>19.6</ele>
        <time>2025-09-24T13:38:04Z</time>
      </trkpt>
      <trkpt lat="48.6231" lon="-4.51469">
        <ele>19.8</ele>
        <time>2025-09-24T13:38:05Z</time>
      </trkpt>
      <trkpt lat="48.62324" lon="-4.51461">
        <ele>20.8</ele>
        <time>2025-09-24T13:38:13Z</time>
      </trkpt>
      <trkpt lat="48.62329" lon="-4.51457">
        <ele>21</ele>
        <time>2025-09-24T13:38:16Z</time>
      </trkpt>
      <trkpt lat="48.62338" lon="-4.5145">
        <ele>21.4</ele>
        <time>2025-09-24T13:38:22Z</time>
      </trkpt>
      <trkpt lat="48.6234" lon="-4.51448">
        <ele>21.4</ele>
        <time>2025-09-24T13:38:23Z</time>
      </trkpt>
      <trkpt lat="48.62355" lon="-4.51436">
        <ele>19.6</ele>
        <time>2025-09-24T13:38:28Z</time>
      </trkpt>
      <trkpt lat="48.62373" lon="-4.51423">
        <ele>19.4</ele>
        <time>2025-09-24T13:38:33Z</time>
      </trkpt>
      <trkpt lat="48.62392" lon="-4.51406">
        <ele>18.6</ele>
        <time>2025-09-24T13:38:38Z</time>
      </trkpt>
      <trkpt lat="48.62395" lon="-4.51404">
        <ele>18.6</ele>
        <time>2025-09-24T13:38:39Z</time>
      </trkpt>
      <trkpt lat="48.62406" lon="-4.51395">
        <ele>19</ele>
        <time>2025-09-24T13:38:42Z</time>
      </trkpt>
      <trkpt lat="48.62409" lon="-4.51394">
        <ele>19.2</ele>
        <time>2025-09-24T13:38:43Z</time>
      </trkpt>
      <trkpt lat="48.62413" lon="-4.51393">
        <ele>19.2</ele>
        <time>2025-09-24T13:38:44Z</time>
      </trkpt>
      <trkpt lat="48.62424" lon="-4.51392">
        <ele>19.2</ele>
        <time>2025-09-24T13:38:47Z</time>
      </trkpt>
      <trkpt lat="48.62432" lon="-4.51393">
        <ele>19.2</ele>
        <time>2025-09-24T13:38:49Z</time>
      </trkpt>
      <trkpt lat="48.62436" lon="-4.51395">
        <ele>19.2</ele>
        <time>2025-09-24T13:38:50Z</time>
      </trkpt>
      <trkpt lat="48.62443" lon="-4.514">
        <ele>18.8</ele>
        <time>2025-09-24T13:38:52Z</time>
      </trkpt>
      <trkpt lat="48.6245" lon="-4.51405">
        <ele>18.8</ele>
        <time>2025-09-24T13:38:54Z</time>
      </trkpt>
      <trkpt lat="48.62455" lon="-4.51406">
        <ele>19.2</ele>
        <time>2025-09-24T13:38:56Z</time>
      </trkpt>
      <trkpt lat="48.6246" lon="-4.51407">
        <ele>19.8</ele>
        <time>2025-09-24T13:38:58Z</time>
      </trkpt>
      <trkpt lat="48.62462" lon="-4.51406">
        <ele>20</ele>
        <time>2025-09-24T13:38:59Z</time>
      </trkpt>
      <trkpt lat="48.62481" lon="-4.51403">
        <ele>20.8</ele>
        <time>2025-09-24T13:39:08Z</time>
      </trkpt>
      <trkpt lat="48.62483" lon="-4.51404">
        <ele>21</ele>
        <time>2025-09-24T13:39:09Z</time>
      </trkpt>
      <trkpt lat="48.625" lon="-4.51408">
        <ele>21.6</ele>
        <time>2025-09-24T13:39:17Z</time>
      </trkpt>
      <trkpt lat="48.62504" lon="-4.51407">
        <ele>22</ele>
        <time>2025-09-24T13:39:19Z</time>
      </trkpt>
      <trkpt lat="48.62514" lon="-4.51401">
        <ele>22.8</ele>
        <time>2025-09-24T13:39:24Z</time>
      </trkpt>
      <trkpt lat="48.62523" lon="-4.51397">
        <ele>23</ele>
        <time>2025-09-24T13:39:28Z</time>
      </trkpt>
      <trkpt lat="48.6253" lon="-4.51396">
        <ele>23.2</ele>
        <time>2025-09-24T13:39:31Z</time>
      </trkpt>
      <trkpt lat="48.62545" lon="-4.51392">
        <ele>24</ele>
        <time>2025-09-24T13:39:37Z</time>
      </trkpt>
      <trkpt lat="48.62547" lon="-4.51391">
        <ele>24.4</ele>
        <time>2025-09-24T13:39:38Z</time>
      </trkpt>
      <trkpt lat="48.6256" lon="-4.51387">
        <ele>24</ele>
        <time>2025-09-24T13:39:43Z</time>
      </trkpt>
      <trkpt lat="48.62574" lon="-4.51387">
        <ele>23.2</ele>
        <time>2025-09-24T13:39:47Z</time>
      </trkpt>
      <trkpt lat="48.62581" lon="-4.51388">
        <ele>23</ele>
        <time>2025-09-24T13:39:49Z</time>
      </trkpt>
      <trkpt lat="48.62603" lon="-4.51387">
        <ele>23</ele>
        <time>2025-09-24T13:39:56Z</time>
      </trkpt>
      <trkpt lat="48.62623" lon="-4.51384">
        <ele>22.8</ele>
        <time>2025-09-24T13:40:02Z</time>
      </trkpt>
      <trkpt lat="48.62632" lon="-4.51385">
        <ele>22.6</ele>
        <time>2025-09-24T13:40:05Z</time>
      </trkpt>
      <trkpt lat="48.62634" lon="-4.51383">
        <ele>22.4</ele>
        <time>2025-09-24T13:40:07Z</time>
      </trkpt>
      <trkpt lat="48.62636" lon="-4.51381">
        <ele>22.4</ele>
        <time>2025-09-24T13:40:11Z</time>
      </trkpt>
      <trkpt lat="48.62637" lon="-4.51381">
        <ele>22.2</ele>
        <time>2025-09-24T13:40:13Z</time>
      </trkpt>
      <trkpt lat="48.62638" lon="-4.5138">
        <ele>22.2</ele>
        <time>2025-09-24T13:40:14Z</time>
      </trkpt>
      <trkpt lat="48.62644" lon="-4.51377">
        <ele>22.2</ele>
        <time>2025-09-24T13:40:17Z</time>
      </trkpt>
      <trkpt lat="48.62647" lon="-4.51376">
        <ele>22.4</ele>
        <time>2025-09-24T13:40:18Z</time>
      </trkpt>
      <trkpt lat="48.62657" lon="-4.51367">
        <ele>21.2</ele>
        <time>2025-09-24T13:40:21Z</time>
      </trkpt>
      <trkpt lat="48.62661" lon="-4.51363">
        <ele>20.4</ele>
        <time>2025-09-24T13:40:22Z</time>
      </trkpt>
      <trkpt lat="48.62666" lon="-4.51361">
        <ele>19.6</ele>
        <time>2025-09-24T13:40:23Z</time>
      </trkpt>
      <trkpt lat="48.62671" lon="-4.51357">
        <ele>19.2</ele>
        <time>2025-09-24T13:40:24Z</time>
      </trkpt>
      <trkpt lat="48.62682" lon="-4.51351">
        <ele>18</ele>
        <time>2025-09-24T13:40:26Z</time>
      </trkpt>
      <trkpt lat="48.62688" lon="-4.51348">
        <ele>17</ele>
        <time>2025-09-24T13:40:27Z</time>
      </trkpt>
      <trkpt lat="48.62695" lon="-4.51347">
        <ele>16.4</ele>
        <time>2025-09-24T13:40:28Z</time>
      </trkpt>
      <trkpt lat="48.62702" lon="-4.51347">
        <ele>15.2</ele>
        <time>2025-09-24T13:40:29Z</time>
      </trkpt>
      <trkpt lat="48.62709" lon="-4.51348">
        <ele>15</ele>
        <time>2025-09-24T13:40:30Z</time>
      </trkpt>
      <trkpt lat="48.62716" lon="-4.51348">
        <ele>14.2</ele>
        <time>2025-09-24T13:40:31Z</time>
      </trkpt>
      <trkpt lat="48.62732" lon="-4.51349">
        <ele>12.6</ele>
        <time>2025-09-24T13:40:33Z</time>
      </trkpt>
      <trkpt lat="48.62747" lon="-4.5135">
        <ele>11.2</ele>
        <time>2025-09-24T13:40:35Z</time>
      </trkpt>
      <trkpt lat="48.6276" lon="-4.51351">
        <ele>10.4</ele>
        <time>2025-09-24T13:40:37Z</time>
      </trkpt>
      <trkpt lat="48.62781" lon="-4.51353">
        <ele>10.6</ele>
        <time>2025-09-24T13:40:41Z</time>
      </trkpt>
      <trkpt lat="48.62796" lon="-4.51354">
        <ele>10.4</ele>
        <time>2025-09-24T13:40:45Z</time>
      </trkpt>
      <trkpt lat="48.62807" lon="-4.51354">
        <ele>10.2</ele>
        <time>2025-09-24T13:40:48Z</time>
      </trkpt>
      <trkpt lat="48.62811" lon="-4.51354">
        <ele>10.2</ele>
        <time>2025-09-24T13:40:49Z</time>
      </trkpt>
      <trkpt lat="48.62823" lon="-4.51354">
        <ele>9.4</ele>
        <time>2025-09-24T13:40:52Z</time>
      </trkpt>
      <trkpt lat="48.62834" lon="-4.51348">
        <ele>9.2</ele>
        <time>2025-09-24T13:40:56Z</time>
      </trkpt>
      <trkpt lat="48.62845" lon="-4.51342">
        <ele>9</ele>
        <time>2025-09-24T13:41:00Z</time>
      </trkpt>
      <trkpt lat="48.62848" lon="-4.51342">
        <ele>9</ele>
        <time>2025-09-24T13:41:01Z</time>
      </trkpt>
      <trkpt lat="48.62879" lon="-4.51341">
        <ele>9.2</ele>
        <time>2025-09-24T13:41:10Z</time>
      </trkpt>
      <trkpt lat="48.62898" lon="-4.51333">
        <ele>8.8</ele>
        <time>2025-09-24T13:41:16Z</time>
      </trkpt>
      <trkpt lat="48.629" lon="-4.51312">
        <ele>8.2</ele>
        <time>2025-09-24T13:41:20Z</time>
      </trkpt>
      <trkpt lat="48.629" lon="-4.51302">
        <ele>8</ele>
        <time>2025-09-24T13:41:22Z</time>
      </trkpt>
      <trkpt lat="48.62899" lon="-4.51265">
        <ele>7.8</ele>
        <time>2025-09-24T13:41:30Z</time>
      </trkpt>
      <trkpt lat="48.62901" lon="-4.51252">
        <ele>8.6</ele>
        <time>2025-09-24T13:41:35Z</time>
      </trkpt>
      <trkpt lat="48.62908" lon="-4.51243">
        <ele>8.8</ele>
        <time>2025-09-24T13:41:41Z</time>
      </trkpt>
      <trkpt lat="48.62908" lon="-4.51242">
        <ele>9.2</ele>
        <time>2025-09-24T13:41:44Z</time>
      </trkpt>
      <trkpt lat="48.6291" lon="-4.51242">
        <ele>9.2</ele>
        <time>2025-09-24T13:42:13Z</time>
      </trkpt>
      <trkpt lat="48.62911" lon="-4.51242">
        <ele>9.4</ele>
        <time>2025-09-24T13:42:14Z</time>
      </trkpt>
      <trkpt lat="48.62913" lon="-4.51246">
        <ele>9.4</ele>
        <time>2025-09-24T13:42:16Z</time>
      </trkpt>
      <trkpt lat="48.62913" lon="-4.51253">
        <ele>9.2</ele>
        <time>2025-09-24T13:42:19Z</time>
      </trkpt>
      <trkpt lat="48.62913" lon="-4.51262">
        <ele>9.2</ele>
        <time>2025-09-24T13:42:22Z</time>
      </trkpt>
      <trkpt lat="48.62913" lon="-4.51273">
        <ele>9.2</ele>
        <time>2025-09-24T13:42:25Z</time>
      </trkpt>
      <trkpt lat="48.62912" lon="-4.51303">
        <ele>9</ele>
        <time>2025-09-24T13:42:32Z</time>
      </trkpt>
      <trkpt lat="48.62911" lon="-4.51339">
        <ele>9</ele>
        <time>2025-09-24T13:42:40Z</time>
      </trkpt>
      <trkpt lat="48.62914" lon="-4.51349">
        <ele>9</ele>
        <time>2025-09-24T13:42:44Z</time>
      </trkpt>
      <trkpt lat="48.62924" lon="-4.51354">
        <ele>8.6</ele>
        <time>2025-09-24T13:42:48Z</time>
      </trkpt>
      <trkpt lat="48.6293" lon="-4.51354">
        <ele>8</ele>
        <time>2025-09-24T13:42:50Z</time>
      </trkpt>
      <trkpt lat="48.62947" lon="-4.51353">
        <ele>8.8</ele>
        <time>2025-09-24T13:42:55Z</time>
      </trkpt>
      <trkpt lat="48.6297" lon="-4.5136">
        <ele>8.8</ele>
        <time>2025-09-24T13:43:02Z</time>
      </trkpt>
      <trkpt lat="48.62992" lon="-4.51365">
        <ele>8.8</ele>
        <time>2025-09-24T13:43:09Z</time>
      </trkpt>
      <trkpt lat="48.63004" lon="-4.51367">
        <ele>9.2</ele>
        <time>2025-09-24T13:43:13Z</time>
      </trkpt>
      <trkpt lat="48.63013" lon="-4.51372">
        <ele>9.4</ele>
        <time>2025-09-24T13:43:16Z</time>
      </trkpt>
      <trkpt lat="48.6303" lon="-4.51384">
        <ele>10</ele>
        <time>2025-09-24T13:43:22Z</time>
      </trkpt>
      <trkpt lat="48.63037" lon="-4.51388">
        <ele>10.2</ele>
        <time>2025-09-24T13:43:25Z</time>
      </trkpt>
      <trkpt lat="48.63042" lon="-4.5139">
        <ele>10.8</ele>
        <time>2025-09-24T13:43:27Z</time>
      </trkpt>
      <trkpt lat="48.63047" lon="-4.51394">
        <ele>11.4</ele>
        <time>2025-09-24T13:43:29Z</time>
      </trkpt>
      <trkpt lat="48.63049" lon="-4.51396">
        <ele>11.6</ele>
        <time>2025-09-24T13:43:30Z</time>
      </trkpt>
      <trkpt lat="48.63056" lon="-4.5141">
        <ele>11.6</ele>
        <time>2025-09-24T13:43:34Z</time>
      </trkpt>
      <trkpt lat="48.63065" lon="-4.51435">
        <ele>12.4</ele>
        <time>2025-09-24T13:43:41Z</time>
      </trkpt>
      <trkpt lat="48.63074" lon="-4.51465">
        <ele>11.4</ele>
        <time>2025-09-24T13:43:47Z</time>
      </trkpt>
      <trkpt lat="48.63082" lon="-4.51491">
        <ele>11.2</ele>
        <time>2025-09-24T13:43:52Z</time>
      </trkpt>
      <trkpt lat="48.63083" lon="-4.51495">
        <ele>11.2</ele>
        <time>2025-09-24T13:43:53Z</time>
      </trkpt>
      <trkpt lat="48.63088" lon="-4.51526">
        <ele>12</ele>
        <time>2025-09-24T13:44:00Z</time>
      </trkpt>
      <trkpt lat="48.6309" lon="-4.51537">
        <ele>12.2</ele>
        <time>2025-09-24T13:44:02Z</time>
      </trkpt>
      <trkpt lat="48.63092" lon="-4.5155">
        <ele>12.6</ele>
        <time>2025-09-24T13:44:05Z</time>
      </trkpt>
      <trkpt lat="48.63093" lon="-4.51562">
        <ele>13</ele>
        <time>2025-09-24T13:44:08Z</time>
      </trkpt>
      <trkpt lat="48.63097" lon="-4.51584">
        <ele>13.6</ele>
        <time>2025-09-24T13:44:14Z</time>
      </trkpt>
      <trkpt lat="48.63098" lon="-4.51591">
        <ele>13.8</ele>
        <time>2025-09-24T13:44:16Z</time>
      </trkpt>
      <trkpt lat="48.63103" lon="-4.51625">
        <ele>13.6</ele>
        <time>2025-09-24T13:44:25Z</time>
      </trkpt>
      <trkpt lat="48.63107" lon="-4.51652">
        <ele>13.2</ele>
        <time>2025-09-24T13:44:31Z</time>
      </trkpt>
      <trkpt lat="48.63109" lon="-4.51655">
        <ele>13.2</ele>
        <time>2025-09-24T13:44:32Z</time>
      </trkpt>
      <trkpt lat="48.6312" lon="-4.51661">
        <ele>13.2</ele>
        <time>2025-09-24T13:44:36Z</time>
      </trkpt>
      <trkpt lat="48.63137" lon="-4.51661">
        <ele>13.4</ele>
        <time>2025-09-24T13:44:43Z</time>
      </trkpt>
      <trkpt lat="48.63155" lon="-4.51658">
        <ele>14</ele>
        <time>2025-09-24T13:44:50Z</time>
      </trkpt>
      <trkpt lat="48.63159" lon="-4.51658">
        <ele>14.6</ele>
        <time>2025-09-24T13:44:52Z</time>
      </trkpt>
      <trkpt lat="48.63162" lon="-4.51657">
        <ele>14.6</ele>
        <time>2025-09-24T13:44:53Z</time>
      </trkpt>
      <trkpt lat="48.63176" lon="-4.51655">
        <ele>15.2</ele>
        <time>2025-09-24T13:44:59Z</time>
      </trkpt>
      <trkpt lat="48.6319" lon="-4.5165">
        <ele>15.8</ele>
        <time>2025-09-24T13:45:05Z</time>
      </trkpt>
      <trkpt lat="48.63193" lon="-4.5165">
        <ele>16</ele>
        <time>2025-09-24T13:45:06Z</time>
      </trkpt>
      <trkpt lat="48.6321" lon="-4.51657">
        <ele>16</ele>
        <time>2025-09-24T13:45:13Z</time>
      </trkpt>
      <trkpt lat="48.6322" lon="-4.51676">
        <ele>16.6</ele>
        <time>2025-09-24T13:45:19Z</time>
      </trkpt>
      <trkpt lat="48.63228" lon="-4.51696">
        <ele>16.6</ele>
        <time>2025-09-24T13:45:25Z</time>
      </trkpt>
      <trkpt lat="48.63243" lon="-4.51728">
        <ele>16</ele>
        <time>2025-09-24T13:45:34Z</time>
      </trkpt>
      <trkpt lat="48.63258" lon="-4.51757">
        <ele>16</ele>
        <time>2025-09-24T13:45:42Z</time>
      </trkpt>
      <trkpt lat="48.63268" lon="-4.51775">
        <ele>16.4</ele>
        <time>2025-09-24T13:45:48Z</time>
      </trkpt>
      <trkpt lat="48.63271" lon="-4.51782">
        <ele>16.4</ele>
        <time>2025-09-24T13:45:50Z</time>
      </trkpt>
      <trkpt lat="48.63282" lon="-4.51806">
        <ele>16.8</ele>
        <time>2025-09-24T13:45:58Z</time>
      </trkpt>
      <trkpt lat="48.63283" lon="-4.51808">
        <ele>16.8</ele>
        <time>2025-09-24T13:45:59Z</time>
      </trkpt>
      <trkpt lat="48.63287" lon="-4.51807">
        <ele>17</ele>
        <time>2025-09-24T13:46:04Z</time>
      </trkpt>
      <trkpt lat="48.63286" lon="-4.51807">
        <ele>16.8</ele>
        <time>2025-09-24T13:46:06Z</time>
      </trkpt>
      <trkpt lat="48.63287" lon="-4.51806">
        <ele>16.8</ele>
        <time>2025-09-24T13:46:09Z</time>
      </trkpt>
      <trkpt lat="48.63288" lon="-4.51805">
        <ele>17</ele>
        <time>2025-09-24T13:46:12Z</time>
      </trkpt>
      <trkpt lat="48.63287" lon="-4.51798">
        <ele>16.4</ele>
        <time>2025-09-24T13:46:19Z</time>
      </trkpt>
      <trkpt lat="48.63288" lon="-4.51797">
        <ele>16</ele>
        <time>2025-09-24T13:46:21Z</time>
      </trkpt>
      <trkpt lat="48.6329" lon="-4.51796">
        <ele>17.2</ele>
        <time>2025-09-24T13:47:13Z</time>
      </trkpt>
      <trkpt lat="48.63291" lon="-4.51795">
        <ele>17.2</ele>
        <time>2025-09-24T13:47:14Z</time>
      </trkpt>
      <trkpt lat="48.63292" lon="-4.51794">
        <ele>17.4</ele>
        <time>2025-09-24T13:47:16Z</time>
      </trkpt>
      <trkpt lat="48.63294" lon="-4.51792">
        <ele>18</ele>
        <time>2025-09-24T13:47:18Z</time>
      </trkpt>
      <trkpt lat="48.63299" lon="-4.51788">
        <ele>18.2</ele>
        <time>2025-09-24T13:47:24Z</time>
      </trkpt>
      <trkpt lat="48.63301" lon="-4.51785">
        <ele>18.6</ele>
        <time>2025-09-24T13:47:30Z</time>
      </trkpt>
      <trkpt lat="48.63302" lon="-4.51784">
        <ele>18.6</ele>
        <time>2025-09-24T13:47:39Z</time>
      </trkpt>
      <trkpt lat="48.63303" lon="-4.51783">
        <ele>18.6</ele>
        <time>2025-09-24T13:47:40Z</time>
      </trkpt>
      <trkpt lat="48.63305" lon="-4.51779">
        <ele>18.4</ele>
        <time>2025-09-24T13:47:47Z</time>
      </trkpt>
      <trkpt lat="48.63305" lon="-4.51781">
        <ele>17.6</ele>
        <time>2025-09-24T13:54:37Z</time>
      </trkpt>
      <trkpt lat="48.63305" lon="-4.51782">
        <ele>17.6</ele>
        <time>2025-09-24T13:54:38Z</time>
      </trkpt>
      <trkpt lat="48.63304" lon="-4.51782">
        <ele>17.6</ele>
        <time>2025-09-24T13:54:40Z</time>
      </trkpt>
      <trkpt lat="48.63304" lon="-4.51782">
        <ele>17.6</ele>
        <time>2025-09-24T13:54:41Z</time>
      </trkpt>
      <trkpt lat="48.63301" lon="-4.51784">
        <ele>17.6</ele>
        <time>2025-09-24T13:55:05Z</time>
      </trkpt>
      <trkpt lat="48.633" lon="-4.51784">
        <ele>17.6</ele>
        <time>2025-09-24T13:55:06Z</time>
      </trkpt>
      <trkpt lat="48.63296" lon="-4.51785">
        <ele>17.6</ele>
        <time>2025-09-24T13:55:10Z</time>
      </trkpt>
      <trkpt lat="48.63293" lon="-4.51787">
        <ele>17.6</ele>
        <time>2025-09-24T13:55:14Z</time>
      </trkpt>
      <trkpt lat="48.63292" lon="-4.51788">
        <ele>17.6</ele>
        <time>2025-09-24T13:55:17Z</time>
      </trkpt>
      <trkpt lat="48.63291" lon="-4.51791">
        <ele>17.2</ele>
        <time>2025-09-24T13:55:19Z</time>
      </trkpt>
      <trkpt lat="48.6329" lon="-4.51793">
        <ele>17</ele>
        <time>2025-09-24T13:55:20Z</time>
      </trkpt>
      <trkpt lat="48.63286" lon="-4.51807">
        <ele>16.2</ele>
        <time>2025-09-24T13:55:25Z</time>
      </trkpt>
      <trkpt lat="48.63288" lon="-4.51815">
        <ele>15.8</ele>
        <time>2025-09-24T13:55:27Z</time>
      </trkpt>
      <trkpt lat="48.6329" lon="-4.51821">
        <ele>15.8</ele>
        <time>2025-09-24T13:55:29Z</time>
      </trkpt>
      <trkpt lat="48.63297" lon="-4.51847">
        <ele>16</ele>
        <time>2025-09-24T13:55:37Z</time>
      </trkpt>
      <trkpt lat="48.633" lon="-4.51857">
        <ele>16.2</ele>
        <time>2025-09-24T13:55:40Z</time>
      </trkpt>
      <trkpt lat="48.63304" lon="-4.51878">
        <ele>16.2</ele>
        <time>2025-09-24T13:55:46Z</time>
      </trkpt>
      <trkpt lat="48.63307" lon="-4.51907">
        <ele>15.2</ele>
        <time>2025-09-24T13:55:52Z</time>
      </trkpt>
      <trkpt lat="48.63304" lon="-4.51941">
        <ele>14.8</ele>
        <time>2025-09-24T13:55:59Z</time>
      </trkpt>
      <trkpt lat="48.633" lon="-4.51949">
        <ele>14.8</ele>
        <time>2025-09-24T13:56:01Z</time>
      </trkpt>
      <trkpt lat="48.63293" lon="-4.51954">
        <ele>14.6</ele>
        <time>2025-09-24T13:56:03Z</time>
      </trkpt>
      <trkpt lat="48.63269" lon="-4.51964">
        <ele>14</ele>
        <time>2025-09-24T13:56:09Z</time>
      </trkpt>
      <trkpt lat="48.63238" lon="-4.51972">
        <ele>14</ele>
        <time>2025-09-24T13:56:16Z</time>
      </trkpt>
      <trkpt lat="48.63234" lon="-4.51973">
        <ele>14</ele>
        <time>2025-09-24T13:56:17Z</time>
      </trkpt>
      <trkpt lat="48.63201" lon="-4.51985">
        <ele>13.8</ele>
        <time>2025-09-24T13:56:26Z</time>
      </trkpt>
      <trkpt lat="48.63162" lon="-4.51997">
        <ele>13</ele>
        <time>2025-09-24T13:56:35Z</time>
      </trkpt>
      <trkpt lat="48.63133" lon="-4.52008">
        <ele>12.8</ele>
        <time>2025-09-24T13:56:42Z</time>
      </trkpt>
      <trkpt lat="48.63122" lon="-4.52014">
        <ele>13.2</ele>
        <time>2025-09-24T13:56:45Z</time>
      </trkpt>
      <trkpt lat="48.63109" lon="-4.52024">
        <ele>13.4</ele>
        <time>2025-09-24T13:56:49Z</time>
      </trkpt>
      <trkpt lat="48.63094" lon="-4.52033">
        <ele>13.8</ele>
        <time>2025-09-24T13:56:54Z</time>
      </trkpt>
      <trkpt lat="48.63084" lon="-4.52036">
        <ele>14.2</ele>
        <time>2025-09-24T13:56:57Z</time>
      </trkpt>
      <trkpt lat="48.63056" lon="-4.52037">
        <ele>14.6</ele>
        <time>2025-09-24T13:57:05Z</time>
      </trkpt>
      <trkpt lat="48.63049" lon="-4.5204">
        <ele>14.6</ele>
        <time>2025-09-24T13:57:08Z</time>
      </trkpt>
      <trkpt lat="48.63048" lon="-4.52043">
        <ele>14.6</ele>
        <time>2025-09-24T13:57:09Z</time>
      </trkpt>
      <trkpt lat="48.63048" lon="-4.52051">
        <ele>14.8</ele>
        <time>2025-09-24T13:57:11Z</time>
      </trkpt>
      <trkpt lat="48.63047" lon="-4.52065">
        <ele>15</ele>
        <time>2025-09-24T13:57:14Z</time>
      </trkpt>
      <trkpt lat="48.63043" lon="-4.52094">
        <ele>15.4</ele>
        <time>2025-09-24T13:57:20Z</time>
      </trkpt>
      <trkpt lat="48.63041" lon="-4.52108">
        <ele>15.8</ele>
        <time>2025-09-24T13:57:23Z</time>
      </trkpt>
      <trkpt lat="48.6304" lon="-4.52117">
        <ele>16</ele>
        <time>2025-09-24T13:57:25Z</time>
      </trkpt>
      <trkpt lat="48.63034" lon="-4.52154">
        <ele>16.8</ele>
        <time>2025-09-24T13:57:34Z</time>
      </trkpt>
      <trkpt lat="48.63031" lon="-4.52169">
        <ele>17</ele>
        <time>2025-09-24T13:57:38Z</time>
      </trkpt>
      <trkpt lat="48.63028" lon="-4.52184">
        <ele>17.2</ele>
        <time>2025-09-24T13:57:42Z</time>
      </trkpt>
      <trkpt lat="48.63027" lon="-4.52195">
        <ele>17.6</ele>
        <time>2025-09-24T13:57:45Z</time>
      </trkpt>
      <trkpt lat="48.63021" lon="-4.52237">
        <ele>18</ele>
        <time>2025-09-24T13:57:55Z</time>
      </trkpt>
      <trkpt lat="48.63021" lon="-4.52241">
        <ele>18</ele>
        <time>2025-09-24T13:57:56Z</time>
      </trkpt>
      <trkpt lat="48.63023" lon="-4.52273">
        <ele>18</ele>
        <time>2025-09-24T13:58:03Z</time>
      </trkpt>
      <trkpt lat="48.6303" lon="-4.52318">
        <ele>19</ele>
        <time>2025-09-24T13:58:13Z</time>
      </trkpt>
      <trkpt lat="48.63031" lon="-4.52322">
        <ele>19</ele>
        <time>2025-09-24T13:58:14Z</time>
      </trkpt>
      <trkpt lat="48.63033" lon="-4.52339">
        <ele>19</ele>
        <time>2025-09-24T13:58:18Z</time>
      </trkpt>
      <trkpt lat="48.63034" lon="-4.52348">
        <ele>19.2</ele>
        <time>2025-09-24T13:58:20Z</time>
      </trkpt>
      <trkpt lat="48.63034" lon="-4.52361">
        <ele>19</ele>
        <time>2025-09-24T13:58:23Z</time>
      </trkpt>
      <trkpt lat="48.63034" lon="-4.52396">
        <ele>18</ele>
        <time>2025-09-24T13:58:30Z</time>
      </trkpt>
      <trkpt lat="48.63034" lon="-4.52403">
        <ele>17.8</ele>
        <time>2025-09-24T13:58:31Z</time>
      </trkpt>
      <trkpt lat="48.63033" lon="-4.52429">
        <ele>17</ele>
        <time>2025-09-24T13:58:35Z</time>
      </trkpt>
      <trkpt lat="48.63032" lon="-4.52443">
        <ele>16.2</ele>
        <time>2025-09-24T13:58:37Z</time>
      </trkpt>
      <trkpt lat="48.63032" lon="-4.52451">
        <ele>16</ele>
        <time>2025-09-24T13:58:38Z</time>
      </trkpt>
      <trkpt lat="48.63028" lon="-4.52475">
        <ele>14.8</ele>
        <time>2025-09-24T13:58:41Z</time>
      </trkpt>
      <trkpt lat="48.63025" lon="-4.52492">
        <ele>14.2</ele>
        <time>2025-09-24T13:58:43Z</time>
      </trkpt>
      <trkpt lat="48.63021" lon="-4.5251">
        <ele>13.6</ele>
        <time>2025-09-24T13:58:45Z</time>
      </trkpt>
      <trkpt lat="48.63013" lon="-4.52539">
        <ele>12.4</ele>
        <time>2025-09-24T13:58:48Z</time>
      </trkpt>
      <trkpt lat="48.6301" lon="-4.52549">
        <ele>12</ele>
        <time>2025-09-24T13:58:49Z</time>
      </trkpt>
      <trkpt lat="48.63004" lon="-4.52566">
        <ele>11.6</ele>
        <time>2025-09-24T13:58:51Z</time>
      </trkpt>
      <trkpt lat="48.63" lon="-4.52574">
        <ele>11.2</ele>
        <time>2025-09-24T13:58:52Z</time>
      </trkpt>
      <trkpt lat="48.62995" lon="-4.52581">
        <ele>11</ele>
        <time>2025-09-24T13:58:53Z</time>
      </trkpt>
      <trkpt lat="48.6299" lon="-4.52588">
        <ele>11</ele>
        <time>2025-09-24T13:58:54Z</time>
      </trkpt>
      <trkpt lat="48.62984" lon="-4.52593">
        <ele>10.8</ele>
        <time>2025-09-24T13:58:55Z</time>
      </trkpt>
      <trkpt lat="48.62972" lon="-4.52603">
        <ele>10.2</ele>
        <time>2025-09-24T13:58:57Z</time>
      </trkpt>
      <trkpt lat="48.62961" lon="-4.52612">
        <ele>10.2</ele>
        <time>2025-09-24T13:58:59Z</time>
      </trkpt>
      <trkpt lat="48.62907" lon="-4.5265">
        <ele>9.4</ele>
        <time>2025-09-24T13:59:08Z</time>
      </trkpt>
      <trkpt lat="48.62901" lon="-4.52654">
        <ele>9.4</ele>
        <time>2025-09-24T13:59:09Z</time>
      </trkpt>
      <trkpt lat="48.62895" lon="-4.52659">
        <ele>9.4</ele>
        <time>2025-09-24T13:59:10Z</time>
      </trkpt>
      <trkpt lat="48.6289" lon="-4.52663">
        <ele>9.6</ele>
        <time>2025-09-24T13:59:11Z</time>
      </trkpt>
      <trkpt lat="48.62873" lon="-4.52676">
        <ele>9.6</ele>
        <time>2025-09-24T13:59:14Z</time>
      </trkpt>
      <trkpt lat="48.62861" lon="-4.52684">
        <ele>9.4</ele>
        <time>2025-09-24T13:59:16Z</time>
      </trkpt>
      <trkpt lat="48.62849" lon="-4.52693">
        <ele>9.2</ele>
        <time>2025-09-24T13:59:18Z</time>
      </trkpt>
      <trkpt lat="48.62844" lon="-4.52698">
        <ele>9.2</ele>
        <time>2025-09-24T13:59:19Z</time>
      </trkpt>
      <trkpt lat="48.62839" lon="-4.52705">
        <ele>9</ele>
        <time>2025-09-24T13:59:20Z</time>
      </trkpt>
      <trkpt lat="48.62835" lon="-4.52713">
        <ele>9</ele>
        <time>2025-09-24T13:59:21Z</time>
      </trkpt>
      <trkpt lat="48.62831" lon="-4.52732">
        <ele>9</ele>
        <time>2025-09-24T13:59:23Z</time>
      </trkpt>
      <trkpt lat="48.62832" lon="-4.52741">
        <ele>8.8</ele>
        <time>2025-09-24T13:59:24Z</time>
      </trkpt>
      <trkpt lat="48.62833" lon="-4.5275">
        <ele>8.6</ele>
        <time>2025-09-24T13:59:25Z</time>
      </trkpt>
      <trkpt lat="48.62836" lon="-4.52768">
        <ele>8.2</ele>
        <time>2025-09-24T13:59:27Z</time>
      </trkpt>
      <trkpt lat="48.62839" lon="-4.52786">
        <ele>8.2</ele>
        <time>2025-09-24T13:59:29Z</time>
      </trkpt>
      <trkpt lat="48.62847" lon="-4.52827">
        <ele>8.4</ele>
        <time>2025-09-24T13:59:34Z</time>
      </trkpt>
      <trkpt lat="48.62849" lon="-4.5285">
        <ele>8.6</ele>
        <time>2025-09-24T13:59:37Z</time>
      </trkpt>
      <trkpt lat="48.62847" lon="-4.52902">
        <ele>8.6</ele>
        <time>2025-09-24T13:59:44Z</time>
      </trkpt>
      <trkpt lat="48.6284" lon="-4.52978">
        <ele>8.4</ele>
        <time>2025-09-24T13:59:54Z</time>
      </trkpt>
      <trkpt lat="48.6284" lon="-4.52985">
        <ele>8.4</ele>
        <time>2025-09-24T13:59:55Z</time>
      </trkpt>
      <trkpt lat="48.62831" lon="-4.53057">
        <ele>8.4</ele>
        <time>2025-09-24T14:00:05Z</time>
      </trkpt>
      <trkpt lat="48.62821" lon="-4.5311">
        <ele>8.6</ele>
        <time>2025-09-24T14:00:13Z</time>
      </trkpt>
      <trkpt lat="48.62816" lon="-4.53129">
        <ele>9</ele>
        <time>2025-09-24T14:00:16Z</time>
      </trkpt>
      <trkpt lat="48.62803" lon="-4.53187">
        <ele>8.6</ele>
        <time>2025-09-24T14:00:25Z</time>
      </trkpt>
      <trkpt lat="48.62802" lon="-4.53193">
        <ele>9</ele>
        <time>2025-09-24T14:00:26Z</time>
      </trkpt>
      <trkpt lat="48.628" lon="-4.532">
        <ele>9.4</ele>
        <time>2025-09-24T14:00:27Z</time>
      </trkpt>
      <trkpt lat="48.62786" lon="-4.5326">
        <ele>9.8</ele>
        <time>2025-09-24T14:00:37Z</time>
      </trkpt>
      <trkpt lat="48.6278" lon="-4.5328">
        <ele>10.4</ele>
        <time>2025-09-24T14:00:41Z</time>
      </trkpt>
      <trkpt lat="48.62777" lon="-4.53288">
        <ele>11</ele>
        <time>2025-09-24T14:00:43Z</time>
      </trkpt>
      <trkpt lat="48.62776" lon="-4.53292">
        <ele>11</ele>
        <time>2025-09-24T14:00:44Z</time>
      </trkpt>
      <trkpt lat="48.6277" lon="-4.53312">
        <ele>11.6</ele>
        <time>2025-09-24T14:00:49Z</time>
      </trkpt>
      <trkpt lat="48.62765" lon="-4.53328">
        <ele>12.4</ele>
        <time>2025-09-24T14:00:53Z</time>
      </trkpt>
      <trkpt lat="48.62764" lon="-4.53332">
        <ele>12.6</ele>
        <time>2025-09-24T14:00:54Z</time>
      </trkpt>
      <trkpt lat="48.62753" lon="-4.53367">
        <ele>12.8</ele>
        <time>2025-09-24T14:01:03Z</time>
      </trkpt>
      <trkpt lat="48.62752" lon="-4.53371">
        <ele>12.8</ele>
        <time>2025-09-24T14:01:04Z</time>
      </trkpt>
      <trkpt lat="48.62736" lon="-4.53399">
        <ele>13.6</ele>
        <time>2025-09-24T14:01:12Z</time>
      </trkpt>
      <trkpt lat="48.6272" lon="-4.53402">
        <ele>14</ele>
        <time>2025-09-24T14:01:17Z</time>
      </trkpt>
      <trkpt lat="48.62697" lon="-4.534">
        <ele>13.8</ele>
        <time>2025-09-24T14:01:23Z</time>
      </trkpt>
      <trkpt lat="48.62693" lon="-4.534">
        <ele>13.8</ele>
        <time>2025-09-24T14:01:24Z</time>
      </trkpt>
      <trkpt lat="48.62689" lon="-4.53401">
        <ele>13.8</ele>
        <time>2025-09-24T14:01:25Z</time>
      </trkpt>
      <trkpt lat="48.62665" lon="-4.53409">
        <ele>14</ele>
        <time>2025-09-24T14:01:31Z</time>
      </trkpt>
      <trkpt lat="48.62621" lon="-4.53422">
        <ele>14</ele>
        <time>2025-09-24T14:01:42Z</time>
      </trkpt>
      <trkpt lat="48.626" lon="-4.53428">
        <ele>14</ele>
        <time>2025-09-24T14:01:48Z</time>
      </trkpt>
      <trkpt lat="48.62592" lon="-4.53431">
        <ele>14</ele>
        <time>2025-09-24T14:01:50Z</time>
      </trkpt>
      <trkpt lat="48.62588" lon="-4.53433">
        <ele>14</ele>
        <time>2025-09-24T14:01:51Z</time>
      </trkpt>
      <trkpt lat="48.6256" lon="-4.5344">
        <ele>14.2</ele>
        <time>2025-09-24T14:01:58Z</time>
      </trkpt>
      <trkpt lat="48.6253" lon="-4.53436">
        <ele>14</ele>
        <time>2025-09-24T14:02:06Z</time>
      </trkpt>
      <trkpt lat="48.62519" lon="-4.53436">
        <ele>14</ele>
        <time>2025-09-24T14:02:09Z</time>
      </trkpt>
      <trkpt lat="48.62515" lon="-4.53444">
        <ele>14</ele>
        <time>2025-09-24T14:02:11Z</time>
      </trkpt>
      <trkpt lat="48.62518" lon="-4.53461">
        <ele>13.8</ele>
        <time>2025-09-24T14:02:15Z</time>
      </trkpt>
      <trkpt lat="48.62521" lon="-4.53475">
        <ele>14</ele>
        <time>2025-09-24T14:02:18Z</time>
      </trkpt>
      <trkpt lat="48.62522" lon="-4.53479">
        <ele>14</ele>
        <time>2025-09-24T14:02:19Z</time>
      </trkpt>
      <trkpt lat="48.62526" lon="-4.53494">
        <ele>14</ele>
        <time>2025-09-24T14:02:22Z</time>
      </trkpt>
      <trkpt lat="48.62528" lon="-4.53499">
        <ele>14</ele>
        <time>2025-09-24T14:02:23Z</time>
      </trkpt>
      <trkpt lat="48.62543" lon="-4.53526">
        <ele>14.4</ele>
        <time>2025-09-24T14:02:29Z</time>
      </trkpt>
      <trkpt lat="48.62545" lon="-4.5353">
        <ele>14.4</ele>
        <time>2025-09-24T14:02:30Z</time>
      </trkpt>
      <trkpt lat="48.62567" lon="-4.5356">
        <ele>14.6</ele>
        <time>2025-09-24T14:02:38Z</time>
      </trkpt>
      <trkpt lat="48.62587" lon="-4.53586">
        <ele>14.6</ele>
        <time>2025-09-24T14:02:46Z</time>
      </trkpt>
      <trkpt lat="48.62611" lon="-4.53616">
        <ele>14.4</ele>
        <time>2025-09-24T14:02:55Z</time>
      </trkpt>
      <trkpt lat="48.62614" lon="-4.5362">
        <ele>14.4</ele>
        <time>2025-09-24T14:02:56Z</time>
      </trkpt>
      <trkpt lat="48.62629" lon="-4.53642">
        <ele>14.2</ele>
        <time>2025-09-24T14:03:02Z</time>
      </trkpt>
      <trkpt lat="48.62635" lon="-4.53648">
        <ele>14.2</ele>
        <time>2025-09-24T14:03:04Z</time>
      </trkpt>
      <trkpt lat="48.62645" lon="-4.53662">
        <ele>14.6</ele>
        <time>2025-09-24T14:03:08Z</time>
      </trkpt>
      <trkpt lat="48.62656" lon="-4.53676">
        <ele>14.6</ele>
        <time>2025-09-24T14:03:12Z</time>
      </trkpt>
      <trkpt lat="48.62661" lon="-4.53684">
        <ele>14.8</ele>
        <time>2025-09-24T14:03:14Z</time>
      </trkpt>
      <trkpt lat="48.62682" lon="-4.53717">
        <ele>15</ele>
        <time>2025-09-24T14:03:23Z</time>
      </trkpt>
      <trkpt lat="48.627" lon="-4.53746">
        <ele>15.4</ele>
        <time>2025-09-24T14:03:31Z</time>
      </trkpt>
      <trkpt lat="48.62703" lon="-4.5375">
        <ele>15.4</ele>
        <time>2025-09-24T14:03:32Z</time>
      </trkpt>
      <trkpt lat="48.62718" lon="-4.53772">
        <ele>15.2</ele>
        <time>2025-09-24T14:03:39Z</time>
      </trkpt>
      <trkpt lat="48.62723" lon="-4.53778">
        <ele>15.4</ele>
        <time>2025-09-24T14:03:41Z</time>
      </trkpt>
      <trkpt lat="48.62742" lon="-4.53805">
        <ele>15</ele>
        <time>2025-09-24T14:03:49Z</time>
      </trkpt>
      <trkpt lat="48.62762" lon="-4.53825">
        <ele>14</ele>
        <time>2025-09-24T14:03:55Z</time>
      </trkpt>
      <trkpt lat="48.62766" lon="-4.53826">
        <ele>14</ele>
        <time>2025-09-24T14:03:56Z</time>
      </trkpt>
      <trkpt lat="48.62771" lon="-4.53825">
        <ele>13.8</ele>
        <time>2025-09-24T14:03:57Z</time>
      </trkpt>
      <trkpt lat="48.62775" lon="-4.53824">
        <ele>13.6</ele>
        <time>2025-09-24T14:03:58Z</time>
      </trkpt>
      <trkpt lat="48.62788" lon="-4.53821">
        <ele>12.8</ele>
        <time>2025-09-24T14:04:01Z</time>
      </trkpt>
      <trkpt lat="48.62797" lon="-4.53825">
        <ele>13.2</ele>
        <time>2025-09-24T14:04:05Z</time>
      </trkpt>
      <trkpt lat="48.62806" lon="-4.5385">
        <ele>12.8</ele>
        <time>2025-09-24T14:04:11Z</time>
      </trkpt>
      <trkpt lat="48.62808" lon="-4.5386">
        <ele>12.4</ele>
        <time>2025-09-24T14:04:13Z</time>
      </trkpt>
      <trkpt lat="48.62811" lon="-4.53872">
        <ele>12</ele>
        <time>2025-09-24T14:04:15Z</time>
      </trkpt>
      <trkpt lat="48.62815" lon="-4.53891">
        <ele>11.6</ele>
        <time>2025-09-24T14:04:18Z</time>
      </trkpt>
      <trkpt lat="48.62817" lon="-4.53898">
        <ele>11.2</ele>
        <time>2025-09-24T14:04:19Z</time>
      </trkpt>
      <trkpt lat="48.6282" lon="-4.53905">
        <ele>11</ele>
        <time>2025-09-24T14:04:20Z</time>
      </trkpt>
      <trkpt lat="48.62827" lon="-4.53915">
        <ele>10.4</ele>
        <time>2025-09-24T14:04:22Z</time>
      </trkpt>
      <trkpt lat="48.62832" lon="-4.53919">
        <ele>10</ele>
        <time>2025-09-24T14:04:23Z</time>
      </trkpt>
      <trkpt lat="48.62837" lon="-4.53921">
        <ele>9.6</ele>
        <time>2025-09-24T14:04:24Z</time>
      </trkpt>
      <trkpt lat="48.62843" lon="-4.53922">
        <ele>9.2</ele>
        <time>2025-09-24T14:04:25Z</time>
      </trkpt>
      <trkpt lat="48.62849" lon="-4.53923">
        <ele>8.8</ele>
        <time>2025-09-24T14:04:26Z</time>
      </trkpt>
      <trkpt lat="48.62876" lon="-4.53923">
        <ele>8.2</ele>
        <time>2025-09-24T14:04:31Z</time>
      </trkpt>
      <trkpt lat="48.62892" lon="-4.53923">
        <ele>8.4</ele>
        <time>2025-09-24T14:04:34Z</time>
      </trkpt>
      <trkpt lat="48.62898" lon="-4.53932">
        <ele>8.2</ele>
        <time>2025-09-24T14:04:36Z</time>
      </trkpt>
      <trkpt lat="48.62901" lon="-4.53946">
        <ele>8.2</ele>
        <time>2025-09-24T14:04:38Z</time>
      </trkpt>
      <trkpt lat="48.62902" lon="-4.53953">
        <ele>8</ele>
        <time>2025-09-24T14:04:39Z</time>
      </trkpt>
      <trkpt lat="48.62904" lon="-4.53968">
        <ele>7.8</ele>
        <time>2025-09-24T14:04:41Z</time>
      </trkpt>
      <trkpt lat="48.62904" lon="-4.53976">
        <ele>7.6</ele>
        <time>2025-09-24T14:04:42Z</time>
      </trkpt>
      <trkpt lat="48.62907" lon="-4.5399">
        <ele>7.4</ele>
        <time>2025-09-24T14:04:44Z</time>
      </trkpt>
      <trkpt lat="48.62913" lon="-4.54004">
        <ele>7.4</ele>
        <time>2025-09-24T14:04:46Z</time>
      </trkpt>
      <trkpt lat="48.6292" lon="-4.54016">
        <ele>7.6</ele>
        <time>2025-09-24T14:04:48Z</time>
      </trkpt>
      <trkpt lat="48.62933" lon="-4.54038">
        <ele>7</ele>
        <time>2025-09-24T14:04:52Z</time>
      </trkpt>
      <trkpt lat="48.62942" lon="-4.54052">
        <ele>7</ele>
        <time>2025-09-24T14:04:55Z</time>
      </trkpt>
      <trkpt lat="48.62954" lon="-4.54073">
        <ele>7.4</ele>
        <time>2025-09-24T14:05:01Z</time>
      </trkpt>
      <trkpt lat="48.62962" lon="-4.54087">
        <ele>7.6</ele>
        <time>2025-09-24T14:05:07Z</time>
      </trkpt>
      <trkpt lat="48.62979" lon="-4.5411">
        <ele>7</ele>
        <time>2025-09-24T14:05:14Z</time>
      </trkpt>
      <trkpt lat="48.62987" lon="-4.54121">
        <ele>7.4</ele>
        <time>2025-09-24T14:05:17Z</time>
      </trkpt>
      <trkpt lat="48.6299" lon="-4.54125">
        <ele>7.4</ele>
        <time>2025-09-24T14:05:18Z</time>
      </trkpt>
      <trkpt lat="48.62995" lon="-4.54133">
        <ele>7.4</ele>
        <time>2025-09-24T14:05:20Z</time>
      </trkpt>
      <trkpt lat="48.63007" lon="-4.5415">
        <ele>7.4</ele>
        <time>2025-09-24T14:05:24Z</time>
      </trkpt>
      <trkpt lat="48.63036" lon="-4.54189">
        <ele>7.6</ele>
        <time>2025-09-24T14:05:34Z</time>
      </trkpt>
      <trkpt lat="48.63057" lon="-4.54216">
        <ele>7.2</ele>
        <time>2025-09-24T14:05:42Z</time>
      </trkpt>
      <trkpt lat="48.6308" lon="-4.54232">
        <ele>7.2</ele>
        <time>2025-09-24T14:05:50Z</time>
      </trkpt>
      <trkpt lat="48.63109" lon="-4.54247">
        <ele>7.8</ele>
        <time>2025-09-24T14:06:00Z</time>
      </trkpt>
      <trkpt lat="48.63134" lon="-4.54266">
        <ele>7.8</ele>
        <time>2025-09-24T14:06:09Z</time>
      </trkpt>
      <trkpt lat="48.63159" lon="-4.54287">
        <ele>7.8</ele>
        <time>2025-09-24T14:06:18Z</time>
      </trkpt>
      <trkpt lat="48.63179" lon="-4.54311">
        <ele>7.8</ele>
        <time>2025-09-24T14:06:26Z</time>
      </trkpt>
      <trkpt lat="48.63198" lon="-4.54334">
        <ele>8.4</ele>
        <time>2025-09-24T14:06:35Z</time>
      </trkpt>
      <trkpt lat="48.63209" lon="-4.54345">
        <ele>8.8</ele>
        <time>2025-09-24T14:06:39Z</time>
      </trkpt>
      <trkpt lat="48.63223" lon="-4.54362">
        <ele>9.2</ele>
        <time>2025-09-24T14:06:45Z</time>
      </trkpt>
      <trkpt lat="48.63234" lon="-4.54374">
        <ele>10.2</ele>
        <time>2025-09-24T14:06:50Z</time>
      </trkpt>
      <trkpt lat="48.63242" lon="-4.54382">
        <ele>11.2</ele>
        <time>2025-09-24T14:06:54Z</time>
      </trkpt>
      <trkpt lat="48.63244" lon="-4.54384">
        <ele>11.2</ele>
        <time>2025-09-24T14:06:55Z</time>
      </trkpt>
      <trkpt lat="48.6326" lon="-4.54404">
        <ele>12</ele>
        <time>2025-09-24T14:07:04Z</time>
      </trkpt>
      <trkpt lat="48.63266" lon="-4.54411">
        <ele>12.4</ele>
        <time>2025-09-24T14:07:07Z</time>
      </trkpt>
      <trkpt lat="48.63281" lon="-4.54424">
        <ele>12.4</ele>
        <time>2025-09-24T14:07:14Z</time>
      </trkpt>
      <trkpt lat="48.63298" lon="-4.54439">
        <ele>12.8</ele>
        <time>2025-09-24T14:07:22Z</time>
      </trkpt>
      <trkpt lat="48.63307" lon="-4.54449">
        <ele>13.4</ele>
        <time>2025-09-24T14:07:26Z</time>
      </trkpt>
      <trkpt lat="48.6332" lon="-4.54462">
        <ele>13.6</ele>
        <time>2025-09-24T14:07:32Z</time>
      </trkpt>
      <trkpt lat="48.63331" lon="-4.54473">
        <ele>14</ele>
        <time>2025-09-24T14:07:39Z</time>
      </trkpt>
      <trkpt lat="48.63338" lon="-4.5448">
        <ele>14</ele>
        <time>2025-09-24T14:07:43Z</time>
      </trkpt>
      <trkpt lat="48.63343" lon="-4.54486">
        <ele>13.6</ele>
        <time>2025-09-24T14:07:46Z</time>
      </trkpt>
      <trkpt lat="48.63353" lon="-4.54498">
        <ele>12.4</ele>
        <time>2025-09-24T14:07:52Z</time>
      </trkpt>
      <trkpt lat="48.63355" lon="-4.54503">
        <ele>12.2</ele>
        <time>2025-09-24T14:07:54Z</time>
      </trkpt>
      <trkpt lat="48.63362" lon="-4.54523">
        <ele>12.2</ele>
        <time>2025-09-24T14:08:01Z</time>
      </trkpt>
      <trkpt lat="48.63364" lon="-4.54532">
        <ele>12</ele>
        <time>2025-09-24T14:08:06Z</time>
      </trkpt>
      <trkpt lat="48.63365" lon="-4.54529">
        <ele>11.8</ele>
        <time>2025-09-24T14:08:14Z</time>
      </trkpt>
      <trkpt lat="48.63363" lon="-4.54529">
        <ele>11.8</ele>
        <time>2025-09-24T14:08:15Z</time>
      </trkpt>
      <trkpt lat="48.63359" lon="-4.54531">
        <ele>11.8</ele>
        <time>2025-09-24T14:08:18Z</time>
      </trkpt>
      <trkpt lat="48.63349" lon="-4.54537">
        <ele>12.4</ele>
        <time>2025-09-24T14:08:24Z</time>
      </trkpt>
      <trkpt lat="48.63338" lon="-4.54546">
        <ele>13.2</ele>
        <time>2025-09-24T14:08:31Z</time>
      </trkpt>
      <trkpt lat="48.63337" lon="-4.54548">
        <ele>13.4</ele>
        <time>2025-09-24T14:08:32Z</time>
      </trkpt>
      <trkpt lat="48.63332" lon="-4.54557">
        <ele>13.4</ele>
        <time>2025-09-24T14:08:37Z</time>
      </trkpt>
      <trkpt lat="48.63324" lon="-4.54567">
        <ele>13.4</ele>
        <time>2025-09-24T14:08:42Z</time>
      </trkpt>
      <trkpt lat="48.63314" lon="-4.54576">
        <ele>14</ele>
        <time>2025-09-24T14:08:48Z</time>
      </trkpt>
      <trkpt lat="48.63308" lon="-4.54581">
        <ele>14.2</ele>
        <time>2025-09-24T14:08:51Z</time>
      </trkpt>
      <trkpt lat="48.63304" lon="-4.54583">
        <ele>14.4</ele>
        <time>2025-09-24T14:08:53Z</time>
      </trkpt>
      <trkpt lat="48.63299" lon="-4.54587">
        <ele>14.8</ele>
        <time>2025-09-24T14:08:56Z</time>
      </trkpt>
      <trkpt lat="48.63291" lon="-4.54592">
        <ele>14.6</ele>
        <time>2025-09-24T14:09:01Z</time>
      </trkpt>
      <trkpt lat="48.63289" lon="-4.54592">
        <ele>14.6</ele>
        <time>2025-09-24T14:09:02Z</time>
      </trkpt>
      <trkpt lat="48.63283" lon="-4.54594">
        <ele>14.8</ele>
        <time>2025-09-24T14:09:05Z</time>
      </trkpt>
      <trkpt lat="48.63271" lon="-4.54594">
        <ele>15</ele>
        <time>2025-09-24T14:09:10Z</time>
      </trkpt>
      <trkpt lat="48.6325" lon="-4.5459">
        <ele>14.8</ele>
        <time>2025-09-24T14:09:17Z</time>
      </trkpt>
      <trkpt lat="48.63227" lon="-4.54587">
        <ele>13.6</ele>
        <time>2025-09-24T14:09:24Z</time>
      </trkpt>
      <trkpt lat="48.6322" lon="-4.54586">
        <ele>13.2</ele>
        <time>2025-09-24T14:09:26Z</time>
      </trkpt>
      <trkpt lat="48.63204" lon="-4.54585">
        <ele>12.8</ele>
        <time>2025-09-24T14:09:31Z</time>
      </trkpt>
      <trkpt lat="48.63188" lon="-4.54583">
        <ele>12.2</ele>
        <time>2025-09-24T14:09:37Z</time>
      </trkpt>
      <trkpt lat="48.63187" lon="-4.54584">
        <ele>12.2</ele>
        <time>2025-09-24T14:09:38Z</time>
      </trkpt>
      <trkpt lat="48.6318" lon="-4.54584">
        <ele>11.4</ele>
        <time>2025-09-24T14:09:42Z</time>
      </trkpt>
      <trkpt lat="48.63179" lon="-4.54584">
        <ele>11</ele>
        <time>2025-09-24T14:09:43Z</time>
      </trkpt>
      <trkpt lat="48.6317" lon="-4.54583">
        <ele>10.2</ele>
        <time>2025-09-24T14:09:49Z</time>
      </trkpt>
      <trkpt lat="48.63165" lon="-4.54581">
        <ele>10</ele>
        <time>2025-09-24T14:09:52Z</time>
      </trkpt>
      <trkpt lat="48.63162" lon="-4.54585">
        <ele>9.6</ele>
        <time>2025-09-24T14:09:55Z</time>
      </trkpt>
      <trkpt lat="48.63159" lon="-4.54591">
        <ele>9</ele>
        <time>2025-09-24T14:09:58Z</time>
      </trkpt>
      <trkpt lat="48.63159" lon="-4.54594">
        <ele>8.8</ele>
        <time>2025-09-24T14:09:59Z</time>
      </trkpt>
      <trkpt lat="48.6316" lon="-4.54598">
        <ele>8.6</ele>
        <time>2025-09-24T14:10:01Z</time>
      </trkpt>
      <trkpt lat="48.63161" lon="-4.54602">
        <ele>8.6</ele>
        <time>2025-09-24T14:10:05Z</time>
      </trkpt>
      <trkpt lat="48.63161" lon="-4.54603">
        <ele>8.2</ele>
        <time>2025-09-24T14:10:56Z</time>
      </trkpt>
      <trkpt lat="48.63161" lon="-4.54604">
        <ele>8.4</ele>
        <time>2025-09-24T14:10:57Z</time>
      </trkpt>
      <trkpt lat="48.63164" lon="-4.54606">
        <ele>8.6</ele>
        <time>2025-09-24T14:11:02Z</time>
      </trkpt>
      <trkpt lat="48.63166" lon="-4.54608">
        <ele>8.4</ele>
        <time>2025-09-24T14:11:16Z</time>
      </trkpt>
      <trkpt lat="48.63167" lon="-4.5461">
        <ele>8.4</ele>
        <time>2025-09-24T14:11:17Z</time>
      </trkpt>
      <trkpt lat="48.63167" lon="-4.54609">
        <ele>8.4</ele>
        <time>2025-09-24T14:11:19Z</time>
      </trkpt>
      <trkpt lat="48.63166" lon="-4.54609">
        <ele>8.4</ele>
        <time>2025-09-24T14:11:29Z</time>
      </trkpt>
      <trkpt lat="48.63166" lon="-4.54609">
        <ele>8.4</ele>
        <time>2025-09-24T14:11:30Z</time>
      </trkpt>
      <trkpt lat="48.63166" lon="-4.54609">
        <ele>8.4</ele>
        <time>2025-09-24T14:11:31Z</time>
      </trkpt>
      <trkpt lat="48.63165" lon="-4.54608">
        <ele>8.4</ele>
        <time>2025-09-24T14:11:34Z</time>
      </trkpt>
      <trkpt lat="48.63165" lon="-4.54607">
        <ele>8.4</ele>
        <time>2025-09-24T14:12:29Z</time>
      </trkpt>
      <trkpt lat="48.63165" lon="-4.54608">
        <ele>8.4</ele>
        <time>2025-09-24T14:12:30Z</time>
      </trkpt>
      <trkpt lat="48.63165" lon="-4.54608">
        <ele>8.4</ele>
        <time>2025-09-24T14:12:31Z</time>
      </trkpt>
      <trkpt lat="48.63165" lon="-4.54605">
        <ele>8.4</ele>
        <time>2025-09-24T14:12:53Z</time>
      </trkpt>
      <trkpt lat="48.63165" lon="-4.54605">
        <ele>8.4</ele>
        <time>2025-09-24T14:12:55Z</time>
      </trkpt>
      <trkpt lat="48.63165" lon="-4.54605">
        <ele>8.4</ele>
        <time>2025-09-24T14:12:58Z</time>
      </trkpt>
      <trkpt lat="48.63165" lon="-4.54605">
        <ele>8.4</ele>
        <time>2025-09-24T14:12:59Z</time>
      </trkpt>
      <trkpt lat="48.63165" lon="-4.54605">
        <ele>8.4</ele>
        <time>2025-09-24T14:13:00Z</time>
      </trkpt>
      <trkpt lat="48.63163" lon="-4.54605">
        <ele>8.4</ele>
        <time>2025-09-24T14:14:19Z</time>
      </trkpt>
      <trkpt lat="48.63165" lon="-4.54605">
        <ele>8.4</ele>
        <time>2025-09-24T14:14:21Z</time>
      </trkpt>
      <trkpt lat="48.63166" lon="-4.54609">
        <ele>8.4</ele>
        <time>2025-09-24T14:15:51Z</time>
      </trkpt>
      <trkpt lat="48.63166" lon="-4.54609">
        <ele>8.4</ele>
        <time>2025-09-24T14:15:52Z</time>
      </trkpt>
      <trkpt lat="48.63166" lon="-4.54609">
        <ele>8.4</ele>
        <time>2025-09-24T14:15:53Z</time>
      </trkpt>
      <trkpt lat="48.63166" lon="-4.54608">
        <ele>8.4</ele>
        <time>2025-09-24T14:16:03Z</time>
      </trkpt>
      <trkpt lat="48.63166" lon="-4.54606">
        <ele>8.4</ele>
        <time>2025-09-24T14:16:05Z</time>
      </trkpt>
      <trkpt lat="48.63166" lon="-4.54606">
        <ele>8.4</ele>
        <time>2025-09-24T14:16:06Z</time>
      </trkpt>
      <trkpt lat="48.63165" lon="-4.54607">
        <ele>8.4</ele>
        <time>2025-09-24T14:16:26Z</time>
      </trkpt>
      <trkpt lat="48.63165" lon="-4.54608">
        <ele>8.4</ele>
        <time>2025-09-24T14:16:28Z</time>
      </trkpt>
      <trkpt lat="48.63165" lon="-4.54601">
        <ele>7.6</ele>
        <time>2025-09-24T14:37:12Z</time>
      </trkpt>
      <trkpt lat="48.63165" lon="-4.54602">
        <ele>7.6</ele>
        <time>2025-09-24T14:37:13Z</time>
      </trkpt>
      <trkpt lat="48.63164" lon="-4.54597">
        <ele>7.6</ele>
        <time>2025-09-24T14:37:37Z</time>
      </trkpt>
      <trkpt lat="48.63162" lon="-4.54592">
        <ele>7.6</ele>
        <time>2025-09-24T14:37:39Z</time>
      </trkpt>
      <trkpt lat="48.63162" lon="-4.54589">
        <ele>7.6</ele>
        <time>2025-09-24T14:37:40Z</time>
      </trkpt>
      <trkpt lat="48.63159" lon="-4.54577">
        <ele>8</ele>
        <time>2025-09-24T14:37:46Z</time>
      </trkpt>
      <trkpt lat="48.63151" lon="-4.54558">
        <ele>7.8</ele>
        <time>2025-09-24T14:37:54Z</time>
      </trkpt>
      <trkpt lat="48.63138" lon="-4.54531">
        <ele>7.6</ele>
        <time>2025-09-24T14:38:02Z</time>
      </trkpt>
      <trkpt lat="48.63122" lon="-4.54507">
        <ele>7.4</ele>
        <time>2025-09-24T14:38:10Z</time>
      </trkpt>
      <trkpt lat="48.63102" lon="-4.5449">
        <ele>7.8</ele>
        <time>2025-09-24T14:38:18Z</time>
      </trkpt>
      <trkpt lat="48.63083" lon="-4.54489">
        <ele>8.2</ele>
        <time>2025-09-24T14:38:25Z</time>
      </trkpt>
      <trkpt lat="48.6306" lon="-4.54489">
        <ele>8.4</ele>
        <time>2025-09-24T14:38:33Z</time>
      </trkpt>
      <trkpt lat="48.63054" lon="-4.54491">
        <ele>8.2</ele>
        <time>2025-09-24T14:38:35Z</time>
      </trkpt>
      <trkpt lat="48.63039" lon="-4.545">
        <ele>8.2</ele>
        <time>2025-09-24T14:38:41Z</time>
      </trkpt>
      <trkpt lat="48.63038" lon="-4.54502">
        <ele>8.2</ele>
        <time>2025-09-24T14:38:42Z</time>
      </trkpt>
      <trkpt lat="48.63035" lon="-4.54507">
        <ele>8.2</ele>
        <time>2025-09-24T14:38:46Z</time>
      </trkpt>
      <trkpt lat="48.63035" lon="-4.54507">
        <ele>8.2</ele>
        <time>2025-09-24T14:38:47Z</time>
      </trkpt>
      <trkpt lat="48.63032" lon="-4.54506">
        <ele>8</ele>
        <time>2025-09-24T14:39:25Z</time>
      </trkpt>
      <trkpt lat="48.6303" lon="-4.54506">
        <ele>8</ele>
        <time>2025-09-24T14:39:26Z</time>
      </trkpt>
      <trkpt lat="48.63027" lon="-4.54507">
        <ele>8</ele>
        <time>2025-09-24T14:39:27Z</time>
      </trkpt>
      <trkpt lat="48.63017" lon="-4.54514">
        <ele>8</ele>
        <time>2025-09-24T14:39:31Z</time>
      </trkpt>
      <trkpt lat="48.63014" lon="-4.54517">
        <ele>8</ele>
        <time>2025-09-24T14:39:32Z</time>
      </trkpt>
      <trkpt lat="48.62995" lon="-4.54538">
        <ele>8</ele>
        <time>2025-09-24T14:39:39Z</time>
      </trkpt>
      <trkpt lat="48.62992" lon="-4.54541">
        <ele>8</ele>
        <time>2025-09-24T14:39:40Z</time>
      </trkpt>
      <trkpt lat="48.62973" lon="-4.54553">
        <ele>8.6</ele>
        <time>2025-09-24T14:39:47Z</time>
      </trkpt>
      <trkpt lat="48.6297" lon="-4.54555">
        <ele>8.6</ele>
        <time>2025-09-24T14:39:48Z</time>
      </trkpt>
      <trkpt lat="48.62943" lon="-4.54564">
        <ele>8.6</ele>
        <time>2025-09-24T14:39:56Z</time>
      </trkpt>
      <trkpt lat="48.62935" lon="-4.54562">
        <ele>8.2</ele>
        <time>2025-09-24T14:39:58Z</time>
      </trkpt>
      <trkpt lat="48.62927" lon="-4.54555">
        <ele>7.6</ele>
        <time>2025-09-24T14:40:00Z</time>
      </trkpt>
      <trkpt lat="48.62923" lon="-4.54551">
        <ele>7.4</ele>
        <time>2025-09-24T14:40:01Z</time>
      </trkpt>
      <trkpt lat="48.62914" lon="-4.54538">
        <ele>7.6</ele>
        <time>2025-09-24T14:40:04Z</time>
      </trkpt>
      <trkpt lat="48.62909" lon="-4.5453">
        <ele>7.8</ele>
        <time>2025-09-24T14:40:06Z</time>
      </trkpt>
      <trkpt lat="48.62891" lon="-4.54501">
        <ele>7.8</ele>
        <time>2025-09-24T14:40:13Z</time>
      </trkpt>
      <trkpt lat="48.6288" lon="-4.54486">
        <ele>8.6</ele>
        <time>2025-09-24T14:40:17Z</time>
      </trkpt>
      <trkpt lat="48.62868" lon="-4.54473">
        <ele>9.2</ele>
        <time>2025-09-24T14:40:21Z</time>
      </trkpt>
      <trkpt lat="48.62855" lon="-4.54466">
        <ele>9.8</ele>
        <time>2025-09-24T14:40:25Z</time>
      </trkpt>
      <trkpt lat="48.62846" lon="-4.5446">
        <ele>9.8</ele>
        <time>2025-09-24T14:40:28Z</time>
      </trkpt>
      <trkpt lat="48.6284" lon="-4.54455">
        <ele>9.8</ele>
        <time>2025-09-24T14:40:30Z</time>
      </trkpt>
      <trkpt lat="48.62837" lon="-4.54452">
        <ele>10</ele>
        <time>2025-09-24T14:40:31Z</time>
      </trkpt>
      <trkpt lat="48.62834" lon="-4.54449">
        <ele>10</ele>
        <time>2025-09-24T14:40:32Z</time>
      </trkpt>
      <trkpt lat="48.62831" lon="-4.54446">
        <ele>10</ele>
        <time>2025-09-24T14:40:33Z</time>
      </trkpt>
      <trkpt lat="48.62829" lon="-4.54442">
        <ele>10</ele>
        <time>2025-09-24T14:40:34Z</time>
      </trkpt>
      <trkpt lat="48.62823" lon="-4.54435">
        <ele>10</ele>
        <time>2025-09-24T14:40:36Z</time>
      </trkpt>
      <trkpt lat="48.62812" lon="-4.54418">
        <ele>10.8</ele>
        <time>2025-09-24T14:40:41Z</time>
      </trkpt>
      <trkpt lat="48.62807" lon="-4.54405">
        <ele>10.8</ele>
        <time>2025-09-24T14:40:44Z</time>
      </trkpt>
      <trkpt lat="48.62789" lon="-4.54358">
        <ele>10.4</ele>
        <time>2025-09-24T14:40:54Z</time>
      </trkpt>
      <trkpt lat="48.62785" lon="-4.54326">
        <ele>9.8</ele>
        <time>2025-09-24T14:41:00Z</time>
      </trkpt>
      <trkpt lat="48.6278" lon="-4.54264">
        <ele>10</ele>
        <time>2025-09-24T14:41:10Z</time>
      </trkpt>
      <trkpt lat="48.62771" lon="-4.54234">
        <ele>9.6</ele>
        <time>2025-09-24T14:41:16Z</time>
      </trkpt>
      <trkpt lat="48.6277" lon="-4.54229">
        <ele>9.6</ele>
        <time>2025-09-24T14:41:17Z</time>
      </trkpt>
      <trkpt lat="48.62758" lon="-4.54185">
        <ele>10.6</ele>
        <time>2025-09-24T14:41:26Z</time>
      </trkpt>
      <trkpt lat="48.62756" lon="-4.54181">
        <ele>10.8</ele>
        <time>2025-09-24T14:41:27Z</time>
      </trkpt>
      <trkpt lat="48.62746" lon="-4.54158">
        <ele>11.6</ele>
        <time>2025-09-24T14:41:33Z</time>
      </trkpt>
      <trkpt lat="48.62742" lon="-4.54151">
        <ele>11.8</ele>
        <time>2025-09-24T14:41:35Z</time>
      </trkpt>
      <trkpt lat="48.62728" lon="-4.54139">
        <ele>12.6</ele>
        <time>2025-09-24T14:41:41Z</time>
      </trkpt>
      <trkpt lat="48.62708" lon="-4.54143">
        <ele>12.8</ele>
        <time>2025-09-24T14:41:47Z</time>
      </trkpt>
      <trkpt lat="48.6268" lon="-4.54156">
        <ele>13</ele>
        <time>2025-09-24T14:41:55Z</time>
      </trkpt>
      <trkpt lat="48.62661" lon="-4.54164">
        <ele>12.8</ele>
        <time>2025-09-24T14:42:00Z</time>
      </trkpt>
      <trkpt lat="48.62645" lon="-4.54173">
        <ele>12.6</ele>
        <time>2025-09-24T14:42:04Z</time>
      </trkpt>
      <trkpt lat="48.62625" lon="-4.5418">
        <ele>11.8</ele>
        <time>2025-09-24T14:42:08Z</time>
      </trkpt>
      <trkpt lat="48.62619" lon="-4.54181">
        <ele>11.2</ele>
        <time>2025-09-24T14:42:09Z</time>
      </trkpt>
      <trkpt lat="48.62613" lon="-4.54181">
        <ele>10.8</ele>
        <time>2025-09-24T14:42:10Z</time>
      </trkpt>
      <trkpt lat="48.62607" lon="-4.54181">
        <ele>10.4</ele>
        <time>2025-09-24T14:42:11Z</time>
      </trkpt>
      <trkpt lat="48.62601" lon="-4.5418">
        <ele>10</ele>
        <time>2025-09-24T14:42:12Z</time>
      </trkpt>
      <trkpt lat="48.62595" lon="-4.54177">
        <ele>9.6</ele>
        <time>2025-09-24T14:42:13Z</time>
      </trkpt>
      <trkpt lat="48.62589" lon="-4.54174">
        <ele>9.2</ele>
        <time>2025-09-24T14:42:14Z</time>
      </trkpt>
      <trkpt lat="48.6257" lon="-4.54163">
        <ele>8.2</ele>
        <time>2025-09-24T14:42:17Z</time>
      </trkpt>
      <trkpt lat="48.62536" lon="-4.54142">
        <ele>7.2</ele>
        <time>2025-09-24T14:42:22Z</time>
      </trkpt>
      <trkpt lat="48.62529" lon="-4.54138">
        <ele>7</ele>
        <time>2025-09-24T14:42:23Z</time>
      </trkpt>
      <trkpt lat="48.62484" lon="-4.5411">
        <ele>6.2</ele>
        <time>2025-09-24T14:42:30Z</time>
      </trkpt>
      <trkpt lat="48.62478" lon="-4.54106">
        <ele>6.2</ele>
        <time>2025-09-24T14:42:31Z</time>
      </trkpt>
      <trkpt lat="48.62447" lon="-4.54089">
        <ele>6.8</ele>
        <time>2025-09-24T14:42:37Z</time>
      </trkpt>
      <trkpt lat="48.62442" lon="-4.54089">
        <ele>6.8</ele>
        <time>2025-09-24T14:42:38Z</time>
      </trkpt>
      <trkpt lat="48.62434" lon="-4.54091">
        <ele>7</ele>
        <time>2025-09-24T14:42:40Z</time>
      </trkpt>
      <trkpt lat="48.6243" lon="-4.54093">
        <ele>7.2</ele>
        <time>2025-09-24T14:42:41Z</time>
      </trkpt>
      <trkpt lat="48.62415" lon="-4.54111">
        <ele>7.8</ele>
        <time>2025-09-24T14:42:46Z</time>
      </trkpt>
      <trkpt lat="48.62391" lon="-4.5414">
        <ele>7.4</ele>
        <time>2025-09-24T14:42:53Z</time>
      </trkpt>
      <trkpt lat="48.62367" lon="-4.54173">
        <ele>8</ele>
        <time>2025-09-24T14:43:00Z</time>
      </trkpt>
      <trkpt lat="48.62363" lon="-4.54176">
        <ele>8</ele>
        <time>2025-09-24T14:43:01Z</time>
      </trkpt>
      <trkpt lat="48.6236" lon="-4.5418">
        <ele>8.2</ele>
        <time>2025-09-24T14:43:02Z</time>
      </trkpt>
      <trkpt lat="48.62346" lon="-4.54194">
        <ele>8.8</ele>
        <time>2025-09-24T14:43:06Z</time>
      </trkpt>
      <trkpt lat="48.62343" lon="-4.54197">
        <ele>9</ele>
        <time>2025-09-24T14:43:07Z</time>
      </trkpt>
      <trkpt lat="48.6234" lon="-4.542">
        <ele>9.2</ele>
        <time>2025-09-24T14:43:08Z</time>
      </trkpt>
      <trkpt lat="48.62337" lon="-4.54203">
        <ele>9.4</ele>
        <time>2025-09-24T14:43:09Z</time>
      </trkpt>
      <trkpt lat="48.62322" lon="-4.54217">
        <ele>10.2</ele>
        <time>2025-09-24T14:43:14Z</time>
      </trkpt>
      <trkpt lat="48.62312" lon="-4.54226">
        <ele>10.8</ele>
        <time>2025-09-24T14:43:17Z</time>
      </trkpt>
      <trkpt lat="48.62297" lon="-4.54243">
        <ele>11.2</ele>
        <time>2025-09-24T14:43:22Z</time>
      </trkpt>
      <trkpt lat="48.62292" lon="-4.54252">
        <ele>11.4</ele>
        <time>2025-09-24T14:43:24Z</time>
      </trkpt>
      <trkpt lat="48.62278" lon="-4.54273">
        <ele>11.8</ele>
        <time>2025-09-24T14:43:29Z</time>
      </trkpt>
      <trkpt lat="48.62266" lon="-4.5429">
        <ele>12.2</ele>
        <time>2025-09-24T14:43:33Z</time>
      </trkpt>
      <trkpt lat="48.62262" lon="-4.54294">
        <ele>12.2</ele>
        <time>2025-09-24T14:43:34Z</time>
      </trkpt>
      <trkpt lat="48.62244" lon="-4.54311">
        <ele>12.2</ele>
        <time>2025-09-24T14:43:39Z</time>
      </trkpt>
      <trkpt lat="48.62236" lon="-4.54315">
        <ele>12.2</ele>
        <time>2025-09-24T14:43:41Z</time>
      </trkpt>
      <trkpt lat="48.62228" lon="-4.5432">
        <ele>12.2</ele>
        <time>2025-09-24T14:43:43Z</time>
      </trkpt>
      <trkpt lat="48.62225" lon="-4.54323">
        <ele>12.2</ele>
        <time>2025-09-24T14:43:44Z</time>
      </trkpt>
      <trkpt lat="48.62221" lon="-4.54325">
        <ele>12.2</ele>
        <time>2025-09-24T14:43:45Z</time>
      </trkpt>
      <trkpt lat="48.62217" lon="-4.54328">
        <ele>12.2</ele>
        <time>2025-09-24T14:43:46Z</time>
      </trkpt>
      <trkpt lat="48.62213" lon="-4.54331">
        <ele>12.2</ele>
        <time>2025-09-24T14:43:47Z</time>
      </trkpt>
      <trkpt lat="48.62209" lon="-4.54333">
        <ele>12.2</ele>
        <time>2025-09-24T14:43:48Z</time>
      </trkpt>
      <trkpt lat="48.62197" lon="-4.54342">
        <ele>12.4</ele>
        <time>2025-09-24T14:43:51Z</time>
      </trkpt>
      <trkpt lat="48.62179" lon="-4.54355">
        <ele>12.6</ele>
        <time>2025-09-24T14:43:56Z</time>
      </trkpt>
      <trkpt lat="48.62153" lon="-4.54374">
        <ele>13</ele>
        <time>2025-09-24T14:44:04Z</time>
      </trkpt>
      <trkpt lat="48.62135" lon="-4.54385">
        <ele>13</ele>
        <time>2025-09-24T14:44:11Z</time>
      </trkpt>
      <trkpt lat="48.62122" lon="-4.5439">
        <ele>13.2</ele>
        <time>2025-09-24T14:44:16Z</time>
      </trkpt>
      <trkpt lat="48.62107" lon="-4.54397">
        <ele>13.4</ele>
        <time>2025-09-24T14:44:21Z</time>
      </trkpt>
      <trkpt lat="48.621" lon="-4.54399">
        <ele>13.4</ele>
        <time>2025-09-24T14:44:23Z</time>
      </trkpt>
      <trkpt lat="48.62076" lon="-4.54408">
        <ele>13.4</ele>
        <time>2025-09-24T14:44:30Z</time>
      </trkpt>
      <trkpt lat="48.62049" lon="-4.54418">
        <ele>13.2</ele>
        <time>2025-09-24T14:44:38Z</time>
      </trkpt>
      <trkpt lat="48.62045" lon="-4.5442">
        <ele>13.2</ele>
        <time>2025-09-24T14:44:39Z</time>
      </trkpt>
      <trkpt lat="48.62033" lon="-4.54437">
        <ele>13</ele>
        <time>2025-09-24T14:44:44Z</time>
      </trkpt>
      <trkpt lat="48.62036" lon="-4.54459">
        <ele>12.8</ele>
        <time>2025-09-24T14:44:48Z</time>
      </trkpt>
      <trkpt lat="48.62044" lon="-4.54498">
        <ele>12.2</ele>
        <time>2025-09-24T14:44:54Z</time>
      </trkpt>
      <trkpt lat="48.62044" lon="-4.54511">
        <ele>12</ele>
        <time>2025-09-24T14:44:56Z</time>
      </trkpt>
      <trkpt lat="48.62043" lon="-4.54524">
        <ele>12.2</ele>
        <time>2025-09-24T14:44:58Z</time>
      </trkpt>
      <trkpt lat="48.6204" lon="-4.54536">
        <ele>12.2</ele>
        <time>2025-09-24T14:45:00Z</time>
      </trkpt>
      <trkpt lat="48.62038" lon="-4.54542">
        <ele>12.4</ele>
        <time>2025-09-24T14:45:01Z</time>
      </trkpt>
      <trkpt lat="48.62034" lon="-4.54553">
        <ele>12.4</ele>
        <time>2025-09-24T14:45:03Z</time>
      </trkpt>
      <trkpt lat="48.62032" lon="-4.54559">
        <ele>12.4</ele>
        <time>2025-09-24T14:45:04Z</time>
      </trkpt>
      <trkpt lat="48.62032" lon="-4.54572">
        <ele>12.4</ele>
        <time>2025-09-24T14:45:06Z</time>
      </trkpt>
      <trkpt lat="48.62035" lon="-4.54585">
        <ele>12.4</ele>
        <time>2025-09-24T14:45:08Z</time>
      </trkpt>
      <trkpt lat="48.6204" lon="-4.54596">
        <ele>12.4</ele>
        <time>2025-09-24T14:45:10Z</time>
      </trkpt>
      <trkpt lat="48.62052" lon="-4.54613">
        <ele>12.8</ele>
        <time>2025-09-24T14:45:14Z</time>
      </trkpt>
      <trkpt lat="48.6206" lon="-4.54618">
        <ele>12.6</ele>
        <time>2025-09-24T14:45:16Z</time>
      </trkpt>
      <trkpt lat="48.62094" lon="-4.54634">
        <ele>11.6</ele>
        <time>2025-09-24T14:45:25Z</time>
      </trkpt>
      <trkpt lat="48.62098" lon="-4.54636">
        <ele>11.6</ele>
        <time>2025-09-24T14:45:26Z</time>
      </trkpt>
      <trkpt lat="48.62108" lon="-4.54642">
        <ele>11.4</ele>
        <time>2025-09-24T14:45:29Z</time>
      </trkpt>
      <trkpt lat="48.62119" lon="-4.54648">
        <ele>11</ele>
        <time>2025-09-24T14:45:32Z</time>
      </trkpt>
      <trkpt lat="48.62126" lon="-4.54652">
        <ele>11.2</ele>
        <time>2025-09-24T14:45:34Z</time>
      </trkpt>
      <trkpt lat="48.6213" lon="-4.54655">
        <ele>11.2</ele>
        <time>2025-09-24T14:45:35Z</time>
      </trkpt>
      <trkpt lat="48.62137" lon="-4.54659">
        <ele>11.4</ele>
        <time>2025-09-24T14:45:37Z</time>
      </trkpt>
      <trkpt lat="48.62153" lon="-4.5468">
        <ele>11.2</ele>
        <time>2025-09-24T14:45:42Z</time>
      </trkpt>
      <trkpt lat="48.62173" lon="-4.54723">
        <ele>10.6</ele>
        <time>2025-09-24T14:45:49Z</time>
      </trkpt>
      <trkpt lat="48.62179" lon="-4.54746">
        <ele>10.2</ele>
        <time>2025-09-24T14:45:52Z</time>
      </trkpt>
      <trkpt lat="48.6218" lon="-4.54754">
        <ele>9.8</ele>
        <time>2025-09-24T14:45:53Z</time>
      </trkpt>
      <trkpt lat="48.62185" lon="-4.5478">
        <ele>9</ele>
        <time>2025-09-24T14:45:56Z</time>
      </trkpt>
      <trkpt lat="48.62186" lon="-4.54789">
        <ele>8.6</ele>
        <time>2025-09-24T14:45:57Z</time>
      </trkpt>
      <trkpt lat="48.62188" lon="-4.54798">
        <ele>8.6</ele>
        <time>2025-09-24T14:45:58Z</time>
      </trkpt>
      <trkpt lat="48.62189" lon="-4.54807">
        <ele>8.6</ele>
        <time>2025-09-24T14:45:59Z</time>
      </trkpt>
      <trkpt lat="48.62191" lon="-4.54816">
        <ele>8.4</ele>
        <time>2025-09-24T14:46:00Z</time>
      </trkpt>
      <trkpt lat="48.62197" lon="-4.54844">
        <ele>7.6</ele>
        <time>2025-09-24T14:46:03Z</time>
      </trkpt>
      <trkpt lat="48.622" lon="-4.54882">
        <ele>7.2</ele>
        <time>2025-09-24T14:46:07Z</time>
      </trkpt>
      <trkpt lat="48.622" lon="-4.54891">
        <ele>7.4</ele>
        <time>2025-09-24T14:46:08Z</time>
      </trkpt>
      <trkpt lat="48.62202" lon="-4.54899">
        <ele>7.4</ele>
        <time>2025-09-24T14:46:09Z</time>
      </trkpt>
      <trkpt lat="48.62209" lon="-4.54913">
        <ele>7.2</ele>
        <time>2025-09-24T14:46:11Z</time>
      </trkpt>
      <trkpt lat="48.62224" lon="-4.54937">
        <ele>6.6</ele>
        <time>2025-09-24T14:46:15Z</time>
      </trkpt>
      <trkpt lat="48.62227" lon="-4.54943">
        <ele>6.4</ele>
        <time>2025-09-24T14:46:16Z</time>
      </trkpt>
      <trkpt lat="48.62229" lon="-4.5495">
        <ele>6.6</ele>
        <time>2025-09-24T14:46:17Z</time>
      </trkpt>
      <trkpt lat="48.62244" lon="-4.55002">
        <ele>6.8</ele>
        <time>2025-09-24T14:46:25Z</time>
      </trkpt>
      <trkpt lat="48.62241" lon="-4.55026">
        <ele>7.8</ele>
        <time>2025-09-24T14:46:29Z</time>
      </trkpt>
      <trkpt lat="48.62241" lon="-4.55065">
        <ele>8.4</ele>
        <time>2025-09-24T14:46:36Z</time>
      </trkpt>
      <trkpt lat="48.62243" lon="-4.5507">
        <ele>8.4</ele>
        <time>2025-09-24T14:46:37Z</time>
      </trkpt>
      <trkpt lat="48.62249" lon="-4.55087">
        <ele>8.2</ele>
        <time>2025-09-24T14:46:40Z</time>
      </trkpt>
      <trkpt lat="48.62251" lon="-4.55094">
        <ele>8.2</ele>
        <time>2025-09-24T14:46:41Z</time>
      </trkpt>
      <trkpt lat="48.62252" lon="-4.55106">
        <ele>8</ele>
        <time>2025-09-24T14:46:43Z</time>
      </trkpt>
      <trkpt lat="48.6225" lon="-4.55119">
        <ele>8</ele>
        <time>2025-09-24T14:46:45Z</time>
      </trkpt>
      <trkpt lat="48.62246" lon="-4.55147">
        <ele>8.6</ele>
        <time>2025-09-24T14:46:50Z</time>
      </trkpt>
      <trkpt lat="48.62256" lon="-4.55151">
        <ele>8.4</ele>
        <time>2025-09-24T14:46:53Z</time>
      </trkpt>
      <trkpt lat="48.6226" lon="-4.5515">
        <ele>8.8</ele>
        <time>2025-09-24T14:46:54Z</time>
      </trkpt>
      <trkpt lat="48.62276" lon="-4.55145">
        <ele>9.2</ele>
        <time>2025-09-24T14:46:59Z</time>
      </trkpt>
      <trkpt lat="48.62292" lon="-4.55141">
        <ele>9.4</ele>
        <time>2025-09-24T14:47:03Z</time>
      </trkpt>
      <trkpt lat="48.62301" lon="-4.55145">
        <ele>9</ele>
        <time>2025-09-24T14:47:05Z</time>
      </trkpt>
      <trkpt lat="48.62307" lon="-4.55156">
        <ele>8.8</ele>
        <time>2025-09-24T14:47:07Z</time>
      </trkpt>
      <trkpt lat="48.62309" lon="-4.55163">
        <ele>9</ele>
        <time>2025-09-24T14:47:08Z</time>
      </trkpt>
      <trkpt lat="48.62322" lon="-4.5522">
        <ele>8.8</ele>
        <time>2025-09-24T14:47:17Z</time>
      </trkpt>
      <trkpt lat="48.62332" lon="-4.55285">
        <ele>8.8</ele>
        <time>2025-09-24T14:47:26Z</time>
      </trkpt>
      <trkpt lat="48.62341" lon="-4.55349">
        <ele>8.8</ele>
        <time>2025-09-24T14:47:35Z</time>
      </trkpt>
      <trkpt lat="48.6235" lon="-4.55424">
        <ele>9</ele>
        <time>2025-09-24T14:47:45Z</time>
      </trkpt>
      <trkpt lat="48.62353" lon="-4.55471">
        <ele>9.8</ele>
        <time>2025-09-24T14:47:52Z</time>
      </trkpt>
      <trkpt lat="48.6235" lon="-4.55517">
        <ele>10.6</ele>
        <time>2025-09-24T14:48:00Z</time>
      </trkpt>
      <trkpt lat="48.62348" lon="-4.55528">
        <ele>10.8</ele>
        <time>2025-09-24T14:48:02Z</time>
      </trkpt>
      <trkpt lat="48.62346" lon="-4.55561">
        <ele>11</ele>
        <time>2025-09-24T14:48:07Z</time>
      </trkpt>
      <trkpt lat="48.62348" lon="-4.55593">
        <ele>11</ele>
        <time>2025-09-24T14:48:12Z</time>
      </trkpt>
      <trkpt lat="48.62348" lon="-4.556">
        <ele>11.2</ele>
        <time>2025-09-24T14:48:13Z</time>
      </trkpt>
      <trkpt lat="48.62348" lon="-4.55607">
        <ele>11.2</ele>
        <time>2025-09-24T14:48:14Z</time>
      </trkpt>
      <trkpt lat="48.62346" lon="-4.55656">
        <ele>10.2</ele>
        <time>2025-09-24T14:48:20Z</time>
      </trkpt>
      <trkpt lat="48.62345" lon="-4.55664">
        <ele>9.8</ele>
        <time>2025-09-24T14:48:21Z</time>
      </trkpt>
      <trkpt lat="48.62343" lon="-4.5569">
        <ele>8.8</ele>
        <time>2025-09-24T14:48:24Z</time>
      </trkpt>
      <trkpt lat="48.62342" lon="-4.55719">
        <ele>8.8</ele>
        <time>2025-09-24T14:48:27Z</time>
      </trkpt>
      <trkpt lat="48.62341" lon="-4.55778">
        <ele>8</ele>
        <time>2025-09-24T14:48:33Z</time>
      </trkpt>
      <trkpt lat="48.62338" lon="-4.55795">
        <ele>8.2</ele>
        <time>2025-09-24T14:48:35Z</time>
      </trkpt>
      <trkpt lat="48.62332" lon="-4.55807">
        <ele>8.4</ele>
        <time>2025-09-24T14:48:37Z</time>
      </trkpt>
      <trkpt lat="48.62324" lon="-4.55813">
        <ele>8.2</ele>
        <time>2025-09-24T14:48:39Z</time>
      </trkpt>
      <trkpt lat="48.62319" lon="-4.55814">
        <ele>8.4</ele>
        <time>2025-09-24T14:48:40Z</time>
      </trkpt>
      <trkpt lat="48.62315" lon="-4.55815">
        <ele>8.4</ele>
        <time>2025-09-24T14:48:41Z</time>
      </trkpt>
      <trkpt lat="48.62295" lon="-4.55814">
        <ele>8.8</ele>
        <time>2025-09-24T14:48:45Z</time>
      </trkpt>
      <trkpt lat="48.6228" lon="-4.55812">
        <ele>8.6</ele>
        <time>2025-09-24T14:48:48Z</time>
      </trkpt>
      <trkpt lat="48.62264" lon="-4.55809">
        <ele>9</ele>
        <time>2025-09-24T14:48:51Z</time>
      </trkpt>
      <trkpt lat="48.62259" lon="-4.55808">
        <ele>9.2</ele>
        <time>2025-09-24T14:48:52Z</time>
      </trkpt>
      <trkpt lat="48.62241" lon="-4.55806">
        <ele>9.8</ele>
        <time>2025-09-24T14:48:56Z</time>
      </trkpt>
      <trkpt lat="48.62233" lon="-4.55807">
        <ele>10.8</ele>
        <time>2025-09-24T14:48:58Z</time>
      </trkpt>
      <trkpt lat="48.6223" lon="-4.55807">
        <ele>11.2</ele>
        <time>2025-09-24T14:48:59Z</time>
      </trkpt>
      <trkpt lat="48.62208" lon="-4.55812">
        <ele>12.2</ele>
        <time>2025-09-24T14:49:05Z</time>
      </trkpt>
      <trkpt lat="48.62184" lon="-4.55808">
        <ele>12.2</ele>
        <time>2025-09-24T14:49:11Z</time>
      </trkpt>
      <trkpt lat="48.62154" lon="-4.55796">
        <ele>12.6</ele>
        <time>2025-09-24T14:49:19Z</time>
      </trkpt>
      <trkpt lat="48.62141" lon="-4.5579">
        <ele>13.4</ele>
        <time>2025-09-24T14:49:23Z</time>
      </trkpt>
      <trkpt lat="48.62131" lon="-4.55783">
        <ele>13.8</ele>
        <time>2025-09-24T14:49:26Z</time>
      </trkpt>
      <trkpt lat="48.62124" lon="-4.5578">
        <ele>13.6</ele>
        <time>2025-09-24T14:49:28Z</time>
      </trkpt>
      <trkpt lat="48.62121" lon="-4.55779">
        <ele>13.8</ele>
        <time>2025-09-24T14:49:29Z</time>
      </trkpt>
      <trkpt lat="48.62111" lon="-4.55781">
        <ele>14.4</ele>
        <time>2025-09-24T14:49:32Z</time>
      </trkpt>
      <trkpt lat="48.62108" lon="-4.55783">
        <ele>14.6</ele>
        <time>2025-09-24T14:49:33Z</time>
      </trkpt>
      <trkpt lat="48.62102" lon="-4.55792">
        <ele>15</ele>
        <time>2025-09-24T14:49:36Z</time>
      </trkpt>
      <trkpt lat="48.62102" lon="-4.55795">
        <ele>15</ele>
        <time>2025-09-24T14:49:37Z</time>
      </trkpt>
      <trkpt lat="48.62103" lon="-4.55797">
        <ele>15.2</ele>
        <time>2025-09-24T14:49:38Z</time>
      </trkpt>
      <trkpt lat="48.62107" lon="-4.55801">
        <ele>15.6</ele>
        <time>2025-09-24T14:49:40Z</time>
      </trkpt>
      <trkpt lat="48.62109" lon="-4.55803">
        <ele>15.6</ele>
        <time>2025-09-24T14:49:41Z</time>
      </trkpt>
      <trkpt lat="48.62117" lon="-4.5582">
        <ele>15.6</ele>
        <time>2025-09-24T14:49:46Z</time>
      </trkpt>
      <trkpt lat="48.62119" lon="-4.55831">
        <ele>15.4</ele>
        <time>2025-09-24T14:49:48Z</time>
      </trkpt>
      <trkpt lat="48.62122" lon="-4.55851">
        <ele>15</ele>
        <time>2025-09-24T14:49:51Z</time>
      </trkpt>
      <trkpt lat="48.62123" lon="-4.55858">
        <ele>14.8</ele>
        <time>2025-09-24T14:49:52Z</time>
      </trkpt>
      <trkpt lat="48.62124" lon="-4.55865">
        <ele>14.6</ele>
        <time>2025-09-24T14:49:53Z</time>
      </trkpt>
      <trkpt lat="48.62125" lon="-4.55873">
        <ele>14.2</ele>
        <time>2025-09-24T14:49:54Z</time>
      </trkpt>
      <trkpt lat="48.62128" lon="-4.5589">
        <ele>13.2</ele>
        <time>2025-09-24T14:49:56Z</time>
      </trkpt>
      <trkpt lat="48.62131" lon="-4.55907">
        <ele>12</ele>
        <time>2025-09-24T14:49:58Z</time>
      </trkpt>
      <trkpt lat="48.62139" lon="-4.55971">
        <ele>11</ele>
        <time>2025-09-24T14:50:05Z</time>
      </trkpt>
      <trkpt lat="48.62144" lon="-4.56047">
        <ele>10.2</ele>
        <time>2025-09-24T14:50:13Z</time>
      </trkpt>
      <trkpt lat="48.62145" lon="-4.56056">
        <ele>9.8</ele>
        <time>2025-09-24T14:50:14Z</time>
      </trkpt>
      <trkpt lat="48.62147" lon="-4.56093">
        <ele>8.6</ele>
        <time>2025-09-24T14:50:18Z</time>
      </trkpt>
      <trkpt lat="48.62147" lon="-4.56132">
        <ele>7.6</ele>
        <time>2025-09-24T14:50:22Z</time>
      </trkpt>
      <trkpt lat="48.62146" lon="-4.56141">
        <ele>7.4</ele>
        <time>2025-09-24T14:50:23Z</time>
      </trkpt>
      <trkpt lat="48.62145" lon="-4.56151">
        <ele>7.4</ele>
        <time>2025-09-24T14:50:24Z</time>
      </trkpt>
      <trkpt lat="48.62141" lon="-4.56178">
        <ele>7.6</ele>
        <time>2025-09-24T14:50:27Z</time>
      </trkpt>
      <trkpt lat="48.62139" lon="-4.56185">
        <ele>7.8</ele>
        <time>2025-09-24T14:50:28Z</time>
      </trkpt>
      <trkpt lat="48.62136" lon="-4.56203">
        <ele>8</ele>
        <time>2025-09-24T14:50:30Z</time>
      </trkpt>
      <trkpt lat="48.62136" lon="-4.56211">
        <ele>8</ele>
        <time>2025-09-24T14:50:31Z</time>
      </trkpt>
      <trkpt lat="48.62135" lon="-4.56224">
        <ele>7.6</ele>
        <time>2025-09-24T14:50:34Z</time>
      </trkpt>
      <trkpt lat="48.62135" lon="-4.56228">
        <ele>8.2</ele>
        <time>2025-09-24T14:50:38Z</time>
      </trkpt>
      <trkpt lat="48.62134" lon="-4.56231">
        <ele>8.2</ele>
        <time>2025-09-24T14:50:40Z</time>
      </trkpt>
      <trkpt lat="48.62124" lon="-4.56235">
        <ele>8.4</ele>
        <time>2025-09-24T14:50:44Z</time>
      </trkpt>
      <trkpt lat="48.62111" lon="-4.56237">
        <ele>8.2</ele>
        <time>2025-09-24T14:50:48Z</time>
      </trkpt>
      <trkpt lat="48.62093" lon="-4.56236">
        <ele>8</ele>
        <time>2025-09-24T14:50:53Z</time>
      </trkpt>
      <trkpt lat="48.62072" lon="-4.56225">
        <ele>8</ele>
        <time>2025-09-24T14:50:59Z</time>
      </trkpt>
      <trkpt lat="48.62069" lon="-4.56213">
        <ele>7.6</ele>
        <time>2025-09-24T14:51:01Z</time>
      </trkpt>
      <trkpt lat="48.62066" lon="-4.56201">
        <ele>7.6</ele>
        <time>2025-09-24T14:51:03Z</time>
      </trkpt>
      <trkpt lat="48.62058" lon="-4.56156">
        <ele>7.6</ele>
        <time>2025-09-24T14:51:11Z</time>
      </trkpt>
      <trkpt lat="48.62051" lon="-4.56133">
        <ele>7.8</ele>
        <time>2025-09-24T14:51:15Z</time>
      </trkpt>
      <trkpt lat="48.62044" lon="-4.56119">
        <ele>8.4</ele>
        <time>2025-09-24T14:51:18Z</time>
      </trkpt>
      <trkpt lat="48.62041" lon="-4.56114">
        <ele>8.6</ele>
        <time>2025-09-24T14:51:19Z</time>
      </trkpt>
      <trkpt lat="48.62031" lon="-4.56092">
        <ele>9.2</ele>
        <time>2025-09-24T14:51:23Z</time>
      </trkpt>
      <trkpt lat="48.62028" lon="-4.56078">
        <ele>9.2</ele>
        <time>2025-09-24T14:51:25Z</time>
      </trkpt>
      <trkpt lat="48.62022" lon="-4.56044">
        <ele>9.4</ele>
        <time>2025-09-24T14:51:30Z</time>
      </trkpt>
      <trkpt lat="48.6202" lon="-4.56031">
        <ele>9.8</ele>
        <time>2025-09-24T14:51:32Z</time>
      </trkpt>
      <trkpt lat="48.62018" lon="-4.5602">
        <ele>9.8</ele>
        <time>2025-09-24T14:51:34Z</time>
      </trkpt>
      <trkpt lat="48.62007" lon="-4.55963">
        <ele>10.4</ele>
        <time>2025-09-24T14:51:44Z</time>
      </trkpt>
      <trkpt lat="48.62004" lon="-4.55952">
        <ele>10.8</ele>
        <time>2025-09-24T14:51:46Z</time>
      </trkpt>
      <trkpt lat="48.61999" lon="-4.55936">
        <ele>11.4</ele>
        <time>2025-09-24T14:51:49Z</time>
      </trkpt>
      <trkpt lat="48.61991" lon="-4.55908">
        <ele>11.6</ele>
        <time>2025-09-24T14:51:54Z</time>
      </trkpt>
      <trkpt lat="48.61986" lon="-4.55892">
        <ele>12</ele>
        <time>2025-09-24T14:51:57Z</time>
      </trkpt>
      <trkpt lat="48.61981" lon="-4.55875">
        <ele>11.8</ele>
        <time>2025-09-24T14:52:00Z</time>
      </trkpt>
      <trkpt lat="48.61977" lon="-4.55859">
        <ele>11.8</ele>
        <time>2025-09-24T14:52:03Z</time>
      </trkpt>
      <trkpt lat="48.61974" lon="-4.55848">
        <ele>12.4</ele>
        <time>2025-09-24T14:52:05Z</time>
      </trkpt>
      <trkpt lat="48.61961" lon="-4.55802">
        <ele>12.8</ele>
        <time>2025-09-24T14:52:13Z</time>
      </trkpt>
      <trkpt lat="48.61951" lon="-4.55769">
        <ele>12.8</ele>
        <time>2025-09-24T14:52:20Z</time>
      </trkpt>
      <trkpt lat="48.61948" lon="-4.5576">
        <ele>13</ele>
        <time>2025-09-24T14:52:22Z</time>
      </trkpt>
      <trkpt lat="48.61941" lon="-4.55729">
        <ele>14.2</ele>
        <time>2025-09-24T14:52:29Z</time>
      </trkpt>
      <trkpt lat="48.61938" lon="-4.5572">
        <ele>14.6</ele>
        <time>2025-09-24T14:52:31Z</time>
      </trkpt>
      <trkpt lat="48.61928" lon="-4.55681">
        <ele>15</ele>
        <time>2025-09-24T14:52:39Z</time>
      </trkpt>
      <trkpt lat="48.61926" lon="-4.55676">
        <ele>15.2</ele>
        <time>2025-09-24T14:52:40Z</time>
      </trkpt>
      <trkpt lat="48.61915" lon="-4.55643">
        <ele>16.2</ele>
        <time>2025-09-24T14:52:48Z</time>
      </trkpt>
      <trkpt lat="48.6191" lon="-4.55626">
        <ele>17.2</ele>
        <time>2025-09-24T14:52:53Z</time>
      </trkpt>
      <trkpt lat="48.61911" lon="-4.55622">
        <ele>17.4</ele>
        <time>2025-09-24T14:52:54Z</time>
      </trkpt>
      <trkpt lat="48.61915" lon="-4.55615">
        <ele>16.8</ele>
        <time>2025-09-24T14:52:57Z</time>
      </trkpt>
      <trkpt lat="48.61923" lon="-4.55598">
        <ele>18</ele>
        <time>2025-09-24T14:53:04Z</time>
      </trkpt>
      <trkpt lat="48.61922" lon="-4.55593">
        <ele>18.4</ele>
        <time>2025-09-24T14:53:07Z</time>
      </trkpt>
      <trkpt lat="48.6192" lon="-4.55589">
        <ele>18.6</ele>
        <time>2025-09-24T14:53:10Z</time>
      </trkpt>
      <trkpt lat="48.61919" lon="-4.55585">
        <ele>18.8</ele>
        <time>2025-09-24T14:53:17Z</time>
      </trkpt>
      <trkpt lat="48.61919" lon="-4.55584">
        <ele>18.8</ele>
        <time>2025-09-24T14:53:18Z</time>
      </trkpt>
      <trkpt lat="48.61919" lon="-4.55583">
        <ele>18.8</ele>
        <time>2025-09-24T14:53:25Z</time>
      </trkpt>
      <trkpt lat="48.61917" lon="-4.55586">
        <ele>18.2</ele>
        <time>2025-09-24T14:54:29Z</time>
      </trkpt>
      <trkpt lat="48.61918" lon="-4.55588">
        <ele>18.2</ele>
        <time>2025-09-24T14:54:30Z</time>
      </trkpt>
      <trkpt lat="48.61924" lon="-4.556">
        <ele>18.6</ele>
        <time>2025-09-24T14:54:35Z</time>
      </trkpt>
      <trkpt lat="48.61926" lon="-4.556">
        <ele>18.6</ele>
        <time>2025-09-24T14:54:36Z</time>
      </trkpt>
      <trkpt lat="48.61927" lon="-4.55594">
        <ele>18.4</ele>
        <time>2025-09-24T14:54:38Z</time>
      </trkpt>
      <trkpt lat="48.61928" lon="-4.55584">
        <ele>18.2</ele>
        <time>2025-09-24T14:54:43Z</time>
      </trkpt>
      <trkpt lat="48.61926" lon="-4.55568">
        <ele>18.2</ele>
        <time>2025-09-24T14:54:49Z</time>
      </trkpt>
      <trkpt lat="48.61926" lon="-4.55565">
        <ele>18.2</ele>
        <time>2025-09-24T14:54:50Z</time>
      </trkpt>
      <trkpt lat="48.61924" lon="-4.55537">
        <ele>17.8</ele>
        <time>2025-09-24T14:54:57Z</time>
      </trkpt>
      <trkpt lat="48.61924" lon="-4.5553">
        <ele>17.6</ele>
        <time>2025-09-24T14:54:59Z</time>
      </trkpt>
      <trkpt lat="48.61924" lon="-4.55526">
        <ele>17.6</ele>
        <time>2025-09-24T14:55:00Z</time>
      </trkpt>
      <trkpt lat="48.61923" lon="-4.55523">
        <ele>17.8</ele>
        <time>2025-09-24T14:55:01Z</time>
      </trkpt>
      <trkpt lat="48.61922" lon="-4.55515">
        <ele>17.8</ele>
        <time>2025-09-24T14:55:03Z</time>
      </trkpt>
      <trkpt lat="48.61921" lon="-4.55506">
        <ele>17</ele>
        <time>2025-09-24T14:55:06Z</time>
      </trkpt>
      <trkpt lat="48.61917" lon="-4.55498">
        <ele>16.6</ele>
        <time>2025-09-24T14:55:10Z</time>
      </trkpt>
      <trkpt lat="48.61914" lon="-4.55499">
        <ele>17</ele>
        <time>2025-09-24T14:55:12Z</time>
      </trkpt>
      <trkpt lat="48.619" lon="-4.5551">
        <ele>17.2</ele>
        <time>2025-09-24T14:55:18Z</time>
      </trkpt>
      <trkpt lat="48.61879" lon="-4.55524">
        <ele>16.4</ele>
        <time>2025-09-24T14:55:24Z</time>
      </trkpt>
      <trkpt lat="48.61872" lon="-4.55529">
        <ele>15.8</ele>
        <time>2025-09-24T14:55:26Z</time>
      </trkpt>
      <trkpt lat="48.61858" lon="-4.55537">
        <ele>15.4</ele>
        <time>2025-09-24T14:55:30Z</time>
      </trkpt>
      <trkpt lat="48.61856" lon="-4.55538">
        <ele>15.4</ele>
        <time>2025-09-24T14:55:31Z</time>
      </trkpt>
      <trkpt lat="48.61851" lon="-4.55544">
        <ele>15</ele>
        <time>2025-09-24T14:55:34Z</time>
      </trkpt>
      <trkpt lat="48.61851" lon="-4.55545">
        <ele>14.8</ele>
        <time>2025-09-24T14:55:35Z</time>
      </trkpt>
      <trkpt lat="48.61851" lon="-4.55545">
        <ele>14.6</ele>
        <time>2025-09-24T14:55:37Z</time>
      </trkpt>
      <trkpt lat="48.6185" lon="-4.55549">
        <ele>14.6</ele>
        <time>2025-09-24T14:55:53Z</time>
      </trkpt>
      <trkpt lat="48.61849" lon="-4.5555">
        <ele>14.4</ele>
        <time>2025-09-24T14:55:54Z</time>
      </trkpt>
      <trkpt lat="48.61848" lon="-4.5555">
        <ele>14.4</ele>
        <time>2025-09-24T14:55:55Z</time>
      </trkpt>
      <trkpt lat="48.61847" lon="-4.55548">
        <ele>14.4</ele>
        <time>2025-09-24T14:55:56Z</time>
      </trkpt>
      <trkpt lat="48.61843" lon="-4.55541">
        <ele>14.2</ele>
        <time>2025-09-24T14:55:58Z</time>
      </trkpt>
      <trkpt lat="48.61837" lon="-4.55528">
        <ele>13.6</ele>
        <time>2025-09-24T14:56:01Z</time>
      </trkpt>
      <trkpt lat="48.61828" lon="-4.55511">
        <ele>12.8</ele>
        <time>2025-09-24T14:56:04Z</time>
      </trkpt>
      <trkpt lat="48.61825" lon="-4.55505">
        <ele>12.6</ele>
        <time>2025-09-24T14:56:05Z</time>
      </trkpt>
      <trkpt lat="48.61812" lon="-4.5548">
        <ele>11.4</ele>
        <time>2025-09-24T14:56:09Z</time>
      </trkpt>
      <trkpt lat="48.61808" lon="-4.55474">
        <ele>11.2</ele>
        <time>2025-09-24T14:56:10Z</time>
      </trkpt>
      <trkpt lat="48.61795" lon="-4.55445">
        <ele>10.4</ele>
        <time>2025-09-24T14:56:14Z</time>
      </trkpt>
      <trkpt lat="48.61787" lon="-4.55425">
        <ele>9.4</ele>
        <time>2025-09-24T14:56:17Z</time>
      </trkpt>
      <trkpt lat="48.61776" lon="-4.55392">
        <ele>10.4</ele>
        <time>2025-09-24T14:56:22Z</time>
      </trkpt>
      <trkpt lat="48.61771" lon="-4.5538">
        <ele>10.2</ele>
        <time>2025-09-24T14:56:24Z</time>
      </trkpt>
      <trkpt lat="48.61765" lon="-4.55362">
        <ele>11.4</ele>
        <time>2025-09-24T14:56:27Z</time>
      </trkpt>
      <trkpt lat="48.61752" lon="-4.5533">
        <ele>10.6</ele>
        <time>2025-09-24T14:56:32Z</time>
      </trkpt>
      <trkpt lat="48.61747" lon="-4.55317">
        <ele>10.4</ele>
        <time>2025-09-24T14:56:34Z</time>
      </trkpt>
      <trkpt lat="48.61731" lon="-4.55275">
        <ele>9.6</ele>
        <time>2025-09-24T14:56:40Z</time>
      </trkpt>
      <trkpt lat="48.61712" lon="-4.55227">
        <ele>10.6</ele>
        <time>2025-09-24T14:56:48Z</time>
      </trkpt>
      <trkpt lat="48.61688" lon="-4.5517">
        <ele>11.2</ele>
        <time>2025-09-24T14:56:58Z</time>
      </trkpt>
      <trkpt lat="48.61678" lon="-4.55148">
        <ele>11.2</ele>
        <time>2025-09-24T14:57:02Z</time>
      </trkpt>
      <trkpt lat="48.61674" lon="-4.55137">
        <ele>11.4</ele>
        <time>2025-09-24T14:57:04Z</time>
      </trkpt>
      <trkpt lat="48.6166" lon="-4.55105">
        <ele>12.2</ele>
        <time>2025-09-24T14:57:10Z</time>
      </trkpt>
      <trkpt lat="48.61656" lon="-4.55095">
        <ele>12.4</ele>
        <time>2025-09-24T14:57:12Z</time>
      </trkpt>
      <trkpt lat="48.6164" lon="-4.55055">
        <ele>12.6</ele>
        <time>2025-09-24T14:57:20Z</time>
      </trkpt>
      <trkpt lat="48.61631" lon="-4.55048">
        <ele>12.6</ele>
        <time>2025-09-24T14:57:23Z</time>
      </trkpt>
      <trkpt lat="48.61628" lon="-4.5505">
        <ele>12.8</ele>
        <time>2025-09-24T14:57:24Z</time>
      </trkpt>
      <trkpt lat="48.61612" lon="-4.55063">
        <ele>13</ele>
        <time>2025-09-24T14:57:29Z</time>
      </trkpt>
      <trkpt lat="48.61609" lon="-4.55066">
        <ele>13</ele>
        <time>2025-09-24T14:57:30Z</time>
      </trkpt>
      <trkpt lat="48.6158" lon="-4.5509">
        <ele>13</ele>
        <time>2025-09-24T14:57:39Z</time>
      </trkpt>
      <trkpt lat="48.61561" lon="-4.55107">
        <ele>12.4</ele>
        <time>2025-09-24T14:57:44Z</time>
      </trkpt>
      <trkpt lat="48.61553" lon="-4.55114">
        <ele>12.2</ele>
        <time>2025-09-24T14:57:46Z</time>
      </trkpt>
      <trkpt lat="48.61521" lon="-4.55144">
        <ele>11.4</ele>
        <time>2025-09-24T14:57:54Z</time>
      </trkpt>
      <trkpt lat="48.61513" lon="-4.55151">
        <ele>11.4</ele>
        <time>2025-09-24T14:57:56Z</time>
      </trkpt>
      <trkpt lat="48.61491" lon="-4.5517">
        <ele>11.4</ele>
        <time>2025-09-24T14:58:01Z</time>
      </trkpt>
      <trkpt lat="48.61469" lon="-4.55187">
        <ele>11.2</ele>
        <time>2025-09-24T14:58:06Z</time>
      </trkpt>
      <trkpt lat="48.61462" lon="-4.55186">
        <ele>11</ele>
        <time>2025-09-24T14:58:32Z</time>
      </trkpt>
      <trkpt lat="48.61463" lon="-4.55182">
        <ele>11.4</ele>
        <time>2025-09-24T14:58:33Z</time>
      </trkpt>
      <trkpt lat="48.61463" lon="-4.55167">
        <ele>11.8</ele>
        <time>2025-09-24T14:58:37Z</time>
      </trkpt>
      <trkpt lat="48.61456" lon="-4.55144">
        <ele>12</ele>
        <time>2025-09-24T14:58:44Z</time>
      </trkpt>
      <trkpt lat="48.61451" lon="-4.55116">
        <ele>11.4</ele>
        <time>2025-09-24T14:58:50Z</time>
      </trkpt>
      <trkpt lat="48.61445" lon="-4.55061">
        <ele>10.8</ele>
        <time>2025-09-24T14:59:00Z</time>
      </trkpt>
      <trkpt lat="48.6144" lon="-4.55003">
        <ele>10.8</ele>
        <time>2025-09-24T14:59:10Z</time>
      </trkpt>
      <trkpt lat="48.61438" lon="-4.54978">
        <ele>10.8</ele>
        <time>2025-09-24T14:59:14Z</time>
      </trkpt>
      <trkpt lat="48.61436" lon="-4.54967">
        <ele>11</ele>
        <time>2025-09-24T14:59:16Z</time>
      </trkpt>
      <trkpt lat="48.61434" lon="-4.54955">
        <ele>11.2</ele>
        <time>2025-09-24T14:59:18Z</time>
      </trkpt>
      <trkpt lat="48.61432" lon="-4.5495">
        <ele>11.4</ele>
        <time>2025-09-24T14:59:19Z</time>
      </trkpt>
      <trkpt lat="48.61423" lon="-4.54908">
        <ele>11.2</ele>
        <time>2025-09-24T14:59:27Z</time>
      </trkpt>
      <trkpt lat="48.61418" lon="-4.54874">
        <ele>11.2</ele>
        <time>2025-09-24T14:59:33Z</time>
      </trkpt>
      <trkpt lat="48.61414" lon="-4.54841">
        <ele>11.8</ele>
        <time>2025-09-24T14:59:40Z</time>
      </trkpt>
      <trkpt lat="48.61413" lon="-4.54836">
        <ele>11.6</ele>
        <time>2025-09-24T14:59:41Z</time>
      </trkpt>
      <trkpt lat="48.61408" lon="-4.54798">
        <ele>12</ele>
        <time>2025-09-24T14:59:49Z</time>
      </trkpt>
      <trkpt lat="48.61402" lon="-4.54766">
        <ele>12.4</ele>
        <time>2025-09-24T14:59:56Z</time>
      </trkpt>
      <trkpt lat="48.614" lon="-4.54753">
        <ele>12.4</ele>
        <time>2025-09-24T14:59:59Z</time>
      </trkpt>
      <trkpt lat="48.61391" lon="-4.54721">
        <ele>13.2</ele>
        <time>2025-09-24T15:00:07Z</time>
      </trkpt>
      <trkpt lat="48.61389" lon="-4.54714">
        <ele>13.4</ele>
        <time>2025-09-24T15:00:09Z</time>
      </trkpt>
      <trkpt lat="48.61381" lon="-4.54686">
        <ele>13.4</ele>
        <time>2025-09-24T15:00:16Z</time>
      </trkpt>
      <trkpt lat="48.61373" lon="-4.54659">
        <ele>14.4</ele>
        <time>2025-09-24T15:00:24Z</time>
      </trkpt>
      <trkpt lat="48.61363" lon="-4.54651">
        <ele>15.4</ele>
        <time>2025-09-24T15:00:29Z</time>
      </trkpt>
      <trkpt lat="48.61361" lon="-4.5465">
        <ele>15.4</ele>
        <time>2025-09-24T15:00:30Z</time>
      </trkpt>
      <trkpt lat="48.61344" lon="-4.54632">
        <ele>16.2</ele>
        <time>2025-09-24T15:00:38Z</time>
      </trkpt>
      <trkpt lat="48.61339" lon="-4.54625">
        <ele>16.6</ele>
        <time>2025-09-24T15:00:41Z</time>
      </trkpt>
      <trkpt lat="48.61329" lon="-4.54606">
        <ele>17</ele>
        <time>2025-09-24T15:00:48Z</time>
      </trkpt>
      <trkpt lat="48.61323" lon="-4.54592">
        <ele>17.6</ele>
        <time>2025-09-24T15:00:53Z</time>
      </trkpt>
      <trkpt lat="48.61322" lon="-4.5459">
        <ele>17.8</ele>
        <time>2025-09-24T15:00:54Z</time>
      </trkpt>
      <trkpt lat="48.6132" lon="-4.5458">
        <ele>18.4</ele>
        <time>2025-09-24T15:00:58Z</time>
      </trkpt>
      <trkpt lat="48.61318" lon="-4.54573">
        <ele>18.6</ele>
        <time>2025-09-24T15:01:01Z</time>
      </trkpt>
      <trkpt lat="48.61318" lon="-4.54571">
        <ele>18.6</ele>
        <time>2025-09-24T15:01:02Z</time>
      </trkpt>
      <trkpt lat="48.61315" lon="-4.54559">
        <ele>19.2</ele>
        <time>2025-09-24T15:01:07Z</time>
      </trkpt>
      <trkpt lat="48.61311" lon="-4.5454">
        <ele>19.6</ele>
        <time>2025-09-24T15:01:14Z</time>
      </trkpt>
      <trkpt lat="48.61311" lon="-4.54534">
        <ele>19.6</ele>
        <time>2025-09-24T15:01:16Z</time>
      </trkpt>
      <trkpt lat="48.61308" lon="-4.54518">
        <ele>20</ele>
        <time>2025-09-24T15:01:22Z</time>
      </trkpt>
      <trkpt lat="48.61302" lon="-4.54495">
        <ele>20.6</ele>
        <time>2025-09-24T15:01:30Z</time>
      </trkpt>
      <trkpt lat="48.61298" lon="-4.54477">
        <ele>20.6</ele>
        <time>2025-09-24T15:01:37Z</time>
      </trkpt>
      <trkpt lat="48.61297" lon="-4.54474">
        <ele>20.8</ele>
        <time>2025-09-24T15:01:38Z</time>
      </trkpt>
      <trkpt lat="48.61295" lon="-4.5446">
        <ele>21.2</ele>
        <time>2025-09-24T15:01:43Z</time>
      </trkpt>
      <trkpt lat="48.61292" lon="-4.54446">
        <ele>21.4</ele>
        <time>2025-09-24T15:01:48Z</time>
      </trkpt>
      <trkpt lat="48.6129" lon="-4.54441">
        <ele>21.4</ele>
        <time>2025-09-24T15:01:50Z</time>
      </trkpt>
      <trkpt lat="48.61287" lon="-4.54426">
        <ele>21.8</ele>
        <time>2025-09-24T15:01:55Z</time>
      </trkpt>
      <trkpt lat="48.61284" lon="-4.54415">
        <ele>22.4</ele>
        <time>2025-09-24T15:01:59Z</time>
      </trkpt>
      <trkpt lat="48.61274" lon="-4.54387">
        <ele>22.8</ele>
        <time>2025-09-24T15:02:09Z</time>
      </trkpt>
      <trkpt lat="48.61274" lon="-4.54384">
        <ele>22.8</ele>
        <time>2025-09-24T15:02:10Z</time>
      </trkpt>
      <trkpt lat="48.61267" lon="-4.54354">
        <ele>23</ele>
        <time>2025-09-24T15:02:20Z</time>
      </trkpt>
      <trkpt lat="48.61257" lon="-4.54334">
        <ele>23.6</ele>
        <time>2025-09-24T15:02:27Z</time>
      </trkpt>
      <trkpt lat="48.61245" lon="-4.54308">
        <ele>23.4</ele>
        <time>2025-09-24T15:02:37Z</time>
      </trkpt>
      <trkpt lat="48.61237" lon="-4.54291">
        <ele>23.2</ele>
        <time>2025-09-24T15:02:43Z</time>
      </trkpt>
      <trkpt lat="48.61236" lon="-4.54287">
        <ele>23.4</ele>
        <time>2025-09-24T15:02:44Z</time>
      </trkpt>
      <trkpt lat="48.61233" lon="-4.54281">
        <ele>23.2</ele>
        <time>2025-09-24T15:02:46Z</time>
      </trkpt>
      <trkpt lat="48.61222" lon="-4.54252">
        <ele>23.2</ele>
        <time>2025-09-24T15:02:54Z</time>
      </trkpt>
      <trkpt lat="48.6121" lon="-4.54222">
        <ele>23</ele>
        <time>2025-09-24T15:03:02Z</time>
      </trkpt>
      <trkpt lat="48.61197" lon="-4.54188">
        <ele>23.4</ele>
        <time>2025-09-24T15:03:11Z</time>
      </trkpt>
      <trkpt lat="48.61191" lon="-4.54174">
        <ele>23</ele>
        <time>2025-09-24T15:03:15Z</time>
      </trkpt>
      <trkpt lat="48.61188" lon="-4.54168">
        <ele>23</ele>
        <time>2025-09-24T15:03:17Z</time>
      </trkpt>
      <trkpt lat="48.61187" lon="-4.54165">
        <ele>23</ele>
        <time>2025-09-24T15:03:18Z</time>
      </trkpt>
      <trkpt lat="48.61184" lon="-4.5416">
        <ele>23.2</ele>
        <time>2025-09-24T15:03:23Z</time>
      </trkpt>
      <trkpt lat="48.61183" lon="-4.54158">
        <ele>23.2</ele>
        <time>2025-09-24T15:04:41Z</time>
      </trkpt>
      <trkpt lat="48.61183" lon="-4.54156">
        <ele>23.2</ele>
        <time>2025-09-24T15:04:42Z</time>
      </trkpt>
      <trkpt lat="48.61182" lon="-4.54153">
        <ele>23.2</ele>
        <time>2025-09-24T15:04:44Z</time>
      </trkpt>
      <trkpt lat="48.61176" lon="-4.54139">
        <ele>23.2</ele>
        <time>2025-09-24T15:04:50Z</time>
      </trkpt>
      <trkpt lat="48.61165" lon="-4.54116">
        <ele>23.2</ele>
        <time>2025-09-24T15:04:57Z</time>
      </trkpt>
      <trkpt lat="48.61163" lon="-4.54113">
        <ele>23</ele>
        <time>2025-09-24T15:04:58Z</time>
      </trkpt>
      <trkpt lat="48.61146" lon="-4.54084">
        <ele>23.2</ele>
        <time>2025-09-24T15:05:07Z</time>
      </trkpt>
      <trkpt lat="48.61132" lon="-4.54058">
        <ele>23.8</ele>
        <time>2025-09-24T15:05:15Z</time>
      </trkpt>
      <trkpt lat="48.61128" lon="-4.54049">
        <ele>23.8</ele>
        <time>2025-09-24T15:05:18Z</time>
      </trkpt>
      <trkpt lat="48.61116" lon="-4.54032">
        <ele>24</ele>
        <time>2025-09-24T15:05:24Z</time>
      </trkpt>
      <trkpt lat="48.61102" lon="-4.54008">
        <ele>24</ele>
        <time>2025-09-24T15:05:31Z</time>
      </trkpt>
      <trkpt lat="48.61086" lon="-4.53975">
        <ele>24.6</ele>
        <time>2025-09-24T15:05:41Z</time>
      </trkpt>
      <trkpt lat="48.61078" lon="-4.53957">
        <ele>25</ele>
        <time>2025-09-24T15:05:47Z</time>
      </trkpt>
      <trkpt lat="48.61074" lon="-4.53947">
        <ele>25.4</ele>
        <time>2025-09-24T15:05:50Z</time>
      </trkpt>
      <trkpt lat="48.61068" lon="-4.53933">
        <ele>26</ele>
        <time>2025-09-24T15:05:55Z</time>
      </trkpt>
      <trkpt lat="48.61064" lon="-4.53924">
        <ele>26.2</ele>
        <time>2025-09-24T15:05:58Z</time>
      </trkpt>
      <trkpt lat="48.61061" lon="-4.53918">
        <ele>26.4</ele>
        <time>2025-09-24T15:06:00Z</time>
      </trkpt>
      <trkpt lat="48.61053" lon="-4.53901">
        <ele>26.4</ele>
        <time>2025-09-24T15:06:06Z</time>
      </trkpt>
      <trkpt lat="48.6104" lon="-4.53875">
        <ele>26.4</ele>
        <time>2025-09-24T15:06:15Z</time>
      </trkpt>
      <trkpt lat="48.6103" lon="-4.53852">
        <ele>27</ele>
        <time>2025-09-24T15:06:23Z</time>
      </trkpt>
      <trkpt lat="48.61025" lon="-4.53841">
        <ele>27.2</ele>
        <time>2025-09-24T15:06:27Z</time>
      </trkpt>
      <trkpt lat="48.61018" lon="-4.53827">
        <ele>27.6</ele>
        <time>2025-09-24T15:06:32Z</time>
      </trkpt>
      <trkpt lat="48.61011" lon="-4.53809">
        <ele>27.8</ele>
        <time>2025-09-24T15:06:38Z</time>
      </trkpt>
      <trkpt lat="48.61009" lon="-4.53806">
        <ele>27.8</ele>
        <time>2025-09-24T15:06:39Z</time>
      </trkpt>
      <trkpt lat="48.61007" lon="-4.538">
        <ele>27.8</ele>
        <time>2025-09-24T15:06:41Z</time>
      </trkpt>
      <trkpt lat="48.61006" lon="-4.53797">
        <ele>28</ele>
        <time>2025-09-24T15:06:42Z</time>
      </trkpt>
      <trkpt lat="48.61001" lon="-4.53788">
        <ele>28.6</ele>
        <time>2025-09-24T15:06:45Z</time>
      </trkpt>
      <trkpt lat="48.60995" lon="-4.53771">
        <ele>28.6</ele>
        <time>2025-09-24T15:06:50Z</time>
      </trkpt>
      <trkpt lat="48.60989" lon="-4.53761">
        <ele>29.2</ele>
        <time>2025-09-24T15:06:54Z</time>
      </trkpt>
      <trkpt lat="48.60985" lon="-4.53758">
        <ele>29.4</ele>
        <time>2025-09-24T15:06:56Z</time>
      </trkpt>
      <trkpt lat="48.60977" lon="-4.53748">
        <ele>30.4</ele>
        <time>2025-09-24T15:07:01Z</time>
      </trkpt>
      <trkpt lat="48.60974" lon="-4.53743">
        <ele>30.6</ele>
        <time>2025-09-24T15:07:03Z</time>
      </trkpt>
      <trkpt lat="48.60966" lon="-4.5373">
        <ele>31.2</ele>
        <time>2025-09-24T15:07:09Z</time>
      </trkpt>
      <trkpt lat="48.60964" lon="-4.53724">
        <ele>31.4</ele>
        <time>2025-09-24T15:07:11Z</time>
      </trkpt>
      <trkpt lat="48.60962" lon="-4.53711">
        <ele>32</ele>
        <time>2025-09-24T15:07:16Z</time>
      </trkpt>
      <trkpt lat="48.6096" lon="-4.53703">
        <ele>32.4</ele>
        <time>2025-09-24T15:07:20Z</time>
      </trkpt>
      <trkpt lat="48.60958" lon="-4.53695">
        <ele>32.8</ele>
        <time>2025-09-24T15:07:24Z</time>
      </trkpt>
      <trkpt lat="48.60954" lon="-4.53678">
        <ele>33.2</ele>
        <time>2025-09-24T15:07:32Z</time>
      </trkpt>
      <trkpt lat="48.60953" lon="-4.53668">
        <ele>33.6</ele>
        <time>2025-09-24T15:07:37Z</time>
      </trkpt>
      <trkpt lat="48.6095" lon="-4.53659">
        <ele>33.6</ele>
        <time>2025-09-24T15:07:42Z</time>
      </trkpt>
      <trkpt lat="48.6095" lon="-4.53655">
        <ele>33.6</ele>
        <time>2025-09-24T15:07:44Z</time>
      </trkpt>
      <trkpt lat="48.60947" lon="-4.53642">
        <ele>33.8</ele>
        <time>2025-09-24T15:07:51Z</time>
      </trkpt>
      <trkpt lat="48.60945" lon="-4.53628">
        <ele>34.4</ele>
        <time>2025-09-24T15:07:59Z</time>
      </trkpt>
      <trkpt lat="48.60945" lon="-4.53626">
        <ele>34.6</ele>
        <time>2025-09-24T15:08:00Z</time>
      </trkpt>
      <trkpt lat="48.60941" lon="-4.53614">
        <ele>35.2</ele>
        <time>2025-09-24T15:08:06Z</time>
      </trkpt>
      <trkpt lat="48.60939" lon="-4.53606">
        <ele>35.4</ele>
        <time>2025-09-24T15:08:09Z</time>
      </trkpt>
      <trkpt lat="48.60936" lon="-4.53593">
        <ele>35.4</ele>
        <time>2025-09-24T15:08:14Z</time>
      </trkpt>
      <trkpt lat="48.60928" lon="-4.53575">
        <ele>35.4</ele>
        <time>2025-09-24T15:08:21Z</time>
      </trkpt>
      <trkpt lat="48.60919" lon="-4.53554">
        <ele>35.4</ele>
        <time>2025-09-24T15:08:28Z</time>
      </trkpt>
      <trkpt lat="48.60917" lon="-4.53548">
        <ele>35.4</ele>
        <time>2025-09-24T15:08:30Z</time>
      </trkpt>
      <trkpt lat="48.60905" lon="-4.53521">
        <ele>35.2</ele>
        <time>2025-09-24T15:08:39Z</time>
      </trkpt>
      <trkpt lat="48.60894" lon="-4.53499">
        <ele>35.4</ele>
        <time>2025-09-24T15:08:46Z</time>
      </trkpt>
      <trkpt lat="48.60883" lon="-4.53475">
        <ele>35.8</ele>
        <time>2025-09-24T15:08:53Z</time>
      </trkpt>
      <trkpt lat="48.60882" lon="-4.53471">
        <ele>35.8</ele>
        <time>2025-09-24T15:08:54Z</time>
      </trkpt>
      <trkpt lat="48.60872" lon="-4.53444">
        <ele>36.2</ele>
        <time>2025-09-24T15:09:01Z</time>
      </trkpt>
      <trkpt lat="48.60859" lon="-4.53404">
        <ele>36.6</ele>
        <time>2025-09-24T15:09:11Z</time>
      </trkpt>
      <trkpt lat="48.60854" lon="-4.5339">
        <ele>36.8</ele>
        <time>2025-09-24T15:09:15Z</time>
      </trkpt>
      <trkpt lat="48.60847" lon="-4.53366">
        <ele>37</ele>
        <time>2025-09-24T15:09:21Z</time>
      </trkpt>
      <trkpt lat="48.60836" lon="-4.53333">
        <ele>37</ele>
        <time>2025-09-24T15:09:30Z</time>
      </trkpt>
      <trkpt lat="48.60832" lon="-4.53319">
        <ele>36.8</ele>
        <time>2025-09-24T15:09:34Z</time>
      </trkpt>
      <trkpt lat="48.60825" lon="-4.53298">
        <ele>37</ele>
        <time>2025-09-24T15:09:40Z</time>
      </trkpt>
      <trkpt lat="48.60817" lon="-4.53282">
        <ele>36.8</ele>
        <time>2025-09-24T15:09:46Z</time>
      </trkpt>
      <trkpt lat="48.60809" lon="-4.53265">
        <ele>36.8</ele>
        <time>2025-09-24T15:09:52Z</time>
      </trkpt>
      <trkpt lat="48.60794" lon="-4.53239">
        <ele>37.8</ele>
        <time>2025-09-24T15:10:00Z</time>
      </trkpt>
      <trkpt lat="48.6079" lon="-4.53233">
        <ele>38</ele>
        <time>2025-09-24T15:10:02Z</time>
      </trkpt>
      <trkpt lat="48.60772" lon="-4.532">
        <ele>39</ele>
        <time>2025-09-24T15:10:11Z</time>
      </trkpt>
      <trkpt lat="48.6077" lon="-4.53196">
        <ele>39</ele>
        <time>2025-09-24T15:10:12Z</time>
      </trkpt>
      <trkpt lat="48.6075" lon="-4.53159">
        <ele>38.6</ele>
        <time>2025-09-24T15:10:21Z</time>
      </trkpt>
      <trkpt lat="48.60737" lon="-4.53134">
        <ele>38.2</ele>
        <time>2025-09-24T15:10:28Z</time>
      </trkpt>
      <trkpt lat="48.60731" lon="-4.53117">
        <ele>37.8</ele>
        <time>2025-09-24T15:10:32Z</time>
      </trkpt>
      <trkpt lat="48.60725" lon="-4.531">
        <ele>37.4</ele>
        <time>2025-09-24T15:10:36Z</time>
      </trkpt>
      <trkpt lat="48.60717" lon="-4.53078">
        <ele>37.6</ele>
        <time>2025-09-24T15:10:41Z</time>
      </trkpt>
      <trkpt lat="48.60715" lon="-4.53073">
        <ele>37.6</ele>
        <time>2025-09-24T15:10:42Z</time>
      </trkpt>
      <trkpt lat="48.60711" lon="-4.5305">
        <ele>37</ele>
        <time>2025-09-24T15:10:47Z</time>
      </trkpt>
      <trkpt lat="48.6071" lon="-4.53043">
        <ele>37.4</ele>
        <time>2025-09-24T15:10:49Z</time>
      </trkpt>
      <trkpt lat="48.60706" lon="-4.53013">
        <ele>37.2</ele>
        <time>2025-09-24T15:10:56Z</time>
      </trkpt>
      <trkpt lat="48.607" lon="-4.52962">
        <ele>37.4</ele>
        <time>2025-09-24T15:11:07Z</time>
      </trkpt>
      <trkpt lat="48.60696" lon="-4.52929">
        <ele>37.8</ele>
        <time>2025-09-24T15:11:15Z</time>
      </trkpt>
      <trkpt lat="48.60696" lon="-4.52924">
        <ele>38</ele>
        <time>2025-09-24T15:11:16Z</time>
      </trkpt>
      <trkpt lat="48.60694" lon="-4.52904">
        <ele>38.8</ele>
        <time>2025-09-24T15:11:21Z</time>
      </trkpt>
      <trkpt lat="48.60692" lon="-4.52891">
        <ele>39.4</ele>
        <time>2025-09-24T15:11:25Z</time>
      </trkpt>
      <trkpt lat="48.6069" lon="-4.52872">
        <ele>40</ele>
        <time>2025-09-24T15:11:31Z</time>
      </trkpt>
      <trkpt lat="48.60688" lon="-4.52858">
        <ele>40.6</ele>
        <time>2025-09-24T15:11:35Z</time>
      </trkpt>
      <trkpt lat="48.60687" lon="-4.52846">
        <ele>41</ele>
        <time>2025-09-24T15:11:38Z</time>
      </trkpt>
      <trkpt lat="48.60685" lon="-4.52826">
        <ele>41.4</ele>
        <time>2025-09-24T15:11:43Z</time>
      </trkpt>
      <trkpt lat="48.6068" lon="-4.52781">
        <ele>41.8</ele>
        <time>2025-09-24T15:11:55Z</time>
      </trkpt>
      <trkpt lat="48.6068" lon="-4.52777">
        <ele>41.8</ele>
        <time>2025-09-24T15:11:56Z</time>
      </trkpt>
      <trkpt lat="48.60678" lon="-4.52759">
        <ele>42</ele>
        <time>2025-09-24T15:12:01Z</time>
      </trkpt>
      <trkpt lat="48.60677" lon="-4.52748">
        <ele>42</ele>
        <time>2025-09-24T15:12:04Z</time>
      </trkpt>
      <trkpt lat="48.60674" lon="-4.5272">
        <ele>42.4</ele>
        <time>2025-09-24T15:12:12Z</time>
      </trkpt>
      <trkpt lat="48.60671" lon="-4.527">
        <ele>43</ele>
        <time>2025-09-24T15:12:18Z</time>
      </trkpt>
      <trkpt lat="48.60669" lon="-4.52687">
        <ele>43.4</ele>
        <time>2025-09-24T15:12:22Z</time>
      </trkpt>
      <trkpt lat="48.60668" lon="-4.52671">
        <ele>43.8</ele>
        <time>2025-09-24T15:12:27Z</time>
      </trkpt>
      <trkpt lat="48.60667" lon="-4.5266">
        <ele>44</ele>
        <time>2025-09-24T15:12:31Z</time>
      </trkpt>
      <trkpt lat="48.60666" lon="-4.52657">
        <ele>44.2</ele>
        <time>2025-09-24T15:12:32Z</time>
      </trkpt>
      <trkpt lat="48.60664" lon="-4.52646">
        <ele>44.4</ele>
        <time>2025-09-24T15:12:36Z</time>
      </trkpt>
      <trkpt lat="48.60663" lon="-4.52637">
        <ele>44.6</ele>
        <time>2025-09-24T15:12:39Z</time>
      </trkpt>
      <trkpt lat="48.60661" lon="-4.52614">
        <ele>45.2</ele>
        <time>2025-09-24T15:12:47Z</time>
      </trkpt>
      <trkpt lat="48.6066" lon="-4.52607">
        <ele>45.2</ele>
        <time>2025-09-24T15:12:49Z</time>
      </trkpt>
      <trkpt lat="48.60658" lon="-4.52579">
        <ele>45.2</ele>
        <time>2025-09-24T15:12:58Z</time>
      </trkpt>
      <trkpt lat="48.60657" lon="-4.52539">
        <ele>44.8</ele>
        <time>2025-09-24T15:13:09Z</time>
      </trkpt>
      <trkpt lat="48.60646" lon="-4.52511">
        <ele>45</ele>
        <time>2025-09-24T15:13:18Z</time>
      </trkpt>
      <trkpt lat="48.60636" lon="-4.52486">
        <ele>44.4</ele>
        <time>2025-09-24T15:13:25Z</time>
      </trkpt>
      <trkpt lat="48.60634" lon="-4.52479">
        <ele>44.4</ele>
        <time>2025-09-24T15:13:27Z</time>
      </trkpt>
      <trkpt lat="48.60629" lon="-4.52451">
        <ele>44</ele>
        <time>2025-09-24T15:13:34Z</time>
      </trkpt>
      <trkpt lat="48.60629" lon="-4.52442">
        <ele>44</ele>
        <time>2025-09-24T15:13:36Z</time>
      </trkpt>
      <trkpt lat="48.60625" lon="-4.5241">
        <ele>43.8</ele>
        <time>2025-09-24T15:13:44Z</time>
      </trkpt>
      <trkpt lat="48.60625" lon="-4.52406">
        <ele>43.6</ele>
        <time>2025-09-24T15:13:45Z</time>
      </trkpt>
      <trkpt lat="48.60624" lon="-4.52397">
        <ele>43.4</ele>
        <time>2025-09-24T15:13:47Z</time>
      </trkpt>
      <trkpt lat="48.60619" lon="-4.52364">
        <ele>43.2</ele>
        <time>2025-09-24T15:13:54Z</time>
      </trkpt>
      <trkpt lat="48.60618" lon="-4.52359">
        <ele>43</ele>
        <time>2025-09-24T15:13:55Z</time>
      </trkpt>
      <trkpt lat="48.60616" lon="-4.52341">
        <ele>43.6</ele>
        <time>2025-09-24T15:13:59Z</time>
      </trkpt>
      <trkpt lat="48.60615" lon="-4.52328">
        <ele>43.8</ele>
        <time>2025-09-24T15:14:02Z</time>
      </trkpt>
      <trkpt lat="48.60615" lon="-4.52324">
        <ele>43.8</ele>
        <time>2025-09-24T15:14:03Z</time>
      </trkpt>
      <trkpt lat="48.60614" lon="-4.52312">
        <ele>44</ele>
        <time>2025-09-24T15:14:06Z</time>
      </trkpt>
      <trkpt lat="48.60615" lon="-4.52295">
        <ele>44.2</ele>
        <time>2025-09-24T15:14:11Z</time>
      </trkpt>
      <trkpt lat="48.60615" lon="-4.52274">
        <ele>44</ele>
        <time>2025-09-24T15:14:18Z</time>
      </trkpt>
      <trkpt lat="48.60616" lon="-4.52241">
        <ele>44.8</ele>
        <time>2025-09-24T15:14:27Z</time>
      </trkpt>
      <trkpt lat="48.60614" lon="-4.52217">
        <ele>45</ele>
        <time>2025-09-24T15:14:33Z</time>
      </trkpt>
      <trkpt lat="48.60611" lon="-4.52202">
        <ele>45.2</ele>
        <time>2025-09-24T15:14:37Z</time>
      </trkpt>
      <trkpt lat="48.60608" lon="-4.52184">
        <ele>45.2</ele>
        <time>2025-09-24T15:14:42Z</time>
      </trkpt>
      <trkpt lat="48.60606" lon="-4.52178">
        <ele>45.4</ele>
        <time>2025-09-24T15:14:44Z</time>
      </trkpt>
      <trkpt lat="48.60603" lon="-4.52163">
        <ele>46.2</ele>
        <time>2025-09-24T15:14:49Z</time>
      </trkpt>
      <trkpt lat="48.606" lon="-4.52153">
        <ele>46.6</ele>
        <time>2025-09-24T15:14:52Z</time>
      </trkpt>
      <trkpt lat="48.60595" lon="-4.52131">
        <ele>47.2</ele>
        <time>2025-09-24T15:14:59Z</time>
      </trkpt>
      <trkpt lat="48.6059" lon="-4.52115">
        <ele>47.6</ele>
        <time>2025-09-24T15:15:04Z</time>
      </trkpt>
      <trkpt lat="48.60583" lon="-4.52085">
        <ele>48.2</ele>
        <time>2025-09-24T15:15:13Z</time>
      </trkpt>
      <trkpt lat="48.60582" lon="-4.52082">
        <ele>48.2</ele>
        <time>2025-09-24T15:15:14Z</time>
      </trkpt>
      <trkpt lat="48.6058" lon="-4.52073">
        <ele>48.4</ele>
        <time>2025-09-24T15:15:17Z</time>
      </trkpt>
      <trkpt lat="48.60574" lon="-4.52053">
        <ele>49</ele>
        <time>2025-09-24T15:15:24Z</time>
      </trkpt>
      <trkpt lat="48.60573" lon="-4.52048">
        <ele>49.2</ele>
        <time>2025-09-24T15:15:26Z</time>
      </trkpt>
      <trkpt lat="48.60568" lon="-4.52029">
        <ele>49.6</ele>
        <time>2025-09-24T15:15:32Z</time>
      </trkpt>
      <trkpt lat="48.60563" lon="-4.52009">
        <ele>50</ele>
        <time>2025-09-24T15:15:39Z</time>
      </trkpt>
      <trkpt lat="48.60563" lon="-4.52006">
        <ele>50.2</ele>
        <time>2025-09-24T15:15:40Z</time>
      </trkpt>
      <trkpt lat="48.60559" lon="-4.51991">
        <ele>50.6</ele>
        <time>2025-09-24T15:15:46Z</time>
      </trkpt>
      <trkpt lat="48.60558" lon="-4.51989">
        <ele>50.8</ele>
        <time>2025-09-24T15:15:47Z</time>
      </trkpt>
      <trkpt lat="48.60558" lon="-4.51989">
        <ele>51.2</ele>
        <time>2025-09-24T15:15:50Z</time>
      </trkpt>
      <trkpt lat="48.60557" lon="-4.51986">
        <ele>51</ele>
        <time>2025-09-24T15:16:18Z</time>
      </trkpt>
      <trkpt lat="48.60556" lon="-4.51979">
        <ele>51.4</ele>
        <time>2025-09-24T15:16:22Z</time>
      </trkpt>
      <trkpt lat="48.60553" lon="-4.51967">
        <ele>51.6</ele>
        <time>2025-09-24T15:16:28Z</time>
      </trkpt>
      <trkpt lat="48.60546" lon="-4.5194">
        <ele>51.6</ele>
        <time>2025-09-24T15:16:38Z</time>
      </trkpt>
      <trkpt lat="48.60545" lon="-4.51934">
        <ele>51.8</ele>
        <time>2025-09-24T15:16:40Z</time>
      </trkpt>
      <trkpt lat="48.60542" lon="-4.51925">
        <ele>51.8</ele>
        <time>2025-09-24T15:16:43Z</time>
      </trkpt>
      <trkpt lat="48.6054" lon="-4.51915">
        <ele>51.6</ele>
        <time>2025-09-24T15:16:46Z</time>
      </trkpt>
      <trkpt lat="48.60534" lon="-4.51893">
        <ele>52.4</ele>
        <time>2025-09-24T15:16:52Z</time>
      </trkpt>
      <trkpt lat="48.60532" lon="-4.51886">
        <ele>52.4</ele>
        <time>2025-09-24T15:16:54Z</time>
      </trkpt>
      <trkpt lat="48.60526" lon="-4.51871">
        <ele>52.2</ele>
        <time>2025-09-24T15:16:58Z</time>
      </trkpt>
      <trkpt lat="48.60525" lon="-4.51867">
        <ele>52.2</ele>
        <time>2025-09-24T15:16:59Z</time>
      </trkpt>
      <trkpt lat="48.60524" lon="-4.51862">
        <ele>52.2</ele>
        <time>2025-09-24T15:17:00Z</time>
      </trkpt>
      <trkpt lat="48.60523" lon="-4.51859">
        <ele>52.2</ele>
        <time>2025-09-24T15:17:01Z</time>
      </trkpt>
      <trkpt lat="48.60515" lon="-4.51833">
        <ele>51.8</ele>
        <time>2025-09-24T15:17:08Z</time>
      </trkpt>
      <trkpt lat="48.60512" lon="-4.51822">
        <ele>51.8</ele>
        <time>2025-09-24T15:17:11Z</time>
      </trkpt>
      <trkpt lat="48.60505" lon="-4.51791">
        <ele>51.6</ele>
        <time>2025-09-24T15:17:19Z</time>
      </trkpt>
      <trkpt lat="48.60499" lon="-4.51756">
        <ele>52.2</ele>
        <time>2025-09-24T15:17:28Z</time>
      </trkpt>
      <trkpt lat="48.60495" lon="-4.51748">
        <ele>52.4</ele>
        <time>2025-09-24T15:17:31Z</time>
      </trkpt>
      <trkpt lat="48.60492" lon="-4.51749">
        <ele>52.6</ele>
        <time>2025-09-24T15:17:33Z</time>
      </trkpt>
      <trkpt lat="48.60491" lon="-4.51737">
        <ele>51.6</ele>
        <time>2025-09-24T15:18:25Z</time>
      </trkpt>
      <trkpt lat="48.60492" lon="-4.51711">
        <ele>51.8</ele>
        <time>2025-09-24T15:18:30Z</time>
      </trkpt>
      <trkpt lat="48.6049" lon="-4.51675">
        <ele>51.4</ele>
        <time>2025-09-24T15:18:38Z</time>
      </trkpt>
      <trkpt lat="48.6049" lon="-4.5167">
        <ele>51.2</ele>
        <time>2025-09-24T15:18:39Z</time>
      </trkpt>
      <trkpt lat="48.60488" lon="-4.51638">
        <ele>51</ele>
        <time>2025-09-24T15:18:46Z</time>
      </trkpt>
      <trkpt lat="48.60486" lon="-4.51613">
        <ele>51.4</ele>
        <time>2025-09-24T15:18:53Z</time>
      </trkpt>
      <trkpt lat="48.60481" lon="-4.51607">
        <ele>52</ele>
        <time>2025-09-24T15:18:57Z</time>
      </trkpt>
      <trkpt lat="48.6048" lon="-4.51607">
        <ele>52</ele>
        <time>2025-09-24T15:18:59Z</time>
      </trkpt>
      <trkpt lat="48.60479" lon="-4.51608">
        <ele>52</ele>
        <time>2025-09-24T15:21:46Z</time>
      </trkpt>
      <trkpt lat="48.60478" lon="-4.51607">
        <ele>52</ele>
        <time>2025-09-24T15:21:47Z</time>
      </trkpt>
      <trkpt lat="48.60472" lon="-4.51605">
        <ele>52</ele>
        <time>2025-09-24T15:21:50Z</time>
      </trkpt>
      <trkpt lat="48.60464" lon="-4.51603">
        <ele>51.8</ele>
        <time>2025-09-24T15:21:53Z</time>
      </trkpt>
      <trkpt lat="48.60455" lon="-4.51599">
        <ele>51.8</ele>
        <time>2025-09-24T15:21:56Z</time>
      </trkpt>
      <trkpt lat="48.60436" lon="-4.51593">
        <ele>52</ele>
        <time>2025-09-24T15:22:02Z</time>
      </trkpt>
      <trkpt lat="48.6043" lon="-4.5159">
        <ele>52</ele>
        <time>2025-09-24T15:22:04Z</time>
      </trkpt>
      <trkpt lat="48.60427" lon="-4.51589">
        <ele>52.2</ele>
        <time>2025-09-24T15:22:05Z</time>
      </trkpt>
      <trkpt lat="48.60423" lon="-4.51589">
        <ele>52.2</ele>
        <time>2025-09-24T15:22:06Z</time>
      </trkpt>
      <trkpt lat="48.6042" lon="-4.51588">
        <ele>52.4</ele>
        <time>2025-09-24T15:22:07Z</time>
      </trkpt>
      <trkpt lat="48.60407" lon="-4.51583">
        <ele>52.6</ele>
        <time>2025-09-24T15:22:11Z</time>
      </trkpt>
      <trkpt lat="48.60375" lon="-4.51572">
        <ele>53</ele>
        <time>2025-09-24T15:22:21Z</time>
      </trkpt>
      <trkpt lat="48.60353" lon="-4.51564">
        <ele>53.4</ele>
        <time>2025-09-24T15:22:27Z</time>
      </trkpt>
      <trkpt lat="48.60342" lon="-4.51561">
        <ele>53.8</ele>
        <time>2025-09-24T15:22:30Z</time>
      </trkpt>
      <trkpt lat="48.6031" lon="-4.51548">
        <ele>53.8</ele>
        <time>2025-09-24T15:22:39Z</time>
      </trkpt>
      <trkpt lat="48.6028" lon="-4.51525">
        <ele>53.8</ele>
        <time>2025-09-24T15:22:48Z</time>
      </trkpt>
      <trkpt lat="48.60255" lon="-4.51494">
        <ele>54.2</ele>
        <time>2025-09-24T15:22:56Z</time>
      </trkpt>
      <trkpt lat="48.60252" lon="-4.51489">
        <ele>54</ele>
        <time>2025-09-24T15:22:57Z</time>
      </trkpt>
      <trkpt lat="48.60248" lon="-4.51483">
        <ele>53.8</ele>
        <time>2025-09-24T15:22:58Z</time>
      </trkpt>
      <trkpt lat="48.60245" lon="-4.51478">
        <ele>53.6</ele>
        <time>2025-09-24T15:22:59Z</time>
      </trkpt>
      <trkpt lat="48.60237" lon="-4.51458">
        <ele>52.6</ele>
        <time>2025-09-24T15:23:02Z</time>
      </trkpt>
      <trkpt lat="48.60232" lon="-4.51445">
        <ele>52.4</ele>
        <time>2025-09-24T15:23:04Z</time>
      </trkpt>
      <trkpt lat="48.60219" lon="-4.51402">
        <ele>52</ele>
        <time>2025-09-24T15:23:10Z</time>
      </trkpt>
      <trkpt lat="48.60213" lon="-4.51377">
        <ele>51.2</ele>
        <time>2025-09-24T15:23:13Z</time>
      </trkpt>
      <trkpt lat="48.60203" lon="-4.51343">
        <ele>50</ele>
        <time>2025-09-24T15:23:17Z</time>
      </trkpt>
      <trkpt lat="48.602" lon="-4.51334">
        <ele>49.8</ele>
        <time>2025-09-24T15:23:18Z</time>
      </trkpt>
      <trkpt lat="48.60194" lon="-4.51316">
        <ele>48.8</ele>
        <time>2025-09-24T15:23:20Z</time>
      </trkpt>
      <trkpt lat="48.6019" lon="-4.51307">
        <ele>48.4</ele>
        <time>2025-09-24T15:23:21Z</time>
      </trkpt>
      <trkpt lat="48.60182" lon="-4.51292">
        <ele>47.4</ele>
        <time>2025-09-24T15:23:23Z</time>
      </trkpt>
      <trkpt lat="48.60178" lon="-4.51284">
        <ele>47.2</ele>
        <time>2025-09-24T15:23:24Z</time>
      </trkpt>
      <trkpt lat="48.60165" lon="-4.51263">
        <ele>46.8</ele>
        <time>2025-09-24T15:23:27Z</time>
      </trkpt>
      <trkpt lat="48.60158" lon="-4.51258">
        <ele>47</ele>
        <time>2025-09-24T15:23:28Z</time>
      </trkpt>
      <trkpt lat="48.60152" lon="-4.51256">
        <ele>47.2</ele>
        <time>2025-09-24T15:23:29Z</time>
      </trkpt>
      <trkpt lat="48.60138" lon="-4.51256">
        <ele>47.4</ele>
        <time>2025-09-24T15:23:31Z</time>
      </trkpt>
      <trkpt lat="48.60088" lon="-4.51254">
        <ele>46.2</ele>
        <time>2025-09-24T15:23:38Z</time>
      </trkpt>
      <trkpt lat="48.60081" lon="-4.51251">
        <ele>45.8</ele>
        <time>2025-09-24T15:23:39Z</time>
      </trkpt>
      <trkpt lat="48.60069" lon="-4.51244">
        <ele>45</ele>
        <time>2025-09-24T15:23:41Z</time>
      </trkpt>
      <trkpt lat="48.60057" lon="-4.51232">
        <ele>44.4</ele>
        <time>2025-09-24T15:23:43Z</time>
      </trkpt>
      <trkpt lat="48.60051" lon="-4.51227">
        <ele>44.2</ele>
        <time>2025-09-24T15:23:44Z</time>
      </trkpt>
      <trkpt lat="48.60039" lon="-4.51226">
        <ele>44.6</ele>
        <time>2025-09-24T15:23:46Z</time>
      </trkpt>
      <trkpt lat="48.60016" lon="-4.51237">
        <ele>45.4</ele>
        <time>2025-09-24T15:23:50Z</time>
      </trkpt>
      <trkpt lat="48.60004" lon="-4.51234">
        <ele>44.4</ele>
        <time>2025-09-24T15:23:52Z</time>
      </trkpt>
      <trkpt lat="48.59998" lon="-4.51229">
        <ele>43.8</ele>
        <time>2025-09-24T15:23:53Z</time>
      </trkpt>
      <trkpt lat="48.59982" lon="-4.5121">
        <ele>42.6</ele>
        <time>2025-09-24T15:23:56Z</time>
      </trkpt>
      <trkpt lat="48.59972" lon="-4.51196">
        <ele>42.2</ele>
        <time>2025-09-24T15:23:58Z</time>
      </trkpt>
      <trkpt lat="48.59941" lon="-4.51145">
        <ele>41.6</ele>
        <time>2025-09-24T15:24:05Z</time>
      </trkpt>
      <trkpt lat="48.59937" lon="-4.51139">
        <ele>41.4</ele>
        <time>2025-09-24T15:24:06Z</time>
      </trkpt>
      <trkpt lat="48.59933" lon="-4.51132">
        <ele>41.4</ele>
        <time>2025-09-24T15:24:07Z</time>
      </trkpt>
      <trkpt lat="48.59899" lon="-4.5108">
        <ele>41.4</ele>
        <time>2025-09-24T15:24:15Z</time>
      </trkpt>
      <trkpt lat="48.59889" lon="-4.51068">
        <ele>42.2</ele>
        <time>2025-09-24T15:24:17Z</time>
      </trkpt>
      <trkpt lat="48.59884" lon="-4.51064">
        <ele>42.6</ele>
        <time>2025-09-24T15:24:18Z</time>
      </trkpt>
      <trkpt lat="48.59878" lon="-4.51061">
        <ele>42.8</ele>
        <time>2025-09-24T15:24:19Z</time>
      </trkpt>
      <trkpt lat="48.59866" lon="-4.51058">
        <ele>43</ele>
        <time>2025-09-24T15:24:21Z</time>
      </trkpt>
      <trkpt lat="48.59849" lon="-4.51057">
        <ele>43</ele>
        <time>2025-09-24T15:24:24Z</time>
      </trkpt>
      <trkpt lat="48.59812" lon="-4.51056">
        <ele>43.6</ele>
        <time>2025-09-24T15:24:31Z</time>
      </trkpt>
      <trkpt lat="48.59806" lon="-4.51055">
        <ele>43.6</ele>
        <time>2025-09-24T15:24:32Z</time>
      </trkpt>
      <trkpt lat="48.59786" lon="-4.51055">
        <ele>43.6</ele>
        <time>2025-09-24T15:24:36Z</time>
      </trkpt>
      <trkpt lat="48.59756" lon="-4.51053">
        <ele>43</ele>
        <time>2025-09-24T15:24:41Z</time>
      </trkpt>
      <trkpt lat="48.59743" lon="-4.5105">
        <ele>42.4</ele>
        <time>2025-09-24T15:24:43Z</time>
      </trkpt>
      <trkpt lat="48.59724" lon="-4.51046">
        <ele>41.2</ele>
        <time>2025-09-24T15:24:46Z</time>
      </trkpt>
      <trkpt lat="48.59709" lon="-4.51043">
        <ele>40.8</ele>
        <time>2025-09-24T15:24:48Z</time>
      </trkpt>
      <trkpt lat="48.59686" lon="-4.51039">
        <ele>40</ele>
        <time>2025-09-24T15:24:51Z</time>
      </trkpt>
      <trkpt lat="48.59669" lon="-4.51039">
        <ele>39</ele>
        <time>2025-09-24T15:24:53Z</time>
      </trkpt>
      <trkpt lat="48.59634" lon="-4.51048">
        <ele>40.2</ele>
        <time>2025-09-24T15:24:58Z</time>
      </trkpt>
      <trkpt lat="48.59615" lon="-4.51052">
        <ele>41.2</ele>
        <time>2025-09-24T15:25:01Z</time>
      </trkpt>
      <trkpt lat="48.59598" lon="-4.51055">
        <ele>42.2</ele>
        <time>2025-09-24T15:25:04Z</time>
      </trkpt>
      <trkpt lat="48.5958" lon="-4.51058">
        <ele>42.8</ele>
        <time>2025-09-24T15:25:07Z</time>
      </trkpt>
      <trkpt lat="48.59563" lon="-4.51064">
        <ele>43.2</ele>
        <time>2025-09-24T15:25:10Z</time>
      </trkpt>
      <trkpt lat="48.59547" lon="-4.51074">
        <ele>43.8</ele>
        <time>2025-09-24T15:25:13Z</time>
      </trkpt>
      <trkpt lat="48.59532" lon="-4.51083">
        <ele>44.4</ele>
        <time>2025-09-24T15:25:16Z</time>
      </trkpt>
      <trkpt lat="48.59509" lon="-4.51104">
        <ele>45.6</ele>
        <time>2025-09-24T15:25:21Z</time>
      </trkpt>
      <trkpt lat="48.59478" lon="-4.51131">
        <ele>46.4</ele>
        <time>2025-09-24T15:25:28Z</time>
      </trkpt>
      <trkpt lat="48.59474" lon="-4.51135">
        <ele>46.6</ele>
        <time>2025-09-24T15:25:29Z</time>
      </trkpt>
      <trkpt lat="48.59442" lon="-4.51163">
        <ele>47.8</ele>
        <time>2025-09-24T15:25:36Z</time>
      </trkpt>
      <trkpt lat="48.59434" lon="-4.51172">
        <ele>47.8</ele>
        <time>2025-09-24T15:25:38Z</time>
      </trkpt>
      <trkpt lat="48.59397" lon="-4.51219">
        <ele>48</ele>
        <time>2025-09-24T15:25:47Z</time>
      </trkpt>
      <trkpt lat="48.59379" lon="-4.51257">
        <ele>46.8</ele>
        <time>2025-09-24T15:25:52Z</time>
      </trkpt>
      <trkpt lat="48.59375" lon="-4.51265">
        <ele>46.6</ele>
        <time>2025-09-24T15:25:53Z</time>
      </trkpt>
      <trkpt lat="48.59352" lon="-4.51319">
        <ele>45.8</ele>
        <time>2025-09-24T15:25:59Z</time>
      </trkpt>
      <trkpt lat="48.59348" lon="-4.51328">
        <ele>45.6</ele>
        <time>2025-09-24T15:26:00Z</time>
      </trkpt>
      <trkpt lat="48.59343" lon="-4.51338">
        <ele>45.4</ele>
        <time>2025-09-24T15:26:01Z</time>
      </trkpt>
      <trkpt lat="48.59339" lon="-4.51348">
        <ele>45</ele>
        <time>2025-09-24T15:26:02Z</time>
      </trkpt>
      <trkpt lat="48.5933" lon="-4.51368">
        <ele>44</ele>
        <time>2025-09-24T15:26:04Z</time>
      </trkpt>
      <trkpt lat="48.59321" lon="-4.51389">
        <ele>43</ele>
        <time>2025-09-24T15:26:06Z</time>
      </trkpt>
      <trkpt lat="48.59307" lon="-4.51421">
        <ele>41.4</ele>
        <time>2025-09-24T15:26:09Z</time>
      </trkpt>
      <trkpt lat="48.59288" lon="-4.51482">
        <ele>40.4</ele>
        <time>2025-09-24T15:26:14Z</time>
      </trkpt>
      <trkpt lat="48.59282" lon="-4.51537">
        <ele>39</ele>
        <time>2025-09-24T15:26:18Z</time>
      </trkpt>
      <trkpt lat="48.59282" lon="-4.51551">
        <ele>38.4</ele>
        <time>2025-09-24T15:26:19Z</time>
      </trkpt>
      <trkpt lat="48.59281" lon="-4.51566">
        <ele>37.6</ele>
        <time>2025-09-24T15:26:20Z</time>
      </trkpt>
      <trkpt lat="48.59283" lon="-4.51595">
        <ele>36.2</ele>
        <time>2025-09-24T15:26:22Z</time>
      </trkpt>
      <trkpt lat="48.59286" lon="-4.51622">
        <ele>36.2</ele>
        <time>2025-09-24T15:26:24Z</time>
      </trkpt>
      <trkpt lat="48.59291" lon="-4.51665">
        <ele>35.8</ele>
        <time>2025-09-24T15:26:27Z</time>
      </trkpt>
      <trkpt lat="48.59293" lon="-4.51694">
        <ele>35</ele>
        <time>2025-09-24T15:26:29Z</time>
      </trkpt>
      <trkpt lat="48.59295" lon="-4.51709">
        <ele>34.6</ele>
        <time>2025-09-24T15:26:30Z</time>
      </trkpt>
      <trkpt lat="48.59298" lon="-4.51738">
        <ele>33.8</ele>
        <time>2025-09-24T15:26:32Z</time>
      </trkpt>
      <trkpt lat="48.59302" lon="-4.51784">
        <ele>32.6</ele>
        <time>2025-09-24T15:26:35Z</time>
      </trkpt>
      <trkpt lat="48.59305" lon="-4.51815">
        <ele>31.2</ele>
        <time>2025-09-24T15:26:37Z</time>
      </trkpt>
      <trkpt lat="48.59307" lon="-4.51847">
        <ele>30</ele>
        <time>2025-09-24T15:26:39Z</time>
      </trkpt>
      <trkpt lat="48.59309" lon="-4.51879">
        <ele>28.2</ele>
        <time>2025-09-24T15:26:41Z</time>
      </trkpt>
      <trkpt lat="48.5931" lon="-4.5191">
        <ele>27</ele>
        <time>2025-09-24T15:26:43Z</time>
      </trkpt>
      <trkpt lat="48.5931" lon="-4.51924">
        <ele>26.4</ele>
        <time>2025-09-24T15:26:44Z</time>
      </trkpt>
      <trkpt lat="48.59309" lon="-4.5195">
        <ele>27</ele>
        <time>2025-09-24T15:26:46Z</time>
      </trkpt>
      <trkpt lat="48.59302" lon="-4.51973">
        <ele>27.4</ele>
        <time>2025-09-24T15:26:48Z</time>
      </trkpt>
      <trkpt lat="48.59292" lon="-4.51992">
        <ele>27.6</ele>
        <time>2025-09-24T15:26:50Z</time>
      </trkpt>
      <trkpt lat="48.59286" lon="-4.51999">
        <ele>27.6</ele>
        <time>2025-09-24T15:26:51Z</time>
      </trkpt>
      <trkpt lat="48.59278" lon="-4.52004">
        <ele>27.6</ele>
        <time>2025-09-24T15:26:52Z</time>
      </trkpt>
      <trkpt lat="48.59262" lon="-4.52007">
        <ele>27.8</ele>
        <time>2025-09-24T15:26:54Z</time>
      </trkpt>
      <trkpt lat="48.59247" lon="-4.52003">
        <ele>27.8</ele>
        <time>2025-09-24T15:26:56Z</time>
      </trkpt>
      <trkpt lat="48.59239" lon="-4.51998">
        <ele>27.4</ele>
        <time>2025-09-24T15:26:57Z</time>
      </trkpt>
      <trkpt lat="48.59232" lon="-4.51993">
        <ele>27</ele>
        <time>2025-09-24T15:26:58Z</time>
      </trkpt>
      <trkpt lat="48.59219" lon="-4.5198">
        <ele>25.8</ele>
        <time>2025-09-24T15:27:00Z</time>
      </trkpt>
      <trkpt lat="48.59205" lon="-4.51966">
        <ele>24.8</ele>
        <time>2025-09-24T15:27:02Z</time>
      </trkpt>
      <trkpt lat="48.59198" lon="-4.5196">
        <ele>24.4</ele>
        <time>2025-09-24T15:27:03Z</time>
      </trkpt>
      <trkpt lat="48.59176" lon="-4.51942">
        <ele>23</ele>
        <time>2025-09-24T15:27:06Z</time>
      </trkpt>
      <trkpt lat="48.59159" lon="-4.51935">
        <ele>22.4</ele>
        <time>2025-09-24T15:27:08Z</time>
      </trkpt>
      <trkpt lat="48.5915" lon="-4.51933">
        <ele>21.8</ele>
        <time>2025-09-24T15:27:09Z</time>
      </trkpt>
      <trkpt lat="48.59122" lon="-4.51927">
        <ele>20.6</ele>
        <time>2025-09-24T15:27:12Z</time>
      </trkpt>
      <trkpt lat="48.59113" lon="-4.51926">
        <ele>20</ele>
        <time>2025-09-24T15:27:13Z</time>
      </trkpt>
      <trkpt lat="48.59104" lon="-4.51924">
        <ele>19.6</ele>
        <time>2025-09-24T15:27:14Z</time>
      </trkpt>
      <trkpt lat="48.59061" lon="-4.51917">
        <ele>18.2</ele>
        <time>2025-09-24T15:27:19Z</time>
      </trkpt>
      <trkpt lat="48.59042" lon="-4.51915">
        <ele>17.4</ele>
        <time>2025-09-24T15:27:21Z</time>
      </trkpt>
      <trkpt lat="48.58998" lon="-4.51921">
        <ele>18.2</ele>
        <time>2025-09-24T15:27:26Z</time>
      </trkpt>
      <trkpt lat="48.58959" lon="-4.51924">
        <ele>17.4</ele>
        <time>2025-09-24T15:27:30Z</time>
      </trkpt>
      <trkpt lat="48.58949" lon="-4.51921">
        <ele>16.8</ele>
        <time>2025-09-24T15:27:31Z</time>
      </trkpt>
      <trkpt lat="48.5894" lon="-4.51915">
        <ele>16.2</ele>
        <time>2025-09-24T15:27:32Z</time>
      </trkpt>
      <trkpt lat="48.58931" lon="-4.51907">
        <ele>15.4</ele>
        <time>2025-09-24T15:27:33Z</time>
      </trkpt>
      <trkpt lat="48.58924" lon="-4.51897">
        <ele>15</ele>
        <time>2025-09-24T15:27:34Z</time>
      </trkpt>
      <trkpt lat="48.58915" lon="-4.51872">
        <ele>14</ele>
        <time>2025-09-24T15:27:36Z</time>
      </trkpt>
      <trkpt lat="48.58911" lon="-4.51858">
        <ele>14</ele>
        <time>2025-09-24T15:27:37Z</time>
      </trkpt>
      <trkpt lat="48.58909" lon="-4.51844">
        <ele>14.2</ele>
        <time>2025-09-24T15:27:38Z</time>
      </trkpt>
      <trkpt lat="48.58907" lon="-4.518">
        <ele>12.8</ele>
        <time>2025-09-24T15:27:41Z</time>
      </trkpt>
      <trkpt lat="48.58907" lon="-4.51757">
        <ele>11.8</ele>
        <time>2025-09-24T15:27:44Z</time>
      </trkpt>
      <trkpt lat="48.58905" lon="-4.51743">
        <ele>11.6</ele>
        <time>2025-09-24T15:27:45Z</time>
      </trkpt>
      <trkpt lat="48.58902" lon="-4.51729">
        <ele>11.6</ele>
        <time>2025-09-24T15:27:46Z</time>
      </trkpt>
      <trkpt lat="48.58897" lon="-4.51716">
        <ele>11.4</ele>
        <time>2025-09-24T15:27:47Z</time>
      </trkpt>
      <trkpt lat="48.58887" lon="-4.51691">
        <ele>11</ele>
        <time>2025-09-24T15:27:49Z</time>
      </trkpt>
      <trkpt lat="48.58882" lon="-4.51678">
        <ele>10.6</ele>
        <time>2025-09-24T15:27:50Z</time>
      </trkpt>
      <trkpt lat="48.5887" lon="-4.51636">
        <ele>9.4</ele>
        <time>2025-09-24T15:27:53Z</time>
      </trkpt>
      <trkpt lat="48.58867" lon="-4.51621">
        <ele>9</ele>
        <time>2025-09-24T15:27:54Z</time>
      </trkpt>
      <trkpt lat="48.58858" lon="-4.51563">
        <ele>8.2</ele>
        <time>2025-09-24T15:27:58Z</time>
      </trkpt>
      <trkpt lat="48.58848" lon="-4.51542">
        <ele>7.8</ele>
        <time>2025-09-24T15:28:00Z</time>
      </trkpt>
      <trkpt lat="48.58842" lon="-4.51535">
        <ele>7.6</ele>
        <time>2025-09-24T15:28:01Z</time>
      </trkpt>
      <trkpt lat="48.58835" lon="-4.5153">
        <ele>7.4</ele>
        <time>2025-09-24T15:28:02Z</time>
      </trkpt>
      <trkpt lat="48.58828" lon="-4.51527">
        <ele>7.2</ele>
        <time>2025-09-24T15:28:03Z</time>
      </trkpt>
      <trkpt lat="48.58822" lon="-4.51525">
        <ele>7.2</ele>
        <time>2025-09-24T15:28:04Z</time>
      </trkpt>
      <trkpt lat="48.58804" lon="-4.51523">
        <ele>7.4</ele>
        <time>2025-09-24T15:28:08Z</time>
      </trkpt>
      <trkpt lat="48.58782" lon="-4.5152">
        <ele>7.2</ele>
        <time>2025-09-24T15:28:13Z</time>
      </trkpt>
      <trkpt lat="48.58748" lon="-4.51515">
        <ele>7</ele>
        <time>2025-09-24T15:28:21Z</time>
      </trkpt>
      <trkpt lat="48.58741" lon="-4.51514">
        <ele>7</ele>
        <time>2025-09-24T15:28:23Z</time>
      </trkpt>
      <trkpt lat="48.58727" lon="-4.51511">
        <ele>7.4</ele>
        <time>2025-09-24T15:28:28Z</time>
      </trkpt>
      <trkpt lat="48.58704" lon="-4.5151">
        <ele>7.8</ele>
        <time>2025-09-24T15:28:35Z</time>
      </trkpt>
      <trkpt lat="48.58682" lon="-4.5151">
        <ele>7</ele>
        <time>2025-09-24T15:28:43Z</time>
      </trkpt>
      <trkpt lat="48.58682" lon="-4.5151">
        <ele>7.4</ele>
        <time>2025-09-24T15:28:45Z</time>
      </trkpt>
      <trkpt lat="48.58681" lon="-4.51511">
        <ele>7.4</ele>
        <time>2025-09-24T15:28:50Z</time>
      </trkpt>
      <trkpt lat="48.58679" lon="-4.51512">
        <ele>7.2</ele>
        <time>2025-09-24T15:28:51Z</time>
      </trkpt>
      <trkpt lat="48.58662" lon="-4.51517">
        <ele>6.8</ele>
        <time>2025-09-24T15:28:59Z</time>
      </trkpt>
      <trkpt lat="48.58653" lon="-4.51525">
        <ele>6.8</ele>
        <time>2025-09-24T15:29:04Z</time>
      </trkpt>
      <trkpt lat="48.5865" lon="-4.5153">
        <ele>6.8</ele>
        <time>2025-09-24T15:29:06Z</time>
      </trkpt>
      <trkpt lat="48.58649" lon="-4.51532">
        <ele>6.8</ele>
        <time>2025-09-24T15:29:10Z</time>
      </trkpt>
      <trkpt lat="48.58647" lon="-4.51533">
        <ele>6.4</ele>
        <time>2025-09-24T15:31:46Z</time>
      </trkpt>
      <trkpt lat="48.58645" lon="-4.51532">
        <ele>6.4</ele>
        <time>2025-09-24T15:31:49Z</time>
      </trkpt>
      <trkpt lat="48.58646" lon="-4.51532">
        <ele>6.4</ele>
        <time>2025-09-24T15:31:50Z</time>
      </trkpt>
      <trkpt lat="48.58644" lon="-4.51532">
        <ele>6.4</ele>
        <time>2025-09-24T15:31:53Z</time>
      </trkpt>
      <trkpt lat="48.58639" lon="-4.51536">
        <ele>6.4</ele>
        <time>2025-09-24T15:31:56Z</time>
      </trkpt>
      <trkpt lat="48.5863" lon="-4.51557">
        <ele>6.6</ele>
        <time>2025-09-24T15:32:01Z</time>
      </trkpt>
      <trkpt lat="48.58624" lon="-4.51582">
        <ele>6.6</ele>
        <time>2025-09-24T15:32:06Z</time>
      </trkpt>
      <trkpt lat="48.58623" lon="-4.51587">
        <ele>6.6</ele>
        <time>2025-09-24T15:32:07Z</time>
      </trkpt>
      <trkpt lat="48.58619" lon="-4.51609">
        <ele>6.6</ele>
        <time>2025-09-24T15:32:11Z</time>
      </trkpt>
      <trkpt lat="48.58616" lon="-4.51626">
        <ele>6.8</ele>
        <time>2025-09-24T15:32:14Z</time>
      </trkpt>
      <trkpt lat="48.58613" lon="-4.51673">
        <ele>6.6</ele>
        <time>2025-09-24T15:32:23Z</time>
      </trkpt>
      <trkpt lat="48.58612" lon="-4.51688">
        <ele>6.8</ele>
        <time>2025-09-24T15:32:26Z</time>
      </trkpt>
      <trkpt lat="48.58611" lon="-4.51711">
        <ele>7</ele>
        <time>2025-09-24T15:32:30Z</time>
      </trkpt>
      <trkpt lat="48.58607" lon="-4.51773">
        <ele>6.4</ele>
        <time>2025-09-24T15:32:40Z</time>
      </trkpt>
      <trkpt lat="48.58598" lon="-4.51828">
        <ele>6.6</ele>
        <time>2025-09-24T15:32:49Z</time>
      </trkpt>
      <trkpt lat="48.58578" lon="-4.51876">
        <ele>7</ele>
        <time>2025-09-24T15:32:58Z</time>
      </trkpt>
      <trkpt lat="48.58551" lon="-4.51924">
        <ele>6.8</ele>
        <time>2025-09-24T15:33:08Z</time>
      </trkpt>
      <trkpt lat="48.5853" lon="-4.51965">
        <ele>7.6</ele>
        <time>2025-09-24T15:33:17Z</time>
      </trkpt>
      <trkpt lat="48.58514" lon="-4.52013">
        <ele>8.2</ele>
        <time>2025-09-24T15:33:26Z</time>
      </trkpt>
      <trkpt lat="48.58513" lon="-4.52017">
        <ele>8.2</ele>
        <time>2025-09-24T15:33:27Z</time>
      </trkpt>
      <trkpt lat="48.58494" lon="-4.52061">
        <ele>9</ele>
        <time>2025-09-24T15:33:36Z</time>
      </trkpt>
      <trkpt lat="48.58471" lon="-4.52094">
        <ele>8.6</ele>
        <time>2025-09-24T15:33:43Z</time>
      </trkpt>
      <trkpt lat="48.58443" lon="-4.52125">
        <ele>7.2</ele>
        <time>2025-09-24T15:33:49Z</time>
      </trkpt>
      <trkpt lat="48.58438" lon="-4.5213">
        <ele>7</ele>
        <time>2025-09-24T15:33:50Z</time>
      </trkpt>
      <trkpt lat="48.58396" lon="-4.52175">
        <ele>6.6</ele>
        <time>2025-09-24T15:33:58Z</time>
      </trkpt>
      <trkpt lat="48.58363" lon="-4.52196">
        <ele>7.8</ele>
        <time>2025-09-24T15:34:04Z</time>
      </trkpt>
      <trkpt lat="48.58354" lon="-4.52202">
        <ele>8.4</ele>
        <time>2025-09-24T15:34:06Z</time>
      </trkpt>
      <trkpt lat="48.58343" lon="-4.52208">
        <ele>9.2</ele>
        <time>2025-09-24T15:34:09Z</time>
      </trkpt>
      <trkpt lat="48.58339" lon="-4.52209">
        <ele>9.6</ele>
        <time>2025-09-24T15:34:10Z</time>
      </trkpt>
      <trkpt lat="48.58335" lon="-4.5221">
        <ele>9.8</ele>
        <time>2025-09-24T15:34:11Z</time>
      </trkpt>
      <trkpt lat="48.58332" lon="-4.52211">
        <ele>10</ele>
        <time>2025-09-24T15:34:12Z</time>
      </trkpt>
      <trkpt lat="48.58328" lon="-4.52212">
        <ele>10.4</ele>
        <time>2025-09-24T15:34:13Z</time>
      </trkpt>
      <trkpt lat="48.58325" lon="-4.52212">
        <ele>10.6</ele>
        <time>2025-09-24T15:34:14Z</time>
      </trkpt>
      <trkpt lat="48.58318" lon="-4.52212">
        <ele>11.2</ele>
        <time>2025-09-24T15:34:16Z</time>
      </trkpt>
      <trkpt lat="48.58308" lon="-4.52209">
        <ele>11.6</ele>
        <time>2025-09-24T15:34:19Z</time>
      </trkpt>
      <trkpt lat="48.58297" lon="-4.52203">
        <ele>12.2</ele>
        <time>2025-09-24T15:34:23Z</time>
      </trkpt>
      <trkpt lat="48.58287" lon="-4.52197">
        <ele>12.8</ele>
        <time>2025-09-24T15:34:27Z</time>
      </trkpt>
      <trkpt lat="48.58276" lon="-4.52191">
        <ele>13.2</ele>
        <time>2025-09-24T15:34:31Z</time>
      </trkpt>
      <trkpt lat="48.58265" lon="-4.52185">
        <ele>13.8</ele>
        <time>2025-09-24T15:34:35Z</time>
      </trkpt>
      <trkpt lat="48.58252" lon="-4.52178">
        <ele>14.4</ele>
        <time>2025-09-24T15:34:40Z</time>
      </trkpt>
      <trkpt lat="48.58245" lon="-4.52175">
        <ele>15</ele>
        <time>2025-09-24T15:34:43Z</time>
      </trkpt>
      <trkpt lat="48.58232" lon="-4.52167">
        <ele>15.8</ele>
        <time>2025-09-24T15:34:49Z</time>
      </trkpt>
      <trkpt lat="48.5823" lon="-4.52165">
        <ele>16</ele>
        <time>2025-09-24T15:34:50Z</time>
      </trkpt>
      <trkpt lat="48.58214" lon="-4.52151">
        <ele>16.8</ele>
        <time>2025-09-24T15:34:58Z</time>
      </trkpt>
      <trkpt lat="48.58208" lon="-4.52146">
        <ele>17.2</ele>
        <time>2025-09-24T15:35:01Z</time>
      </trkpt>
      <trkpt lat="48.58196" lon="-4.52137">
        <ele>18</ele>
        <time>2025-09-24T15:35:07Z</time>
      </trkpt>
      <trkpt lat="48.58191" lon="-4.52136">
        <ele>18.2</ele>
        <time>2025-09-24T15:35:09Z</time>
      </trkpt>
      <trkpt lat="48.5818" lon="-4.52135">
        <ele>19</ele>
        <time>2025-09-24T15:35:15Z</time>
      </trkpt>
      <trkpt lat="48.58175" lon="-4.52136">
        <ele>19.4</ele>
        <time>2025-09-24T15:35:17Z</time>
      </trkpt>
      <trkpt lat="48.58162" lon="-4.5214">
        <ele>20.2</ele>
        <time>2025-09-24T15:35:23Z</time>
      </trkpt>
      <trkpt lat="48.58158" lon="-4.52142">
        <ele>20.4</ele>
        <time>2025-09-24T15:35:25Z</time>
      </trkpt>
      <trkpt lat="48.58146" lon="-4.52148">
        <ele>21.2</ele>
        <time>2025-09-24T15:35:31Z</time>
      </trkpt>
      <trkpt lat="48.58143" lon="-4.5215">
        <ele>21.4</ele>
        <time>2025-09-24T15:35:33Z</time>
      </trkpt>
      <trkpt lat="48.58138" lon="-4.52154">
        <ele>21.8</ele>
        <time>2025-09-24T15:35:36Z</time>
      </trkpt>
      <trkpt lat="48.58135" lon="-4.52157">
        <ele>22</ele>
        <time>2025-09-24T15:35:38Z</time>
      </trkpt>
      <trkpt lat="48.58128" lon="-4.52168">
        <ele>22.6</ele>
        <time>2025-09-24T15:35:43Z</time>
      </trkpt>
      <trkpt lat="48.58123" lon="-4.52178">
        <ele>23.2</ele>
        <time>2025-09-24T15:35:47Z</time>
      </trkpt>
      <trkpt lat="48.58121" lon="-4.52183">
        <ele>23.6</ele>
        <time>2025-09-24T15:35:49Z</time>
      </trkpt>
      <trkpt lat="48.58118" lon="-4.52194">
        <ele>24.2</ele>
        <time>2025-09-24T15:35:53Z</time>
      </trkpt>
      <trkpt lat="48.58117" lon="-4.52199">
        <ele>24.4</ele>
        <time>2025-09-24T15:35:55Z</time>
      </trkpt>
      <trkpt lat="48.58116" lon="-4.52205">
        <ele>24.6</ele>
        <time>2025-09-24T15:35:57Z</time>
      </trkpt>
      <trkpt lat="48.58113" lon="-4.52218">
        <ele>25.4</ele>
        <time>2025-09-24T15:36:02Z</time>
      </trkpt>
      <trkpt lat="48.58111" lon="-4.52225">
        <ele>25.6</ele>
        <time>2025-09-24T15:36:05Z</time>
      </trkpt>
      <trkpt lat="48.58109" lon="-4.52236">
        <ele>26.4</ele>
        <time>2025-09-24T15:36:10Z</time>
      </trkpt>
      <trkpt lat="48.58107" lon="-4.52245">
        <ele>26.8</ele>
        <time>2025-09-24T15:36:14Z</time>
      </trkpt>
      <trkpt lat="48.58103" lon="-4.52256">
        <ele>27.4</ele>
        <time>2025-09-24T15:36:19Z</time>
      </trkpt>
      <trkpt lat="48.581" lon="-4.52263">
        <ele>27.8</ele>
        <time>2025-09-24T15:36:23Z</time>
      </trkpt>
      <trkpt lat="48.58096" lon="-4.5227">
        <ele>28.2</ele>
        <time>2025-09-24T15:36:27Z</time>
      </trkpt>
      <trkpt lat="48.58086" lon="-4.5228">
        <ele>29</ele>
        <time>2025-09-24T15:36:35Z</time>
      </trkpt>
      <trkpt lat="48.58071" lon="-4.52287">
        <ele>29.8</ele>
        <time>2025-09-24T15:36:44Z</time>
      </trkpt>
      <trkpt lat="48.58068" lon="-4.52287">
        <ele>30</ele>
        <time>2025-09-24T15:36:46Z</time>
      </trkpt>
      <trkpt lat="48.58059" lon="-4.52285">
        <ele>30.6</ele>
        <time>2025-09-24T15:36:51Z</time>
      </trkpt>
      <trkpt lat="48.58056" lon="-4.52284">
        <ele>31</ele>
        <time>2025-09-24T15:36:53Z</time>
      </trkpt>
      <trkpt lat="48.58054" lon="-4.52283">
        <ele>31</ele>
        <time>2025-09-24T15:36:54Z</time>
      </trkpt>
      <trkpt lat="48.58041" lon="-4.52274">
        <ele>32</ele>
        <time>2025-09-24T15:37:02Z</time>
      </trkpt>
      <trkpt lat="48.5804" lon="-4.52273">
        <ele>32</ele>
        <time>2025-09-24T15:37:03Z</time>
      </trkpt>
      <trkpt lat="48.58037" lon="-4.5227">
        <ele>32.2</ele>
        <time>2025-09-24T15:37:05Z</time>
      </trkpt>
      <trkpt lat="48.58035" lon="-4.52268">
        <ele>32.4</ele>
        <time>2025-09-24T15:37:07Z</time>
      </trkpt>
      <trkpt lat="48.58032" lon="-4.52265">
        <ele>32.8</ele>
        <time>2025-09-24T15:37:09Z</time>
      </trkpt>
      <trkpt lat="48.58028" lon="-4.5226">
        <ele>33</ele>
        <time>2025-09-24T15:37:12Z</time>
      </trkpt>
      <trkpt lat="48.58026" lon="-4.52257">
        <ele>33.2</ele>
        <time>2025-09-24T15:37:14Z</time>
      </trkpt>
      <trkpt lat="48.58018" lon="-4.52247">
        <ele>33.8</ele>
        <time>2025-09-24T15:37:20Z</time>
      </trkpt>
      <trkpt lat="48.58012" lon="-4.52239">
        <ele>34</ele>
        <time>2025-09-24T15:37:24Z</time>
      </trkpt>
      <trkpt lat="48.58011" lon="-4.52237">
        <ele>34.2</ele>
        <time>2025-09-24T15:37:25Z</time>
      </trkpt>
      <trkpt lat="48.58008" lon="-4.52234">
        <ele>34.4</ele>
        <time>2025-09-24T15:37:27Z</time>
      </trkpt>
      <trkpt lat="48.58006" lon="-4.52232">
        <ele>34.6</ele>
        <time>2025-09-24T15:37:28Z</time>
      </trkpt>
      <trkpt lat="48.57998" lon="-4.52224">
        <ele>35.2</ele>
        <time>2025-09-24T15:37:33Z</time>
      </trkpt>
      <trkpt lat="48.57997" lon="-4.52222">
        <ele>35.4</ele>
        <time>2025-09-24T15:37:34Z</time>
      </trkpt>
      <trkpt lat="48.57985" lon="-4.52214">
        <ele>36</ele>
        <time>2025-09-24T15:37:41Z</time>
      </trkpt>
      <trkpt lat="48.5798" lon="-4.52212">
        <ele>36.4</ele>
        <time>2025-09-24T15:37:44Z</time>
      </trkpt>
      <trkpt lat="48.57968" lon="-4.5221">
        <ele>37</ele>
        <time>2025-09-24T15:37:50Z</time>
      </trkpt>
      <trkpt lat="48.5796" lon="-4.52211">
        <ele>37.4</ele>
        <time>2025-09-24T15:37:54Z</time>
      </trkpt>
      <trkpt lat="48.57952" lon="-4.52213">
        <ele>38</ele>
        <time>2025-09-24T15:37:58Z</time>
      </trkpt>
      <trkpt lat="48.57947" lon="-4.52215">
        <ele>38.4</ele>
        <time>2025-09-24T15:38:01Z</time>
      </trkpt>
      <trkpt lat="48.57945" lon="-4.52216">
        <ele>38.6</ele>
        <time>2025-09-24T15:38:02Z</time>
      </trkpt>
      <trkpt lat="48.5794" lon="-4.52222">
        <ele>39.2</ele>
        <time>2025-09-24T15:38:06Z</time>
      </trkpt>
      <trkpt lat="48.57937" lon="-4.5223">
        <ele>39.8</ele>
        <time>2025-09-24T15:38:09Z</time>
      </trkpt>
      <trkpt lat="48.57929" lon="-4.52239">
        <ele>40.2</ele>
        <time>2025-09-24T15:38:14Z</time>
      </trkpt>
      <trkpt lat="48.57919" lon="-4.52236">
        <ele>40.2</ele>
        <time>2025-09-24T15:38:19Z</time>
      </trkpt>
      <trkpt lat="48.57906" lon="-4.52227">
        <ele>40.8</ele>
        <time>2025-09-24T15:38:26Z</time>
      </trkpt>
      <trkpt lat="48.57897" lon="-4.52229">
        <ele>41.2</ele>
        <time>2025-09-24T15:38:30Z</time>
      </trkpt>
      <trkpt lat="48.57889" lon="-4.52231">
        <ele>41.8</ele>
        <time>2025-09-24T15:38:34Z</time>
      </trkpt>
      <trkpt lat="48.57887" lon="-4.52232">
        <ele>41.8</ele>
        <time>2025-09-24T15:38:35Z</time>
      </trkpt>
      <trkpt lat="48.57869" lon="-4.52236">
        <ele>42.6</ele>
        <time>2025-09-24T15:38:44Z</time>
      </trkpt>
      <trkpt lat="48.57863" lon="-4.52237">
        <ele>42.8</ele>
        <time>2025-09-24T15:38:47Z</time>
      </trkpt>
      <trkpt lat="48.57852" lon="-4.52239">
        <ele>43.2</ele>
        <time>2025-09-24T15:38:52Z</time>
      </trkpt>
      <trkpt lat="48.57834" lon="-4.52243">
        <ele>43.8</ele>
        <time>2025-09-24T15:39:01Z</time>
      </trkpt>
      <trkpt lat="48.5783" lon="-4.52244">
        <ele>44</ele>
        <time>2025-09-24T15:39:03Z</time>
      </trkpt>
      <trkpt lat="48.57814" lon="-4.52248">
        <ele>44.4</ele>
        <time>2025-09-24T15:39:11Z</time>
      </trkpt>
      <trkpt lat="48.57798" lon="-4.52251">
        <ele>45</ele>
        <time>2025-09-24T15:39:19Z</time>
      </trkpt>
      <trkpt lat="48.57796" lon="-4.52251">
        <ele>45</ele>
        <time>2025-09-24T15:39:20Z</time>
      </trkpt>
      <trkpt lat="48.57779" lon="-4.52254">
        <ele>45.6</ele>
        <time>2025-09-24T15:39:29Z</time>
      </trkpt>
      <trkpt lat="48.57763" lon="-4.52252">
        <ele>45.6</ele>
        <time>2025-09-24T15:39:36Z</time>
      </trkpt>
      <trkpt lat="48.57758" lon="-4.52251">
        <ele>45.8</ele>
        <time>2025-09-24T15:39:38Z</time>
      </trkpt>
      <trkpt lat="48.57742" lon="-4.52241">
        <ele>45.8</ele>
        <time>2025-09-24T15:39:45Z</time>
      </trkpt>
      <trkpt lat="48.5774" lon="-4.52239">
        <ele>45.8</ele>
        <time>2025-09-24T15:39:46Z</time>
      </trkpt>
      <trkpt lat="48.57738" lon="-4.52238">
        <ele>45.8</ele>
        <time>2025-09-24T15:39:47Z</time>
      </trkpt>
      <trkpt lat="48.57735" lon="-4.52236">
        <ele>46</ele>
        <time>2025-09-24T15:39:48Z</time>
      </trkpt>
      <trkpt lat="48.57731" lon="-4.52231">
        <ele>46</ele>
        <time>2025-09-24T15:39:50Z</time>
      </trkpt>
      <trkpt lat="48.57726" lon="-4.52227">
        <ele>46.2</ele>
        <time>2025-09-24T15:39:53Z</time>
      </trkpt>
      <trkpt lat="48.57712" lon="-4.52221">
        <ele>46.6</ele>
        <time>2025-09-24T15:40:00Z</time>
      </trkpt>
      <trkpt lat="48.5769" lon="-4.52214">
        <ele>46.8</ele>
        <time>2025-09-24T15:40:09Z</time>
      </trkpt>
      <trkpt lat="48.57687" lon="-4.52214">
        <ele>46.8</ele>
        <time>2025-09-24T15:40:10Z</time>
      </trkpt>
      <trkpt lat="48.57665" lon="-4.52212">
        <ele>47</ele>
        <time>2025-09-24T15:40:18Z</time>
      </trkpt>
      <trkpt lat="48.57643" lon="-4.52214">
        <ele>47</ele>
        <time>2025-09-24T15:40:26Z</time>
      </trkpt>
      <trkpt lat="48.57617" lon="-4.5222">
        <ele>46.8</ele>
        <time>2025-09-24T15:40:34Z</time>
      </trkpt>
      <trkpt lat="48.57615" lon="-4.52218">
        <ele>46.8</ele>
        <time>2025-09-24T15:40:35Z</time>
      </trkpt>
      <trkpt lat="48.57607" lon="-4.52218">
        <ele>46.8</ele>
        <time>2025-09-24T15:40:38Z</time>
      </trkpt>
      <trkpt lat="48.57595" lon="-4.52224">
        <ele>47</ele>
        <time>2025-09-24T15:40:44Z</time>
      </trkpt>
      <trkpt lat="48.57583" lon="-4.52226">
        <ele>46.6</ele>
        <time>2025-09-24T15:40:48Z</time>
      </trkpt>
      <trkpt lat="48.57573" lon="-4.52229">
        <ele>46.4</ele>
        <time>2025-09-24T15:40:51Z</time>
      </trkpt>
      <trkpt lat="48.5756" lon="-4.52232">
        <ele>46.4</ele>
        <time>2025-09-24T15:40:55Z</time>
      </trkpt>
      <trkpt lat="48.57549" lon="-4.52234">
        <ele>46</ele>
        <time>2025-09-24T15:40:58Z</time>
      </trkpt>
      <trkpt lat="48.57514" lon="-4.5224">
        <ele>45</ele>
        <time>2025-09-24T15:41:06Z</time>
      </trkpt>
      <trkpt lat="48.57509" lon="-4.52241">
        <ele>44.8</ele>
        <time>2025-09-24T15:41:07Z</time>
      </trkpt>
      <trkpt lat="48.57504" lon="-4.52241">
        <ele>44.6</ele>
        <time>2025-09-24T15:41:08Z</time>
      </trkpt>
      <trkpt lat="48.57499" lon="-4.52241">
        <ele>44.4</ele>
        <time>2025-09-24T15:41:09Z</time>
      </trkpt>
      <trkpt lat="48.57476" lon="-4.52241">
        <ele>44.2</ele>
        <time>2025-09-24T15:41:14Z</time>
      </trkpt>
      <trkpt lat="48.57452" lon="-4.52243">
        <ele>44.2</ele>
        <time>2025-09-24T15:41:21Z</time>
      </trkpt>
      <trkpt lat="48.57449" lon="-4.52243">
        <ele>44</ele>
        <time>2025-09-24T15:41:22Z</time>
      </trkpt>
      <trkpt lat="48.57443" lon="-4.52243">
        <ele>44</ele>
        <time>2025-09-24T15:41:26Z</time>
      </trkpt>
      <trkpt lat="48.57442" lon="-4.52245">
        <ele>44</ele>
        <time>2025-09-24T15:41:27Z</time>
      </trkpt>
      <trkpt lat="48.57442" lon="-4.52249">
        <ele>43.8</ele>
        <time>2025-09-24T15:41:28Z</time>
      </trkpt>
      <trkpt lat="48.57443" lon="-4.52253">
        <ele>43.8</ele>
        <time>2025-09-24T15:41:29Z</time>
      </trkpt>
      <trkpt lat="48.57444" lon="-4.52271">
        <ele>43.8</ele>
        <time>2025-09-24T15:41:34Z</time>
      </trkpt>
      <trkpt lat="48.57437" lon="-4.52283">
        <ele>43.8</ele>
        <time>2025-09-24T15:41:38Z</time>
      </trkpt>
      <trkpt lat="48.57431" lon="-4.52302">
        <ele>43.6</ele>
        <time>2025-09-24T15:41:44Z</time>
      </trkpt>
      <trkpt lat="48.57429" lon="-4.52302">
        <ele>43.6</ele>
        <time>2025-09-24T15:41:46Z</time>
      </trkpt>
      <trkpt lat="48.57425" lon="-4.52303">
        <ele>43.4</ele>
        <time>2025-09-24T15:41:49Z</time>
      </trkpt>
      <trkpt lat="48.57417" lon="-4.52301">
        <ele>43.6</ele>
        <time>2025-09-24T15:41:54Z</time>
      </trkpt>
      <trkpt lat="48.57412" lon="-4.5229">
        <ele>43.4</ele>
        <time>2025-09-24T15:41:58Z</time>
      </trkpt>
      <trkpt lat="48.57411" lon="-4.5229">
        <ele>43.4</ele>
        <time>2025-09-24T15:41:59Z</time>
      </trkpt>
      <trkpt lat="48.57411" lon="-4.5229">
        <ele>43.4</ele>
        <time>2025-09-24T15:42:00Z</time>
      </trkpt>
      <trkpt lat="48.57412" lon="-4.52287">
        <ele>43.6</ele>
        <time>2025-09-24T15:44:48Z</time>
      </trkpt>
      <trkpt lat="48.57411" lon="-4.52286">
        <ele>43.6</ele>
        <time>2025-09-24T15:44:49Z</time>
      </trkpt>
      <trkpt lat="48.5741" lon="-4.52285">
        <ele>43.6</ele>
        <time>2025-09-24T15:44:51Z</time>
      </trkpt>
      <trkpt lat="48.57402" lon="-4.52278">
        <ele>43.8</ele>
        <time>2025-09-24T15:44:58Z</time>
      </trkpt>
      <trkpt lat="48.57401" lon="-4.52279">
        <ele>43.8</ele>
        <time>2025-09-24T15:45:01Z</time>
      </trkpt>
      <trkpt lat="48.57399" lon="-4.52279">
        <ele>43.8</ele>
        <time>2025-09-24T15:45:06Z</time>
      </trkpt>
      <trkpt lat="48.57392" lon="-4.52282">
        <ele>43.6</ele>
        <time>2025-09-24T15:45:09Z</time>
      </trkpt>
      <trkpt lat="48.57384" lon="-4.52288">
        <ele>43.4</ele>
        <time>2025-09-24T15:45:12Z</time>
      </trkpt>
      <trkpt lat="48.5736" lon="-4.523">
        <ele>42.8</ele>
        <time>2025-09-24T15:45:19Z</time>
      </trkpt>
      <trkpt lat="48.57329" lon="-4.5231">
        <ele>42.6</ele>
        <time>2025-09-24T15:45:27Z</time>
      </trkpt>
      <trkpt lat="48.57302" lon="-4.52319">
        <ele>42.2</ele>
        <time>2025-09-24T15:45:34Z</time>
      </trkpt>
      <trkpt lat="48.57295" lon="-4.52321">
        <ele>42.2</ele>
        <time>2025-09-24T15:45:36Z</time>
      </trkpt>
      <trkpt lat="48.57278" lon="-4.52326">
        <ele>41.8</ele>
        <time>2025-09-24T15:45:40Z</time>
      </trkpt>
      <trkpt lat="48.57265" lon="-4.5233">
        <ele>41.8</ele>
        <time>2025-09-24T15:45:43Z</time>
      </trkpt>
      <trkpt lat="48.57252" lon="-4.52334">
        <ele>41.6</ele>
        <time>2025-09-24T15:45:46Z</time>
      </trkpt>
      <trkpt lat="48.57234" lon="-4.5234">
        <ele>41.2</ele>
        <time>2025-09-24T15:45:50Z</time>
      </trkpt>
      <trkpt lat="48.57225" lon="-4.52345">
        <ele>41</ele>
        <time>2025-09-24T15:45:52Z</time>
      </trkpt>
      <trkpt lat="48.57212" lon="-4.52353">
        <ele>40.6</ele>
        <time>2025-09-24T15:45:55Z</time>
      </trkpt>
      <trkpt lat="48.57195" lon="-4.52363">
        <ele>40</ele>
        <time>2025-09-24T15:45:59Z</time>
      </trkpt>
      <trkpt lat="48.57189" lon="-4.52367">
        <ele>40.2</ele>
        <time>2025-09-24T15:46:01Z</time>
      </trkpt>
      <trkpt lat="48.57185" lon="-4.52372">
        <ele>40.4</ele>
        <time>2025-09-24T15:46:03Z</time>
      </trkpt>
      <trkpt lat="48.57183" lon="-4.52374">
        <ele>40.6</ele>
        <time>2025-09-24T15:46:04Z</time>
      </trkpt>
      <trkpt lat="48.57174" lon="-4.52386">
        <ele>40.2</ele>
        <time>2025-09-24T15:46:10Z</time>
      </trkpt>
      <trkpt lat="48.5717" lon="-4.52387">
        <ele>40</ele>
        <time>2025-09-24T15:46:11Z</time>
      </trkpt>
      <trkpt lat="48.57163" lon="-4.52384">
        <ele>39.8</ele>
        <time>2025-09-24T15:46:13Z</time>
      </trkpt>
      <trkpt lat="48.5716" lon="-4.52381">
        <ele>39.6</ele>
        <time>2025-09-24T15:46:14Z</time>
      </trkpt>
      <trkpt lat="48.57147" lon="-4.52367">
        <ele>39.6</ele>
        <time>2025-09-24T15:46:18Z</time>
      </trkpt>
      <trkpt lat="48.57129" lon="-4.52348">
        <ele>40.6</ele>
        <time>2025-09-24T15:46:24Z</time>
      </trkpt>
      <trkpt lat="48.57126" lon="-4.52345">
        <ele>40.8</ele>
        <time>2025-09-24T15:46:25Z</time>
      </trkpt>
      <trkpt lat="48.57112" lon="-4.5233">
        <ele>41.6</ele>
        <time>2025-09-24T15:46:30Z</time>
      </trkpt>
      <trkpt lat="48.57102" lon="-4.52318">
        <ele>42</ele>
        <time>2025-09-24T15:46:34Z</time>
      </trkpt>
      <trkpt lat="48.57095" lon="-4.52308">
        <ele>42.4</ele>
        <time>2025-09-24T15:46:37Z</time>
      </trkpt>
      <trkpt lat="48.5709" lon="-4.52303">
        <ele>42.6</ele>
        <time>2025-09-24T15:46:39Z</time>
      </trkpt>
      <trkpt lat="48.57085" lon="-4.52298">
        <ele>42.8</ele>
        <time>2025-09-24T15:46:41Z</time>
      </trkpt>
      <trkpt lat="48.57074" lon="-4.52286">
        <ele>43.6</ele>
        <time>2025-09-24T15:46:46Z</time>
      </trkpt>
      <trkpt lat="48.57064" lon="-4.52275">
        <ele>44.2</ele>
        <time>2025-09-24T15:46:50Z</time>
      </trkpt>
      <trkpt lat="48.57046" lon="-4.52258">
        <ele>44.6</ele>
        <time>2025-09-24T15:46:57Z</time>
      </trkpt>
      <trkpt lat="48.57043" lon="-4.52256">
        <ele>44.6</ele>
        <time>2025-09-24T15:46:58Z</time>
      </trkpt>
      <trkpt lat="48.57031" lon="-4.52241">
        <ele>45.6</ele>
        <time>2025-09-24T15:47:04Z</time>
      </trkpt>
      <trkpt lat="48.57029" lon="-4.52238">
        <ele>45.8</ele>
        <time>2025-09-24T15:47:05Z</time>
      </trkpt>
      <trkpt lat="48.57017" lon="-4.52223">
        <ele>46.2</ele>
        <time>2025-09-24T15:47:11Z</time>
      </trkpt>
      <trkpt lat="48.57005" lon="-4.52207">
        <ele>47</ele>
        <time>2025-09-24T15:47:17Z</time>
      </trkpt>
      <trkpt lat="48.57001" lon="-4.52201">
        <ele>47.4</ele>
        <time>2025-09-24T15:47:19Z</time>
      </trkpt>
      <trkpt lat="48.56998" lon="-4.522">
        <ele>47.4</ele>
        <time>2025-09-24T15:47:20Z</time>
      </trkpt>
      <trkpt lat="48.56993" lon="-4.52202">
        <ele>47</ele>
        <time>2025-09-24T15:47:22Z</time>
      </trkpt>
      <trkpt lat="48.56972" lon="-4.52209">
        <ele>48</ele>
        <time>2025-09-24T15:47:30Z</time>
      </trkpt>
      <trkpt lat="48.5695" lon="-4.52206">
        <ele>47.6</ele>
        <time>2025-09-24T15:47:35Z</time>
      </trkpt>
      <trkpt lat="48.5693" lon="-4.52202">
        <ele>47.2</ele>
        <time>2025-09-24T15:47:41Z</time>
      </trkpt>
      <trkpt lat="48.56916" lon="-4.52202">
        <ele>47</ele>
        <time>2025-09-24T15:47:46Z</time>
      </trkpt>
      <trkpt lat="48.56913" lon="-4.52197">
        <ele>47</ele>
        <time>2025-09-24T15:47:48Z</time>
      </trkpt>
      <trkpt lat="48.56914" lon="-4.52193">
        <ele>47</ele>
        <time>2025-09-24T15:47:49Z</time>
      </trkpt>
      <trkpt lat="48.56917" lon="-4.5218">
        <ele>47</ele>
        <time>2025-09-24T15:47:52Z</time>
      </trkpt>
      <trkpt lat="48.56918" lon="-4.5217">
        <ele>47</ele>
        <time>2025-09-24T15:47:54Z</time>
      </trkpt>
      <trkpt lat="48.5692" lon="-4.52133">
        <ele>46.8</ele>
        <time>2025-09-24T15:48:03Z</time>
      </trkpt>
      <trkpt lat="48.56929" lon="-4.52117">
        <ele>47.2</ele>
        <time>2025-09-24T15:48:08Z</time>
      </trkpt>
      <trkpt lat="48.56936" lon="-4.52113">
        <ele>47.6</ele>
        <time>2025-09-24T15:48:11Z</time>
      </trkpt>
      <trkpt lat="48.5694" lon="-4.52109">
        <ele>47.6</ele>
        <time>2025-09-24T15:48:14Z</time>
      </trkpt>
      <trkpt lat="48.5694" lon="-4.52109">
        <ele>48</ele>
        <time>2025-09-24T15:48:16Z</time>
      </trkpt>
      <trkpt lat="48.56941" lon="-4.52108">
        <ele>48.2</ele>
        <time>2025-09-24T15:48:21Z</time>
      </trkpt>
      <trkpt lat="48.56941" lon="-4.52107">
        <ele>48.2</ele>
        <time>2025-09-24T15:48:22Z</time>
      </trkpt>
      <trkpt lat="48.56942" lon="-4.52107">
        <ele>48.2</ele>
        <time>2025-09-24T15:48:25Z</time>
      </trkpt>
      <trkpt lat="48.56943" lon="-4.52108">
        <ele>48.6</ele>
        <time>2025-09-24T15:49:06Z</time>
      </trkpt>
      <trkpt lat="48.56944" lon="-4.52108">
        <ele>48.6</ele>
        <time>2025-09-24T15:49:07Z</time>
      </trkpt>
      <trkpt lat="48.56953" lon="-4.52103">
        <ele>48.2</ele>
        <time>2025-09-24T15:49:12Z</time>
      </trkpt>
      <trkpt lat="48.56969" lon="-4.52099">
        <ele>48.2</ele>
        <time>2025-09-24T15:49:18Z</time>
      </trkpt>
      <trkpt lat="48.56988" lon="-4.52097">
        <ele>48</ele>
        <time>2025-09-24T15:49:25Z</time>
      </trkpt>
      <trkpt lat="48.56994" lon="-4.52093">
        <ele>48.4</ele>
        <time>2025-09-24T15:49:30Z</time>
      </trkpt>
      <trkpt lat="48.56997" lon="-4.52092">
        <ele>48.6</ele>
        <time>2025-09-24T15:49:33Z</time>
      </trkpt>
      <trkpt lat="48.56999" lon="-4.52086">
        <ele>48.8</ele>
        <time>2025-09-24T15:49:36Z</time>
      </trkpt>
      <trkpt lat="48.57011" lon="-4.5205">
        <ele>48.4</ele>
        <time>2025-09-25T08:16:27Z</time>
      </trkpt>
      <trkpt lat="48.57011" lon="-4.5205">
        <ele>48.4</ele>
        <time>2025-09-25T08:16:35Z</time>
      </trkpt>
      <trkpt lat="48.57011" lon="-4.5205">
        <ele>48.4</ele>
        <time>2025-09-25T08:16:49Z</time>
      </trkpt>
      <trkpt lat="48.57011" lon="-4.5205">
        <ele>48.4</ele>
        <time>2025-09-25T08:16:50Z</time>
      </trkpt>
      <trkpt lat="48.57011" lon="-4.5205">
        <ele>48.4</ele>
        <time>2025-09-25T08:16:53Z</time>
      </trkpt>
      <trkpt lat="48.57011" lon="-4.5205">
        <ele>48.4</ele>
        <time>2025-09-25T08:16:55Z</time>
      </trkpt>
      <trkpt lat="48.57011" lon="-4.5205">
        <ele>48.4</ele>
        <time>2025-09-25T08:17:12Z</time>
      </trkpt>
      <trkpt lat="48.5701" lon="-4.52051">
        <ele>48.4</ele>
        <time>2025-09-25T08:17:13Z</time>
      </trkpt>
      <trkpt lat="48.57013" lon="-4.52052">
        <ele>48.4</ele>
        <time>2025-09-25T08:17:14Z</time>
      </trkpt>
      <trkpt lat="48.57013" lon="-4.52054">
        <ele>48.4</ele>
        <time>2025-09-25T08:17:16Z</time>
      </trkpt>
      <trkpt lat="48.57012" lon="-4.52052">
        <ele>48.4</ele>
        <time>2025-09-25T08:17:17Z</time>
      </trkpt>
      <trkpt lat="48.57012" lon="-4.52052">
        <ele>48.4</ele>
        <time>2025-09-25T08:17:19Z</time>
      </trkpt>
      <trkpt lat="48.57013" lon="-4.52051">
        <ele>48.4</ele>
        <time>2025-09-25T08:17:23Z</time>
      </trkpt>
      <trkpt lat="48.57014" lon="-4.52052">
        <ele>48.4</ele>
        <time>2025-09-25T08:17:24Z</time>
      </trkpt>
      <trkpt lat="48.57014" lon="-4.52053">
        <ele>48.4</ele>
        <time>2025-09-25T08:17:27Z</time>
      </trkpt>
      <trkpt lat="48.57015" lon="-4.52051">
        <ele>48.4</ele>
        <time>2025-09-25T08:17:28Z</time>
      </trkpt>
      <trkpt lat="48.57013" lon="-4.52053">
        <ele>48.4</ele>
        <time>2025-09-25T08:17:29Z</time>
      </trkpt>
      <trkpt lat="48.5702" lon="-4.52039">
        <ele>48.4</ele>
        <time>2025-09-25T08:17:46Z</time>
      </trkpt>
      <trkpt lat="48.57019" lon="-4.52037">
        <ele>48.4</ele>
        <time>2025-09-25T08:17:48Z</time>
      </trkpt>
      <trkpt lat="48.57015" lon="-4.52035">
        <ele>48.4</ele>
        <time>2025-09-25T08:17:56Z</time>
      </trkpt>
      <trkpt lat="48.57013" lon="-4.52033">
        <ele>48.2</ele>
        <time>2025-09-25T08:17:59Z</time>
      </trkpt>
      <trkpt lat="48.5701" lon="-4.52034">
        <ele>48.2</ele>
        <time>2025-09-25T08:18:02Z</time>
      </trkpt>
      <trkpt lat="48.57008" lon="-4.52035">
        <ele>48</ele>
        <time>2025-09-25T08:18:07Z</time>
      </trkpt>
      <trkpt lat="48.57003" lon="-4.52032">
        <ele>48.2</ele>
        <time>2025-09-25T08:19:57Z</time>
      </trkpt>
      <trkpt lat="48.57004" lon="-4.52034">
        <ele>48.2</ele>
        <time>2025-09-25T08:20:01Z</time>
      </trkpt>
      <trkpt lat="48.57003" lon="-4.52037">
        <ele>48.2</ele>
        <time>2025-09-25T08:20:05Z</time>
      </trkpt>
      <trkpt lat="48.57002" lon="-4.5204">
        <ele>48.2</ele>
        <time>2025-09-25T08:20:06Z</time>
      </trkpt>
      <trkpt lat="48.57002" lon="-4.52059">
        <ele>48</ele>
        <time>2025-09-25T08:20:12Z</time>
      </trkpt>
      <trkpt lat="48.57004" lon="-4.52074">
        <ele>48</ele>
        <time>2025-09-25T08:20:16Z</time>
      </trkpt>
      <trkpt lat="48.57007" lon="-4.52075">
        <ele>48</ele>
        <time>2025-09-25T08:20:17Z</time>
      </trkpt>
      <trkpt lat="48.57023" lon="-4.52074">
        <ele>47.6</ele>
        <time>2025-09-25T08:20:22Z</time>
      </trkpt>
      <trkpt lat="48.57044" lon="-4.52064">
        <ele>47.6</ele>
        <time>2025-09-25T08:20:29Z</time>
      </trkpt>
      <trkpt lat="48.57049" lon="-4.52062">
        <ele>47.6</ele>
        <time>2025-09-25T08:20:31Z</time>
      </trkpt>
      <trkpt lat="48.57057" lon="-4.52059">
        <ele>47.4</ele>
        <time>2025-09-25T08:20:34Z</time>
      </trkpt>
      <trkpt lat="48.57066" lon="-4.52058">
        <ele>47.4</ele>
        <time>2025-09-25T08:20:37Z</time>
      </trkpt>
      <trkpt lat="48.57079" lon="-4.52057">
        <ele>47.4</ele>
        <time>2025-09-25T08:20:41Z</time>
      </trkpt>
      <trkpt lat="48.57095" lon="-4.52055">
        <ele>47.2</ele>
        <time>2025-09-25T08:20:46Z</time>
      </trkpt>
      <trkpt lat="48.57125" lon="-4.52043">
        <ele>47.2</ele>
        <time>2025-09-25T08:20:56Z</time>
      </trkpt>
      <trkpt lat="48.57148" lon="-4.5202">
        <ele>47.2</ele>
        <time>2025-09-25T08:21:04Z</time>
      </trkpt>
      <trkpt lat="48.57164" lon="-4.52004">
        <ele>47.6</ele>
        <time>2025-09-25T08:21:11Z</time>
      </trkpt>
      <trkpt lat="48.57187" lon="-4.51984">
        <ele>47.8</ele>
        <time>2025-09-25T08:21:20Z</time>
      </trkpt>
      <trkpt lat="48.57204" lon="-4.5197">
        <ele>48.2</ele>
        <time>2025-09-25T08:21:27Z</time>
      </trkpt>
      <trkpt lat="48.57223" lon="-4.51959">
        <ele>48.4</ele>
        <time>2025-09-25T08:21:33Z</time>
      </trkpt>
      <trkpt lat="48.57226" lon="-4.51956">
        <ele>48.4</ele>
        <time>2025-09-25T08:21:34Z</time>
      </trkpt>
      <trkpt lat="48.57237" lon="-4.51948">
        <ele>48.8</ele>
        <time>2025-09-25T08:21:38Z</time>
      </trkpt>
      <trkpt lat="48.57244" lon="-4.51944">
        <ele>48.6</ele>
        <time>2025-09-25T08:21:40Z</time>
      </trkpt>
      <trkpt lat="48.57259" lon="-4.51931">
        <ele>49</ele>
        <time>2025-09-25T08:21:46Z</time>
      </trkpt>
      <trkpt lat="48.57262" lon="-4.51929">
        <ele>49</ele>
        <time>2025-09-25T08:21:47Z</time>
      </trkpt>
      <trkpt lat="48.57287" lon="-4.51912">
        <ele>49.2</ele>
        <time>2025-09-25T08:21:55Z</time>
      </trkpt>
      <trkpt lat="48.57302" lon="-4.51896">
        <ele>49.2</ele>
        <time>2025-09-25T08:22:01Z</time>
      </trkpt>
      <trkpt lat="48.5732" lon="-4.51872">
        <ele>49.4</ele>
        <time>2025-09-25T08:22:08Z</time>
      </trkpt>
      <trkpt lat="48.57324" lon="-4.5187">
        <ele>49.4</ele>
        <time>2025-09-25T08:22:09Z</time>
      </trkpt>
      <trkpt lat="48.57335" lon="-4.51875">
        <ele>49.6</ele>
        <time>2025-09-25T08:22:12Z</time>
      </trkpt>
      <trkpt lat="48.57342" lon="-4.51896">
        <ele>49.2</ele>
        <time>2025-09-25T08:22:16Z</time>
      </trkpt>
      <trkpt lat="48.57347" lon="-4.51931">
        <ele>48.8</ele>
        <time>2025-09-25T08:22:21Z</time>
      </trkpt>
      <trkpt lat="48.57348" lon="-4.51944">
        <ele>48.6</ele>
        <time>2025-09-25T08:22:23Z</time>
      </trkpt>
      <trkpt lat="48.5735" lon="-4.51956">
        <ele>48.4</ele>
        <time>2025-09-25T08:22:25Z</time>
      </trkpt>
      <trkpt lat="48.57353" lon="-4.51977">
        <ele>48.2</ele>
        <time>2025-09-25T08:22:29Z</time>
      </trkpt>
      <trkpt lat="48.57353" lon="-4.51983">
        <ele>48</ele>
        <time>2025-09-25T08:22:33Z</time>
      </trkpt>
      <trkpt lat="48.57351" lon="-4.51983">
        <ele>47.8</ele>
        <time>2025-09-25T08:24:34Z</time>
      </trkpt>
      <trkpt lat="48.5735" lon="-4.51987">
        <ele>48</ele>
        <time>2025-09-25T08:24:36Z</time>
      </trkpt>
      <trkpt lat="48.5735" lon="-4.5199">
        <ele>48</ele>
        <time>2025-09-25T08:24:37Z</time>
      </trkpt>
      <trkpt lat="48.57355" lon="-4.52019">
        <ele>47.6</ele>
        <time>2025-09-25T08:24:43Z</time>
      </trkpt>
      <trkpt lat="48.5736" lon="-4.52043">
        <ele>47.2</ele>
        <time>2025-09-25T08:24:47Z</time>
      </trkpt>
      <trkpt lat="48.57362" lon="-4.52056">
        <ele>47</ele>
        <time>2025-09-25T08:24:49Z</time>
      </trkpt>
      <trkpt lat="48.57365" lon="-4.52071">
        <ele>46.8</ele>
        <time>2025-09-25T08:24:51Z</time>
      </trkpt>
      <trkpt lat="48.57378" lon="-4.5213">
        <ele>46.2</ele>
        <time>2025-09-25T08:24:59Z</time>
      </trkpt>
      <trkpt lat="48.57382" lon="-4.52154">
        <ele>45.8</ele>
        <time>2025-09-25T08:25:02Z</time>
      </trkpt>
      <trkpt lat="48.57389" lon="-4.52186">
        <ele>45.2</ele>
        <time>2025-09-25T08:25:06Z</time>
      </trkpt>
      <trkpt lat="48.57391" lon="-4.52194">
        <ele>45</ele>
        <time>2025-09-25T08:25:07Z</time>
      </trkpt>
      <trkpt lat="48.57394" lon="-4.52202">
        <ele>45</ele>
        <time>2025-09-25T08:25:08Z</time>
      </trkpt>
      <trkpt lat="48.57401" lon="-4.52216">
        <ele>44.8</ele>
        <time>2025-09-25T08:25:10Z</time>
      </trkpt>
      <trkpt lat="48.57405" lon="-4.52223">
        <ele>44.8</ele>
        <time>2025-09-25T08:25:11Z</time>
      </trkpt>
      <trkpt lat="48.57409" lon="-4.52229">
        <ele>44.8</ele>
        <time>2025-09-25T08:25:12Z</time>
      </trkpt>
      <trkpt lat="48.57414" lon="-4.52235">
        <ele>44.6</ele>
        <time>2025-09-25T08:25:13Z</time>
      </trkpt>
      <trkpt lat="48.57428" lon="-4.52249">
        <ele>44.2</ele>
        <time>2025-09-25T08:25:16Z</time>
      </trkpt>
      <trkpt lat="48.57432" lon="-4.52264">
        <ele>44.4</ele>
        <time>2025-09-25T08:25:18Z</time>
      </trkpt>
      <trkpt lat="48.57432" lon="-4.52271">
        <ele>44.4</ele>
        <time>2025-09-25T08:25:19Z</time>
      </trkpt>
      <trkpt lat="48.57429" lon="-4.52277">
        <ele>44.4</ele>
        <time>2025-09-25T08:25:20Z</time>
      </trkpt>
      <trkpt lat="48.57421" lon="-4.52282">
        <ele>44.4</ele>
        <time>2025-09-25T08:25:22Z</time>
      </trkpt>
      <trkpt lat="48.57412" lon="-4.52281">
        <ele>44.2</ele>
        <time>2025-09-25T08:25:24Z</time>
      </trkpt>
      <trkpt lat="48.57402" lon="-4.52278">
        <ele>44.2</ele>
        <time>2025-09-25T08:25:26Z</time>
      </trkpt>
      <trkpt lat="48.57397" lon="-4.52278">
        <ele>44</ele>
        <time>2025-09-25T08:25:27Z</time>
      </trkpt>
      <trkpt lat="48.57389" lon="-4.52285">
        <ele>43.6</ele>
        <time>2025-09-25T08:25:29Z</time>
      </trkpt>
      <trkpt lat="48.57369" lon="-4.52298">
        <ele>43.2</ele>
        <time>2025-09-25T08:25:33Z</time>
      </trkpt>
      <trkpt lat="48.57359" lon="-4.52301">
        <ele>43</ele>
        <time>2025-09-25T08:25:35Z</time>
      </trkpt>
      <trkpt lat="48.57328" lon="-4.52309">
        <ele>42.6</ele>
        <time>2025-09-25T08:25:41Z</time>
      </trkpt>
      <trkpt lat="48.57308" lon="-4.52315">
        <ele>42.4</ele>
        <time>2025-09-25T08:25:45Z</time>
      </trkpt>
      <trkpt lat="48.57303" lon="-4.52317">
        <ele>42.4</ele>
        <time>2025-09-25T08:25:46Z</time>
      </trkpt>
      <trkpt lat="48.57274" lon="-4.52326">
        <ele>42.2</ele>
        <time>2025-09-25T08:25:52Z</time>
      </trkpt>
      <trkpt lat="48.57255" lon="-4.52332">
        <ele>42</ele>
        <time>2025-09-25T08:25:56Z</time>
      </trkpt>
      <trkpt lat="48.57227" lon="-4.52343">
        <ele>41.8</ele>
        <time>2025-09-25T08:26:02Z</time>
      </trkpt>
      <trkpt lat="48.57217" lon="-4.52348">
        <ele>41.6</ele>
        <time>2025-09-25T08:26:04Z</time>
      </trkpt>
      <trkpt lat="48.57193" lon="-4.52363">
        <ele>40.8</ele>
        <time>2025-09-25T08:26:09Z</time>
      </trkpt>
      <trkpt lat="48.57183" lon="-4.52375">
        <ele>40.6</ele>
        <time>2025-09-25T08:26:13Z</time>
      </trkpt>
      <trkpt lat="48.57181" lon="-4.52379">
        <ele>40.4</ele>
        <time>2025-09-25T08:26:14Z</time>
      </trkpt>
      <trkpt lat="48.57172" lon="-4.52388">
        <ele>40.2</ele>
        <time>2025-09-25T08:26:17Z</time>
      </trkpt>
      <trkpt lat="48.57168" lon="-4.52391">
        <ele>40.2</ele>
        <time>2025-09-25T08:26:18Z</time>
      </trkpt>
      <trkpt lat="48.57164" lon="-4.52394">
        <ele>40</ele>
        <time>2025-09-25T08:26:19Z</time>
      </trkpt>
      <trkpt lat="48.57156" lon="-4.52403">
        <ele>39.8</ele>
        <time>2025-09-25T08:26:21Z</time>
      </trkpt>
      <trkpt lat="48.57148" lon="-4.52413">
        <ele>39.4</ele>
        <time>2025-09-25T08:26:23Z</time>
      </trkpt>
      <trkpt lat="48.57144" lon="-4.5242">
        <ele>39.2</ele>
        <time>2025-09-25T08:26:24Z</time>
      </trkpt>
      <trkpt lat="48.5713" lon="-4.52449">
        <ele>38.4</ele>
        <time>2025-09-25T08:26:28Z</time>
      </trkpt>
      <trkpt lat="48.57127" lon="-4.52456">
        <ele>38.4</ele>
        <time>2025-09-25T08:26:29Z</time>
      </trkpt>
      <trkpt lat="48.57105" lon="-4.52494">
        <ele>38</ele>
        <time>2025-09-25T08:26:35Z</time>
      </trkpt>
      <trkpt lat="48.57093" lon="-4.52508">
        <ele>38.2</ele>
        <time>2025-09-25T08:26:38Z</time>
      </trkpt>
      <trkpt lat="48.57085" lon="-4.52514">
        <ele>38.2</ele>
        <time>2025-09-25T08:26:40Z</time>
      </trkpt>
      <trkpt lat="48.57076" lon="-4.52515">
        <ele>38.2</ele>
        <time>2025-09-25T08:26:42Z</time>
      </trkpt>
      <trkpt lat="48.57067" lon="-4.52514">
        <ele>38.2</ele>
        <time>2025-09-25T08:26:44Z</time>
      </trkpt>
      <trkpt lat="48.57057" lon="-4.52511">
        <ele>38</ele>
        <time>2025-09-25T08:26:46Z</time>
      </trkpt>
      <trkpt lat="48.57042" lon="-4.52503">
        <ele>37.8</ele>
        <time>2025-09-25T08:26:49Z</time>
      </trkpt>
      <trkpt lat="48.57032" lon="-4.52495">
        <ele>37.6</ele>
        <time>2025-09-25T08:26:53Z</time>
      </trkpt>
      <trkpt lat="48.57027" lon="-4.52492">
        <ele>37.4</ele>
        <time>2025-09-25T08:26:58Z</time>
      </trkpt>
      <trkpt lat="48.57011" lon="-4.52486">
        <ele>37.2</ele>
        <time>2025-09-25T08:27:06Z</time>
      </trkpt>
      <trkpt lat="48.57" lon="-4.52485">
        <ele>38</ele>
        <time>2025-09-25T08:27:12Z</time>
      </trkpt>
      <trkpt lat="48.56998" lon="-4.52486">
        <ele>38.4</ele>
        <time>2025-09-25T08:27:14Z</time>
      </trkpt>
      <trkpt lat="48.5699" lon="-4.52488">
        <ele>39</ele>
        <time>2025-09-25T08:27:18Z</time>
      </trkpt>
      <trkpt lat="48.56971" lon="-4.52496">
        <ele>39.4</ele>
        <time>2025-09-25T08:27:25Z</time>
      </trkpt>
      <trkpt lat="48.56969" lon="-4.52499">
        <ele>39.4</ele>
        <time>2025-09-25T08:27:26Z</time>
      </trkpt>
      <trkpt lat="48.56953" lon="-4.52512">
        <ele>39.2</ele>
        <time>2025-09-25T08:27:31Z</time>
      </trkpt>
      <trkpt lat="48.56942" lon="-4.52518">
        <ele>39</ele>
        <time>2025-09-25T08:27:34Z</time>
      </trkpt>
      <trkpt lat="48.56932" lon="-4.52525">
        <ele>39</ele>
        <time>2025-09-25T08:27:37Z</time>
      </trkpt>
      <trkpt lat="48.56928" lon="-4.52527">
        <ele>39</ele>
        <time>2025-09-25T08:27:38Z</time>
      </trkpt>
      <trkpt lat="48.56913" lon="-4.5253">
        <ele>38.6</ele>
        <time>2025-09-25T08:27:42Z</time>
      </trkpt>
      <trkpt lat="48.56911" lon="-4.52528">
        <ele>38.8</ele>
        <time>2025-09-25T08:27:43Z</time>
      </trkpt>
      <trkpt lat="48.56906" lon="-4.52513">
        <ele>39</ele>
        <time>2025-09-25T08:27:47Z</time>
      </trkpt>
      <trkpt lat="48.56899" lon="-4.52482">
        <ele>40</ele>
        <time>2025-09-25T08:27:55Z</time>
      </trkpt>
      <trkpt lat="48.56893" lon="-4.52452">
        <ele>40.4</ele>
        <time>2025-09-25T08:28:03Z</time>
      </trkpt>
      <trkpt lat="48.56892" lon="-4.52449">
        <ele>40.4</ele>
        <time>2025-09-25T08:28:04Z</time>
      </trkpt>
      <trkpt lat="48.5689" lon="-4.5243">
        <ele>40.6</ele>
        <time>2025-09-25T08:28:11Z</time>
      </trkpt>
      <trkpt lat="48.56888" lon="-4.52431">
        <ele>40.8</ele>
        <time>2025-09-25T08:28:15Z</time>
      </trkpt>
      <trkpt lat="48.56885" lon="-4.52429">
        <ele>40.6</ele>
        <time>2025-09-25T08:28:19Z</time>
      </trkpt>
      <trkpt lat="48.56884" lon="-4.52429">
        <ele>40.6</ele>
        <time>2025-09-25T08:28:20Z</time>
      </trkpt>
      <trkpt lat="48.56879" lon="-4.52428">
        <ele>40.4</ele>
        <time>2025-09-25T08:28:22Z</time>
      </trkpt>
      <trkpt lat="48.56872" lon="-4.52431">
        <ele>40.2</ele>
        <time>2025-09-25T08:28:25Z</time>
      </trkpt>
      <trkpt lat="48.56862" lon="-4.52437">
        <ele>40</ele>
        <time>2025-09-25T08:28:29Z</time>
      </trkpt>
      <trkpt lat="48.56853" lon="-4.52441">
        <ele>40</ele>
        <time>2025-09-25T08:28:33Z</time>
      </trkpt>
      <trkpt lat="48.56847" lon="-4.52453">
        <ele>39.8</ele>
        <time>2025-09-25T08:28:38Z</time>
      </trkpt>
      <trkpt lat="48.56844" lon="-4.52462">
        <ele>39.4</ele>
        <time>2025-09-25T08:28:40Z</time>
      </trkpt>
      <trkpt lat="48.56834" lon="-4.5248">
        <ele>38.4</ele>
        <time>2025-09-25T08:28:46Z</time>
      </trkpt>
      <trkpt lat="48.56831" lon="-4.52481">
        <ele>38.4</ele>
        <time>2025-09-25T08:28:47Z</time>
      </trkpt>
      <trkpt lat="48.56815" lon="-4.52493">
        <ele>37.6</ele>
        <time>2025-09-25T08:28:52Z</time>
      </trkpt>
      <trkpt lat="48.56808" lon="-4.52492">
        <ele>37.2</ele>
        <time>2025-09-25T08:28:54Z</time>
      </trkpt>
      <trkpt lat="48.56803" lon="-4.52487">
        <ele>37</ele>
        <time>2025-09-25T08:28:56Z</time>
      </trkpt>
      <trkpt lat="48.5679" lon="-4.52471">
        <ele>36.4</ele>
        <time>2025-09-25T08:29:01Z</time>
      </trkpt>
      <trkpt lat="48.56787" lon="-4.52473">
        <ele>36.2</ele>
        <time>2025-09-25T08:29:02Z</time>
      </trkpt>
      <trkpt lat="48.56782" lon="-4.5248">
        <ele>35.8</ele>
        <time>2025-09-25T08:29:04Z</time>
      </trkpt>
      <trkpt lat="48.56778" lon="-4.52488">
        <ele>35.2</ele>
        <time>2025-09-25T08:29:06Z</time>
      </trkpt>
      <trkpt lat="48.5677" lon="-4.52508">
        <ele>33.8</ele>
        <time>2025-09-25T08:29:10Z</time>
      </trkpt>
      <trkpt lat="48.56767" lon="-4.52521">
        <ele>33.2</ele>
        <time>2025-09-25T08:29:12Z</time>
      </trkpt>
      <trkpt lat="48.56766" lon="-4.52528">
        <ele>32.6</ele>
        <time>2025-09-25T08:29:13Z</time>
      </trkpt>
      <trkpt lat="48.56763" lon="-4.5254">
        <ele>32</ele>
        <time>2025-09-25T08:29:15Z</time>
      </trkpt>
      <trkpt lat="48.56761" lon="-4.52543">
        <ele>31.6</ele>
        <time>2025-09-25T08:29:16Z</time>
      </trkpt>
      <trkpt lat="48.56759" lon="-4.52547">
        <ele>31</ele>
        <time>2025-09-25T08:29:18Z</time>
      </trkpt>
      <trkpt lat="48.56756" lon="-4.52552">
        <ele>30.4</ele>
        <time>2025-09-25T08:29:22Z</time>
      </trkpt>
      <trkpt lat="48.56756" lon="-4.52558">
        <ele>30.4</ele>
        <time>2025-09-25T08:29:24Z</time>
      </trkpt>
      <trkpt lat="48.56752" lon="-4.52583">
        <ele>29.6</ele>
        <time>2025-09-25T08:29:29Z</time>
      </trkpt>
      <trkpt lat="48.5675" lon="-4.5259">
        <ele>29.4</ele>
        <time>2025-09-25T08:29:30Z</time>
      </trkpt>
      <trkpt lat="48.56747" lon="-4.52595">
        <ele>29.2</ele>
        <time>2025-09-25T08:29:31Z</time>
      </trkpt>
      <trkpt lat="48.56737" lon="-4.52612">
        <ele>28.2</ele>
        <time>2025-09-25T08:29:34Z</time>
      </trkpt>
      <trkpt lat="48.56716" lon="-4.52639">
        <ele>27.6</ele>
        <time>2025-09-25T08:29:39Z</time>
      </trkpt>
      <trkpt lat="48.56705" lon="-4.52652">
        <ele>27.8</ele>
        <time>2025-09-25T08:29:42Z</time>
      </trkpt>
      <trkpt lat="48.56688" lon="-4.52669">
        <ele>28.8</ele>
        <time>2025-09-25T08:29:48Z</time>
      </trkpt>
      <trkpt lat="48.56678" lon="-4.52673">
        <ele>29.2</ele>
        <time>2025-09-25T08:29:52Z</time>
      </trkpt>
      <trkpt lat="48.56676" lon="-4.52673">
        <ele>29.4</ele>
        <time>2025-09-25T08:29:53Z</time>
      </trkpt>
      <trkpt lat="48.56668" lon="-4.52674">
        <ele>30.2</ele>
        <time>2025-09-25T08:29:57Z</time>
      </trkpt>
      <trkpt lat="48.56667" lon="-4.52674">
        <ele>30.6</ele>
        <time>2025-09-25T08:29:58Z</time>
      </trkpt>
      <trkpt lat="48.56664" lon="-4.52674">
        <ele>31</ele>
        <time>2025-09-25T08:30:00Z</time>
      </trkpt>
      <trkpt lat="48.56659" lon="-4.52675">
        <ele>31.6</ele>
        <time>2025-09-25T08:30:03Z</time>
      </trkpt>
      <trkpt lat="48.56652" lon="-4.52678">
        <ele>32.6</ele>
        <time>2025-09-25T08:30:08Z</time>
      </trkpt>
      <trkpt lat="48.56643" lon="-4.52684">
        <ele>33.8</ele>
        <time>2025-09-25T08:30:13Z</time>
      </trkpt>
      <trkpt lat="48.56639" lon="-4.52687">
        <ele>34.4</ele>
        <time>2025-09-25T08:30:16Z</time>
      </trkpt>
      <trkpt lat="48.56636" lon="-4.52689">
        <ele>34.8</ele>
        <time>2025-09-25T08:30:18Z</time>
      </trkpt>
      <trkpt lat="48.5663" lon="-4.52694">
        <ele>35.6</ele>
        <time>2025-09-25T08:30:22Z</time>
      </trkpt>
      <trkpt lat="48.56627" lon="-4.52697">
        <ele>36</ele>
        <time>2025-09-25T08:30:24Z</time>
      </trkpt>
      <trkpt lat="48.56623" lon="-4.52702">
        <ele>36.6</ele>
        <time>2025-09-25T08:30:28Z</time>
      </trkpt>
      <trkpt lat="48.5662" lon="-4.52705">
        <ele>37.2</ele>
        <time>2025-09-25T08:30:30Z</time>
      </trkpt>
      <trkpt lat="48.56615" lon="-4.52709">
        <ele>37.8</ele>
        <time>2025-09-25T08:30:34Z</time>
      </trkpt>
      <trkpt lat="48.56612" lon="-4.52712">
        <ele>38.2</ele>
        <time>2025-09-25T08:30:36Z</time>
      </trkpt>
      <trkpt lat="48.56609" lon="-4.52719">
        <ele>39</ele>
        <time>2025-09-25T08:30:40Z</time>
      </trkpt>
      <trkpt lat="48.56607" lon="-4.52724">
        <ele>39.2</ele>
        <time>2025-09-25T08:30:43Z</time>
      </trkpt>
      <trkpt lat="48.56603" lon="-4.52729">
        <ele>39.6</ele>
        <time>2025-09-25T08:30:48Z</time>
      </trkpt>
      <trkpt lat="48.56603" lon="-4.52729">
        <ele>39.8</ele>
        <time>2025-09-25T08:30:49Z</time>
      </trkpt>
      <trkpt lat="48.56601" lon="-4.5273">
        <ele>39.8</ele>
        <time>2025-09-25T08:31:03Z</time>
      </trkpt>
      <trkpt lat="48.56598" lon="-4.5273">
        <ele>39.6</ele>
        <time>2025-09-25T08:31:05Z</time>
      </trkpt>
      <trkpt lat="48.56596" lon="-4.52728">
        <ele>39.6</ele>
        <time>2025-09-25T08:31:06Z</time>
      </trkpt>
      <trkpt lat="48.56588" lon="-4.52714">
        <ele>39.8</ele>
        <time>2025-09-25T08:31:11Z</time>
      </trkpt>
      <trkpt lat="48.56575" lon="-4.52692">
        <ele>39.8</ele>
        <time>2025-09-25T08:31:18Z</time>
      </trkpt>
      <trkpt lat="48.56573" lon="-4.52689">
        <ele>39.8</ele>
        <time>2025-09-25T08:31:19Z</time>
      </trkpt>
      <trkpt lat="48.5656" lon="-4.52662">
        <ele>39.2</ele>
        <time>2025-09-25T08:31:26Z</time>
      </trkpt>
      <trkpt lat="48.56538" lon="-4.52633">
        <ele>39</ele>
        <time>2025-09-25T08:31:34Z</time>
      </trkpt>
      <trkpt lat="48.56529" lon="-4.52627">
        <ele>39</ele>
        <time>2025-09-25T08:31:38Z</time>
      </trkpt>
      <trkpt lat="48.56522" lon="-4.52623">
        <ele>38.8</ele>
        <time>2025-09-25T08:31:44Z</time>
      </trkpt>
      <trkpt lat="48.56514" lon="-4.52614">
        <ele>38.8</ele>
        <time>2025-09-25T08:31:47Z</time>
      </trkpt>
      <trkpt lat="48.56512" lon="-4.52609">
        <ele>38.8</ele>
        <time>2025-09-25T08:31:48Z</time>
      </trkpt>
      <trkpt lat="48.5651" lon="-4.52602">
        <ele>38.8</ele>
        <time>2025-09-25T08:31:49Z</time>
      </trkpt>
      <trkpt lat="48.56507" lon="-4.52579">
        <ele>38.2</ele>
        <time>2025-09-25T08:31:52Z</time>
      </trkpt>
      <trkpt lat="48.56505" lon="-4.52572">
        <ele>38</ele>
        <time>2025-09-25T08:31:53Z</time>
      </trkpt>
      <trkpt lat="48.565" lon="-4.52559">
        <ele>38</ele>
        <time>2025-09-25T08:31:55Z</time>
      </trkpt>
      <trkpt lat="48.56492" lon="-4.52542">
        <ele>38</ele>
        <time>2025-09-25T08:31:58Z</time>
      </trkpt>
      <trkpt lat="48.56482" lon="-4.52526">
        <ele>37.8</ele>
        <time>2025-09-25T08:32:01Z</time>
      </trkpt>
      <trkpt lat="48.56466" lon="-4.52502">
        <ele>37.2</ele>
        <time>2025-09-25T08:32:06Z</time>
      </trkpt>
      <trkpt lat="48.56462" lon="-4.52497">
        <ele>37</ele>
        <time>2025-09-25T08:32:07Z</time>
      </trkpt>
      <trkpt lat="48.56453" lon="-4.52495">
        <ele>36.8</ele>
        <time>2025-09-25T08:32:09Z</time>
      </trkpt>
      <trkpt lat="48.56444" lon="-4.52501">
        <ele>37</ele>
        <time>2025-09-25T08:32:11Z</time>
      </trkpt>
      <trkpt lat="48.56437" lon="-4.52507">
        <ele>37.2</ele>
        <time>2025-09-25T08:32:13Z</time>
      </trkpt>
      <trkpt lat="48.56414" lon="-4.52532">
        <ele>37.6</ele>
        <time>2025-09-25T08:32:20Z</time>
      </trkpt>
      <trkpt lat="48.56405" lon="-4.52542">
        <ele>37.8</ele>
        <time>2025-09-25T08:32:23Z</time>
      </trkpt>
      <trkpt lat="48.56393" lon="-4.52554">
        <ele>37.6</ele>
        <time>2025-09-25T08:32:27Z</time>
      </trkpt>
      <trkpt lat="48.56377" lon="-4.52569">
        <ele>37.6</ele>
        <time>2025-09-25T08:32:32Z</time>
      </trkpt>
      <trkpt lat="48.5635" lon="-4.52584">
        <ele>37.2</ele>
        <time>2025-09-25T08:32:39Z</time>
      </trkpt>
      <trkpt lat="48.56327" lon="-4.52587">
        <ele>36.8</ele>
        <time>2025-09-25T08:32:44Z</time>
      </trkpt>
      <trkpt lat="48.56317" lon="-4.52586">
        <ele>36.4</ele>
        <time>2025-09-25T08:32:46Z</time>
      </trkpt>
      <trkpt lat="48.56306" lon="-4.52582">
        <ele>36.2</ele>
        <time>2025-09-25T08:32:48Z</time>
      </trkpt>
      <trkpt lat="48.56287" lon="-4.52571">
        <ele>35.6</ele>
        <time>2025-09-25T08:32:52Z</time>
      </trkpt>
      <trkpt lat="48.56271" lon="-4.52561">
        <ele>35.2</ele>
        <time>2025-09-25T08:32:55Z</time>
      </trkpt>
      <trkpt lat="48.56248" lon="-4.52547">
        <ele>34.4</ele>
        <time>2025-09-25T08:32:59Z</time>
      </trkpt>
      <trkpt lat="48.56226" lon="-4.52533">
        <ele>34</ele>
        <time>2025-09-25T08:33:03Z</time>
      </trkpt>
      <trkpt lat="48.56188" lon="-4.52508">
        <ele>33.2</ele>
        <time>2025-09-25T08:33:10Z</time>
      </trkpt>
      <trkpt lat="48.5616" lon="-4.52491">
        <ele>33</ele>
        <time>2025-09-25T08:33:16Z</time>
      </trkpt>
      <trkpt lat="48.56138" lon="-4.52476">
        <ele>33</ele>
        <time>2025-09-25T08:33:22Z</time>
      </trkpt>
      <trkpt lat="48.56134" lon="-4.52474">
        <ele>33</ele>
        <time>2025-09-25T08:33:23Z</time>
      </trkpt>
      <trkpt lat="48.56118" lon="-4.52463">
        <ele>32.8</ele>
        <time>2025-09-25T08:33:28Z</time>
      </trkpt>
      <trkpt lat="48.56114" lon="-4.52462">
        <ele>32.8</ele>
        <time>2025-09-25T08:33:29Z</time>
      </trkpt>
      <trkpt lat="48.5611" lon="-4.52463">
        <ele>32.6</ele>
        <time>2025-09-25T08:33:30Z</time>
      </trkpt>
      <trkpt lat="48.56106" lon="-4.52466">
        <ele>32.6</ele>
        <time>2025-09-25T08:33:31Z</time>
      </trkpt>
      <trkpt lat="48.56104" lon="-4.52471">
        <ele>32.4</ele>
        <time>2025-09-25T08:33:32Z</time>
      </trkpt>
      <trkpt lat="48.56102" lon="-4.52484">
        <ele>32.2</ele>
        <time>2025-09-25T08:33:34Z</time>
      </trkpt>
      <trkpt lat="48.56101" lon="-4.52491">
        <ele>32</ele>
        <time>2025-09-25T08:33:35Z</time>
      </trkpt>
      <trkpt lat="48.561" lon="-4.52498">
        <ele>31.8</ele>
        <time>2025-09-25T08:33:36Z</time>
      </trkpt>
      <trkpt lat="48.56095" lon="-4.52521">
        <ele>31.4</ele>
        <time>2025-09-25T08:33:39Z</time>
      </trkpt>
      <trkpt lat="48.56091" lon="-4.52545">
        <ele>30.8</ele>
        <time>2025-09-25T08:33:42Z</time>
      </trkpt>
      <trkpt lat="48.56089" lon="-4.52552">
        <ele>30.6</ele>
        <time>2025-09-25T08:33:43Z</time>
      </trkpt>
      <trkpt lat="48.56081" lon="-4.52597">
        <ele>29.8</ele>
        <time>2025-09-25T08:33:49Z</time>
      </trkpt>
      <trkpt lat="48.56075" lon="-4.52619">
        <ele>29.6</ele>
        <time>2025-09-25T08:33:52Z</time>
      </trkpt>
      <trkpt lat="48.56068" lon="-4.52643">
        <ele>29.6</ele>
        <time>2025-09-25T08:33:55Z</time>
      </trkpt>
      <trkpt lat="48.56061" lon="-4.52682">
        <ele>28.6</ele>
        <time>2025-09-25T08:34:00Z</time>
      </trkpt>
      <trkpt lat="48.5606" lon="-4.5269">
        <ele>28.4</ele>
        <time>2025-09-25T08:34:01Z</time>
      </trkpt>
      <trkpt lat="48.56055" lon="-4.52749">
        <ele>27.8</ele>
        <time>2025-09-25T08:34:08Z</time>
      </trkpt>
      <trkpt lat="48.56055" lon="-4.52784">
        <ele>27.8</ele>
        <time>2025-09-25T08:34:13Z</time>
      </trkpt>
      <trkpt lat="48.56055" lon="-4.52791">
        <ele>28</ele>
        <time>2025-09-25T08:34:14Z</time>
      </trkpt>
      <trkpt lat="48.56055" lon="-4.52822">
        <ele>28.2</ele>
        <time>2025-09-25T08:34:20Z</time>
      </trkpt>
      <trkpt lat="48.56052" lon="-4.52839">
        <ele>28.6</ele>
        <time>2025-09-25T08:34:25Z</time>
      </trkpt>
      <trkpt lat="48.56051" lon="-4.52842">
        <ele>28.6</ele>
        <time>2025-09-25T08:34:26Z</time>
      </trkpt>
      <trkpt lat="48.56038" lon="-4.52855">
        <ele>29.2</ele>
        <time>2025-09-25T08:34:33Z</time>
      </trkpt>
      <trkpt lat="48.56024" lon="-4.52862">
        <ele>29.6</ele>
        <time>2025-09-25T08:34:40Z</time>
      </trkpt>
      <trkpt lat="48.56012" lon="-4.52867">
        <ele>29.6</ele>
        <time>2025-09-25T08:34:45Z</time>
      </trkpt>
      <trkpt lat="48.56009" lon="-4.52868">
        <ele>29.6</ele>
        <time>2025-09-25T08:34:46Z</time>
      </trkpt>
      <trkpt lat="48.55992" lon="-4.52878">
        <ele>28.8</ele>
        <time>2025-09-25T08:34:53Z</time>
      </trkpt>
      <trkpt lat="48.55979" lon="-4.52888">
        <ele>28</ele>
        <time>2025-09-25T08:34:59Z</time>
      </trkpt>
      <trkpt lat="48.55978" lon="-4.52898">
        <ele>27.8</ele>
        <time>2025-09-25T08:35:02Z</time>
      </trkpt>
      <trkpt lat="48.55979" lon="-4.52902">
        <ele>28</ele>
        <time>2025-09-25T08:35:03Z</time>
      </trkpt>
      <trkpt lat="48.55982" lon="-4.52928">
        <ele>28.2</ele>
        <time>2025-09-25T08:35:10Z</time>
      </trkpt>
      <trkpt lat="48.55985" lon="-4.52949">
        <ele>28.4</ele>
        <time>2025-09-25T08:35:16Z</time>
      </trkpt>
      <trkpt lat="48.55989" lon="-4.52975">
        <ele>28.6</ele>
        <time>2025-09-25T08:35:23Z</time>
      </trkpt>
      <trkpt lat="48.55993" lon="-4.53">
        <ele>28.6</ele>
        <time>2025-09-25T08:35:29Z</time>
      </trkpt>
      <trkpt lat="48.55999" lon="-4.53027">
        <ele>28.8</ele>
        <time>2025-09-25T08:35:36Z</time>
      </trkpt>
      <trkpt lat="48.56005" lon="-4.53061">
        <ele>28.8</ele>
        <time>2025-09-25T08:35:43Z</time>
      </trkpt>
      <trkpt lat="48.56008" lon="-4.53094">
        <ele>29</ele>
        <time>2025-09-25T08:35:50Z</time>
      </trkpt>
      <trkpt lat="48.56018" lon="-4.53118">
        <ele>29</ele>
        <time>2025-09-25T08:35:56Z</time>
      </trkpt>
      <trkpt lat="48.5603" lon="-4.53143">
        <ele>29.8</ele>
        <time>2025-09-25T08:36:03Z</time>
      </trkpt>
      <trkpt lat="48.56032" lon="-4.5315">
        <ele>30.2</ele>
        <time>2025-09-25T08:36:05Z</time>
      </trkpt>
      <trkpt lat="48.56037" lon="-4.53163">
        <ele>30.8</ele>
        <time>2025-09-25T08:36:09Z</time>
      </trkpt>
      <trkpt lat="48.56041" lon="-4.53175">
        <ele>31.4</ele>
        <time>2025-09-25T08:36:12Z</time>
      </trkpt>
      <trkpt lat="48.56045" lon="-4.53186">
        <ele>31.8</ele>
        <time>2025-09-25T08:36:15Z</time>
      </trkpt>
      <trkpt lat="48.56047" lon="-4.53198">
        <ele>32.2</ele>
        <time>2025-09-25T08:36:18Z</time>
      </trkpt>
      <trkpt lat="48.56053" lon="-4.5322">
        <ele>32.6</ele>
        <time>2025-09-25T08:36:24Z</time>
      </trkpt>
      <trkpt lat="48.56056" lon="-4.53239">
        <ele>32.4</ele>
        <time>2025-09-25T08:36:29Z</time>
      </trkpt>
      <trkpt lat="48.56047" lon="-4.53254">
        <ele>32</ele>
        <time>2025-09-25T08:36:34Z</time>
      </trkpt>
      <trkpt lat="48.56039" lon="-4.53259">
        <ele>31.6</ele>
        <time>2025-09-25T08:36:36Z</time>
      </trkpt>
      <trkpt lat="48.56026" lon="-4.53268">
        <ele>31</ele>
        <time>2025-09-25T08:36:39Z</time>
      </trkpt>
      <trkpt lat="48.56021" lon="-4.53271">
        <ele>30.8</ele>
        <time>2025-09-25T08:36:40Z</time>
      </trkpt>
      <trkpt lat="48.55998" lon="-4.53288">
        <ele>29.4</ele>
        <time>2025-09-25T08:36:44Z</time>
      </trkpt>
      <trkpt lat="48.55975" lon="-4.53303">
        <ele>28.2</ele>
        <time>2025-09-25T08:36:47Z</time>
      </trkpt>
      <trkpt lat="48.55959" lon="-4.53314">
        <ele>27.2</ele>
        <time>2025-09-25T08:36:49Z</time>
      </trkpt>
      <trkpt lat="48.5595" lon="-4.53318">
        <ele>26.6</ele>
        <time>2025-09-25T08:36:50Z</time>
      </trkpt>
      <trkpt lat="48.5593" lon="-4.53326">
        <ele>25.4</ele>
        <time>2025-09-25T08:36:52Z</time>
      </trkpt>
      <trkpt lat="48.5592" lon="-4.53329">
        <ele>25</ele>
        <time>2025-09-25T08:36:53Z</time>
      </trkpt>
      <trkpt lat="48.5591" lon="-4.53331">
        <ele>24.4</ele>
        <time>2025-09-25T08:36:54Z</time>
      </trkpt>
      <trkpt lat="48.55889" lon="-4.53334">
        <ele>23.2</ele>
        <time>2025-09-25T08:36:56Z</time>
      </trkpt>
      <trkpt lat="48.55858" lon="-4.53338">
        <ele>21.4</ele>
        <time>2025-09-25T08:36:59Z</time>
      </trkpt>
      <trkpt lat="48.55836" lon="-4.5334">
        <ele>19.8</ele>
        <time>2025-09-25T08:37:01Z</time>
      </trkpt>
      <trkpt lat="48.55805" lon="-4.53343">
        <ele>18</ele>
        <time>2025-09-25T08:37:04Z</time>
      </trkpt>
      <trkpt lat="48.55784" lon="-4.53345">
        <ele>16.8</ele>
        <time>2025-09-25T08:37:06Z</time>
      </trkpt>
      <trkpt lat="48.55764" lon="-4.53347">
        <ele>15.6</ele>
        <time>2025-09-25T08:37:08Z</time>
      </trkpt>
      <trkpt lat="48.55732" lon="-4.5335">
        <ele>14.2</ele>
        <time>2025-09-25T08:37:11Z</time>
      </trkpt>
      <trkpt lat="48.55722" lon="-4.53351">
        <ele>13.8</ele>
        <time>2025-09-25T08:37:12Z</time>
      </trkpt>
      <trkpt lat="48.55702" lon="-4.53354">
        <ele>13.2</ele>
        <time>2025-09-25T08:37:14Z</time>
      </trkpt>
      <trkpt lat="48.55672" lon="-4.53356">
        <ele>12</ele>
        <time>2025-09-25T08:37:17Z</time>
      </trkpt>
      <trkpt lat="48.55653" lon="-4.53357">
        <ele>11</ele>
        <time>2025-09-25T08:37:19Z</time>
      </trkpt>
      <trkpt lat="48.55612" lon="-4.53361">
        <ele>10.2</ele>
        <time>2025-09-25T08:37:24Z</time>
      </trkpt>
      <trkpt lat="48.55598" lon="-4.53364">
        <ele>9.6</ele>
        <time>2025-09-25T08:37:26Z</time>
      </trkpt>
      <trkpt lat="48.55592" lon="-4.53366">
        <ele>9.4</ele>
        <time>2025-09-25T08:37:27Z</time>
      </trkpt>
      <trkpt lat="48.5558" lon="-4.53369">
        <ele>9</ele>
        <time>2025-09-25T08:37:29Z</time>
      </trkpt>
      <trkpt lat="48.55569" lon="-4.53374">
        <ele>8.6</ele>
        <time>2025-09-25T08:37:31Z</time>
      </trkpt>
      <trkpt lat="48.55548" lon="-4.53386">
        <ele>8</ele>
        <time>2025-09-25T08:37:35Z</time>
      </trkpt>
      <trkpt lat="48.55518" lon="-4.53406">
        <ele>8</ele>
        <time>2025-09-25T08:37:41Z</time>
      </trkpt>
      <trkpt lat="48.55513" lon="-4.53411">
        <ele>8</ele>
        <time>2025-09-25T08:37:42Z</time>
      </trkpt>
      <trkpt lat="48.55485" lon="-4.53434">
        <ele>8</ele>
        <time>2025-09-25T08:37:48Z</time>
      </trkpt>
      <trkpt lat="48.55453" lon="-4.53459">
        <ele>8.4</ele>
        <time>2025-09-25T08:37:56Z</time>
      </trkpt>
      <trkpt lat="48.55407" lon="-4.53498">
        <ele>8.4</ele>
        <time>2025-09-25T08:38:08Z</time>
      </trkpt>
      <trkpt lat="48.55367" lon="-4.5353">
        <ele>8.2</ele>
        <time>2025-09-25T08:38:18Z</time>
      </trkpt>
      <trkpt lat="48.55349" lon="-4.53544">
        <ele>8.2</ele>
        <time>2025-09-25T08:38:24Z</time>
      </trkpt>
      <trkpt lat="48.55344" lon="-4.53554">
        <ele>8.2</ele>
        <time>2025-09-25T08:38:28Z</time>
      </trkpt>
      <trkpt lat="48.55344" lon="-4.53556">
        <ele>8.2</ele>
        <time>2025-09-25T08:38:31Z</time>
      </trkpt>
      <trkpt lat="48.55344" lon="-4.53556">
        <ele>8.2</ele>
        <time>2025-09-25T08:38:44Z</time>
      </trkpt>
      <trkpt lat="48.55347" lon="-4.53557">
        <ele>7.8</ele>
        <time>2025-09-25T08:38:49Z</time>
      </trkpt>
      <trkpt lat="48.55345" lon="-4.53558">
        <ele>8</ele>
        <time>2025-09-25T08:40:45Z</time>
      </trkpt>
      <trkpt lat="48.55344" lon="-4.53557">
        <ele>8</ele>
        <time>2025-09-25T08:40:47Z</time>
      </trkpt>
      <trkpt lat="48.55343" lon="-4.53555">
        <ele>8</ele>
        <time>2025-09-25T08:40:52Z</time>
      </trkpt>
      <trkpt lat="48.55342" lon="-4.53555">
        <ele>8</ele>
        <time>2025-09-25T08:40:55Z</time>
      </trkpt>
      <trkpt lat="48.55341" lon="-4.53554">
        <ele>8</ele>
        <time>2025-09-25T08:41:03Z</time>
      </trkpt>
      <trkpt lat="48.55342" lon="-4.53555">
        <ele>8</ele>
        <time>2025-09-25T08:41:05Z</time>
      </trkpt>
      <trkpt lat="48.5534" lon="-4.53554">
        <ele>8</ele>
        <time>2025-09-25T08:41:10Z</time>
      </trkpt>
      <trkpt lat="48.55332" lon="-4.53556">
        <ele>8</ele>
        <time>2025-09-25T08:41:16Z</time>
      </trkpt>
      <trkpt lat="48.55322" lon="-4.53558">
        <ele>8.6</ele>
        <time>2025-09-25T08:41:24Z</time>
      </trkpt>
      <trkpt lat="48.55307" lon="-4.53564">
        <ele>9.4</ele>
        <time>2025-09-25T08:41:34Z</time>
      </trkpt>
      <trkpt lat="48.55304" lon="-4.53565">
        <ele>9.8</ele>
        <time>2025-09-25T08:41:36Z</time>
      </trkpt>
      <trkpt lat="48.55296" lon="-4.5357">
        <ele>10.2</ele>
        <time>2025-09-25T08:41:41Z</time>
      </trkpt>
      <trkpt lat="48.5529" lon="-4.53576">
        <ele>10.8</ele>
        <time>2025-09-25T08:41:45Z</time>
      </trkpt>
      <trkpt lat="48.55287" lon="-4.5358">
        <ele>11</ele>
        <time>2025-09-25T08:41:47Z</time>
      </trkpt>
      <trkpt lat="48.55279" lon="-4.53593">
        <ele>11.8</ele>
        <time>2025-09-25T08:41:53Z</time>
      </trkpt>
      <trkpt lat="48.55275" lon="-4.536">
        <ele>12.2</ele>
        <time>2025-09-25T08:41:56Z</time>
      </trkpt>
      <trkpt lat="48.55269" lon="-4.53612">
        <ele>12.8</ele>
        <time>2025-09-25T08:42:01Z</time>
      </trkpt>
      <trkpt lat="48.55265" lon="-4.53622">
        <ele>13.4</ele>
        <time>2025-09-25T08:42:05Z</time>
      </trkpt>
      <trkpt lat="48.55261" lon="-4.53631">
        <ele>13.8</ele>
        <time>2025-09-25T08:42:09Z</time>
      </trkpt>
      <trkpt lat="48.55257" lon="-4.53648">
        <ele>14.6</ele>
        <time>2025-09-25T08:42:15Z</time>
      </trkpt>
      <trkpt lat="48.55256" lon="-4.53652">
        <ele>15</ele>
        <time>2025-09-25T08:42:17Z</time>
      </trkpt>
      <trkpt lat="48.55255" lon="-4.53658">
        <ele>15.2</ele>
        <time>2025-09-25T08:42:19Z</time>
      </trkpt>
      <trkpt lat="48.55255" lon="-4.53665">
        <ele>15.6</ele>
        <time>2025-09-25T08:42:21Z</time>
      </trkpt>
      <trkpt lat="48.55255" lon="-4.53668">
        <ele>15.6</ele>
        <time>2025-09-25T08:42:22Z</time>
      </trkpt>
      <trkpt lat="48.55254" lon="-4.53674">
        <ele>16</ele>
        <time>2025-09-25T08:42:24Z</time>
      </trkpt>
      <trkpt lat="48.55254" lon="-4.53692">
        <ele>17</ele>
        <time>2025-09-25T08:42:31Z</time>
      </trkpt>
      <trkpt lat="48.55254" lon="-4.53695">
        <ele>17.2</ele>
        <time>2025-09-25T08:42:32Z</time>
      </trkpt>
      <trkpt lat="48.55255" lon="-4.5372">
        <ele>18.2</ele>
        <time>2025-09-25T08:42:41Z</time>
      </trkpt>
      <trkpt lat="48.55256" lon="-4.53742">
        <ele>19.2</ele>
        <time>2025-09-25T08:42:49Z</time>
      </trkpt>
      <trkpt lat="48.55256" lon="-4.53745">
        <ele>19.2</ele>
        <time>2025-09-25T08:42:50Z</time>
      </trkpt>
      <trkpt lat="48.55257" lon="-4.53766">
        <ele>20.2</ele>
        <time>2025-09-25T08:42:57Z</time>
      </trkpt>
      <trkpt lat="48.55257" lon="-4.53769">
        <ele>20.2</ele>
        <time>2025-09-25T08:42:58Z</time>
      </trkpt>
      <trkpt lat="48.55254" lon="-4.53791">
        <ele>21.4</ele>
        <time>2025-09-25T08:43:06Z</time>
      </trkpt>
      <trkpt lat="48.55246" lon="-4.53811">
        <ele>22.4</ele>
        <time>2025-09-25T08:43:14Z</time>
      </trkpt>
      <trkpt lat="48.55245" lon="-4.53813">
        <ele>22.6</ele>
        <time>2025-09-25T08:43:15Z</time>
      </trkpt>
      <trkpt lat="48.55232" lon="-4.53825">
        <ele>23.6</ele>
        <time>2025-09-25T08:43:22Z</time>
      </trkpt>
      <trkpt lat="48.55231" lon="-4.53826">
        <ele>23.8</ele>
        <time>2025-09-25T08:43:23Z</time>
      </trkpt>
      <trkpt lat="48.5522" lon="-4.53831">
        <ele>24.6</ele>
        <time>2025-09-25T08:43:29Z</time>
      </trkpt>
      <trkpt lat="48.55216" lon="-4.53832">
        <ele>25</ele>
        <time>2025-09-25T08:43:31Z</time>
      </trkpt>
      <trkpt lat="48.55204" lon="-4.53837">
        <ele>25.8</ele>
        <time>2025-09-25T08:43:38Z</time>
      </trkpt>
      <trkpt lat="48.55197" lon="-4.53838">
        <ele>26.4</ele>
        <time>2025-09-25T08:43:42Z</time>
      </trkpt>
      <trkpt lat="48.55193" lon="-4.5384">
        <ele>26.8</ele>
        <time>2025-09-25T08:43:45Z</time>
      </trkpt>
      <trkpt lat="48.5519" lon="-4.53846">
        <ele>27.4</ele>
        <time>2025-09-25T08:43:48Z</time>
      </trkpt>
      <trkpt lat="48.55191" lon="-4.53856">
        <ele>28</ele>
        <time>2025-09-25T08:43:52Z</time>
      </trkpt>
      <trkpt lat="48.55191" lon="-4.53861">
        <ele>28.2</ele>
        <time>2025-09-25T08:43:54Z</time>
      </trkpt>
      <trkpt lat="48.55191" lon="-4.53883">
        <ele>28.6</ele>
        <time>2025-09-25T08:44:02Z</time>
      </trkpt>
      <trkpt lat="48.55191" lon="-4.53891">
        <ele>29</ele>
        <time>2025-09-25T08:44:05Z</time>
      </trkpt>
      <trkpt lat="48.55192" lon="-4.5391">
        <ele>29.4</ele>
        <time>2025-09-25T08:44:11Z</time>
      </trkpt>
      <trkpt lat="48.55194" lon="-4.53921">
        <ele>29.8</ele>
        <time>2025-09-25T08:44:15Z</time>
      </trkpt>
      <trkpt lat="48.55196" lon="-4.53933">
        <ele>30</ele>
        <time>2025-09-25T08:44:19Z</time>
      </trkpt>
      <trkpt lat="48.55196" lon="-4.53936">
        <ele>30</ele>
        <time>2025-09-25T08:44:20Z</time>
      </trkpt>
      <trkpt lat="48.55199" lon="-4.53967">
        <ele>30.4</ele>
        <time>2025-09-25T08:44:29Z</time>
      </trkpt>
      <trkpt lat="48.55199" lon="-4.53971">
        <ele>30.6</ele>
        <time>2025-09-25T08:44:30Z</time>
      </trkpt>
      <trkpt lat="48.55203" lon="-4.54">
        <ele>30.8</ele>
        <time>2025-09-25T08:44:39Z</time>
      </trkpt>
      <trkpt lat="48.55205" lon="-4.54017">
        <ele>31</ele>
        <time>2025-09-25T08:44:44Z</time>
      </trkpt>
      <trkpt lat="48.55207" lon="-4.54023">
        <ele>31</ele>
        <time>2025-09-25T08:44:46Z</time>
      </trkpt>
      <trkpt lat="48.55209" lon="-4.54031">
        <ele>31</ele>
        <time>2025-09-25T08:44:48Z</time>
      </trkpt>
      <trkpt lat="48.55216" lon="-4.54068">
        <ele>31.6</ele>
        <time>2025-09-25T08:44:58Z</time>
      </trkpt>
      <trkpt lat="48.55219" lon="-4.54083">
        <ele>32</ele>
        <time>2025-09-25T08:45:02Z</time>
      </trkpt>
      <trkpt lat="48.55221" lon="-4.54091">
        <ele>32</ele>
        <time>2025-09-25T08:45:04Z</time>
      </trkpt>
      <trkpt lat="48.55225" lon="-4.54111">
        <ele>32.4</ele>
        <time>2025-09-25T08:45:09Z</time>
      </trkpt>
      <trkpt lat="48.55229" lon="-4.54146">
        <ele>33</ele>
        <time>2025-09-25T08:45:17Z</time>
      </trkpt>
      <trkpt lat="48.55228" lon="-4.5415">
        <ele>33.2</ele>
        <time>2025-09-25T08:45:18Z</time>
      </trkpt>
      <trkpt lat="48.5522" lon="-4.54159">
        <ele>33.4</ele>
        <time>2025-09-25T08:45:21Z</time>
      </trkpt>
      <trkpt lat="48.55202" lon="-4.54163">
        <ele>33.8</ele>
        <time>2025-09-25T08:45:27Z</time>
      </trkpt>
      <trkpt lat="48.55189" lon="-4.54166">
        <ele>34.2</ele>
        <time>2025-09-25T08:45:31Z</time>
      </trkpt>
      <trkpt lat="48.55175" lon="-4.54169">
        <ele>34.6</ele>
        <time>2025-09-25T08:45:36Z</time>
      </trkpt>
      <trkpt lat="48.55163" lon="-4.54171">
        <ele>35.2</ele>
        <time>2025-09-25T08:45:41Z</time>
      </trkpt>
      <trkpt lat="48.55156" lon="-4.54172">
        <ele>35.6</ele>
        <time>2025-09-25T08:45:44Z</time>
      </trkpt>
      <trkpt lat="48.55141" lon="-4.5417">
        <ele>36.4</ele>
        <time>2025-09-25T08:45:51Z</time>
      </trkpt>
      <trkpt lat="48.55139" lon="-4.54169">
        <ele>36.4</ele>
        <time>2025-09-25T08:45:52Z</time>
      </trkpt>
      <trkpt lat="48.55124" lon="-4.54163">
        <ele>37.2</ele>
        <time>2025-09-25T08:45:59Z</time>
      </trkpt>
      <trkpt lat="48.5512" lon="-4.54162">
        <ele>37.4</ele>
        <time>2025-09-25T08:46:01Z</time>
      </trkpt>
      <trkpt lat="48.5511" lon="-4.54161">
        <ele>38</ele>
        <time>2025-09-25T08:46:06Z</time>
      </trkpt>
      <trkpt lat="48.55102" lon="-4.5416">
        <ele>38.6</ele>
        <time>2025-09-25T08:46:10Z</time>
      </trkpt>
      <trkpt lat="48.55091" lon="-4.54164">
        <ele>39.2</ele>
        <time>2025-09-25T08:46:15Z</time>
      </trkpt>
      <trkpt lat="48.55086" lon="-4.54168">
        <ele>39.6</ele>
        <time>2025-09-25T08:46:18Z</time>
      </trkpt>
      <trkpt lat="48.5508" lon="-4.54175">
        <ele>40</ele>
        <time>2025-09-25T08:46:22Z</time>
      </trkpt>
      <trkpt lat="48.55072" lon="-4.54184">
        <ele>40.8</ele>
        <time>2025-09-25T08:46:28Z</time>
      </trkpt>
      <trkpt lat="48.55071" lon="-4.54186">
        <ele>40.8</ele>
        <time>2025-09-25T08:46:29Z</time>
      </trkpt>
      <trkpt lat="48.55063" lon="-4.54199">
        <ele>41.8</ele>
        <time>2025-09-25T08:46:37Z</time>
      </trkpt>
      <trkpt lat="48.55056" lon="-4.54213">
        <ele>42.8</ele>
        <time>2025-09-25T08:46:45Z</time>
      </trkpt>
      <trkpt lat="48.55049" lon="-4.54224">
        <ele>43.4</ele>
        <time>2025-09-25T08:46:52Z</time>
      </trkpt>
      <trkpt lat="48.55047" lon="-4.54227">
        <ele>43.6</ele>
        <time>2025-09-25T08:46:54Z</time>
      </trkpt>
      <trkpt lat="48.55046" lon="-4.54228">
        <ele>43.8</ele>
        <time>2025-09-25T08:46:55Z</time>
      </trkpt>
      <trkpt lat="48.55038" lon="-4.54239">
        <ele>44.6</ele>
        <time>2025-09-25T08:47:03Z</time>
      </trkpt>
      <trkpt lat="48.55035" lon="-4.54243">
        <ele>45</ele>
        <time>2025-09-25T08:47:06Z</time>
      </trkpt>
      <trkpt lat="48.55029" lon="-4.5425">
        <ele>45.6</ele>
        <time>2025-09-25T08:47:12Z</time>
      </trkpt>
      <trkpt lat="48.55025" lon="-4.54255">
        <ele>46</ele>
        <time>2025-09-25T08:47:16Z</time>
      </trkpt>
      <trkpt lat="48.55021" lon="-4.54259">
        <ele>46.4</ele>
        <time>2025-09-25T08:47:20Z</time>
      </trkpt>
      <trkpt lat="48.55015" lon="-4.54266">
        <ele>47</ele>
        <time>2025-09-25T08:47:26Z</time>
      </trkpt>
      <trkpt lat="48.55013" lon="-4.54268">
        <ele>47.2</ele>
        <time>2025-09-25T08:47:28Z</time>
      </trkpt>
      <trkpt lat="48.55005" lon="-4.54271">
        <ele>48</ele>
        <time>2025-09-25T08:47:34Z</time>
      </trkpt>
      <trkpt lat="48.55002" lon="-4.54272">
        <ele>48.4</ele>
        <time>2025-09-25T08:47:36Z</time>
      </trkpt>
      <trkpt lat="48.54996" lon="-4.54273">
        <ele>49.2</ele>
        <time>2025-09-25T08:47:41Z</time>
      </trkpt>
      <trkpt lat="48.54993" lon="-4.54272">
        <ele>49.4</ele>
        <time>2025-09-25T08:47:43Z</time>
      </trkpt>
      <trkpt lat="48.54981" lon="-4.54276">
        <ele>50</ele>
        <time>2025-09-25T08:47:50Z</time>
      </trkpt>
      <trkpt lat="48.54979" lon="-4.54277">
        <ele>50.2</ele>
        <time>2025-09-25T08:47:51Z</time>
      </trkpt>
      <trkpt lat="48.54966" lon="-4.54283">
        <ele>50.6</ele>
        <time>2025-09-25T08:47:57Z</time>
      </trkpt>
      <trkpt lat="48.5496" lon="-4.54285">
        <ele>50.8</ele>
        <time>2025-09-25T08:48:00Z</time>
      </trkpt>
      <trkpt lat="48.54948" lon="-4.54292">
        <ele>51.2</ele>
        <time>2025-09-25T08:48:08Z</time>
      </trkpt>
      <trkpt lat="48.54947" lon="-4.54293">
        <ele>51.2</ele>
        <time>2025-09-25T08:48:09Z</time>
      </trkpt>
      <trkpt lat="48.54945" lon="-4.54294">
        <ele>51.2</ele>
        <time>2025-09-25T08:48:10Z</time>
      </trkpt>
      <trkpt lat="48.54941" lon="-4.54297">
        <ele>51.2</ele>
        <time>2025-09-25T08:48:13Z</time>
      </trkpt>
      <trkpt lat="48.54936" lon="-4.54303">
        <ele>51.2</ele>
        <time>2025-09-25T08:48:17Z</time>
      </trkpt>
      <trkpt lat="48.5493" lon="-4.54309">
        <ele>51.4</ele>
        <time>2025-09-25T08:48:21Z</time>
      </trkpt>
      <trkpt lat="48.54929" lon="-4.54313">
        <ele>51.4</ele>
        <time>2025-09-25T08:48:24Z</time>
      </trkpt>
      <trkpt lat="48.54929" lon="-4.54313">
        <ele>51.4</ele>
        <time>2025-09-25T08:48:25Z</time>
      </trkpt>
      <trkpt lat="48.54928" lon="-4.54314">
        <ele>51.6</ele>
        <time>2025-09-25T08:50:45Z</time>
      </trkpt>
      <trkpt lat="48.54928" lon="-4.54314">
        <ele>51.6</ele>
        <time>2025-09-25T08:50:46Z</time>
      </trkpt>
      <trkpt lat="48.54928" lon="-4.54314">
        <ele>51.6</ele>
        <time>2025-09-25T08:50:47Z</time>
      </trkpt>
      <trkpt lat="48.54927" lon="-4.54313">
        <ele>51.6</ele>
        <time>2025-09-25T08:50:57Z</time>
      </trkpt>
      <trkpt lat="48.54927" lon="-4.54313">
        <ele>51.6</ele>
        <time>2025-09-25T08:50:58Z</time>
      </trkpt>
      <trkpt lat="48.54926" lon="-4.54313">
        <ele>51.6</ele>
        <time>2025-09-25T08:50:59Z</time>
      </trkpt>
      <trkpt lat="48.54924" lon="-4.54314">
        <ele>51.6</ele>
        <time>2025-09-25T08:51:17Z</time>
      </trkpt>
      <trkpt lat="48.54921" lon="-4.54317">
        <ele>51.8</ele>
        <time>2025-09-25T08:51:20Z</time>
      </trkpt>
      <trkpt lat="48.54913" lon="-4.54331">
        <ele>51.8</ele>
        <time>2025-09-25T08:51:27Z</time>
      </trkpt>
      <trkpt lat="48.54911" lon="-4.54335">
        <ele>51.8</ele>
        <time>2025-09-25T08:51:29Z</time>
      </trkpt>
      <trkpt lat="48.54907" lon="-4.54342">
        <ele>51.8</ele>
        <time>2025-09-25T08:51:32Z</time>
      </trkpt>
      <trkpt lat="48.54904" lon="-4.54347">
        <ele>51.8</ele>
        <time>2025-09-25T08:51:34Z</time>
      </trkpt>
      <trkpt lat="48.54903" lon="-4.5435">
        <ele>51.8</ele>
        <time>2025-09-25T08:51:35Z</time>
      </trkpt>
      <trkpt lat="48.54901" lon="-4.54353">
        <ele>51.8</ele>
        <time>2025-09-25T08:51:36Z</time>
      </trkpt>
      <trkpt lat="48.54886" lon="-4.54373">
        <ele>51.6</ele>
        <time>2025-09-25T08:51:43Z</time>
      </trkpt>
      <trkpt lat="48.54871" lon="-4.54378">
        <ele>51.8</ele>
        <time>2025-09-25T08:51:49Z</time>
      </trkpt>
      <trkpt lat="48.54856" lon="-4.54378">
        <ele>52</ele>
        <time>2025-09-25T08:51:54Z</time>
      </trkpt>
      <trkpt lat="48.5485" lon="-4.54377">
        <ele>51.8</ele>
        <time>2025-09-25T08:51:56Z</time>
      </trkpt>
      <trkpt lat="48.54828" lon="-4.54383">
        <ele>52</ele>
        <time>2025-09-25T08:52:03Z</time>
      </trkpt>
      <trkpt lat="48.54827" lon="-4.54403">
        <ele>51.6</ele>
        <time>2025-09-25T08:52:07Z</time>
      </trkpt>
      <trkpt lat="48.5483" lon="-4.54423">
        <ele>51.6</ele>
        <time>2025-09-25T08:52:12Z</time>
      </trkpt>
      <trkpt lat="48.5484" lon="-4.54456">
        <ele>51.2</ele>
        <time>2025-09-25T08:52:20Z</time>
      </trkpt>
      <trkpt lat="48.54849" lon="-4.54484">
        <ele>50.6</ele>
        <time>2025-09-25T08:52:26Z</time>
      </trkpt>
      <trkpt lat="48.54853" lon="-4.54494">
        <ele>50.6</ele>
        <time>2025-09-25T08:52:28Z</time>
      </trkpt>
      <trkpt lat="48.54867" lon="-4.5453">
        <ele>50.8</ele>
        <time>2025-09-25T08:52:35Z</time>
      </trkpt>
      <trkpt lat="48.54869" lon="-4.54536">
        <ele>50.8</ele>
        <time>2025-09-25T08:52:36Z</time>
      </trkpt>
      <trkpt lat="48.54873" lon="-4.54548">
        <ele>50.6</ele>
        <time>2025-09-25T08:52:38Z</time>
      </trkpt>
      <trkpt lat="48.54878" lon="-4.54558">
        <ele>50.6</ele>
        <time>2025-09-25T08:52:40Z</time>
      </trkpt>
      <trkpt lat="48.54885" lon="-4.54575">
        <ele>50.2</ele>
        <time>2025-09-25T08:52:43Z</time>
      </trkpt>
      <trkpt lat="48.54896" lon="-4.54609">
        <ele>49.4</ele>
        <time>2025-09-25T08:52:48Z</time>
      </trkpt>
      <trkpt lat="48.549" lon="-4.54633">
        <ele>49</ele>
        <time>2025-09-25T08:52:51Z</time>
      </trkpt>
      <trkpt lat="48.54901" lon="-4.54659">
        <ele>48.6</ele>
        <time>2025-09-25T08:52:54Z</time>
      </trkpt>
      <trkpt lat="48.54902" lon="-4.54703">
        <ele>48</ele>
        <time>2025-09-25T08:52:59Z</time>
      </trkpt>
      <trkpt lat="48.54903" lon="-4.54711">
        <ele>48</ele>
        <time>2025-09-25T08:53:00Z</time>
      </trkpt>
      <trkpt lat="48.54904" lon="-4.5472">
        <ele>47.8</ele>
        <time>2025-09-25T08:53:01Z</time>
      </trkpt>
      <trkpt lat="48.54914" lon="-4.5476">
        <ele>47.4</ele>
        <time>2025-09-25T08:53:06Z</time>
      </trkpt>
      <trkpt lat="48.54935" lon="-4.54806">
        <ele>47.2</ele>
        <time>2025-09-25T08:53:13Z</time>
      </trkpt>
      <trkpt lat="48.54947" lon="-4.54835">
        <ele>47.6</ele>
        <time>2025-09-25T08:53:18Z</time>
      </trkpt>
      <trkpt lat="48.54951" lon="-4.54847">
        <ele>47.8</ele>
        <time>2025-09-25T08:53:20Z</time>
      </trkpt>
      <trkpt lat="48.54955" lon="-4.5487">
        <ele>48.2</ele>
        <time>2025-09-25T08:53:24Z</time>
      </trkpt>
      <trkpt lat="48.54955" lon="-4.54881">
        <ele>48.4</ele>
        <time>2025-09-25T08:53:26Z</time>
      </trkpt>
      <trkpt lat="48.54954" lon="-4.5492">
        <ele>48.6</ele>
        <time>2025-09-25T08:53:33Z</time>
      </trkpt>
      <trkpt lat="48.54953" lon="-4.54939">
        <ele>48.4</ele>
        <time>2025-09-25T08:53:36Z</time>
      </trkpt>
      <trkpt lat="48.54952" lon="-4.54945">
        <ele>48.4</ele>
        <time>2025-09-25T08:53:37Z</time>
      </trkpt>
      <trkpt lat="48.54951" lon="-4.54974">
        <ele>48</ele>
        <time>2025-09-25T08:53:41Z</time>
      </trkpt>
      <trkpt lat="48.54949" lon="-4.55037">
        <ele>47.6</ele>
        <time>2025-09-25T08:53:50Z</time>
      </trkpt>
      <trkpt lat="48.54947" lon="-4.55097">
        <ele>47.6</ele>
        <time>2025-09-25T08:53:59Z</time>
      </trkpt>
      <trkpt lat="48.54947" lon="-4.55103">
        <ele>47.6</ele>
        <time>2025-09-25T08:54:00Z</time>
      </trkpt>
      <trkpt lat="48.54946" lon="-4.55153">
        <ele>47.6</ele>
        <time>2025-09-25T08:54:08Z</time>
      </trkpt>
      <trkpt lat="48.54944" lon="-4.552">
        <ele>48.2</ele>
        <time>2025-09-25T08:54:16Z</time>
      </trkpt>
      <trkpt lat="48.54943" lon="-4.55225">
        <ele>49</ele>
        <time>2025-09-25T08:54:21Z</time>
      </trkpt>
      <trkpt lat="48.54943" lon="-4.55234">
        <ele>49.2</ele>
        <time>2025-09-25T08:54:23Z</time>
      </trkpt>
      <trkpt lat="48.54942" lon="-4.55273">
        <ele>50</ele>
        <time>2025-09-25T08:54:31Z</time>
      </trkpt>
      <trkpt lat="48.54942" lon="-4.55278">
        <ele>50</ele>
        <time>2025-09-25T08:54:32Z</time>
      </trkpt>
      <trkpt lat="48.5494" lon="-4.55316">
        <ele>50.8</ele>
        <time>2025-09-25T08:54:40Z</time>
      </trkpt>
      <trkpt lat="48.54938" lon="-4.55335">
        <ele>51.2</ele>
        <time>2025-09-25T08:54:44Z</time>
      </trkpt>
      <trkpt lat="48.54935" lon="-4.55348">
        <ele>51.4</ele>
        <time>2025-09-25T08:54:47Z</time>
      </trkpt>
      <trkpt lat="48.54933" lon="-4.55357">
        <ele>51.6</ele>
        <time>2025-09-25T08:54:49Z</time>
      </trkpt>
      <trkpt lat="48.54927" lon="-4.55384">
        <ele>52</ele>
        <time>2025-09-25T08:54:55Z</time>
      </trkpt>
      <trkpt lat="48.54919" lon="-4.55426">
        <ele>52</ele>
        <time>2025-09-25T08:55:04Z</time>
      </trkpt>
      <trkpt lat="48.54915" lon="-4.55447">
        <ele>52</ele>
        <time>2025-09-25T08:55:08Z</time>
      </trkpt>
      <trkpt lat="48.54913" lon="-4.55459">
        <ele>51.8</ele>
        <time>2025-09-25T08:55:10Z</time>
      </trkpt>
      <trkpt lat="48.54911" lon="-4.55476">
        <ele>51.6</ele>
        <time>2025-09-25T08:55:13Z</time>
      </trkpt>
      <trkpt lat="48.54909" lon="-4.55499">
        <ele>51.2</ele>
        <time>2025-09-25T08:55:17Z</time>
      </trkpt>
      <trkpt lat="48.5491" lon="-4.55512">
        <ele>51.2</ele>
        <time>2025-09-25T08:55:19Z</time>
      </trkpt>
      <trkpt lat="48.54912" lon="-4.55518">
        <ele>51.2</ele>
        <time>2025-09-25T08:55:20Z</time>
      </trkpt>
      <trkpt lat="48.54917" lon="-4.55528">
        <ele>51</ele>
        <time>2025-09-25T08:55:22Z</time>
      </trkpt>
      <trkpt lat="48.54921" lon="-4.55531">
        <ele>51</ele>
        <time>2025-09-25T08:55:23Z</time>
      </trkpt>
      <trkpt lat="48.54951" lon="-4.55556">
        <ele>50.8</ele>
        <time>2025-09-25T08:55:31Z</time>
      </trkpt>
      <trkpt lat="48.54964" lon="-4.55569">
        <ele>50.6</ele>
        <time>2025-09-25T08:55:35Z</time>
      </trkpt>
      <trkpt lat="48.54969" lon="-4.5558">
        <ele>50.6</ele>
        <time>2025-09-25T08:55:37Z</time>
      </trkpt>
      <trkpt lat="48.54971" lon="-4.55586">
        <ele>50.2</ele>
        <time>2025-09-25T08:55:38Z</time>
      </trkpt>
      <trkpt lat="48.54972" lon="-4.55593">
        <ele>49.8</ele>
        <time>2025-09-25T08:55:39Z</time>
      </trkpt>
      <trkpt lat="48.54972" lon="-4.55601">
        <ele>49</ele>
        <time>2025-09-25T08:55:40Z</time>
      </trkpt>
      <trkpt lat="48.54972" lon="-4.55608">
        <ele>48.4</ele>
        <time>2025-09-25T08:55:41Z</time>
      </trkpt>
      <trkpt lat="48.54972" lon="-4.55623">
        <ele>47</ele>
        <time>2025-09-25T08:55:43Z</time>
      </trkpt>
      <trkpt lat="48.54972" lon="-4.5564">
        <ele>45.6</ele>
        <time>2025-09-25T08:55:45Z</time>
      </trkpt>
      <trkpt lat="48.54974" lon="-4.55659">
        <ele>44.2</ele>
        <time>2025-09-25T08:55:47Z</time>
      </trkpt>
      <trkpt lat="48.54975" lon="-4.55668">
        <ele>43.6</ele>
        <time>2025-09-25T08:55:48Z</time>
      </trkpt>
      <trkpt lat="48.54977" lon="-4.55678">
        <ele>43</ele>
        <time>2025-09-25T08:55:49Z</time>
      </trkpt>
      <trkpt lat="48.54988" lon="-4.55705">
        <ele>41.6</ele>
        <time>2025-09-25T08:55:52Z</time>
      </trkpt>
      <trkpt lat="48.54995" lon="-4.55721">
        <ele>40.6</ele>
        <time>2025-09-25T08:55:54Z</time>
      </trkpt>
      <trkpt lat="48.54999" lon="-4.55728">
        <ele>40.2</ele>
        <time>2025-09-25T08:55:55Z</time>
      </trkpt>
      <trkpt lat="48.55009" lon="-4.55747">
        <ele>39.4</ele>
        <time>2025-09-25T08:55:58Z</time>
      </trkpt>
      <trkpt lat="48.55012" lon="-4.55752">
        <ele>39.2</ele>
        <time>2025-09-25T08:55:59Z</time>
      </trkpt>
      <trkpt lat="48.55019" lon="-4.55767">
        <ele>38.8</ele>
        <time>2025-09-25T08:56:02Z</time>
      </trkpt>
      <trkpt lat="48.5502" lon="-4.55771">
        <ele>38.6</ele>
        <time>2025-09-25T08:56:03Z</time>
      </trkpt>
      <trkpt lat="48.5502" lon="-4.55779">
        <ele>38.4</ele>
        <time>2025-09-25T08:56:05Z</time>
      </trkpt>
      <trkpt lat="48.55016" lon="-4.55784">
        <ele>38.4</ele>
        <time>2025-09-25T08:56:07Z</time>
      </trkpt>
      <trkpt lat="48.55014" lon="-4.55785">
        <ele>38.4</ele>
        <time>2025-09-25T08:56:08Z</time>
      </trkpt>
      <trkpt lat="48.55006" lon="-4.55788">
        <ele>38.6</ele>
        <time>2025-09-25T08:56:11Z</time>
      </trkpt>
      <trkpt lat="48.54994" lon="-4.55791">
        <ele>39.4</ele>
        <time>2025-09-25T08:56:15Z</time>
      </trkpt>
      <trkpt lat="48.54988" lon="-4.55792">
        <ele>39.6</ele>
        <time>2025-09-25T08:56:17Z</time>
      </trkpt>
      <trkpt lat="48.54983" lon="-4.55792">
        <ele>40</ele>
        <time>2025-09-25T08:56:19Z</time>
      </trkpt>
      <trkpt lat="48.5498" lon="-4.55793">
        <ele>40.2</ele>
        <time>2025-09-25T08:56:20Z</time>
      </trkpt>
      <trkpt lat="48.54977" lon="-4.55793">
        <ele>40.2</ele>
        <time>2025-09-25T08:56:21Z</time>
      </trkpt>
      <trkpt lat="48.54973" lon="-4.55795">
        <ele>40.4</ele>
        <time>2025-09-25T08:56:23Z</time>
      </trkpt>
      <trkpt lat="48.5496" lon="-4.55796">
        <ele>41.2</ele>
        <time>2025-09-25T08:56:28Z</time>
      </trkpt>
      <trkpt lat="48.54957" lon="-4.55797">
        <ele>41.2</ele>
        <time>2025-09-25T08:56:29Z</time>
      </trkpt>
      <trkpt lat="48.54946" lon="-4.55799">
        <ele>41.8</ele>
        <time>2025-09-25T08:56:33Z</time>
      </trkpt>
      <trkpt lat="48.54937" lon="-4.55801">
        <ele>42.2</ele>
        <time>2025-09-25T08:56:36Z</time>
      </trkpt>
      <trkpt lat="48.54934" lon="-4.55801">
        <ele>42.2</ele>
        <time>2025-09-25T08:56:37Z</time>
      </trkpt>
      <trkpt lat="48.54923" lon="-4.55803">
        <ele>42.8</ele>
        <time>2025-09-25T08:56:42Z</time>
      </trkpt>
      <trkpt lat="48.54914" lon="-4.55805">
        <ele>43.4</ele>
        <time>2025-09-25T08:56:46Z</time>
      </trkpt>
      <trkpt lat="48.54904" lon="-4.55806">
        <ele>43.6</ele>
        <time>2025-09-25T08:56:50Z</time>
      </trkpt>
      <trkpt lat="48.54883" lon="-4.55811">
        <ele>44.4</ele>
        <time>2025-09-25T08:56:59Z</time>
      </trkpt>
      <trkpt lat="48.5488" lon="-4.55812">
        <ele>44.6</ele>
        <time>2025-09-25T08:57:00Z</time>
      </trkpt>
      <trkpt lat="48.54863" lon="-4.55815">
        <ele>45</ele>
        <time>2025-09-25T08:57:07Z</time>
      </trkpt>
      <trkpt lat="48.54855" lon="-4.55816">
        <ele>45.2</ele>
        <time>2025-09-25T08:57:10Z</time>
      </trkpt>
      <trkpt lat="48.5485" lon="-4.55817">
        <ele>45.4</ele>
        <time>2025-09-25T08:57:12Z</time>
      </trkpt>
      <trkpt lat="48.54845" lon="-4.55818">
        <ele>45.6</ele>
        <time>2025-09-25T08:57:14Z</time>
      </trkpt>
      <trkpt lat="48.54827" lon="-4.55821">
        <ele>46.2</ele>
        <time>2025-09-25T08:57:21Z</time>
      </trkpt>
      <trkpt lat="48.5482" lon="-4.55823">
        <ele>46.6</ele>
        <time>2025-09-25T08:57:24Z</time>
      </trkpt>
      <trkpt lat="48.54808" lon="-4.55824">
        <ele>47</ele>
        <time>2025-09-25T08:57:29Z</time>
      </trkpt>
      <trkpt lat="48.54792" lon="-4.55827">
        <ele>47.4</ele>
        <time>2025-09-25T08:57:35Z</time>
      </trkpt>
      <trkpt lat="48.54787" lon="-4.55828">
        <ele>47.6</ele>
        <time>2025-09-25T08:57:37Z</time>
      </trkpt>
      <trkpt lat="48.54772" lon="-4.55832">
        <ele>48</ele>
        <time>2025-09-25T08:57:43Z</time>
      </trkpt>
      <trkpt lat="48.54751" lon="-4.55836">
        <ele>48.4</ele>
        <time>2025-09-25T08:57:51Z</time>
      </trkpt>
      <trkpt lat="48.54738" lon="-4.55839">
        <ele>48.6</ele>
        <time>2025-09-25T08:57:56Z</time>
      </trkpt>
      <trkpt lat="48.54724" lon="-4.55844">
        <ele>48.8</ele>
        <time>2025-09-25T08:58:01Z</time>
      </trkpt>
      <trkpt lat="48.54699" lon="-4.55852">
        <ele>49.4</ele>
        <time>2025-09-25T08:58:10Z</time>
      </trkpt>
      <trkpt lat="48.54685" lon="-4.55857">
        <ele>49.4</ele>
        <time>2025-09-25T08:58:14Z</time>
      </trkpt>
      <trkpt lat="48.54665" lon="-4.55864">
        <ele>49.4</ele>
        <time>2025-09-25T08:58:20Z</time>
      </trkpt>
      <trkpt lat="48.54653" lon="-4.55868">
        <ele>49.4</ele>
        <time>2025-09-25T08:58:24Z</time>
      </trkpt>
      <trkpt lat="48.54638" lon="-4.55874">
        <ele>49.4</ele>
        <time>2025-09-25T08:58:29Z</time>
      </trkpt>
      <trkpt lat="48.54606" lon="-4.55888">
        <ele>49.4</ele>
        <time>2025-09-25T08:58:38Z</time>
      </trkpt>
      <trkpt lat="48.5457" lon="-4.559">
        <ele>49.4</ele>
        <time>2025-09-25T08:58:48Z</time>
      </trkpt>
      <trkpt lat="48.54557" lon="-4.55905">
        <ele>49.6</ele>
        <time>2025-09-25T08:58:52Z</time>
      </trkpt>
      <trkpt lat="48.54546" lon="-4.55907">
        <ele>49.8</ele>
        <time>2025-09-25T08:58:55Z</time>
      </trkpt>
      <trkpt lat="48.54535" lon="-4.55918">
        <ele>49.8</ele>
        <time>2025-09-25T08:58:59Z</time>
      </trkpt>
      <trkpt lat="48.54534" lon="-4.55923">
        <ele>49.8</ele>
        <time>2025-09-25T08:59:00Z</time>
      </trkpt>
      <trkpt lat="48.54539" lon="-4.55944">
        <ele>49.4</ele>
        <time>2025-09-25T08:59:04Z</time>
      </trkpt>
      <trkpt lat="48.54549" lon="-4.55981">
        <ele>48.6</ele>
        <time>2025-09-25T08:59:10Z</time>
      </trkpt>
      <trkpt lat="48.5455" lon="-4.55988">
        <ele>48.4</ele>
        <time>2025-09-25T08:59:11Z</time>
      </trkpt>
      <trkpt lat="48.54558" lon="-4.5602">
        <ele>47.4</ele>
        <time>2025-09-25T08:59:15Z</time>
      </trkpt>
      <trkpt lat="48.54565" lon="-4.56047">
        <ele>46.2</ele>
        <time>2025-09-25T08:59:18Z</time>
      </trkpt>
      <trkpt lat="48.54572" lon="-4.56075">
        <ele>45</ele>
        <time>2025-09-25T08:59:21Z</time>
      </trkpt>
      <trkpt lat="48.54582" lon="-4.56114">
        <ele>44</ele>
        <time>2025-09-25T08:59:25Z</time>
      </trkpt>
      <trkpt lat="48.54584" lon="-4.56124">
        <ele>43.6</ele>
        <time>2025-09-25T08:59:26Z</time>
      </trkpt>
      <trkpt lat="48.5459" lon="-4.56153">
        <ele>42.8</ele>
        <time>2025-09-25T08:59:29Z</time>
      </trkpt>
      <trkpt lat="48.54602" lon="-4.56198">
        <ele>42.4</ele>
        <time>2025-09-25T08:59:34Z</time>
      </trkpt>
      <trkpt lat="48.54616" lon="-4.56253">
        <ele>42.2</ele>
        <time>2025-09-25T08:59:40Z</time>
      </trkpt>
      <trkpt lat="48.5462" lon="-4.5627">
        <ele>41.8</ele>
        <time>2025-09-25T08:59:42Z</time>
      </trkpt>
      <trkpt lat="48.54622" lon="-4.56279">
        <ele>42</ele>
        <time>2025-09-25T08:59:43Z</time>
      </trkpt>
      <trkpt lat="48.54635" lon="-4.56334">
        <ele>41.2</ele>
        <time>2025-09-25T08:59:50Z</time>
      </trkpt>
      <trkpt lat="48.54646" lon="-4.56375">
        <ele>42.8</ele>
        <time>2025-09-25T08:59:57Z</time>
      </trkpt>
      <trkpt lat="48.54652" lon="-4.56402">
        <ele>43.6</ele>
        <time>2025-09-25T09:00:02Z</time>
      </trkpt>
      <trkpt lat="48.54655" lon="-4.56412">
        <ele>43.8</ele>
        <time>2025-09-25T09:00:04Z</time>
      </trkpt>
      <trkpt lat="48.54657" lon="-4.56422">
        <ele>44</ele>
        <time>2025-09-25T09:00:06Z</time>
      </trkpt>
      <trkpt lat="48.54658" lon="-4.56427">
        <ele>44.2</ele>
        <time>2025-09-25T09:00:07Z</time>
      </trkpt>
      <trkpt lat="48.54668" lon="-4.56467">
        <ele>44.4</ele>
        <time>2025-09-25T09:00:15Z</time>
      </trkpt>
      <trkpt lat="48.54669" lon="-4.56472">
        <ele>44.4</ele>
        <time>2025-09-25T09:00:16Z</time>
      </trkpt>
      <trkpt lat="48.54681" lon="-4.56515">
        <ele>44.4</ele>
        <time>2025-09-25T09:00:24Z</time>
      </trkpt>
      <trkpt lat="48.54683" lon="-4.56527">
        <ele>44.6</ele>
        <time>2025-09-25T09:00:26Z</time>
      </trkpt>
      <trkpt lat="48.54695" lon="-4.56574">
        <ele>44.2</ele>
        <time>2025-09-25T09:00:34Z</time>
      </trkpt>
      <trkpt lat="48.54698" lon="-4.56586">
        <ele>44.2</ele>
        <time>2025-09-25T09:00:36Z</time>
      </trkpt>
      <trkpt lat="48.54704" lon="-4.56611">
        <ele>44.4</ele>
        <time>2025-09-25T09:00:40Z</time>
      </trkpt>
      <trkpt lat="48.54713" lon="-4.56647">
        <ele>44.6</ele>
        <time>2025-09-25T09:00:46Z</time>
      </trkpt>
      <trkpt lat="48.54725" lon="-4.56696">
        <ele>45</ele>
        <time>2025-09-25T09:00:55Z</time>
      </trkpt>
      <trkpt lat="48.54726" lon="-4.56701">
        <ele>45</ele>
        <time>2025-09-25T09:00:56Z</time>
      </trkpt>
      <trkpt lat="48.54739" lon="-4.56749">
        <ele>45.8</ele>
        <time>2025-09-25T09:01:06Z</time>
      </trkpt>
      <trkpt lat="48.54743" lon="-4.56763">
        <ele>46</ele>
        <time>2025-09-25T09:01:09Z</time>
      </trkpt>
      <trkpt lat="48.54749" lon="-4.56791">
        <ele>46.4</ele>
        <time>2025-09-25T09:01:16Z</time>
      </trkpt>
      <trkpt lat="48.54745" lon="-4.56803">
        <ele>46.4</ele>
        <time>2025-09-25T09:01:20Z</time>
      </trkpt>
      <trkpt lat="48.54743" lon="-4.56805">
        <ele>46.4</ele>
        <time>2025-09-25T09:01:21Z</time>
      </trkpt>
      <trkpt lat="48.54729" lon="-4.56812">
        <ele>46.4</ele>
        <time>2025-09-25T09:01:26Z</time>
      </trkpt>
      <trkpt lat="48.54701" lon="-4.56822">
        <ele>46.2</ele>
        <time>2025-09-25T09:01:34Z</time>
      </trkpt>
      <trkpt lat="48.54667" lon="-4.56838">
        <ele>45.8</ele>
        <time>2025-09-25T09:01:43Z</time>
      </trkpt>
      <trkpt lat="48.54646" lon="-4.56848">
        <ele>45.6</ele>
        <time>2025-09-25T09:01:48Z</time>
      </trkpt>
      <trkpt lat="48.54623" lon="-4.5686">
        <ele>45.4</ele>
        <time>2025-09-25T09:01:54Z</time>
      </trkpt>
      <trkpt lat="48.54584" lon="-4.5688">
        <ele>46</ele>
        <time>2025-09-25T09:02:04Z</time>
      </trkpt>
      <trkpt lat="48.5458" lon="-4.56881">
        <ele>46</ele>
        <time>2025-09-25T09:02:05Z</time>
      </trkpt>
      <trkpt lat="48.54573" lon="-4.56885">
        <ele>46.2</ele>
        <time>2025-09-25T09:02:07Z</time>
      </trkpt>
      <trkpt lat="48.54547" lon="-4.56898">
        <ele>46.4</ele>
        <time>2025-09-25T09:02:14Z</time>
      </trkpt>
      <trkpt lat="48.5452" lon="-4.56915">
        <ele>46.6</ele>
        <time>2025-09-25T09:02:21Z</time>
      </trkpt>
      <trkpt lat="48.54508" lon="-4.56926">
        <ele>46.6</ele>
        <time>2025-09-25T09:02:24Z</time>
      </trkpt>
      <trkpt lat="48.5448" lon="-4.56959">
        <ele>46.8</ele>
        <time>2025-09-25T09:02:32Z</time>
      </trkpt>
      <trkpt lat="48.54458" lon="-4.57005">
        <ele>46.2</ele>
        <time>2025-09-25T09:02:40Z</time>
      </trkpt>
      <trkpt lat="48.54435" lon="-4.57065">
        <ele>46.2</ele>
        <time>2025-09-25T09:02:50Z</time>
      </trkpt>
      <trkpt lat="48.54414" lon="-4.57107">
        <ele>46</ele>
        <time>2025-09-25T09:02:58Z</time>
      </trkpt>
      <trkpt lat="48.54388" lon="-4.5714">
        <ele>46.4</ele>
        <time>2025-09-25T09:03:06Z</time>
      </trkpt>
      <trkpt lat="48.54379" lon="-4.57149">
        <ele>46.6</ele>
        <time>2025-09-25T09:03:10Z</time>
      </trkpt>
      <trkpt lat="48.54378" lon="-4.57158">
        <ele>46.8</ele>
        <time>2025-09-25T09:03:15Z</time>
      </trkpt>
      <trkpt lat="48.54379" lon="-4.57159">
        <ele>46.6</ele>
        <time>2025-09-25T09:03:17Z</time>
      </trkpt>
      <trkpt lat="48.54377" lon="-4.57161">
        <ele>46.8</ele>
        <time>2025-09-25T09:03:21Z</time>
      </trkpt>
      <trkpt lat="48.54377" lon="-4.57167">
        <ele>46.8</ele>
        <time>2025-09-25T09:03:23Z</time>
      </trkpt>
      <trkpt lat="48.54386" lon="-4.57188">
        <ele>46.6</ele>
        <time>2025-09-25T09:03:29Z</time>
      </trkpt>
      <trkpt lat="48.5439" lon="-4.57197">
        <ele>46.8</ele>
        <time>2025-09-25T09:03:34Z</time>
      </trkpt>
      <trkpt lat="48.54391" lon="-4.57198">
        <ele>46.8</ele>
        <time>2025-09-25T09:03:54Z</time>
      </trkpt>
      <trkpt lat="48.54393" lon="-4.572">
        <ele>46.8</ele>
        <time>2025-09-25T09:03:57Z</time>
      </trkpt>
      <trkpt lat="48.54393" lon="-4.57198">
        <ele>46.8</ele>
        <time>2025-09-25T09:03:58Z</time>
      </trkpt>
      <trkpt lat="48.54393" lon="-4.572">
        <ele>47</ele>
        <time>2025-09-25T09:04:00Z</time>
      </trkpt>
      <trkpt lat="48.54393" lon="-4.57202">
        <ele>47</ele>
        <time>2025-09-25T09:04:29Z</time>
      </trkpt>
      <trkpt lat="48.54394" lon="-4.57206">
        <ele>47</ele>
        <time>2025-09-25T09:04:31Z</time>
      </trkpt>
      <trkpt lat="48.54395" lon="-4.57209">
        <ele>47</ele>
        <time>2025-09-25T09:04:32Z</time>
      </trkpt>
      <trkpt lat="48.54406" lon="-4.57228">
        <ele>47</ele>
        <time>2025-09-25T09:04:39Z</time>
      </trkpt>
      <trkpt lat="48.54416" lon="-4.57249">
        <ele>47</ele>
        <time>2025-09-25T09:04:46Z</time>
      </trkpt>
      <trkpt lat="48.54421" lon="-4.57259">
        <ele>47</ele>
        <time>2025-09-25T09:04:49Z</time>
      </trkpt>
      <trkpt lat="48.54435" lon="-4.57287">
        <ele>47</ele>
        <time>2025-09-25T09:04:57Z</time>
      </trkpt>
      <trkpt lat="48.54453" lon="-4.57322">
        <ele>47</ele>
        <time>2025-09-25T09:05:08Z</time>
      </trkpt>
      <trkpt lat="48.54466" lon="-4.57349">
        <ele>47.2</ele>
        <time>2025-09-25T09:05:16Z</time>
      </trkpt>
      <trkpt lat="48.54479" lon="-4.57383">
        <ele>46.8</ele>
        <time>2025-09-25T09:05:24Z</time>
      </trkpt>
      <trkpt lat="48.54484" lon="-4.57417">
        <ele>47</ele>
        <time>2025-09-25T09:05:31Z</time>
      </trkpt>
      <trkpt lat="48.54491" lon="-4.57454">
        <ele>46.8</ele>
        <time>2025-09-25T09:05:39Z</time>
      </trkpt>
      <trkpt lat="48.54497" lon="-4.5749">
        <ele>47.4</ele>
        <time>2025-09-25T09:05:47Z</time>
      </trkpt>
      <trkpt lat="48.54503" lon="-4.57528">
        <ele>47.4</ele>
        <time>2025-09-25T09:05:57Z</time>
      </trkpt>
      <trkpt lat="48.54505" lon="-4.57539">
        <ele>47.4</ele>
        <time>2025-09-25T09:06:00Z</time>
      </trkpt>
      <trkpt lat="48.54505" lon="-4.5754">
        <ele>47.4</ele>
        <time>2025-09-25T09:06:02Z</time>
      </trkpt>
      <trkpt lat="48.54505" lon="-4.5754">
        <ele>47.6</ele>
        <time>2025-09-25T09:06:55Z</time>
      </trkpt>
      <trkpt lat="48.54506" lon="-4.57547">
        <ele>47.6</ele>
        <time>2025-09-25T09:07:01Z</time>
      </trkpt>
      <trkpt lat="48.54507" lon="-4.57557">
        <ele>47.6</ele>
        <time>2025-09-25T09:07:05Z</time>
      </trkpt>
      <trkpt lat="48.54508" lon="-4.57565">
        <ele>47.6</ele>
        <time>2025-09-25T09:07:07Z</time>
      </trkpt>
      <trkpt lat="48.54516" lon="-4.57603">
        <ele>47.8</ele>
        <time>2025-09-25T09:07:16Z</time>
      </trkpt>
      <trkpt lat="48.54521" lon="-4.57623">
        <ele>48</ele>
        <time>2025-09-25T09:07:21Z</time>
      </trkpt>
      <trkpt lat="48.54526" lon="-4.57647">
        <ele>48.2</ele>
        <time>2025-09-25T09:07:27Z</time>
      </trkpt>
      <trkpt lat="48.54535" lon="-4.57691">
        <ele>48.2</ele>
        <time>2025-09-25T09:07:38Z</time>
      </trkpt>
      <trkpt lat="48.54545" lon="-4.57728">
        <ele>48.8</ele>
        <time>2025-09-25T09:07:47Z</time>
      </trkpt>
      <trkpt lat="48.54557" lon="-4.5777">
        <ele>48.8</ele>
        <time>2025-09-25T09:07:56Z</time>
      </trkpt>
      <trkpt lat="48.54569" lon="-4.5781">
        <ele>48.6</ele>
        <time>2025-09-25T09:08:04Z</time>
      </trkpt>
      <trkpt lat="48.54576" lon="-4.5784">
        <ele>48.4</ele>
        <time>2025-09-25T09:08:10Z</time>
      </trkpt>
      <trkpt lat="48.54587" lon="-4.57877">
        <ele>48.6</ele>
        <time>2025-09-25T09:08:18Z</time>
      </trkpt>
      <trkpt lat="48.54602" lon="-4.57917">
        <ele>48.4</ele>
        <time>2025-09-25T09:08:27Z</time>
      </trkpt>
      <trkpt lat="48.54621" lon="-4.57957">
        <ele>47.6</ele>
        <time>2025-09-25T09:08:36Z</time>
      </trkpt>
      <trkpt lat="48.5464" lon="-4.57995">
        <ele>47.2</ele>
        <time>2025-09-25T09:08:44Z</time>
      </trkpt>
      <trkpt lat="48.54642" lon="-4.58">
        <ele>47</ele>
        <time>2025-09-25T09:08:45Z</time>
      </trkpt>
      <trkpt lat="48.54647" lon="-4.5801">
        <ele>46.8</ele>
        <time>2025-09-25T09:08:47Z</time>
      </trkpt>
      <trkpt lat="48.54652" lon="-4.5802">
        <ele>46.4</ele>
        <time>2025-09-25T09:08:49Z</time>
      </trkpt>
      <trkpt lat="48.54659" lon="-4.58034">
        <ele>46.4</ele>
        <time>2025-09-25T09:08:52Z</time>
      </trkpt>
      <trkpt lat="48.54675" lon="-4.58061">
        <ele>46.4</ele>
        <time>2025-09-25T09:08:59Z</time>
      </trkpt>
      <trkpt lat="48.54686" lon="-4.58068">
        <ele>46.2</ele>
        <time>2025-09-25T09:09:04Z</time>
      </trkpt>
      <trkpt lat="48.54689" lon="-4.58068">
        <ele>46.2</ele>
        <time>2025-09-25T09:09:05Z</time>
      </trkpt>
      <trkpt lat="48.54695" lon="-4.58066">
        <ele>45.8</ele>
        <time>2025-09-25T09:09:07Z</time>
      </trkpt>
      <trkpt lat="48.54713" lon="-4.5806">
        <ele>45.8</ele>
        <time>2025-09-25T09:09:13Z</time>
      </trkpt>
      <trkpt lat="48.54739" lon="-4.58052">
        <ele>46.4</ele>
        <time>2025-09-25T09:09:21Z</time>
      </trkpt>
      <trkpt lat="48.54748" lon="-4.58052">
        <ele>46.8</ele>
        <time>2025-09-25T09:09:24Z</time>
      </trkpt>
      <trkpt lat="48.54763" lon="-4.58049">
        <ele>46.8</ele>
        <time>2025-09-25T09:09:29Z</time>
      </trkpt>
      <trkpt lat="48.54767" lon="-4.58048">
        <ele>46.8</ele>
        <time>2025-09-25T09:09:30Z</time>
      </trkpt>
      <trkpt lat="48.548" lon="-4.58041">
        <ele>47.4</ele>
        <time>2025-09-25T09:09:40Z</time>
      </trkpt>
      <trkpt lat="48.54803" lon="-4.58041">
        <ele>47.2</ele>
        <time>2025-09-25T09:09:41Z</time>
      </trkpt>
      <trkpt lat="48.54806" lon="-4.5804">
        <ele>47.2</ele>
        <time>2025-09-25T09:09:42Z</time>
      </trkpt>
      <trkpt lat="48.54826" lon="-4.58035">
        <ele>47.6</ele>
        <time>2025-09-25T09:09:48Z</time>
      </trkpt>
      <trkpt lat="48.54836" lon="-4.58034">
        <ele>47.6</ele>
        <time>2025-09-25T09:09:51Z</time>
      </trkpt>
      <trkpt lat="48.54845" lon="-4.58032">
        <ele>47.8</ele>
        <time>2025-09-25T09:09:54Z</time>
      </trkpt>
      <trkpt lat="48.54857" lon="-4.5803">
        <ele>48.2</ele>
        <time>2025-09-25T09:09:58Z</time>
      </trkpt>
      <trkpt lat="48.54885" lon="-4.58026">
        <ele>48.6</ele>
        <time>2025-09-25T09:10:07Z</time>
      </trkpt>
      <trkpt lat="48.54913" lon="-4.58021">
        <ele>48.8</ele>
        <time>2025-09-25T09:10:16Z</time>
      </trkpt>
      <trkpt lat="48.5494" lon="-4.58023">
        <ele>48.4</ele>
        <time>2025-09-25T09:10:24Z</time>
      </trkpt>
      <trkpt lat="48.54975" lon="-4.58029">
        <ele>47.2</ele>
        <time>2025-09-25T09:10:32Z</time>
      </trkpt>
      <trkpt lat="48.54986" lon="-4.58032">
        <ele>46.6</ele>
        <time>2025-09-25T09:10:34Z</time>
      </trkpt>
      <trkpt lat="48.55003" lon="-4.58037">
        <ele>45.2</ele>
        <time>2025-09-25T09:10:37Z</time>
      </trkpt>
      <trkpt lat="48.55015" lon="-4.58041">
        <ele>44</ele>
        <time>2025-09-25T09:10:39Z</time>
      </trkpt>
      <trkpt lat="48.55028" lon="-4.58045">
        <ele>43</ele>
        <time>2025-09-25T09:10:41Z</time>
      </trkpt>
      <trkpt lat="48.55034" lon="-4.58047">
        <ele>42.6</ele>
        <time>2025-09-25T09:10:42Z</time>
      </trkpt>
      <trkpt lat="48.55065" lon="-4.58056">
        <ele>41.8</ele>
        <time>2025-09-25T09:10:47Z</time>
      </trkpt>
      <trkpt lat="48.55075" lon="-4.58059">
        <ele>41.6</ele>
        <time>2025-09-25T09:10:49Z</time>
      </trkpt>
      <trkpt lat="48.55091" lon="-4.58065">
        <ele>40.6</ele>
        <time>2025-09-25T09:10:52Z</time>
      </trkpt>
      <trkpt lat="48.55104" lon="-4.5807">
        <ele>38.8</ele>
        <time>2025-09-25T09:10:54Z</time>
      </trkpt>
      <trkpt lat="48.55119" lon="-4.58075">
        <ele>37.4</ele>
        <time>2025-09-25T09:10:56Z</time>
      </trkpt>
      <trkpt lat="48.55127" lon="-4.58077">
        <ele>36.4</ele>
        <time>2025-09-25T09:10:57Z</time>
      </trkpt>
      <trkpt lat="48.55135" lon="-4.5808">
        <ele>35.8</ele>
        <time>2025-09-25T09:10:58Z</time>
      </trkpt>
      <trkpt lat="48.55143" lon="-4.58083">
        <ele>34.6</ele>
        <time>2025-09-25T09:10:59Z</time>
      </trkpt>
      <trkpt lat="48.55159" lon="-4.58087">
        <ele>33.6</ele>
        <time>2025-09-25T09:11:01Z</time>
      </trkpt>
      <trkpt lat="48.55164" lon="-4.58088">
        <ele>33.4</ele>
        <time>2025-09-25T09:11:02Z</time>
      </trkpt>
      <trkpt lat="48.55174" lon="-4.5809">
        <ele>34</ele>
        <time>2025-09-25T09:11:05Z</time>
      </trkpt>
      <trkpt lat="48.55184" lon="-4.58094">
        <ele>34</ele>
        <time>2025-09-25T09:11:10Z</time>
      </trkpt>
      <trkpt lat="48.55206" lon="-4.58097">
        <ele>32.8</ele>
        <time>2025-09-25T09:11:15Z</time>
      </trkpt>
      <trkpt lat="48.55215" lon="-4.58097">
        <ele>32.4</ele>
        <time>2025-09-25T09:11:17Z</time>
      </trkpt>
      <trkpt lat="48.55231" lon="-4.58096">
        <ele>31.8</ele>
        <time>2025-09-25T09:11:20Z</time>
      </trkpt>
      <trkpt lat="48.55236" lon="-4.58094">
        <ele>31.6</ele>
        <time>2025-09-25T09:11:21Z</time>
      </trkpt>
      <trkpt lat="48.55251" lon="-4.58088">
        <ele>31.4</ele>
        <time>2025-09-25T09:11:24Z</time>
      </trkpt>
      <trkpt lat="48.5526" lon="-4.58082">
        <ele>31.4</ele>
        <time>2025-09-25T09:11:26Z</time>
      </trkpt>
      <trkpt lat="48.55264" lon="-4.58079">
        <ele>31</ele>
        <time>2025-09-25T09:11:27Z</time>
      </trkpt>
      <trkpt lat="48.55303" lon="-4.58046">
        <ele>32.2</ele>
        <time>2025-09-25T09:11:37Z</time>
      </trkpt>
      <trkpt lat="48.55306" lon="-4.58042">
        <ele>32.4</ele>
        <time>2025-09-25T09:11:38Z</time>
      </trkpt>
      <trkpt lat="48.55319" lon="-4.58031">
        <ele>32</ele>
        <time>2025-09-25T09:11:41Z</time>
      </trkpt>
      <trkpt lat="48.55327" lon="-4.58028">
        <ele>31</ele>
        <time>2025-09-25T09:11:43Z</time>
      </trkpt>
      <trkpt lat="48.55331" lon="-4.5803">
        <ele>31</ele>
        <time>2025-09-25T09:11:44Z</time>
      </trkpt>
      <trkpt lat="48.55334" lon="-4.58034">
        <ele>31.2</ele>
        <time>2025-09-25T09:11:45Z</time>
      </trkpt>
      <trkpt lat="48.55337" lon="-4.58053">
        <ele>32.2</ele>
        <time>2025-09-25T09:11:49Z</time>
      </trkpt>
      <trkpt lat="48.5534" lon="-4.58079">
        <ele>33.2</ele>
        <time>2025-09-25T09:11:54Z</time>
      </trkpt>
      <trkpt lat="48.55342" lon="-4.58099">
        <ele>34.2</ele>
        <time>2025-09-25T09:11:58Z</time>
      </trkpt>
      <trkpt lat="48.55343" lon="-4.58103">
        <ele>34.4</ele>
        <time>2025-09-25T09:11:59Z</time>
      </trkpt>
      <trkpt lat="48.55347" lon="-4.58131">
        <ele>34.8</ele>
        <time>2025-09-25T09:12:05Z</time>
      </trkpt>
      <trkpt lat="48.55352" lon="-4.58165">
        <ele>35.2</ele>
        <time>2025-09-25T09:12:13Z</time>
      </trkpt>
      <trkpt lat="48.55353" lon="-4.58169">
        <ele>35.2</ele>
        <time>2025-09-25T09:12:14Z</time>
      </trkpt>
      <trkpt lat="48.55354" lon="-4.58177">
        <ele>35.4</ele>
        <time>2025-09-25T09:12:16Z</time>
      </trkpt>
      <trkpt lat="48.55354" lon="-4.58189">
        <ele>35.6</ele>
        <time>2025-09-25T09:12:19Z</time>
      </trkpt>
      <trkpt lat="48.55354" lon="-4.58205">
        <ele>36.2</ele>
        <time>2025-09-25T09:12:23Z</time>
      </trkpt>
      <trkpt lat="48.55354" lon="-4.58209">
        <ele>36.4</ele>
        <time>2025-09-25T09:12:24Z</time>
      </trkpt>
      <trkpt lat="48.55353" lon="-4.5822">
        <ele>36.8</ele>
        <time>2025-09-25T09:12:27Z</time>
      </trkpt>
      <trkpt lat="48.55352" lon="-4.58231">
        <ele>37.6</ele>
        <time>2025-09-25T09:12:31Z</time>
      </trkpt>
      <trkpt lat="48.55351" lon="-4.58248">
        <ele>38.8</ele>
        <time>2025-09-25T09:12:37Z</time>
      </trkpt>
      <trkpt lat="48.55351" lon="-4.58258">
        <ele>39.6</ele>
        <time>2025-09-25T09:12:41Z</time>
      </trkpt>
      <trkpt lat="48.55349" lon="-4.58265">
        <ele>40</ele>
        <time>2025-09-25T09:12:44Z</time>
      </trkpt>
      <trkpt lat="48.55348" lon="-4.58278">
        <ele>40.2</ele>
        <time>2025-09-25T09:12:49Z</time>
      </trkpt>
      <trkpt lat="48.55353" lon="-4.5829">
        <ele>40.8</ele>
        <time>2025-09-25T09:12:54Z</time>
      </trkpt>
      <trkpt lat="48.55356" lon="-4.58291">
        <ele>41</ele>
        <time>2025-09-25T09:12:56Z</time>
      </trkpt>
      <trkpt lat="48.55361" lon="-4.58296">
        <ele>41.6</ele>
        <time>2025-09-25T09:13:00Z</time>
      </trkpt>
      <trkpt lat="48.55367" lon="-4.58302">
        <ele>42</ele>
        <time>2025-09-25T09:13:04Z</time>
      </trkpt>
      <trkpt lat="48.5537" lon="-4.58304">
        <ele>42.4</ele>
        <time>2025-09-25T09:13:06Z</time>
      </trkpt>
      <trkpt lat="48.55377" lon="-4.5831">
        <ele>43</ele>
        <time>2025-09-25T09:13:10Z</time>
      </trkpt>
      <trkpt lat="48.5538" lon="-4.58315">
        <ele>43.8</ele>
        <time>2025-09-25T09:13:13Z</time>
      </trkpt>
      <trkpt lat="48.55383" lon="-4.5832">
        <ele>44.2</ele>
        <time>2025-09-25T09:13:16Z</time>
      </trkpt>
      <trkpt lat="48.55389" lon="-4.58333">
        <ele>44.6</ele>
        <time>2025-09-25T09:13:22Z</time>
      </trkpt>
      <trkpt lat="48.55396" lon="-4.58343">
        <ele>45.2</ele>
        <time>2025-09-25T09:13:29Z</time>
      </trkpt>
      <trkpt lat="48.55397" lon="-4.58345">
        <ele>45.4</ele>
        <time>2025-09-25T09:13:30Z</time>
      </trkpt>
      <trkpt lat="48.55406" lon="-4.58359">
        <ele>45.8</ele>
        <time>2025-09-25T09:13:39Z</time>
      </trkpt>
      <trkpt lat="48.55412" lon="-4.58373">
        <ele>46.2</ele>
        <time>2025-09-25T09:13:46Z</time>
      </trkpt>
      <trkpt lat="48.55413" lon="-4.58375">
        <ele>46.2</ele>
        <time>2025-09-25T09:13:47Z</time>
      </trkpt>
      <trkpt lat="48.55415" lon="-4.58383">
        <ele>46.6</ele>
        <time>2025-09-25T09:13:51Z</time>
      </trkpt>
      <trkpt lat="48.55417" lon="-4.58392">
        <ele>46.6</ele>
        <time>2025-09-25T09:13:55Z</time>
      </trkpt>
      <trkpt lat="48.55419" lon="-4.58412">
        <ele>47</ele>
        <time>2025-09-25T09:14:02Z</time>
      </trkpt>
      <trkpt lat="48.55422" lon="-4.58433">
        <ele>47.2</ele>
        <time>2025-09-25T09:14:09Z</time>
      </trkpt>
      <trkpt lat="48.55422" lon="-4.58435">
        <ele>47.2</ele>
        <time>2025-09-25T09:14:10Z</time>
      </trkpt>
      <trkpt lat="48.55423" lon="-4.58438">
        <ele>47.4</ele>
        <time>2025-09-25T09:14:11Z</time>
      </trkpt>
      <trkpt lat="48.55423" lon="-4.58441">
        <ele>47.4</ele>
        <time>2025-09-25T09:14:12Z</time>
      </trkpt>
      <trkpt lat="48.55424" lon="-4.58446">
        <ele>47.4</ele>
        <time>2025-09-25T09:14:14Z</time>
      </trkpt>
      <trkpt lat="48.55426" lon="-4.58451">
        <ele>47.4</ele>
        <time>2025-09-25T09:14:18Z</time>
      </trkpt>
      <trkpt lat="48.55427" lon="-4.58452">
        <ele>47.8</ele>
        <time>2025-09-25T09:14:21Z</time>
      </trkpt>
      <trkpt lat="48.55425" lon="-4.58453">
        <ele>47.8</ele>
        <time>2025-09-25T09:15:19Z</time>
      </trkpt>
      <trkpt lat="48.55426" lon="-4.58453">
        <ele>47.8</ele>
        <time>2025-09-25T09:15:20Z</time>
      </trkpt>
      <trkpt lat="48.55426" lon="-4.58454">
        <ele>47.8</ele>
        <time>2025-09-25T09:15:21Z</time>
      </trkpt>
      <trkpt lat="48.55426" lon="-4.58457">
        <ele>48</ele>
        <time>2025-09-25T09:15:28Z</time>
      </trkpt>
      <trkpt lat="48.55427" lon="-4.58464">
        <ele>48</ele>
        <time>2025-09-25T09:15:31Z</time>
      </trkpt>
      <trkpt lat="48.55428" lon="-4.58473">
        <ele>47.8</ele>
        <time>2025-09-25T09:15:35Z</time>
      </trkpt>
      <trkpt lat="48.55429" lon="-4.58478">
        <ele>48</ele>
        <time>2025-09-25T09:15:37Z</time>
      </trkpt>
      <trkpt lat="48.55429" lon="-4.58481">
        <ele>48</ele>
        <time>2025-09-25T09:15:38Z</time>
      </trkpt>
      <trkpt lat="48.5543" lon="-4.58486">
        <ele>48</ele>
        <time>2025-09-25T09:15:40Z</time>
      </trkpt>
      <trkpt lat="48.55434" lon="-4.5851">
        <ele>48.2</ele>
        <time>2025-09-25T09:15:48Z</time>
      </trkpt>
      <trkpt lat="48.55435" lon="-4.58513">
        <ele>48.2</ele>
        <time>2025-09-25T09:15:49Z</time>
      </trkpt>
      <trkpt lat="48.55438" lon="-4.58532">
        <ele>48</ele>
        <time>2025-09-25T09:15:54Z</time>
      </trkpt>
      <trkpt lat="48.55441" lon="-4.58548">
        <ele>48</ele>
        <time>2025-09-25T09:15:58Z</time>
      </trkpt>
      <trkpt lat="48.55447" lon="-4.58585">
        <ele>47.4</ele>
        <time>2025-09-25T09:16:07Z</time>
      </trkpt>
      <trkpt lat="48.55447" lon="-4.58619">
        <ele>46.6</ele>
        <time>2025-09-25T09:16:14Z</time>
      </trkpt>
      <trkpt lat="48.55447" lon="-4.58625">
        <ele>46.4</ele>
        <time>2025-09-25T09:16:15Z</time>
      </trkpt>
      <trkpt lat="48.55444" lon="-4.58647">
        <ele>46.2</ele>
        <time>2025-09-25T09:16:19Z</time>
      </trkpt>
      <trkpt lat="48.55439" lon="-4.58694">
        <ele>45.6</ele>
        <time>2025-09-25T09:16:27Z</time>
      </trkpt>
      <trkpt lat="48.55436" lon="-4.58732">
        <ele>45.4</ele>
        <time>2025-09-25T09:16:34Z</time>
      </trkpt>
      <trkpt lat="48.55435" lon="-4.58741">
        <ele>45.2</ele>
        <time>2025-09-25T09:16:37Z</time>
      </trkpt>
      <trkpt lat="48.55435" lon="-4.58742">
        <ele>45</ele>
        <time>2025-09-25T09:16:39Z</time>
      </trkpt>
      <trkpt lat="48.55435" lon="-4.58742">
        <ele>45</ele>
        <time>2025-09-25T09:16:40Z</time>
      </trkpt>
      <trkpt lat="48.55435" lon="-4.58743">
        <ele>45</ele>
        <time>2025-09-25T09:17:44Z</time>
      </trkpt>
      <trkpt lat="48.55435" lon="-4.58751">
        <ele>45</ele>
        <time>2025-09-25T09:17:47Z</time>
      </trkpt>
      <trkpt lat="48.55431" lon="-4.58773">
        <ele>44.6</ele>
        <time>2025-09-25T09:17:52Z</time>
      </trkpt>
      <trkpt lat="48.55429" lon="-4.58791">
        <ele>44</ele>
        <time>2025-09-25T09:17:55Z</time>
      </trkpt>
      <trkpt lat="48.55427" lon="-4.58814">
        <ele>43.2</ele>
        <time>2025-09-25T09:17:58Z</time>
      </trkpt>
      <trkpt lat="48.55426" lon="-4.58822">
        <ele>42.4</ele>
        <time>2025-09-25T09:17:59Z</time>
      </trkpt>
      <trkpt lat="48.55426" lon="-4.58841">
        <ele>41</ele>
        <time>2025-09-25T09:18:01Z</time>
      </trkpt>
      <trkpt lat="48.55424" lon="-4.58862">
        <ele>39.6</ele>
        <time>2025-09-25T09:18:03Z</time>
      </trkpt>
      <trkpt lat="48.55423" lon="-4.58885">
        <ele>38.4</ele>
        <time>2025-09-25T09:18:05Z</time>
      </trkpt>
      <trkpt lat="48.5542" lon="-4.58908">
        <ele>37.4</ele>
        <time>2025-09-25T09:18:07Z</time>
      </trkpt>
      <trkpt lat="48.55416" lon="-4.58928">
        <ele>37.2</ele>
        <time>2025-09-25T09:18:09Z</time>
      </trkpt>
      <trkpt lat="48.55401" lon="-4.58984">
        <ele>37.8</ele>
        <time>2025-09-25T09:18:15Z</time>
      </trkpt>
      <trkpt lat="48.55385" lon="-4.59039">
        <ele>36.8</ele>
        <time>2025-09-25T09:18:21Z</time>
      </trkpt>
      <trkpt lat="48.55377" lon="-4.59063">
        <ele>37.2</ele>
        <time>2025-09-25T09:18:24Z</time>
      </trkpt>
      <trkpt lat="48.55371" lon="-4.59077">
        <ele>37.4</ele>
        <time>2025-09-25T09:18:26Z</time>
      </trkpt>
      <trkpt lat="48.55362" lon="-4.5909">
        <ele>38.4</ele>
        <time>2025-09-25T09:18:29Z</time>
      </trkpt>
      <trkpt lat="48.55352" lon="-4.591">
        <ele>39.4</ele>
        <time>2025-09-25T09:18:33Z</time>
      </trkpt>
      <trkpt lat="48.55348" lon="-4.59102">
        <ele>39.8</ele>
        <time>2025-09-25T09:18:35Z</time>
      </trkpt>
      <trkpt lat="48.5534" lon="-4.59106">
        <ele>40.4</ele>
        <time>2025-09-25T09:18:39Z</time>
      </trkpt>
      <trkpt lat="48.55336" lon="-4.59107">
        <ele>40.6</ele>
        <time>2025-09-25T09:18:41Z</time>
      </trkpt>
      <trkpt lat="48.55331" lon="-4.59108">
        <ele>41</ele>
        <time>2025-09-25T09:18:44Z</time>
      </trkpt>
      <trkpt lat="48.55324" lon="-4.5911">
        <ele>41.4</ele>
        <time>2025-09-25T09:18:48Z</time>
      </trkpt>
      <trkpt lat="48.5532" lon="-4.5911">
        <ele>41.6</ele>
        <time>2025-09-25T09:18:50Z</time>
      </trkpt>
      <trkpt lat="48.55314" lon="-4.59111">
        <ele>42</ele>
        <time>2025-09-25T09:18:53Z</time>
      </trkpt>
      <trkpt lat="48.55304" lon="-4.59113">
        <ele>42.8</ele>
        <time>2025-09-25T09:18:58Z</time>
      </trkpt>
      <trkpt lat="48.55298" lon="-4.59114">
        <ele>43</ele>
        <time>2025-09-25T09:19:01Z</time>
      </trkpt>
      <trkpt lat="48.55294" lon="-4.59116">
        <ele>43.2</ele>
        <time>2025-09-25T09:19:03Z</time>
      </trkpt>
      <trkpt lat="48.55289" lon="-4.59117">
        <ele>43.2</ele>
        <time>2025-09-25T09:19:05Z</time>
      </trkpt>
      <trkpt lat="48.55274" lon="-4.59121">
        <ele>43.4</ele>
        <time>2025-09-25T09:19:12Z</time>
      </trkpt>
      <trkpt lat="48.55255" lon="-4.59122">
        <ele>43.4</ele>
        <time>2025-09-25T09:19:20Z</time>
      </trkpt>
      <trkpt lat="48.55244" lon="-4.59111">
        <ele>43.2</ele>
        <time>2025-09-25T09:19:25Z</time>
      </trkpt>
      <trkpt lat="48.55238" lon="-4.59098">
        <ele>42.8</ele>
        <time>2025-09-25T09:19:28Z</time>
      </trkpt>
      <trkpt lat="48.55233" lon="-4.59088">
        <ele>42.4</ele>
        <time>2025-09-25T09:19:30Z</time>
      </trkpt>
      <trkpt lat="48.55231" lon="-4.59083">
        <ele>42.2</ele>
        <time>2025-09-25T09:19:31Z</time>
      </trkpt>
      <trkpt lat="48.55222" lon="-4.59065">
        <ele>41.6</ele>
        <time>2025-09-25T09:19:34Z</time>
      </trkpt>
      <trkpt lat="48.55212" lon="-4.59046">
        <ele>40.8</ele>
        <time>2025-09-25T09:19:37Z</time>
      </trkpt>
      <trkpt lat="48.55209" lon="-4.59038">
        <ele>40.4</ele>
        <time>2025-09-25T09:19:38Z</time>
      </trkpt>
      <trkpt lat="48.55199" lon="-4.59013">
        <ele>39.6</ele>
        <time>2025-09-25T09:19:41Z</time>
      </trkpt>
      <trkpt lat="48.55195" lon="-4.58997">
        <ele>39.2</ele>
        <time>2025-09-25T09:19:43Z</time>
      </trkpt>
      <trkpt lat="48.55186" lon="-4.58963">
        <ele>40.4</ele>
        <time>2025-09-25T09:19:48Z</time>
      </trkpt>
      <trkpt lat="48.55185" lon="-4.58957">
        <ele>40.6</ele>
        <time>2025-09-25T09:19:49Z</time>
      </trkpt>
      <trkpt lat="48.55179" lon="-4.58936">
        <ele>41.6</ele>
        <time>2025-09-25T09:19:53Z</time>
      </trkpt>
      <trkpt lat="48.55176" lon="-4.58923">
        <ele>42.4</ele>
        <time>2025-09-25T09:19:56Z</time>
      </trkpt>
      <trkpt lat="48.55175" lon="-4.58919">
        <ele>42.4</ele>
        <time>2025-09-25T09:19:57Z</time>
      </trkpt>
      <trkpt lat="48.55174" lon="-4.58915">
        <ele>42.6</ele>
        <time>2025-09-25T09:19:58Z</time>
      </trkpt>
      <trkpt lat="48.55173" lon="-4.5891">
        <ele>43</ele>
        <time>2025-09-25T09:19:59Z</time>
      </trkpt>
      <trkpt lat="48.55171" lon="-4.58902">
        <ele>43.6</ele>
        <time>2025-09-25T09:20:01Z</time>
      </trkpt>
      <trkpt lat="48.5517" lon="-4.58898">
        <ele>43.8</ele>
        <time>2025-09-25T09:20:02Z</time>
      </trkpt>
      <trkpt lat="48.55168" lon="-4.5889">
        <ele>44.2</ele>
        <time>2025-09-25T09:20:04Z</time>
      </trkpt>
      <trkpt lat="48.55163" lon="-4.5887">
        <ele>45</ele>
        <time>2025-09-25T09:20:09Z</time>
      </trkpt>
      <trkpt lat="48.5516" lon="-4.5886">
        <ele>45.8</ele>
        <time>2025-09-25T09:20:12Z</time>
      </trkpt>
      <trkpt lat="48.55158" lon="-4.58852">
        <ele>46</ele>
        <time>2025-09-25T09:20:14Z</time>
      </trkpt>
      <trkpt lat="48.55153" lon="-4.58832">
        <ele>47.2</ele>
        <time>2025-09-25T09:20:19Z</time>
      </trkpt>
      <trkpt lat="48.55152" lon="-4.58828">
        <ele>47.2</ele>
        <time>2025-09-25T09:20:20Z</time>
      </trkpt>
      <trkpt lat="48.55147" lon="-4.58806">
        <ele>48.2</ele>
        <time>2025-09-25T09:20:26Z</time>
      </trkpt>
      <trkpt lat="48.55146" lon="-4.58803">
        <ele>48.4</ele>
        <time>2025-09-25T09:20:27Z</time>
      </trkpt>
      <trkpt lat="48.55142" lon="-4.58786">
        <ele>49.4</ele>
        <time>2025-09-25T09:20:32Z</time>
      </trkpt>
      <trkpt lat="48.55141" lon="-4.5878">
        <ele>49.2</ele>
        <time>2025-09-25T09:20:34Z</time>
      </trkpt>
      <trkpt lat="48.55138" lon="-4.58763">
        <ele>50.4</ele>
        <time>2025-09-25T09:20:40Z</time>
      </trkpt>
      <trkpt lat="48.55135" lon="-4.58751">
        <ele>50.8</ele>
        <time>2025-09-25T09:20:45Z</time>
      </trkpt>
      <trkpt lat="48.55134" lon="-4.58748">
        <ele>50.8</ele>
        <time>2025-09-25T09:20:46Z</time>
      </trkpt>
      <trkpt lat="48.55134" lon="-4.58746">
        <ele>51</ele>
        <time>2025-09-25T09:20:47Z</time>
      </trkpt>
      <trkpt lat="48.55129" lon="-4.58726">
        <ele>51</ele>
        <time>2025-09-25T09:20:56Z</time>
      </trkpt>
      <trkpt lat="48.5513" lon="-4.58724">
        <ele>51.2</ele>
        <time>2025-09-25T09:20:59Z</time>
      </trkpt>
      <trkpt lat="48.55132" lon="-4.58725">
        <ele>51.4</ele>
        <time>2025-09-25T09:21:02Z</time>
      </trkpt>
      <trkpt lat="48.55134" lon="-4.58726">
        <ele>51.4</ele>
        <time>2025-09-25T09:21:03Z</time>
      </trkpt>
      <trkpt lat="48.55138" lon="-4.58727">
        <ele>51.4</ele>
        <time>2025-09-25T09:21:08Z</time>
      </trkpt>
      <trkpt lat="48.55138" lon="-4.58727">
        <ele>51.4</ele>
        <time>2025-09-25T09:21:10Z</time>
      </trkpt>
      <trkpt lat="48.55135" lon="-4.58726">
        <ele>51.6</ele>
        <time>2025-09-25T09:22:04Z</time>
      </trkpt>
      <trkpt lat="48.55134" lon="-4.58727">
        <ele>51.6</ele>
        <time>2025-09-25T09:22:05Z</time>
      </trkpt>
      <trkpt lat="48.55131" lon="-4.58726">
        <ele>51.8</ele>
        <time>2025-09-25T09:22:07Z</time>
      </trkpt>
      <trkpt lat="48.5513" lon="-4.58726">
        <ele>51.8</ele>
        <time>2025-09-25T09:22:10Z</time>
      </trkpt>
      <trkpt lat="48.55129" lon="-4.58724">
        <ele>51.8</ele>
        <time>2025-09-25T09:23:00Z</time>
      </trkpt>
      <trkpt lat="48.55128" lon="-4.58724">
        <ele>51.8</ele>
        <time>2025-09-25T09:23:01Z</time>
      </trkpt>
      <trkpt lat="48.55126" lon="-4.58713">
        <ele>51.6</ele>
        <time>2025-09-25T09:23:06Z</time>
      </trkpt>
      <trkpt lat="48.55118" lon="-4.58689">
        <ele>51.4</ele>
        <time>2025-09-25T09:23:14Z</time>
      </trkpt>
      <trkpt lat="48.55116" lon="-4.58683">
        <ele>51.4</ele>
        <time>2025-09-25T09:23:16Z</time>
      </trkpt>
      <trkpt lat="48.55111" lon="-4.58663">
        <ele>51</ele>
        <time>2025-09-25T09:23:21Z</time>
      </trkpt>
      <trkpt lat="48.55104" lon="-4.58633">
        <ele>50.8</ele>
        <time>2025-09-25T09:23:28Z</time>
      </trkpt>
      <trkpt lat="48.55094" lon="-4.58596">
        <ele>50.4</ele>
        <time>2025-09-25T09:23:36Z</time>
      </trkpt>
      <trkpt lat="48.55093" lon="-4.58592">
        <ele>50.2</ele>
        <time>2025-09-25T09:23:37Z</time>
      </trkpt>
      <trkpt lat="48.55085" lon="-4.58561">
        <ele>49.4</ele>
        <time>2025-09-25T09:23:43Z</time>
      </trkpt>
      <trkpt lat="48.55082" lon="-4.5855">
        <ele>49.2</ele>
        <time>2025-09-25T09:23:45Z</time>
      </trkpt>
      <trkpt lat="48.55077" lon="-4.58529">
        <ele>48.8</ele>
        <time>2025-09-25T09:23:49Z</time>
      </trkpt>
      <trkpt lat="48.55073" lon="-4.58519">
        <ele>49</ele>
        <time>2025-09-25T09:23:51Z</time>
      </trkpt>
      <trkpt lat="48.55066" lon="-4.58514">
        <ele>49.2</ele>
        <time>2025-09-25T09:23:53Z</time>
      </trkpt>
      <trkpt lat="48.55056" lon="-4.58514">
        <ele>49.4</ele>
        <time>2025-09-25T09:23:56Z</time>
      </trkpt>
      <trkpt lat="48.55052" lon="-4.58516">
        <ele>49.4</ele>
        <time>2025-09-25T09:23:57Z</time>
      </trkpt>
      <trkpt lat="48.55042" lon="-4.58519">
        <ele>49.2</ele>
        <time>2025-09-25T09:24:00Z</time>
      </trkpt>
      <trkpt lat="48.55031" lon="-4.58524">
        <ele>49</ele>
        <time>2025-09-25T09:24:03Z</time>
      </trkpt>
      <trkpt lat="48.5502" lon="-4.58528">
        <ele>48.8</ele>
        <time>2025-09-25T09:24:06Z</time>
      </trkpt>
      <trkpt lat="48.55001" lon="-4.58536">
        <ele>48.4</ele>
        <time>2025-09-25T09:24:12Z</time>
      </trkpt>
      <trkpt lat="48.54998" lon="-4.58537">
        <ele>48.4</ele>
        <time>2025-09-25T09:24:13Z</time>
      </trkpt>
      <trkpt lat="48.54991" lon="-4.58541">
        <ele>48</ele>
        <time>2025-09-25T09:24:15Z</time>
      </trkpt>
      <trkpt lat="48.5497" lon="-4.5855">
        <ele>47</ele>
        <time>2025-09-25T09:24:20Z</time>
      </trkpt>
      <trkpt lat="48.54951" lon="-4.58559">
        <ele>46</ele>
        <time>2025-09-25T09:24:24Z</time>
      </trkpt>
      <trkpt lat="48.54929" lon="-4.5857">
        <ele>44.6</ele>
        <time>2025-09-25T09:24:28Z</time>
      </trkpt>
      <trkpt lat="48.54911" lon="-4.58578">
        <ele>43.2</ele>
        <time>2025-09-25T09:24:31Z</time>
      </trkpt>
      <trkpt lat="48.54897" lon="-4.58584">
        <ele>42.2</ele>
        <time>2025-09-25T09:24:33Z</time>
      </trkpt>
      <trkpt lat="48.54883" lon="-4.5859">
        <ele>41.2</ele>
        <time>2025-09-25T09:24:35Z</time>
      </trkpt>
      <trkpt lat="48.54876" lon="-4.58593">
        <ele>40.8</ele>
        <time>2025-09-25T09:24:36Z</time>
      </trkpt>
      <trkpt lat="48.54839" lon="-4.58608">
        <ele>39.8</ele>
        <time>2025-09-25T09:24:42Z</time>
      </trkpt>
      <trkpt lat="48.54829" lon="-4.58612">
        <ele>39.8</ele>
        <time>2025-09-25T09:24:44Z</time>
      </trkpt>
      <trkpt lat="48.54821" lon="-4.58616">
        <ele>39.8</ele>
        <time>2025-09-25T09:24:46Z</time>
      </trkpt>
      <trkpt lat="48.54817" lon="-4.58621">
        <ele>39.8</ele>
        <time>2025-09-25T09:24:47Z</time>
      </trkpt>
      <trkpt lat="48.54811" lon="-4.58632">
        <ele>39.4</ele>
        <time>2025-09-25T09:24:49Z</time>
      </trkpt>
      <trkpt lat="48.54806" lon="-4.58644">
        <ele>38.8</ele>
        <time>2025-09-25T09:24:51Z</time>
      </trkpt>
      <trkpt lat="48.54801" lon="-4.58654">
        <ele>38.6</ele>
        <time>2025-09-25T09:24:53Z</time>
      </trkpt>
      <trkpt lat="48.54791" lon="-4.58663">
        <ele>38</ele>
        <time>2025-09-25T09:24:56Z</time>
      </trkpt>
      <trkpt lat="48.54787" lon="-4.58663">
        <ele>37.6</ele>
        <time>2025-09-25T09:24:57Z</time>
      </trkpt>
      <trkpt lat="48.5478" lon="-4.58659">
        <ele>37</ele>
        <time>2025-09-25T09:24:59Z</time>
      </trkpt>
      <trkpt lat="48.54771" lon="-4.5865">
        <ele>36.4</ele>
        <time>2025-09-25T09:25:02Z</time>
      </trkpt>
      <trkpt lat="48.5476" lon="-4.58641">
        <ele>35.4</ele>
        <time>2025-09-25T09:25:05Z</time>
      </trkpt>
      <trkpt lat="48.54749" lon="-4.58638">
        <ele>35.2</ele>
        <time>2025-09-25T09:25:08Z</time>
      </trkpt>
      <trkpt lat="48.54747" lon="-4.58642">
        <ele>35.2</ele>
        <time>2025-09-25T09:25:09Z</time>
      </trkpt>
      <trkpt lat="48.54747" lon="-4.58658">
        <ele>35.6</ele>
        <time>2025-09-25T09:25:13Z</time>
      </trkpt>
      <trkpt lat="48.5475" lon="-4.58692">
        <ele>35.8</ele>
        <time>2025-09-25T09:25:21Z</time>
      </trkpt>
      <trkpt lat="48.5475" lon="-4.58705">
        <ele>36</ele>
        <time>2025-09-25T09:25:24Z</time>
      </trkpt>
      <trkpt lat="48.5475" lon="-4.58714">
        <ele>36</ele>
        <time>2025-09-25T09:25:26Z</time>
      </trkpt>
      <trkpt lat="48.5475" lon="-4.58725">
        <ele>36.2</ele>
        <time>2025-09-25T09:25:29Z</time>
      </trkpt>
      <trkpt lat="48.5475" lon="-4.5873">
        <ele>36.2</ele>
        <time>2025-09-25T09:25:30Z</time>
      </trkpt>
      <trkpt lat="48.54747" lon="-4.58759">
        <ele>36.8</ele>
        <time>2025-09-25T09:25:38Z</time>
      </trkpt>
      <trkpt lat="48.54742" lon="-4.58784">
        <ele>37.2</ele>
        <time>2025-09-25T09:25:44Z</time>
      </trkpt>
      <trkpt lat="48.54736" lon="-4.5881">
        <ele>37.8</ele>
        <time>2025-09-25T09:25:51Z</time>
      </trkpt>
      <trkpt lat="48.54726" lon="-4.58841">
        <ele>37.8</ele>
        <time>2025-09-25T09:25:59Z</time>
      </trkpt>
      <trkpt lat="48.5472" lon="-4.58863">
        <ele>36.8</ele>
        <time>2025-09-25T09:26:03Z</time>
      </trkpt>
      <trkpt lat="48.54719" lon="-4.58869">
        <ele>36.2</ele>
        <time>2025-09-25T09:26:04Z</time>
      </trkpt>
      <trkpt lat="48.54718" lon="-4.58884">
        <ele>35</ele>
        <time>2025-09-25T09:26:06Z</time>
      </trkpt>
      <trkpt lat="48.54717" lon="-4.58901">
        <ele>33.4</ele>
        <time>2025-09-25T09:26:08Z</time>
      </trkpt>
      <trkpt lat="48.54715" lon="-4.58918">
        <ele>31.8</ele>
        <time>2025-09-25T09:26:10Z</time>
      </trkpt>
      <trkpt lat="48.54714" lon="-4.58936">
        <ele>30.4</ele>
        <time>2025-09-25T09:26:12Z</time>
      </trkpt>
      <trkpt lat="48.54713" lon="-4.58953">
        <ele>29</ele>
        <time>2025-09-25T09:26:14Z</time>
      </trkpt>
      <trkpt lat="48.54712" lon="-4.5897">
        <ele>28</ele>
        <time>2025-09-25T09:26:16Z</time>
      </trkpt>
      <trkpt lat="48.54712" lon="-4.58978">
        <ele>27.4</ele>
        <time>2025-09-25T09:26:17Z</time>
      </trkpt>
      <trkpt lat="48.54712" lon="-4.58988">
        <ele>26.2</ele>
        <time>2025-09-25T09:26:18Z</time>
      </trkpt>
      <trkpt lat="48.54711" lon="-4.58998">
        <ele>24.8</ele>
        <time>2025-09-25T09:26:19Z</time>
      </trkpt>
      <trkpt lat="48.54711" lon="-4.59008">
        <ele>23.2</ele>
        <time>2025-09-25T09:26:20Z</time>
      </trkpt>
      <trkpt lat="48.54712" lon="-4.59018">
        <ele>23</ele>
        <time>2025-09-25T09:26:21Z</time>
      </trkpt>
      <trkpt lat="48.54713" lon="-4.59037">
        <ele>22</ele>
        <time>2025-09-25T09:26:23Z</time>
      </trkpt>
      <trkpt lat="48.54716" lon="-4.59061">
        <ele>21.4</ele>
        <time>2025-09-25T09:26:26Z</time>
      </trkpt>
      <trkpt lat="48.54718" lon="-4.59075">
        <ele>21.2</ele>
        <time>2025-09-25T09:26:28Z</time>
      </trkpt>
      <trkpt lat="48.54718" lon="-4.5909">
        <ele>20.6</ele>
        <time>2025-09-25T09:26:30Z</time>
      </trkpt>
      <trkpt lat="48.54718" lon="-4.59097">
        <ele>20.2</ele>
        <time>2025-09-25T09:26:31Z</time>
      </trkpt>
      <trkpt lat="48.54717" lon="-4.59116">
        <ele>19.4</ele>
        <time>2025-09-25T09:26:34Z</time>
      </trkpt>
      <trkpt lat="48.54718" lon="-4.59128">
        <ele>18.8</ele>
        <time>2025-09-25T09:26:36Z</time>
      </trkpt>
      <trkpt lat="48.54719" lon="-4.59134">
        <ele>18.4</ele>
        <time>2025-09-25T09:26:37Z</time>
      </trkpt>
      <trkpt lat="48.5472" lon="-4.5914">
        <ele>18.2</ele>
        <time>2025-09-25T09:26:38Z</time>
      </trkpt>
      <trkpt lat="48.54727" lon="-4.59157">
        <ele>17.8</ele>
        <time>2025-09-25T09:26:41Z</time>
      </trkpt>
      <trkpt lat="48.54729" lon="-4.59162">
        <ele>17.8</ele>
        <time>2025-09-25T09:26:42Z</time>
      </trkpt>
      <trkpt lat="48.54732" lon="-4.59167">
        <ele>17.8</ele>
        <time>2025-09-25T09:26:43Z</time>
      </trkpt>
      <trkpt lat="48.54735" lon="-4.59171">
        <ele>17.8</ele>
        <time>2025-09-25T09:26:44Z</time>
      </trkpt>
      <trkpt lat="48.54738" lon="-4.59176">
        <ele>17.6</ele>
        <time>2025-09-25T09:26:45Z</time>
      </trkpt>
      <trkpt lat="48.54747" lon="-4.59187">
        <ele>17.8</ele>
        <time>2025-09-25T09:26:48Z</time>
      </trkpt>
      <trkpt lat="48.54762" lon="-4.59197">
        <ele>17.8</ele>
        <time>2025-09-25T09:26:52Z</time>
      </trkpt>
      <trkpt lat="48.54767" lon="-4.59198">
        <ele>17.8</ele>
        <time>2025-09-25T09:26:53Z</time>
      </trkpt>
      <trkpt lat="48.54771" lon="-4.59198">
        <ele>17.6</ele>
        <time>2025-09-25T09:26:54Z</time>
      </trkpt>
      <trkpt lat="48.54782" lon="-4.59192">
        <ele>17</ele>
        <time>2025-09-25T09:26:57Z</time>
      </trkpt>
      <trkpt lat="48.54799" lon="-4.5918">
        <ele>16</ele>
        <time>2025-09-25T09:27:01Z</time>
      </trkpt>
      <trkpt lat="48.54804" lon="-4.59176">
        <ele>15.8</ele>
        <time>2025-09-25T09:27:02Z</time>
      </trkpt>
      <trkpt lat="48.54821" lon="-4.59161">
        <ele>16</ele>
        <time>2025-09-25T09:27:06Z</time>
      </trkpt>
      <trkpt lat="48.54829" lon="-4.59155">
        <ele>16.2</ele>
        <time>2025-09-25T09:27:08Z</time>
      </trkpt>
      <trkpt lat="48.54834" lon="-4.59153">
        <ele>16.4</ele>
        <time>2025-09-25T09:27:09Z</time>
      </trkpt>
      <trkpt lat="48.54848" lon="-4.59149">
        <ele>16.2</ele>
        <time>2025-09-25T09:27:12Z</time>
      </trkpt>
      <trkpt lat="48.54861" lon="-4.59147">
        <ele>16.4</ele>
        <time>2025-09-25T09:27:15Z</time>
      </trkpt>
      <trkpt lat="48.54878" lon="-4.59146">
        <ele>16.6</ele>
        <time>2025-09-25T09:27:19Z</time>
      </trkpt>
      <trkpt lat="48.549" lon="-4.59152">
        <ele>16.8</ele>
        <time>2025-09-25T09:27:25Z</time>
      </trkpt>
      <trkpt lat="48.54906" lon="-4.59156">
        <ele>17</ele>
        <time>2025-09-25T09:27:27Z</time>
      </trkpt>
      <trkpt lat="48.54915" lon="-4.59164">
        <ele>17.2</ele>
        <time>2025-09-25T09:27:30Z</time>
      </trkpt>
      <trkpt lat="48.54919" lon="-4.59168">
        <ele>17.2</ele>
        <time>2025-09-25T09:27:31Z</time>
      </trkpt>
      <trkpt lat="48.54941" lon="-4.59187">
        <ele>16.8</ele>
        <time>2025-09-25T09:27:37Z</time>
      </trkpt>
      <trkpt lat="48.54963" lon="-4.59208">
        <ele>16.8</ele>
        <time>2025-09-25T09:27:43Z</time>
      </trkpt>
      <trkpt lat="48.5497" lon="-4.59215">
        <ele>17</ele>
        <time>2025-09-25T09:27:45Z</time>
      </trkpt>
      <trkpt lat="48.54988" lon="-4.59234">
        <ele>17.2</ele>
        <time>2025-09-25T09:27:50Z</time>
      </trkpt>
      <trkpt lat="48.55008" lon="-4.59264">
        <ele>17.8</ele>
        <time>2025-09-25T09:27:57Z</time>
      </trkpt>
      <trkpt lat="48.5501" lon="-4.59268">
        <ele>17.8</ele>
        <time>2025-09-25T09:27:58Z</time>
      </trkpt>
      <trkpt lat="48.55018" lon="-4.59288">
        <ele>17.8</ele>
        <time>2025-09-25T09:28:02Z</time>
      </trkpt>
      <trkpt lat="48.55022" lon="-4.59306">
        <ele>17.4</ele>
        <time>2025-09-25T09:28:05Z</time>
      </trkpt>
      <trkpt lat="48.55026" lon="-4.59349">
        <ele>17</ele>
        <time>2025-09-25T09:28:12Z</time>
      </trkpt>
      <trkpt lat="48.55027" lon="-4.59382">
        <ele>17</ele>
        <time>2025-09-25T09:28:18Z</time>
      </trkpt>
      <trkpt lat="48.55029" lon="-4.59405">
        <ele>17</ele>
        <time>2025-09-25T09:28:23Z</time>
      </trkpt>
      <trkpt lat="48.5503" lon="-4.5941">
        <ele>17.2</ele>
        <time>2025-09-25T09:28:24Z</time>
      </trkpt>
      <trkpt lat="48.55031" lon="-4.59419">
        <ele>17.2</ele>
        <time>2025-09-25T09:28:26Z</time>
      </trkpt>
      <trkpt lat="48.55032" lon="-4.59426">
        <ele>17.4</ele>
        <time>2025-09-25T09:28:27Z</time>
      </trkpt>
      <trkpt lat="48.55033" lon="-4.59432">
        <ele>17.4</ele>
        <time>2025-09-25T09:28:28Z</time>
      </trkpt>
      <trkpt lat="48.55034" lon="-4.59444">
        <ele>17.4</ele>
        <time>2025-09-25T09:28:30Z</time>
      </trkpt>
      <trkpt lat="48.55035" lon="-4.5945">
        <ele>17.4</ele>
        <time>2025-09-25T09:28:31Z</time>
      </trkpt>
      <trkpt lat="48.55045" lon="-4.5948">
        <ele>17.4</ele>
        <time>2025-09-25T09:28:37Z</time>
      </trkpt>
      <trkpt lat="48.55052" lon="-4.59505">
        <ele>17.6</ele>
        <time>2025-09-25T09:28:43Z</time>
      </trkpt>
      <trkpt lat="48.55061" lon="-4.59528">
        <ele>17.4</ele>
        <time>2025-09-25T09:28:49Z</time>
      </trkpt>
      <trkpt lat="48.55063" lon="-4.59535">
        <ele>17.2</ele>
        <time>2025-09-25T09:28:51Z</time>
      </trkpt>
      <trkpt lat="48.55063" lon="-4.59539">
        <ele>16.8</ele>
        <time>2025-09-25T09:28:53Z</time>
      </trkpt>
      <trkpt lat="48.55062" lon="-4.59541">
        <ele>16.6</ele>
        <time>2025-09-25T09:28:54Z</time>
      </trkpt>
      <trkpt lat="48.55062" lon="-4.59543">
        <ele>16.4</ele>
        <time>2025-09-25T09:28:55Z</time>
      </trkpt>
      <trkpt lat="48.55061" lon="-4.59544">
        <ele>16.4</ele>
        <time>2025-09-25T09:28:56Z</time>
      </trkpt>
      <trkpt lat="48.55057" lon="-4.59548">
        <ele>15.8</ele>
        <time>2025-09-25T09:28:58Z</time>
      </trkpt>
      <trkpt lat="48.55047" lon="-4.5956">
        <ele>14.8</ele>
        <time>2025-09-25T09:29:02Z</time>
      </trkpt>
      <trkpt lat="48.55035" lon="-4.5956">
        <ele>14.4</ele>
        <time>2025-09-25T09:29:06Z</time>
      </trkpt>
      <trkpt lat="48.55018" lon="-4.59559">
        <ele>14.8</ele>
        <time>2025-09-25T09:29:12Z</time>
      </trkpt>
      <trkpt lat="48.55003" lon="-4.59565">
        <ele>15.2</ele>
        <time>2025-09-25T09:29:18Z</time>
      </trkpt>
      <trkpt lat="48.55002" lon="-4.59568">
        <ele>15.2</ele>
        <time>2025-09-25T09:29:19Z</time>
      </trkpt>
      <trkpt lat="48.55002" lon="-4.59589">
        <ele>15.2</ele>
        <time>2025-09-25T09:29:25Z</time>
      </trkpt>
      <trkpt lat="48.55002" lon="-4.59601">
        <ele>15.8</ele>
        <time>2025-09-25T09:29:29Z</time>
      </trkpt>
      <trkpt lat="48.55001" lon="-4.59615">
        <ele>16.8</ele>
        <time>2025-09-25T09:29:34Z</time>
      </trkpt>
      <trkpt lat="48.55001" lon="-4.59618">
        <ele>17</ele>
        <time>2025-09-25T09:29:35Z</time>
      </trkpt>
      <trkpt lat="48.54999" lon="-4.59628">
        <ele>18.2</ele>
        <time>2025-09-25T09:29:39Z</time>
      </trkpt>
      <trkpt lat="48.54998" lon="-4.59634">
        <ele>18.6</ele>
        <time>2025-09-25T09:29:41Z</time>
      </trkpt>
      <trkpt lat="48.54996" lon="-4.59642">
        <ele>19.2</ele>
        <time>2025-09-25T09:29:44Z</time>
      </trkpt>
      <trkpt lat="48.54994" lon="-4.59652">
        <ele>20.2</ele>
        <time>2025-09-25T09:29:48Z</time>
      </trkpt>
      <trkpt lat="48.54993" lon="-4.59654">
        <ele>20.4</ele>
        <time>2025-09-25T09:29:49Z</time>
      </trkpt>
      <trkpt lat="48.54986" lon="-4.59664">
        <ele>21.2</ele>
        <time>2025-09-25T09:29:54Z</time>
      </trkpt>
      <trkpt lat="48.54985" lon="-4.59666">
        <ele>21.4</ele>
        <time>2025-09-25T09:29:55Z</time>
      </trkpt>
      <trkpt lat="48.54977" lon="-4.59675">
        <ele>22.2</ele>
        <time>2025-09-25T09:30:01Z</time>
      </trkpt>
      <trkpt lat="48.54975" lon="-4.59679">
        <ele>22.4</ele>
        <time>2025-09-25T09:30:03Z</time>
      </trkpt>
      <trkpt lat="48.5497" lon="-4.59688">
        <ele>23</ele>
        <time>2025-09-25T09:30:08Z</time>
      </trkpt>
      <trkpt lat="48.54966" lon="-4.59695">
        <ele>23.6</ele>
        <time>2025-09-25T09:30:12Z</time>
      </trkpt>
      <trkpt lat="48.54963" lon="-4.59701">
        <ele>24</ele>
        <time>2025-09-25T09:30:16Z</time>
      </trkpt>
      <trkpt lat="48.54959" lon="-4.59713">
        <ele>24.6</ele>
        <time>2025-09-25T09:30:23Z</time>
      </trkpt>
      <trkpt lat="48.54958" lon="-4.5972">
        <ele>25.2</ele>
        <time>2025-09-25T09:30:28Z</time>
      </trkpt>
      <trkpt lat="48.54957" lon="-4.5972">
        <ele>25.4</ele>
        <time>2025-09-25T09:30:31Z</time>
      </trkpt>
      <trkpt lat="48.54956" lon="-4.59726">
        <ele>25.8</ele>
        <time>2025-09-25T09:30:35Z</time>
      </trkpt>
      <trkpt lat="48.54954" lon="-4.59728">
        <ele>26</ele>
        <time>2025-09-25T09:30:37Z</time>
      </trkpt>
      <trkpt lat="48.54954" lon="-4.5973">
        <ele>26</ele>
        <time>2025-09-25T09:30:38Z</time>
      </trkpt>
      <trkpt lat="48.54954" lon="-4.59731">
        <ele>26.2</ele>
        <time>2025-09-25T09:30:39Z</time>
      </trkpt>
      <trkpt lat="48.54952" lon="-4.59737">
        <ele>26.8</ele>
        <time>2025-09-25T09:30:44Z</time>
      </trkpt>
      <trkpt lat="48.54951" lon="-4.59738">
        <ele>26.8</ele>
        <time>2025-09-25T09:30:45Z</time>
      </trkpt>
      <trkpt lat="48.54949" lon="-4.59742">
        <ele>27.4</ele>
        <time>2025-09-25T09:30:51Z</time>
      </trkpt>
      <trkpt lat="48.54947" lon="-4.59745">
        <ele>27.8</ele>
        <time>2025-09-25T09:30:54Z</time>
      </trkpt>
      <trkpt lat="48.54945" lon="-4.59751">
        <ele>28.2</ele>
        <time>2025-09-25T09:30:59Z</time>
      </trkpt>
      <trkpt lat="48.54944" lon="-4.59755">
        <ele>28.8</ele>
        <time>2025-09-25T09:31:03Z</time>
      </trkpt>
      <trkpt lat="48.54943" lon="-4.59757">
        <ele>29</ele>
        <time>2025-09-25T09:31:05Z</time>
      </trkpt>
      <trkpt lat="48.54943" lon="-4.59758">
        <ele>29.2</ele>
        <time>2025-09-25T09:31:06Z</time>
      </trkpt>
      <trkpt lat="48.54941" lon="-4.59764">
        <ele>30</ele>
        <time>2025-09-25T09:31:11Z</time>
      </trkpt>
      <trkpt lat="48.54941" lon="-4.59765">
        <ele>30</ele>
        <time>2025-09-25T09:31:12Z</time>
      </trkpt>
      <trkpt lat="48.5494" lon="-4.59773">
        <ele>30.8</ele>
        <time>2025-09-25T09:31:18Z</time>
      </trkpt>
      <trkpt lat="48.5494" lon="-4.59775">
        <ele>31</ele>
        <time>2025-09-25T09:31:20Z</time>
      </trkpt>
      <trkpt lat="48.54938" lon="-4.59782">
        <ele>31.6</ele>
        <time>2025-09-25T09:31:26Z</time>
      </trkpt>
      <trkpt lat="48.54938" lon="-4.59782">
        <ele>31.8</ele>
        <time>2025-09-25T09:31:27Z</time>
      </trkpt>
      <trkpt lat="48.54938" lon="-4.59785">
        <ele>32</ele>
        <time>2025-09-25T09:31:34Z</time>
      </trkpt>
      <trkpt lat="48.54938" lon="-4.59786">
        <ele>32</ele>
        <time>2025-09-25T09:31:35Z</time>
      </trkpt>
      <trkpt lat="48.54937" lon="-4.59788">
        <ele>32.2</ele>
        <time>2025-09-25T09:31:37Z</time>
      </trkpt>
      <trkpt lat="48.54936" lon="-4.59796">
        <ele>33</ele>
        <time>2025-09-25T09:31:45Z</time>
      </trkpt>
      <trkpt lat="48.54935" lon="-4.59806">
        <ele>34</ele>
        <time>2025-09-25T09:31:51Z</time>
      </trkpt>
      <trkpt lat="48.54934" lon="-4.59809">
        <ele>34.4</ele>
        <time>2025-09-25T09:31:53Z</time>
      </trkpt>
      <trkpt lat="48.54934" lon="-4.59811">
        <ele>34.6</ele>
        <time>2025-09-25T09:31:54Z</time>
      </trkpt>
      <trkpt lat="48.54934" lon="-4.59817">
        <ele>35.2</ele>
        <time>2025-09-25T09:31:57Z</time>
      </trkpt>
      <trkpt lat="48.54934" lon="-4.59821">
        <ele>35.8</ele>
        <time>2025-09-25T09:32:00Z</time>
      </trkpt>
      <trkpt lat="48.54934" lon="-4.59827">
        <ele>36.2</ele>
        <time>2025-09-25T09:32:04Z</time>
      </trkpt>
      <trkpt lat="48.54935" lon="-4.59834">
        <ele>37</ele>
        <time>2025-09-25T09:32:09Z</time>
      </trkpt>
      <trkpt lat="48.54936" lon="-4.59838">
        <ele>37.4</ele>
        <time>2025-09-25T09:32:13Z</time>
      </trkpt>
      <trkpt lat="48.54937" lon="-4.59842">
        <ele>37.8</ele>
        <time>2025-09-25T09:32:17Z</time>
      </trkpt>
      <trkpt lat="48.54937" lon="-4.59842">
        <ele>37.8</ele>
        <time>2025-09-25T09:32:18Z</time>
      </trkpt>
      <trkpt lat="48.54938" lon="-4.59844">
        <ele>37.8</ele>
        <time>2025-09-25T09:32:22Z</time>
      </trkpt>
      <trkpt lat="48.54941" lon="-4.5985">
        <ele>38.2</ele>
        <time>2025-09-25T09:32:26Z</time>
      </trkpt>
      <trkpt lat="48.54942" lon="-4.59851">
        <ele>38.4</ele>
        <time>2025-09-25T09:32:27Z</time>
      </trkpt>
      <trkpt lat="48.54949" lon="-4.59857">
        <ele>38.8</ele>
        <time>2025-09-25T09:32:34Z</time>
      </trkpt>
      <trkpt lat="48.54955" lon="-4.59862">
        <ele>39.4</ele>
        <time>2025-09-25T09:32:40Z</time>
      </trkpt>
      <trkpt lat="48.54959" lon="-4.59865">
        <ele>39.8</ele>
        <time>2025-09-25T09:32:44Z</time>
      </trkpt>
      <trkpt lat="48.54964" lon="-4.59869">
        <ele>40.6</ele>
        <time>2025-09-25T09:32:51Z</time>
      </trkpt>
      <trkpt lat="48.54965" lon="-4.5987">
        <ele>40.8</ele>
        <time>2025-09-25T09:32:53Z</time>
      </trkpt>
      <trkpt lat="48.54971" lon="-4.59876">
        <ele>41.2</ele>
        <time>2025-09-25T09:33:04Z</time>
      </trkpt>
      <trkpt lat="48.54975" lon="-4.59879">
        <ele>41.6</ele>
        <time>2025-09-25T09:33:09Z</time>
      </trkpt>
      <trkpt lat="48.5498" lon="-4.59884">
        <ele>42.2</ele>
        <time>2025-09-25T09:33:15Z</time>
      </trkpt>
      <trkpt lat="48.54981" lon="-4.59885">
        <ele>42.2</ele>
        <time>2025-09-25T09:33:16Z</time>
      </trkpt>
      <trkpt lat="48.54985" lon="-4.59889">
        <ele>42.6</ele>
        <time>2025-09-25T09:33:22Z</time>
      </trkpt>
      <trkpt lat="48.5499" lon="-4.59893">
        <ele>43.2</ele>
        <time>2025-09-25T09:33:28Z</time>
      </trkpt>
      <trkpt lat="48.54995" lon="-4.59897">
        <ele>43.8</ele>
        <time>2025-09-25T09:33:35Z</time>
      </trkpt>
      <trkpt lat="48.54998" lon="-4.599">
        <ele>43.8</ele>
        <time>2025-09-25T09:33:39Z</time>
      </trkpt>
      <trkpt lat="48.55005" lon="-4.59906">
        <ele>44.4</ele>
        <time>2025-09-25T09:33:48Z</time>
      </trkpt>
      <trkpt lat="48.55011" lon="-4.59911">
        <ele>44.8</ele>
        <time>2025-09-25T09:33:55Z</time>
      </trkpt>
      <trkpt lat="48.55015" lon="-4.59914">
        <ele>45</ele>
        <time>2025-09-25T09:33:59Z</time>
      </trkpt>
      <trkpt lat="48.55021" lon="-4.59918">
        <ele>45</ele>
        <time>2025-09-25T09:34:06Z</time>
      </trkpt>
      <trkpt lat="48.55022" lon="-4.59918">
        <ele>44.8</ele>
        <time>2025-09-25T09:34:08Z</time>
      </trkpt>
      <trkpt lat="48.55025" lon="-4.59919">
        <ele>45.2</ele>
        <time>2025-09-25T09:34:12Z</time>
      </trkpt>
      <trkpt lat="48.55025" lon="-4.59919">
        <ele>45.2</ele>
        <time>2025-09-25T09:34:14Z</time>
      </trkpt>
      <trkpt lat="48.55025" lon="-4.5992">
        <ele>45.2</ele>
        <time>2025-09-25T09:34:20Z</time>
      </trkpt>
      <trkpt lat="48.55025" lon="-4.59919">
        <ele>45.4</ele>
        <time>2025-09-25T09:34:23Z</time>
      </trkpt>
      <trkpt lat="48.55026" lon="-4.59921">
        <ele>45.2</ele>
        <time>2025-09-25T09:34:27Z</time>
      </trkpt>
      <trkpt lat="48.55027" lon="-4.59921">
        <ele>45.2</ele>
        <time>2025-09-25T09:34:28Z</time>
      </trkpt>
      <trkpt lat="48.55036" lon="-4.59927">
        <ele>45.2</ele>
        <time>2025-09-25T09:34:34Z</time>
      </trkpt>
      <trkpt lat="48.55051" lon="-4.5994">
        <ele>45</ele>
        <time>2025-09-25T09:34:43Z</time>
      </trkpt>
      <trkpt lat="48.55065" lon="-4.59962">
        <ele>44.4</ele>
        <time>2025-09-25T09:34:52Z</time>
      </trkpt>
      <trkpt lat="48.55074" lon="-4.59987">
        <ele>44.2</ele>
        <time>2025-09-25T09:34:59Z</time>
      </trkpt>
      <trkpt lat="48.55077" lon="-4.60008">
        <ele>43.8</ele>
        <time>2025-09-25T09:35:04Z</time>
      </trkpt>
      <trkpt lat="48.55078" lon="-4.60023">
        <ele>43.4</ele>
        <time>2025-09-25T09:35:07Z</time>
      </trkpt>
      <trkpt lat="48.5508" lon="-4.60039">
        <ele>42.4</ele>
        <time>2025-09-25T09:35:10Z</time>
      </trkpt>
      <trkpt lat="48.55083" lon="-4.60053">
        <ele>41.2</ele>
        <time>2025-09-25T09:35:12Z</time>
      </trkpt>
      <trkpt lat="48.55084" lon="-4.6006">
        <ele>40.6</ele>
        <time>2025-09-25T09:35:13Z</time>
      </trkpt>
      <trkpt lat="48.55086" lon="-4.60067">
        <ele>40</ele>
        <time>2025-09-25T09:35:14Z</time>
      </trkpt>
      <trkpt lat="48.5509" lon="-4.60083">
        <ele>38.6</ele>
        <time>2025-09-25T09:35:16Z</time>
      </trkpt>
      <trkpt lat="48.55096" lon="-4.601">
        <ele>37.4</ele>
        <time>2025-09-25T09:35:18Z</time>
      </trkpt>
      <trkpt lat="48.55099" lon="-4.6011">
        <ele>36.6</ele>
        <time>2025-09-25T09:35:19Z</time>
      </trkpt>
      <trkpt lat="48.55102" lon="-4.6012">
        <ele>35.6</ele>
        <time>2025-09-25T09:35:20Z</time>
      </trkpt>
      <trkpt lat="48.55108" lon="-4.6014">
        <ele>33.6</ele>
        <time>2025-09-25T09:35:22Z</time>
      </trkpt>
      <trkpt lat="48.55115" lon="-4.6016">
        <ele>32.4</ele>
        <time>2025-09-25T09:35:24Z</time>
      </trkpt>
      <trkpt lat="48.55118" lon="-4.60171">
        <ele>31.8</ele>
        <time>2025-09-25T09:35:25Z</time>
      </trkpt>
      <trkpt lat="48.55122" lon="-4.60181">
        <ele>31.2</ele>
        <time>2025-09-25T09:35:26Z</time>
      </trkpt>
      <trkpt lat="48.5513" lon="-4.60202">
        <ele>29.4</ele>
        <time>2025-09-25T09:35:28Z</time>
      </trkpt>
      <trkpt lat="48.55141" lon="-4.60222">
        <ele>27.6</ele>
        <time>2025-09-25T09:35:30Z</time>
      </trkpt>
      <trkpt lat="48.55154" lon="-4.60237">
        <ele>26</ele>
        <time>2025-09-25T09:35:32Z</time>
      </trkpt>
      <trkpt lat="48.5516" lon="-4.60242">
        <ele>25.8</ele>
        <time>2025-09-25T09:35:33Z</time>
      </trkpt>
      <trkpt lat="48.55166" lon="-4.60247">
        <ele>25.6</ele>
        <time>2025-09-25T09:35:34Z</time>
      </trkpt>
      <trkpt lat="48.55171" lon="-4.60251">
        <ele>26</ele>
        <time>2025-09-25T09:35:35Z</time>
      </trkpt>
      <trkpt lat="48.55182" lon="-4.60257">
        <ele>27</ele>
        <time>2025-09-25T09:35:38Z</time>
      </trkpt>
      <trkpt lat="48.55185" lon="-4.60258">
        <ele>27.2</ele>
        <time>2025-09-25T09:35:39Z</time>
      </trkpt>
      <trkpt lat="48.55193" lon="-4.60261">
        <ele>27.6</ele>
        <time>2025-09-25T09:35:43Z</time>
      </trkpt>
      <trkpt lat="48.55195" lon="-4.60262">
        <ele>27.8</ele>
        <time>2025-09-25T09:35:45Z</time>
      </trkpt>
      <trkpt lat="48.55198" lon="-4.60265">
        <ele>28</ele>
        <time>2025-09-25T09:35:47Z</time>
      </trkpt>
      <trkpt lat="48.552" lon="-4.60282">
        <ele>27.8</ele>
        <time>2025-09-25T09:35:51Z</time>
      </trkpt>
      <trkpt lat="48.55198" lon="-4.60303">
        <ele>27.2</ele>
        <time>2025-09-25T09:35:55Z</time>
      </trkpt>
      <trkpt lat="48.55196" lon="-4.60319">
        <ele>27.2</ele>
        <time>2025-09-25T09:35:58Z</time>
      </trkpt>
      <trkpt lat="48.55193" lon="-4.60347">
        <ele>27.4</ele>
        <time>2025-09-25T09:36:03Z</time>
      </trkpt>
      <trkpt lat="48.55191" lon="-4.60363">
        <ele>27.8</ele>
        <time>2025-09-25T09:36:06Z</time>
      </trkpt>
      <trkpt lat="48.55191" lon="-4.60369">
        <ele>27.8</ele>
        <time>2025-09-25T09:36:07Z</time>
      </trkpt>
      <trkpt lat="48.552" lon="-4.60393">
        <ele>27.6</ele>
        <time>2025-09-25T09:36:12Z</time>
      </trkpt>
      <trkpt lat="48.55216" lon="-4.60405">
        <ele>27</ele>
        <time>2025-09-25T09:36:17Z</time>
      </trkpt>
      <trkpt lat="48.55223" lon="-4.60408">
        <ele>26.2</ele>
        <time>2025-09-25T09:36:19Z</time>
      </trkpt>
      <trkpt lat="48.55236" lon="-4.6041">
        <ele>26</ele>
        <time>2025-09-25T09:36:23Z</time>
      </trkpt>
      <trkpt lat="48.55265" lon="-4.60412">
        <ele>26.4</ele>
        <time>2025-09-25T09:36:31Z</time>
      </trkpt>
      <trkpt lat="48.55294" lon="-4.60409">
        <ele>26</ele>
        <time>2025-09-25T09:36:38Z</time>
      </trkpt>
      <trkpt lat="48.55318" lon="-4.6041">
        <ele>26</ele>
        <time>2025-09-25T09:36:44Z</time>
      </trkpt>
      <trkpt lat="48.55346" lon="-4.60408">
        <ele>25.8</ele>
        <time>2025-09-25T09:36:51Z</time>
      </trkpt>
      <trkpt lat="48.55375" lon="-4.60408">
        <ele>25.6</ele>
        <time>2025-09-25T09:36:57Z</time>
      </trkpt>
      <trkpt lat="48.55396" lon="-4.60408">
        <ele>25.6</ele>
        <time>2025-09-25T09:37:01Z</time>
      </trkpt>
      <trkpt lat="48.55406" lon="-4.60408">
        <ele>25.2</ele>
        <time>2025-09-25T09:37:03Z</time>
      </trkpt>
      <trkpt lat="48.55415" lon="-4.60409">
        <ele>24.8</ele>
        <time>2025-09-25T09:37:05Z</time>
      </trkpt>
      <trkpt lat="48.55428" lon="-4.6041">
        <ele>24.6</ele>
        <time>2025-09-25T09:37:08Z</time>
      </trkpt>
      <trkpt lat="48.55432" lon="-4.60411">
        <ele>24.6</ele>
        <time>2025-09-25T09:37:09Z</time>
      </trkpt>
      <trkpt lat="48.55464" lon="-4.60416">
        <ele>25.6</ele>
        <time>2025-09-25T09:37:17Z</time>
      </trkpt>
      <trkpt lat="48.5548" lon="-4.60418">
        <ele>25.4</ele>
        <time>2025-09-25T09:37:21Z</time>
      </trkpt>
      <trkpt lat="48.55488" lon="-4.6042">
        <ele>25.2</ele>
        <time>2025-09-25T09:37:23Z</time>
      </trkpt>
      <trkpt lat="48.55513" lon="-4.60425">
        <ele>26</ele>
        <time>2025-09-25T09:37:30Z</time>
      </trkpt>
      <trkpt lat="48.55521" lon="-4.60428">
        <ele>26.4</ele>
        <time>2025-09-25T09:37:32Z</time>
      </trkpt>
      <trkpt lat="48.55524" lon="-4.60429">
        <ele>26.4</ele>
        <time>2025-09-25T09:37:33Z</time>
      </trkpt>
      <trkpt lat="48.55549" lon="-4.60443">
        <ele>27</ele>
        <time>2025-09-25T09:37:42Z</time>
      </trkpt>
      <trkpt lat="48.55556" lon="-4.60448">
        <ele>27.4</ele>
        <time>2025-09-25T09:37:45Z</time>
      </trkpt>
      <trkpt lat="48.55567" lon="-4.60456">
        <ele>27.8</ele>
        <time>2025-09-25T09:37:50Z</time>
      </trkpt>
      <trkpt lat="48.55569" lon="-4.60457">
        <ele>28</ele>
        <time>2025-09-25T09:37:51Z</time>
      </trkpt>
      <trkpt lat="48.55576" lon="-4.6046">
        <ele>28.4</ele>
        <time>2025-09-25T09:37:54Z</time>
      </trkpt>
      <trkpt lat="48.55588" lon="-4.60465">
        <ele>29</ele>
        <time>2025-09-25T09:38:00Z</time>
      </trkpt>
      <trkpt lat="48.55594" lon="-4.60466">
        <ele>29.6</ele>
        <time>2025-09-25T09:38:03Z</time>
      </trkpt>
      <trkpt lat="48.55603" lon="-4.60466">
        <ele>30.2</ele>
        <time>2025-09-25T09:38:08Z</time>
      </trkpt>
      <trkpt lat="48.55607" lon="-4.60466">
        <ele>30.6</ele>
        <time>2025-09-25T09:38:10Z</time>
      </trkpt>
      <trkpt lat="48.55614" lon="-4.60465">
        <ele>31.2</ele>
        <time>2025-09-25T09:38:14Z</time>
      </trkpt>
      <trkpt lat="48.55618" lon="-4.60463">
        <ele>31.8</ele>
        <time>2025-09-25T09:38:17Z</time>
      </trkpt>
      <trkpt lat="48.55624" lon="-4.6046">
        <ele>32.8</ele>
        <time>2025-09-25T09:38:21Z</time>
      </trkpt>
      <trkpt lat="48.55631" lon="-4.60456">
        <ele>33.2</ele>
        <time>2025-09-25T09:38:25Z</time>
      </trkpt>
      <trkpt lat="48.55639" lon="-4.60451">
        <ele>33.8</ele>
        <time>2025-09-25T09:38:29Z</time>
      </trkpt>
      <trkpt lat="48.55644" lon="-4.60448">
        <ele>34.4</ele>
        <time>2025-09-25T09:38:32Z</time>
      </trkpt>
      <trkpt lat="48.5565" lon="-4.60445">
        <ele>35</ele>
        <time>2025-09-25T09:38:36Z</time>
      </trkpt>
      <trkpt lat="48.55654" lon="-4.60442">
        <ele>35.4</ele>
        <time>2025-09-25T09:38:39Z</time>
      </trkpt>
      <trkpt lat="48.55661" lon="-4.60438">
        <ele>36</ele>
        <time>2025-09-25T09:38:44Z</time>
      </trkpt>
      <trkpt lat="48.55665" lon="-4.60433">
        <ele>36.6</ele>
        <time>2025-09-25T09:38:48Z</time>
      </trkpt>
      <trkpt lat="48.55673" lon="-4.60425">
        <ele>37.2</ele>
        <time>2025-09-25T09:38:54Z</time>
      </trkpt>
      <trkpt lat="48.55675" lon="-4.60424">
        <ele>37.4</ele>
        <time>2025-09-25T09:38:55Z</time>
      </trkpt>
      <trkpt lat="48.55683" lon="-4.60414">
        <ele>38.2</ele>
        <time>2025-09-25T09:39:02Z</time>
      </trkpt>
      <trkpt lat="48.55689" lon="-4.60407">
        <ele>39</ele>
        <time>2025-09-25T09:39:08Z</time>
      </trkpt>
      <trkpt lat="48.55691" lon="-4.60402">
        <ele>39.4</ele>
        <time>2025-09-25T09:39:11Z</time>
      </trkpt>
      <trkpt lat="48.55694" lon="-4.60398">
        <ele>39.6</ele>
        <time>2025-09-25T09:39:14Z</time>
      </trkpt>
      <trkpt lat="48.55698" lon="-4.6039">
        <ele>40.2</ele>
        <time>2025-09-25T09:39:19Z</time>
      </trkpt>
      <trkpt lat="48.557" lon="-4.60386">
        <ele>40.4</ele>
        <time>2025-09-25T09:39:21Z</time>
      </trkpt>
      <trkpt lat="48.55708" lon="-4.60373">
        <ele>41.2</ele>
        <time>2025-09-25T09:39:29Z</time>
      </trkpt>
      <trkpt lat="48.5571" lon="-4.60364">
        <ele>41.4</ele>
        <time>2025-09-25T09:39:34Z</time>
      </trkpt>
      <trkpt lat="48.55711" lon="-4.60362">
        <ele>41.6</ele>
        <time>2025-09-25T09:39:35Z</time>
      </trkpt>
      <trkpt lat="48.55716" lon="-4.60352">
        <ele>42</ele>
        <time>2025-09-25T09:39:40Z</time>
      </trkpt>
      <trkpt lat="48.55718" lon="-4.60349">
        <ele>42.2</ele>
        <time>2025-09-25T09:39:42Z</time>
      </trkpt>
      <trkpt lat="48.5572" lon="-4.60346">
        <ele>42.6</ele>
        <time>2025-09-25T09:39:44Z</time>
      </trkpt>
      <trkpt lat="48.55729" lon="-4.6033">
        <ele>43.2</ele>
        <time>2025-09-25T09:39:53Z</time>
      </trkpt>
      <trkpt lat="48.55733" lon="-4.60323">
        <ele>43.6</ele>
        <time>2025-09-25T09:39:57Z</time>
      </trkpt>
      <trkpt lat="48.55738" lon="-4.60314">
        <ele>44.2</ele>
        <time>2025-09-25T09:40:02Z</time>
      </trkpt>
      <trkpt lat="48.55746" lon="-4.60302">
        <ele>44.8</ele>
        <time>2025-09-25T09:40:09Z</time>
      </trkpt>
      <trkpt lat="48.55748" lon="-4.60299">
        <ele>45</ele>
        <time>2025-09-25T09:40:11Z</time>
      </trkpt>
      <trkpt lat="48.55762" lon="-4.60284">
        <ele>45.2</ele>
        <time>2025-09-25T09:40:21Z</time>
      </trkpt>
      <trkpt lat="48.55777" lon="-4.60268">
        <ele>43.8</ele>
        <time>2025-09-25T09:40:28Z</time>
      </trkpt>
      <trkpt lat="48.55781" lon="-4.60264">
        <ele>43.6</ele>
        <time>2025-09-25T09:40:29Z</time>
      </trkpt>
      <trkpt lat="48.55797" lon="-4.60248">
        <ele>42.2</ele>
        <time>2025-09-25T09:40:33Z</time>
      </trkpt>
      <trkpt lat="48.55801" lon="-4.60244">
        <ele>41.8</ele>
        <time>2025-09-25T09:40:34Z</time>
      </trkpt>
      <trkpt lat="48.5581" lon="-4.60235">
        <ele>40.8</ele>
        <time>2025-09-25T09:40:36Z</time>
      </trkpt>
      <trkpt lat="48.55824" lon="-4.60222">
        <ele>39.2</ele>
        <time>2025-09-25T09:40:39Z</time>
      </trkpt>
      <trkpt lat="48.5583" lon="-4.60219">
        <ele>38.6</ele>
        <time>2025-09-25T09:40:40Z</time>
      </trkpt>
      <trkpt lat="48.55836" lon="-4.60217">
        <ele>38</ele>
        <time>2025-09-25T09:40:41Z</time>
      </trkpt>
      <trkpt lat="48.55842" lon="-4.60216">
        <ele>37.6</ele>
        <time>2025-09-25T09:40:42Z</time>
      </trkpt>
      <trkpt lat="48.55855" lon="-4.60217">
        <ele>36.2</ele>
        <time>2025-09-25T09:40:44Z</time>
      </trkpt>
      <trkpt lat="48.55861" lon="-4.60219">
        <ele>35.6</ele>
        <time>2025-09-25T09:40:45Z</time>
      </trkpt>
      <trkpt lat="48.55868" lon="-4.60221">
        <ele>35</ele>
        <time>2025-09-25T09:40:46Z</time>
      </trkpt>
      <trkpt lat="48.55913" lon="-4.60241">
        <ele>34.8</ele>
        <time>2025-09-25T09:40:53Z</time>
      </trkpt>
      <trkpt lat="48.55944" lon="-4.60254">
        <ele>35.4</ele>
        <time>2025-09-25T09:40:58Z</time>
      </trkpt>
      <trkpt lat="48.55963" lon="-4.6026">
        <ele>34.8</ele>
        <time>2025-09-25T09:41:01Z</time>
      </trkpt>
      <trkpt lat="48.55999" lon="-4.60274">
        <ele>34.6</ele>
        <time>2025-09-25T09:41:08Z</time>
      </trkpt>
      <trkpt lat="48.56017" lon="-4.6028">
        <ele>35</ele>
        <time>2025-09-25T09:41:12Z</time>
      </trkpt>
      <trkpt lat="48.56021" lon="-4.60282">
        <ele>35</ele>
        <time>2025-09-25T09:41:13Z</time>
      </trkpt>
      <trkpt lat="48.56025" lon="-4.60282">
        <ele>35</ele>
        <time>2025-09-25T09:41:14Z</time>
      </trkpt>
      <trkpt lat="48.56029" lon="-4.60283">
        <ele>35</ele>
        <time>2025-09-25T09:41:15Z</time>
      </trkpt>
      <trkpt lat="48.56049" lon="-4.60286">
        <ele>35.8</ele>
        <time>2025-09-25T09:41:22Z</time>
      </trkpt>
      <trkpt lat="48.56062" lon="-4.60286">
        <ele>36</ele>
        <time>2025-09-25T09:41:27Z</time>
      </trkpt>
      <trkpt lat="48.56074" lon="-4.60284">
        <ele>36.2</ele>
        <time>2025-09-25T09:41:32Z</time>
      </trkpt>
      <trkpt lat="48.56096" lon="-4.60274">
        <ele>36</ele>
        <time>2025-09-25T09:41:40Z</time>
      </trkpt>
      <trkpt lat="48.56112" lon="-4.60254">
        <ele>35.4</ele>
        <time>2025-09-25T09:41:46Z</time>
      </trkpt>
      <trkpt lat="48.5612" lon="-4.60242">
        <ele>35</ele>
        <time>2025-09-25T09:41:49Z</time>
      </trkpt>
      <trkpt lat="48.56131" lon="-4.60224">
        <ele>34</ele>
        <time>2025-09-25T09:41:53Z</time>
      </trkpt>
      <trkpt lat="48.56134" lon="-4.60219">
        <ele>33.8</ele>
        <time>2025-09-25T09:41:54Z</time>
      </trkpt>
      <trkpt lat="48.56161" lon="-4.60186">
        <ele>32.6</ele>
        <time>2025-09-25T09:42:01Z</time>
      </trkpt>
      <trkpt lat="48.56172" lon="-4.6017">
        <ele>32.4</ele>
        <time>2025-09-25T09:42:04Z</time>
      </trkpt>
      <trkpt lat="48.56182" lon="-4.60153">
        <ele>31.8</ele>
        <time>2025-09-25T09:42:07Z</time>
      </trkpt>
      <trkpt lat="48.56196" lon="-4.60129">
        <ele>31.6</ele>
        <time>2025-09-25T09:42:11Z</time>
      </trkpt>
      <trkpt lat="48.56205" lon="-4.60108">
        <ele>30.8</ele>
        <time>2025-09-25T09:42:14Z</time>
      </trkpt>
      <trkpt lat="48.56207" lon="-4.60101">
        <ele>30.6</ele>
        <time>2025-09-25T09:42:15Z</time>
      </trkpt>
      <trkpt lat="48.5621" lon="-4.60086">
        <ele>30.6</ele>
        <time>2025-09-25T09:42:17Z</time>
      </trkpt>
      <trkpt lat="48.56212" lon="-4.60062">
        <ele>30.6</ele>
        <time>2025-09-25T09:42:20Z</time>
      </trkpt>
      <trkpt lat="48.56213" lon="-4.60021">
        <ele>31</ele>
        <time>2025-09-25T09:42:26Z</time>
      </trkpt>
      <trkpt lat="48.56213" lon="-4.60014">
        <ele>31.2</ele>
        <time>2025-09-25T09:42:27Z</time>
      </trkpt>
      <trkpt lat="48.56213" lon="-4.60008">
        <ele>31</ele>
        <time>2025-09-25T09:42:28Z</time>
      </trkpt>
      <trkpt lat="48.56214" lon="-4.60002">
        <ele>30.8</ele>
        <time>2025-09-25T09:42:29Z</time>
      </trkpt>
      <trkpt lat="48.56214" lon="-4.5999">
        <ele>30</ele>
        <time>2025-09-25T09:42:31Z</time>
      </trkpt>
      <trkpt lat="48.56215" lon="-4.59978">
        <ele>29.6</ele>
        <time>2025-09-25T09:42:33Z</time>
      </trkpt>
      <trkpt lat="48.56214" lon="-4.59951">
        <ele>29.4</ele>
        <time>2025-09-25T09:42:37Z</time>
      </trkpt>
      <trkpt lat="48.56215" lon="-4.59929">
        <ele>28.4</ele>
        <time>2025-09-25T09:42:40Z</time>
      </trkpt>
      <trkpt lat="48.56216" lon="-4.59905">
        <ele>27.8</ele>
        <time>2025-09-25T09:42:43Z</time>
      </trkpt>
      <trkpt lat="48.56217" lon="-4.59897">
        <ele>27.4</ele>
        <time>2025-09-25T09:42:44Z</time>
      </trkpt>
      <trkpt lat="48.56225" lon="-4.59851">
        <ele>26.2</ele>
        <time>2025-09-25T09:42:49Z</time>
      </trkpt>
      <trkpt lat="48.56233" lon="-4.59826">
        <ele>25.2</ele>
        <time>2025-09-25T09:42:52Z</time>
      </trkpt>
      <trkpt lat="48.56237" lon="-4.5982">
        <ele>24.4</ele>
        <time>2025-09-25T09:42:53Z</time>
      </trkpt>
      <trkpt lat="48.56241" lon="-4.59815">
        <ele>24.2</ele>
        <time>2025-09-25T09:42:54Z</time>
      </trkpt>
      <trkpt lat="48.5625" lon="-4.59809">
        <ele>23.8</ele>
        <time>2025-09-25T09:42:56Z</time>
      </trkpt>
      <trkpt lat="48.56262" lon="-4.59799">
        <ele>23.8</ele>
        <time>2025-09-25T09:42:59Z</time>
      </trkpt>
      <trkpt lat="48.56266" lon="-4.59795">
        <ele>23.4</ele>
        <time>2025-09-25T09:43:00Z</time>
      </trkpt>
      <trkpt lat="48.56284" lon="-4.59779">
        <ele>22.2</ele>
        <time>2025-09-25T09:43:04Z</time>
      </trkpt>
      <trkpt lat="48.56292" lon="-4.59771">
        <ele>21.8</ele>
        <time>2025-09-25T09:43:06Z</time>
      </trkpt>
      <trkpt lat="48.56296" lon="-4.59766">
        <ele>21.2</ele>
        <time>2025-09-25T09:43:07Z</time>
      </trkpt>
      <trkpt lat="48.56303" lon="-4.59758">
        <ele>20</ele>
        <time>2025-09-25T09:43:09Z</time>
      </trkpt>
      <trkpt lat="48.56309" lon="-4.5975">
        <ele>19</ele>
        <time>2025-09-25T09:43:11Z</time>
      </trkpt>
      <trkpt lat="48.56312" lon="-4.59746">
        <ele>18.4</ele>
        <time>2025-09-25T09:43:12Z</time>
      </trkpt>
      <trkpt lat="48.56322" lon="-4.59735">
        <ele>17.6</ele>
        <time>2025-09-25T09:43:15Z</time>
      </trkpt>
      <trkpt lat="48.56327" lon="-4.59729">
        <ele>17.8</ele>
        <time>2025-09-25T09:43:18Z</time>
      </trkpt>
      <trkpt lat="48.56336" lon="-4.59711">
        <ele>17.8</ele>
        <time>2025-09-25T09:43:25Z</time>
      </trkpt>
      <trkpt lat="48.56341" lon="-4.59705">
        <ele>18</ele>
        <time>2025-09-25T09:43:29Z</time>
      </trkpt>
      <trkpt lat="48.56341" lon="-4.59704">
        <ele>18.2</ele>
        <time>2025-09-25T09:43:30Z</time>
      </trkpt>
      <trkpt lat="48.56338" lon="-4.59706">
        <ele>18.6</ele>
        <time>2025-09-25T09:43:33Z</time>
      </trkpt>
      <trkpt lat="48.56336" lon="-4.59708">
        <ele>18.4</ele>
        <time>2025-09-25T09:43:34Z</time>
      </trkpt>
      <trkpt lat="48.56329" lon="-4.59713">
        <ele>17.8</ele>
        <time>2025-09-25T09:43:37Z</time>
      </trkpt>
      <trkpt lat="48.56325" lon="-4.59711">
        <ele>17.8</ele>
        <time>2025-09-25T09:43:38Z</time>
      </trkpt>
      <trkpt lat="48.56323" lon="-4.59709">
        <ele>17.8</ele>
        <time>2025-09-25T09:43:39Z</time>
      </trkpt>
      <trkpt lat="48.56308" lon="-4.59688">
        <ele>17.6</ele>
        <time>2025-09-25T09:43:45Z</time>
      </trkpt>
      <trkpt lat="48.563" lon="-4.59674">
        <ele>17.2</ele>
        <time>2025-09-25T09:43:48Z</time>
      </trkpt>
      <trkpt lat="48.56293" lon="-4.59665">
        <ele>16.6</ele>
        <time>2025-09-25T09:43:50Z</time>
      </trkpt>
      <trkpt lat="48.56284" lon="-4.59652">
        <ele>16.2</ele>
        <time>2025-09-25T09:43:53Z</time>
      </trkpt>
      <trkpt lat="48.56283" lon="-4.59636">
        <ele>16</ele>
        <time>2025-09-25T09:43:56Z</time>
      </trkpt>
      <trkpt lat="48.56285" lon="-4.59631">
        <ele>15.8</ele>
        <time>2025-09-25T09:43:57Z</time>
      </trkpt>
      <trkpt lat="48.56291" lon="-4.59624">
        <ele>15.8</ele>
        <time>2025-09-25T09:43:59Z</time>
      </trkpt>
      <trkpt lat="48.56305" lon="-4.59609">
        <ele>17.6</ele>
        <time>2025-09-25T09:44:05Z</time>
      </trkpt>
      <trkpt lat="48.56307" lon="-4.59608">
        <ele>17.8</ele>
        <time>2025-09-25T09:44:06Z</time>
      </trkpt>
      <trkpt lat="48.56317" lon="-4.596">
        <ele>18.2</ele>
        <time>2025-09-25T09:44:10Z</time>
      </trkpt>
      <trkpt lat="48.56323" lon="-4.59596">
        <ele>18.2</ele>
        <time>2025-09-25T09:44:12Z</time>
      </trkpt>
      <trkpt lat="48.56345" lon="-4.59592">
        <ele>18.2</ele>
        <time>2025-09-25T09:44:18Z</time>
      </trkpt>
      <trkpt lat="48.56358" lon="-4.59591">
        <ele>18.6</ele>
        <time>2025-09-25T09:44:22Z</time>
      </trkpt>
      <trkpt lat="48.56365" lon="-4.5959">
        <ele>18.4</ele>
        <time>2025-09-25T09:44:24Z</time>
      </trkpt>
      <trkpt lat="48.56369" lon="-4.5959">
        <ele>18.4</ele>
        <time>2025-09-25T09:44:25Z</time>
      </trkpt>
      <trkpt lat="48.56389" lon="-4.5959">
        <ele>18</ele>
        <time>2025-09-25T09:44:30Z</time>
      </trkpt>
      <trkpt lat="48.56398" lon="-4.59588">
        <ele>18</ele>
        <time>2025-09-25T09:44:32Z</time>
      </trkpt>
      <trkpt lat="48.56402" lon="-4.59588">
        <ele>17.8</ele>
        <time>2025-09-25T09:44:33Z</time>
      </trkpt>
      <trkpt lat="48.56407" lon="-4.59587">
        <ele>17.6</ele>
        <time>2025-09-25T09:44:34Z</time>
      </trkpt>
      <trkpt lat="48.56435" lon="-4.59585">
        <ele>16.2</ele>
        <time>2025-09-25T09:44:41Z</time>
      </trkpt>
      <trkpt lat="48.56439" lon="-4.59584">
        <ele>16</ele>
        <time>2025-09-25T09:44:42Z</time>
      </trkpt>
      <trkpt lat="48.56475" lon="-4.59587">
        <ele>16.2</ele>
        <time>2025-09-25T09:44:51Z</time>
      </trkpt>
      <trkpt lat="48.56505" lon="-4.59599">
        <ele>16.2</ele>
        <time>2025-09-25T09:44:59Z</time>
      </trkpt>
      <trkpt lat="48.56535" lon="-4.59618">
        <ele>17</ele>
        <time>2025-09-25T09:45:08Z</time>
      </trkpt>
      <trkpt lat="48.56541" lon="-4.59623">
        <ele>17.4</ele>
        <time>2025-09-25T09:45:10Z</time>
      </trkpt>
      <trkpt lat="48.56562" lon="-4.59641">
        <ele>18.4</ele>
        <time>2025-09-25T09:45:17Z</time>
      </trkpt>
      <trkpt lat="48.56584" lon="-4.59655">
        <ele>19.2</ele>
        <time>2025-09-25T09:45:24Z</time>
      </trkpt>
      <trkpt lat="48.56587" lon="-4.59658">
        <ele>19.4</ele>
        <time>2025-09-25T09:45:25Z</time>
      </trkpt>
      <trkpt lat="48.56606" lon="-4.59671">
        <ele>20.4</ele>
        <time>2025-09-25T09:45:32Z</time>
      </trkpt>
      <trkpt lat="48.56608" lon="-4.59673">
        <ele>20.6</ele>
        <time>2025-09-25T09:45:33Z</time>
      </trkpt>
      <trkpt lat="48.56612" lon="-4.59677">
        <ele>20.6</ele>
        <time>2025-09-25T09:45:35Z</time>
      </trkpt>
      <trkpt lat="48.56626" lon="-4.59687">
        <ele>21</ele>
        <time>2025-09-25T09:45:41Z</time>
      </trkpt>
      <trkpt lat="48.56647" lon="-4.59704">
        <ele>21.4</ele>
        <time>2025-09-25T09:45:49Z</time>
      </trkpt>
      <trkpt lat="48.56651" lon="-4.59707">
        <ele>21.4</ele>
        <time>2025-09-25T09:45:51Z</time>
      </trkpt>
      <trkpt lat="48.5667" lon="-4.59718">
        <ele>21.6</ele>
        <time>2025-09-25T09:45:59Z</time>
      </trkpt>
      <trkpt lat="48.56686" lon="-4.59726">
        <ele>21</ele>
        <time>2025-09-25T09:46:05Z</time>
      </trkpt>
      <trkpt lat="48.56691" lon="-4.59728">
        <ele>20.8</ele>
        <time>2025-09-25T09:46:07Z</time>
      </trkpt>
      <trkpt lat="48.56712" lon="-4.59736">
        <ele>21.4</ele>
        <time>2025-09-25T09:46:15Z</time>
      </trkpt>
      <trkpt lat="48.56732" lon="-4.59741">
        <ele>22.2</ele>
        <time>2025-09-25T09:46:23Z</time>
      </trkpt>
      <trkpt lat="48.56744" lon="-4.59743">
        <ele>22.4</ele>
        <time>2025-09-25T09:46:28Z</time>
      </trkpt>
      <trkpt lat="48.56754" lon="-4.59745">
        <ele>23</ele>
        <time>2025-09-25T09:46:32Z</time>
      </trkpt>
      <trkpt lat="48.56778" lon="-4.59749">
        <ele>23.4</ele>
        <time>2025-09-25T09:46:42Z</time>
      </trkpt>
      <trkpt lat="48.56785" lon="-4.59749">
        <ele>23.6</ele>
        <time>2025-09-25T09:46:45Z</time>
      </trkpt>
      <trkpt lat="48.568" lon="-4.59752">
        <ele>23.8</ele>
        <time>2025-09-25T09:46:51Z</time>
      </trkpt>
      <trkpt lat="48.56823" lon="-4.59755">
        <ele>24</ele>
        <time>2025-09-25T09:47:00Z</time>
      </trkpt>
      <trkpt lat="48.56844" lon="-4.59759">
        <ele>22.4</ele>
        <time>2025-09-25T09:47:07Z</time>
      </trkpt>
      <trkpt lat="48.56848" lon="-4.59759">
        <ele>22.4</ele>
        <time>2025-09-25T09:47:08Z</time>
      </trkpt>
      <trkpt lat="48.56866" lon="-4.59761">
        <ele>21.4</ele>
        <time>2025-09-25T09:47:12Z</time>
      </trkpt>
      <trkpt lat="48.56874" lon="-4.59762">
        <ele>21.4</ele>
        <time>2025-09-25T09:47:14Z</time>
      </trkpt>
      <trkpt lat="48.56888" lon="-4.59764">
        <ele>22.6</ele>
        <time>2025-09-25T09:47:18Z</time>
      </trkpt>
      <trkpt lat="48.56891" lon="-4.59764">
        <ele>22.6</ele>
        <time>2025-09-25T09:47:19Z</time>
      </trkpt>
      <trkpt lat="48.56907" lon="-4.59766">
        <ele>23</ele>
        <time>2025-09-25T09:47:25Z</time>
      </trkpt>
      <trkpt lat="48.56924" lon="-4.5977">
        <ele>23.4</ele>
        <time>2025-09-25T09:47:31Z</time>
      </trkpt>
      <trkpt lat="48.56946" lon="-4.59773">
        <ele>23.2</ele>
        <time>2025-09-25T09:47:38Z</time>
      </trkpt>
      <trkpt lat="48.56954" lon="-4.59774">
        <ele>22.4</ele>
        <time>2025-09-25T09:47:40Z</time>
      </trkpt>
      <trkpt lat="48.56962" lon="-4.59775">
        <ele>21.6</ele>
        <time>2025-09-25T09:47:42Z</time>
      </trkpt>
      <trkpt lat="48.56975" lon="-4.59777">
        <ele>20.4</ele>
        <time>2025-09-25T09:47:45Z</time>
      </trkpt>
      <trkpt lat="48.56986" lon="-4.59779">
        <ele>19.2</ele>
        <time>2025-09-25T09:47:48Z</time>
      </trkpt>
      <trkpt lat="48.56995" lon="-4.59792">
        <ele>18.4</ele>
        <time>2025-09-25T09:47:52Z</time>
      </trkpt>
      <trkpt lat="48.56995" lon="-4.59795">
        <ele>18.6</ele>
        <time>2025-09-25T09:47:53Z</time>
      </trkpt>
      <trkpt lat="48.56993" lon="-4.59803">
        <ele>19.2</ele>
        <time>2025-09-25T09:47:56Z</time>
      </trkpt>
      <trkpt lat="48.56993" lon="-4.59817">
        <ele>20.4</ele>
        <time>2025-09-25T09:48:02Z</time>
      </trkpt>
      <trkpt lat="48.56992" lon="-4.59819">
        <ele>20.6</ele>
        <time>2025-09-25T09:48:03Z</time>
      </trkpt>
      <trkpt lat="48.56993" lon="-4.59832">
        <ele>21.4</ele>
        <time>2025-09-25T09:48:08Z</time>
      </trkpt>
      <trkpt lat="48.56993" lon="-4.59838">
        <ele>21.8</ele>
        <time>2025-09-25T09:48:10Z</time>
      </trkpt>
      <trkpt lat="48.56992" lon="-4.59847">
        <ele>22.6</ele>
        <time>2025-09-25T09:48:14Z</time>
      </trkpt>
      <trkpt lat="48.56992" lon="-4.59856">
        <ele>23</ele>
        <time>2025-09-25T09:48:17Z</time>
      </trkpt>
      <trkpt lat="48.56992" lon="-4.59861">
        <ele>23.4</ele>
        <time>2025-09-25T09:48:19Z</time>
      </trkpt>
      <trkpt lat="48.56991" lon="-4.59864">
        <ele>23.6</ele>
        <time>2025-09-25T09:48:20Z</time>
      </trkpt>
      <trkpt lat="48.5699" lon="-4.59881">
        <ele>24.6</ele>
        <time>2025-09-25T09:48:26Z</time>
      </trkpt>
      <trkpt lat="48.5699" lon="-4.59883">
        <ele>24.8</ele>
        <time>2025-09-25T09:48:27Z</time>
      </trkpt>
      <trkpt lat="48.56989" lon="-4.59897">
        <ele>25.8</ele>
        <time>2025-09-25T09:48:33Z</time>
      </trkpt>
      <trkpt lat="48.56988" lon="-4.59907">
        <ele>26.4</ele>
        <time>2025-09-25T09:48:37Z</time>
      </trkpt>
      <trkpt lat="48.56986" lon="-4.59921">
        <ele>27</ele>
        <time>2025-09-25T09:48:42Z</time>
      </trkpt>
      <trkpt lat="48.56986" lon="-4.59931">
        <ele>27.6</ele>
        <time>2025-09-25T09:48:46Z</time>
      </trkpt>
      <trkpt lat="48.56985" lon="-4.59941">
        <ele>28</ele>
        <time>2025-09-25T09:48:50Z</time>
      </trkpt>
      <trkpt lat="48.56983" lon="-4.59954">
        <ele>28.6</ele>
        <time>2025-09-25T09:48:55Z</time>
      </trkpt>
      <trkpt lat="48.56981" lon="-4.59965">
        <ele>29.2</ele>
        <time>2025-09-25T09:49:00Z</time>
      </trkpt>
      <trkpt lat="48.56979" lon="-4.59976">
        <ele>29.6</ele>
        <time>2025-09-25T09:49:04Z</time>
      </trkpt>
      <trkpt lat="48.56977" lon="-4.59992">
        <ele>30.2</ele>
        <time>2025-09-25T09:49:10Z</time>
      </trkpt>
      <trkpt lat="48.56977" lon="-4.59995">
        <ele>30.4</ele>
        <time>2025-09-25T09:49:11Z</time>
      </trkpt>
      <trkpt lat="48.56977" lon="-4.60013">
        <ele>31</ele>
        <time>2025-09-25T09:49:18Z</time>
      </trkpt>
      <trkpt lat="48.56983" lon="-4.60022">
        <ele>31.2</ele>
        <time>2025-09-25T09:49:23Z</time>
      </trkpt>
      <trkpt lat="48.56985" lon="-4.60023">
        <ele>31.2</ele>
        <time>2025-09-25T09:49:24Z</time>
      </trkpt>
      <trkpt lat="48.56992" lon="-4.60026">
        <ele>31.2</ele>
        <time>2025-09-25T09:49:28Z</time>
      </trkpt>
      <trkpt lat="48.56996" lon="-4.60027">
        <ele>31.6</ele>
        <time>2025-09-25T09:49:30Z</time>
      </trkpt>
      <trkpt lat="48.56997" lon="-4.60027">
        <ele>31.6</ele>
        <time>2025-09-25T09:49:31Z</time>
      </trkpt>
      <trkpt lat="48.57003" lon="-4.60031">
        <ele>32</ele>
        <time>2025-09-25T09:49:35Z</time>
      </trkpt>
      <trkpt lat="48.57005" lon="-4.60035">
        <ele>32.4</ele>
        <time>2025-09-25T09:49:37Z</time>
      </trkpt>
      <trkpt lat="48.57009" lon="-4.60054">
        <ele>33</ele>
        <time>2025-09-25T09:49:44Z</time>
      </trkpt>
      <trkpt lat="48.57012" lon="-4.60067">
        <ele>33.4</ele>
        <time>2025-09-25T09:49:49Z</time>
      </trkpt>
      <trkpt lat="48.57013" lon="-4.60073">
        <ele>33.6</ele>
        <time>2025-09-25T09:49:52Z</time>
      </trkpt>
      <trkpt lat="48.57014" lon="-4.60087">
        <ele>34.4</ele>
        <time>2025-09-25T09:49:58Z</time>
      </trkpt>
      <trkpt lat="48.57014" lon="-4.60107">
        <ele>35</ele>
        <time>2025-09-25T09:50:07Z</time>
      </trkpt>
      <trkpt lat="48.57015" lon="-4.60121">
        <ele>35.6</ele>
        <time>2025-09-25T09:50:14Z</time>
      </trkpt>
      <trkpt lat="48.57016" lon="-4.60138">
        <ele>36.6</ele>
        <time>2025-09-25T09:50:22Z</time>
      </trkpt>
      <trkpt lat="48.57016" lon="-4.60154">
        <ele>36.6</ele>
        <time>2025-09-25T09:50:28Z</time>
      </trkpt>
      <trkpt lat="48.57017" lon="-4.60176">
        <ele>37</ele>
        <time>2025-09-25T09:50:37Z</time>
      </trkpt>
      <trkpt lat="48.5702" lon="-4.60204">
        <ele>37</ele>
        <time>2025-09-25T09:50:47Z</time>
      </trkpt>
      <trkpt lat="48.57024" lon="-4.60218">
        <ele>37.8</ele>
        <time>2025-09-25T09:50:52Z</time>
      </trkpt>
      <trkpt lat="48.57031" lon="-4.60233">
        <ele>38.2</ele>
        <time>2025-09-25T09:50:58Z</time>
      </trkpt>
      <trkpt lat="48.57039" lon="-4.60249">
        <ele>38.4</ele>
        <time>2025-09-25T09:51:05Z</time>
      </trkpt>
      <trkpt lat="48.57046" lon="-4.60268">
        <ele>38.2</ele>
        <time>2025-09-25T09:51:12Z</time>
      </trkpt>
      <trkpt lat="48.57046" lon="-4.60288">
        <ele>38.4</ele>
        <time>2025-09-25T09:51:18Z</time>
      </trkpt>
      <trkpt lat="48.57043" lon="-4.60309">
        <ele>38.2</ele>
        <time>2025-09-25T09:51:23Z</time>
      </trkpt>
      <trkpt lat="48.57045" lon="-4.60337">
        <ele>38.4</ele>
        <time>2025-09-25T09:51:30Z</time>
      </trkpt>
      <trkpt lat="48.57047" lon="-4.6036">
        <ele>38</ele>
        <time>2025-09-25T09:51:35Z</time>
      </trkpt>
      <trkpt lat="48.57049" lon="-4.60371">
        <ele>37.8</ele>
        <time>2025-09-25T09:51:37Z</time>
      </trkpt>
      <trkpt lat="48.57057" lon="-4.60422">
        <ele>37</ele>
        <time>2025-09-25T09:51:46Z</time>
      </trkpt>
      <trkpt lat="48.57062" lon="-4.60451">
        <ele>36.8</ele>
        <time>2025-09-25T09:51:51Z</time>
      </trkpt>
      <trkpt lat="48.57068" lon="-4.60481">
        <ele>36.4</ele>
        <time>2025-09-25T09:51:56Z</time>
      </trkpt>
      <trkpt lat="48.57074" lon="-4.60533">
        <ele>36.8</ele>
        <time>2025-09-25T09:52:04Z</time>
      </trkpt>
      <trkpt lat="48.5708" lon="-4.60565">
        <ele>36</ele>
        <time>2025-09-25T09:52:09Z</time>
      </trkpt>
      <trkpt lat="48.57083" lon="-4.60569">
        <ele>35.8</ele>
        <time>2025-09-25T09:52:10Z</time>
      </trkpt>
      <trkpt lat="48.57087" lon="-4.60571">
        <ele>35.4</ele>
        <time>2025-09-25T09:52:11Z</time>
      </trkpt>
      <trkpt lat="48.57097" lon="-4.60574">
        <ele>34.2</ele>
        <time>2025-09-25T09:52:13Z</time>
      </trkpt>
      <trkpt lat="48.57108" lon="-4.60576">
        <ele>32.6</ele>
        <time>2025-09-25T09:52:15Z</time>
      </trkpt>
      <trkpt lat="48.57121" lon="-4.60578">
        <ele>31.4</ele>
        <time>2025-09-25T09:52:17Z</time>
      </trkpt>
      <trkpt lat="48.57133" lon="-4.6058">
        <ele>30.6</ele>
        <time>2025-09-25T09:52:19Z</time>
      </trkpt>
      <trkpt lat="48.57139" lon="-4.60582">
        <ele>30.2</ele>
        <time>2025-09-25T09:52:20Z</time>
      </trkpt>
      <trkpt lat="48.5716" lon="-4.60585">
        <ele>29.2</ele>
        <time>2025-09-25T09:52:24Z</time>
      </trkpt>
      <trkpt lat="48.57165" lon="-4.60587">
        <ele>28.8</ele>
        <time>2025-09-25T09:52:25Z</time>
      </trkpt>
      <trkpt lat="48.57174" lon="-4.60594">
        <ele>28.4</ele>
        <time>2025-09-25T09:52:27Z</time>
      </trkpt>
      <trkpt lat="48.57181" lon="-4.60603">
        <ele>28</ele>
        <time>2025-09-25T09:52:29Z</time>
      </trkpt>
      <trkpt lat="48.57193" lon="-4.60627">
        <ele>27</ele>
        <time>2025-09-25T09:52:34Z</time>
      </trkpt>
      <trkpt lat="48.57194" lon="-4.60632">
        <ele>26.6</ele>
        <time>2025-09-25T09:52:35Z</time>
      </trkpt>
      <trkpt lat="48.57197" lon="-4.60641">
        <ele>26</ele>
        <time>2025-09-25T09:52:37Z</time>
      </trkpt>
      <trkpt lat="48.572" lon="-4.60656">
        <ele>25</ele>
        <time>2025-09-25T09:52:41Z</time>
      </trkpt>
      <trkpt lat="48.57202" lon="-4.60664">
        <ele>25</ele>
        <time>2025-09-25T09:52:45Z</time>
      </trkpt>
      <trkpt lat="48.57203" lon="-4.60665">
        <ele>24.8</ele>
        <time>2025-09-25T09:52:46Z</time>
      </trkpt>
      <trkpt lat="48.57204" lon="-4.60661">
        <ele>24.8</ele>
        <time>2025-09-25T09:52:49Z</time>
      </trkpt>
      <trkpt lat="48.57204" lon="-4.60661">
        <ele>24.8</ele>
        <time>2025-09-25T09:52:50Z</time>
      </trkpt>
      <trkpt lat="48.57204" lon="-4.60664">
        <ele>24.6</ele>
        <time>2025-09-25T09:54:28Z</time>
      </trkpt>
      <trkpt lat="48.57204" lon="-4.60665">
        <ele>24.6</ele>
        <time>2025-09-25T09:54:30Z</time>
      </trkpt>
      <trkpt lat="48.57203" lon="-4.60668">
        <ele>24.6</ele>
        <time>2025-09-25T09:54:36Z</time>
      </trkpt>
      <trkpt lat="48.57203" lon="-4.60675">
        <ele>24.4</ele>
        <time>2025-09-25T09:54:39Z</time>
      </trkpt>
      <trkpt lat="48.57204" lon="-4.60686">
        <ele>24.2</ele>
        <time>2025-09-25T09:54:42Z</time>
      </trkpt>
      <trkpt lat="48.57206" lon="-4.60694">
        <ele>23.8</ele>
        <time>2025-09-25T09:54:44Z</time>
      </trkpt>
      <trkpt lat="48.57208" lon="-4.60715">
        <ele>23.4</ele>
        <time>2025-09-25T09:54:48Z</time>
      </trkpt>
      <trkpt lat="48.57213" lon="-4.60746">
        <ele>23</ele>
        <time>2025-09-25T09:54:54Z</time>
      </trkpt>
      <trkpt lat="48.57213" lon="-4.60751">
        <ele>23</ele>
        <time>2025-09-25T09:54:55Z</time>
      </trkpt>
      <trkpt lat="48.57214" lon="-4.60756">
        <ele>23</ele>
        <time>2025-09-25T09:54:56Z</time>
      </trkpt>
      <trkpt lat="48.57214" lon="-4.60761">
        <ele>23</ele>
        <time>2025-09-25T09:54:57Z</time>
      </trkpt>
      <trkpt lat="48.57215" lon="-4.60785">
        <ele>23.2</ele>
        <time>2025-09-25T09:55:02Z</time>
      </trkpt>
      <trkpt lat="48.57216" lon="-4.60813">
        <ele>22.8</ele>
        <time>2025-09-25T09:55:07Z</time>
      </trkpt>
      <trkpt lat="48.57217" lon="-4.6083">
        <ele>22.6</ele>
        <time>2025-09-25T09:55:10Z</time>
      </trkpt>
      <trkpt lat="48.57219" lon="-4.60864">
        <ele>22</ele>
        <time>2025-09-25T09:55:17Z</time>
      </trkpt>
      <trkpt lat="48.57219" lon="-4.60876">
        <ele>22</ele>
        <time>2025-09-25T09:55:20Z</time>
      </trkpt>
      <trkpt lat="48.5722" lon="-4.60885">
        <ele>21.8</ele>
        <time>2025-09-25T09:55:23Z</time>
      </trkpt>
      <trkpt lat="48.5722" lon="-4.60886">
        <ele>22</ele>
        <time>2025-09-25T09:55:25Z</time>
      </trkpt>
      <trkpt lat="48.57219" lon="-4.60888">
        <ele>22.2</ele>
        <time>2025-09-25T09:58:02Z</time>
      </trkpt>
      <trkpt lat="48.57219" lon="-4.6089">
        <ele>22.2</ele>
        <time>2025-09-25T09:58:03Z</time>
      </trkpt>
      <trkpt lat="48.57221" lon="-4.60909">
        <ele>22.4</ele>
        <time>2025-09-25T09:58:08Z</time>
      </trkpt>
      <trkpt lat="48.57221" lon="-4.60917">
        <ele>22.4</ele>
        <time>2025-09-25T09:58:12Z</time>
      </trkpt>
      <trkpt lat="48.57223" lon="-4.60919">
        <ele>22.4</ele>
        <time>2025-09-25T10:02:54Z</time>
      </trkpt>
      <trkpt lat="48.57223" lon="-4.60926">
        <ele>22.2</ele>
        <time>2025-09-25T10:02:57Z</time>
      </trkpt>
      <trkpt lat="48.57224" lon="-4.60944">
        <ele>22.4</ele>
        <time>2025-09-25T10:03:03Z</time>
      </trkpt>
      <trkpt lat="48.57227" lon="-4.60959">
        <ele>22.4</ele>
        <time>2025-09-25T10:03:07Z</time>
      </trkpt>
      <trkpt lat="48.57227" lon="-4.60966">
        <ele>23</ele>
        <time>2025-09-25T10:03:09Z</time>
      </trkpt>
      <trkpt lat="48.57229" lon="-4.60978">
        <ele>23.4</ele>
        <time>2025-09-25T10:03:12Z</time>
      </trkpt>
      <trkpt lat="48.57232" lon="-4.61008">
        <ele>24</ele>
        <time>2025-09-25T10:03:20Z</time>
      </trkpt>
      <trkpt lat="48.57233" lon="-4.61016">
        <ele>24</ele>
        <time>2025-09-25T10:03:23Z</time>
      </trkpt>
      <trkpt lat="48.57233" lon="-4.61024">
        <ele>24.8</ele>
        <time>2025-09-25T10:03:26Z</time>
      </trkpt>
      <trkpt lat="48.57234" lon="-4.61029">
        <ele>25</ele>
        <time>2025-09-25T10:03:28Z</time>
      </trkpt>
      <trkpt lat="48.57233" lon="-4.61043">
        <ele>25.8</ele>
        <time>2025-09-25T10:03:33Z</time>
      </trkpt>
      <trkpt lat="48.57237" lon="-4.61064">
        <ele>26</ele>
        <time>2025-09-25T10:03:39Z</time>
      </trkpt>
      <trkpt lat="48.5724" lon="-4.6109">
        <ele>25.8</ele>
        <time>2025-09-25T10:03:46Z</time>
      </trkpt>
      <trkpt lat="48.57241" lon="-4.6111">
        <ele>26</ele>
        <time>2025-09-25T10:03:52Z</time>
      </trkpt>
      <trkpt lat="48.57241" lon="-4.61116">
        <ele>26.2</ele>
        <time>2025-09-25T10:03:54Z</time>
      </trkpt>
      <trkpt lat="48.57242" lon="-4.61135">
        <ele>26.4</ele>
        <time>2025-09-25T10:04:01Z</time>
      </trkpt>
      <trkpt lat="48.57242" lon="-4.61163">
        <ele>27</ele>
        <time>2025-09-25T10:04:10Z</time>
      </trkpt>
      <trkpt lat="48.57242" lon="-4.61172">
        <ele>27.2</ele>
        <time>2025-09-25T10:04:13Z</time>
      </trkpt>
      <trkpt lat="48.57241" lon="-4.61189">
        <ele>27.8</ele>
        <time>2025-09-25T10:04:18Z</time>
      </trkpt>
      <trkpt lat="48.57241" lon="-4.61192">
        <ele>27.8</ele>
        <time>2025-09-25T10:04:19Z</time>
      </trkpt>
      <trkpt lat="48.57241" lon="-4.61207">
        <ele>28.2</ele>
        <time>2025-09-25T10:04:24Z</time>
      </trkpt>
      <trkpt lat="48.57241" lon="-4.61213">
        <ele>28.4</ele>
        <time>2025-09-25T10:04:26Z</time>
      </trkpt>
      <trkpt lat="48.57242" lon="-4.6123">
        <ele>29.4</ele>
        <time>2025-09-25T10:04:32Z</time>
      </trkpt>
      <trkpt lat="48.57242" lon="-4.61236">
        <ele>29.6</ele>
        <time>2025-09-25T10:04:34Z</time>
      </trkpt>
      <trkpt lat="48.57245" lon="-4.61255">
        <ele>30.4</ele>
        <time>2025-09-25T10:04:41Z</time>
      </trkpt>
      <trkpt lat="48.57246" lon="-4.61258">
        <ele>30.4</ele>
        <time>2025-09-25T10:04:42Z</time>
      </trkpt>
      <trkpt lat="48.57252" lon="-4.61276">
        <ele>30.8</ele>
        <time>2025-09-25T10:04:49Z</time>
      </trkpt>
      <trkpt lat="48.57257" lon="-4.61293">
        <ele>31</ele>
        <time>2025-09-25T10:04:55Z</time>
      </trkpt>
      <trkpt lat="48.57261" lon="-4.61315">
        <ele>31.4</ele>
        <time>2025-09-25T10:05:03Z</time>
      </trkpt>
      <trkpt lat="48.57262" lon="-4.61317">
        <ele>31.4</ele>
        <time>2025-09-25T10:05:04Z</time>
      </trkpt>
      <trkpt lat="48.57261" lon="-4.61331">
        <ele>32</ele>
        <time>2025-09-25T10:05:10Z</time>
      </trkpt>
      <trkpt lat="48.57261" lon="-4.61339">
        <ele>32.6</ele>
        <time>2025-09-25T10:05:14Z</time>
      </trkpt>
      <trkpt lat="48.5726" lon="-4.61342">
        <ele>32.8</ele>
        <time>2025-09-25T10:05:16Z</time>
      </trkpt>
      <trkpt lat="48.5726" lon="-4.61352">
        <ele>33.6</ele>
        <time>2025-09-25T10:05:21Z</time>
      </trkpt>
      <trkpt lat="48.57258" lon="-4.61358">
        <ele>34</ele>
        <time>2025-09-25T10:05:24Z</time>
      </trkpt>
      <trkpt lat="48.57256" lon="-4.61364">
        <ele>34.6</ele>
        <time>2025-09-25T10:05:27Z</time>
      </trkpt>
      <trkpt lat="48.57254" lon="-4.6137">
        <ele>35.2</ele>
        <time>2025-09-25T10:05:30Z</time>
      </trkpt>
      <trkpt lat="48.57252" lon="-4.61376">
        <ele>35.6</ele>
        <time>2025-09-25T10:05:33Z</time>
      </trkpt>
      <trkpt lat="48.57247" lon="-4.61384">
        <ele>36.8</ele>
        <time>2025-09-25T10:05:38Z</time>
      </trkpt>
      <trkpt lat="48.57241" lon="-4.61393">
        <ele>37.8</ele>
        <time>2025-09-25T10:05:43Z</time>
      </trkpt>
      <trkpt lat="48.57239" lon="-4.61396">
        <ele>38</ele>
        <time>2025-09-25T10:05:45Z</time>
      </trkpt>
      <trkpt lat="48.57235" lon="-4.61407">
        <ele>38.8</ele>
        <time>2025-09-25T10:05:50Z</time>
      </trkpt>
      <trkpt lat="48.57234" lon="-4.61409">
        <ele>39</ele>
        <time>2025-09-25T10:05:51Z</time>
      </trkpt>
      <trkpt lat="48.5723" lon="-4.61427">
        <ele>39.8</ele>
        <time>2025-09-25T10:05:59Z</time>
      </trkpt>
      <trkpt lat="48.57229" lon="-4.61433">
        <ele>39.8</ele>
        <time>2025-09-25T10:06:01Z</time>
      </trkpt>
      <trkpt lat="48.57226" lon="-4.61445">
        <ele>40</ele>
        <time>2025-09-25T10:06:06Z</time>
      </trkpt>
      <trkpt lat="48.57219" lon="-4.61467">
        <ele>38.6</ele>
        <time>2025-09-25T10:06:12Z</time>
      </trkpt>
      <trkpt lat="48.57213" lon="-4.61478">
        <ele>37.6</ele>
        <time>2025-09-25T10:06:14Z</time>
      </trkpt>
      <trkpt lat="48.57204" lon="-4.61491">
        <ele>36.4</ele>
        <time>2025-09-25T10:06:16Z</time>
      </trkpt>
      <trkpt lat="48.5719" lon="-4.61515">
        <ele>35.2</ele>
        <time>2025-09-25T10:06:19Z</time>
      </trkpt>
      <trkpt lat="48.57185" lon="-4.61535">
        <ele>34.8</ele>
        <time>2025-09-25T10:06:21Z</time>
      </trkpt>
      <trkpt lat="48.57184" lon="-4.61566">
        <ele>36</ele>
        <time>2025-09-25T10:06:25Z</time>
      </trkpt>
      <trkpt lat="48.57184" lon="-4.6157">
        <ele>36.6</ele>
        <time>2025-09-25T10:06:26Z</time>
      </trkpt>
      <trkpt lat="48.57183" lon="-4.61575">
        <ele>37.6</ele>
        <time>2025-09-25T10:06:28Z</time>
      </trkpt>
      <trkpt lat="48.57183" lon="-4.61577">
        <ele>38</ele>
        <time>2025-09-25T10:06:29Z</time>
      </trkpt>
      <trkpt lat="48.57183" lon="-4.61583">
        <ele>38.8</ele>
        <time>2025-09-25T10:06:32Z</time>
      </trkpt>
      <trkpt lat="48.57185" lon="-4.61592">
        <ele>39.4</ele>
        <time>2025-09-25T10:06:36Z</time>
      </trkpt>
      <trkpt lat="48.57186" lon="-4.61594">
        <ele>39.4</ele>
        <time>2025-09-25T10:06:37Z</time>
      </trkpt>
      <trkpt lat="48.57198" lon="-4.61608">
        <ele>39</ele>
        <time>2025-09-25T10:06:43Z</time>
      </trkpt>
      <trkpt lat="48.57212" lon="-4.61617">
        <ele>39.8</ele>
        <time>2025-09-25T10:06:49Z</time>
      </trkpt>
      <trkpt lat="48.5722" lon="-4.6162">
        <ele>40</ele>
        <time>2025-09-25T10:06:52Z</time>
      </trkpt>
      <trkpt lat="48.57245" lon="-4.61634">
        <ele>39.6</ele>
        <time>2025-09-25T10:07:01Z</time>
      </trkpt>
      <trkpt lat="48.57273" lon="-4.61647">
        <ele>38.6</ele>
        <time>2025-09-25T10:07:09Z</time>
      </trkpt>
      <trkpt lat="48.57302" lon="-4.61664">
        <ele>39</ele>
        <time>2025-09-25T10:07:17Z</time>
      </trkpt>
      <trkpt lat="48.57307" lon="-4.6167">
        <ele>39.4</ele>
        <time>2025-09-25T10:07:19Z</time>
      </trkpt>
      <trkpt lat="48.57312" lon="-4.61677">
        <ele>39.6</ele>
        <time>2025-09-25T10:07:21Z</time>
      </trkpt>
      <trkpt lat="48.57314" lon="-4.61681">
        <ele>39.4</ele>
        <time>2025-09-25T10:07:22Z</time>
      </trkpt>
      <trkpt lat="48.57316" lon="-4.61686">
        <ele>39.4</ele>
        <time>2025-09-25T10:07:23Z</time>
      </trkpt>
      <trkpt lat="48.5732" lon="-4.61707">
        <ele>39.4</ele>
        <time>2025-09-25T10:07:27Z</time>
      </trkpt>
      <trkpt lat="48.5732" lon="-4.61713">
        <ele>39.4</ele>
        <time>2025-09-25T10:07:28Z</time>
      </trkpt>
      <trkpt lat="48.57319" lon="-4.61737">
        <ele>39.4</ele>
        <time>2025-09-25T10:07:32Z</time>
      </trkpt>
      <trkpt lat="48.57319" lon="-4.61743">
        <ele>39.4</ele>
        <time>2025-09-25T10:07:33Z</time>
      </trkpt>
      <trkpt lat="48.57319" lon="-4.61749">
        <ele>39.4</ele>
        <time>2025-09-25T10:07:34Z</time>
      </trkpt>
      <trkpt lat="48.57319" lon="-4.61762">
        <ele>39.6</ele>
        <time>2025-09-25T10:07:36Z</time>
      </trkpt>
      <trkpt lat="48.57319" lon="-4.61768">
        <ele>39.6</ele>
        <time>2025-09-25T10:07:37Z</time>
      </trkpt>
      <trkpt lat="48.57319" lon="-4.6181">
        <ele>39.4</ele>
        <time>2025-09-25T10:07:44Z</time>
      </trkpt>
      <trkpt lat="48.5732" lon="-4.61828">
        <ele>39</ele>
        <time>2025-09-25T10:07:47Z</time>
      </trkpt>
      <trkpt lat="48.57322" lon="-4.61874">
        <ele>39</ele>
        <time>2025-09-25T10:07:54Z</time>
      </trkpt>
      <trkpt lat="48.57325" lon="-4.619">
        <ele>38.8</ele>
        <time>2025-09-25T10:07:58Z</time>
      </trkpt>
      <trkpt lat="48.57328" lon="-4.61925">
        <ele>38.6</ele>
        <time>2025-09-25T10:08:02Z</time>
      </trkpt>
      <trkpt lat="48.5733" lon="-4.61937">
        <ele>38.8</ele>
        <time>2025-09-25T10:08:04Z</time>
      </trkpt>
      <trkpt lat="48.57334" lon="-4.61966">
        <ele>38.8</ele>
        <time>2025-09-25T10:08:09Z</time>
      </trkpt>
      <trkpt lat="48.57334" lon="-4.61971">
        <ele>38.8</ele>
        <time>2025-09-25T10:08:10Z</time>
      </trkpt>
      <trkpt lat="48.57336" lon="-4.61984">
        <ele>38.8</ele>
        <time>2025-09-25T10:08:12Z</time>
      </trkpt>
      <trkpt lat="48.57338" lon="-4.61996">
        <ele>38.4</ele>
        <time>2025-09-25T10:08:14Z</time>
      </trkpt>
      <trkpt lat="48.5734" lon="-4.62019">
        <ele>38</ele>
        <time>2025-09-25T10:08:17Z</time>
      </trkpt>
      <trkpt lat="48.5734" lon="-4.62027">
        <ele>37.6</ele>
        <time>2025-09-25T10:08:18Z</time>
      </trkpt>
      <trkpt lat="48.57342" lon="-4.62054">
        <ele>36.2</ele>
        <time>2025-09-25T10:08:21Z</time>
      </trkpt>
      <trkpt lat="48.57342" lon="-4.62063">
        <ele>35.8</ele>
        <time>2025-09-25T10:08:22Z</time>
      </trkpt>
      <trkpt lat="48.57343" lon="-4.62078">
        <ele>35.2</ele>
        <time>2025-09-25T10:08:24Z</time>
      </trkpt>
      <trkpt lat="48.57344" lon="-4.62086">
        <ele>34.8</ele>
        <time>2025-09-25T10:08:25Z</time>
      </trkpt>
      <trkpt lat="48.57346" lon="-4.62102">
        <ele>34</ele>
        <time>2025-09-25T10:08:27Z</time>
      </trkpt>
      <trkpt lat="48.57353" lon="-4.62128">
        <ele>32.8</ele>
        <time>2025-09-25T10:08:30Z</time>
      </trkpt>
      <trkpt lat="48.57356" lon="-4.62137">
        <ele>32</ele>
        <time>2025-09-25T10:08:31Z</time>
      </trkpt>
      <trkpt lat="48.5736" lon="-4.62146">
        <ele>31.4</ele>
        <time>2025-09-25T10:08:32Z</time>
      </trkpt>
      <trkpt lat="48.57369" lon="-4.62164">
        <ele>30.2</ele>
        <time>2025-09-25T10:08:34Z</time>
      </trkpt>
      <trkpt lat="48.57377" lon="-4.62182">
        <ele>29.2</ele>
        <time>2025-09-25T10:08:36Z</time>
      </trkpt>
      <trkpt lat="48.57384" lon="-4.62201">
        <ele>28.2</ele>
        <time>2025-09-25T10:08:38Z</time>
      </trkpt>
      <trkpt lat="48.57391" lon="-4.62219">
        <ele>26.8</ele>
        <time>2025-09-25T10:08:40Z</time>
      </trkpt>
      <trkpt lat="48.57398" lon="-4.62238">
        <ele>25.4</ele>
        <time>2025-09-25T10:08:42Z</time>
      </trkpt>
      <trkpt lat="48.5741" lon="-4.62266">
        <ele>24.4</ele>
        <time>2025-09-25T10:08:45Z</time>
      </trkpt>
      <trkpt lat="48.57414" lon="-4.62275">
        <ele>24.2</ele>
        <time>2025-09-25T10:08:46Z</time>
      </trkpt>
      <trkpt lat="48.57421" lon="-4.62294">
        <ele>22.6</ele>
        <time>2025-09-25T10:08:48Z</time>
      </trkpt>
      <trkpt lat="48.57428" lon="-4.62315">
        <ele>21.2</ele>
        <time>2025-09-25T10:08:50Z</time>
      </trkpt>
      <trkpt lat="48.57433" lon="-4.62336">
        <ele>19.8</ele>
        <time>2025-09-25T10:08:52Z</time>
      </trkpt>
      <trkpt lat="48.57437" lon="-4.62359">
        <ele>19</ele>
        <time>2025-09-25T10:08:54Z</time>
      </trkpt>
      <trkpt lat="48.57437" lon="-4.62371">
        <ele>18.4</ele>
        <time>2025-09-25T10:08:55Z</time>
      </trkpt>
      <trkpt lat="48.57438" lon="-4.62383">
        <ele>17.8</ele>
        <time>2025-09-25T10:08:56Z</time>
      </trkpt>
      <trkpt lat="48.57438" lon="-4.62394">
        <ele>17.2</ele>
        <time>2025-09-25T10:08:57Z</time>
      </trkpt>
      <trkpt lat="48.57437" lon="-4.62416">
        <ele>15.6</ele>
        <time>2025-09-25T10:08:59Z</time>
      </trkpt>
      <trkpt lat="48.57433" lon="-4.62449">
        <ele>15.2</ele>
        <time>2025-09-25T10:09:02Z</time>
      </trkpt>
      <trkpt lat="48.57421" lon="-4.62535">
        <ele>15.4</ele>
        <time>2025-09-25T10:09:10Z</time>
      </trkpt>
      <trkpt lat="48.5742" lon="-4.62545">
        <ele>15.6</ele>
        <time>2025-09-25T10:09:11Z</time>
      </trkpt>
      <trkpt lat="48.57411" lon="-4.62585">
        <ele>16.4</ele>
        <time>2025-09-25T10:09:16Z</time>
      </trkpt>
      <trkpt lat="48.57409" lon="-4.62591">
        <ele>16.8</ele>
        <time>2025-09-25T10:09:17Z</time>
      </trkpt>
      <trkpt lat="48.57398" lon="-4.62625">
        <ele>17.4</ele>
        <time>2025-09-25T10:09:23Z</time>
      </trkpt>
      <trkpt lat="48.57392" lon="-4.6264">
        <ele>17.6</ele>
        <time>2025-09-25T10:09:26Z</time>
      </trkpt>
      <trkpt lat="48.5739" lon="-4.62645">
        <ele>17.8</ele>
        <time>2025-09-25T10:09:27Z</time>
      </trkpt>
      <trkpt lat="48.57384" lon="-4.62662">
        <ele>18.2</ele>
        <time>2025-09-25T10:09:31Z</time>
      </trkpt>
      <trkpt lat="48.57381" lon="-4.62672">
        <ele>18.8</ele>
        <time>2025-09-25T10:09:34Z</time>
      </trkpt>
      <trkpt lat="48.57377" lon="-4.62685">
        <ele>19.6</ele>
        <time>2025-09-25T10:09:38Z</time>
      </trkpt>
      <trkpt lat="48.57376" lon="-4.62688">
        <ele>19.6</ele>
        <time>2025-09-25T10:09:39Z</time>
      </trkpt>
      <trkpt lat="48.57374" lon="-4.62694">
        <ele>20</ele>
        <time>2025-09-25T10:09:41Z</time>
      </trkpt>
      <trkpt lat="48.57366" lon="-4.62711">
        <ele>20.8</ele>
        <time>2025-09-25T10:09:47Z</time>
      </trkpt>
      <trkpt lat="48.57364" lon="-4.62713">
        <ele>21</ele>
        <time>2025-09-25T10:09:48Z</time>
      </trkpt>
      <trkpt lat="48.57356" lon="-4.62723">
        <ele>21.6</ele>
        <time>2025-09-25T10:09:53Z</time>
      </trkpt>
      <trkpt lat="48.57351" lon="-4.62729">
        <ele>22</ele>
        <time>2025-09-25T10:09:56Z</time>
      </trkpt>
      <trkpt lat="48.57349" lon="-4.62731">
        <ele>22</ele>
        <time>2025-09-25T10:09:57Z</time>
      </trkpt>
      <trkpt lat="48.57337" lon="-4.62748">
        <ele>22.6</ele>
        <time>2025-09-25T10:10:05Z</time>
      </trkpt>
      <trkpt lat="48.57335" lon="-4.62751">
        <ele>22.8</ele>
        <time>2025-09-25T10:10:06Z</time>
      </trkpt>
      <trkpt lat="48.57328" lon="-4.62766">
        <ele>22.8</ele>
        <time>2025-09-25T10:10:14Z</time>
      </trkpt>
      <trkpt lat="48.57324" lon="-4.62769">
        <ele>23</ele>
        <time>2025-09-25T10:10:19Z</time>
      </trkpt>
      <trkpt lat="48.57314" lon="-4.62761">
        <ele>22.8</ele>
        <time>2025-09-25T10:10:24Z</time>
      </trkpt>
      <trkpt lat="48.57311" lon="-4.62757">
        <ele>23.2</ele>
        <time>2025-09-25T10:10:27Z</time>
      </trkpt>
      <trkpt lat="48.57306" lon="-4.6275">
        <ele>23.6</ele>
        <time>2025-09-25T10:10:31Z</time>
      </trkpt>
      <trkpt lat="48.57294" lon="-4.62732">
        <ele>23.8</ele>
        <time>2025-09-25T10:10:40Z</time>
      </trkpt>
      <trkpt lat="48.57288" lon="-4.62724">
        <ele>24.2</ele>
        <time>2025-09-25T10:10:44Z</time>
      </trkpt>
      <trkpt lat="48.57284" lon="-4.62718">
        <ele>24.2</ele>
        <time>2025-09-25T10:10:47Z</time>
      </trkpt>
      <trkpt lat="48.57272" lon="-4.6271">
        <ele>25</ele>
        <time>2025-09-25T10:10:54Z</time>
      </trkpt>
      <trkpt lat="48.57268" lon="-4.62709">
        <ele>25.2</ele>
        <time>2025-09-25T10:10:56Z</time>
      </trkpt>
      <trkpt lat="48.5726" lon="-4.62713">
        <ele>25.6</ele>
        <time>2025-09-25T10:11:01Z</time>
      </trkpt>
      <trkpt lat="48.57247" lon="-4.62725">
        <ele>26</ele>
        <time>2025-09-25T10:11:10Z</time>
      </trkpt>
      <trkpt lat="48.57242" lon="-4.62735">
        <ele>26.2</ele>
        <time>2025-09-25T10:11:15Z</time>
      </trkpt>
      <trkpt lat="48.57239" lon="-4.62741">
        <ele>26.2</ele>
        <time>2025-09-25T10:11:18Z</time>
      </trkpt>
      <trkpt lat="48.57234" lon="-4.62759">
        <ele>26.2</ele>
        <time>2025-09-25T10:11:26Z</time>
      </trkpt>
      <trkpt lat="48.57231" lon="-4.62793">
        <ele>25.6</ele>
        <time>2025-09-25T10:11:35Z</time>
      </trkpt>
      <trkpt lat="48.57229" lon="-4.62837">
        <ele>25.2</ele>
        <time>2025-09-25T10:11:43Z</time>
      </trkpt>
      <trkpt lat="48.57226" lon="-4.62904">
        <ele>24</ele>
        <time>2025-09-25T10:11:53Z</time>
      </trkpt>
      <trkpt lat="48.57222" lon="-4.62968">
        <ele>23.8</ele>
        <time>2025-09-25T10:12:02Z</time>
      </trkpt>
      <trkpt lat="48.5722" lon="-4.62998">
        <ele>23.4</ele>
        <time>2025-09-25T10:12:06Z</time>
      </trkpt>
      <trkpt lat="48.57219" lon="-4.63014">
        <ele>22.8</ele>
        <time>2025-09-25T10:12:08Z</time>
      </trkpt>
      <trkpt lat="48.57218" lon="-4.63022">
        <ele>22.6</ele>
        <time>2025-09-25T10:12:09Z</time>
      </trkpt>
      <trkpt lat="48.57213" lon="-4.63105">
        <ele>22.2</ele>
        <time>2025-09-25T10:12:19Z</time>
      </trkpt>
      <trkpt lat="48.57212" lon="-4.63123">
        <ele>21.8</ele>
        <time>2025-09-25T10:12:21Z</time>
      </trkpt>
      <trkpt lat="48.57209" lon="-4.63183">
        <ele>20.8</ele>
        <time>2025-09-25T10:12:28Z</time>
      </trkpt>
      <trkpt lat="48.57208" lon="-4.632">
        <ele>20.6</ele>
        <time>2025-09-25T10:12:30Z</time>
      </trkpt>
      <trkpt lat="48.57206" lon="-4.63233">
        <ele>20.2</ele>
        <time>2025-09-25T10:12:34Z</time>
      </trkpt>
      <trkpt lat="48.57204" lon="-4.63267">
        <ele>20</ele>
        <time>2025-09-25T10:12:38Z</time>
      </trkpt>
      <trkpt lat="48.57203" lon="-4.63293">
        <ele>19.6</ele>
        <time>2025-09-25T10:12:41Z</time>
      </trkpt>
      <trkpt lat="48.57198" lon="-4.6337">
        <ele>18.6</ele>
        <time>2025-09-25T10:12:50Z</time>
      </trkpt>
      <trkpt lat="48.57197" lon="-4.63378">
        <ele>18.4</ele>
        <time>2025-09-25T10:12:51Z</time>
      </trkpt>
      <trkpt lat="48.57195" lon="-4.63413">
        <ele>18.2</ele>
        <time>2025-09-25T10:12:55Z</time>
      </trkpt>
      <trkpt lat="48.57193" lon="-4.63466">
        <ele>17.6</ele>
        <time>2025-09-25T10:13:01Z</time>
      </trkpt>
      <trkpt lat="48.57192" lon="-4.63475">
        <ele>17.4</ele>
        <time>2025-09-25T10:13:02Z</time>
      </trkpt>
      <trkpt lat="48.57189" lon="-4.63518">
        <ele>16.8</ele>
        <time>2025-09-25T10:13:07Z</time>
      </trkpt>
      <trkpt lat="48.57187" lon="-4.63553">
        <ele>16.8</ele>
        <time>2025-09-25T10:13:11Z</time>
      </trkpt>
      <trkpt lat="48.57182" lon="-4.63614">
        <ele>17.2</ele>
        <time>2025-09-25T10:13:19Z</time>
      </trkpt>
      <trkpt lat="48.57176" lon="-4.63685">
        <ele>18.4</ele>
        <time>2025-09-25T10:13:30Z</time>
      </trkpt>
      <trkpt lat="48.57175" lon="-4.63691">
        <ele>18.4</ele>
        <time>2025-09-25T10:13:31Z</time>
      </trkpt>
      <trkpt lat="48.57167" lon="-4.63748">
        <ele>19</ele>
        <time>2025-09-25T10:13:41Z</time>
      </trkpt>
      <trkpt lat="48.57158" lon="-4.63802">
        <ele>19.4</ele>
        <time>2025-09-25T10:13:51Z</time>
      </trkpt>
      <trkpt lat="48.57146" lon="-4.63854">
        <ele>19.8</ele>
        <time>2025-09-25T10:14:01Z</time>
      </trkpt>
      <trkpt lat="48.57143" lon="-4.6387">
        <ele>20</ele>
        <time>2025-09-25T10:14:04Z</time>
      </trkpt>
      <trkpt lat="48.5713" lon="-4.63919">
        <ele>20.2</ele>
        <time>2025-09-25T10:14:13Z</time>
      </trkpt>
      <trkpt lat="48.57124" lon="-4.6394">
        <ele>20.4</ele>
        <time>2025-09-25T10:14:17Z</time>
      </trkpt>
      <trkpt lat="48.5712" lon="-4.6395">
        <ele>20.6</ele>
        <time>2025-09-25T10:14:19Z</time>
      </trkpt>
      <trkpt lat="48.57119" lon="-4.63955">
        <ele>20.6</ele>
        <time>2025-09-25T10:14:20Z</time>
      </trkpt>
      <trkpt lat="48.57117" lon="-4.63961">
        <ele>20.6</ele>
        <time>2025-09-25T10:14:21Z</time>
      </trkpt>
      <trkpt lat="48.57113" lon="-4.63971">
        <ele>20.6</ele>
        <time>2025-09-25T10:14:23Z</time>
      </trkpt>
      <trkpt lat="48.57092" lon="-4.64035">
        <ele>21</ele>
        <time>2025-09-25T10:14:35Z</time>
      </trkpt>
      <trkpt lat="48.57083" lon="-4.64058">
        <ele>21.4</ele>
        <time>2025-09-25T10:14:40Z</time>
      </trkpt>
      <trkpt lat="48.57081" lon="-4.64063">
        <ele>21.4</ele>
        <time>2025-09-25T10:14:41Z</time>
      </trkpt>
      <trkpt lat="48.57075" lon="-4.64076">
        <ele>21.6</ele>
        <time>2025-09-25T10:14:44Z</time>
      </trkpt>
      <trkpt lat="48.57069" lon="-4.64089">
        <ele>21.8</ele>
        <time>2025-09-25T10:14:47Z</time>
      </trkpt>
      <trkpt lat="48.57066" lon="-4.64098">
        <ele>22.2</ele>
        <time>2025-09-25T10:14:49Z</time>
      </trkpt>
      <trkpt lat="48.57064" lon="-4.64102">
        <ele>22.2</ele>
        <time>2025-09-25T10:14:50Z</time>
      </trkpt>
      <trkpt lat="48.57056" lon="-4.64118">
        <ele>22.6</ele>
        <time>2025-09-25T10:14:54Z</time>
      </trkpt>
      <trkpt lat="48.57046" lon="-4.64142">
        <ele>23.2</ele>
        <time>2025-09-25T10:15:00Z</time>
      </trkpt>
      <trkpt lat="48.57044" lon="-4.64145">
        <ele>23.4</ele>
        <time>2025-09-25T10:15:01Z</time>
      </trkpt>
      <trkpt lat="48.5704" lon="-4.64153">
        <ele>23.6</ele>
        <time>2025-09-25T10:15:03Z</time>
      </trkpt>
      <trkpt lat="48.57039" lon="-4.64156">
        <ele>23.6</ele>
        <time>2025-09-25T10:15:04Z</time>
      </trkpt>
      <trkpt lat="48.57037" lon="-4.64159">
        <ele>23.8</ele>
        <time>2025-09-25T10:15:05Z</time>
      </trkpt>
      <trkpt lat="48.57019" lon="-4.64192">
        <ele>24.6</ele>
        <time>2025-09-25T10:15:15Z</time>
      </trkpt>
      <trkpt lat="48.57017" lon="-4.64195">
        <ele>24.8</ele>
        <time>2025-09-25T10:15:16Z</time>
      </trkpt>
      <trkpt lat="48.5701" lon="-4.64212">
        <ele>25</ele>
        <time>2025-09-25T10:15:21Z</time>
      </trkpt>
      <trkpt lat="48.57006" lon="-4.64218">
        <ele>25.2</ele>
        <time>2025-09-25T10:15:23Z</time>
      </trkpt>
      <trkpt lat="48.56994" lon="-4.64242">
        <ele>25.8</ele>
        <time>2025-09-25T10:15:30Z</time>
      </trkpt>
      <trkpt lat="48.5699" lon="-4.64248">
        <ele>25.8</ele>
        <time>2025-09-25T10:15:32Z</time>
      </trkpt>
      <trkpt lat="48.56974" lon="-4.64278">
        <ele>26.2</ele>
        <time>2025-09-25T10:15:41Z</time>
      </trkpt>
      <trkpt lat="48.56958" lon="-4.64309">
        <ele>26.4</ele>
        <time>2025-09-25T10:15:51Z</time>
      </trkpt>
      <trkpt lat="48.5695" lon="-4.64323">
        <ele>26.6</ele>
        <time>2025-09-25T10:15:55Z</time>
      </trkpt>
      <trkpt lat="48.56944" lon="-4.64334">
        <ele>26.6</ele>
        <time>2025-09-25T10:15:58Z</time>
      </trkpt>
      <trkpt lat="48.56939" lon="-4.64346">
        <ele>26.4</ele>
        <time>2025-09-25T10:16:01Z</time>
      </trkpt>
      <trkpt lat="48.56926" lon="-4.64371">
        <ele>26.2</ele>
        <time>2025-09-25T10:16:07Z</time>
      </trkpt>
      <trkpt lat="48.56922" lon="-4.64379">
        <ele>26.2</ele>
        <time>2025-09-25T10:16:09Z</time>
      </trkpt>
      <trkpt lat="48.5692" lon="-4.64383">
        <ele>26.2</ele>
        <time>2025-09-25T10:16:10Z</time>
      </trkpt>
      <trkpt lat="48.56918" lon="-4.64386">
        <ele>26.2</ele>
        <time>2025-09-25T10:16:11Z</time>
      </trkpt>
      <trkpt lat="48.56916" lon="-4.6439">
        <ele>26.2</ele>
        <time>2025-09-25T10:16:12Z</time>
      </trkpt>
      <trkpt lat="48.56898" lon="-4.64423">
        <ele>26.2</ele>
        <time>2025-09-25T10:16:20Z</time>
      </trkpt>
      <trkpt lat="48.56878" lon="-4.64461">
        <ele>25.4</ele>
        <time>2025-09-25T10:16:28Z</time>
      </trkpt>
      <trkpt lat="48.56864" lon="-4.6449">
        <ele>24.6</ele>
        <time>2025-09-25T10:16:33Z</time>
      </trkpt>
      <trkpt lat="48.56857" lon="-4.64502">
        <ele>24.4</ele>
        <time>2025-09-25T10:16:35Z</time>
      </trkpt>
      <trkpt lat="48.56829" lon="-4.64557">
        <ele>23.4</ele>
        <time>2025-09-25T10:16:43Z</time>
      </trkpt>
      <trkpt lat="48.56808" lon="-4.64596">
        <ele>22.4</ele>
        <time>2025-09-25T10:16:48Z</time>
      </trkpt>
      <trkpt lat="48.56796" lon="-4.64623">
        <ele>21.6</ele>
        <time>2025-09-25T10:16:51Z</time>
      </trkpt>
      <trkpt lat="48.56788" lon="-4.64642">
        <ele>21</ele>
        <time>2025-09-25T10:16:53Z</time>
      </trkpt>
      <trkpt lat="48.56776" lon="-4.64684">
        <ele>19.8</ele>
        <time>2025-09-25T10:16:57Z</time>
      </trkpt>
      <trkpt lat="48.56773" lon="-4.64694">
        <ele>19.6</ele>
        <time>2025-09-25T10:16:58Z</time>
      </trkpt>
      <trkpt lat="48.56764" lon="-4.64728">
        <ele>18.8</ele>
        <time>2025-09-25T10:17:01Z</time>
      </trkpt>
      <trkpt lat="48.56759" lon="-4.6475">
        <ele>18.4</ele>
        <time>2025-09-25T10:17:03Z</time>
      </trkpt>
      <trkpt lat="48.56756" lon="-4.64762">
        <ele>18</ele>
        <time>2025-09-25T10:17:04Z</time>
      </trkpt>
      <trkpt lat="48.56754" lon="-4.64774">
        <ele>17.6</ele>
        <time>2025-09-25T10:17:05Z</time>
      </trkpt>
      <trkpt lat="48.56748" lon="-4.64797">
        <ele>17.2</ele>
        <time>2025-09-25T10:17:07Z</time>
      </trkpt>
      <trkpt lat="48.56745" lon="-4.64809">
        <ele>16.6</ele>
        <time>2025-09-25T10:17:08Z</time>
      </trkpt>
      <trkpt lat="48.56729" lon="-4.64867">
        <ele>15.4</ele>
        <time>2025-09-25T10:17:13Z</time>
      </trkpt>
      <trkpt lat="48.56722" lon="-4.64888">
        <ele>15</ele>
        <time>2025-09-25T10:17:15Z</time>
      </trkpt>
      <trkpt lat="48.56709" lon="-4.64917">
        <ele>14.4</ele>
        <time>2025-09-25T10:17:18Z</time>
      </trkpt>
      <trkpt lat="48.56698" lon="-4.64936">
        <ele>13.6</ele>
        <time>2025-09-25T10:17:20Z</time>
      </trkpt>
      <trkpt lat="48.56692" lon="-4.64944">
        <ele>13.4</ele>
        <time>2025-09-25T10:17:21Z</time>
      </trkpt>
      <trkpt lat="48.56677" lon="-4.64965">
        <ele>12.8</ele>
        <time>2025-09-25T10:17:24Z</time>
      </trkpt>
      <trkpt lat="48.56647" lon="-4.64993">
        <ele>12.4</ele>
        <time>2025-09-25T10:17:30Z</time>
      </trkpt>
      <trkpt lat="48.56642" lon="-4.64997">
        <ele>12.2</ele>
        <time>2025-09-25T10:17:31Z</time>
      </trkpt>
      <trkpt lat="48.56611" lon="-4.65015">
        <ele>11.2</ele>
        <time>2025-09-25T10:17:37Z</time>
      </trkpt>
      <trkpt lat="48.56597" lon="-4.6502">
        <ele>11.2</ele>
        <time>2025-09-25T10:17:41Z</time>
      </trkpt>
      <trkpt lat="48.56595" lon="-4.65021">
        <ele>11.4</ele>
        <time>2025-09-25T10:17:44Z</time>
      </trkpt>
      <trkpt lat="48.56593" lon="-4.65018">
        <ele>11.4</ele>
        <time>2025-09-25T10:17:47Z</time>
      </trkpt>
      <trkpt lat="48.56593" lon="-4.65015">
        <ele>11.2</ele>
        <time>2025-09-25T10:17:48Z</time>
      </trkpt>
      <trkpt lat="48.56594" lon="-4.65013">
        <ele>11</ele>
        <time>2025-09-25T10:17:49Z</time>
      </trkpt>
      <trkpt lat="48.56596" lon="-4.65012">
        <ele>10.8</ele>
        <time>2025-09-25T10:17:50Z</time>
      </trkpt>
      <trkpt lat="48.56598" lon="-4.65012">
        <ele>10.6</ele>
        <time>2025-09-25T10:17:51Z</time>
      </trkpt>
      <trkpt lat="48.5661" lon="-4.65012">
        <ele>10.6</ele>
        <time>2025-09-25T10:17:55Z</time>
      </trkpt>
      <trkpt lat="48.56613" lon="-4.65014">
        <ele>10.8</ele>
        <time>2025-09-25T10:17:56Z</time>
      </trkpt>
      <trkpt lat="48.56618" lon="-4.65018">
        <ele>11.2</ele>
        <time>2025-09-25T10:17:58Z</time>
      </trkpt>
      <trkpt lat="48.56622" lon="-4.6503">
        <ele>11.6</ele>
        <time>2025-09-25T10:18:01Z</time>
      </trkpt>
      <trkpt lat="48.56623" lon="-4.65046">
        <ele>10.8</ele>
        <time>2025-09-25T10:18:04Z</time>
      </trkpt>
      <trkpt lat="48.56622" lon="-4.65059">
        <ele>10.2</ele>
        <time>2025-09-25T10:18:06Z</time>
      </trkpt>
      <trkpt lat="48.5662" lon="-4.65073">
        <ele>9.8</ele>
        <time>2025-09-25T10:18:08Z</time>
      </trkpt>
      <trkpt lat="48.56611" lon="-4.65105">
        <ele>9.8</ele>
        <time>2025-09-25T10:18:13Z</time>
      </trkpt>
      <trkpt lat="48.56598" lon="-4.65132">
        <ele>11</ele>
        <time>2025-09-25T10:18:19Z</time>
      </trkpt>
      <trkpt lat="48.56587" lon="-4.65155">
        <ele>11.6</ele>
        <time>2025-09-25T10:18:26Z</time>
      </trkpt>
      <trkpt lat="48.56582" lon="-4.6518">
        <ele>11.8</ele>
        <time>2025-09-25T10:18:32Z</time>
      </trkpt>
      <trkpt lat="48.56576" lon="-4.65219">
        <ele>12</ele>
        <time>2025-09-25T10:18:41Z</time>
      </trkpt>
      <trkpt lat="48.56577" lon="-4.65258">
        <ele>12.4</ele>
        <time>2025-09-25T10:18:50Z</time>
      </trkpt>
      <trkpt lat="48.56579" lon="-4.65288">
        <ele>12.6</ele>
        <time>2025-09-25T10:18:57Z</time>
      </trkpt>
      <trkpt lat="48.56581" lon="-4.65291">
        <ele>12.4</ele>
        <time>2025-09-25T10:18:58Z</time>
      </trkpt>
      <trkpt lat="48.56594" lon="-4.65295">
        <ele>11.6</ele>
        <time>2025-09-25T10:19:02Z</time>
      </trkpt>
      <trkpt lat="48.56625" lon="-4.65297">
        <ele>11</ele>
        <time>2025-09-25T10:19:11Z</time>
      </trkpt>
      <trkpt lat="48.56632" lon="-4.65301">
        <ele>10.8</ele>
        <time>2025-09-25T10:19:13Z</time>
      </trkpt>
      <trkpt lat="48.56652" lon="-4.65312">
        <ele>10.2</ele>
        <time>2025-09-25T10:19:18Z</time>
      </trkpt>
      <trkpt lat="48.56665" lon="-4.65317">
        <ele>9.8</ele>
        <time>2025-09-25T10:19:21Z</time>
      </trkpt>
      <trkpt lat="48.56677" lon="-4.65323">
        <ele>9</ele>
        <time>2025-09-25T10:19:24Z</time>
      </trkpt>
      <trkpt lat="48.56686" lon="-4.65329">
        <ele>9.2</ele>
        <time>2025-09-25T10:19:27Z</time>
      </trkpt>
      <trkpt lat="48.56687" lon="-4.65332">
        <ele>9.4</ele>
        <time>2025-09-25T10:19:28Z</time>
      </trkpt>
      <trkpt lat="48.56693" lon="-4.65359">
        <ele>9.4</ele>
        <time>2025-09-25T10:19:34Z</time>
      </trkpt>
      <trkpt lat="48.56698" lon="-4.65391">
        <ele>10.2</ele>
        <time>2025-09-25T10:19:41Z</time>
      </trkpt>
      <trkpt lat="48.56705" lon="-4.65428">
        <ele>10.8</ele>
        <time>2025-09-25T10:19:49Z</time>
      </trkpt>
      <trkpt lat="48.56709" lon="-4.65452">
        <ele>10.8</ele>
        <time>2025-09-25T10:19:54Z</time>
      </trkpt>
      <trkpt lat="48.56712" lon="-4.65467">
        <ele>10.8</ele>
        <time>2025-09-25T10:19:57Z</time>
      </trkpt>
      <trkpt lat="48.56718" lon="-4.65502">
        <ele>10.8</ele>
        <time>2025-09-25T10:20:04Z</time>
      </trkpt>
      <trkpt lat="48.5672" lon="-4.65528">
        <ele>10.6</ele>
        <time>2025-09-25T10:20:09Z</time>
      </trkpt>
      <trkpt lat="48.5672" lon="-4.65544">
        <ele>10.6</ele>
        <time>2025-09-25T10:20:12Z</time>
      </trkpt>
      <trkpt lat="48.56721" lon="-4.65578">
        <ele>10.6</ele>
        <time>2025-09-25T10:20:18Z</time>
      </trkpt>
      <trkpt lat="48.56721" lon="-4.65585">
        <ele>10.4</ele>
        <time>2025-09-25T10:20:19Z</time>
      </trkpt>
      <trkpt lat="48.56725" lon="-4.6561">
        <ele>10</ele>
        <time>2025-09-25T10:20:23Z</time>
      </trkpt>
      <trkpt lat="48.56729" lon="-4.65633">
        <ele>9.2</ele>
        <time>2025-09-25T10:20:26Z</time>
      </trkpt>
      <trkpt lat="48.56732" lon="-4.65652">
        <ele>8.8</ele>
        <time>2025-09-25T10:20:28Z</time>
      </trkpt>
      <trkpt lat="48.56732" lon="-4.65673">
        <ele>8.6</ele>
        <time>2025-09-25T10:20:30Z</time>
      </trkpt>
      <trkpt lat="48.56724" lon="-4.65726">
        <ele>8.6</ele>
        <time>2025-09-25T10:20:35Z</time>
      </trkpt>
      <trkpt lat="48.5672" lon="-4.65745">
        <ele>8.6</ele>
        <time>2025-09-25T10:20:37Z</time>
      </trkpt>
      <trkpt lat="48.56711" lon="-4.6577">
        <ele>8.6</ele>
        <time>2025-09-25T10:20:40Z</time>
      </trkpt>
      <trkpt lat="48.56706" lon="-4.6579">
        <ele>9.6</ele>
        <time>2025-09-25T10:20:44Z</time>
      </trkpt>
      <trkpt lat="48.56706" lon="-4.65789">
        <ele>9.8</ele>
        <time>2025-09-25T10:20:47Z</time>
      </trkpt>
      <trkpt lat="48.56707" lon="-4.65786">
        <ele>9.6</ele>
        <time>2025-09-25T10:21:01Z</time>
      </trkpt>
      <trkpt lat="48.56707" lon="-4.6578">
        <ele>9.2</ele>
        <time>2025-09-25T10:21:07Z</time>
      </trkpt>
      <trkpt lat="48.5671" lon="-4.6578">
        <ele>9.4</ele>
        <time>2025-09-25T10:22:09Z</time>
      </trkpt>
      <trkpt lat="48.5671" lon="-4.6578">
        <ele>9.6</ele>
        <time>2025-09-25T10:22:10Z</time>
      </trkpt>
      <trkpt lat="48.5671" lon="-4.65782">
        <ele>9.6</ele>
        <time>2025-09-25T10:22:12Z</time>
      </trkpt>
      <trkpt lat="48.56708" lon="-4.65786">
        <ele>9.6</ele>
        <time>2025-09-25T10:22:14Z</time>
      </trkpt>
      <trkpt lat="48.56706" lon="-4.65792">
        <ele>9.6</ele>
        <time>2025-09-25T10:22:16Z</time>
      </trkpt>
      <trkpt lat="48.56703" lon="-4.65799">
        <ele>9.4</ele>
        <time>2025-09-25T10:22:18Z</time>
      </trkpt>
      <trkpt lat="48.56695" lon="-4.65823">
        <ele>9.4</ele>
        <time>2025-09-25T10:22:24Z</time>
      </trkpt>
      <trkpt lat="48.56686" lon="-4.65855">
        <ele>9.4</ele>
        <time>2025-09-25T10:22:31Z</time>
      </trkpt>
      <trkpt lat="48.56688" lon="-4.65868">
        <ele>9.4</ele>
        <time>2025-09-25T10:22:35Z</time>
      </trkpt>
      <trkpt lat="48.56691" lon="-4.65874">
        <ele>9.4</ele>
        <time>2025-09-25T10:22:39Z</time>
      </trkpt>
      <trkpt lat="48.56695" lon="-4.6588">
        <ele>9.2</ele>
        <time>2025-09-25T10:22:42Z</time>
      </trkpt>
      <trkpt lat="48.56704" lon="-4.65897">
        <ele>8.6</ele>
        <time>2025-09-25T10:22:49Z</time>
      </trkpt>
      <trkpt lat="48.56722" lon="-4.65929">
        <ele>8.4</ele>
        <time>2025-09-25T10:22:58Z</time>
      </trkpt>
      <trkpt lat="48.56731" lon="-4.65945">
        <ele>8.8</ele>
        <time>2025-09-25T10:23:02Z</time>
      </trkpt>
      <trkpt lat="48.56734" lon="-4.65954">
        <ele>8.6</ele>
        <time>2025-09-25T10:23:04Z</time>
      </trkpt>
      <trkpt lat="48.56737" lon="-4.65964">
        <ele>8.6</ele>
        <time>2025-09-25T10:23:06Z</time>
      </trkpt>
      <trkpt lat="48.56747" lon="-4.65994">
        <ele>8.8</ele>
        <time>2025-09-25T10:23:13Z</time>
      </trkpt>
      <trkpt lat="48.56754" lon="-4.66035">
        <ele>8.4</ele>
        <time>2025-09-25T10:23:21Z</time>
      </trkpt>
      <trkpt lat="48.56749" lon="-4.6606">
        <ele>8.6</ele>
        <time>2025-09-25T10:23:27Z</time>
      </trkpt>
      <trkpt lat="48.56746" lon="-4.66086">
        <ele>9</ele>
        <time>2025-09-25T10:23:34Z</time>
      </trkpt>
      <trkpt lat="48.56748" lon="-4.66088">
        <ele>9.2</ele>
        <time>2025-09-25T10:23:35Z</time>
      </trkpt>
      <trkpt lat="48.56752" lon="-4.6609">
        <ele>9</ele>
        <time>2025-09-25T10:23:37Z</time>
      </trkpt>
      <trkpt lat="48.56765" lon="-4.66089">
        <ele>8.4</ele>
        <time>2025-09-25T10:23:41Z</time>
      </trkpt>
      <trkpt lat="48.56771" lon="-4.66088">
        <ele>8.4</ele>
        <time>2025-09-25T10:23:43Z</time>
      </trkpt>
      <trkpt lat="48.56774" lon="-4.66087">
        <ele>8.6</ele>
        <time>2025-09-25T10:23:44Z</time>
      </trkpt>
      <trkpt lat="48.56783" lon="-4.66086">
        <ele>8.8</ele>
        <time>2025-09-25T10:23:47Z</time>
      </trkpt>
      <trkpt lat="48.56798" lon="-4.66082">
        <ele>8.8</ele>
        <time>2025-09-25T10:23:52Z</time>
      </trkpt>
      <trkpt lat="48.5682" lon="-4.66069">
        <ele>8.8</ele>
        <time>2025-09-25T10:24:00Z</time>
      </trkpt>
      <trkpt lat="48.56825" lon="-4.66071">
        <ele>9.4</ele>
        <time>2025-09-25T10:24:02Z</time>
      </trkpt>
      <trkpt lat="48.56828" lon="-4.66077">
        <ele>10</ele>
        <time>2025-09-25T10:24:04Z</time>
      </trkpt>
      <trkpt lat="48.56838" lon="-4.66109">
        <ele>9.8</ele>
        <time>2025-09-25T10:24:12Z</time>
      </trkpt>
      <trkpt lat="48.56843" lon="-4.66141">
        <ele>9.6</ele>
        <time>2025-09-25T10:24:18Z</time>
      </trkpt>
      <trkpt lat="48.56844" lon="-4.66146">
        <ele>9.4</ele>
        <time>2025-09-25T10:24:19Z</time>
      </trkpt>
      <trkpt lat="48.56845" lon="-4.66156">
        <ele>9.4</ele>
        <time>2025-09-25T10:24:21Z</time>
      </trkpt>
      <trkpt lat="48.56848" lon="-4.66173">
        <ele>9.4</ele>
        <time>2025-09-25T10:24:24Z</time>
      </trkpt>
      <trkpt lat="48.5685" lon="-4.66191">
        <ele>9</ele>
        <time>2025-09-25T10:24:27Z</time>
      </trkpt>
      <trkpt lat="48.56851" lon="-4.66197">
        <ele>8.8</ele>
        <time>2025-09-25T10:24:28Z</time>
      </trkpt>
      <trkpt lat="48.56856" lon="-4.66251">
        <ele>8.6</ele>
        <time>2025-09-25T10:24:36Z</time>
      </trkpt>
      <trkpt lat="48.56856" lon="-4.66309">
        <ele>7.8</ele>
        <time>2025-09-25T10:24:43Z</time>
      </trkpt>
      <trkpt lat="48.56852" lon="-4.66348">
        <ele>7.8</ele>
        <time>2025-09-25T10:24:48Z</time>
      </trkpt>
      <trkpt lat="48.56848" lon="-4.66378">
        <ele>7.8</ele>
        <time>2025-09-25T10:24:52Z</time>
      </trkpt>
      <trkpt lat="48.56846" lon="-4.66392">
        <ele>8</ele>
        <time>2025-09-25T10:24:54Z</time>
      </trkpt>
      <trkpt lat="48.56845" lon="-4.66399">
        <ele>8</ele>
        <time>2025-09-25T10:24:55Z</time>
      </trkpt>
      <trkpt lat="48.56843" lon="-4.66406">
        <ele>8.2</ele>
        <time>2025-09-25T10:24:56Z</time>
      </trkpt>
      <trkpt lat="48.56842" lon="-4.66413">
        <ele>8.2</ele>
        <time>2025-09-25T10:24:57Z</time>
      </trkpt>
      <trkpt lat="48.56838" lon="-4.66427">
        <ele>8.2</ele>
        <time>2025-09-25T10:24:59Z</time>
      </trkpt>
      <trkpt lat="48.56834" lon="-4.6644">
        <ele>8</ele>
        <time>2025-09-25T10:25:01Z</time>
      </trkpt>
      <trkpt lat="48.56832" lon="-4.66447">
        <ele>8</ele>
        <time>2025-09-25T10:25:02Z</time>
      </trkpt>
      <trkpt lat="48.56813" lon="-4.66506">
        <ele>7.8</ele>
        <time>2025-09-25T10:25:11Z</time>
      </trkpt>
      <trkpt lat="48.56791" lon="-4.66578">
        <ele>8</ele>
        <time>2025-09-25T10:25:22Z</time>
      </trkpt>
      <trkpt lat="48.56772" lon="-4.66642">
        <ele>8.2</ele>
        <time>2025-09-25T10:25:32Z</time>
      </trkpt>
      <trkpt lat="48.56756" lon="-4.66694">
        <ele>8</ele>
        <time>2025-09-25T10:25:40Z</time>
      </trkpt>
      <trkpt lat="48.56749" lon="-4.66714">
        <ele>8</ele>
        <time>2025-09-25T10:25:43Z</time>
      </trkpt>
      <trkpt lat="48.56743" lon="-4.66732">
        <ele>8.2</ele>
        <time>2025-09-25T10:25:46Z</time>
      </trkpt>
      <trkpt lat="48.56732" lon="-4.66767">
        <ele>8.6</ele>
        <time>2025-09-25T10:25:52Z</time>
      </trkpt>
      <trkpt lat="48.56715" lon="-4.6682">
        <ele>8.6</ele>
        <time>2025-09-25T10:26:01Z</time>
      </trkpt>
      <trkpt lat="48.56711" lon="-4.66832">
        <ele>8.6</ele>
        <time>2025-09-25T10:26:03Z</time>
      </trkpt>
      <trkpt lat="48.56705" lon="-4.6685">
        <ele>8.6</ele>
        <time>2025-09-25T10:26:06Z</time>
      </trkpt>
      <trkpt lat="48.56692" lon="-4.66892">
        <ele>8.8</ele>
        <time>2025-09-25T10:26:13Z</time>
      </trkpt>
      <trkpt lat="48.56685" lon="-4.66917">
        <ele>8.8</ele>
        <time>2025-09-25T10:26:17Z</time>
      </trkpt>
      <trkpt lat="48.56674" lon="-4.66957">
        <ele>9</ele>
        <time>2025-09-25T10:26:24Z</time>
      </trkpt>
      <trkpt lat="48.5667" lon="-4.66967">
        <ele>9</ele>
        <time>2025-09-25T10:26:26Z</time>
      </trkpt>
      <trkpt lat="48.56658" lon="-4.67004">
        <ele>10</ele>
        <time>2025-09-25T10:26:33Z</time>
      </trkpt>
      <trkpt lat="48.56651" lon="-4.67025">
        <ele>9.8</ele>
        <time>2025-09-25T10:26:37Z</time>
      </trkpt>
      <trkpt lat="48.56636" lon="-4.67075">
        <ele>10</ele>
        <time>2025-09-25T10:26:47Z</time>
      </trkpt>
      <trkpt lat="48.5663" lon="-4.67096">
        <ele>10.2</ele>
        <time>2025-09-25T10:26:51Z</time>
      </trkpt>
      <trkpt lat="48.5662" lon="-4.67129">
        <ele>10.6</ele>
        <time>2025-09-25T10:26:58Z</time>
      </trkpt>
      <trkpt lat="48.56607" lon="-4.67179">
        <ele>11</ele>
        <time>2025-09-25T10:27:08Z</time>
      </trkpt>
      <trkpt lat="48.56606" lon="-4.67185">
        <ele>11</ele>
        <time>2025-09-25T10:27:09Z</time>
      </trkpt>
      <trkpt lat="48.56596" lon="-4.6723">
        <ele>11.6</ele>
        <time>2025-09-25T10:27:18Z</time>
      </trkpt>
      <trkpt lat="48.56588" lon="-4.67276">
        <ele>11.6</ele>
        <time>2025-09-25T10:27:27Z</time>
      </trkpt>
      <trkpt lat="48.56586" lon="-4.67287">
        <ele>11.6</ele>
        <time>2025-09-25T10:27:29Z</time>
      </trkpt>
      <trkpt lat="48.56582" lon="-4.67315">
        <ele>11.6</ele>
        <time>2025-09-25T10:27:34Z</time>
      </trkpt>
      <trkpt lat="48.56578" lon="-4.67351">
        <ele>11.4</ele>
        <time>2025-09-25T10:27:40Z</time>
      </trkpt>
      <trkpt lat="48.56576" lon="-4.67362">
        <ele>11.2</ele>
        <time>2025-09-25T10:27:42Z</time>
      </trkpt>
      <trkpt lat="48.56575" lon="-4.67368">
        <ele>11.2</ele>
        <time>2025-09-25T10:27:43Z</time>
      </trkpt>
      <trkpt lat="48.56572" lon="-4.67379">
        <ele>11.2</ele>
        <time>2025-09-25T10:27:45Z</time>
      </trkpt>
      <trkpt lat="48.56565" lon="-4.67401">
        <ele>11</ele>
        <time>2025-09-25T10:27:49Z</time>
      </trkpt>
      <trkpt lat="48.56564" lon="-4.67406">
        <ele>11</ele>
        <time>2025-09-25T10:27:50Z</time>
      </trkpt>
      <trkpt lat="48.56562" lon="-4.67418">
        <ele>10.8</ele>
        <time>2025-09-25T10:27:52Z</time>
      </trkpt>
      <trkpt lat="48.56563" lon="-4.67444">
        <ele>10.8</ele>
        <time>2025-09-25T10:27:56Z</time>
      </trkpt>
      <trkpt lat="48.56562" lon="-4.67451">
        <ele>10.8</ele>
        <time>2025-09-25T10:27:57Z</time>
      </trkpt>
      <trkpt lat="48.56557" lon="-4.67485">
        <ele>9.8</ele>
        <time>2025-09-25T10:28:02Z</time>
      </trkpt>
      <trkpt lat="48.56547" lon="-4.67556">
        <ele>9</ele>
        <time>2025-09-25T10:28:12Z</time>
      </trkpt>
      <trkpt lat="48.56545" lon="-4.67571">
        <ele>8.8</ele>
        <time>2025-09-25T10:28:14Z</time>
      </trkpt>
      <trkpt lat="48.56537" lon="-4.67639">
        <ele>8.4</ele>
        <time>2025-09-25T10:28:23Z</time>
      </trkpt>
      <trkpt lat="48.56534" lon="-4.67674">
        <ele>8.2</ele>
        <time>2025-09-25T10:28:28Z</time>
      </trkpt>
      <trkpt lat="48.56533" lon="-4.67693">
        <ele>8.2</ele>
        <time>2025-09-25T10:28:31Z</time>
      </trkpt>
      <trkpt lat="48.56533" lon="-4.67699">
        <ele>8.2</ele>
        <time>2025-09-25T10:28:32Z</time>
      </trkpt>
      <trkpt lat="48.56533" lon="-4.6774">
        <ele>8.4</ele>
        <time>2025-09-25T10:28:38Z</time>
      </trkpt>
      <trkpt lat="48.56534" lon="-4.67755">
        <ele>8.4</ele>
        <time>2025-09-25T10:28:40Z</time>
      </trkpt>
      <trkpt lat="48.56539" lon="-4.67817">
        <ele>8.6</ele>
        <time>2025-09-25T10:28:49Z</time>
      </trkpt>
      <trkpt lat="48.56547" lon="-4.67867">
        <ele>8.6</ele>
        <time>2025-09-25T10:28:57Z</time>
      </trkpt>
      <trkpt lat="48.56556" lon="-4.67922">
        <ele>7.8</ele>
        <time>2025-09-25T10:29:05Z</time>
      </trkpt>
      <trkpt lat="48.56564" lon="-4.67978">
        <ele>7.8</ele>
        <time>2025-09-25T10:29:13Z</time>
      </trkpt>
      <trkpt lat="48.56564" lon="-4.67992">
        <ele>7.8</ele>
        <time>2025-09-25T10:29:15Z</time>
      </trkpt>
      <trkpt lat="48.56563" lon="-4.68012">
        <ele>8</ele>
        <time>2025-09-25T10:29:18Z</time>
      </trkpt>
      <trkpt lat="48.56564" lon="-4.68025">
        <ele>8</ele>
        <time>2025-09-25T10:29:20Z</time>
      </trkpt>
      <trkpt lat="48.56566" lon="-4.68031">
        <ele>7.8</ele>
        <time>2025-09-25T10:29:21Z</time>
      </trkpt>
      <trkpt lat="48.56574" lon="-4.68056">
        <ele>7.4</ele>
        <time>2025-09-25T10:29:25Z</time>
      </trkpt>
      <trkpt lat="48.56576" lon="-4.68069">
        <ele>7.8</ele>
        <time>2025-09-25T10:29:27Z</time>
      </trkpt>
      <trkpt lat="48.56584" lon="-4.68117">
        <ele>7.8</ele>
        <time>2025-09-25T10:29:35Z</time>
      </trkpt>
      <trkpt lat="48.56595" lon="-4.6819">
        <ele>7.4</ele>
        <time>2025-09-25T10:29:46Z</time>
      </trkpt>
      <trkpt lat="48.56604" lon="-4.6824">
        <ele>7.2</ele>
        <time>2025-09-25T10:29:53Z</time>
      </trkpt>
      <trkpt lat="48.56605" lon="-4.68255">
        <ele>7.6</ele>
        <time>2025-09-25T10:29:55Z</time>
      </trkpt>
      <trkpt lat="48.56617" lon="-4.68324">
        <ele>7.2</ele>
        <time>2025-09-25T10:30:04Z</time>
      </trkpt>
      <trkpt lat="48.56626" lon="-4.68384">
        <ele>7.2</ele>
        <time>2025-09-25T10:30:12Z</time>
      </trkpt>
      <trkpt lat="48.56628" lon="-4.68398">
        <ele>7.4</ele>
        <time>2025-09-25T10:30:14Z</time>
      </trkpt>
      <trkpt lat="48.56631" lon="-4.68418">
        <ele>7.2</ele>
        <time>2025-09-25T10:30:17Z</time>
      </trkpt>
      <trkpt lat="48.5664" lon="-4.68474">
        <ele>8.2</ele>
        <time>2025-09-25T10:30:25Z</time>
      </trkpt>
      <trkpt lat="48.5665" lon="-4.68516">
        <ele>8.2</ele>
        <time>2025-09-25T10:30:31Z</time>
      </trkpt>
      <trkpt lat="48.56657" lon="-4.68536">
        <ele>8.4</ele>
        <time>2025-09-25T10:30:34Z</time>
      </trkpt>
      <trkpt lat="48.56679" lon="-4.68575">
        <ele>8.8</ele>
        <time>2025-09-25T10:30:41Z</time>
      </trkpt>
      <trkpt lat="48.56697" lon="-4.68596">
        <ele>9.4</ele>
        <time>2025-09-25T10:30:46Z</time>
      </trkpt>
      <trkpt lat="48.56712" lon="-4.6861">
        <ele>9</ele>
        <time>2025-09-25T10:30:50Z</time>
      </trkpt>
      <trkpt lat="48.56755" lon="-4.68645">
        <ele>9.8</ele>
        <time>2025-09-25T10:31:01Z</time>
      </trkpt>
      <trkpt lat="48.56789" lon="-4.6867">
        <ele>8</ele>
        <time>2025-09-25T10:31:09Z</time>
      </trkpt>
      <trkpt lat="48.56822" lon="-4.6869">
        <ele>8.6</ele>
        <time>2025-09-25T10:31:17Z</time>
      </trkpt>
      <trkpt lat="48.56826" lon="-4.68692">
        <ele>8.4</ele>
        <time>2025-09-25T10:31:18Z</time>
      </trkpt>
      <trkpt lat="48.56869" lon="-4.68714">
        <ele>8.6</ele>
        <time>2025-09-25T10:31:29Z</time>
      </trkpt>
      <trkpt lat="48.56898" lon="-4.6873">
        <ele>9.4</ele>
        <time>2025-09-25T10:31:38Z</time>
      </trkpt>
      <trkpt lat="48.56923" lon="-4.68751">
        <ele>9.8</ele>
        <time>2025-09-25T10:31:46Z</time>
      </trkpt>
      <trkpt lat="48.56936" lon="-4.68766">
        <ele>10</ele>
        <time>2025-09-25T10:31:50Z</time>
      </trkpt>
      <trkpt lat="48.56943" lon="-4.68776">
        <ele>10.2</ele>
        <time>2025-09-25T10:31:53Z</time>
      </trkpt>
      <trkpt lat="48.56947" lon="-4.68783">
        <ele>10.4</ele>
        <time>2025-09-25T10:31:55Z</time>
      </trkpt>
      <trkpt lat="48.56955" lon="-4.68798">
        <ele>10.6</ele>
        <time>2025-09-25T10:31:59Z</time>
      </trkpt>
      <trkpt lat="48.56961" lon="-4.6881">
        <ele>10.8</ele>
        <time>2025-09-25T10:32:02Z</time>
      </trkpt>
      <trkpt lat="48.56975" lon="-4.68851">
        <ele>11</ele>
        <time>2025-09-25T10:32:12Z</time>
      </trkpt>
      <trkpt lat="48.56984" lon="-4.68889">
        <ele>11.4</ele>
        <time>2025-09-25T10:32:22Z</time>
      </trkpt>
      <trkpt lat="48.56988" lon="-4.68926">
        <ele>11.6</ele>
        <time>2025-09-25T10:32:30Z</time>
      </trkpt>
      <trkpt lat="48.5699" lon="-4.68962">
        <ele>12</ele>
        <time>2025-09-25T10:32:38Z</time>
      </trkpt>
      <trkpt lat="48.56985" lon="-4.69006">
        <ele>12</ele>
        <time>2025-09-25T10:32:47Z</time>
      </trkpt>
      <trkpt lat="48.56978" lon="-4.69043">
        <ele>12.2</ele>
        <time>2025-09-25T10:32:54Z</time>
      </trkpt>
      <trkpt lat="48.56975" lon="-4.69054">
        <ele>12</ele>
        <time>2025-09-25T10:32:56Z</time>
      </trkpt>
      <trkpt lat="48.56974" lon="-4.6906">
        <ele>12</ele>
        <time>2025-09-25T10:32:57Z</time>
      </trkpt>
      <trkpt lat="48.5696" lon="-4.69117">
        <ele>12.2</ele>
        <time>2025-09-25T10:33:07Z</time>
      </trkpt>
      <trkpt lat="48.5695" lon="-4.69161">
        <ele>12.4</ele>
        <time>2025-09-25T10:33:14Z</time>
      </trkpt>
      <trkpt lat="48.56946" lon="-4.6918">
        <ele>12.6</ele>
        <time>2025-09-25T10:33:17Z</time>
      </trkpt>
      <trkpt lat="48.56934" lon="-4.69225">
        <ele>12</ele>
        <time>2025-09-25T10:33:24Z</time>
      </trkpt>
      <trkpt lat="48.56927" lon="-4.69258">
        <ele>12</ele>
        <time>2025-09-25T10:33:29Z</time>
      </trkpt>
      <trkpt lat="48.56911" lon="-4.69326">
        <ele>11.8</ele>
        <time>2025-09-25T10:33:39Z</time>
      </trkpt>
      <trkpt lat="48.56908" lon="-4.6934">
        <ele>11.8</ele>
        <time>2025-09-25T10:33:41Z</time>
      </trkpt>
      <trkpt lat="48.56903" lon="-4.69385">
        <ele>11.4</ele>
        <time>2025-09-25T10:33:47Z</time>
      </trkpt>
      <trkpt lat="48.56904" lon="-4.69421">
        <ele>11</ele>
        <time>2025-09-25T10:33:52Z</time>
      </trkpt>
      <trkpt lat="48.56907" lon="-4.69444">
        <ele>10.8</ele>
        <time>2025-09-25T10:33:55Z</time>
      </trkpt>
      <trkpt lat="48.56912" lon="-4.69473">
        <ele>10.8</ele>
        <time>2025-09-25T10:33:59Z</time>
      </trkpt>
      <trkpt lat="48.56921" lon="-4.69509">
        <ele>10.4</ele>
        <time>2025-09-25T10:34:04Z</time>
      </trkpt>
      <trkpt lat="48.5694" lon="-4.69565">
        <ele>10.4</ele>
        <time>2025-09-25T10:34:12Z</time>
      </trkpt>
      <trkpt lat="48.56965" lon="-4.69614">
        <ele>10.6</ele>
        <time>2025-09-25T10:34:20Z</time>
      </trkpt>
      <trkpt lat="48.56987" lon="-4.69662">
        <ele>9.8</ele>
        <time>2025-09-25T10:34:28Z</time>
      </trkpt>
      <trkpt lat="48.5699" lon="-4.69669">
        <ele>9.8</ele>
        <time>2025-09-25T10:34:29Z</time>
      </trkpt>
      <trkpt lat="48.57006" lon="-4.69705">
        <ele>10</ele>
        <time>2025-09-25T10:34:35Z</time>
      </trkpt>
      <trkpt lat="48.57008" lon="-4.69711">
        <ele>9.8</ele>
        <time>2025-09-25T10:34:36Z</time>
      </trkpt>
      <trkpt lat="48.57011" lon="-4.69723">
        <ele>9.8</ele>
        <time>2025-09-25T10:34:38Z</time>
      </trkpt>
      <trkpt lat="48.57016" lon="-4.69754">
        <ele>11</ele>
        <time>2025-09-25T10:34:43Z</time>
      </trkpt>
      <trkpt lat="48.57016" lon="-4.69767">
        <ele>11.2</ele>
        <time>2025-09-25T10:34:45Z</time>
      </trkpt>
      <trkpt lat="48.57013" lon="-4.69806">
        <ele>12</ele>
        <time>2025-09-25T10:34:51Z</time>
      </trkpt>
      <trkpt lat="48.57012" lon="-4.69812">
        <ele>12</ele>
        <time>2025-09-25T10:34:52Z</time>
      </trkpt>
      <trkpt lat="48.57009" lon="-4.69824">
        <ele>12.2</ele>
        <time>2025-09-25T10:34:54Z</time>
      </trkpt>
      <trkpt lat="48.56998" lon="-4.69857">
        <ele>13</ele>
        <time>2025-09-25T10:35:00Z</time>
      </trkpt>
      <trkpt lat="48.56994" lon="-4.69868">
        <ele>13</ele>
        <time>2025-09-25T10:35:02Z</time>
      </trkpt>
      <trkpt lat="48.56978" lon="-4.69916">
        <ele>13</ele>
        <time>2025-09-25T10:35:10Z</time>
      </trkpt>
      <trkpt lat="48.56963" lon="-4.69957">
        <ele>12.8</ele>
        <time>2025-09-25T10:35:17Z</time>
      </trkpt>
      <trkpt lat="48.56944" lon="-4.70001">
        <ele>12.2</ele>
        <time>2025-09-25T10:35:25Z</time>
      </trkpt>
      <trkpt lat="48.56925" lon="-4.70027">
        <ele>12</ele>
        <time>2025-09-25T10:35:30Z</time>
      </trkpt>
      <trkpt lat="48.56901" lon="-4.70047">
        <ele>11.4</ele>
        <time>2025-09-25T10:35:36Z</time>
      </trkpt>
      <trkpt lat="48.56892" lon="-4.70052">
        <ele>11.2</ele>
        <time>2025-09-25T10:35:38Z</time>
      </trkpt>
      <trkpt lat="48.56872" lon="-4.70059">
        <ele>11</ele>
        <time>2025-09-25T10:35:42Z</time>
      </trkpt>
      <trkpt lat="48.56866" lon="-4.7006">
        <ele>10.8</ele>
        <time>2025-09-25T10:35:43Z</time>
      </trkpt>
      <trkpt lat="48.56839" lon="-4.70056">
        <ele>10.6</ele>
        <time>2025-09-25T10:35:48Z</time>
      </trkpt>
      <trkpt lat="48.56823" lon="-4.70048">
        <ele>10</ele>
        <time>2025-09-25T10:35:51Z</time>
      </trkpt>
      <trkpt lat="48.56813" lon="-4.70041">
        <ele>9.6</ele>
        <time>2025-09-25T10:35:53Z</time>
      </trkpt>
      <trkpt lat="48.56808" lon="-4.70037">
        <ele>9.6</ele>
        <time>2025-09-25T10:35:54Z</time>
      </trkpt>
      <trkpt lat="48.56769" lon="-4.70003">
        <ele>8.6</ele>
        <time>2025-09-25T10:36:02Z</time>
      </trkpt>
      <trkpt lat="48.56759" lon="-4.69994">
        <ele>8.2</ele>
        <time>2025-09-25T10:36:04Z</time>
      </trkpt>
      <trkpt lat="48.56737" lon="-4.69975">
        <ele>8.8</ele>
        <time>2025-09-25T10:36:09Z</time>
      </trkpt>
      <trkpt lat="48.56733" lon="-4.69972">
        <ele>8.6</ele>
        <time>2025-09-25T10:36:10Z</time>
      </trkpt>
      <trkpt lat="48.56729" lon="-4.69968">
        <ele>8.6</ele>
        <time>2025-09-25T10:36:11Z</time>
      </trkpt>
      <trkpt lat="48.56725" lon="-4.69965">
        <ele>8.6</ele>
        <time>2025-09-25T10:36:12Z</time>
      </trkpt>
      <trkpt lat="48.56721" lon="-4.69962">
        <ele>8.6</ele>
        <time>2025-09-25T10:36:13Z</time>
      </trkpt>
      <trkpt lat="48.56686" lon="-4.69931">
        <ele>8.8</ele>
        <time>2025-09-25T10:36:22Z</time>
      </trkpt>
      <trkpt lat="48.56673" lon="-4.69921">
        <ele>8.6</ele>
        <time>2025-09-25T10:36:25Z</time>
      </trkpt>
      <trkpt lat="48.56662" lon="-4.6991">
        <ele>9</ele>
        <time>2025-09-25T10:36:28Z</time>
      </trkpt>
      <trkpt lat="48.56654" lon="-4.69903">
        <ele>9.4</ele>
        <time>2025-09-25T10:36:30Z</time>
      </trkpt>
      <trkpt lat="48.5665" lon="-4.699">
        <ele>9.6</ele>
        <time>2025-09-25T10:36:31Z</time>
      </trkpt>
      <trkpt lat="48.56646" lon="-4.69897">
        <ele>9.8</ele>
        <time>2025-09-25T10:36:32Z</time>
      </trkpt>
      <trkpt lat="48.56642" lon="-4.69893">
        <ele>10</ele>
        <time>2025-09-25T10:36:33Z</time>
      </trkpt>
      <trkpt lat="48.56609" lon="-4.69863">
        <ele>10.2</ele>
        <time>2025-09-25T10:36:42Z</time>
      </trkpt>
      <trkpt lat="48.56606" lon="-4.69859">
        <ele>10.2</ele>
        <time>2025-09-25T10:36:43Z</time>
      </trkpt>
      <trkpt lat="48.56587" lon="-4.69839">
        <ele>9.8</ele>
        <time>2025-09-25T10:36:48Z</time>
      </trkpt>
      <trkpt lat="48.56563" lon="-4.69815">
        <ele>9.4</ele>
        <time>2025-09-25T10:36:54Z</time>
      </trkpt>
      <trkpt lat="48.56535" lon="-4.69789">
        <ele>8.8</ele>
        <time>2025-09-25T10:37:01Z</time>
      </trkpt>
      <trkpt lat="48.56517" lon="-4.69771">
        <ele>8.8</ele>
        <time>2025-09-25T10:37:07Z</time>
      </trkpt>
      <trkpt lat="48.56505" lon="-4.69751">
        <ele>8.8</ele>
        <time>2025-09-25T10:37:12Z</time>
      </trkpt>
      <trkpt lat="48.56502" lon="-4.69749">
        <ele>9</ele>
        <time>2025-09-25T10:37:13Z</time>
      </trkpt>
      <trkpt lat="48.56489" lon="-4.69751">
        <ele>9.8</ele>
        <time>2025-09-25T10:37:17Z</time>
      </trkpt>
      <trkpt lat="48.56456" lon="-4.69752">
        <ele>9.8</ele>
        <time>2025-09-25T10:37:26Z</time>
      </trkpt>
      <trkpt lat="48.56438" lon="-4.69753">
        <ele>10</ele>
        <time>2025-09-25T10:37:31Z</time>
      </trkpt>
      <trkpt lat="48.56418" lon="-4.69752">
        <ele>10</ele>
        <time>2025-09-25T10:37:36Z</time>
      </trkpt>
      <trkpt lat="48.56408" lon="-4.69758">
        <ele>10</ele>
        <time>2025-09-25T10:37:39Z</time>
      </trkpt>
      <trkpt lat="48.56406" lon="-4.69763">
        <ele>10</ele>
        <time>2025-09-25T10:37:40Z</time>
      </trkpt>
      <trkpt lat="48.56405" lon="-4.69775">
        <ele>9.8</ele>
        <time>2025-09-25T10:37:42Z</time>
      </trkpt>
      <trkpt lat="48.56406" lon="-4.69788">
        <ele>9.2</ele>
        <time>2025-09-25T10:37:44Z</time>
      </trkpt>
      <trkpt lat="48.56408" lon="-4.69848">
        <ele>9.4</ele>
        <time>2025-09-25T10:37:53Z</time>
      </trkpt>
      <trkpt lat="48.56406" lon="-4.69898">
        <ele>9</ele>
        <time>2025-09-25T10:38:01Z</time>
      </trkpt>
      <trkpt lat="48.56399" lon="-4.69904">
        <ele>9</ele>
        <time>2025-09-25T10:38:03Z</time>
      </trkpt>
      <trkpt lat="48.56395" lon="-4.69905">
        <ele>8.8</ele>
        <time>2025-09-25T10:38:04Z</time>
      </trkpt>
      <trkpt lat="48.56372" lon="-4.69907">
        <ele>9</ele>
        <time>2025-09-25T10:38:10Z</time>
      </trkpt>
      <trkpt lat="48.56342" lon="-4.69908">
        <ele>9</ele>
        <time>2025-09-25T10:38:17Z</time>
      </trkpt>
      <trkpt lat="48.56333" lon="-4.69908">
        <ele>9</ele>
        <time>2025-09-25T10:38:19Z</time>
      </trkpt>
      <trkpt lat="48.56311" lon="-4.69908">
        <ele>9.4</ele>
        <time>2025-09-25T10:38:24Z</time>
      </trkpt>
      <trkpt lat="48.56277" lon="-4.69912">
        <ele>9.8</ele>
        <time>2025-09-25T10:38:32Z</time>
      </trkpt>
      <trkpt lat="48.56269" lon="-4.69912">
        <ele>9.8</ele>
        <time>2025-09-25T10:38:34Z</time>
      </trkpt>
      <trkpt lat="48.56265" lon="-4.69912">
        <ele>9.8</ele>
        <time>2025-09-25T10:38:35Z</time>
      </trkpt>
      <trkpt lat="48.56261" lon="-4.69912">
        <ele>9.8</ele>
        <time>2025-09-25T10:38:36Z</time>
      </trkpt>
      <trkpt lat="48.56246" lon="-4.6991">
        <ele>9.8</ele>
        <time>2025-09-25T10:38:40Z</time>
      </trkpt>
      <trkpt lat="48.56219" lon="-4.69911">
        <ele>10</ele>
        <time>2025-09-25T10:38:48Z</time>
      </trkpt>
      <trkpt lat="48.56199" lon="-4.6991">
        <ele>10</ele>
        <time>2025-09-25T10:38:54Z</time>
      </trkpt>
      <trkpt lat="48.56196" lon="-4.69912">
        <ele>10</ele>
        <time>2025-09-25T10:38:55Z</time>
      </trkpt>
      <trkpt lat="48.56181" lon="-4.6993">
        <ele>9.8</ele>
        <time>2025-09-25T10:39:00Z</time>
      </trkpt>
      <trkpt lat="48.56164" lon="-4.6997">
        <ele>9.4</ele>
        <time>2025-09-25T10:39:07Z</time>
      </trkpt>
      <trkpt lat="48.56159" lon="-4.69979">
        <ele>9.6</ele>
        <time>2025-09-25T10:39:09Z</time>
      </trkpt>
      <trkpt lat="48.56156" lon="-4.69982">
        <ele>9.6</ele>
        <time>2025-09-25T10:39:10Z</time>
      </trkpt>
      <trkpt lat="48.56152" lon="-4.69985">
        <ele>9.8</ele>
        <time>2025-09-25T10:39:11Z</time>
      </trkpt>
      <trkpt lat="48.56149" lon="-4.69989">
        <ele>9.8</ele>
        <time>2025-09-25T10:39:12Z</time>
      </trkpt>
      <trkpt lat="48.56146" lon="-4.69992">
        <ele>9.8</ele>
        <time>2025-09-25T10:39:13Z</time>
      </trkpt>
      <trkpt lat="48.56139" lon="-4.69999">
        <ele>9.4</ele>
        <time>2025-09-25T10:39:15Z</time>
      </trkpt>
      <trkpt lat="48.56111" lon="-4.70025">
        <ele>9</ele>
        <time>2025-09-25T10:39:22Z</time>
      </trkpt>
      <trkpt lat="48.56085" lon="-4.70055">
        <ele>9.2</ele>
        <time>2025-09-25T10:39:29Z</time>
      </trkpt>
      <trkpt lat="48.56069" lon="-4.70097">
        <ele>9.4</ele>
        <time>2025-09-25T10:39:36Z</time>
      </trkpt>
      <trkpt lat="48.56063" lon="-4.70132">
        <ele>9.8</ele>
        <time>2025-09-25T10:39:42Z</time>
      </trkpt>
      <trkpt lat="48.56057" lon="-4.70178">
        <ele>10.2</ele>
        <time>2025-09-25T10:39:50Z</time>
      </trkpt>
      <trkpt lat="48.56054" lon="-4.70189">
        <ele>10.4</ele>
        <time>2025-09-25T10:39:52Z</time>
      </trkpt>
      <trkpt lat="48.56049" lon="-4.70212">
        <ele>10.4</ele>
        <time>2025-09-25T10:39:56Z</time>
      </trkpt>
      <trkpt lat="48.56043" lon="-4.70222">
        <ele>10.4</ele>
        <time>2025-09-25T10:39:58Z</time>
      </trkpt>
      <trkpt lat="48.56035" lon="-4.70229">
        <ele>10.2</ele>
        <time>2025-09-25T10:40:00Z</time>
      </trkpt>
      <trkpt lat="48.56027" lon="-4.70231">
        <ele>10.4</ele>
        <time>2025-09-25T10:40:02Z</time>
      </trkpt>
      <trkpt lat="48.56016" lon="-4.70227">
        <ele>10.8</ele>
        <time>2025-09-25T10:40:05Z</time>
      </trkpt>
      <trkpt lat="48.56009" lon="-4.70224">
        <ele>11</ele>
        <time>2025-09-25T10:40:07Z</time>
      </trkpt>
      <trkpt lat="48.55988" lon="-4.70213">
        <ele>11.8</ele>
        <time>2025-09-25T10:40:13Z</time>
      </trkpt>
      <trkpt lat="48.55981" lon="-4.7021">
        <ele>12.2</ele>
        <time>2025-09-25T10:40:15Z</time>
      </trkpt>
      <trkpt lat="48.55959" lon="-4.70199">
        <ele>12.6</ele>
        <time>2025-09-25T10:40:21Z</time>
      </trkpt>
      <trkpt lat="48.55937" lon="-4.70188">
        <ele>12.8</ele>
        <time>2025-09-25T10:40:27Z</time>
      </trkpt>
      <trkpt lat="48.55933" lon="-4.70188">
        <ele>13</ele>
        <time>2025-09-25T10:40:28Z</time>
      </trkpt>
      <trkpt lat="48.55909" lon="-4.70184">
        <ele>13.8</ele>
        <time>2025-09-25T10:40:35Z</time>
      </trkpt>
      <trkpt lat="48.55899" lon="-4.7019">
        <ele>14</ele>
        <time>2025-09-25T10:40:38Z</time>
      </trkpt>
      <trkpt lat="48.55897" lon="-4.70194">
        <ele>14</ele>
        <time>2025-09-25T10:40:39Z</time>
      </trkpt>
      <trkpt lat="48.55892" lon="-4.70209">
        <ele>15</ele>
        <time>2025-09-25T10:40:43Z</time>
      </trkpt>
      <trkpt lat="48.55892" lon="-4.70213">
        <ele>15.2</ele>
        <time>2025-09-25T10:40:44Z</time>
      </trkpt>
      <trkpt lat="48.5589" lon="-4.70236">
        <ele>15.8</ele>
        <time>2025-09-25T10:40:50Z</time>
      </trkpt>
      <trkpt lat="48.55882" lon="-4.70257">
        <ele>15.8</ele>
        <time>2025-09-25T10:40:56Z</time>
      </trkpt>
      <trkpt lat="48.55877" lon="-4.70265">
        <ele>16</ele>
        <time>2025-09-25T10:40:59Z</time>
      </trkpt>
      <trkpt lat="48.55868" lon="-4.70277">
        <ele>16.8</ele>
        <time>2025-09-25T10:41:04Z</time>
      </trkpt>
      <trkpt lat="48.55862" lon="-4.70296">
        <ele>17</ele>
        <time>2025-09-25T10:41:10Z</time>
      </trkpt>
      <trkpt lat="48.55858" lon="-4.70307">
        <ele>17</ele>
        <time>2025-09-25T10:41:13Z</time>
      </trkpt>
      <trkpt lat="48.55851" lon="-4.70317">
        <ele>17.2</ele>
        <time>2025-09-25T10:41:17Z</time>
      </trkpt>
      <trkpt lat="48.55846" lon="-4.7032">
        <ele>17.4</ele>
        <time>2025-09-25T10:41:19Z</time>
      </trkpt>
      <trkpt lat="48.55839" lon="-4.70322">
        <ele>17.4</ele>
        <time>2025-09-25T10:41:22Z</time>
      </trkpt>
      <trkpt lat="48.55837" lon="-4.70323">
        <ele>17.2</ele>
        <time>2025-09-25T10:41:23Z</time>
      </trkpt>
      <trkpt lat="48.55815" lon="-4.70326">
        <ele>16.6</ele>
        <time>2025-09-25T10:41:30Z</time>
      </trkpt>
      <trkpt lat="48.55806" lon="-4.70329">
        <ele>16</ele>
        <time>2025-09-25T10:41:33Z</time>
      </trkpt>
      <trkpt lat="48.55795" lon="-4.70337">
        <ele>14.8</ele>
        <time>2025-09-25T10:41:37Z</time>
      </trkpt>
      <trkpt lat="48.55786" lon="-4.70344">
        <ele>13.6</ele>
        <time>2025-09-25T10:41:41Z</time>
      </trkpt>
      <trkpt lat="48.55779" lon="-4.70347">
        <ele>12.8</ele>
        <time>2025-09-25T10:41:44Z</time>
      </trkpt>
      <trkpt lat="48.55776" lon="-4.70347">
        <ele>12.4</ele>
        <time>2025-09-25T10:41:45Z</time>
      </trkpt>
      <trkpt lat="48.5577" lon="-4.70349">
        <ele>11.2</ele>
        <time>2025-09-25T10:41:48Z</time>
      </trkpt>
      <trkpt lat="48.55766" lon="-4.70349">
        <ele>10.6</ele>
        <time>2025-09-25T10:41:51Z</time>
      </trkpt>
      <trkpt lat="48.55766" lon="-4.70349">
        <ele>10.4</ele>
        <time>2025-09-25T10:41:53Z</time>
      </trkpt>
      <trkpt lat="48.55767" lon="-4.70348">
        <ele>10.4</ele>
        <time>2025-09-25T10:42:10Z</time>
      </trkpt>
      <trkpt lat="48.55764" lon="-4.70351">
        <ele>10.4</ele>
        <time>2025-09-25T10:42:12Z</time>
      </trkpt>
      <trkpt lat="48.5576" lon="-4.70365">
        <ele>10.4</ele>
        <time>2025-09-25T10:42:17Z</time>
      </trkpt>
      <trkpt lat="48.55758" lon="-4.70373">
        <ele>10.2</ele>
        <time>2025-09-25T10:42:19Z</time>
      </trkpt>
      <trkpt lat="48.55753" lon="-4.70395">
        <ele>9.6</ele>
        <time>2025-09-25T10:42:24Z</time>
      </trkpt>
      <trkpt lat="48.55751" lon="-4.70412">
        <ele>9.2</ele>
        <time>2025-09-25T10:42:27Z</time>
      </trkpt>
      <trkpt lat="48.55749" lon="-4.70439">
        <ele>8.6</ele>
        <time>2025-09-25T10:42:31Z</time>
      </trkpt>
      <trkpt lat="48.55748" lon="-4.70453">
        <ele>8</ele>
        <time>2025-09-25T10:42:33Z</time>
      </trkpt>
      <trkpt lat="48.55747" lon="-4.70477">
        <ele>7.4</ele>
        <time>2025-09-25T10:42:37Z</time>
      </trkpt>
      <trkpt lat="48.55745" lon="-4.70495">
        <ele>6.8</ele>
        <time>2025-09-25T10:42:40Z</time>
      </trkpt>
      <trkpt lat="48.55745" lon="-4.70517">
        <ele>6.2</ele>
        <time>2025-09-25T10:42:44Z</time>
      </trkpt>
      <trkpt lat="48.55745" lon="-4.70522">
        <ele>6.2</ele>
        <time>2025-09-25T10:42:45Z</time>
      </trkpt>
      <trkpt lat="48.55745" lon="-4.70559">
        <ele>6.8</ele>
        <time>2025-09-25T10:42:53Z</time>
      </trkpt>
      <trkpt lat="48.55744" lon="-4.70571">
        <ele>7</ele>
        <time>2025-09-25T10:42:57Z</time>
      </trkpt>
      <trkpt lat="48.55745" lon="-4.70574">
        <ele>7</ele>
        <time>2025-09-25T10:42:58Z</time>
      </trkpt>
      <trkpt lat="48.55748" lon="-4.70583">
        <ele>7</ele>
        <time>2025-09-25T10:43:02Z</time>
      </trkpt>
      <trkpt lat="48.55752" lon="-4.70588">
        <ele>7</ele>
        <time>2025-09-25T10:43:05Z</time>
      </trkpt>
      <trkpt lat="48.55753" lon="-4.70588">
        <ele>7</ele>
        <time>2025-09-25T10:43:07Z</time>
      </trkpt>
      <trkpt lat="48.55754" lon="-4.70588">
        <ele>7.4</ele>
        <time>2025-09-25T10:45:16Z</time>
      </trkpt>
      <trkpt lat="48.55755" lon="-4.70588">
        <ele>7.4</ele>
        <time>2025-09-25T10:45:17Z</time>
      </trkpt>
      <trkpt lat="48.55758" lon="-4.70593">
        <ele>7.4</ele>
        <time>2025-09-25T10:45:23Z</time>
      </trkpt>
      <trkpt lat="48.55758" lon="-4.70593">
        <ele>7.4</ele>
        <time>2025-09-25T10:45:25Z</time>
      </trkpt>
      <trkpt lat="48.55757" lon="-4.7059">
        <ele>7.4</ele>
        <time>2025-09-25T10:45:47Z</time>
      </trkpt>
      <trkpt lat="48.55758" lon="-4.70588">
        <ele>7.4</ele>
        <time>2025-09-25T10:45:50Z</time>
      </trkpt>
      <trkpt lat="48.55756" lon="-4.70587">
        <ele>7.4</ele>
        <time>2025-09-25T10:45:53Z</time>
      </trkpt>
      <trkpt lat="48.55756" lon="-4.70583">
        <ele>7.4</ele>
        <time>2025-09-25T10:45:58Z</time>
      </trkpt>
      <trkpt lat="48.55756" lon="-4.70581">
        <ele>7.4</ele>
        <time>2025-09-25T10:46:10Z</time>
      </trkpt>
      <trkpt lat="48.55756" lon="-4.70581">
        <ele>7.4</ele>
        <time>2025-09-25T10:46:11Z</time>
      </trkpt>
      <trkpt lat="48.55756" lon="-4.70581">
        <ele>7.4</ele>
        <time>2025-09-25T10:46:12Z</time>
      </trkpt>
      <trkpt lat="48.55758" lon="-4.70588">
        <ele>7.4</ele>
        <time>2025-09-25T10:47:41Z</time>
      </trkpt>
      <trkpt lat="48.55758" lon="-4.70588">
        <ele>7.4</ele>
        <time>2025-09-25T10:47:42Z</time>
      </trkpt>
      <trkpt lat="48.55755" lon="-4.70588">
        <ele>7.4</ele>
        <time>2025-09-25T10:47:46Z</time>
      </trkpt>
      <trkpt lat="48.55755" lon="-4.70588">
        <ele>7.4</ele>
        <time>2025-09-25T10:47:48Z</time>
      </trkpt>
      <trkpt lat="48.55754" lon="-4.70587">
        <ele>7.4</ele>
        <time>2025-09-25T10:48:00Z</time>
      </trkpt>
      <trkpt lat="48.55755" lon="-4.70588">
        <ele>7.4</ele>
        <time>2025-09-25T10:48:02Z</time>
      </trkpt>
      <trkpt lat="48.55755" lon="-4.70586">
        <ele>7.4</ele>
        <time>2025-09-25T10:50:41Z</time>
      </trkpt>
      <trkpt lat="48.5575" lon="-4.70584">
        <ele>7.4</ele>
        <time>2025-09-25T10:50:45Z</time>
      </trkpt>
      <trkpt lat="48.55745" lon="-4.70573">
        <ele>6.8</ele>
        <time>2025-09-25T10:50:50Z</time>
      </trkpt>
      <trkpt lat="48.55743" lon="-4.70556">
        <ele>7.2</ele>
        <time>2025-09-25T10:50:57Z</time>
      </trkpt>
      <trkpt lat="48.55741" lon="-4.70539">
        <ele>7.4</ele>
        <time>2025-09-25T10:51:03Z</time>
      </trkpt>
      <trkpt lat="48.5574" lon="-4.70522">
        <ele>7.2</ele>
        <time>2025-09-25T10:51:08Z</time>
      </trkpt>
      <trkpt lat="48.5574" lon="-4.7051">
        <ele>7.2</ele>
        <time>2025-09-25T10:51:11Z</time>
      </trkpt>
      <trkpt lat="48.5574" lon="-4.70503">
        <ele>7</ele>
        <time>2025-09-25T10:51:13Z</time>
      </trkpt>
      <trkpt lat="48.55743" lon="-4.70474">
        <ele>7</ele>
        <time>2025-09-25T10:51:20Z</time>
      </trkpt>
      <trkpt lat="48.55743" lon="-4.70466">
        <ele>7.2</ele>
        <time>2025-09-25T10:51:22Z</time>
      </trkpt>
      <trkpt lat="48.55745" lon="-4.7045">
        <ele>8</ele>
        <time>2025-09-25T10:51:26Z</time>
      </trkpt>
      <trkpt lat="48.55747" lon="-4.70427">
        <ele>8</ele>
        <time>2025-09-25T10:51:32Z</time>
      </trkpt>
      <trkpt lat="48.5575" lon="-4.70408">
        <ele>9.2</ele>
        <time>2025-09-25T10:51:37Z</time>
      </trkpt>
      <trkpt lat="48.5575" lon="-4.70396">
        <ele>9.6</ele>
        <time>2025-09-25T10:51:40Z</time>
      </trkpt>
      <trkpt lat="48.55753" lon="-4.70377">
        <ele>9.8</ele>
        <time>2025-09-25T10:51:45Z</time>
      </trkpt>
      <trkpt lat="48.55758" lon="-4.70362">
        <ele>10.2</ele>
        <time>2025-09-25T10:51:49Z</time>
      </trkpt>
      <trkpt lat="48.55764" lon="-4.7033">
        <ele>10.6</ele>
        <time>2025-09-25T10:51:57Z</time>
      </trkpt>
      <trkpt lat="48.55764" lon="-4.70296">
        <ele>9.8</ele>
        <time>2025-09-25T10:52:04Z</time>
      </trkpt>
      <trkpt lat="48.55762" lon="-4.70286">
        <ele>9.4</ele>
        <time>2025-09-25T10:52:06Z</time>
      </trkpt>
      <trkpt lat="48.5576" lon="-4.7028">
        <ele>9.2</ele>
        <time>2025-09-25T10:52:07Z</time>
      </trkpt>
      <trkpt lat="48.55754" lon="-4.70269">
        <ele>8.6</ele>
        <time>2025-09-25T10:52:09Z</time>
      </trkpt>
      <trkpt lat="48.55749" lon="-4.70257">
        <ele>8</ele>
        <time>2025-09-25T10:52:11Z</time>
      </trkpt>
      <trkpt lat="48.55739" lon="-4.70232">
        <ele>7.4</ele>
        <time>2025-09-25T10:52:15Z</time>
      </trkpt>
      <trkpt lat="48.55736" lon="-4.70218">
        <ele>6.8</ele>
        <time>2025-09-25T10:52:17Z</time>
      </trkpt>
      <trkpt lat="48.55734" lon="-4.7019">
        <ele>7</ele>
        <time>2025-09-25T10:52:21Z</time>
      </trkpt>
      <trkpt lat="48.55735" lon="-4.70179">
        <ele>7.4</ele>
        <time>2025-09-25T10:52:23Z</time>
      </trkpt>
      <trkpt lat="48.55741" lon="-4.70135">
        <ele>8</ele>
        <time>2025-09-25T10:52:31Z</time>
      </trkpt>
      <trkpt lat="48.55742" lon="-4.70129">
        <ele>8.2</ele>
        <time>2025-09-25T10:52:32Z</time>
      </trkpt>
      <trkpt lat="48.55747" lon="-4.70082">
        <ele>7.8</ele>
        <time>2025-09-25T10:52:41Z</time>
      </trkpt>
      <trkpt lat="48.55742" lon="-4.70049">
        <ele>8.4</ele>
        <time>2025-09-25T10:52:48Z</time>
      </trkpt>
      <trkpt lat="48.5573" lon="-4.7002">
        <ele>8.4</ele>
        <time>2025-09-25T10:52:55Z</time>
      </trkpt>
      <trkpt lat="48.55712" lon="-4.69997">
        <ele>7.8</ele>
        <time>2025-09-25T10:53:02Z</time>
      </trkpt>
      <trkpt lat="48.55696" lon="-4.69978">
        <ele>8</ele>
        <time>2025-09-25T10:53:08Z</time>
      </trkpt>
      <trkpt lat="48.5568" lon="-4.6996">
        <ele>8.6</ele>
        <time>2025-09-25T10:53:14Z</time>
      </trkpt>
      <trkpt lat="48.55663" lon="-4.69942">
        <ele>8.4</ele>
        <time>2025-09-25T10:53:20Z</time>
      </trkpt>
      <trkpt lat="48.55636" lon="-4.69928">
        <ele>8</ele>
        <time>2025-09-25T10:53:28Z</time>
      </trkpt>
      <trkpt lat="48.55608" lon="-4.69924">
        <ele>7.6</ele>
        <time>2025-09-25T10:53:35Z</time>
      </trkpt>
      <trkpt lat="48.55579" lon="-4.69924">
        <ele>7.2</ele>
        <time>2025-09-25T10:53:42Z</time>
      </trkpt>
      <trkpt lat="48.5556" lon="-4.69923">
        <ele>7.6</ele>
        <time>2025-09-25T10:53:47Z</time>
      </trkpt>
      <trkpt lat="48.55553" lon="-4.69922">
        <ele>7.6</ele>
        <time>2025-09-25T10:53:49Z</time>
      </trkpt>
      <trkpt lat="48.55547" lon="-4.69922">
        <ele>7.6</ele>
        <time>2025-09-25T10:53:51Z</time>
      </trkpt>
      <trkpt lat="48.55541" lon="-4.69922">
        <ele>7.8</ele>
        <time>2025-09-25T10:53:53Z</time>
      </trkpt>
      <trkpt lat="48.55531" lon="-4.69922">
        <ele>8</ele>
        <time>2025-09-25T10:53:57Z</time>
      </trkpt>
      <trkpt lat="48.55528" lon="-4.69924">
        <ele>8.2</ele>
        <time>2025-09-25T10:53:59Z</time>
      </trkpt>
      <trkpt lat="48.55528" lon="-4.69927">
        <ele>8.2</ele>
        <time>2025-09-25T10:54:00Z</time>
      </trkpt>
      <trkpt lat="48.55526" lon="-4.69937">
        <ele>7.8</ele>
        <time>2025-09-25T10:54:04Z</time>
      </trkpt>
      <trkpt lat="48.55524" lon="-4.69938">
        <ele>7.8</ele>
        <time>2025-09-25T10:54:05Z</time>
      </trkpt>
      <trkpt lat="48.55513" lon="-4.69933">
        <ele>8</ele>
        <time>2025-09-25T10:54:10Z</time>
      </trkpt>
      <trkpt lat="48.55506" lon="-4.69943">
        <ele>8</ele>
        <time>2025-09-25T10:54:15Z</time>
      </trkpt>
      <trkpt lat="48.55507" lon="-4.6995">
        <ele>8.2</ele>
        <time>2025-09-25T10:54:20Z</time>
      </trkpt>
      <trkpt lat="48.55506" lon="-4.69952">
        <ele>8</ele>
        <time>2025-09-25T10:54:31Z</time>
      </trkpt>
      <trkpt lat="48.55504" lon="-4.69958">
        <ele>8.4</ele>
        <time>2025-09-25T10:54:34Z</time>
      </trkpt>
      <trkpt lat="48.55501" lon="-4.69965">
        <ele>9</ele>
        <time>2025-09-25T10:54:39Z</time>
      </trkpt>
      <trkpt lat="48.55501" lon="-4.69966">
        <ele>9</ele>
        <time>2025-09-25T10:54:40Z</time>
      </trkpt>
      <trkpt lat="48.55501" lon="-4.69968">
        <ele>9.2</ele>
        <time>2025-09-25T10:54:41Z</time>
      </trkpt>
      <trkpt lat="48.55499" lon="-4.69973">
        <ele>10</ele>
        <time>2025-09-25T10:54:46Z</time>
      </trkpt>
      <trkpt lat="48.55498" lon="-4.69977">
        <ele>10.6</ele>
        <time>2025-09-25T10:54:49Z</time>
      </trkpt>
      <trkpt lat="48.55498" lon="-4.69982">
        <ele>11.2</ele>
        <time>2025-09-25T10:54:53Z</time>
      </trkpt>
      <trkpt lat="48.55496" lon="-4.6999">
        <ele>12.2</ele>
        <time>2025-09-25T10:54:59Z</time>
      </trkpt>
      <trkpt lat="48.55495" lon="-4.69992">
        <ele>12.2</ele>
        <time>2025-09-25T10:55:00Z</time>
      </trkpt>
      <trkpt lat="48.55493" lon="-4.70003">
        <ele>13.4</ele>
        <time>2025-09-25T10:55:07Z</time>
      </trkpt>
      <trkpt lat="48.55493" lon="-4.70004">
        <ele>13.6</ele>
        <time>2025-09-25T10:55:08Z</time>
      </trkpt>
      <trkpt lat="48.55492" lon="-4.70008">
        <ele>14</ele>
        <time>2025-09-25T10:55:11Z</time>
      </trkpt>
      <trkpt lat="48.55492" lon="-4.70011">
        <ele>14.4</ele>
        <time>2025-09-25T10:55:14Z</time>
      </trkpt>
      <trkpt lat="48.55491" lon="-4.70015">
        <ele>14.6</ele>
        <time>2025-09-25T10:55:17Z</time>
      </trkpt>
      <trkpt lat="48.5549" lon="-4.70021">
        <ele>15.4</ele>
        <time>2025-09-25T10:55:24Z</time>
      </trkpt>
      <trkpt lat="48.55486" lon="-4.70027">
        <ele>16</ele>
        <time>2025-09-25T10:55:30Z</time>
      </trkpt>
      <trkpt lat="48.55485" lon="-4.70028">
        <ele>16</ele>
        <time>2025-09-25T10:55:32Z</time>
      </trkpt>
      <trkpt lat="48.55484" lon="-4.70028">
        <ele>16.4</ele>
        <time>2025-09-25T10:55:45Z</time>
      </trkpt>
      <trkpt lat="48.55484" lon="-4.70029">
        <ele>16.4</ele>
        <time>2025-09-25T10:55:46Z</time>
      </trkpt>
      <trkpt lat="48.55483" lon="-4.70029">
        <ele>16.4</ele>
        <time>2025-09-25T10:55:47Z</time>
      </trkpt>
      <trkpt lat="48.55481" lon="-4.7003">
        <ele>16.6</ele>
        <time>2025-09-25T10:55:49Z</time>
      </trkpt>
      <trkpt lat="48.55473" lon="-4.70035">
        <ele>17.4</ele>
        <time>2025-09-25T10:55:57Z</time>
      </trkpt>
      <trkpt lat="48.55472" lon="-4.70037">
        <ele>17.6</ele>
        <time>2025-09-25T10:55:59Z</time>
      </trkpt>
      <trkpt lat="48.55466" lon="-4.70044">
        <ele>18.2</ele>
        <time>2025-09-25T10:56:07Z</time>
      </trkpt>
      <trkpt lat="48.55464" lon="-4.70046">
        <ele>18.4</ele>
        <time>2025-09-25T10:56:10Z</time>
      </trkpt>
      <trkpt lat="48.55462" lon="-4.7005">
        <ele>19</ele>
        <time>2025-09-25T10:56:15Z</time>
      </trkpt>
      <trkpt lat="48.55461" lon="-4.70051">
        <ele>19</ele>
        <time>2025-09-25T10:56:17Z</time>
      </trkpt>
      <trkpt lat="48.5546" lon="-4.70054">
        <ele>19.4</ele>
        <time>2025-09-25T10:56:20Z</time>
      </trkpt>
      <trkpt lat="48.55459" lon="-4.70055">
        <ele>19.6</ele>
        <time>2025-09-25T10:56:21Z</time>
      </trkpt>
      <trkpt lat="48.55457" lon="-4.70058">
        <ele>20</ele>
        <time>2025-09-25T10:56:26Z</time>
      </trkpt>
      <trkpt lat="48.55453" lon="-4.70062">
        <ele>20.6</ele>
        <time>2025-09-25T10:56:31Z</time>
      </trkpt>
      <trkpt lat="48.55451" lon="-4.70063">
        <ele>20.8</ele>
        <time>2025-09-25T10:56:33Z</time>
      </trkpt>
      <trkpt lat="48.55444" lon="-4.70067">
        <ele>21.4</ele>
        <time>2025-09-25T10:56:42Z</time>
      </trkpt>
      <trkpt lat="48.55442" lon="-4.70069">
        <ele>21.6</ele>
        <time>2025-09-25T10:56:45Z</time>
      </trkpt>
      <trkpt lat="48.55436" lon="-4.70072">
        <ele>22.2</ele>
        <time>2025-09-25T10:56:52Z</time>
      </trkpt>
      <trkpt lat="48.5543" lon="-4.70076">
        <ele>22.4</ele>
        <time>2025-09-25T10:57:00Z</time>
      </trkpt>
      <trkpt lat="48.55428" lon="-4.70079">
        <ele>22.6</ele>
        <time>2025-09-25T10:57:03Z</time>
      </trkpt>
      <trkpt lat="48.55424" lon="-4.70083">
        <ele>22.8</ele>
        <time>2025-09-25T10:57:07Z</time>
      </trkpt>
      <trkpt lat="48.55418" lon="-4.7009">
        <ele>23</ele>
        <time>2025-09-25T10:57:14Z</time>
      </trkpt>
      <trkpt lat="48.55415" lon="-4.70093">
        <ele>23.2</ele>
        <time>2025-09-25T10:57:20Z</time>
      </trkpt>
      <trkpt lat="48.55416" lon="-4.70093">
        <ele>23.2</ele>
        <time>2025-09-25T10:57:27Z</time>
      </trkpt>
      <trkpt lat="48.55415" lon="-4.70093">
        <ele>23.2</ele>
        <time>2025-09-25T10:57:28Z</time>
      </trkpt>
      <trkpt lat="48.55411" lon="-4.70094">
        <ele>23.4</ele>
        <time>2025-09-25T10:57:32Z</time>
      </trkpt>
      <trkpt lat="48.55403" lon="-4.70098">
        <ele>23.4</ele>
        <time>2025-09-25T10:57:37Z</time>
      </trkpt>
      <trkpt lat="48.55387" lon="-4.70101">
        <ele>23</ele>
        <time>2025-09-25T10:57:45Z</time>
      </trkpt>
      <trkpt lat="48.5534" lon="-4.70137">
        <ele>23</ele>
        <time>2025-09-25T11:01:22Z</time>
      </trkpt>
      <trkpt lat="48.55337" lon="-4.70139">
        <ele>23</ele>
        <time>2025-09-25T11:01:23Z</time>
      </trkpt>
      <trkpt lat="48.55335" lon="-4.70141">
        <ele>23</ele>
        <time>2025-09-25T11:01:24Z</time>
      </trkpt>
      <trkpt lat="48.55332" lon="-4.70143">
        <ele>22.8</ele>
        <time>2025-09-25T11:01:25Z</time>
      </trkpt>
      <trkpt lat="48.55327" lon="-4.70148">
        <ele>22.6</ele>
        <time>2025-09-25T11:01:27Z</time>
      </trkpt>
      <trkpt lat="48.55319" lon="-4.70154">
        <ele>22.4</ele>
        <time>2025-09-25T11:01:30Z</time>
      </trkpt>
      <trkpt lat="48.55303" lon="-4.70165">
        <ele>21.4</ele>
        <time>2025-09-25T11:01:35Z</time>
      </trkpt>
      <trkpt lat="48.55296" lon="-4.7017">
        <ele>21</ele>
        <time>2025-09-25T11:01:37Z</time>
      </trkpt>
      <trkpt lat="48.55285" lon="-4.70178">
        <ele>20.8</ele>
        <time>2025-09-25T11:01:40Z</time>
      </trkpt>
      <trkpt lat="48.55275" lon="-4.70184">
        <ele>20.4</ele>
        <time>2025-09-25T11:01:43Z</time>
      </trkpt>
      <trkpt lat="48.55272" lon="-4.70185">
        <ele>20.2</ele>
        <time>2025-09-25T11:01:44Z</time>
      </trkpt>
      <trkpt lat="48.55252" lon="-4.70191">
        <ele>20</ele>
        <time>2025-09-25T11:01:51Z</time>
      </trkpt>
      <trkpt lat="48.55243" lon="-4.70191">
        <ele>20.2</ele>
        <time>2025-09-25T11:01:56Z</time>
      </trkpt>
      <trkpt lat="48.55242" lon="-4.70189">
        <ele>20.2</ele>
        <time>2025-09-25T11:01:57Z</time>
      </trkpt>
      <trkpt lat="48.55238" lon="-4.70176">
        <ele>20.8</ele>
        <time>2025-09-25T11:02:03Z</time>
      </trkpt>
      <trkpt lat="48.55235" lon="-4.70157">
        <ele>21.4</ele>
        <time>2025-09-25T11:02:11Z</time>
      </trkpt>
      <trkpt lat="48.55234" lon="-4.70155">
        <ele>21.6</ele>
        <time>2025-09-25T11:02:12Z</time>
      </trkpt>
      <trkpt lat="48.55232" lon="-4.7014">
        <ele>22.4</ele>
        <time>2025-09-25T11:02:18Z</time>
      </trkpt>
      <trkpt lat="48.55232" lon="-4.70137">
        <ele>22.6</ele>
        <time>2025-09-25T11:02:19Z</time>
      </trkpt>
      <trkpt lat="48.55228" lon="-4.70121">
        <ele>23.6</ele>
        <time>2025-09-25T11:02:26Z</time>
      </trkpt>
      <trkpt lat="48.55228" lon="-4.70118">
        <ele>23.6</ele>
        <time>2025-09-25T11:02:27Z</time>
      </trkpt>
      <trkpt lat="48.55222" lon="-4.70097">
        <ele>24.6</ele>
        <time>2025-09-25T11:02:35Z</time>
      </trkpt>
      <trkpt lat="48.55218" lon="-4.70081">
        <ele>25.4</ele>
        <time>2025-09-25T11:02:42Z</time>
      </trkpt>
      <trkpt lat="48.55216" lon="-4.70076">
        <ele>25.6</ele>
        <time>2025-09-25T11:02:44Z</time>
      </trkpt>
      <trkpt lat="48.55208" lon="-4.7007">
        <ele>25.6</ele>
        <time>2025-09-25T11:02:49Z</time>
      </trkpt>
      <trkpt lat="48.55208" lon="-4.70072">
        <ele>25.6</ele>
        <time>2025-09-25T11:02:52Z</time>
      </trkpt>
      <trkpt lat="48.55207" lon="-4.70071">
        <ele>25.6</ele>
        <time>2025-09-25T11:03:12Z</time>
      </trkpt>
      <trkpt lat="48.55206" lon="-4.70073">
        <ele>25.6</ele>
        <time>2025-09-25T11:03:13Z</time>
      </trkpt>
      <trkpt lat="48.55203" lon="-4.70082">
        <ele>25.4</ele>
        <time>2025-09-25T11:03:16Z</time>
      </trkpt>
      <trkpt lat="48.55202" lon="-4.70089">
        <ele>25</ele>
        <time>2025-09-25T11:03:18Z</time>
      </trkpt>
      <trkpt lat="48.55195" lon="-4.70124">
        <ele>25.2</ele>
        <time>2025-09-25T11:03:26Z</time>
      </trkpt>
      <trkpt lat="48.55189" lon="-4.70145">
        <ele>24.2</ele>
        <time>2025-09-25T11:03:30Z</time>
      </trkpt>
      <trkpt lat="48.55182" lon="-4.70168">
        <ele>23.6</ele>
        <time>2025-09-25T11:03:34Z</time>
      </trkpt>
      <trkpt lat="48.55176" lon="-4.70186">
        <ele>23.2</ele>
        <time>2025-09-25T11:03:37Z</time>
      </trkpt>
      <trkpt lat="48.55162" lon="-4.70218">
        <ele>22.4</ele>
        <time>2025-09-25T11:03:42Z</time>
      </trkpt>
      <trkpt lat="48.55159" lon="-4.70224">
        <ele>22.2</ele>
        <time>2025-09-25T11:03:43Z</time>
      </trkpt>
      <trkpt lat="48.55141" lon="-4.70259">
        <ele>20.8</ele>
        <time>2025-09-25T11:03:48Z</time>
      </trkpt>
      <trkpt lat="48.55133" lon="-4.70274">
        <ele>20.2</ele>
        <time>2025-09-25T11:03:50Z</time>
      </trkpt>
      <trkpt lat="48.55126" lon="-4.7029">
        <ele>19.8</ele>
        <time>2025-09-25T11:03:52Z</time>
      </trkpt>
      <trkpt lat="48.55114" lon="-4.70314">
        <ele>18.8</ele>
        <time>2025-09-25T11:03:55Z</time>
      </trkpt>
      <trkpt lat="48.55105" lon="-4.7033">
        <ele>17.6</ele>
        <time>2025-09-25T11:03:57Z</time>
      </trkpt>
      <trkpt lat="48.55101" lon="-4.70338">
        <ele>17</ele>
        <time>2025-09-25T11:03:58Z</time>
      </trkpt>
      <trkpt lat="48.55092" lon="-4.70352">
        <ele>16.2</ele>
        <time>2025-09-25T11:04:00Z</time>
      </trkpt>
      <trkpt lat="48.5508" lon="-4.70365">
        <ele>15.6</ele>
        <time>2025-09-25T11:04:02Z</time>
      </trkpt>
      <trkpt lat="48.55074" lon="-4.7037">
        <ele>15.4</ele>
        <time>2025-09-25T11:04:03Z</time>
      </trkpt>
      <trkpt lat="48.55067" lon="-4.70374">
        <ele>15</ele>
        <time>2025-09-25T11:04:04Z</time>
      </trkpt>
      <trkpt lat="48.55052" lon="-4.70379">
        <ele>14</ele>
        <time>2025-09-25T11:04:06Z</time>
      </trkpt>
      <trkpt lat="48.55045" lon="-4.70381">
        <ele>13.8</ele>
        <time>2025-09-25T11:04:07Z</time>
      </trkpt>
      <trkpt lat="48.5503" lon="-4.70382">
        <ele>13.4</ele>
        <time>2025-09-25T11:04:09Z</time>
      </trkpt>
      <trkpt lat="48.55009" lon="-4.70378">
        <ele>13.8</ele>
        <time>2025-09-25T11:04:12Z</time>
      </trkpt>
      <trkpt lat="48.54964" lon="-4.70371">
        <ele>13.6</ele>
        <time>2025-09-25T11:04:19Z</time>
      </trkpt>
      <trkpt lat="48.54947" lon="-4.70369">
        <ele>13.2</ele>
        <time>2025-09-25T11:04:22Z</time>
      </trkpt>
      <trkpt lat="48.54937" lon="-4.70371">
        <ele>12.8</ele>
        <time>2025-09-25T11:04:24Z</time>
      </trkpt>
      <trkpt lat="48.54933" lon="-4.70373">
        <ele>12.8</ele>
        <time>2025-09-25T11:04:25Z</time>
      </trkpt>
      <trkpt lat="48.54925" lon="-4.70381">
        <ele>13</ele>
        <time>2025-09-25T11:04:27Z</time>
      </trkpt>
      <trkpt lat="48.54923" lon="-4.70386">
        <ele>13</ele>
        <time>2025-09-25T11:04:28Z</time>
      </trkpt>
      <trkpt lat="48.54917" lon="-4.70409">
        <ele>13.8</ele>
        <time>2025-09-25T11:04:33Z</time>
      </trkpt>
      <trkpt lat="48.54916" lon="-4.70412">
        <ele>14.2</ele>
        <time>2025-09-25T11:04:34Z</time>
      </trkpt>
      <trkpt lat="48.54914" lon="-4.70418">
        <ele>14.6</ele>
        <time>2025-09-25T11:04:36Z</time>
      </trkpt>
      <trkpt lat="48.54914" lon="-4.70424">
        <ele>15.2</ele>
        <time>2025-09-25T11:04:38Z</time>
      </trkpt>
      <trkpt lat="48.54914" lon="-4.70427">
        <ele>15.2</ele>
        <time>2025-09-25T11:04:39Z</time>
      </trkpt>
      <trkpt lat="48.54915" lon="-4.70438">
        <ele>15.6</ele>
        <time>2025-09-25T11:04:43Z</time>
      </trkpt>
      <trkpt lat="48.54915" lon="-4.7044">
        <ele>15.8</ele>
        <time>2025-09-25T11:04:44Z</time>
      </trkpt>
      <trkpt lat="48.54917" lon="-4.70448">
        <ele>16.4</ele>
        <time>2025-09-25T11:04:47Z</time>
      </trkpt>
      <trkpt lat="48.54922" lon="-4.70455">
        <ele>16.8</ele>
        <time>2025-09-25T11:04:50Z</time>
      </trkpt>
      <trkpt lat="48.54927" lon="-4.70463">
        <ele>17.4</ele>
        <time>2025-09-25T11:04:54Z</time>
      </trkpt>
      <trkpt lat="48.54934" lon="-4.70471">
        <ele>17.8</ele>
        <time>2025-09-25T11:04:58Z</time>
      </trkpt>
      <trkpt lat="48.5494" lon="-4.70478">
        <ele>18.4</ele>
        <time>2025-09-25T11:05:02Z</time>
      </trkpt>
      <trkpt lat="48.54942" lon="-4.70479">
        <ele>18.4</ele>
        <time>2025-09-25T11:05:03Z</time>
      </trkpt>
      <trkpt lat="48.54945" lon="-4.70482">
        <ele>18.8</ele>
        <time>2025-09-25T11:05:05Z</time>
      </trkpt>
      <trkpt lat="48.54954" lon="-4.70492">
        <ele>19.4</ele>
        <time>2025-09-25T11:05:10Z</time>
      </trkpt>
      <trkpt lat="48.54957" lon="-4.70495">
        <ele>19.8</ele>
        <time>2025-09-25T11:05:12Z</time>
      </trkpt>
      <trkpt lat="48.54966" lon="-4.70506">
        <ele>20.6</ele>
        <time>2025-09-25T11:05:18Z</time>
      </trkpt>
      <trkpt lat="48.54973" lon="-4.70516">
        <ele>21.6</ele>
        <time>2025-09-25T11:05:24Z</time>
      </trkpt>
      <trkpt lat="48.54978" lon="-4.70532">
        <ele>22.4</ele>
        <time>2025-09-25T11:05:31Z</time>
      </trkpt>
      <trkpt lat="48.54978" lon="-4.70537">
        <ele>22.6</ele>
        <time>2025-09-25T11:05:33Z</time>
      </trkpt>
      <trkpt lat="48.54978" lon="-4.70548">
        <ele>23</ele>
        <time>2025-09-25T11:05:38Z</time>
      </trkpt>
      <trkpt lat="48.54975" lon="-4.70558">
        <ele>23.6</ele>
        <time>2025-09-25T11:05:44Z</time>
      </trkpt>
      <trkpt lat="48.54973" lon="-4.70564">
        <ele>24</ele>
        <time>2025-09-25T11:05:47Z</time>
      </trkpt>
      <trkpt lat="48.54967" lon="-4.70573">
        <ele>24.8</ele>
        <time>2025-09-25T11:05:52Z</time>
      </trkpt>
      <trkpt lat="48.54961" lon="-4.70581">
        <ele>25.4</ele>
        <time>2025-09-25T11:05:57Z</time>
      </trkpt>
      <trkpt lat="48.54948" lon="-4.70583">
        <ele>26</ele>
        <time>2025-09-25T11:06:03Z</time>
      </trkpt>
      <trkpt lat="48.54944" lon="-4.70585">
        <ele>26.2</ele>
        <time>2025-09-25T11:06:05Z</time>
      </trkpt>
      <trkpt lat="48.54932" lon="-4.70583">
        <ele>26.6</ele>
        <time>2025-09-25T11:06:13Z</time>
      </trkpt>
      <trkpt lat="48.54924" lon="-4.70569">
        <ele>26.8</ele>
        <time>2025-09-25T11:06:20Z</time>
      </trkpt>
      <trkpt lat="48.54919" lon="-4.70557">
        <ele>26.6</ele>
        <time>2025-09-25T11:06:26Z</time>
      </trkpt>
      <trkpt lat="48.54919" lon="-4.70556">
        <ele>26.6</ele>
        <time>2025-09-25T11:06:28Z</time>
      </trkpt>
      <trkpt lat="48.54917" lon="-4.70555">
        <ele>26.6</ele>
        <time>2025-09-25T11:07:49Z</time>
      </trkpt>
      <trkpt lat="48.54916" lon="-4.70554">
        <ele>26.6</ele>
        <time>2025-09-25T11:07:50Z</time>
      </trkpt>
      <trkpt lat="48.54915" lon="-4.70554">
        <ele>26.6</ele>
        <time>2025-09-25T11:07:51Z</time>
      </trkpt>
      <trkpt lat="48.5491" lon="-4.70555">
        <ele>26.6</ele>
        <time>2025-09-25T11:07:57Z</time>
      </trkpt>
      <trkpt lat="48.54909" lon="-4.70554">
        <ele>26.6</ele>
        <time>2025-09-25T11:07:58Z</time>
      </trkpt>
      <trkpt lat="48.54906" lon="-4.70555">
        <ele>26.6</ele>
        <time>2025-09-25T11:08:01Z</time>
      </trkpt>
      <trkpt lat="48.54907" lon="-4.70555">
        <ele>26.6</ele>
        <time>2025-09-25T11:08:03Z</time>
      </trkpt>
      <trkpt lat="48.54904" lon="-4.70553">
        <ele>26.6</ele>
        <time>2025-09-25T11:08:09Z</time>
      </trkpt>
      <trkpt lat="48.54899" lon="-4.70551">
        <ele>26.8</ele>
        <time>2025-09-25T11:08:17Z</time>
      </trkpt>
      <trkpt lat="48.54903" lon="-4.70554">
        <ele>26.6</ele>
        <time>2025-09-25T11:08:22Z</time>
      </trkpt>
      <trkpt lat="48.54911" lon="-4.70556">
        <ele>26.4</ele>
        <time>2025-09-25T11:08:31Z</time>
      </trkpt>
      <trkpt lat="48.54914" lon="-4.70554">
        <ele>26.6</ele>
        <time>2025-09-25T11:08:34Z</time>
      </trkpt>
      <trkpt lat="48.54914" lon="-4.70551">
        <ele>26.6</ele>
        <time>2025-09-25T11:08:36Z</time>
      </trkpt>
      <trkpt lat="48.54913" lon="-4.7055">
        <ele>26.6</ele>
        <time>2025-09-25T11:08:37Z</time>
      </trkpt>
      <trkpt lat="48.54911" lon="-4.7054">
        <ele>26.4</ele>
        <time>2025-09-25T11:08:44Z</time>
      </trkpt>
      <trkpt lat="48.54908" lon="-4.70533">
        <ele>26.4</ele>
        <time>2025-09-25T11:08:50Z</time>
      </trkpt>
      <trkpt lat="48.54911" lon="-4.7053">
        <ele>26.4</ele>
        <time>2025-09-25T11:08:56Z</time>
      </trkpt>
      <trkpt lat="48.54908" lon="-4.70532">
        <ele>26.6</ele>
        <time>2025-09-25T11:09:35Z</time>
      </trkpt>
      <trkpt lat="48.54908" lon="-4.70531">
        <ele>26.6</ele>
        <time>2025-09-25T11:09:38Z</time>
      </trkpt>
      <trkpt lat="48.55171" lon="-4.72265">
        <ele>33.2</ele>
        <time>2025-09-25T11:35:28Z</time>
      </trkpt>
      <trkpt lat="48.55172" lon="-4.72266">
        <ele>33.4</ele>
        <time>2025-09-25T11:35:29Z</time>
      </trkpt>
      <trkpt lat="48.55175" lon="-4.72272">
        <ele>33.6</ele>
        <time>2025-09-25T11:35:32Z</time>
      </trkpt>
      <trkpt lat="48.55176" lon="-4.72278">
        <ele>33.4</ele>
        <time>2025-09-25T11:35:34Z</time>
      </trkpt>
      <trkpt lat="48.55176" lon="-4.72281">
        <ele>33.4</ele>
        <time>2025-09-25T11:35:35Z</time>
      </trkpt>
      <trkpt lat="48.55176" lon="-4.72285">
        <ele>33.4</ele>
        <time>2025-09-25T11:35:36Z</time>
      </trkpt>
      <trkpt lat="48.55176" lon="-4.72292">
        <ele>33.8</ele>
        <time>2025-09-25T11:35:38Z</time>
      </trkpt>
      <trkpt lat="48.55176" lon="-4.72304">
        <ele>34.2</ele>
        <time>2025-09-25T11:35:41Z</time>
      </trkpt>
      <trkpt lat="48.55177" lon="-4.72308">
        <ele>34.2</ele>
        <time>2025-09-25T11:35:42Z</time>
      </trkpt>
      <trkpt lat="48.55177" lon="-4.72312">
        <ele>34.2</ele>
        <time>2025-09-25T11:35:43Z</time>
      </trkpt>
      <trkpt lat="48.55178" lon="-4.7232">
        <ele>34.4</ele>
        <time>2025-09-25T11:35:45Z</time>
      </trkpt>
      <trkpt lat="48.55179" lon="-4.72338">
        <ele>34.6</ele>
        <time>2025-09-25T11:35:49Z</time>
      </trkpt>
      <trkpt lat="48.55181" lon="-4.72347">
        <ele>34.4</ele>
        <time>2025-09-25T11:35:51Z</time>
      </trkpt>
      <trkpt lat="48.55183" lon="-4.72352">
        <ele>34.4</ele>
        <time>2025-09-25T11:35:52Z</time>
      </trkpt>
      <trkpt lat="48.55188" lon="-4.72366">
        <ele>34</ele>
        <time>2025-09-25T11:35:55Z</time>
      </trkpt>
      <trkpt lat="48.55192" lon="-4.72377">
        <ele>33.6</ele>
        <time>2025-09-25T11:35:57Z</time>
      </trkpt>
      <trkpt lat="48.55204" lon="-4.72411">
        <ele>33</ele>
        <time>2025-09-25T11:36:03Z</time>
      </trkpt>
      <trkpt lat="48.55208" lon="-4.72423">
        <ele>33.2</ele>
        <time>2025-09-25T11:36:05Z</time>
      </trkpt>
      <trkpt lat="48.55225" lon="-4.72471">
        <ele>32.6</ele>
        <time>2025-09-25T11:36:13Z</time>
      </trkpt>
      <trkpt lat="48.55227" lon="-4.72477">
        <ele>32.2</ele>
        <time>2025-09-25T11:36:14Z</time>
      </trkpt>
      <trkpt lat="48.55245" lon="-4.72527">
        <ele>32.6</ele>
        <time>2025-09-25T11:36:22Z</time>
      </trkpt>
      <trkpt lat="48.55253" lon="-4.72552">
        <ele>32</ele>
        <time>2025-09-25T11:36:26Z</time>
      </trkpt>
      <trkpt lat="48.55264" lon="-4.72581">
        <ele>31.4</ele>
        <time>2025-09-25T11:36:31Z</time>
      </trkpt>
      <trkpt lat="48.55279" lon="-4.72622">
        <ele>31.2</ele>
        <time>2025-09-25T11:36:38Z</time>
      </trkpt>
      <trkpt lat="48.55287" lon="-4.72645">
        <ele>31</ele>
        <time>2025-09-25T11:36:42Z</time>
      </trkpt>
      <trkpt lat="48.55292" lon="-4.72661">
        <ele>30.4</ele>
        <time>2025-09-25T11:36:45Z</time>
      </trkpt>
      <trkpt lat="48.55296" lon="-4.7267">
        <ele>29.8</ele>
        <time>2025-09-25T11:36:47Z</time>
      </trkpt>
      <trkpt lat="48.55302" lon="-4.72684">
        <ele>29.6</ele>
        <time>2025-09-25T11:36:51Z</time>
      </trkpt>
      <trkpt lat="48.55304" lon="-4.72687">
        <ele>29.8</ele>
        <time>2025-09-25T11:36:52Z</time>
      </trkpt>
      <trkpt lat="48.55314" lon="-4.7271">
        <ele>29.8</ele>
        <time>2025-09-25T11:36:58Z</time>
      </trkpt>
      <trkpt lat="48.55322" lon="-4.72733">
        <ele>29.8</ele>
        <time>2025-09-25T11:37:04Z</time>
      </trkpt>
      <trkpt lat="48.55332" lon="-4.72758">
        <ele>29.6</ele>
        <time>2025-09-25T11:37:10Z</time>
      </trkpt>
      <trkpt lat="48.55336" lon="-4.7277">
        <ele>29.4</ele>
        <time>2025-09-25T11:37:13Z</time>
      </trkpt>
      <trkpt lat="48.55348" lon="-4.72797">
        <ele>29.4</ele>
        <time>2025-09-25T11:37:21Z</time>
      </trkpt>
      <trkpt lat="48.55359" lon="-4.72825">
        <ele>29.4</ele>
        <time>2025-09-25T11:37:29Z</time>
      </trkpt>
      <trkpt lat="48.55371" lon="-4.72852">
        <ele>29</ele>
        <time>2025-09-25T11:37:36Z</time>
      </trkpt>
      <trkpt lat="48.55372" lon="-4.72856">
        <ele>29</ele>
        <time>2025-09-25T11:37:37Z</time>
      </trkpt>
      <trkpt lat="48.55374" lon="-4.7286">
        <ele>28.8</ele>
        <time>2025-09-25T11:37:38Z</time>
      </trkpt>
      <trkpt lat="48.55379" lon="-4.72875">
        <ele>28.6</ele>
        <time>2025-09-25T11:37:42Z</time>
      </trkpt>
      <trkpt lat="48.55378" lon="-4.72879">
        <ele>28.6</ele>
        <time>2025-09-25T11:37:43Z</time>
      </trkpt>
      <trkpt lat="48.55377" lon="-4.72881">
        <ele>28.8</ele>
        <time>2025-09-25T11:37:44Z</time>
      </trkpt>
      <trkpt lat="48.55371" lon="-4.72884">
        <ele>28.6</ele>
        <time>2025-09-25T11:37:47Z</time>
      </trkpt>
      <trkpt lat="48.55363" lon="-4.72891">
        <ele>28.6</ele>
        <time>2025-09-25T11:37:51Z</time>
      </trkpt>
      <trkpt lat="48.55358" lon="-4.72895">
        <ele>28.4</ele>
        <time>2025-09-25T11:37:53Z</time>
      </trkpt>
      <trkpt lat="48.55336" lon="-4.7291">
        <ele>28.6</ele>
        <time>2025-09-25T11:38:03Z</time>
      </trkpt>
      <trkpt lat="48.55319" lon="-4.72922">
        <ele>28.4</ele>
        <time>2025-09-25T11:38:11Z</time>
      </trkpt>
      <trkpt lat="48.55306" lon="-4.72933">
        <ele>28.2</ele>
        <time>2025-09-25T11:38:17Z</time>
      </trkpt>
      <trkpt lat="48.55302" lon="-4.72936">
        <ele>28</ele>
        <time>2025-09-25T11:38:19Z</time>
      </trkpt>
      <trkpt lat="48.55296" lon="-4.72941">
        <ele>28</ele>
        <time>2025-09-25T11:38:22Z</time>
      </trkpt>
      <trkpt lat="48.55286" lon="-4.72949">
        <ele>27.8</ele>
        <time>2025-09-25T11:38:27Z</time>
      </trkpt>
      <trkpt lat="48.55279" lon="-4.72954">
        <ele>27.8</ele>
        <time>2025-09-25T11:38:30Z</time>
      </trkpt>
      <trkpt lat="48.55271" lon="-4.72959">
        <ele>27.6</ele>
        <time>2025-09-25T11:38:33Z</time>
      </trkpt>
      <trkpt lat="48.55258" lon="-4.72971">
        <ele>27.6</ele>
        <time>2025-09-25T11:38:40Z</time>
      </trkpt>
      <trkpt lat="48.55245" lon="-4.72988">
        <ele>27.4</ele>
        <time>2025-09-25T11:38:47Z</time>
      </trkpt>
      <trkpt lat="48.55242" lon="-4.72993">
        <ele>27.4</ele>
        <time>2025-09-25T11:38:49Z</time>
      </trkpt>
      <trkpt lat="48.55235" lon="-4.73007">
        <ele>26.8</ele>
        <time>2025-09-25T11:38:53Z</time>
      </trkpt>
      <trkpt lat="48.55231" lon="-4.73016">
        <ele>26.4</ele>
        <time>2025-09-25T11:38:55Z</time>
      </trkpt>
      <trkpt lat="48.55221" lon="-4.73034">
        <ele>25.6</ele>
        <time>2025-09-25T11:38:59Z</time>
      </trkpt>
      <trkpt lat="48.55214" lon="-4.73049">
        <ele>25.2</ele>
        <time>2025-09-25T11:39:02Z</time>
      </trkpt>
      <trkpt lat="48.55207" lon="-4.73066">
        <ele>24.4</ele>
        <time>2025-09-25T11:39:05Z</time>
      </trkpt>
      <trkpt lat="48.552" lon="-4.73076">
        <ele>23.6</ele>
        <time>2025-09-25T11:39:07Z</time>
      </trkpt>
      <trkpt lat="48.55196" lon="-4.73081">
        <ele>23.4</ele>
        <time>2025-09-25T11:39:08Z</time>
      </trkpt>
      <trkpt lat="48.55193" lon="-4.73085">
        <ele>23.2</ele>
        <time>2025-09-25T11:39:09Z</time>
      </trkpt>
      <trkpt lat="48.55184" lon="-4.7309">
        <ele>22.8</ele>
        <time>2025-09-25T11:39:11Z</time>
      </trkpt>
      <trkpt lat="48.5518" lon="-4.73091">
        <ele>22.4</ele>
        <time>2025-09-25T11:39:12Z</time>
      </trkpt>
      <trkpt lat="48.55175" lon="-4.73093">
        <ele>22.4</ele>
        <time>2025-09-25T11:39:13Z</time>
      </trkpt>
      <trkpt lat="48.55159" lon="-4.73098">
        <ele>22</ele>
        <time>2025-09-25T11:39:17Z</time>
      </trkpt>
      <trkpt lat="48.55155" lon="-4.73099">
        <ele>22</ele>
        <time>2025-09-25T11:39:18Z</time>
      </trkpt>
      <trkpt lat="48.55138" lon="-4.73103">
        <ele>22.4</ele>
        <time>2025-09-25T11:39:24Z</time>
      </trkpt>
      <trkpt lat="48.55126" lon="-4.73102">
        <ele>22.4</ele>
        <time>2025-09-25T11:39:28Z</time>
      </trkpt>
      <trkpt lat="48.55118" lon="-4.73101">
        <ele>22.2</ele>
        <time>2025-09-25T11:39:31Z</time>
      </trkpt>
      <trkpt lat="48.55101" lon="-4.7309">
        <ele>22.6</ele>
        <time>2025-09-25T11:39:39Z</time>
      </trkpt>
      <trkpt lat="48.55089" lon="-4.73078">
        <ele>23</ele>
        <time>2025-09-25T11:39:46Z</time>
      </trkpt>
      <trkpt lat="48.55086" lon="-4.73075">
        <ele>23.2</ele>
        <time>2025-09-25T11:39:48Z</time>
      </trkpt>
      <trkpt lat="48.55069" lon="-4.73071">
        <ele>23.6</ele>
        <time>2025-09-25T11:39:56Z</time>
      </trkpt>
      <trkpt lat="48.55051" lon="-4.73076">
        <ele>23.8</ele>
        <time>2025-09-25T11:40:05Z</time>
      </trkpt>
      <trkpt lat="48.55041" lon="-4.73089">
        <ele>23.8</ele>
        <time>2025-09-25T11:40:11Z</time>
      </trkpt>
      <trkpt lat="48.55038" lon="-4.73099">
        <ele>23.8</ele>
        <time>2025-09-25T11:40:15Z</time>
      </trkpt>
      <trkpt lat="48.55034" lon="-4.73107">
        <ele>23.8</ele>
        <time>2025-09-25T11:40:18Z</time>
      </trkpt>
      <trkpt lat="48.55028" lon="-4.7312">
        <ele>24.2</ele>
        <time>2025-09-25T11:40:24Z</time>
      </trkpt>
      <trkpt lat="48.55025" lon="-4.73125">
        <ele>24.2</ele>
        <time>2025-09-25T11:40:26Z</time>
      </trkpt>
      <trkpt lat="48.55015" lon="-4.73141">
        <ele>24.2</ele>
        <time>2025-09-25T11:40:34Z</time>
      </trkpt>
      <trkpt lat="48.55003" lon="-4.7316">
        <ele>24.6</ele>
        <time>2025-09-25T11:40:43Z</time>
      </trkpt>
      <trkpt lat="48.54991" lon="-4.73174">
        <ele>25.2</ele>
        <time>2025-09-25T11:40:51Z</time>
      </trkpt>
      <trkpt lat="48.5499" lon="-4.73175">
        <ele>25.2</ele>
        <time>2025-09-25T11:40:52Z</time>
      </trkpt>
      <trkpt lat="48.54977" lon="-4.73189">
        <ele>25.6</ele>
        <time>2025-09-25T11:41:01Z</time>
      </trkpt>
      <trkpt lat="48.54966" lon="-4.73202">
        <ele>25.8</ele>
        <time>2025-09-25T11:41:09Z</time>
      </trkpt>
      <trkpt lat="48.54953" lon="-4.73211">
        <ele>25.8</ele>
        <time>2025-09-25T11:41:17Z</time>
      </trkpt>
      <trkpt lat="48.54947" lon="-4.73216">
        <ele>25.6</ele>
        <time>2025-09-25T11:41:21Z</time>
      </trkpt>
      <trkpt lat="48.54942" lon="-4.73219">
        <ele>25.6</ele>
        <time>2025-09-25T11:41:24Z</time>
      </trkpt>
      <trkpt lat="48.54929" lon="-4.73233">
        <ele>25.6</ele>
        <time>2025-09-25T11:41:33Z</time>
      </trkpt>
      <trkpt lat="48.54916" lon="-4.73244">
        <ele>26</ele>
        <time>2025-09-25T11:41:41Z</time>
      </trkpt>
      <trkpt lat="48.54909" lon="-4.73253">
        <ele>26.2</ele>
        <time>2025-09-25T11:41:47Z</time>
      </trkpt>
      <trkpt lat="48.54905" lon="-4.7326">
        <ele>26.4</ele>
        <time>2025-09-25T11:41:51Z</time>
      </trkpt>
      <trkpt lat="48.54897" lon="-4.73277">
        <ele>26.6</ele>
        <time>2025-09-25T11:41:59Z</time>
      </trkpt>
      <trkpt lat="48.54894" lon="-4.73293">
        <ele>26</ele>
        <time>2025-09-25T11:42:05Z</time>
      </trkpt>
      <trkpt lat="48.54896" lon="-4.73308">
        <ele>25.8</ele>
        <time>2025-09-25T11:42:11Z</time>
      </trkpt>
      <trkpt lat="48.549" lon="-4.73315">
        <ele>26</ele>
        <time>2025-09-25T11:42:16Z</time>
      </trkpt>
      <trkpt lat="48.54902" lon="-4.73316">
        <ele>25.8</ele>
        <time>2025-09-25T11:42:17Z</time>
      </trkpt>
      <trkpt lat="48.54907" lon="-4.73327">
        <ele>25</ele>
        <time>2025-09-25T11:42:21Z</time>
      </trkpt>
      <trkpt lat="48.54908" lon="-4.7333">
        <ele>24.6</ele>
        <time>2025-09-25T11:42:22Z</time>
      </trkpt>
      <trkpt lat="48.54915" lon="-4.73349">
        <ele>24.4</ele>
        <time>2025-09-25T11:42:29Z</time>
      </trkpt>
      <trkpt lat="48.54919" lon="-4.73363">
        <ele>24</ele>
        <time>2025-09-25T11:42:35Z</time>
      </trkpt>
      <trkpt lat="48.54919" lon="-4.73367">
        <ele>23.8</ele>
        <time>2025-09-25T11:42:37Z</time>
      </trkpt>
      <trkpt lat="48.54918" lon="-4.73382">
        <ele>23.6</ele>
        <time>2025-09-25T11:42:43Z</time>
      </trkpt>
      <trkpt lat="48.54909" lon="-4.73395">
        <ele>23.6</ele>
        <time>2025-09-25T11:42:50Z</time>
      </trkpt>
      <trkpt lat="48.54906" lon="-4.73398">
        <ele>23.8</ele>
        <time>2025-09-25T11:42:55Z</time>
      </trkpt>
      <trkpt lat="48.549" lon="-4.73405">
        <ele>24</ele>
        <time>2025-09-25T11:43:02Z</time>
      </trkpt>
      <trkpt lat="48.549" lon="-4.73407">
        <ele>24</ele>
        <time>2025-09-25T11:43:03Z</time>
      </trkpt>
      <trkpt lat="48.54901" lon="-4.73415">
        <ele>23.8</ele>
        <time>2025-09-25T11:43:06Z</time>
      </trkpt>
      <trkpt lat="48.54902" lon="-4.73417">
        <ele>23.6</ele>
        <time>2025-09-25T11:43:07Z</time>
      </trkpt>
      <trkpt lat="48.54909" lon="-4.73428">
        <ele>22.8</ele>
        <time>2025-09-25T11:43:12Z</time>
      </trkpt>
      <trkpt lat="48.5491" lon="-4.7343">
        <ele>22.4</ele>
        <time>2025-09-25T11:43:13Z</time>
      </trkpt>
      <trkpt lat="48.54917" lon="-4.73442">
        <ele>21.6</ele>
        <time>2025-09-25T11:43:19Z</time>
      </trkpt>
      <trkpt lat="48.54918" lon="-4.73444">
        <ele>21.6</ele>
        <time>2025-09-25T11:43:20Z</time>
      </trkpt>
      <trkpt lat="48.54919" lon="-4.73449">
        <ele>21.4</ele>
        <time>2025-09-25T11:43:25Z</time>
      </trkpt>
      <trkpt lat="48.54919" lon="-4.73451">
        <ele>21.4</ele>
        <time>2025-09-25T11:43:28Z</time>
      </trkpt>
      <trkpt lat="48.5492" lon="-4.73452">
        <ele>22</ele>
        <time>2025-09-25T11:44:03Z</time>
      </trkpt>
      <trkpt lat="48.5492" lon="-4.73453">
        <ele>22</ele>
        <time>2025-09-25T11:44:04Z</time>
      </trkpt>
      <trkpt lat="48.54924" lon="-4.73459">
        <ele>21.4</ele>
        <time>2025-09-25T11:44:08Z</time>
      </trkpt>
      <trkpt lat="48.54924" lon="-4.73461">
        <ele>21</ele>
        <time>2025-09-25T11:44:11Z</time>
      </trkpt>
      <trkpt lat="48.54925" lon="-4.73463">
        <ele>20.8</ele>
        <time>2025-09-25T11:45:10Z</time>
      </trkpt>
      <trkpt lat="48.54926" lon="-4.73464">
        <ele>20.8</ele>
        <time>2025-09-25T11:45:11Z</time>
      </trkpt>
      <trkpt lat="48.54928" lon="-4.7347">
        <ele>20.6</ele>
        <time>2025-09-25T11:45:14Z</time>
      </trkpt>
      <trkpt lat="48.54936" lon="-4.73479">
        <ele>20.6</ele>
        <time>2025-09-25T11:45:21Z</time>
      </trkpt>
      <trkpt lat="48.54937" lon="-4.73479">
        <ele>20.6</ele>
        <time>2025-09-25T11:45:24Z</time>
      </trkpt>
      <trkpt lat="48.54937" lon="-4.73482">
        <ele>20.4</ele>
        <time>2025-09-25T11:45:26Z</time>
      </trkpt>
      <trkpt lat="48.54939" lon="-4.73486">
        <ele>19.8</ele>
        <time>2025-09-25T11:45:31Z</time>
      </trkpt>
      <trkpt lat="48.5494" lon="-4.73486">
        <ele>20</ele>
        <time>2025-09-25T11:45:34Z</time>
      </trkpt>
      <trkpt lat="48.54939" lon="-4.73483">
        <ele>20</ele>
        <time>2025-09-25T11:45:36Z</time>
      </trkpt>
      <trkpt lat="48.5494" lon="-4.73482">
        <ele>20</ele>
        <time>2025-09-25T11:45:37Z</time>
      </trkpt>
      <trkpt lat="48.5494" lon="-4.73482">
        <ele>20</ele>
        <time>2025-09-25T11:45:38Z</time>
      </trkpt>
      <trkpt lat="48.54941" lon="-4.73484">
        <ele>20</ele>
        <time>2025-09-25T11:45:40Z</time>
      </trkpt>
      <trkpt lat="48.54945" lon="-4.73481">
        <ele>20</ele>
        <time>2025-09-25T11:45:47Z</time>
      </trkpt>
      <trkpt lat="48.54946" lon="-4.73477">
        <ele>20</ele>
        <time>2025-09-25T11:45:56Z</time>
      </trkpt>
      <trkpt lat="48.54941" lon="-4.73485">
        <ele>20</ele>
        <time>2025-09-25T11:46:01Z</time>
      </trkpt>
      <trkpt lat="48.54941" lon="-4.73485">
        <ele>20.2</ele>
        <time>2025-09-25T11:46:03Z</time>
      </trkpt>
      <trkpt lat="48.54939" lon="-4.7349">
        <ele>20.2</ele>
        <time>2025-09-25T11:46:17Z</time>
      </trkpt>
      <trkpt lat="48.5494" lon="-4.73491">
        <ele>20.2</ele>
        <time>2025-09-25T11:46:20Z</time>
      </trkpt>
      <trkpt lat="48.54941" lon="-4.73492">
        <ele>20.4</ele>
        <time>2025-09-25T11:46:27Z</time>
      </trkpt>
      <trkpt lat="48.54944" lon="-4.73491">
        <ele>20</ele>
        <time>2025-09-25T11:46:31Z</time>
      </trkpt>
      <trkpt lat="48.54944" lon="-4.7349">
        <ele>20.2</ele>
        <time>2025-09-25T11:46:34Z</time>
      </trkpt>
      <trkpt lat="48.54944" lon="-4.7349">
        <ele>20.4</ele>
        <time>2025-09-25T11:47:06Z</time>
      </trkpt>
      <trkpt lat="48.54942" lon="-4.7349">
        <ele>20.4</ele>
        <time>2025-09-25T11:47:08Z</time>
      </trkpt>
      <trkpt lat="48.54937" lon="-4.73485">
        <ele>20.4</ele>
        <time>2025-09-25T11:47:14Z</time>
      </trkpt>
      <trkpt lat="48.54937" lon="-4.73482">
        <ele>20.4</ele>
        <time>2025-09-25T11:47:16Z</time>
      </trkpt>
      <trkpt lat="48.54937" lon="-4.73479">
        <ele>20.8</ele>
        <time>2025-09-25T11:47:19Z</time>
      </trkpt>
      <trkpt lat="48.54937" lon="-4.73478">
        <ele>20.8</ele>
        <time>2025-09-25T11:47:20Z</time>
      </trkpt>
      <trkpt lat="48.54937" lon="-4.73476">
        <ele>21</ele>
        <time>2025-09-25T11:47:23Z</time>
      </trkpt>
      <trkpt lat="48.54936" lon="-4.73473">
        <ele>21</ele>
        <time>2025-09-25T11:47:27Z</time>
      </trkpt>
      <trkpt lat="48.54934" lon="-4.73472">
        <ele>21</ele>
        <time>2025-09-25T11:47:29Z</time>
      </trkpt>
      <trkpt lat="48.54934" lon="-4.73472">
        <ele>21.2</ele>
        <time>2025-09-25T11:47:31Z</time>
      </trkpt>
      <trkpt lat="48.54933" lon="-4.73472">
        <ele>21.4</ele>
        <time>2025-09-25T11:47:43Z</time>
      </trkpt>
      <trkpt lat="48.54933" lon="-4.73474">
        <ele>21.4</ele>
        <time>2025-09-25T11:47:44Z</time>
      </trkpt>
      <trkpt lat="48.54934" lon="-4.73476">
        <ele>21.4</ele>
        <time>2025-09-25T11:47:46Z</time>
      </trkpt>
      <trkpt lat="48.54936" lon="-4.73478">
        <ele>21.4</ele>
        <time>2025-09-25T11:47:49Z</time>
      </trkpt>
      <trkpt lat="48.54936" lon="-4.73478">
        <ele>21.2</ele>
        <time>2025-09-25T11:47:51Z</time>
      </trkpt>
      <trkpt lat="48.54938" lon="-4.73481">
        <ele>21.4</ele>
        <time>2025-09-25T11:49:07Z</time>
      </trkpt>
      <trkpt lat="48.54938" lon="-4.73482">
        <ele>21.4</ele>
        <time>2025-09-25T11:49:08Z</time>
      </trkpt>
      <trkpt lat="48.54936" lon="-4.73484">
        <ele>21.4</ele>
        <time>2025-09-25T11:49:11Z</time>
      </trkpt>
      <trkpt lat="48.54935" lon="-4.73484">
        <ele>21.4</ele>
        <time>2025-09-25T11:49:12Z</time>
      </trkpt>
      <trkpt lat="48.54931" lon="-4.73477">
        <ele>21.4</ele>
        <time>2025-09-25T11:49:17Z</time>
      </trkpt>
      <trkpt lat="48.54928" lon="-4.73471">
        <ele>21.6</ele>
        <time>2025-09-25T11:49:23Z</time>
      </trkpt>
      <trkpt lat="48.54927" lon="-4.7347">
        <ele>21.6</ele>
        <time>2025-09-25T11:49:24Z</time>
      </trkpt>
      <trkpt lat="48.54927" lon="-4.73467">
        <ele>21.8</ele>
        <time>2025-09-25T11:49:29Z</time>
      </trkpt>
      <trkpt lat="48.54927" lon="-4.73466">
        <ele>21.8</ele>
        <time>2025-09-25T11:49:30Z</time>
      </trkpt>
      <trkpt lat="48.54926" lon="-4.73465">
        <ele>22</ele>
        <time>2025-09-25T11:49:49Z</time>
      </trkpt>
      <trkpt lat="48.54925" lon="-4.73464">
        <ele>22.2</ele>
        <time>2025-09-25T11:49:50Z</time>
      </trkpt>
      <trkpt lat="48.54923" lon="-4.73463">
        <ele>22.2</ele>
        <time>2025-09-25T11:49:52Z</time>
      </trkpt>
      <trkpt lat="48.54922" lon="-4.73464">
        <ele>22.2</ele>
        <time>2025-09-25T11:49:53Z</time>
      </trkpt>
      <trkpt lat="48.5491" lon="-4.73474">
        <ele>21.8</ele>
        <time>2025-09-25T11:49:59Z</time>
      </trkpt>
      <trkpt lat="48.54899" lon="-4.73489">
        <ele>21.4</ele>
        <time>2025-09-25T11:50:04Z</time>
      </trkpt>
      <trkpt lat="48.54895" lon="-4.73498">
        <ele>21.4</ele>
        <time>2025-09-25T11:50:06Z</time>
      </trkpt>
      <trkpt lat="48.54887" lon="-4.7352">
        <ele>20.6</ele>
        <time>2025-09-25T11:50:11Z</time>
      </trkpt>
      <trkpt lat="48.54886" lon="-4.73531">
        <ele>20.6</ele>
        <time>2025-09-25T11:50:13Z</time>
      </trkpt>
      <trkpt lat="48.5488" lon="-4.73563">
        <ele>20.8</ele>
        <time>2025-09-25T11:50:20Z</time>
      </trkpt>
      <trkpt lat="48.54878" lon="-4.73574">
        <ele>21.2</ele>
        <time>2025-09-25T11:50:24Z</time>
      </trkpt>
      <trkpt lat="48.54878" lon="-4.73577">
        <ele>21.4</ele>
        <time>2025-09-25T11:50:25Z</time>
      </trkpt>
      <trkpt lat="48.54877" lon="-4.7358">
        <ele>21.6</ele>
        <time>2025-09-25T11:50:26Z</time>
      </trkpt>
      <trkpt lat="48.54877" lon="-4.73583">
        <ele>21.8</ele>
        <time>2025-09-25T11:50:27Z</time>
      </trkpt>
      <trkpt lat="48.54873" lon="-4.73599">
        <ele>22.8</ele>
        <time>2025-09-25T11:50:33Z</time>
      </trkpt>
      <trkpt lat="48.54872" lon="-4.73602">
        <ele>23</ele>
        <time>2025-09-25T11:50:34Z</time>
      </trkpt>
      <trkpt lat="48.54866" lon="-4.7362">
        <ele>23.4</ele>
        <time>2025-09-25T11:50:40Z</time>
      </trkpt>
      <trkpt lat="48.54852" lon="-4.73646">
        <ele>23.8</ele>
        <time>2025-09-25T11:50:48Z</time>
      </trkpt>
      <trkpt lat="48.5485" lon="-4.73651">
        <ele>23.8</ele>
        <time>2025-09-25T11:50:49Z</time>
      </trkpt>
      <trkpt lat="48.54843" lon="-4.73663">
        <ele>23.8</ele>
        <time>2025-09-25T11:50:52Z</time>
      </trkpt>
      <trkpt lat="48.54841" lon="-4.73668">
        <ele>24</ele>
        <time>2025-09-25T11:50:53Z</time>
      </trkpt>
      <trkpt lat="48.54833" lon="-4.73682">
        <ele>24</ele>
        <time>2025-09-25T11:50:56Z</time>
      </trkpt>
      <trkpt lat="48.54826" lon="-4.73697">
        <ele>24.2</ele>
        <time>2025-09-25T11:50:59Z</time>
      </trkpt>
      <trkpt lat="48.54814" lon="-4.73721">
        <ele>24.2</ele>
        <time>2025-09-25T11:51:04Z</time>
      </trkpt>
      <trkpt lat="48.54797" lon="-4.7375">
        <ele>24.2</ele>
        <time>2025-09-25T11:51:11Z</time>
      </trkpt>
      <trkpt lat="48.54794" lon="-4.73758">
        <ele>24</ele>
        <time>2025-09-25T11:51:13Z</time>
      </trkpt>
      <trkpt lat="48.54788" lon="-4.7377">
        <ele>23.8</ele>
        <time>2025-09-25T11:51:18Z</time>
      </trkpt>
      <trkpt lat="48.54789" lon="-4.7377">
        <ele>23.8</ele>
        <time>2025-09-25T11:51:20Z</time>
      </trkpt>
      <trkpt lat="48.54787" lon="-4.73768">
        <ele>23.2</ele>
        <time>2025-09-25T11:51:56Z</time>
      </trkpt>
      <trkpt lat="48.54788" lon="-4.73765">
        <ele>23</ele>
        <time>2025-09-25T11:51:57Z</time>
      </trkpt>
      <trkpt lat="48.54789" lon="-4.73759">
        <ele>22.8</ele>
        <time>2025-09-25T11:51:59Z</time>
      </trkpt>
      <trkpt lat="48.54792" lon="-4.73753">
        <ele>22.8</ele>
        <time>2025-09-25T11:52:01Z</time>
      </trkpt>
      <trkpt lat="48.54797" lon="-4.73734">
        <ele>23.4</ele>
        <time>2025-09-25T11:52:07Z</time>
      </trkpt>
      <trkpt lat="48.54792" lon="-4.73731">
        <ele>24</ele>
        <time>2025-09-25T11:52:10Z</time>
      </trkpt>
      <trkpt lat="48.54779" lon="-4.73736">
        <ele>24.4</ele>
        <time>2025-09-25T11:52:16Z</time>
      </trkpt>
      <trkpt lat="48.54768" lon="-4.73736">
        <ele>25</ele>
        <time>2025-09-25T11:52:22Z</time>
      </trkpt>
      <trkpt lat="48.54765" lon="-4.73737">
        <ele>25</ele>
        <time>2025-09-25T11:52:24Z</time>
      </trkpt>
      <trkpt lat="48.54748" lon="-4.73737">
        <ele>25</ele>
        <time>2025-09-25T11:52:32Z</time>
      </trkpt>
      <trkpt lat="48.54733" lon="-4.73726">
        <ele>24.8</ele>
        <time>2025-09-25T11:52:39Z</time>
      </trkpt>
      <trkpt lat="48.54722" lon="-4.73718">
        <ele>24.8</ele>
        <time>2025-09-25T11:52:45Z</time>
      </trkpt>
      <trkpt lat="48.5471" lon="-4.7371">
        <ele>25</ele>
        <time>2025-09-25T11:52:50Z</time>
      </trkpt>
      <trkpt lat="48.54693" lon="-4.73701">
        <ele>25</ele>
        <time>2025-09-25T11:52:58Z</time>
      </trkpt>
      <trkpt lat="48.54676" lon="-4.73693">
        <ele>25</ele>
        <time>2025-09-25T11:53:06Z</time>
      </trkpt>
      <trkpt lat="48.54656" lon="-4.73688">
        <ele>25</ele>
        <time>2025-09-25T11:53:15Z</time>
      </trkpt>
      <trkpt lat="48.54634" lon="-4.73683">
        <ele>25.4</ele>
        <time>2025-09-25T11:53:25Z</time>
      </trkpt>
      <trkpt lat="48.54612" lon="-4.73681">
        <ele>25.8</ele>
        <time>2025-09-25T11:53:36Z</time>
      </trkpt>
      <trkpt lat="48.54598" lon="-4.7369">
        <ele>26</ele>
        <time>2025-09-25T11:53:43Z</time>
      </trkpt>
      <trkpt lat="48.54596" lon="-4.73691">
        <ele>26</ele>
        <time>2025-09-25T11:53:44Z</time>
      </trkpt>
      <trkpt lat="48.54578" lon="-4.73706">
        <ele>26.2</ele>
        <time>2025-09-25T11:53:54Z</time>
      </trkpt>
      <trkpt lat="48.54564" lon="-4.73717">
        <ele>26</ele>
        <time>2025-09-25T11:54:01Z</time>
      </trkpt>
      <trkpt lat="48.54547" lon="-4.73717">
        <ele>26</ele>
        <time>2025-09-25T11:54:09Z</time>
      </trkpt>
      <trkpt lat="48.54539" lon="-4.73725">
        <ele>25.8</ele>
        <time>2025-09-25T11:54:14Z</time>
      </trkpt>
      <trkpt lat="48.54532" lon="-4.73739">
        <ele>25.8</ele>
        <time>2025-09-25T11:54:20Z</time>
      </trkpt>
      <trkpt lat="48.54524" lon="-4.73749">
        <ele>25.8</ele>
        <time>2025-09-25T11:54:24Z</time>
      </trkpt>
      <trkpt lat="48.54518" lon="-4.73756">
        <ele>25.8</ele>
        <time>2025-09-25T11:54:27Z</time>
      </trkpt>
      <trkpt lat="48.54505" lon="-4.73767">
        <ele>25.8</ele>
        <time>2025-09-25T11:54:33Z</time>
      </trkpt>
      <trkpt lat="48.5449" lon="-4.73775">
        <ele>25.8</ele>
        <time>2025-09-25T11:54:40Z</time>
      </trkpt>
      <trkpt lat="48.54485" lon="-4.73777">
        <ele>25.8</ele>
        <time>2025-09-25T11:54:42Z</time>
      </trkpt>
      <trkpt lat="48.54465" lon="-4.73787">
        <ele>25.8</ele>
        <time>2025-09-25T11:54:50Z</time>
      </trkpt>
      <trkpt lat="48.54448" lon="-4.73798">
        <ele>26</ele>
        <time>2025-09-25T11:54:58Z</time>
      </trkpt>
      <trkpt lat="48.54432" lon="-4.73811">
        <ele>26.2</ele>
        <time>2025-09-25T11:55:07Z</time>
      </trkpt>
      <trkpt lat="48.54427" lon="-4.73823">
        <ele>26.2</ele>
        <time>2025-09-25T11:55:12Z</time>
      </trkpt>
      <trkpt lat="48.54409" lon="-4.73834">
        <ele>26.2</ele>
        <time>2025-09-25T11:55:21Z</time>
      </trkpt>
      <trkpt lat="48.54389" lon="-4.73844">
        <ele>26.4</ele>
        <time>2025-09-25T11:55:31Z</time>
      </trkpt>
      <trkpt lat="48.54367" lon="-4.73857">
        <ele>26.6</ele>
        <time>2025-09-25T11:55:43Z</time>
      </trkpt>
      <trkpt lat="48.54349" lon="-4.73868">
        <ele>26.8</ele>
        <time>2025-09-25T11:55:53Z</time>
      </trkpt>
      <trkpt lat="48.54333" lon="-4.73879">
        <ele>26.8</ele>
        <time>2025-09-25T11:56:02Z</time>
      </trkpt>
      <trkpt lat="48.54329" lon="-4.73881">
        <ele>27</ele>
        <time>2025-09-25T11:56:04Z</time>
      </trkpt>
      <trkpt lat="48.5432" lon="-4.73889">
        <ele>27</ele>
        <time>2025-09-25T11:56:10Z</time>
      </trkpt>
      <trkpt lat="48.54302" lon="-4.73907">
        <ele>26.8</ele>
        <time>2025-09-25T11:56:20Z</time>
      </trkpt>
      <trkpt lat="48.54285" lon="-4.73922">
        <ele>26.4</ele>
        <time>2025-09-25T11:56:29Z</time>
      </trkpt>
      <trkpt lat="48.54268" lon="-4.73936">
        <ele>26.6</ele>
        <time>2025-09-25T11:56:38Z</time>
      </trkpt>
      <trkpt lat="48.54251" lon="-4.73953">
        <ele>26.6</ele>
        <time>2025-09-25T11:56:48Z</time>
      </trkpt>
      <trkpt lat="48.54233" lon="-4.7397">
        <ele>26.4</ele>
        <time>2025-09-25T11:56:58Z</time>
      </trkpt>
      <trkpt lat="48.54222" lon="-4.73981">
        <ele>26.6</ele>
        <time>2025-09-25T11:57:05Z</time>
      </trkpt>
      <trkpt lat="48.54219" lon="-4.73985">
        <ele>26.6</ele>
        <time>2025-09-25T11:57:07Z</time>
      </trkpt>
      <trkpt lat="48.5421" lon="-4.73997">
        <ele>26.6</ele>
        <time>2025-09-25T11:57:12Z</time>
      </trkpt>
      <trkpt lat="48.54196" lon="-4.74008">
        <ele>26.4</ele>
        <time>2025-09-25T11:57:19Z</time>
      </trkpt>
      <trkpt lat="48.54178" lon="-4.74015">
        <ele>26.8</ele>
        <time>2025-09-25T11:57:26Z</time>
      </trkpt>
      <trkpt lat="48.54168" lon="-4.74016">
        <ele>26.8</ele>
        <time>2025-09-25T11:57:30Z</time>
      </trkpt>
      <trkpt lat="48.54163" lon="-4.74018">
        <ele>27</ele>
        <time>2025-09-25T11:57:32Z</time>
      </trkpt>
      <trkpt lat="48.54161" lon="-4.74018">
        <ele>27</ele>
        <time>2025-09-25T11:57:33Z</time>
      </trkpt>
      <trkpt lat="48.54148" lon="-4.7402">
        <ele>26.6</ele>
        <time>2025-09-25T11:57:38Z</time>
      </trkpt>
      <trkpt lat="48.54137" lon="-4.74027">
        <ele>26.6</ele>
        <time>2025-09-25T11:57:45Z</time>
      </trkpt>
      <trkpt lat="48.54136" lon="-4.74026">
        <ele>26.8</ele>
        <time>2025-09-25T11:57:49Z</time>
      </trkpt>
      <trkpt lat="48.54134" lon="-4.74029">
        <ele>26.6</ele>
        <time>2025-09-25T11:58:47Z</time>
      </trkpt>
      <trkpt lat="48.54133" lon="-4.74031">
        <ele>26.6</ele>
        <time>2025-09-25T11:58:48Z</time>
      </trkpt>
      <trkpt lat="48.54132" lon="-4.74032">
        <ele>26.6</ele>
        <time>2025-09-25T11:58:49Z</time>
      </trkpt>
      <trkpt lat="48.54128" lon="-4.74046">
        <ele>26.8</ele>
        <time>2025-09-25T11:58:54Z</time>
      </trkpt>
      <trkpt lat="48.54125" lon="-4.74061">
        <ele>27</ele>
        <time>2025-09-25T11:58:59Z</time>
      </trkpt>
      <trkpt lat="48.54127" lon="-4.74077">
        <ele>26.4</ele>
        <time>2025-09-25T11:59:05Z</time>
      </trkpt>
      <trkpt lat="48.54136" lon="-4.74107">
        <ele>26.8</ele>
        <time>2025-09-25T11:59:13Z</time>
      </trkpt>
      <trkpt lat="48.54143" lon="-4.74128">
        <ele>26.2</ele>
        <time>2025-09-25T11:59:19Z</time>
      </trkpt>
      <trkpt lat="48.54148" lon="-4.74144">
        <ele>26.2</ele>
        <time>2025-09-25T11:59:23Z</time>
      </trkpt>
      <trkpt lat="48.54152" lon="-4.74158">
        <ele>26</ele>
        <time>2025-09-25T11:59:26Z</time>
      </trkpt>
      <trkpt lat="48.54161" lon="-4.74186">
        <ele>25.6</ele>
        <time>2025-09-25T11:59:32Z</time>
      </trkpt>
      <trkpt lat="48.54173" lon="-4.7423">
        <ele>25</ele>
        <time>2025-09-25T11:59:40Z</time>
      </trkpt>
      <trkpt lat="48.54183" lon="-4.74258">
        <ele>25</ele>
        <time>2025-09-25T11:59:45Z</time>
      </trkpt>
      <trkpt lat="48.5419" lon="-4.74273">
        <ele>24.2</ele>
        <time>2025-09-25T11:59:48Z</time>
      </trkpt>
      <trkpt lat="48.54194" lon="-4.74283">
        <ele>23.8</ele>
        <time>2025-09-25T11:59:50Z</time>
      </trkpt>
      <trkpt lat="48.54214" lon="-4.74325">
        <ele>22.6</ele>
        <time>2025-09-25T11:59:58Z</time>
      </trkpt>
      <trkpt lat="48.54225" lon="-4.74344">
        <ele>21.4</ele>
        <time>2025-09-25T12:00:02Z</time>
      </trkpt>
      <trkpt lat="48.54237" lon="-4.74368">
        <ele>21.2</ele>
        <time>2025-09-25T12:00:07Z</time>
      </trkpt>
      <trkpt lat="48.54247" lon="-4.7439">
        <ele>20.4</ele>
        <time>2025-09-25T12:00:12Z</time>
      </trkpt>
      <trkpt lat="48.5425" lon="-4.744">
        <ele>19.8</ele>
        <time>2025-09-25T12:00:14Z</time>
      </trkpt>
      <trkpt lat="48.54251" lon="-4.74406">
        <ele>19.2</ele>
        <time>2025-09-25T12:00:15Z</time>
      </trkpt>
      <trkpt lat="48.54256" lon="-4.74424">
        <ele>18</ele>
        <time>2025-09-25T12:00:18Z</time>
      </trkpt>
      <trkpt lat="48.5426" lon="-4.7444">
        <ele>17.6</ele>
        <time>2025-09-25T12:00:21Z</time>
      </trkpt>
      <trkpt lat="48.54273" lon="-4.74472">
        <ele>17.2</ele>
        <time>2025-09-25T12:00:28Z</time>
      </trkpt>
      <trkpt lat="48.54274" lon="-4.74476">
        <ele>17</ele>
        <time>2025-09-25T12:00:29Z</time>
      </trkpt>
      <trkpt lat="48.54286" lon="-4.745">
        <ele>15.8</ele>
        <time>2025-09-25T12:00:34Z</time>
      </trkpt>
      <trkpt lat="48.54289" lon="-4.74506">
        <ele>15.8</ele>
        <time>2025-09-25T12:00:35Z</time>
      </trkpt>
      <trkpt lat="48.54304" lon="-4.74533">
        <ele>14.6</ele>
        <time>2025-09-25T12:00:40Z</time>
      </trkpt>
      <trkpt lat="48.54315" lon="-4.74549">
        <ele>14.2</ele>
        <time>2025-09-25T12:00:43Z</time>
      </trkpt>
      <trkpt lat="48.54333" lon="-4.74575">
        <ele>13.8</ele>
        <time>2025-09-25T12:00:48Z</time>
      </trkpt>
      <trkpt lat="48.54337" lon="-4.74581">
        <ele>13.6</ele>
        <time>2025-09-25T12:00:49Z</time>
      </trkpt>
      <trkpt lat="48.54344" lon="-4.74591">
        <ele>13</ele>
        <time>2025-09-25T12:00:51Z</time>
      </trkpt>
      <trkpt lat="48.54358" lon="-4.74605">
        <ele>12.6</ele>
        <time>2025-09-25T12:00:54Z</time>
      </trkpt>
      <trkpt lat="48.54381" lon="-4.74628">
        <ele>11.8</ele>
        <time>2025-09-25T12:00:59Z</time>
      </trkpt>
      <trkpt lat="48.544" lon="-4.74647">
        <ele>12</ele>
        <time>2025-09-25T12:01:04Z</time>
      </trkpt>
      <trkpt lat="48.54408" lon="-4.74666">
        <ele>12.4</ele>
        <time>2025-09-25T12:01:09Z</time>
      </trkpt>
      <trkpt lat="48.54404" lon="-4.74685">
        <ele>12.2</ele>
        <time>2025-09-25T12:01:13Z</time>
      </trkpt>
      <trkpt lat="48.54398" lon="-4.74698">
        <ele>12.2</ele>
        <time>2025-09-25T12:01:16Z</time>
      </trkpt>
      <trkpt lat="48.54389" lon="-4.74712">
        <ele>12.4</ele>
        <time>2025-09-25T12:01:19Z</time>
      </trkpt>
      <trkpt lat="48.54384" lon="-4.74721">
        <ele>12.6</ele>
        <time>2025-09-25T12:01:21Z</time>
      </trkpt>
      <trkpt lat="48.54367" lon="-4.74747">
        <ele>13.2</ele>
        <time>2025-09-25T12:01:27Z</time>
      </trkpt>
      <trkpt lat="48.5436" lon="-4.74758">
        <ele>13.6</ele>
        <time>2025-09-25T12:01:30Z</time>
      </trkpt>
      <trkpt lat="48.54349" lon="-4.74776">
        <ele>14.4</ele>
        <time>2025-09-25T12:01:35Z</time>
      </trkpt>
      <trkpt lat="48.54347" lon="-4.7478">
        <ele>14.6</ele>
        <time>2025-09-25T12:01:36Z</time>
      </trkpt>
      <trkpt lat="48.54333" lon="-4.748">
        <ele>15.8</ele>
        <time>2025-09-25T12:01:42Z</time>
      </trkpt>
      <trkpt lat="48.54329" lon="-4.74806">
        <ele>16.2</ele>
        <time>2025-09-25T12:01:44Z</time>
      </trkpt>
      <trkpt lat="48.54322" lon="-4.74816">
        <ele>16.8</ele>
        <time>2025-09-25T12:01:47Z</time>
      </trkpt>
      <trkpt lat="48.54319" lon="-4.74818">
        <ele>17</ele>
        <time>2025-09-25T12:01:48Z</time>
      </trkpt>
      <trkpt lat="48.54311" lon="-4.74828">
        <ele>17.8</ele>
        <time>2025-09-25T12:01:52Z</time>
      </trkpt>
      <trkpt lat="48.5431" lon="-4.7483">
        <ele>18</ele>
        <time>2025-09-25T12:01:53Z</time>
      </trkpt>
      <trkpt lat="48.543" lon="-4.74841">
        <ele>19</ele>
        <time>2025-09-25T12:01:58Z</time>
      </trkpt>
      <trkpt lat="48.54296" lon="-4.74844">
        <ele>19.6</ele>
        <time>2025-09-25T12:02:00Z</time>
      </trkpt>
      <trkpt lat="48.54291" lon="-4.74849">
        <ele>20.2</ele>
        <time>2025-09-25T12:02:03Z</time>
      </trkpt>
      <trkpt lat="48.54284" lon="-4.74854">
        <ele>21.2</ele>
        <time>2025-09-25T12:02:08Z</time>
      </trkpt>
      <trkpt lat="48.54282" lon="-4.74855">
        <ele>21.2</ele>
        <time>2025-09-25T12:02:09Z</time>
      </trkpt>
      <trkpt lat="48.54279" lon="-4.74858">
        <ele>21.8</ele>
        <time>2025-09-25T12:02:12Z</time>
      </trkpt>
      <trkpt lat="48.54275" lon="-4.7486">
        <ele>22.4</ele>
        <time>2025-09-25T12:02:15Z</time>
      </trkpt>
      <trkpt lat="48.54272" lon="-4.74862">
        <ele>22.8</ele>
        <time>2025-09-25T12:02:17Z</time>
      </trkpt>
      <trkpt lat="48.54268" lon="-4.74864">
        <ele>23.4</ele>
        <time>2025-09-25T12:02:20Z</time>
      </trkpt>
      <trkpt lat="48.54267" lon="-4.74865">
        <ele>23.4</ele>
        <time>2025-09-25T12:02:21Z</time>
      </trkpt>
      <trkpt lat="48.54263" lon="-4.74867">
        <ele>24</ele>
        <time>2025-09-25T12:02:24Z</time>
      </trkpt>
      <trkpt lat="48.54262" lon="-4.74867">
        <ele>24</ele>
        <time>2025-09-25T12:02:25Z</time>
      </trkpt>
      <trkpt lat="48.5426" lon="-4.7487">
        <ele>24.2</ele>
        <time>2025-09-25T12:02:27Z</time>
      </trkpt>
      <trkpt lat="48.54257" lon="-4.74872">
        <ele>24.6</ele>
        <time>2025-09-25T12:02:29Z</time>
      </trkpt>
      <trkpt lat="48.54253" lon="-4.74874">
        <ele>25</ele>
        <time>2025-09-25T12:02:32Z</time>
      </trkpt>
      <trkpt lat="48.54246" lon="-4.74876">
        <ele>25.6</ele>
        <time>2025-09-25T12:02:36Z</time>
      </trkpt>
      <trkpt lat="48.54239" lon="-4.74878">
        <ele>26.4</ele>
        <time>2025-09-25T12:02:41Z</time>
      </trkpt>
      <trkpt lat="48.54236" lon="-4.74879">
        <ele>26.6</ele>
        <time>2025-09-25T12:02:43Z</time>
      </trkpt>
      <trkpt lat="48.54225" lon="-4.7488">
        <ele>27.8</ele>
        <time>2025-09-25T12:02:50Z</time>
      </trkpt>
      <trkpt lat="48.54223" lon="-4.7488">
        <ele>27.8</ele>
        <time>2025-09-25T12:02:51Z</time>
      </trkpt>
      <trkpt lat="48.5421" lon="-4.74881">
        <ele>28.6</ele>
        <time>2025-09-25T12:03:00Z</time>
      </trkpt>
      <trkpt lat="48.54205" lon="-4.7488">
        <ele>28.8</ele>
        <time>2025-09-25T12:03:03Z</time>
      </trkpt>
      <trkpt lat="48.54199" lon="-4.74878">
        <ele>29</ele>
        <time>2025-09-25T12:03:07Z</time>
      </trkpt>
      <trkpt lat="48.5419" lon="-4.74878">
        <ele>29.2</ele>
        <time>2025-09-25T12:03:12Z</time>
      </trkpt>
      <trkpt lat="48.54176" lon="-4.74878">
        <ele>29.6</ele>
        <time>2025-09-25T12:03:20Z</time>
      </trkpt>
      <trkpt lat="48.54171" lon="-4.74877">
        <ele>29.8</ele>
        <time>2025-09-25T12:03:23Z</time>
      </trkpt>
      <trkpt lat="48.54165" lon="-4.74877">
        <ele>29.8</ele>
        <time>2025-09-25T12:03:27Z</time>
      </trkpt>
      <trkpt lat="48.54155" lon="-4.74875">
        <ele>30</ele>
        <time>2025-09-25T12:03:33Z</time>
      </trkpt>
      <trkpt lat="48.54149" lon="-4.74876">
        <ele>30</ele>
        <time>2025-09-25T12:03:37Z</time>
      </trkpt>
      <trkpt lat="48.54134" lon="-4.74875">
        <ele>30</ele>
        <time>2025-09-25T12:03:44Z</time>
      </trkpt>
      <trkpt lat="48.54124" lon="-4.74873">
        <ele>30</ele>
        <time>2025-09-25T12:03:48Z</time>
      </trkpt>
      <trkpt lat="48.54117" lon="-4.74872">
        <ele>30</ele>
        <time>2025-09-25T12:03:51Z</time>
      </trkpt>
      <trkpt lat="48.54116" lon="-4.74872">
        <ele>30</ele>
        <time>2025-09-25T12:03:52Z</time>
      </trkpt>
      <trkpt lat="48.54097" lon="-4.74871">
        <ele>29.8</ele>
        <time>2025-09-25T12:03:59Z</time>
      </trkpt>
      <trkpt lat="48.54077" lon="-4.74868">
        <ele>29.8</ele>
        <time>2025-09-25T12:04:07Z</time>
      </trkpt>
      <trkpt lat="48.54059" lon="-4.74866">
        <ele>29.4</ele>
        <time>2025-09-25T12:04:13Z</time>
      </trkpt>
      <trkpt lat="48.54056" lon="-4.74866">
        <ele>29.4</ele>
        <time>2025-09-25T12:04:14Z</time>
      </trkpt>
      <trkpt lat="48.5405" lon="-4.74864">
        <ele>29.4</ele>
        <time>2025-09-25T12:04:16Z</time>
      </trkpt>
      <trkpt lat="48.54044" lon="-4.74864">
        <ele>29.4</ele>
        <time>2025-09-25T12:04:18Z</time>
      </trkpt>
      <trkpt lat="48.5404" lon="-4.74866">
        <ele>29.4</ele>
        <time>2025-09-25T12:04:20Z</time>
      </trkpt>
      <trkpt lat="48.54038" lon="-4.74866">
        <ele>29.4</ele>
        <time>2025-09-25T12:04:23Z</time>
      </trkpt>
      <trkpt lat="48.54037" lon="-4.74866">
        <ele>29.6</ele>
        <time>2025-09-25T12:05:03Z</time>
      </trkpt>
      <trkpt lat="48.54035" lon="-4.74866">
        <ele>29.4</ele>
        <time>2025-09-25T12:05:04Z</time>
      </trkpt>
      <trkpt lat="48.54022" lon="-4.74864">
        <ele>29.4</ele>
        <time>2025-09-25T12:05:09Z</time>
      </trkpt>
      <trkpt lat="48.53996" lon="-4.74859">
        <ele>29</ele>
        <time>2025-09-25T12:05:16Z</time>
      </trkpt>
      <trkpt lat="48.53985" lon="-4.74856">
        <ele>28.6</ele>
        <time>2025-09-25T12:05:19Z</time>
      </trkpt>
      <trkpt lat="48.53959" lon="-4.74849">
        <ele>27.8</ele>
        <time>2025-09-25T12:05:25Z</time>
      </trkpt>
      <trkpt lat="48.5395" lon="-4.74846">
        <ele>27.6</ele>
        <time>2025-09-25T12:05:27Z</time>
      </trkpt>
      <trkpt lat="48.5394" lon="-4.74844">
        <ele>27.2</ele>
        <time>2025-09-25T12:05:29Z</time>
      </trkpt>
      <trkpt lat="48.53925" lon="-4.74841">
        <ele>26.6</ele>
        <time>2025-09-25T12:05:32Z</time>
      </trkpt>
      <trkpt lat="48.53919" lon="-4.7484">
        <ele>26.4</ele>
        <time>2025-09-25T12:05:33Z</time>
      </trkpt>
      <trkpt lat="48.539" lon="-4.74838">
        <ele>25.2</ele>
        <time>2025-09-25T12:05:36Z</time>
      </trkpt>
      <trkpt lat="48.53886" lon="-4.74838">
        <ele>24.6</ele>
        <time>2025-09-25T12:05:38Z</time>
      </trkpt>
      <trkpt lat="48.53872" lon="-4.74837">
        <ele>24</ele>
        <time>2025-09-25T12:05:40Z</time>
      </trkpt>
      <trkpt lat="48.53849" lon="-4.74836">
        <ele>22.6</ele>
        <time>2025-09-25T12:05:43Z</time>
      </trkpt>
      <trkpt lat="48.53827" lon="-4.74836">
        <ele>22</ele>
        <time>2025-09-25T12:05:46Z</time>
      </trkpt>
      <trkpt lat="48.53796" lon="-4.74834">
        <ele>21.6</ele>
        <time>2025-09-25T12:05:50Z</time>
      </trkpt>
      <trkpt lat="48.53771" lon="-4.74833">
        <ele>20.2</ele>
        <time>2025-09-25T12:05:53Z</time>
      </trkpt>
      <trkpt lat="48.53754" lon="-4.74832">
        <ele>19.2</ele>
        <time>2025-09-25T12:05:55Z</time>
      </trkpt>
      <trkpt lat="48.53745" lon="-4.74832">
        <ele>18.8</ele>
        <time>2025-09-25T12:05:56Z</time>
      </trkpt>
      <trkpt lat="48.53711" lon="-4.7483">
        <ele>19.2</ele>
        <time>2025-09-25T12:06:00Z</time>
      </trkpt>
      <trkpt lat="48.53695" lon="-4.74828">
        <ele>19.8</ele>
        <time>2025-09-25T12:06:02Z</time>
      </trkpt>
      <trkpt lat="48.53688" lon="-4.74828">
        <ele>19.8</ele>
        <time>2025-09-25T12:06:03Z</time>
      </trkpt>
      <trkpt lat="48.53657" lon="-4.74829">
        <ele>18.6</ele>
        <time>2025-09-25T12:06:07Z</time>
      </trkpt>
      <trkpt lat="48.53643" lon="-4.74832">
        <ele>18.4</ele>
        <time>2025-09-25T12:06:09Z</time>
      </trkpt>
      <trkpt lat="48.53617" lon="-4.74841">
        <ele>19.6</ele>
        <time>2025-09-25T12:06:13Z</time>
      </trkpt>
      <trkpt lat="48.53599" lon="-4.74849">
        <ele>20</ele>
        <time>2025-09-25T12:06:16Z</time>
      </trkpt>
      <trkpt lat="48.53565" lon="-4.74867">
        <ele>18</ele>
        <time>2025-09-25T12:06:21Z</time>
      </trkpt>
      <trkpt lat="48.53557" lon="-4.74871">
        <ele>17.6</ele>
        <time>2025-09-25T12:06:22Z</time>
      </trkpt>
      <trkpt lat="48.53549" lon="-4.74876">
        <ele>17</ele>
        <time>2025-09-25T12:06:23Z</time>
      </trkpt>
      <trkpt lat="48.53524" lon="-4.7489">
        <ele>15.6</ele>
        <time>2025-09-25T12:06:26Z</time>
      </trkpt>
      <trkpt lat="48.535" lon="-4.74904">
        <ele>14</ele>
        <time>2025-09-25T12:06:29Z</time>
      </trkpt>
      <trkpt lat="48.53491" lon="-4.74909">
        <ele>13.8</ele>
        <time>2025-09-25T12:06:30Z</time>
      </trkpt>
      <trkpt lat="48.53474" lon="-4.7492">
        <ele>13</ele>
        <time>2025-09-25T12:06:32Z</time>
      </trkpt>
      <trkpt lat="48.53457" lon="-4.74931">
        <ele>12.4</ele>
        <time>2025-09-25T12:06:34Z</time>
      </trkpt>
      <trkpt lat="48.53425" lon="-4.74953">
        <ele>13</ele>
        <time>2025-09-25T12:06:38Z</time>
      </trkpt>
      <trkpt lat="48.53404" lon="-4.74966">
        <ele>14.2</ele>
        <time>2025-09-25T12:06:41Z</time>
      </trkpt>
      <trkpt lat="48.53386" lon="-4.74977">
        <ele>15.2</ele>
        <time>2025-09-25T12:06:44Z</time>
      </trkpt>
      <trkpt lat="48.5338" lon="-4.7498">
        <ele>15.4</ele>
        <time>2025-09-25T12:06:45Z</time>
      </trkpt>
      <trkpt lat="48.53354" lon="-4.74993">
        <ele>16.4</ele>
        <time>2025-09-25T12:06:50Z</time>
      </trkpt>
      <trkpt lat="48.53314" lon="-4.75011">
        <ele>14.6</ele>
        <time>2025-09-25T12:06:57Z</time>
      </trkpt>
      <trkpt lat="48.53307" lon="-4.75014">
        <ele>14.2</ele>
        <time>2025-09-25T12:06:58Z</time>
      </trkpt>
      <trkpt lat="48.533" lon="-4.75017">
        <ele>13.8</ele>
        <time>2025-09-25T12:06:59Z</time>
      </trkpt>
      <trkpt lat="48.53293" lon="-4.75019">
        <ele>13.4</ele>
        <time>2025-09-25T12:07:00Z</time>
      </trkpt>
      <trkpt lat="48.53286" lon="-4.75022">
        <ele>13.2</ele>
        <time>2025-09-25T12:07:01Z</time>
      </trkpt>
      <trkpt lat="48.53264" lon="-4.75027">
        <ele>12.4</ele>
        <time>2025-09-25T12:07:04Z</time>
      </trkpt>
      <trkpt lat="48.53256" lon="-4.75028">
        <ele>12</ele>
        <time>2025-09-25T12:07:05Z</time>
      </trkpt>
      <trkpt lat="48.53248" lon="-4.75028">
        <ele>11.8</ele>
        <time>2025-09-25T12:07:06Z</time>
      </trkpt>
      <trkpt lat="48.53233" lon="-4.75024">
        <ele>11.2</ele>
        <time>2025-09-25T12:07:08Z</time>
      </trkpt>
      <trkpt lat="48.53226" lon="-4.75022">
        <ele>11.2</ele>
        <time>2025-09-25T12:07:09Z</time>
      </trkpt>
      <trkpt lat="48.5321" lon="-4.75009">
        <ele>12.4</ele>
        <time>2025-09-25T12:07:13Z</time>
      </trkpt>
      <trkpt lat="48.532" lon="-4.75004">
        <ele>13</ele>
        <time>2025-09-25T12:07:18Z</time>
      </trkpt>
      <trkpt lat="48.53194" lon="-4.75007">
        <ele>13.2</ele>
        <time>2025-09-25T12:07:23Z</time>
      </trkpt>
      <trkpt lat="48.53194" lon="-4.75007">
        <ele>13.2</ele>
        <time>2025-09-25T12:07:24Z</time>
      </trkpt>
      <trkpt lat="48.53194" lon="-4.75005">
        <ele>13</ele>
        <time>2025-09-25T12:07:37Z</time>
      </trkpt>
      <trkpt lat="48.53193" lon="-4.74998">
        <ele>12.6</ele>
        <time>2025-09-25T12:07:40Z</time>
      </trkpt>
      <trkpt lat="48.53188" lon="-4.74991">
        <ele>13.6</ele>
        <time>2025-09-25T12:07:44Z</time>
      </trkpt>
      <trkpt lat="48.53186" lon="-4.74987">
        <ele>13.8</ele>
        <time>2025-09-25T12:07:46Z</time>
      </trkpt>
      <trkpt lat="48.5318" lon="-4.74976">
        <ele>14</ele>
        <time>2025-09-25T12:07:51Z</time>
      </trkpt>
      <trkpt lat="48.53179" lon="-4.74974">
        <ele>14.2</ele>
        <time>2025-09-25T12:07:52Z</time>
      </trkpt>
      <trkpt lat="48.53176" lon="-4.7497">
        <ele>14.2</ele>
        <time>2025-09-25T12:07:54Z</time>
      </trkpt>
      <trkpt lat="48.5317" lon="-4.74963">
        <ele>14.4</ele>
        <time>2025-09-25T12:07:59Z</time>
      </trkpt>
      <trkpt lat="48.53168" lon="-4.74963">
        <ele>14.4</ele>
        <time>2025-09-25T12:08:00Z</time>
      </trkpt>
      <trkpt lat="48.53168" lon="-4.7497">
        <ele>14.2</ele>
        <time>2025-09-25T12:08:03Z</time>
      </trkpt>
      <trkpt lat="48.53174" lon="-4.74988">
        <ele>13.2</ele>
        <time>2025-09-25T12:08:08Z</time>
      </trkpt>
      <trkpt lat="48.53174" lon="-4.74992">
        <ele>13</ele>
        <time>2025-09-25T12:08:09Z</time>
      </trkpt>
      <trkpt lat="48.53176" lon="-4.75001">
        <ele>12.6</ele>
        <time>2025-09-25T12:08:13Z</time>
      </trkpt>
      <trkpt lat="48.53177" lon="-4.75005">
        <ele>12.6</ele>
        <time>2025-09-25T12:08:15Z</time>
      </trkpt>
      <trkpt lat="48.53177" lon="-4.75007">
        <ele>12.2</ele>
        <time>2025-09-25T12:08:17Z</time>
      </trkpt>
      <trkpt lat="48.53178" lon="-4.75007">
        <ele>12.2</ele>
        <time>2025-09-25T12:08:18Z</time>
      </trkpt>
      <trkpt lat="48.53177" lon="-4.75009">
        <ele>12</ele>
        <time>2025-09-25T12:08:23Z</time>
      </trkpt>
      <trkpt lat="48.53177" lon="-4.75011">
        <ele>12</ele>
        <time>2025-09-25T12:08:24Z</time>
      </trkpt>
      <trkpt lat="48.53176" lon="-4.75011">
        <ele>12</ele>
        <time>2025-09-25T12:08:25Z</time>
      </trkpt>
      <trkpt lat="48.53176" lon="-4.75011">
        <ele>11.8</ele>
        <time>2025-09-25T12:08:29Z</time>
      </trkpt>
      <trkpt lat="48.53176" lon="-4.75009">
        <ele>10.6</ele>
        <time>2025-09-25T13:15:58Z</time>
      </trkpt>
      <trkpt lat="48.53176" lon="-4.7501">
        <ele>10.6</ele>
        <time>2025-09-25T13:15:59Z</time>
      </trkpt>
      <trkpt lat="48.53175" lon="-4.75009">
        <ele>10.6</ele>
        <time>2025-09-25T13:16:09Z</time>
      </trkpt>
      <trkpt lat="48.53176" lon="-4.7501">
        <ele>10.6</ele>
        <time>2025-09-25T13:16:11Z</time>
      </trkpt>
      <trkpt lat="48.53177" lon="-4.75009">
        <ele>10.6</ele>
        <time>2025-09-25T13:16:20Z</time>
      </trkpt>
      <trkpt lat="48.53177" lon="-4.75008">
        <ele>10.6</ele>
        <time>2025-09-25T13:16:22Z</time>
      </trkpt>
      <trkpt lat="48.53177" lon="-4.7501">
        <ele>10.6</ele>
        <time>2025-09-25T13:16:28Z</time>
      </trkpt>
      <trkpt lat="48.53177" lon="-4.75011">
        <ele>10.6</ele>
        <time>2025-09-25T13:16:30Z</time>
      </trkpt>
      <trkpt lat="48.53175" lon="-4.75011">
        <ele>10.6</ele>
        <time>2025-09-25T13:16:47Z</time>
      </trkpt>
      <trkpt lat="48.53176" lon="-4.75012">
        <ele>10.6</ele>
        <time>2025-09-25T13:16:49Z</time>
      </trkpt>
      <trkpt lat="48.53176" lon="-4.75013">
        <ele>10.6</ele>
        <time>2025-09-25T13:17:11Z</time>
      </trkpt>
      <trkpt lat="48.53176" lon="-4.75012">
        <ele>10.6</ele>
        <time>2025-09-25T13:17:12Z</time>
      </trkpt>
      <trkpt lat="48.53176" lon="-4.75009">
        <ele>10.6</ele>
        <time>2025-09-25T13:17:18Z</time>
      </trkpt>
      <trkpt lat="48.53176" lon="-4.75011">
        <ele>10.6</ele>
        <time>2025-09-25T13:17:40Z</time>
      </trkpt>
      <trkpt lat="48.53176" lon="-4.75011">
        <ele>10.6</ele>
        <time>2025-09-25T13:17:42Z</time>
      </trkpt>
      <trkpt lat="48.53176" lon="-4.75011">
        <ele>10.6</ele>
        <time>2025-09-25T13:18:10Z</time>
      </trkpt>
      <trkpt lat="48.53176" lon="-4.75011">
        <ele>10.6</ele>
        <time>2025-09-25T13:18:11Z</time>
      </trkpt>
      <trkpt lat="48.53176" lon="-4.75011">
        <ele>10.6</ele>
        <time>2025-09-25T13:18:12Z</time>
      </trkpt>
      <trkpt lat="48.53176" lon="-4.75011">
        <ele>10.6</ele>
        <time>2025-09-25T13:18:18Z</time>
      </trkpt>
      <trkpt lat="48.53176" lon="-4.7501">
        <ele>10.6</ele>
        <time>2025-09-25T13:18:21Z</time>
      </trkpt>
      <trkpt lat="48.53175" lon="-4.7501">
        <ele>10.6</ele>
        <time>2025-09-25T13:18:27Z</time>
      </trkpt>
      <trkpt lat="48.53176" lon="-4.75011">
        <ele>10.6</ele>
        <time>2025-09-25T13:18:29Z</time>
      </trkpt>
      <trkpt lat="48.53177" lon="-4.75011">
        <ele>10.6</ele>
        <time>2025-09-25T13:20:10Z</time>
      </trkpt>
      <trkpt lat="48.53177" lon="-4.75011">
        <ele>10.6</ele>
        <time>2025-09-25T13:20:11Z</time>
      </trkpt>
      <trkpt lat="48.53177" lon="-4.75006">
        <ele>10.6</ele>
        <time>2025-09-25T13:20:17Z</time>
      </trkpt>
      <trkpt lat="48.53178" lon="-4.75004">
        <ele>10.6</ele>
        <time>2025-09-25T13:20:38Z</time>
      </trkpt>
      <trkpt lat="48.53178" lon="-4.75001">
        <ele>10.2</ele>
        <time>2025-09-25T13:20:40Z</time>
      </trkpt>
      <trkpt lat="48.53177" lon="-4.75">
        <ele>10.4</ele>
        <time>2025-09-25T13:20:41Z</time>
      </trkpt>
      <trkpt lat="48.53177" lon="-4.74998">
        <ele>10.6</ele>
        <time>2025-09-25T13:20:42Z</time>
      </trkpt>
      <trkpt lat="48.53177" lon="-4.74997">
        <ele>10.8</ele>
        <time>2025-09-25T13:20:43Z</time>
      </trkpt>
      <trkpt lat="48.53176" lon="-4.74993">
        <ele>10.8</ele>
        <time>2025-09-25T13:20:46Z</time>
      </trkpt>
      <trkpt lat="48.53172" lon="-4.74978">
        <ele>11.2</ele>
        <time>2025-09-25T13:20:55Z</time>
      </trkpt>
      <trkpt lat="48.5317" lon="-4.74971">
        <ele>11.6</ele>
        <time>2025-09-25T13:20:59Z</time>
      </trkpt>
      <trkpt lat="48.53168" lon="-4.74965">
        <ele>12.2</ele>
        <time>2025-09-25T13:21:03Z</time>
      </trkpt>
      <trkpt lat="48.53167" lon="-4.74958">
        <ele>12.8</ele>
        <time>2025-09-25T13:21:09Z</time>
      </trkpt>
      <trkpt lat="48.53167" lon="-4.74958">
        <ele>12.8</ele>
        <time>2025-09-25T13:21:10Z</time>
      </trkpt>
      <trkpt lat="48.53167" lon="-4.74958">
        <ele>12.8</ele>
        <time>2025-09-25T13:21:11Z</time>
      </trkpt>
      <trkpt lat="48.53166" lon="-4.74957">
        <ele>12.8</ele>
        <time>2025-09-25T13:21:17Z</time>
      </trkpt>
      <trkpt lat="48.53166" lon="-4.74957">
        <ele>13</ele>
        <time>2025-09-25T13:21:19Z</time>
      </trkpt>
      <trkpt lat="48.53167" lon="-4.74954">
        <ele>13.2</ele>
        <time>2025-09-25T13:21:21Z</time>
      </trkpt>
      <trkpt lat="48.53167" lon="-4.74952">
        <ele>13.2</ele>
        <time>2025-09-25T13:21:23Z</time>
      </trkpt>
      <trkpt lat="48.53165" lon="-4.74947">
        <ele>13.2</ele>
        <time>2025-09-25T13:21:27Z</time>
      </trkpt>
      <trkpt lat="48.53163" lon="-4.74944">
        <ele>13.2</ele>
        <time>2025-09-25T13:21:29Z</time>
      </trkpt>
      <trkpt lat="48.53155" lon="-4.74936">
        <ele>13.8</ele>
        <time>2025-09-25T13:21:34Z</time>
      </trkpt>
      <trkpt lat="48.53151" lon="-4.74933">
        <ele>13.8</ele>
        <time>2025-09-25T13:21:36Z</time>
      </trkpt>
      <trkpt lat="48.53144" lon="-4.74925">
        <ele>14.2</ele>
        <time>2025-09-25T13:21:41Z</time>
      </trkpt>
      <trkpt lat="48.5313" lon="-4.74909">
        <ele>14.2</ele>
        <time>2025-09-25T13:21:48Z</time>
      </trkpt>
      <trkpt lat="48.53113" lon="-4.74885">
        <ele>13.4</ele>
        <time>2025-09-25T13:21:55Z</time>
      </trkpt>
      <trkpt lat="48.5309" lon="-4.74842">
        <ele>12.6</ele>
        <time>2025-09-25T13:22:05Z</time>
      </trkpt>
      <trkpt lat="48.53082" lon="-4.74825">
        <ele>12.4</ele>
        <time>2025-09-25T13:22:09Z</time>
      </trkpt>
      <trkpt lat="48.53075" lon="-4.74811">
        <ele>12.6</ele>
        <time>2025-09-25T13:22:13Z</time>
      </trkpt>
      <trkpt lat="48.53063" lon="-4.74785">
        <ele>13.2</ele>
        <time>2025-09-25T13:22:21Z</time>
      </trkpt>
      <trkpt lat="48.53058" lon="-4.74776">
        <ele>13.6</ele>
        <time>2025-09-25T13:22:24Z</time>
      </trkpt>
      <trkpt lat="48.53056" lon="-4.74773">
        <ele>13.8</ele>
        <time>2025-09-25T13:22:25Z</time>
      </trkpt>
      <trkpt lat="48.53041" lon="-4.74747">
        <ele>14.2</ele>
        <time>2025-09-25T13:22:34Z</time>
      </trkpt>
      <trkpt lat="48.53034" lon="-4.74735">
        <ele>15</ele>
        <time>2025-09-25T13:22:38Z</time>
      </trkpt>
      <trkpt lat="48.53024" lon="-4.7472">
        <ele>15.4</ele>
        <time>2025-09-25T13:22:43Z</time>
      </trkpt>
      <trkpt lat="48.53005" lon="-4.74695">
        <ele>14.8</ele>
        <time>2025-09-25T13:22:50Z</time>
      </trkpt>
      <trkpt lat="48.52996" lon="-4.74682">
        <ele>14</ele>
        <time>2025-09-25T13:22:53Z</time>
      </trkpt>
      <trkpt lat="48.52981" lon="-4.74664">
        <ele>12.4</ele>
        <time>2025-09-25T13:22:57Z</time>
      </trkpt>
      <trkpt lat="48.52973" lon="-4.74655">
        <ele>11.2</ele>
        <time>2025-09-25T13:22:59Z</time>
      </trkpt>
      <trkpt lat="48.52963" lon="-4.74645">
        <ele>10</ele>
        <time>2025-09-25T13:23:01Z</time>
      </trkpt>
      <trkpt lat="48.52953" lon="-4.74636">
        <ele>9</ele>
        <time>2025-09-25T13:23:03Z</time>
      </trkpt>
      <trkpt lat="48.52948" lon="-4.7463">
        <ele>8.6</ele>
        <time>2025-09-25T13:23:04Z</time>
      </trkpt>
      <trkpt lat="48.52932" lon="-4.74617">
        <ele>7.2</ele>
        <time>2025-09-25T13:23:07Z</time>
      </trkpt>
      <trkpt lat="48.52926" lon="-4.74613">
        <ele>6.6</ele>
        <time>2025-09-25T13:23:08Z</time>
      </trkpt>
      <trkpt lat="48.5292" lon="-4.7461">
        <ele>6.4</ele>
        <time>2025-09-25T13:23:09Z</time>
      </trkpt>
      <trkpt lat="48.52904" lon="-4.74606">
        <ele>7.4</ele>
        <time>2025-09-25T13:23:12Z</time>
      </trkpt>
      <trkpt lat="48.52894" lon="-4.74607">
        <ele>8.2</ele>
        <time>2025-09-25T13:23:14Z</time>
      </trkpt>
      <trkpt lat="48.52882" lon="-4.74605">
        <ele>8.6</ele>
        <time>2025-09-25T13:23:17Z</time>
      </trkpt>
      <trkpt lat="48.5288" lon="-4.74602">
        <ele>8.8</ele>
        <time>2025-09-25T13:23:18Z</time>
      </trkpt>
      <trkpt lat="48.52877" lon="-4.74595">
        <ele>8.8</ele>
        <time>2025-09-25T13:23:20Z</time>
      </trkpt>
      <trkpt lat="48.52877" lon="-4.74577">
        <ele>8.6</ele>
        <time>2025-09-25T13:23:24Z</time>
      </trkpt>
      <trkpt lat="48.52878" lon="-4.74573">
        <ele>8.8</ele>
        <time>2025-09-25T13:23:25Z</time>
      </trkpt>
      <trkpt lat="48.52883" lon="-4.74556">
        <ele>8.6</ele>
        <time>2025-09-25T13:23:29Z</time>
      </trkpt>
      <trkpt lat="48.52888" lon="-4.7454">
        <ele>9.4</ele>
        <time>2025-09-25T13:23:33Z</time>
      </trkpt>
      <trkpt lat="48.52892" lon="-4.74528">
        <ele>9.8</ele>
        <time>2025-09-25T13:23:36Z</time>
      </trkpt>
      <trkpt lat="48.52896" lon="-4.74518">
        <ele>10.6</ele>
        <time>2025-09-25T13:23:39Z</time>
      </trkpt>
      <trkpt lat="48.52905" lon="-4.74493">
        <ele>11.6</ele>
        <time>2025-09-25T13:23:46Z</time>
      </trkpt>
      <trkpt lat="48.52906" lon="-4.74489">
        <ele>11.8</ele>
        <time>2025-09-25T13:23:47Z</time>
      </trkpt>
      <trkpt lat="48.52911" lon="-4.74467">
        <ele>12.4</ele>
        <time>2025-09-25T13:23:54Z</time>
      </trkpt>
      <trkpt lat="48.52917" lon="-4.74452">
        <ele>12.4</ele>
        <time>2025-09-25T13:23:59Z</time>
      </trkpt>
      <trkpt lat="48.52923" lon="-4.74435">
        <ele>13</ele>
        <time>2025-09-25T13:24:04Z</time>
      </trkpt>
      <trkpt lat="48.52926" lon="-4.74424">
        <ele>13.4</ele>
        <time>2025-09-25T13:24:07Z</time>
      </trkpt>
      <trkpt lat="48.52933" lon="-4.74396">
        <ele>14</ele>
        <time>2025-09-25T13:24:15Z</time>
      </trkpt>
      <trkpt lat="48.52942" lon="-4.74369">
        <ele>15.2</ele>
        <time>2025-09-25T13:24:23Z</time>
      </trkpt>
      <trkpt lat="48.52943" lon="-4.74366">
        <ele>15.4</ele>
        <time>2025-09-25T13:24:24Z</time>
      </trkpt>
      <trkpt lat="48.5295" lon="-4.74345">
        <ele>16.4</ele>
        <time>2025-09-25T13:24:30Z</time>
      </trkpt>
      <trkpt lat="48.52953" lon="-4.74332">
        <ele>17</ele>
        <time>2025-09-25T13:24:34Z</time>
      </trkpt>
      <trkpt lat="48.52958" lon="-4.74315">
        <ele>17.4</ele>
        <time>2025-09-25T13:24:39Z</time>
      </trkpt>
      <trkpt lat="48.52961" lon="-4.74306">
        <ele>17.6</ele>
        <time>2025-09-25T13:24:42Z</time>
      </trkpt>
      <trkpt lat="48.52967" lon="-4.74283">
        <ele>18.6</ele>
        <time>2025-09-25T13:24:50Z</time>
      </trkpt>
      <trkpt lat="48.52967" lon="-4.7428">
        <ele>18.6</ele>
        <time>2025-09-25T13:24:51Z</time>
      </trkpt>
      <trkpt lat="48.52972" lon="-4.74256">
        <ele>18.4</ele>
        <time>2025-09-25T13:24:59Z</time>
      </trkpt>
      <trkpt lat="48.52974" lon="-4.74247">
        <ele>18.8</ele>
        <time>2025-09-25T13:25:02Z</time>
      </trkpt>
      <trkpt lat="48.52979" lon="-4.74225">
        <ele>19.6</ele>
        <time>2025-09-25T13:25:09Z</time>
      </trkpt>
      <trkpt lat="48.52982" lon="-4.74211">
        <ele>19.6</ele>
        <time>2025-09-25T13:25:13Z</time>
      </trkpt>
      <trkpt lat="48.52985" lon="-4.74193">
        <ele>19.8</ele>
        <time>2025-09-25T13:25:18Z</time>
      </trkpt>
      <trkpt lat="48.52988" lon="-4.74172">
        <ele>19.8</ele>
        <time>2025-09-25T13:25:24Z</time>
      </trkpt>
      <trkpt lat="48.52992" lon="-4.74136">
        <ele>20.2</ele>
        <time>2025-09-25T13:25:35Z</time>
      </trkpt>
      <trkpt lat="48.52993" lon="-4.74129">
        <ele>20.6</ele>
        <time>2025-09-25T13:25:37Z</time>
      </trkpt>
      <trkpt lat="48.52996" lon="-4.74101">
        <ele>20.6</ele>
        <time>2025-09-25T13:25:44Z</time>
      </trkpt>
      <trkpt lat="48.52997" lon="-4.74082">
        <ele>21.6</ele>
        <time>2025-09-25T13:25:49Z</time>
      </trkpt>
      <trkpt lat="48.52998" lon="-4.74053">
        <ele>21.8</ele>
        <time>2025-09-25T13:25:56Z</time>
      </trkpt>
      <trkpt lat="48.52998" lon="-4.7401">
        <ele>22.2</ele>
        <time>2025-09-25T13:26:07Z</time>
      </trkpt>
      <trkpt lat="48.52999" lon="-4.73994">
        <ele>22.8</ele>
        <time>2025-09-25T13:26:11Z</time>
      </trkpt>
      <trkpt lat="48.52999" lon="-4.73975">
        <ele>23.2</ele>
        <time>2025-09-25T13:26:16Z</time>
      </trkpt>
      <trkpt lat="48.53" lon="-4.73957">
        <ele>23.8</ele>
        <time>2025-09-25T13:26:21Z</time>
      </trkpt>
      <trkpt lat="48.53" lon="-4.73931">
        <ele>24.2</ele>
        <time>2025-09-25T13:26:28Z</time>
      </trkpt>
      <trkpt lat="48.53" lon="-4.73921">
        <ele>24.6</ele>
        <time>2025-09-25T13:26:31Z</time>
      </trkpt>
      <trkpt lat="48.53" lon="-4.73902">
        <ele>24.6</ele>
        <time>2025-09-25T13:26:36Z</time>
      </trkpt>
      <trkpt lat="48.53" lon="-4.73891">
        <ele>25</ele>
        <time>2025-09-25T13:26:39Z</time>
      </trkpt>
      <trkpt lat="48.53" lon="-4.73856">
        <ele>25.2</ele>
        <time>2025-09-25T13:26:49Z</time>
      </trkpt>
      <trkpt lat="48.53" lon="-4.73838">
        <ele>26.2</ele>
        <time>2025-09-25T13:26:54Z</time>
      </trkpt>
      <trkpt lat="48.53001" lon="-4.73825">
        <ele>26.6</ele>
        <time>2025-09-25T13:26:58Z</time>
      </trkpt>
      <trkpt lat="48.53002" lon="-4.73787">
        <ele>26.6</ele>
        <time>2025-09-25T13:27:08Z</time>
      </trkpt>
      <trkpt lat="48.53003" lon="-4.73755">
        <ele>26.6</ele>
        <time>2025-09-25T13:27:16Z</time>
      </trkpt>
      <trkpt lat="48.53005" lon="-4.73734">
        <ele>27.2</ele>
        <time>2025-09-25T13:27:21Z</time>
      </trkpt>
      <trkpt lat="48.53009" lon="-4.73712">
        <ele>26.4</ele>
        <time>2025-09-25T13:27:26Z</time>
      </trkpt>
      <trkpt lat="48.53011" lon="-4.73698">
        <ele>26.4</ele>
        <time>2025-09-25T13:27:29Z</time>
      </trkpt>
      <trkpt lat="48.53013" lon="-4.73689">
        <ele>26.2</ele>
        <time>2025-09-25T13:27:31Z</time>
      </trkpt>
      <trkpt lat="48.53017" lon="-4.73663">
        <ele>26.6</ele>
        <time>2025-09-25T13:27:36Z</time>
      </trkpt>
      <trkpt lat="48.53012" lon="-4.73639">
        <ele>28</ele>
        <time>2025-09-25T13:27:42Z</time>
      </trkpt>
      <trkpt lat="48.53006" lon="-4.73634">
        <ele>28.2</ele>
        <time>2025-09-25T13:27:45Z</time>
      </trkpt>
      <trkpt lat="48.53001" lon="-4.73636">
        <ele>28.4</ele>
        <time>2025-09-25T13:27:47Z</time>
      </trkpt>
      <trkpt lat="48.5298" lon="-4.73648">
        <ele>28.8</ele>
        <time>2025-09-25T13:27:55Z</time>
      </trkpt>
      <trkpt lat="48.52957" lon="-4.73655">
        <ele>29.2</ele>
        <time>2025-09-25T13:28:03Z</time>
      </trkpt>
      <trkpt lat="48.52952" lon="-4.73656">
        <ele>29.4</ele>
        <time>2025-09-25T13:28:05Z</time>
      </trkpt>
      <trkpt lat="48.52931" lon="-4.73657">
        <ele>29.6</ele>
        <time>2025-09-25T13:28:12Z</time>
      </trkpt>
      <trkpt lat="48.52909" lon="-4.73657">
        <ele>30.2</ele>
        <time>2025-09-25T13:28:20Z</time>
      </trkpt>
      <trkpt lat="48.52906" lon="-4.73658">
        <ele>30.4</ele>
        <time>2025-09-25T13:28:21Z</time>
      </trkpt>
      <trkpt lat="48.52893" lon="-4.73659">
        <ele>30.2</ele>
        <time>2025-09-25T13:28:26Z</time>
      </trkpt>
      <trkpt lat="48.52888" lon="-4.7366">
        <ele>30.4</ele>
        <time>2025-09-25T13:28:28Z</time>
      </trkpt>
      <trkpt lat="48.52881" lon="-4.73661">
        <ele>30.6</ele>
        <time>2025-09-25T13:28:31Z</time>
      </trkpt>
      <trkpt lat="48.52875" lon="-4.73666">
        <ele>30.8</ele>
        <time>2025-09-25T13:28:34Z</time>
      </trkpt>
      <trkpt lat="48.5287" lon="-4.73683">
        <ele>31.2</ele>
        <time>2025-09-25T13:28:39Z</time>
      </trkpt>
      <trkpt lat="48.52864" lon="-4.73701">
        <ele>31.4</ele>
        <time>2025-09-25T13:28:44Z</time>
      </trkpt>
      <trkpt lat="48.52863" lon="-4.73705">
        <ele>31.4</ele>
        <time>2025-09-25T13:28:45Z</time>
      </trkpt>
      <trkpt lat="48.52858" lon="-4.73721">
        <ele>31.8</ele>
        <time>2025-09-25T13:28:49Z</time>
      </trkpt>
      <trkpt lat="48.52849" lon="-4.73754">
        <ele>31.8</ele>
        <time>2025-09-25T13:28:57Z</time>
      </trkpt>
      <trkpt lat="48.52842" lon="-4.73774">
        <ele>31.8</ele>
        <time>2025-09-25T13:29:02Z</time>
      </trkpt>
      <trkpt lat="48.52837" lon="-4.7379">
        <ele>32</ele>
        <time>2025-09-25T13:29:06Z</time>
      </trkpt>
      <trkpt lat="48.52827" lon="-4.73827">
        <ele>31.8</ele>
        <time>2025-09-25T13:29:14Z</time>
      </trkpt>
      <trkpt lat="48.52815" lon="-4.73869">
        <ele>31.6</ele>
        <time>2025-09-25T13:29:22Z</time>
      </trkpt>
      <trkpt lat="48.52795" lon="-4.73933">
        <ele>31.4</ele>
        <time>2025-09-25T13:29:33Z</time>
      </trkpt>
      <trkpt lat="48.52779" lon="-4.73988">
        <ele>31.4</ele>
        <time>2025-09-25T13:29:42Z</time>
      </trkpt>
      <trkpt lat="48.52763" lon="-4.74037">
        <ele>31.6</ele>
        <time>2025-09-25T13:29:50Z</time>
      </trkpt>
      <trkpt lat="48.52759" lon="-4.7405">
        <ele>31.4</ele>
        <time>2025-09-25T13:29:52Z</time>
      </trkpt>
      <trkpt lat="48.52743" lon="-4.74105">
        <ele>31</ele>
        <time>2025-09-25T13:30:00Z</time>
      </trkpt>
      <trkpt lat="48.52737" lon="-4.74125">
        <ele>31</ele>
        <time>2025-09-25T13:30:03Z</time>
      </trkpt>
      <trkpt lat="48.52723" lon="-4.74173">
        <ele>31</ele>
        <time>2025-09-25T13:30:10Z</time>
      </trkpt>
      <trkpt lat="48.52717" lon="-4.74194">
        <ele>30.8</ele>
        <time>2025-09-25T13:30:13Z</time>
      </trkpt>
      <trkpt lat="48.52708" lon="-4.74222">
        <ele>30.4</ele>
        <time>2025-09-25T13:30:17Z</time>
      </trkpt>
      <trkpt lat="48.52703" lon="-4.74241">
        <ele>30.4</ele>
        <time>2025-09-25T13:30:20Z</time>
      </trkpt>
      <trkpt lat="48.52683" lon="-4.74295">
        <ele>30.2</ele>
        <time>2025-09-25T13:30:28Z</time>
      </trkpt>
      <trkpt lat="48.52658" lon="-4.74355">
        <ele>29.8</ele>
        <time>2025-09-25T13:30:37Z</time>
      </trkpt>
      <trkpt lat="48.52645" lon="-4.7438">
        <ele>29.2</ele>
        <time>2025-09-25T13:30:41Z</time>
      </trkpt>
      <trkpt lat="48.52624" lon="-4.74422">
        <ele>28.2</ele>
        <time>2025-09-25T13:30:47Z</time>
      </trkpt>
      <trkpt lat="48.52594" lon="-4.74476">
        <ele>27.2</ele>
        <time>2025-09-25T13:30:55Z</time>
      </trkpt>
      <trkpt lat="48.5259" lon="-4.74484">
        <ele>27.2</ele>
        <time>2025-09-25T13:30:56Z</time>
      </trkpt>
      <trkpt lat="48.52564" lon="-4.7454">
        <ele>26.2</ele>
        <time>2025-09-25T13:31:03Z</time>
      </trkpt>
      <trkpt lat="48.5256" lon="-4.74548">
        <ele>26</ele>
        <time>2025-09-25T13:31:04Z</time>
      </trkpt>
      <trkpt lat="48.52544" lon="-4.74581">
        <ele>24.8</ele>
        <time>2025-09-25T13:31:08Z</time>
      </trkpt>
      <trkpt lat="48.5252" lon="-4.74631">
        <ele>24.8</ele>
        <time>2025-09-25T13:31:14Z</time>
      </trkpt>
      <trkpt lat="48.52502" lon="-4.74665">
        <ele>23.6</ele>
        <time>2025-09-25T13:31:18Z</time>
      </trkpt>
      <trkpt lat="48.52483" lon="-4.74701">
        <ele>22.4</ele>
        <time>2025-09-25T13:31:22Z</time>
      </trkpt>
      <trkpt lat="48.52473" lon="-4.74718">
        <ele>21.6</ele>
        <time>2025-09-25T13:31:24Z</time>
      </trkpt>
      <trkpt lat="48.52463" lon="-4.74735">
        <ele>21</ele>
        <time>2025-09-25T13:31:26Z</time>
      </trkpt>
      <trkpt lat="48.52441" lon="-4.74775">
        <ele>20</ele>
        <time>2025-09-25T13:31:31Z</time>
      </trkpt>
      <trkpt lat="48.52429" lon="-4.74797">
        <ele>20</ele>
        <time>2025-09-25T13:31:34Z</time>
      </trkpt>
      <trkpt lat="48.52411" lon="-4.74828">
        <ele>18.8</ele>
        <time>2025-09-25T13:31:38Z</time>
      </trkpt>
      <trkpt lat="48.52406" lon="-4.74836">
        <ele>18.6</ele>
        <time>2025-09-25T13:31:39Z</time>
      </trkpt>
      <trkpt lat="48.52386" lon="-4.7487">
        <ele>17.6</ele>
        <time>2025-09-25T13:31:43Z</time>
      </trkpt>
      <trkpt lat="48.52371" lon="-4.74895">
        <ele>16.6</ele>
        <time>2025-09-25T13:31:46Z</time>
      </trkpt>
      <trkpt lat="48.52366" lon="-4.74903">
        <ele>16.4</ele>
        <time>2025-09-25T13:31:47Z</time>
      </trkpt>
      <trkpt lat="48.52328" lon="-4.74968">
        <ele>15.6</ele>
        <time>2025-09-25T13:31:55Z</time>
      </trkpt>
      <trkpt lat="48.52323" lon="-4.74976">
        <ele>15.4</ele>
        <time>2025-09-25T13:31:56Z</time>
      </trkpt>
      <trkpt lat="48.52319" lon="-4.74984">
        <ele>15.2</ele>
        <time>2025-09-25T13:31:57Z</time>
      </trkpt>
      <trkpt lat="48.5229" lon="-4.75033">
        <ele>14.4</ele>
        <time>2025-09-25T13:32:04Z</time>
      </trkpt>
      <trkpt lat="48.52279" lon="-4.75052">
        <ele>14.8</ele>
        <time>2025-09-25T13:32:07Z</time>
      </trkpt>
      <trkpt lat="48.52276" lon="-4.75057">
        <ele>15.2</ele>
        <time>2025-09-25T13:32:08Z</time>
      </trkpt>
      <trkpt lat="48.52269" lon="-4.75068">
        <ele>15.6</ele>
        <time>2025-09-25T13:32:10Z</time>
      </trkpt>
      <trkpt lat="48.52265" lon="-4.75073">
        <ele>15.6</ele>
        <time>2025-09-25T13:32:11Z</time>
      </trkpt>
      <trkpt lat="48.5226" lon="-4.75077">
        <ele>15.6</ele>
        <time>2025-09-25T13:32:12Z</time>
      </trkpt>
      <trkpt lat="48.52237" lon="-4.75105">
        <ele>16</ele>
        <time>2025-09-25T13:32:18Z</time>
      </trkpt>
      <trkpt lat="48.52228" lon="-4.75112">
        <ele>16.2</ele>
        <time>2025-09-25T13:32:20Z</time>
      </trkpt>
      <trkpt lat="48.52206" lon="-4.75128">
        <ele>17</ele>
        <time>2025-09-25T13:32:25Z</time>
      </trkpt>
      <trkpt lat="48.52189" lon="-4.75137">
        <ele>17.2</ele>
        <time>2025-09-25T13:32:29Z</time>
      </trkpt>
      <trkpt lat="48.52177" lon="-4.75142">
        <ele>17.6</ele>
        <time>2025-09-25T13:32:32Z</time>
      </trkpt>
      <trkpt lat="48.52173" lon="-4.75143">
        <ele>17.8</ele>
        <time>2025-09-25T13:32:33Z</time>
      </trkpt>
      <trkpt lat="48.52157" lon="-4.75147">
        <ele>18</ele>
        <time>2025-09-25T13:32:37Z</time>
      </trkpt>
      <trkpt lat="48.5214" lon="-4.75149">
        <ele>18.2</ele>
        <time>2025-09-25T13:32:41Z</time>
      </trkpt>
      <trkpt lat="48.52136" lon="-4.75149">
        <ele>18.4</ele>
        <time>2025-09-25T13:32:42Z</time>
      </trkpt>
      <trkpt lat="48.52112" lon="-4.75147">
        <ele>18.6</ele>
        <time>2025-09-25T13:32:48Z</time>
      </trkpt>
      <trkpt lat="48.52078" lon="-4.75138">
        <ele>18.4</ele>
        <time>2025-09-25T13:32:56Z</time>
      </trkpt>
      <trkpt lat="48.52058" lon="-4.75128">
        <ele>18.6</ele>
        <time>2025-09-25T13:33:01Z</time>
      </trkpt>
      <trkpt lat="48.52041" lon="-4.75116">
        <ele>18.8</ele>
        <time>2025-09-25T13:33:06Z</time>
      </trkpt>
      <trkpt lat="48.52011" lon="-4.75099">
        <ele>19</ele>
        <time>2025-09-25T13:33:15Z</time>
      </trkpt>
      <trkpt lat="48.51993" lon="-4.75092">
        <ele>18.8</ele>
        <time>2025-09-25T13:33:20Z</time>
      </trkpt>
      <trkpt lat="48.51979" lon="-4.75074">
        <ele>19</ele>
        <time>2025-09-25T13:33:25Z</time>
      </trkpt>
      <trkpt lat="48.51953" lon="-4.75059">
        <ele>19</ele>
        <time>2025-09-25T13:33:31Z</time>
      </trkpt>
      <trkpt lat="48.51948" lon="-4.75056">
        <ele>19.2</ele>
        <time>2025-09-25T13:33:32Z</time>
      </trkpt>
      <trkpt lat="48.51907" lon="-4.75035">
        <ele>18.2</ele>
        <time>2025-09-25T13:33:41Z</time>
      </trkpt>
      <trkpt lat="48.51877" lon="-4.7503">
        <ele>17.8</ele>
        <time>2025-09-25T13:33:47Z</time>
      </trkpt>
      <trkpt lat="48.51856" lon="-4.75033">
        <ele>17.2</ele>
        <time>2025-09-25T13:33:51Z</time>
      </trkpt>
      <trkpt lat="48.51844" lon="-4.75036">
        <ele>16.8</ele>
        <time>2025-09-25T13:33:53Z</time>
      </trkpt>
      <trkpt lat="48.51827" lon="-4.75044">
        <ele>16.2</ele>
        <time>2025-09-25T13:33:56Z</time>
      </trkpt>
      <trkpt lat="48.51821" lon="-4.75048">
        <ele>16</ele>
        <time>2025-09-25T13:33:57Z</time>
      </trkpt>
      <trkpt lat="48.5181" lon="-4.75056">
        <ele>15.8</ele>
        <time>2025-09-25T13:33:59Z</time>
      </trkpt>
      <trkpt lat="48.51784" lon="-4.75084">
        <ele>14.8</ele>
        <time>2025-09-25T13:34:04Z</time>
      </trkpt>
      <trkpt lat="48.5178" lon="-4.75091">
        <ele>14.6</ele>
        <time>2025-09-25T13:34:05Z</time>
      </trkpt>
      <trkpt lat="48.5176" lon="-4.75131">
        <ele>15</ele>
        <time>2025-09-25T13:34:11Z</time>
      </trkpt>
      <trkpt lat="48.51751" lon="-4.75157">
        <ele>16</ele>
        <time>2025-09-25T13:34:16Z</time>
      </trkpt>
      <trkpt lat="48.51743" lon="-4.75205">
        <ele>16.4</ele>
        <time>2025-09-25T13:34:25Z</time>
      </trkpt>
      <trkpt lat="48.51742" lon="-4.75233">
        <ele>17.2</ele>
        <time>2025-09-25T13:34:30Z</time>
      </trkpt>
      <trkpt lat="48.51742" lon="-4.7525">
        <ele>17.4</ele>
        <time>2025-09-25T13:34:33Z</time>
      </trkpt>
      <trkpt lat="48.51743" lon="-4.75283">
        <ele>18.2</ele>
        <time>2025-09-25T13:34:39Z</time>
      </trkpt>
      <trkpt lat="48.51743" lon="-4.75288">
        <ele>18.2</ele>
        <time>2025-09-25T13:34:40Z</time>
      </trkpt>
      <trkpt lat="48.51744" lon="-4.75335">
        <ele>19</ele>
        <time>2025-09-25T13:34:49Z</time>
      </trkpt>
      <trkpt lat="48.51745" lon="-4.75346">
        <ele>19.2</ele>
        <time>2025-09-25T13:34:51Z</time>
      </trkpt>
      <trkpt lat="48.51745" lon="-4.75384">
        <ele>19.6</ele>
        <time>2025-09-25T13:34:58Z</time>
      </trkpt>
      <trkpt lat="48.51744" lon="-4.75407">
        <ele>19.4</ele>
        <time>2025-09-25T13:35:02Z</time>
      </trkpt>
      <trkpt lat="48.51741" lon="-4.75431">
        <ele>19.4</ele>
        <time>2025-09-25T13:35:06Z</time>
      </trkpt>
      <trkpt lat="48.5174" lon="-4.75438">
        <ele>19.4</ele>
        <time>2025-09-25T13:35:07Z</time>
      </trkpt>
      <trkpt lat="48.51729" lon="-4.75486">
        <ele>19</ele>
        <time>2025-09-25T13:35:15Z</time>
      </trkpt>
      <trkpt lat="48.51727" lon="-4.75492">
        <ele>19</ele>
        <time>2025-09-25T13:35:16Z</time>
      </trkpt>
      <trkpt lat="48.51706" lon="-4.75542">
        <ele>18.2</ele>
        <time>2025-09-25T13:35:25Z</time>
      </trkpt>
      <trkpt lat="48.51703" lon="-4.75547">
        <ele>18.2</ele>
        <time>2025-09-25T13:35:26Z</time>
      </trkpt>
      <trkpt lat="48.51681" lon="-4.75576">
        <ele>18.6</ele>
        <time>2025-09-25T13:35:33Z</time>
      </trkpt>
      <trkpt lat="48.51658" lon="-4.75599">
        <ele>19.2</ele>
        <time>2025-09-25T13:35:40Z</time>
      </trkpt>
      <trkpt lat="48.51651" lon="-4.75604">
        <ele>19.4</ele>
        <time>2025-09-25T13:35:42Z</time>
      </trkpt>
      <trkpt lat="48.51619" lon="-4.7562">
        <ele>19.8</ele>
        <time>2025-09-25T13:35:51Z</time>
      </trkpt>
      <trkpt lat="48.5159" lon="-4.75631">
        <ele>20</ele>
        <time>2025-09-25T13:35:59Z</time>
      </trkpt>
      <trkpt lat="48.51563" lon="-4.75642">
        <ele>20.2</ele>
        <time>2025-09-25T13:36:07Z</time>
      </trkpt>
      <trkpt lat="48.51556" lon="-4.75646">
        <ele>20.4</ele>
        <time>2025-09-25T13:36:12Z</time>
      </trkpt>
      <trkpt lat="48.51556" lon="-4.75645">
        <ele>20.4</ele>
        <time>2025-09-25T13:36:13Z</time>
      </trkpt>
      <trkpt lat="48.51555" lon="-4.75646">
        <ele>20.4</ele>
        <time>2025-09-25T13:36:16Z</time>
      </trkpt>
      <trkpt lat="48.51551" lon="-4.75646">
        <ele>20.2</ele>
        <time>2025-09-25T13:36:18Z</time>
      </trkpt>
      <trkpt lat="48.5155" lon="-4.75644">
        <ele>20.2</ele>
        <time>2025-09-25T13:36:19Z</time>
      </trkpt>
      <trkpt lat="48.51547" lon="-4.75631">
        <ele>20.2</ele>
        <time>2025-09-25T13:36:22Z</time>
      </trkpt>
      <trkpt lat="48.51542" lon="-4.75614">
        <ele>19.8</ele>
        <time>2025-09-25T13:36:26Z</time>
      </trkpt>
      <trkpt lat="48.51538" lon="-4.756">
        <ele>19.8</ele>
        <time>2025-09-25T13:36:29Z</time>
      </trkpt>
      <trkpt lat="48.51525" lon="-4.75563">
        <ele>20.4</ele>
        <time>2025-09-25T13:36:38Z</time>
      </trkpt>
      <trkpt lat="48.51511" lon="-4.75539">
        <ele>21</ele>
        <time>2025-09-25T13:36:45Z</time>
      </trkpt>
      <trkpt lat="48.51509" lon="-4.75536">
        <ele>21.2</ele>
        <time>2025-09-25T13:36:46Z</time>
      </trkpt>
      <trkpt lat="48.51506" lon="-4.75532">
        <ele>21.4</ele>
        <time>2025-09-25T13:36:47Z</time>
      </trkpt>
      <trkpt lat="48.515" lon="-4.75522">
        <ele>21.6</ele>
        <time>2025-09-25T13:36:50Z</time>
      </trkpt>
      <trkpt lat="48.51488" lon="-4.75506">
        <ele>22</ele>
        <time>2025-09-25T13:36:55Z</time>
      </trkpt>
      <trkpt lat="48.51479" lon="-4.75495">
        <ele>22.2</ele>
        <time>2025-09-25T13:36:59Z</time>
      </trkpt>
      <trkpt lat="48.51477" lon="-4.75492">
        <ele>22.4</ele>
        <time>2025-09-25T13:37:00Z</time>
      </trkpt>
      <trkpt lat="48.51473" lon="-4.75487">
        <ele>22.6</ele>
        <time>2025-09-25T13:37:02Z</time>
      </trkpt>
      <trkpt lat="48.51469" lon="-4.75482">
        <ele>22.6</ele>
        <time>2025-09-25T13:37:04Z</time>
      </trkpt>
      <trkpt lat="48.51448" lon="-4.75457">
        <ele>23.4</ele>
        <time>2025-09-25T13:37:14Z</time>
      </trkpt>
      <trkpt lat="48.51446" lon="-4.75455">
        <ele>23.6</ele>
        <time>2025-09-25T13:37:15Z</time>
      </trkpt>
      <trkpt lat="48.51431" lon="-4.75438">
        <ele>24.4</ele>
        <time>2025-09-25T13:37:23Z</time>
      </trkpt>
      <trkpt lat="48.51426" lon="-4.75434">
        <ele>24.4</ele>
        <time>2025-09-25T13:37:25Z</time>
      </trkpt>
      <trkpt lat="48.51417" lon="-4.75424">
        <ele>24.8</ele>
        <time>2025-09-25T13:37:30Z</time>
      </trkpt>
      <trkpt lat="48.51413" lon="-4.7542">
        <ele>25</ele>
        <time>2025-09-25T13:37:32Z</time>
      </trkpt>
      <trkpt lat="48.5141" lon="-4.75416">
        <ele>25.6</ele>
        <time>2025-09-25T13:37:34Z</time>
      </trkpt>
      <trkpt lat="48.51401" lon="-4.75403">
        <ele>26.4</ele>
        <time>2025-09-25T13:37:40Z</time>
      </trkpt>
      <trkpt lat="48.51398" lon="-4.75399">
        <ele>26.6</ele>
        <time>2025-09-25T13:37:42Z</time>
      </trkpt>
      <trkpt lat="48.51392" lon="-4.75391">
        <ele>27.4</ele>
        <time>2025-09-25T13:37:46Z</time>
      </trkpt>
      <trkpt lat="48.51389" lon="-4.75387">
        <ele>27.8</ele>
        <time>2025-09-25T13:37:48Z</time>
      </trkpt>
      <trkpt lat="48.51379" lon="-4.75372">
        <ele>28.8</ele>
        <time>2025-09-25T13:37:55Z</time>
      </trkpt>
      <trkpt lat="48.51378" lon="-4.7537">
        <ele>29</ele>
        <time>2025-09-25T13:37:56Z</time>
      </trkpt>
      <trkpt lat="48.51369" lon="-4.75357">
        <ele>29.8</ele>
        <time>2025-09-25T13:38:03Z</time>
      </trkpt>
      <trkpt lat="48.51368" lon="-4.75355">
        <ele>29.8</ele>
        <time>2025-09-25T13:38:04Z</time>
      </trkpt>
      <trkpt lat="48.51358" lon="-4.75343">
        <ele>30.6</ele>
        <time>2025-09-25T13:38:12Z</time>
      </trkpt>
      <trkpt lat="48.51357" lon="-4.7534">
        <ele>31</ele>
        <time>2025-09-25T13:38:14Z</time>
      </trkpt>
      <trkpt lat="48.5135" lon="-4.75329">
        <ele>31.8</ele>
        <time>2025-09-25T13:38:21Z</time>
      </trkpt>
      <trkpt lat="48.51348" lon="-4.75327">
        <ele>32</ele>
        <time>2025-09-25T13:38:22Z</time>
      </trkpt>
      <trkpt lat="48.51338" lon="-4.75314">
        <ele>33</ele>
        <time>2025-09-25T13:38:30Z</time>
      </trkpt>
      <trkpt lat="48.51337" lon="-4.75311">
        <ele>33</ele>
        <time>2025-09-25T13:38:32Z</time>
      </trkpt>
      <trkpt lat="48.51328" lon="-4.753">
        <ele>33.6</ele>
        <time>2025-09-25T13:38:39Z</time>
      </trkpt>
      <trkpt lat="48.51326" lon="-4.75298">
        <ele>33.8</ele>
        <time>2025-09-25T13:38:40Z</time>
      </trkpt>
      <trkpt lat="48.51322" lon="-4.75294">
        <ele>34</ele>
        <time>2025-09-25T13:38:43Z</time>
      </trkpt>
      <trkpt lat="48.51313" lon="-4.75287">
        <ele>34.4</ele>
        <time>2025-09-25T13:38:49Z</time>
      </trkpt>
      <trkpt lat="48.51294" lon="-4.75283">
        <ele>35</ele>
        <time>2025-09-25T13:38:59Z</time>
      </trkpt>
      <trkpt lat="48.5129" lon="-4.75282">
        <ele>35</ele>
        <time>2025-09-25T13:39:01Z</time>
      </trkpt>
      <trkpt lat="48.5128" lon="-4.75282">
        <ele>35.2</ele>
        <time>2025-09-25T13:39:06Z</time>
      </trkpt>
      <trkpt lat="48.51263" lon="-4.75279">
        <ele>35.6</ele>
        <time>2025-09-25T13:39:15Z</time>
      </trkpt>
      <trkpt lat="48.51254" lon="-4.75266">
        <ele>35.6</ele>
        <time>2025-09-25T13:39:21Z</time>
      </trkpt>
      <trkpt lat="48.51244" lon="-4.75239">
        <ele>35.8</ele>
        <time>2025-09-25T13:39:30Z</time>
      </trkpt>
      <trkpt lat="48.5124" lon="-4.75227">
        <ele>36</ele>
        <time>2025-09-25T13:39:34Z</time>
      </trkpt>
      <trkpt lat="48.51238" lon="-4.75221">
        <ele>36</ele>
        <time>2025-09-25T13:39:36Z</time>
      </trkpt>
      <trkpt lat="48.51234" lon="-4.75212">
        <ele>35.8</ele>
        <time>2025-09-25T13:39:39Z</time>
      </trkpt>
      <trkpt lat="48.51221" lon="-4.75194">
        <ele>36.2</ele>
        <time>2025-09-25T13:39:46Z</time>
      </trkpt>
      <trkpt lat="48.51202" lon="-4.75176">
        <ele>36</ele>
        <time>2025-09-25T13:39:54Z</time>
      </trkpt>
      <trkpt lat="48.512" lon="-4.75173">
        <ele>36</ele>
        <time>2025-09-25T13:39:55Z</time>
      </trkpt>
      <trkpt lat="48.51171" lon="-4.7514">
        <ele>36.2</ele>
        <time>2025-09-25T13:40:06Z</time>
      </trkpt>
      <trkpt lat="48.51142" lon="-4.75106">
        <ele>36.6</ele>
        <time>2025-09-25T13:40:17Z</time>
      </trkpt>
      <trkpt lat="48.51139" lon="-4.75102">
        <ele>36.6</ele>
        <time>2025-09-25T13:40:18Z</time>
      </trkpt>
      <trkpt lat="48.51132" lon="-4.75092">
        <ele>36.6</ele>
        <time>2025-09-25T13:40:21Z</time>
      </trkpt>
      <trkpt lat="48.51116" lon="-4.75073">
        <ele>36.8</ele>
        <time>2025-09-25T13:40:27Z</time>
      </trkpt>
      <trkpt lat="48.51107" lon="-4.75059">
        <ele>36.8</ele>
        <time>2025-09-25T13:40:31Z</time>
      </trkpt>
      <trkpt lat="48.51093" lon="-4.75037">
        <ele>37</ele>
        <time>2025-09-25T13:40:37Z</time>
      </trkpt>
      <trkpt lat="48.51068" lon="-4.75">
        <ele>37.2</ele>
        <time>2025-09-25T13:40:47Z</time>
      </trkpt>
      <trkpt lat="48.51038" lon="-4.74965">
        <ele>36.8</ele>
        <time>2025-09-25T13:40:57Z</time>
      </trkpt>
      <trkpt lat="48.51034" lon="-4.74962">
        <ele>37</ele>
        <time>2025-09-25T13:40:58Z</time>
      </trkpt>
      <trkpt lat="48.51013" lon="-4.74955">
        <ele>37.6</ele>
        <time>2025-09-25T13:41:04Z</time>
      </trkpt>
      <trkpt lat="48.50999" lon="-4.74945">
        <ele>37.6</ele>
        <time>2025-09-25T13:41:09Z</time>
      </trkpt>
      <trkpt lat="48.50996" lon="-4.74943">
        <ele>37.4</ele>
        <time>2025-09-25T13:41:10Z</time>
      </trkpt>
      <trkpt lat="48.50987" lon="-4.74935">
        <ele>37.4</ele>
        <time>2025-09-25T13:41:13Z</time>
      </trkpt>
      <trkpt lat="48.50971" lon="-4.74926">
        <ele>37.6</ele>
        <time>2025-09-25T13:41:19Z</time>
      </trkpt>
      <trkpt lat="48.50973" lon="-4.74925">
        <ele>37.8</ele>
        <time>2025-09-25T13:41:20Z</time>
      </trkpt>
      <trkpt lat="48.50973" lon="-4.74925">
        <ele>37.8</ele>
        <time>2025-09-25T13:41:22Z</time>
      </trkpt>
      <trkpt lat="48.50972" lon="-4.74924">
        <ele>37.8</ele>
        <time>2025-09-25T13:41:24Z</time>
      </trkpt>
      <trkpt lat="48.50972" lon="-4.74923">
        <ele>37.6</ele>
        <time>2025-09-25T13:41:30Z</time>
      </trkpt>
      <trkpt lat="48.50974" lon="-4.74922">
        <ele>37.4</ele>
        <time>2025-09-25T13:41:32Z</time>
      </trkpt>
      <trkpt lat="48.50979" lon="-4.74924">
        <ele>37.4</ele>
        <time>2025-09-25T13:41:37Z</time>
      </trkpt>
      <trkpt lat="48.50979" lon="-4.74925">
        <ele>37.4</ele>
        <time>2025-09-25T13:41:38Z</time>
      </trkpt>
      <trkpt lat="48.5098" lon="-4.74928">
        <ele>37.6</ele>
        <time>2025-09-25T13:42:10Z</time>
      </trkpt>
      <trkpt lat="48.50979" lon="-4.74929">
        <ele>37.6</ele>
        <time>2025-09-25T13:42:11Z</time>
      </trkpt>
      <trkpt lat="48.50977" lon="-4.74928">
        <ele>37.6</ele>
        <time>2025-09-25T13:42:13Z</time>
      </trkpt>
      <trkpt lat="48.5097" lon="-4.74923">
        <ele>37.8</ele>
        <time>2025-09-25T13:42:19Z</time>
      </trkpt>
      <trkpt lat="48.5097" lon="-4.74922">
        <ele>38</ele>
        <time>2025-09-25T13:42:20Z</time>
      </trkpt>
      <trkpt lat="48.50969" lon="-4.74922">
        <ele>37.8</ele>
        <time>2025-09-25T13:42:48Z</time>
      </trkpt>
      <trkpt lat="48.50967" lon="-4.74921">
        <ele>38.4</ele>
        <time>2025-09-25T13:42:49Z</time>
      </trkpt>
      <trkpt lat="48.50965" lon="-4.7492">
        <ele>38</ele>
        <time>2025-09-25T13:42:51Z</time>
      </trkpt>
      <trkpt lat="48.5096" lon="-4.74917">
        <ele>38.2</ele>
        <time>2025-09-25T13:42:54Z</time>
      </trkpt>
      <trkpt lat="48.50953" lon="-4.74913">
        <ele>38.2</ele>
        <time>2025-09-25T13:42:57Z</time>
      </trkpt>
      <trkpt lat="48.50942" lon="-4.74906">
        <ele>38.2</ele>
        <time>2025-09-25T13:43:01Z</time>
      </trkpt>
      <trkpt lat="48.50937" lon="-4.74903">
        <ele>38.2</ele>
        <time>2025-09-25T13:43:03Z</time>
      </trkpt>
      <trkpt lat="48.50928" lon="-4.74896">
        <ele>38</ele>
        <time>2025-09-25T13:43:06Z</time>
      </trkpt>
      <trkpt lat="48.50909" lon="-4.74876">
        <ele>38.4</ele>
        <time>2025-09-25T13:43:13Z</time>
      </trkpt>
      <trkpt lat="48.50907" lon="-4.74872">
        <ele>38.6</ele>
        <time>2025-09-25T13:43:14Z</time>
      </trkpt>
      <trkpt lat="48.50892" lon="-4.74849">
        <ele>38.8</ele>
        <time>2025-09-25T13:43:21Z</time>
      </trkpt>
      <trkpt lat="48.50874" lon="-4.74815">
        <ele>39.4</ele>
        <time>2025-09-25T13:43:30Z</time>
      </trkpt>
      <trkpt lat="48.50873" lon="-4.74812">
        <ele>39.4</ele>
        <time>2025-09-25T13:43:31Z</time>
      </trkpt>
      <trkpt lat="48.50862" lon="-4.74786">
        <ele>39.4</ele>
        <time>2025-09-25T13:43:38Z</time>
      </trkpt>
      <trkpt lat="48.50851" lon="-4.74756">
        <ele>39.4</ele>
        <time>2025-09-25T13:43:45Z</time>
      </trkpt>
      <trkpt lat="48.50839" lon="-4.74727">
        <ele>39.4</ele>
        <time>2025-09-25T13:43:52Z</time>
      </trkpt>
      <trkpt lat="48.50837" lon="-4.74723">
        <ele>39.4</ele>
        <time>2025-09-25T13:43:53Z</time>
      </trkpt>
      <trkpt lat="48.50819" lon="-4.74686">
        <ele>40.2</ele>
        <time>2025-09-25T13:44:02Z</time>
      </trkpt>
      <trkpt lat="48.50808" lon="-4.74664">
        <ele>40.6</ele>
        <time>2025-09-25T13:44:08Z</time>
      </trkpt>
      <trkpt lat="48.50804" lon="-4.74657">
        <ele>40.8</ele>
        <time>2025-09-25T13:44:10Z</time>
      </trkpt>
      <trkpt lat="48.50784" lon="-4.74626">
        <ele>41.6</ele>
        <time>2025-09-25T13:44:19Z</time>
      </trkpt>
      <trkpt lat="48.50782" lon="-4.74623">
        <ele>41.6</ele>
        <time>2025-09-25T13:44:20Z</time>
      </trkpt>
      <trkpt lat="48.50765" lon="-4.74598">
        <ele>42.4</ele>
        <time>2025-09-25T13:44:28Z</time>
      </trkpt>
      <trkpt lat="48.50759" lon="-4.74589">
        <ele>42.8</ele>
        <time>2025-09-25T13:44:31Z</time>
      </trkpt>
      <trkpt lat="48.50747" lon="-4.7457">
        <ele>43</ele>
        <time>2025-09-25T13:44:37Z</time>
      </trkpt>
      <trkpt lat="48.50741" lon="-4.7456">
        <ele>43</ele>
        <time>2025-09-25T13:44:40Z</time>
      </trkpt>
      <trkpt lat="48.50732" lon="-4.74542">
        <ele>43.2</ele>
        <time>2025-09-25T13:44:45Z</time>
      </trkpt>
      <trkpt lat="48.50717" lon="-4.7451">
        <ele>43.2</ele>
        <time>2025-09-25T13:44:53Z</time>
      </trkpt>
      <trkpt lat="48.50699" lon="-4.74475">
        <ele>43.4</ele>
        <time>2025-09-25T13:45:02Z</time>
      </trkpt>
      <trkpt lat="48.50676" lon="-4.74436">
        <ele>43.6</ele>
        <time>2025-09-25T13:45:13Z</time>
      </trkpt>
      <trkpt lat="48.50673" lon="-4.74436">
        <ele>43.8</ele>
        <time>2025-09-25T13:45:14Z</time>
      </trkpt>
      <trkpt lat="48.50665" lon="-4.74441">
        <ele>43.8</ele>
        <time>2025-09-25T13:45:17Z</time>
      </trkpt>
      <trkpt lat="48.5065" lon="-4.74459">
        <ele>43.6</ele>
        <time>2025-09-25T13:45:23Z</time>
      </trkpt>
      <trkpt lat="48.50632" lon="-4.74492">
        <ele>43.2</ele>
        <time>2025-09-25T13:45:31Z</time>
      </trkpt>
      <trkpt lat="48.50628" lon="-4.74507">
        <ele>43</ele>
        <time>2025-09-25T13:45:34Z</time>
      </trkpt>
      <trkpt lat="48.50625" lon="-4.74523">
        <ele>42.8</ele>
        <time>2025-09-25T13:45:37Z</time>
      </trkpt>
      <trkpt lat="48.50623" lon="-4.74534">
        <ele>42.4</ele>
        <time>2025-09-25T13:45:39Z</time>
      </trkpt>
      <trkpt lat="48.50622" lon="-4.74546">
        <ele>42.2</ele>
        <time>2025-09-25T13:45:41Z</time>
      </trkpt>
      <trkpt lat="48.50619" lon="-4.74572">
        <ele>41.6</ele>
        <time>2025-09-25T13:45:45Z</time>
      </trkpt>
      <trkpt lat="48.50619" lon="-4.74579">
        <ele>41.4</ele>
        <time>2025-09-25T13:45:46Z</time>
      </trkpt>
      <trkpt lat="48.50616" lon="-4.74607">
        <ele>40.8</ele>
        <time>2025-09-25T13:45:50Z</time>
      </trkpt>
      <trkpt lat="48.50614" lon="-4.74613">
        <ele>40.6</ele>
        <time>2025-09-25T13:45:51Z</time>
      </trkpt>
      <trkpt lat="48.50613" lon="-4.7462">
        <ele>40.4</ele>
        <time>2025-09-25T13:45:52Z</time>
      </trkpt>
      <trkpt lat="48.50608" lon="-4.74647">
        <ele>40</ele>
        <time>2025-09-25T13:45:56Z</time>
      </trkpt>
      <trkpt lat="48.50605" lon="-4.74652">
        <ele>40</ele>
        <time>2025-09-25T13:45:57Z</time>
      </trkpt>
      <trkpt lat="48.5059" lon="-4.74661">
        <ele>39.6</ele>
        <time>2025-09-25T13:46:01Z</time>
      </trkpt>
      <trkpt lat="48.5056" lon="-4.74671">
        <ele>39.6</ele>
        <time>2025-09-25T13:46:09Z</time>
      </trkpt>
      <trkpt lat="48.50534" lon="-4.74695">
        <ele>40.6</ele>
        <time>2025-09-25T13:46:17Z</time>
      </trkpt>
      <trkpt lat="48.5052" lon="-4.74717">
        <ele>41.2</ele>
        <time>2025-09-25T13:46:23Z</time>
      </trkpt>
      <trkpt lat="48.50513" lon="-4.74752">
        <ele>41.2</ele>
        <time>2025-09-25T13:46:30Z</time>
      </trkpt>
      <trkpt lat="48.50521" lon="-4.74774">
        <ele>40.6</ele>
        <time>2025-09-25T13:46:35Z</time>
      </trkpt>
      <trkpt lat="48.50534" lon="-4.74787">
        <ele>40</ele>
        <time>2025-09-25T13:46:40Z</time>
      </trkpt>
      <trkpt lat="48.50548" lon="-4.74795">
        <ele>39.4</ele>
        <time>2025-09-25T13:46:44Z</time>
      </trkpt>
      <trkpt lat="48.50551" lon="-4.74798">
        <ele>39</ele>
        <time>2025-09-25T13:46:45Z</time>
      </trkpt>
      <trkpt lat="48.50568" lon="-4.74816">
        <ele>38.4</ele>
        <time>2025-09-25T13:46:50Z</time>
      </trkpt>
      <trkpt lat="48.50571" lon="-4.7482">
        <ele>38.2</ele>
        <time>2025-09-25T13:46:51Z</time>
      </trkpt>
      <trkpt lat="48.50579" lon="-4.74834">
        <ele>37.6</ele>
        <time>2025-09-25T13:46:54Z</time>
      </trkpt>
      <trkpt lat="48.50589" lon="-4.7485">
        <ele>37.4</ele>
        <time>2025-09-25T13:46:57Z</time>
      </trkpt>
      <trkpt lat="48.50603" lon="-4.74873">
        <ele>37.4</ele>
        <time>2025-09-25T13:47:02Z</time>
      </trkpt>
      <trkpt lat="48.50606" lon="-4.74884">
        <ele>37.2</ele>
        <time>2025-09-25T13:47:04Z</time>
      </trkpt>
      <trkpt lat="48.5061" lon="-4.74898">
        <ele>37</ele>
        <time>2025-09-25T13:47:06Z</time>
      </trkpt>
      <trkpt lat="48.50617" lon="-4.74933">
        <ele>36.2</ele>
        <time>2025-09-25T13:47:11Z</time>
      </trkpt>
      <trkpt lat="48.50623" lon="-4.74961">
        <ele>35.6</ele>
        <time>2025-09-25T13:47:15Z</time>
      </trkpt>
      <trkpt lat="48.5063" lon="-4.7498">
        <ele>35.6</ele>
        <time>2025-09-25T13:47:18Z</time>
      </trkpt>
      <trkpt lat="48.50637" lon="-4.75004">
        <ele>35.6</ele>
        <time>2025-09-25T13:47:22Z</time>
      </trkpt>
      <trkpt lat="48.50649" lon="-4.75038">
        <ele>35.8</ele>
        <time>2025-09-25T13:47:28Z</time>
      </trkpt>
      <trkpt lat="48.50653" lon="-4.7505">
        <ele>35.4</ele>
        <time>2025-09-25T13:47:30Z</time>
      </trkpt>
      <trkpt lat="48.50656" lon="-4.75062">
        <ele>35.2</ele>
        <time>2025-09-25T13:47:32Z</time>
      </trkpt>
      <trkpt lat="48.50664" lon="-4.7509">
        <ele>35.2</ele>
        <time>2025-09-25T13:47:37Z</time>
      </trkpt>
      <trkpt lat="48.50665" lon="-4.75096">
        <ele>35.4</ele>
        <time>2025-09-25T13:47:38Z</time>
      </trkpt>
      <trkpt lat="48.50666" lon="-4.75122">
        <ele>35.2</ele>
        <time>2025-09-25T13:47:42Z</time>
      </trkpt>
      <trkpt lat="48.50665" lon="-4.75128">
        <ele>35</ele>
        <time>2025-09-25T13:47:43Z</time>
      </trkpt>
      <trkpt lat="48.50661" lon="-4.75161">
        <ele>34.6</ele>
        <time>2025-09-25T13:47:48Z</time>
      </trkpt>
      <trkpt lat="48.50653" lon="-4.75212">
        <ele>34.2</ele>
        <time>2025-09-25T13:47:55Z</time>
      </trkpt>
      <trkpt lat="48.50652" lon="-4.75219">
        <ele>34</ele>
        <time>2025-09-25T13:47:56Z</time>
      </trkpt>
      <trkpt lat="48.50648" lon="-4.75238">
        <ele>34</ele>
        <time>2025-09-25T13:47:59Z</time>
      </trkpt>
      <trkpt lat="48.50642" lon="-4.75247">
        <ele>34</ele>
        <time>2025-09-25T13:48:01Z</time>
      </trkpt>
      <trkpt lat="48.50631" lon="-4.75252">
        <ele>33.8</ele>
        <time>2025-09-25T13:48:04Z</time>
      </trkpt>
      <trkpt lat="48.50626" lon="-4.75254">
        <ele>33.8</ele>
        <time>2025-09-25T13:48:05Z</time>
      </trkpt>
      <trkpt lat="48.50599" lon="-4.75264">
        <ele>34.2</ele>
        <time>2025-09-25T13:48:11Z</time>
      </trkpt>
      <trkpt lat="48.50584" lon="-4.7527">
        <ele>34.6</ele>
        <time>2025-09-25T13:48:15Z</time>
      </trkpt>
      <trkpt lat="48.50577" lon="-4.75273">
        <ele>34.8</ele>
        <time>2025-09-25T13:48:17Z</time>
      </trkpt>
      <trkpt lat="48.50564" lon="-4.75288">
        <ele>35.2</ele>
        <time>2025-09-25T13:48:22Z</time>
      </trkpt>
      <trkpt lat="48.50557" lon="-4.75312">
        <ele>36</ele>
        <time>2025-09-25T13:48:28Z</time>
      </trkpt>
      <trkpt lat="48.50557" lon="-4.7532">
        <ele>36.2</ele>
        <time>2025-09-25T13:48:30Z</time>
      </trkpt>
      <trkpt lat="48.50561" lon="-4.75335">
        <ele>36.8</ele>
        <time>2025-09-25T13:48:34Z</time>
      </trkpt>
      <trkpt lat="48.50569" lon="-4.75366">
        <ele>36.6</ele>
        <time>2025-09-25T13:48:41Z</time>
      </trkpt>
      <trkpt lat="48.50569" lon="-4.75371">
        <ele>36.6</ele>
        <time>2025-09-25T13:48:42Z</time>
      </trkpt>
      <trkpt lat="48.50569" lon="-4.75391">
        <ele>37</ele>
        <time>2025-09-25T13:48:46Z</time>
      </trkpt>
      <trkpt lat="48.50566" lon="-4.75404">
        <ele>37.2</ele>
        <time>2025-09-25T13:48:49Z</time>
      </trkpt>
      <trkpt lat="48.50565" lon="-4.75413">
        <ele>37.4</ele>
        <time>2025-09-25T13:48:51Z</time>
      </trkpt>
      <trkpt lat="48.50562" lon="-4.75421">
        <ele>37.4</ele>
        <time>2025-09-25T13:48:53Z</time>
      </trkpt>
      <trkpt lat="48.50557" lon="-4.75437">
        <ele>37.6</ele>
        <time>2025-09-25T13:48:57Z</time>
      </trkpt>
      <trkpt lat="48.50554" lon="-4.75445">
        <ele>37.8</ele>
        <time>2025-09-25T13:48:59Z</time>
      </trkpt>
      <trkpt lat="48.50546" lon="-4.75459">
        <ele>38</ele>
        <time>2025-09-25T13:49:03Z</time>
      </trkpt>
      <trkpt lat="48.50542" lon="-4.75467">
        <ele>38</ele>
        <time>2025-09-25T13:49:05Z</time>
      </trkpt>
      <trkpt lat="48.50539" lon="-4.75474">
        <ele>38</ele>
        <time>2025-09-25T13:49:07Z</time>
      </trkpt>
      <trkpt lat="48.50527" lon="-4.75498">
        <ele>38.4</ele>
        <time>2025-09-25T13:49:14Z</time>
      </trkpt>
      <trkpt lat="48.50524" lon="-4.75505">
        <ele>38.6</ele>
        <time>2025-09-25T13:49:16Z</time>
      </trkpt>
      <trkpt lat="48.50504" lon="-4.75544">
        <ele>38.4</ele>
        <time>2025-09-25T13:49:27Z</time>
      </trkpt>
      <trkpt lat="48.505" lon="-4.75551">
        <ele>38.6</ele>
        <time>2025-09-25T13:49:29Z</time>
      </trkpt>
      <trkpt lat="48.50491" lon="-4.75564">
        <ele>38.6</ele>
        <time>2025-09-25T13:49:33Z</time>
      </trkpt>
      <trkpt lat="48.50484" lon="-4.75574">
        <ele>38.6</ele>
        <time>2025-09-25T13:49:36Z</time>
      </trkpt>
      <trkpt lat="48.50462" lon="-4.75598">
        <ele>38.6</ele>
        <time>2025-09-25T13:49:44Z</time>
      </trkpt>
      <trkpt lat="48.50441" lon="-4.75629">
        <ele>38</ele>
        <time>2025-09-25T13:49:51Z</time>
      </trkpt>
      <trkpt lat="48.50431" lon="-4.75647">
        <ele>37.4</ele>
        <time>2025-09-25T13:49:54Z</time>
      </trkpt>
      <trkpt lat="48.50421" lon="-4.75666">
        <ele>36.8</ele>
        <time>2025-09-25T13:49:57Z</time>
      </trkpt>
      <trkpt lat="48.504" lon="-4.7572">
        <ele>36.8</ele>
        <time>2025-09-25T13:50:05Z</time>
      </trkpt>
      <trkpt lat="48.50397" lon="-4.75733">
        <ele>37.2</ele>
        <time>2025-09-25T13:50:07Z</time>
      </trkpt>
      <trkpt lat="48.50394" lon="-4.75743">
        <ele>37.2</ele>
        <time>2025-09-25T13:50:09Z</time>
      </trkpt>
      <trkpt lat="48.50389" lon="-4.75754">
        <ele>37.4</ele>
        <time>2025-09-25T13:50:12Z</time>
      </trkpt>
      <trkpt lat="48.50387" lon="-4.75755">
        <ele>37.4</ele>
        <time>2025-09-25T13:50:13Z</time>
      </trkpt>
      <trkpt lat="48.50368" lon="-4.75758">
        <ele>38</ele>
        <time>2025-09-25T13:50:20Z</time>
      </trkpt>
      <trkpt lat="48.50349" lon="-4.75761">
        <ele>38.2</ele>
        <time>2025-09-25T13:50:28Z</time>
      </trkpt>
      <trkpt lat="48.50346" lon="-4.75762">
        <ele>38.4</ele>
        <time>2025-09-25T13:50:29Z</time>
      </trkpt>
      <trkpt lat="48.50333" lon="-4.75765">
        <ele>39</ele>
        <time>2025-09-25T13:50:34Z</time>
      </trkpt>
      <trkpt lat="48.50329" lon="-4.75766">
        <ele>39.2</ele>
        <time>2025-09-25T13:50:36Z</time>
      </trkpt>
      <trkpt lat="48.50322" lon="-4.7577">
        <ele>39.4</ele>
        <time>2025-09-25T13:50:39Z</time>
      </trkpt>
      <trkpt lat="48.50317" lon="-4.75777">
        <ele>39.4</ele>
        <time>2025-09-25T13:50:42Z</time>
      </trkpt>
      <trkpt lat="48.50303" lon="-4.75786">
        <ele>39.8</ele>
        <time>2025-09-25T13:50:49Z</time>
      </trkpt>
      <trkpt lat="48.50302" lon="-4.75786">
        <ele>40</ele>
        <time>2025-09-25T13:50:50Z</time>
      </trkpt>
      <trkpt lat="48.50288" lon="-4.75787">
        <ele>40</ele>
        <time>2025-09-25T13:50:57Z</time>
      </trkpt>
      <trkpt lat="48.50271" lon="-4.75793">
        <ele>40</ele>
        <time>2025-09-25T13:51:04Z</time>
      </trkpt>
      <trkpt lat="48.50254" lon="-4.75806">
        <ele>40</ele>
        <time>2025-09-25T13:51:11Z</time>
      </trkpt>
      <trkpt lat="48.50237" lon="-4.75818">
        <ele>39.8</ele>
        <time>2025-09-25T13:51:17Z</time>
      </trkpt>
      <trkpt lat="48.50213" lon="-4.75836">
        <ele>39.6</ele>
        <time>2025-09-25T13:51:26Z</time>
      </trkpt>
      <trkpt lat="48.50211" lon="-4.75835">
        <ele>39.6</ele>
        <time>2025-09-25T13:51:27Z</time>
      </trkpt>
      <trkpt lat="48.50207" lon="-4.75838">
        <ele>39.6</ele>
        <time>2025-09-25T13:51:29Z</time>
      </trkpt>
      <trkpt lat="48.50203" lon="-4.75838">
        <ele>39.6</ele>
        <time>2025-09-25T13:51:31Z</time>
      </trkpt>
      <trkpt lat="48.502" lon="-4.75837">
        <ele>39.6</ele>
        <time>2025-09-25T13:51:33Z</time>
      </trkpt>
      <trkpt lat="48.50197" lon="-4.75825">
        <ele>39.6</ele>
        <time>2025-09-25T13:51:38Z</time>
      </trkpt>
      <trkpt lat="48.50194" lon="-4.75819">
        <ele>39.8</ele>
        <time>2025-09-25T13:51:41Z</time>
      </trkpt>
      <trkpt lat="48.50191" lon="-4.75809">
        <ele>40</ele>
        <time>2025-09-25T13:51:45Z</time>
      </trkpt>
      <trkpt lat="48.50185" lon="-4.75786">
        <ele>40.2</ele>
        <time>2025-09-25T13:51:53Z</time>
      </trkpt>
      <trkpt lat="48.50179" lon="-4.75766">
        <ele>40.4</ele>
        <time>2025-09-25T13:51:59Z</time>
      </trkpt>
      <trkpt lat="48.50178" lon="-4.75763">
        <ele>40.6</ele>
        <time>2025-09-25T13:52:00Z</time>
      </trkpt>
      <trkpt lat="48.50169" lon="-4.75737">
        <ele>40.6</ele>
        <time>2025-09-25T13:52:07Z</time>
      </trkpt>
      <trkpt lat="48.50154" lon="-4.75692">
        <ele>41.2</ele>
        <time>2025-09-25T13:52:18Z</time>
      </trkpt>
      <trkpt lat="48.50145" lon="-4.75666">
        <ele>41.2</ele>
        <time>2025-09-25T13:52:25Z</time>
      </trkpt>
      <trkpt lat="48.5014" lon="-4.75648">
        <ele>41.2</ele>
        <time>2025-09-25T13:52:29Z</time>
      </trkpt>
      <trkpt lat="48.5013" lon="-4.75614">
        <ele>41</ele>
        <time>2025-09-25T13:52:37Z</time>
      </trkpt>
      <trkpt lat="48.50122" lon="-4.75589">
        <ele>41</ele>
        <time>2025-09-25T13:52:44Z</time>
      </trkpt>
      <trkpt lat="48.50111" lon="-4.75555">
        <ele>41.4</ele>
        <time>2025-09-25T13:52:52Z</time>
      </trkpt>
      <trkpt lat="48.50097" lon="-4.75514">
        <ele>41.2</ele>
        <time>2025-09-25T13:53:01Z</time>
      </trkpt>
      <trkpt lat="48.50087" lon="-4.75496">
        <ele>40.8</ele>
        <time>2025-09-25T13:53:05Z</time>
      </trkpt>
      <trkpt lat="48.50081" lon="-4.75485">
        <ele>40.8</ele>
        <time>2025-09-25T13:53:08Z</time>
      </trkpt>
      <trkpt lat="48.50078" lon="-4.75481">
        <ele>41</ele>
        <time>2025-09-25T13:53:09Z</time>
      </trkpt>
      <trkpt lat="48.50073" lon="-4.75474">
        <ele>41</ele>
        <time>2025-09-25T13:53:11Z</time>
      </trkpt>
      <trkpt lat="48.50071" lon="-4.7547">
        <ele>41.2</ele>
        <time>2025-09-25T13:53:12Z</time>
      </trkpt>
      <trkpt lat="48.50052" lon="-4.75438">
        <ele>41</ele>
        <time>2025-09-25T13:53:20Z</time>
      </trkpt>
      <trkpt lat="48.50049" lon="-4.75434">
        <ele>41</ele>
        <time>2025-09-25T13:53:21Z</time>
      </trkpt>
      <trkpt lat="48.50047" lon="-4.75431">
        <ele>41</ele>
        <time>2025-09-25T13:53:22Z</time>
      </trkpt>
      <trkpt lat="48.50041" lon="-4.75423">
        <ele>41</ele>
        <time>2025-09-25T13:53:24Z</time>
      </trkpt>
      <trkpt lat="48.50028" lon="-4.75404">
        <ele>41.2</ele>
        <time>2025-09-25T13:53:29Z</time>
      </trkpt>
      <trkpt lat="48.50023" lon="-4.75395">
        <ele>41.4</ele>
        <time>2025-09-25T13:53:31Z</time>
      </trkpt>
      <trkpt lat="48.50014" lon="-4.7537">
        <ele>41.4</ele>
        <time>2025-09-25T13:53:36Z</time>
      </trkpt>
      <trkpt lat="48.49998" lon="-4.75315">
        <ele>42</ele>
        <time>2025-09-25T13:53:48Z</time>
      </trkpt>
      <trkpt lat="48.49993" lon="-4.75298">
        <ele>42.4</ele>
        <time>2025-09-25T13:53:52Z</time>
      </trkpt>
      <trkpt lat="48.49988" lon="-4.75285">
        <ele>42.8</ele>
        <time>2025-09-25T13:53:55Z</time>
      </trkpt>
      <trkpt lat="48.49974" lon="-4.75246">
        <ele>42.8</ele>
        <time>2025-09-25T13:54:04Z</time>
      </trkpt>
      <trkpt lat="48.49957" lon="-4.75209">
        <ele>43.2</ele>
        <time>2025-09-25T13:54:13Z</time>
      </trkpt>
      <trkpt lat="48.49948" lon="-4.7519">
        <ele>43.6</ele>
        <time>2025-09-25T13:54:18Z</time>
      </trkpt>
      <trkpt lat="48.49942" lon="-4.75179">
        <ele>43.6</ele>
        <time>2025-09-25T13:54:21Z</time>
      </trkpt>
      <trkpt lat="48.49919" lon="-4.75142">
        <ele>44</ele>
        <time>2025-09-25T13:54:31Z</time>
      </trkpt>
      <trkpt lat="48.49903" lon="-4.75134">
        <ele>44.2</ele>
        <time>2025-09-25T13:54:36Z</time>
      </trkpt>
      <trkpt lat="48.49881" lon="-4.75127">
        <ele>44.6</ele>
        <time>2025-09-25T13:54:43Z</time>
      </trkpt>
      <trkpt lat="48.49875" lon="-4.75127">
        <ele>44.8</ele>
        <time>2025-09-25T13:54:45Z</time>
      </trkpt>
      <trkpt lat="48.4986" lon="-4.75123">
        <ele>45</ele>
        <time>2025-09-25T13:54:51Z</time>
      </trkpt>
      <trkpt lat="48.4984" lon="-4.75112">
        <ele>45.2</ele>
        <time>2025-09-25T13:54:58Z</time>
      </trkpt>
      <trkpt lat="48.49823" lon="-4.75096">
        <ele>45.8</ele>
        <time>2025-09-25T13:55:05Z</time>
      </trkpt>
      <trkpt lat="48.49816" lon="-4.75088">
        <ele>46</ele>
        <time>2025-09-25T13:55:08Z</time>
      </trkpt>
      <trkpt lat="48.49798" lon="-4.75068">
        <ele>46.8</ele>
        <time>2025-09-25T13:55:16Z</time>
      </trkpt>
      <trkpt lat="48.49791" lon="-4.7506">
        <ele>47</ele>
        <time>2025-09-25T13:55:19Z</time>
      </trkpt>
      <trkpt lat="48.49769" lon="-4.75036">
        <ele>47.4</ele>
        <time>2025-09-25T13:55:28Z</time>
      </trkpt>
      <trkpt lat="48.49764" lon="-4.75031">
        <ele>47.4</ele>
        <time>2025-09-25T13:55:30Z</time>
      </trkpt>
      <trkpt lat="48.49759" lon="-4.75026">
        <ele>47.6</ele>
        <time>2025-09-25T13:55:32Z</time>
      </trkpt>
      <trkpt lat="48.49736" lon="-4.75001">
        <ele>47.8</ele>
        <time>2025-09-25T13:55:41Z</time>
      </trkpt>
      <trkpt lat="48.49729" lon="-4.74993">
        <ele>48</ele>
        <time>2025-09-25T13:55:44Z</time>
      </trkpt>
      <trkpt lat="48.49718" lon="-4.74988">
        <ele>48</ele>
        <time>2025-09-25T13:55:48Z</time>
      </trkpt>
      <trkpt lat="48.49715" lon="-4.74993">
        <ele>48.2</ele>
        <time>2025-09-25T13:55:50Z</time>
      </trkpt>
      <trkpt lat="48.49715" lon="-4.74995">
        <ele>48.2</ele>
        <time>2025-09-25T13:55:51Z</time>
      </trkpt>
      <trkpt lat="48.49717" lon="-4.75008">
        <ele>48.6</ele>
        <time>2025-09-25T13:55:57Z</time>
      </trkpt>
      <trkpt lat="48.49718" lon="-4.75007">
        <ele>48.6</ele>
        <time>2025-09-25T13:55:58Z</time>
      </trkpt>
      <trkpt lat="48.4972" lon="-4.75005">
        <ele>48.6</ele>
        <time>2025-09-25T13:56:00Z</time>
      </trkpt>
      <trkpt lat="48.4972" lon="-4.75003">
        <ele>48.6</ele>
        <time>2025-09-25T13:56:01Z</time>
      </trkpt>
      <trkpt lat="48.4972" lon="-4.74999">
        <ele>48.2</ele>
        <time>2025-09-25T13:56:06Z</time>
      </trkpt>
      <trkpt lat="48.49721" lon="-4.74997">
        <ele>48</ele>
        <time>2025-09-25T13:57:41Z</time>
      </trkpt>
      <trkpt lat="48.49718" lon="-4.74997">
        <ele>47.8</ele>
        <time>2025-09-25T13:57:43Z</time>
      </trkpt>
      <trkpt lat="48.49717" lon="-4.75001">
        <ele>48</ele>
        <time>2025-09-25T13:57:45Z</time>
      </trkpt>
      <trkpt lat="48.49718" lon="-4.75004">
        <ele>47.8</ele>
        <time>2025-09-25T13:57:47Z</time>
      </trkpt>
      <trkpt lat="48.49718" lon="-4.75004">
        <ele>47.6</ele>
        <time>2025-09-25T13:57:50Z</time>
      </trkpt>
      <trkpt lat="48.49719" lon="-4.75007">
        <ele>47.6</ele>
        <time>2025-09-25T13:58:01Z</time>
      </trkpt>
      <trkpt lat="48.49719" lon="-4.75014">
        <ele>47.8</ele>
        <time>2025-09-25T13:58:04Z</time>
      </trkpt>
      <trkpt lat="48.49723" lon="-4.75032">
        <ele>47.6</ele>
        <time>2025-09-25T13:58:09Z</time>
      </trkpt>
      <trkpt lat="48.49723" lon="-4.75036">
        <ele>47.4</ele>
        <time>2025-09-25T13:58:10Z</time>
      </trkpt>
      <trkpt lat="48.49724" lon="-4.7504">
        <ele>47.4</ele>
        <time>2025-09-25T13:58:11Z</time>
      </trkpt>
      <trkpt lat="48.49727" lon="-4.75053">
        <ele>47.4</ele>
        <time>2025-09-25T13:58:14Z</time>
      </trkpt>
      <trkpt lat="48.49728" lon="-4.75057">
        <ele>47.2</ele>
        <time>2025-09-25T13:58:15Z</time>
      </trkpt>
      <trkpt lat="48.49729" lon="-4.75061">
        <ele>47.2</ele>
        <time>2025-09-25T13:58:16Z</time>
      </trkpt>
      <trkpt lat="48.49736" lon="-4.75079">
        <ele>47</ele>
        <time>2025-09-25T13:58:21Z</time>
      </trkpt>
      <trkpt lat="48.49737" lon="-4.75082">
        <ele>47.2</ele>
        <time>2025-09-25T13:58:25Z</time>
      </trkpt>
      <trkpt lat="48.49738" lon="-4.75086">
        <ele>47</ele>
        <time>2025-09-25T13:58:28Z</time>
      </trkpt>
      <trkpt lat="48.49738" lon="-4.75093">
        <ele>46.8</ele>
        <time>2025-09-25T13:58:30Z</time>
      </trkpt>
      <trkpt lat="48.4974" lon="-4.75108">
        <ele>46.6</ele>
        <time>2025-09-25T13:58:33Z</time>
      </trkpt>
      <trkpt lat="48.49744" lon="-4.75127">
        <ele>46.6</ele>
        <time>2025-09-25T13:58:37Z</time>
      </trkpt>
      <trkpt lat="48.4975" lon="-4.75168">
        <ele>45.6</ele>
        <time>2025-09-25T13:58:45Z</time>
      </trkpt>
      <trkpt lat="48.4975" lon="-4.75179">
        <ele>45.4</ele>
        <time>2025-09-25T13:58:47Z</time>
      </trkpt>
      <trkpt lat="48.49749" lon="-4.75195">
        <ele>45.2</ele>
        <time>2025-09-25T13:58:50Z</time>
      </trkpt>
      <trkpt lat="48.49744" lon="-4.7523">
        <ele>45.2</ele>
        <time>2025-09-25T13:58:56Z</time>
      </trkpt>
      <trkpt lat="48.49734" lon="-4.7527">
        <ele>45</ele>
        <time>2025-09-25T13:59:03Z</time>
      </trkpt>
      <trkpt lat="48.49731" lon="-4.75287">
        <ele>44.6</ele>
        <time>2025-09-25T13:59:06Z</time>
      </trkpt>
      <trkpt lat="48.49722" lon="-4.75317">
        <ele>44.6</ele>
        <time>2025-09-25T13:59:11Z</time>
      </trkpt>
      <trkpt lat="48.49717" lon="-4.75334">
        <ele>44.4</ele>
        <time>2025-09-25T13:59:14Z</time>
      </trkpt>
      <trkpt lat="48.4971" lon="-4.75357">
        <ele>44</ele>
        <time>2025-09-25T13:59:18Z</time>
      </trkpt>
      <trkpt lat="48.49708" lon="-4.75397">
        <ele>43.6</ele>
        <time>2025-09-25T13:59:24Z</time>
      </trkpt>
      <trkpt lat="48.49707" lon="-4.75426">
        <ele>42.8</ele>
        <time>2025-09-25T13:59:28Z</time>
      </trkpt>
      <trkpt lat="48.49705" lon="-4.75441">
        <ele>42.4</ele>
        <time>2025-09-25T13:59:30Z</time>
      </trkpt>
      <trkpt lat="48.49703" lon="-4.75447">
        <ele>42.2</ele>
        <time>2025-09-25T13:59:31Z</time>
      </trkpt>
      <trkpt lat="48.49691" lon="-4.75481">
        <ele>42.2</ele>
        <time>2025-09-25T13:59:36Z</time>
      </trkpt>
      <trkpt lat="48.4969" lon="-4.75488">
        <ele>42.2</ele>
        <time>2025-09-25T13:59:37Z</time>
      </trkpt>
      <trkpt lat="48.49692" lon="-4.75495">
        <ele>42.4</ele>
        <time>2025-09-25T13:59:38Z</time>
      </trkpt>
      <trkpt lat="48.49698" lon="-4.75503">
        <ele>42</ele>
        <time>2025-09-25T13:59:40Z</time>
      </trkpt>
      <trkpt lat="48.49714" lon="-4.75514">
        <ele>41.4</ele>
        <time>2025-09-25T13:59:44Z</time>
      </trkpt>
      <trkpt lat="48.49718" lon="-4.75518">
        <ele>41.2</ele>
        <time>2025-09-25T13:59:45Z</time>
      </trkpt>
      <trkpt lat="48.49732" lon="-4.75538">
        <ele>40.6</ele>
        <time>2025-09-25T13:59:49Z</time>
      </trkpt>
      <trkpt lat="48.49734" lon="-4.75544">
        <ele>40.6</ele>
        <time>2025-09-25T13:59:50Z</time>
      </trkpt>
      <trkpt lat="48.49743" lon="-4.75562">
        <ele>40.2</ele>
        <time>2025-09-25T13:59:53Z</time>
      </trkpt>
      <trkpt lat="48.49753" lon="-4.7558">
        <ele>39.6</ele>
        <time>2025-09-25T13:59:56Z</time>
      </trkpt>
      <trkpt lat="48.49767" lon="-4.75612">
        <ele>39</ele>
        <time>2025-09-25T14:00:01Z</time>
      </trkpt>
      <trkpt lat="48.49776" lon="-4.7563">
        <ele>38</ele>
        <time>2025-09-25T14:00:04Z</time>
      </trkpt>
      <trkpt lat="48.49779" lon="-4.75635">
        <ele>38</ele>
        <time>2025-09-25T14:00:05Z</time>
      </trkpt>
      <trkpt lat="48.4979" lon="-4.7565">
        <ele>37.6</ele>
        <time>2025-09-25T14:00:08Z</time>
      </trkpt>
      <trkpt lat="48.49794" lon="-4.75654">
        <ele>37.6</ele>
        <time>2025-09-25T14:00:09Z</time>
      </trkpt>
      <trkpt lat="48.49807" lon="-4.75666">
        <ele>36.8</ele>
        <time>2025-09-25T14:00:12Z</time>
      </trkpt>
      <trkpt lat="48.49815" lon="-4.75676">
        <ele>36.6</ele>
        <time>2025-09-25T14:00:14Z</time>
      </trkpt>
      <trkpt lat="48.49821" lon="-4.75686">
        <ele>36.8</ele>
        <time>2025-09-25T14:00:16Z</time>
      </trkpt>
      <trkpt lat="48.49826" lon="-4.75699">
        <ele>37.2</ele>
        <time>2025-09-25T14:00:18Z</time>
      </trkpt>
      <trkpt lat="48.49831" lon="-4.75722">
        <ele>36.4</ele>
        <time>2025-09-25T14:00:21Z</time>
      </trkpt>
      <trkpt lat="48.49837" lon="-4.7576">
        <ele>36</ele>
        <time>2025-09-25T14:00:26Z</time>
      </trkpt>
      <trkpt lat="48.49838" lon="-4.75774">
        <ele>35.8</ele>
        <time>2025-09-25T14:00:28Z</time>
      </trkpt>
      <trkpt lat="48.49838" lon="-4.7581">
        <ele>36.2</ele>
        <time>2025-09-25T14:00:33Z</time>
      </trkpt>
      <trkpt lat="48.49836" lon="-4.75823">
        <ele>36.2</ele>
        <time>2025-09-25T14:00:35Z</time>
      </trkpt>
      <trkpt lat="48.49833" lon="-4.75836">
        <ele>35.8</ele>
        <time>2025-09-25T14:00:37Z</time>
      </trkpt>
      <trkpt lat="48.49827" lon="-4.75849">
        <ele>35.8</ele>
        <time>2025-09-25T14:00:39Z</time>
      </trkpt>
      <trkpt lat="48.49824" lon="-4.75855">
        <ele>35.8</ele>
        <time>2025-09-25T14:00:40Z</time>
      </trkpt>
      <trkpt lat="48.49813" lon="-4.75874">
        <ele>35.4</ele>
        <time>2025-09-25T14:00:43Z</time>
      </trkpt>
      <trkpt lat="48.49804" lon="-4.75886">
        <ele>34.6</ele>
        <time>2025-09-25T14:00:45Z</time>
      </trkpt>
      <trkpt lat="48.498" lon="-4.75893">
        <ele>34.2</ele>
        <time>2025-09-25T14:00:46Z</time>
      </trkpt>
      <trkpt lat="48.49796" lon="-4.75901">
        <ele>34</ele>
        <time>2025-09-25T14:00:47Z</time>
      </trkpt>
      <trkpt lat="48.49787" lon="-4.75925">
        <ele>33.8</ele>
        <time>2025-09-25T14:00:50Z</time>
      </trkpt>
      <trkpt lat="48.49783" lon="-4.7594">
        <ele>33.8</ele>
        <time>2025-09-25T14:00:52Z</time>
      </trkpt>
      <trkpt lat="48.49771" lon="-4.75986">
        <ele>33.6</ele>
        <time>2025-09-25T14:00:59Z</time>
      </trkpt>
      <trkpt lat="48.49764" lon="-4.7601">
        <ele>33.4</ele>
        <time>2025-09-25T14:01:03Z</time>
      </trkpt>
      <trkpt lat="48.49764" lon="-4.76026">
        <ele>33.4</ele>
        <time>2025-09-25T14:01:06Z</time>
      </trkpt>
      <trkpt lat="48.49772" lon="-4.76038">
        <ele>33.8</ele>
        <time>2025-09-25T14:01:10Z</time>
      </trkpt>
      <trkpt lat="48.49779" lon="-4.76052">
        <ele>34</ele>
        <time>2025-09-25T14:01:14Z</time>
      </trkpt>
      <trkpt lat="48.49786" lon="-4.76061">
        <ele>34</ele>
        <time>2025-09-25T14:01:17Z</time>
      </trkpt>
      <trkpt lat="48.49791" lon="-4.76069">
        <ele>34</ele>
        <time>2025-09-25T14:01:20Z</time>
      </trkpt>
      <trkpt lat="48.49797" lon="-4.76074">
        <ele>34.2</ele>
        <time>2025-09-25T14:01:24Z</time>
      </trkpt>
      <trkpt lat="48.49798" lon="-4.76076">
        <ele>34.4</ele>
        <time>2025-09-25T14:01:25Z</time>
      </trkpt>
      <trkpt lat="48.49808" lon="-4.76086">
        <ele>34.4</ele>
        <time>2025-09-25T14:01:30Z</time>
      </trkpt>
      <trkpt lat="48.49822" lon="-4.76098">
        <ele>34.4</ele>
        <time>2025-09-25T14:01:36Z</time>
      </trkpt>
      <trkpt lat="48.49826" lon="-4.76105">
        <ele>34.6</ele>
        <time>2025-09-25T14:01:38Z</time>
      </trkpt>
      <trkpt lat="48.49837" lon="-4.76124">
        <ele>35.2</ele>
        <time>2025-09-25T14:01:44Z</time>
      </trkpt>
      <trkpt lat="48.49838" lon="-4.76127">
        <ele>35.4</ele>
        <time>2025-09-25T14:01:45Z</time>
      </trkpt>
      <trkpt lat="48.49849" lon="-4.76149">
        <ele>36.4</ele>
        <time>2025-09-25T14:01:51Z</time>
      </trkpt>
      <trkpt lat="48.4985" lon="-4.76152">
        <ele>36.4</ele>
        <time>2025-09-25T14:01:52Z</time>
      </trkpt>
      <trkpt lat="48.49866" lon="-4.76181">
        <ele>37.2</ele>
        <time>2025-09-25T14:02:01Z</time>
      </trkpt>
      <trkpt lat="48.49875" lon="-4.76204">
        <ele>37.2</ele>
        <time>2025-09-25T14:02:07Z</time>
      </trkpt>
      <trkpt lat="48.49878" lon="-4.76218">
        <ele>37.4</ele>
        <time>2025-09-25T14:02:10Z</time>
      </trkpt>
      <trkpt lat="48.4988" lon="-4.76237">
        <ele>38</ele>
        <time>2025-09-25T14:02:14Z</time>
      </trkpt>
      <trkpt lat="48.49883" lon="-4.76279">
        <ele>37.8</ele>
        <time>2025-09-25T14:02:23Z</time>
      </trkpt>
      <trkpt lat="48.49888" lon="-4.76314">
        <ele>37.2</ele>
        <time>2025-09-25T14:02:30Z</time>
      </trkpt>
      <trkpt lat="48.49904" lon="-4.76336">
        <ele>37.2</ele>
        <time>2025-09-25T14:02:36Z</time>
      </trkpt>
      <trkpt lat="48.49927" lon="-4.76371">
        <ele>37.4</ele>
        <time>2025-09-25T14:02:45Z</time>
      </trkpt>
      <trkpt lat="48.49938" lon="-4.76401">
        <ele>37.4</ele>
        <time>2025-09-25T14:02:52Z</time>
      </trkpt>
      <trkpt lat="48.4994" lon="-4.76413">
        <ele>37.8</ele>
        <time>2025-09-25T14:02:57Z</time>
      </trkpt>
      <trkpt lat="48.49939" lon="-4.76416">
        <ele>37.8</ele>
        <time>2025-09-25T14:02:58Z</time>
      </trkpt>
      <trkpt lat="48.49934" lon="-4.76419">
        <ele>37.6</ele>
        <time>2025-09-25T14:03:00Z</time>
      </trkpt>
      <trkpt lat="48.49921" lon="-4.76422">
        <ele>37.2</ele>
        <time>2025-09-25T14:03:04Z</time>
      </trkpt>
      <trkpt lat="48.49913" lon="-4.76424">
        <ele>37</ele>
        <time>2025-09-25T14:03:06Z</time>
      </trkpt>
      <trkpt lat="48.49887" lon="-4.76432">
        <ele>36.2</ele>
        <time>2025-09-25T14:03:11Z</time>
      </trkpt>
      <trkpt lat="48.49881" lon="-4.76434">
        <ele>36</ele>
        <time>2025-09-25T14:03:12Z</time>
      </trkpt>
      <trkpt lat="48.49855" lon="-4.76439">
        <ele>35.2</ele>
        <time>2025-09-25T14:03:16Z</time>
      </trkpt>
      <trkpt lat="48.49834" lon="-4.76444">
        <ele>34</ele>
        <time>2025-09-25T14:03:19Z</time>
      </trkpt>
      <trkpt lat="48.49811" lon="-4.7645">
        <ele>32.8</ele>
        <time>2025-09-25T14:03:22Z</time>
      </trkpt>
      <trkpt lat="48.49786" lon="-4.76458">
        <ele>32</ele>
        <time>2025-09-25T14:03:25Z</time>
      </trkpt>
      <trkpt lat="48.49768" lon="-4.76465">
        <ele>31.6</ele>
        <time>2025-09-25T14:03:27Z</time>
      </trkpt>
      <trkpt lat="48.49743" lon="-4.7648">
        <ele>31</ele>
        <time>2025-09-25T14:03:30Z</time>
      </trkpt>
      <trkpt lat="48.49726" lon="-4.76493">
        <ele>30.4</ele>
        <time>2025-09-25T14:03:32Z</time>
      </trkpt>
      <trkpt lat="48.497" lon="-4.76512">
        <ele>29.4</ele>
        <time>2025-09-25T14:03:35Z</time>
      </trkpt>
      <trkpt lat="48.49691" lon="-4.76518">
        <ele>29</ele>
        <time>2025-09-25T14:03:36Z</time>
      </trkpt>
      <trkpt lat="48.49673" lon="-4.76529">
        <ele>28.4</ele>
        <time>2025-09-25T14:03:38Z</time>
      </trkpt>
      <trkpt lat="48.49644" lon="-4.7654">
        <ele>27.4</ele>
        <time>2025-09-25T14:03:41Z</time>
      </trkpt>
      <trkpt lat="48.49602" lon="-4.76542">
        <ele>26</ele>
        <time>2025-09-25T14:03:45Z</time>
      </trkpt>
      <trkpt lat="48.49562" lon="-4.76529">
        <ele>25.2</ele>
        <time>2025-09-25T14:03:49Z</time>
      </trkpt>
      <trkpt lat="48.49524" lon="-4.76512">
        <ele>26</ele>
        <time>2025-09-25T14:03:53Z</time>
      </trkpt>
      <trkpt lat="48.49506" lon="-4.76504">
        <ele>27</ele>
        <time>2025-09-25T14:03:55Z</time>
      </trkpt>
      <trkpt lat="48.49496" lon="-4.765">
        <ele>27.2</ele>
        <time>2025-09-25T14:03:56Z</time>
      </trkpt>
      <trkpt lat="48.49488" lon="-4.76496">
        <ele>27.2</ele>
        <time>2025-09-25T14:03:57Z</time>
      </trkpt>
      <trkpt lat="48.49452" lon="-4.76481">
        <ele>28.2</ele>
        <time>2025-09-25T14:04:01Z</time>
      </trkpt>
      <trkpt lat="48.49406" lon="-4.76464">
        <ele>28.2</ele>
        <time>2025-09-25T14:04:06Z</time>
      </trkpt>
      <trkpt lat="48.49397" lon="-4.7646">
        <ele>28.2</ele>
        <time>2025-09-25T14:04:07Z</time>
      </trkpt>
      <trkpt lat="48.49368" lon="-4.76452">
        <ele>26.8</ele>
        <time>2025-09-25T14:04:10Z</time>
      </trkpt>
      <trkpt lat="48.49341" lon="-4.76451">
        <ele>26</ele>
        <time>2025-09-25T14:04:13Z</time>
      </trkpt>
      <trkpt lat="48.49326" lon="-4.76453">
        <ele>26.2</ele>
        <time>2025-09-25T14:04:15Z</time>
      </trkpt>
      <trkpt lat="48.49312" lon="-4.76458">
        <ele>26.4</ele>
        <time>2025-09-25T14:04:17Z</time>
      </trkpt>
      <trkpt lat="48.49299" lon="-4.76458">
        <ele>26</ele>
        <time>2025-09-25T14:04:19Z</time>
      </trkpt>
      <trkpt lat="48.49293" lon="-4.76454">
        <ele>25.4</ele>
        <time>2025-09-25T14:04:20Z</time>
      </trkpt>
      <trkpt lat="48.49288" lon="-4.76449">
        <ele>24.8</ele>
        <time>2025-09-25T14:04:21Z</time>
      </trkpt>
      <trkpt lat="48.49283" lon="-4.76443">
        <ele>24.4</ele>
        <time>2025-09-25T14:04:22Z</time>
      </trkpt>
      <trkpt lat="48.49278" lon="-4.76438">
        <ele>24.2</ele>
        <time>2025-09-25T14:04:23Z</time>
      </trkpt>
      <trkpt lat="48.49273" lon="-4.76433">
        <ele>24</ele>
        <time>2025-09-25T14:04:24Z</time>
      </trkpt>
      <trkpt lat="48.49258" lon="-4.76422">
        <ele>24.6</ele>
        <time>2025-09-25T14:04:27Z</time>
      </trkpt>
      <trkpt lat="48.49249" lon="-4.76412">
        <ele>24.8</ele>
        <time>2025-09-25T14:04:29Z</time>
      </trkpt>
      <trkpt lat="48.49246" lon="-4.76406">
        <ele>24.8</ele>
        <time>2025-09-25T14:04:30Z</time>
      </trkpt>
      <trkpt lat="48.49244" lon="-4.76399">
        <ele>24.8</ele>
        <time>2025-09-25T14:04:31Z</time>
      </trkpt>
      <trkpt lat="48.49242" lon="-4.76384">
        <ele>25</ele>
        <time>2025-09-25T14:04:33Z</time>
      </trkpt>
      <trkpt lat="48.4924" lon="-4.76365">
        <ele>25.2</ele>
        <time>2025-09-25T14:04:36Z</time>
      </trkpt>
      <trkpt lat="48.4924" lon="-4.76354">
        <ele>25.4</ele>
        <time>2025-09-25T14:04:38Z</time>
      </trkpt>
      <trkpt lat="48.49239" lon="-4.76348">
        <ele>25.4</ele>
        <time>2025-09-25T14:04:39Z</time>
      </trkpt>
      <trkpt lat="48.49238" lon="-4.76332">
        <ele>25.8</ele>
        <time>2025-09-25T14:04:42Z</time>
      </trkpt>
      <trkpt lat="48.49235" lon="-4.76311">
        <ele>26.6</ele>
        <time>2025-09-25T14:04:46Z</time>
      </trkpt>
      <trkpt lat="48.49234" lon="-4.763">
        <ele>26.8</ele>
        <time>2025-09-25T14:04:48Z</time>
      </trkpt>
      <trkpt lat="48.49229" lon="-4.76251">
        <ele>27.2</ele>
        <time>2025-09-25T14:04:58Z</time>
      </trkpt>
      <trkpt lat="48.49235" lon="-4.76222">
        <ele>26.2</ele>
        <time>2025-09-25T14:05:04Z</time>
      </trkpt>
      <trkpt lat="48.49237" lon="-4.76211">
        <ele>25.6</ele>
        <time>2025-09-25T14:05:06Z</time>
      </trkpt>
      <trkpt lat="48.49238" lon="-4.7619">
        <ele>24.4</ele>
        <time>2025-09-25T14:05:09Z</time>
      </trkpt>
      <trkpt lat="48.49237" lon="-4.76176">
        <ele>23.6</ele>
        <time>2025-09-25T14:05:11Z</time>
      </trkpt>
      <trkpt lat="48.49235" lon="-4.76169">
        <ele>23.4</ele>
        <time>2025-09-25T14:05:12Z</time>
      </trkpt>
      <trkpt lat="48.49233" lon="-4.76162">
        <ele>23</ele>
        <time>2025-09-25T14:05:13Z</time>
      </trkpt>
      <trkpt lat="48.4923" lon="-4.76155">
        <ele>22.8</ele>
        <time>2025-09-25T14:05:14Z</time>
      </trkpt>
      <trkpt lat="48.49221" lon="-4.76136">
        <ele>22.2</ele>
        <time>2025-09-25T14:05:17Z</time>
      </trkpt>
      <trkpt lat="48.49215" lon="-4.76123">
        <ele>21.8</ele>
        <time>2025-09-25T14:05:19Z</time>
      </trkpt>
      <trkpt lat="48.49212" lon="-4.76116">
        <ele>21.4</ele>
        <time>2025-09-25T14:05:20Z</time>
      </trkpt>
      <trkpt lat="48.49209" lon="-4.76108">
        <ele>21</ele>
        <time>2025-09-25T14:05:21Z</time>
      </trkpt>
      <trkpt lat="48.49201" lon="-4.76075">
        <ele>21.8</ele>
        <time>2025-09-25T14:05:26Z</time>
      </trkpt>
      <trkpt lat="48.492" lon="-4.7607">
        <ele>22.2</ele>
        <time>2025-09-25T14:05:27Z</time>
      </trkpt>
      <trkpt lat="48.49198" lon="-4.76061">
        <ele>23.4</ele>
        <time>2025-09-25T14:05:29Z</time>
      </trkpt>
      <trkpt lat="48.49195" lon="-4.76044">
        <ele>24.6</ele>
        <time>2025-09-25T14:05:33Z</time>
      </trkpt>
      <trkpt lat="48.49194" lon="-4.76034">
        <ele>25.6</ele>
        <time>2025-09-25T14:05:36Z</time>
      </trkpt>
      <trkpt lat="48.49191" lon="-4.76015">
        <ele>26.6</ele>
        <time>2025-09-25T14:05:41Z</time>
      </trkpt>
      <trkpt lat="48.49187" lon="-4.75993">
        <ele>27.8</ele>
        <time>2025-09-25T14:05:47Z</time>
      </trkpt>
      <trkpt lat="48.49185" lon="-4.75982">
        <ele>28.2</ele>
        <time>2025-09-25T14:05:50Z</time>
      </trkpt>
      <trkpt lat="48.49182" lon="-4.75968">
        <ele>28.8</ele>
        <time>2025-09-25T14:05:54Z</time>
      </trkpt>
      <trkpt lat="48.49179" lon="-4.75947">
        <ele>28.8</ele>
        <time>2025-09-25T14:06:00Z</time>
      </trkpt>
      <trkpt lat="48.49177" lon="-4.75934">
        <ele>30.2</ele>
        <time>2025-09-25T14:06:04Z</time>
      </trkpt>
      <trkpt lat="48.49176" lon="-4.75921">
        <ele>31</ele>
        <time>2025-09-25T14:06:08Z</time>
      </trkpt>
      <trkpt lat="48.49175" lon="-4.75915">
        <ele>31.2</ele>
        <time>2025-09-25T14:06:10Z</time>
      </trkpt>
      <trkpt lat="48.49172" lon="-4.75898">
        <ele>31.8</ele>
        <time>2025-09-25T14:06:16Z</time>
      </trkpt>
      <trkpt lat="48.49171" lon="-4.75895">
        <ele>32</ele>
        <time>2025-09-25T14:06:17Z</time>
      </trkpt>
      <trkpt lat="48.49171" lon="-4.75893">
        <ele>32</ele>
        <time>2025-09-25T14:06:18Z</time>
      </trkpt>
      <trkpt lat="48.4917" lon="-4.7589">
        <ele>32.2</ele>
        <time>2025-09-25T14:06:19Z</time>
      </trkpt>
      <trkpt lat="48.49165" lon="-4.75868">
        <ele>32.8</ele>
        <time>2025-09-25T14:06:27Z</time>
      </trkpt>
      <trkpt lat="48.49163" lon="-4.75854">
        <ele>33.4</ele>
        <time>2025-09-25T14:06:33Z</time>
      </trkpt>
      <trkpt lat="48.49162" lon="-4.7585">
        <ele>33.4</ele>
        <time>2025-09-25T14:06:35Z</time>
      </trkpt>
      <trkpt lat="48.49159" lon="-4.75831">
        <ele>34</ele>
        <time>2025-09-25T14:06:43Z</time>
      </trkpt>
      <trkpt lat="48.49155" lon="-4.75813">
        <ele>34.4</ele>
        <time>2025-09-25T14:06:51Z</time>
      </trkpt>
      <trkpt lat="48.49151" lon="-4.7579">
        <ele>35</ele>
        <time>2025-09-25T14:07:00Z</time>
      </trkpt>
      <trkpt lat="48.49147" lon="-4.7577">
        <ele>35.4</ele>
        <time>2025-09-25T14:07:07Z</time>
      </trkpt>
      <trkpt lat="48.49145" lon="-4.75759">
        <ele>35.4</ele>
        <time>2025-09-25T14:07:11Z</time>
      </trkpt>
      <trkpt lat="48.49145" lon="-4.75757">
        <ele>35.6</ele>
        <time>2025-09-25T14:07:12Z</time>
      </trkpt>
      <trkpt lat="48.4914" lon="-4.75732">
        <ele>36.8</ele>
        <time>2025-09-25T14:07:21Z</time>
      </trkpt>
      <trkpt lat="48.49137" lon="-4.75717">
        <ele>37.4</ele>
        <time>2025-09-25T14:07:26Z</time>
      </trkpt>
      <trkpt lat="48.49135" lon="-4.75708">
        <ele>37.8</ele>
        <time>2025-09-25T14:07:29Z</time>
      </trkpt>
      <trkpt lat="48.49133" lon="-4.75702">
        <ele>38</ele>
        <time>2025-09-25T14:07:31Z</time>
      </trkpt>
      <trkpt lat="48.49129" lon="-4.75686">
        <ele>38.2</ele>
        <time>2025-09-25T14:07:37Z</time>
      </trkpt>
      <trkpt lat="48.49128" lon="-4.75684">
        <ele>38.2</ele>
        <time>2025-09-25T14:07:38Z</time>
      </trkpt>
      <trkpt lat="48.49126" lon="-4.75675">
        <ele>38.2</ele>
        <time>2025-09-25T14:07:41Z</time>
      </trkpt>
      <trkpt lat="48.49122" lon="-4.75658">
        <ele>38.8</ele>
        <time>2025-09-25T14:07:47Z</time>
      </trkpt>
      <trkpt lat="48.49113" lon="-4.75631">
        <ele>38.8</ele>
        <time>2025-09-25T14:07:56Z</time>
      </trkpt>
      <trkpt lat="48.49105" lon="-4.75626">
        <ele>39</ele>
        <time>2025-09-25T14:08:00Z</time>
      </trkpt>
      <trkpt lat="48.49097" lon="-4.7563">
        <ele>38.8</ele>
        <time>2025-09-25T14:08:04Z</time>
      </trkpt>
      <trkpt lat="48.49094" lon="-4.75632">
        <ele>38.8</ele>
        <time>2025-09-25T14:08:05Z</time>
      </trkpt>
      <trkpt lat="48.49084" lon="-4.75638">
        <ele>38.6</ele>
        <time>2025-09-25T14:08:09Z</time>
      </trkpt>
      <trkpt lat="48.49079" lon="-4.75642">
        <ele>38.6</ele>
        <time>2025-09-25T14:08:11Z</time>
      </trkpt>
      <trkpt lat="48.49055" lon="-4.75663">
        <ele>38.4</ele>
        <time>2025-09-25T14:08:20Z</time>
      </trkpt>
      <trkpt lat="48.4905" lon="-4.75683">
        <ele>37.8</ele>
        <time>2025-09-25T14:08:24Z</time>
      </trkpt>
      <trkpt lat="48.49049" lon="-4.75689">
        <ele>37.6</ele>
        <time>2025-09-25T14:08:25Z</time>
      </trkpt>
      <trkpt lat="48.4904" lon="-4.75708">
        <ele>36.8</ele>
        <time>2025-09-25T14:08:29Z</time>
      </trkpt>
      <trkpt lat="48.49037" lon="-4.75712">
        <ele>36.6</ele>
        <time>2025-09-25T14:08:30Z</time>
      </trkpt>
      <trkpt lat="48.49033" lon="-4.75716">
        <ele>36.6</ele>
        <time>2025-09-25T14:08:31Z</time>
      </trkpt>
      <trkpt lat="48.49025" lon="-4.7572">
        <ele>36</ele>
        <time>2025-09-25T14:08:33Z</time>
      </trkpt>
      <trkpt lat="48.49016" lon="-4.75725">
        <ele>35.4</ele>
        <time>2025-09-25T14:08:35Z</time>
      </trkpt>
      <trkpt lat="48.48978" lon="-4.75736">
        <ele>34.8</ele>
        <time>2025-09-25T14:08:43Z</time>
      </trkpt>
      <trkpt lat="48.48968" lon="-4.7574">
        <ele>34.8</ele>
        <time>2025-09-25T14:08:46Z</time>
      </trkpt>
      <trkpt lat="48.48966" lon="-4.75744">
        <ele>34.6</ele>
        <time>2025-09-25T14:08:47Z</time>
      </trkpt>
      <trkpt lat="48.48964" lon="-4.75752">
        <ele>34.2</ele>
        <time>2025-09-25T14:08:49Z</time>
      </trkpt>
      <trkpt lat="48.48959" lon="-4.75767">
        <ele>33.6</ele>
        <time>2025-09-25T14:08:52Z</time>
      </trkpt>
      <trkpt lat="48.48956" lon="-4.75777">
        <ele>33.6</ele>
        <time>2025-09-25T14:08:54Z</time>
      </trkpt>
      <trkpt lat="48.48952" lon="-4.75789">
        <ele>33.6</ele>
        <time>2025-09-25T14:08:58Z</time>
      </trkpt>
      <trkpt lat="48.4895" lon="-4.75796">
        <ele>33.4</ele>
        <time>2025-09-25T14:09:04Z</time>
      </trkpt>
      <trkpt lat="48.4895" lon="-4.75795">
        <ele>33.4</ele>
        <time>2025-09-25T14:09:05Z</time>
      </trkpt>
      <trkpt lat="48.4895" lon="-4.75798">
        <ele>33.4</ele>
        <time>2025-09-25T14:09:19Z</time>
      </trkpt>
      <trkpt lat="48.4895" lon="-4.75799">
        <ele>33.4</ele>
        <time>2025-09-25T14:09:20Z</time>
      </trkpt>
      <trkpt lat="48.4895" lon="-4.75801">
        <ele>33.4</ele>
        <time>2025-09-25T14:09:21Z</time>
      </trkpt>
      <trkpt lat="48.4895" lon="-4.75807">
        <ele>33.4</ele>
        <time>2025-09-25T14:09:26Z</time>
      </trkpt>
      <trkpt lat="48.48951" lon="-4.75808">
        <ele>33.2</ele>
        <time>2025-09-25T14:10:12Z</time>
      </trkpt>
      <trkpt lat="48.4895" lon="-4.75819">
        <ele>33</ele>
        <time>2025-09-25T14:10:21Z</time>
      </trkpt>
      <trkpt lat="48.48949" lon="-4.75819">
        <ele>33</ele>
        <time>2025-09-25T14:10:23Z</time>
      </trkpt>
      <trkpt lat="48.48949" lon="-4.75821">
        <ele>33</ele>
        <time>2025-09-25T14:10:57Z</time>
      </trkpt>
      <trkpt lat="48.48949" lon="-4.75822">
        <ele>33</ele>
        <time>2025-09-25T14:10:58Z</time>
      </trkpt>
      <trkpt lat="48.48949" lon="-4.75823">
        <ele>33</ele>
        <time>2025-09-25T14:10:59Z</time>
      </trkpt>
      <trkpt lat="48.48948" lon="-4.75831">
        <ele>32.8</ele>
        <time>2025-09-25T14:11:06Z</time>
      </trkpt>
      <trkpt lat="48.48948" lon="-4.75829">
        <ele>32.8</ele>
        <time>2025-09-25T14:11:34Z</time>
      </trkpt>
      <trkpt lat="48.48949" lon="-4.75823">
        <ele>32.8</ele>
        <time>2025-09-25T14:11:40Z</time>
      </trkpt>
      <trkpt lat="48.4895" lon="-4.75819">
        <ele>32.8</ele>
        <time>2025-09-25T14:11:43Z</time>
      </trkpt>
      <trkpt lat="48.48953" lon="-4.75812">
        <ele>32.4</ele>
        <time>2025-09-25T14:11:48Z</time>
      </trkpt>
      <trkpt lat="48.48954" lon="-4.75809">
        <ele>32.2</ele>
        <time>2025-09-25T14:11:50Z</time>
      </trkpt>
      <trkpt lat="48.48959" lon="-4.75804">
        <ele>32.4</ele>
        <time>2025-09-25T14:11:56Z</time>
      </trkpt>
      <trkpt lat="48.48959" lon="-4.75803">
        <ele>32.6</ele>
        <time>2025-09-25T14:11:58Z</time>
      </trkpt>
      <trkpt lat="48.4896" lon="-4.75802">
        <ele>32.4</ele>
        <time>2025-09-25T14:12:00Z</time>
      </trkpt>
      <trkpt lat="48.4896" lon="-4.75802">
        <ele>32.4</ele>
        <time>2025-09-25T14:12:02Z</time>
      </trkpt>
      <trkpt lat="48.48959" lon="-4.75801">
        <ele>32.8</ele>
        <time>2025-09-25T14:12:20Z</time>
      </trkpt>
      <trkpt lat="48.4896" lon="-4.75801">
        <ele>32.8</ele>
        <time>2025-09-25T14:12:23Z</time>
      </trkpt>
      <trkpt lat="48.48962" lon="-4.75802">
        <ele>32.6</ele>
        <time>2025-09-25T14:12:27Z</time>
      </trkpt>
      <trkpt lat="48.48961" lon="-4.75802">
        <ele>33</ele>
        <time>2025-09-25T14:12:55Z</time>
      </trkpt>
      <trkpt lat="48.4896" lon="-4.75802">
        <ele>33</ele>
        <time>2025-09-25T14:12:56Z</time>
      </trkpt>
      <trkpt lat="48.48951" lon="-4.75805">
        <ele>33</ele>
        <time>2025-09-25T14:13:03Z</time>
      </trkpt>
      <trkpt lat="48.48951" lon="-4.75805">
        <ele>33</ele>
        <time>2025-09-25T14:13:05Z</time>
      </trkpt>
      <trkpt lat="48.4895" lon="-4.75804">
        <ele>33</ele>
        <time>2025-09-25T14:13:23Z</time>
      </trkpt>
      <trkpt lat="48.4895" lon="-4.75803">
        <ele>33</ele>
        <time>2025-09-25T14:13:25Z</time>
      </trkpt>
      <trkpt lat="48.48949" lon="-4.75798">
        <ele>32.4</ele>
        <time>2025-09-25T14:13:30Z</time>
      </trkpt>
      <trkpt lat="48.48952" lon="-4.75789">
        <ele>32.6</ele>
        <time>2025-09-25T14:13:35Z</time>
      </trkpt>
      <trkpt lat="48.48958" lon="-4.75771">
        <ele>33</ele>
        <time>2025-09-25T14:13:44Z</time>
      </trkpt>
      <trkpt lat="48.4896" lon="-4.7576">
        <ele>33.2</ele>
        <time>2025-09-25T14:13:49Z</time>
      </trkpt>
      <trkpt lat="48.48963" lon="-4.75752">
        <ele>33.8</ele>
        <time>2025-09-25T14:13:53Z</time>
      </trkpt>
      <trkpt lat="48.48968" lon="-4.75735">
        <ele>34</ele>
        <time>2025-09-25T14:14:01Z</time>
      </trkpt>
      <trkpt lat="48.4897" lon="-4.75734">
        <ele>34.2</ele>
        <time>2025-09-25T14:14:02Z</time>
      </trkpt>
      <trkpt lat="48.48979" lon="-4.75732">
        <ele>34.4</ele>
        <time>2025-09-25T14:14:07Z</time>
      </trkpt>
      <trkpt lat="48.48996" lon="-4.7573">
        <ele>34.8</ele>
        <time>2025-09-25T14:14:15Z</time>
      </trkpt>
      <trkpt lat="48.49008" lon="-4.75724">
        <ele>34.6</ele>
        <time>2025-09-25T14:14:21Z</time>
      </trkpt>
      <trkpt lat="48.49014" lon="-4.75722">
        <ele>35.4</ele>
        <time>2025-09-25T14:14:24Z</time>
      </trkpt>
      <trkpt lat="48.49022" lon="-4.75718">
        <ele>35.4</ele>
        <time>2025-09-25T14:14:28Z</time>
      </trkpt>
      <trkpt lat="48.49033" lon="-4.75713">
        <ele>36.2</ele>
        <time>2025-09-25T14:14:34Z</time>
      </trkpt>
      <trkpt lat="48.49035" lon="-4.75712">
        <ele>36.4</ele>
        <time>2025-09-25T14:14:35Z</time>
      </trkpt>
      <trkpt lat="48.49038" lon="-4.7571">
        <ele>36.4</ele>
        <time>2025-09-25T14:14:37Z</time>
      </trkpt>
      <trkpt lat="48.49044" lon="-4.75703">
        <ele>36.8</ele>
        <time>2025-09-25T14:14:41Z</time>
      </trkpt>
      <trkpt lat="48.49048" lon="-4.75694">
        <ele>37.2</ele>
        <time>2025-09-25T14:14:45Z</time>
      </trkpt>
      <trkpt lat="48.49051" lon="-4.75683">
        <ele>37.4</ele>
        <time>2025-09-25T14:14:49Z</time>
      </trkpt>
      <trkpt lat="48.49055" lon="-4.75672">
        <ele>37.4</ele>
        <time>2025-09-25T14:14:54Z</time>
      </trkpt>
      <trkpt lat="48.49061" lon="-4.7566">
        <ele>37.2</ele>
        <time>2025-09-25T14:14:59Z</time>
      </trkpt>
      <trkpt lat="48.49074" lon="-4.75648">
        <ele>37.8</ele>
        <time>2025-09-25T14:15:07Z</time>
      </trkpt>
      <trkpt lat="48.49085" lon="-4.75638">
        <ele>37.6</ele>
        <time>2025-09-25T14:15:14Z</time>
      </trkpt>
      <trkpt lat="48.49097" lon="-4.75629">
        <ele>38.2</ele>
        <time>2025-09-25T14:15:21Z</time>
      </trkpt>
      <trkpt lat="48.49107" lon="-4.7562">
        <ele>38.6</ele>
        <time>2025-09-25T14:15:27Z</time>
      </trkpt>
      <trkpt lat="48.49107" lon="-4.75618">
        <ele>38.6</ele>
        <time>2025-09-25T14:15:28Z</time>
      </trkpt>
      <trkpt lat="48.49104" lon="-4.75604">
        <ele>39.2</ele>
        <time>2025-09-25T14:15:33Z</time>
      </trkpt>
      <trkpt lat="48.491" lon="-4.75589">
        <ele>39.4</ele>
        <time>2025-09-25T14:15:39Z</time>
      </trkpt>
      <trkpt lat="48.49095" lon="-4.75578">
        <ele>39.6</ele>
        <time>2025-09-25T14:15:44Z</time>
      </trkpt>
      <trkpt lat="48.49091" lon="-4.75569">
        <ele>39.8</ele>
        <time>2025-09-25T14:15:48Z</time>
      </trkpt>
      <trkpt lat="48.49083" lon="-4.75548">
        <ele>40</ele>
        <time>2025-09-25T14:15:57Z</time>
      </trkpt>
      <trkpt lat="48.49082" lon="-4.75546">
        <ele>40</ele>
        <time>2025-09-25T14:15:58Z</time>
      </trkpt>
      <trkpt lat="48.49078" lon="-4.75536">
        <ele>40</ele>
        <time>2025-09-25T14:16:02Z</time>
      </trkpt>
      <trkpt lat="48.49074" lon="-4.75527">
        <ele>40</ele>
        <time>2025-09-25T14:16:05Z</time>
      </trkpt>
      <trkpt lat="48.49062" lon="-4.75497">
        <ele>40.6</ele>
        <time>2025-09-25T14:16:14Z</time>
      </trkpt>
      <trkpt lat="48.4906" lon="-4.75494">
        <ele>40.8</ele>
        <time>2025-09-25T14:16:15Z</time>
      </trkpt>
      <trkpt lat="48.49048" lon="-4.75467">
        <ele>41</ele>
        <time>2025-09-25T14:16:23Z</time>
      </trkpt>
      <trkpt lat="48.49045" lon="-4.75461">
        <ele>41</ele>
        <time>2025-09-25T14:16:25Z</time>
      </trkpt>
      <trkpt lat="48.49044" lon="-4.75458">
        <ele>41</ele>
        <time>2025-09-25T14:16:26Z</time>
      </trkpt>
      <trkpt lat="48.49041" lon="-4.75452">
        <ele>40.8</ele>
        <time>2025-09-25T14:16:28Z</time>
      </trkpt>
      <trkpt lat="48.49031" lon="-4.75432">
        <ele>40.8</ele>
        <time>2025-09-25T14:16:34Z</time>
      </trkpt>
      <trkpt lat="48.49019" lon="-4.75405">
        <ele>41</ele>
        <time>2025-09-25T14:16:43Z</time>
      </trkpt>
      <trkpt lat="48.49017" lon="-4.75399">
        <ele>41.2</ele>
        <time>2025-09-25T14:16:45Z</time>
      </trkpt>
      <trkpt lat="48.49002" lon="-4.75367">
        <ele>40.6</ele>
        <time>2025-09-25T14:16:54Z</time>
      </trkpt>
      <trkpt lat="48.48983" lon="-4.75326">
        <ele>40.4</ele>
        <time>2025-09-25T14:17:03Z</time>
      </trkpt>
      <trkpt lat="48.48967" lon="-4.75283">
        <ele>40.4</ele>
        <time>2025-09-25T14:17:12Z</time>
      </trkpt>
      <trkpt lat="48.48956" lon="-4.75232">
        <ele>40.6</ele>
        <time>2025-09-25T14:17:22Z</time>
      </trkpt>
      <trkpt lat="48.48949" lon="-4.75192">
        <ele>41.2</ele>
        <time>2025-09-25T14:17:30Z</time>
      </trkpt>
      <trkpt lat="48.48942" lon="-4.75145">
        <ele>41.6</ele>
        <time>2025-09-25T14:17:40Z</time>
      </trkpt>
      <trkpt lat="48.48941" lon="-4.75135">
        <ele>41.6</ele>
        <time>2025-09-25T14:17:42Z</time>
      </trkpt>
      <trkpt lat="48.48936" lon="-4.75086">
        <ele>41.8</ele>
        <time>2025-09-25T14:17:52Z</time>
      </trkpt>
      <trkpt lat="48.48932" lon="-4.75039">
        <ele>42.4</ele>
        <time>2025-09-25T14:18:02Z</time>
      </trkpt>
      <trkpt lat="48.48929" lon="-4.75">
        <ele>42.2</ele>
        <time>2025-09-25T14:18:11Z</time>
      </trkpt>
      <trkpt lat="48.48928" lon="-4.74988">
        <ele>42.8</ele>
        <time>2025-09-25T14:18:14Z</time>
      </trkpt>
      <trkpt lat="48.48926" lon="-4.74968">
        <ele>43.2</ele>
        <time>2025-09-25T14:18:19Z</time>
      </trkpt>
      <trkpt lat="48.48925" lon="-4.74951">
        <ele>43.8</ele>
        <time>2025-09-25T14:18:23Z</time>
      </trkpt>
      <trkpt lat="48.48923" lon="-4.74921">
        <ele>44</ele>
        <time>2025-09-25T14:18:30Z</time>
      </trkpt>
      <trkpt lat="48.4892" lon="-4.74892">
        <ele>44.8</ele>
        <time>2025-09-25T14:18:38Z</time>
      </trkpt>
      <trkpt lat="48.4892" lon="-4.74888">
        <ele>45</ele>
        <time>2025-09-25T14:18:39Z</time>
      </trkpt>
      <trkpt lat="48.48919" lon="-4.74878">
        <ele>45.2</ele>
        <time>2025-09-25T14:18:42Z</time>
      </trkpt>
      <trkpt lat="48.48917" lon="-4.74863">
        <ele>45.4</ele>
        <time>2025-09-25T14:18:47Z</time>
      </trkpt>
      <trkpt lat="48.48914" lon="-4.74833">
        <ele>45.4</ele>
        <time>2025-09-25T14:18:56Z</time>
      </trkpt>
      <trkpt lat="48.48912" lon="-4.74823">
        <ele>46.2</ele>
        <time>2025-09-25T14:18:59Z</time>
      </trkpt>
      <trkpt lat="48.48908" lon="-4.74802">
        <ele>46.6</ele>
        <time>2025-09-25T14:19:06Z</time>
      </trkpt>
      <trkpt lat="48.48905" lon="-4.7479">
        <ele>46.8</ele>
        <time>2025-09-25T14:19:10Z</time>
      </trkpt>
      <trkpt lat="48.48903" lon="-4.74785">
        <ele>46.8</ele>
        <time>2025-09-25T14:19:12Z</time>
      </trkpt>
      <trkpt lat="48.48901" lon="-4.74776">
        <ele>46.8</ele>
        <time>2025-09-25T14:19:15Z</time>
      </trkpt>
      <trkpt lat="48.48899" lon="-4.74767">
        <ele>47.2</ele>
        <time>2025-09-25T14:19:18Z</time>
      </trkpt>
      <trkpt lat="48.48893" lon="-4.74748">
        <ele>47.4</ele>
        <time>2025-09-25T14:19:25Z</time>
      </trkpt>
      <trkpt lat="48.48888" lon="-4.74727">
        <ele>47.8</ele>
        <time>2025-09-25T14:19:32Z</time>
      </trkpt>
      <trkpt lat="48.48886" lon="-4.74719">
        <ele>48</ele>
        <time>2025-09-25T14:19:35Z</time>
      </trkpt>
      <trkpt lat="48.48885" lon="-4.74716">
        <ele>48.2</ele>
        <time>2025-09-25T14:19:36Z</time>
      </trkpt>
      <trkpt lat="48.4888" lon="-4.74692">
        <ele>49.2</ele>
        <time>2025-09-25T14:19:44Z</time>
      </trkpt>
      <trkpt lat="48.4888" lon="-4.74689">
        <ele>49.2</ele>
        <time>2025-09-25T14:19:45Z</time>
      </trkpt>
      <trkpt lat="48.48876" lon="-4.74678">
        <ele>49.4</ele>
        <time>2025-09-25T14:19:49Z</time>
      </trkpt>
      <trkpt lat="48.48872" lon="-4.74662">
        <ele>49.6</ele>
        <time>2025-09-25T14:19:54Z</time>
      </trkpt>
      <trkpt lat="48.48865" lon="-4.74637">
        <ele>49.6</ele>
        <time>2025-09-25T14:20:02Z</time>
      </trkpt>
      <trkpt lat="48.4886" lon="-4.74615">
        <ele>50</ele>
        <time>2025-09-25T14:20:09Z</time>
      </trkpt>
      <trkpt lat="48.48856" lon="-4.74602">
        <ele>50.4</ele>
        <time>2025-09-25T14:20:13Z</time>
      </trkpt>
      <trkpt lat="48.48852" lon="-4.74587">
        <ele>50.8</ele>
        <time>2025-09-25T14:20:18Z</time>
      </trkpt>
      <trkpt lat="48.48856" lon="-4.74572">
        <ele>50.6</ele>
        <time>2025-09-25T14:20:23Z</time>
      </trkpt>
      <trkpt lat="48.4887" lon="-4.74552">
        <ele>50.6</ele>
        <time>2025-09-25T14:20:31Z</time>
      </trkpt>
      <trkpt lat="48.48889" lon="-4.74528">
        <ele>50.8</ele>
        <time>2025-09-25T14:20:40Z</time>
      </trkpt>
      <trkpt lat="48.48905" lon="-4.74506">
        <ele>50.6</ele>
        <time>2025-09-25T14:20:48Z</time>
      </trkpt>
      <trkpt lat="48.4892" lon="-4.74485">
        <ele>51.2</ele>
        <time>2025-09-25T14:20:56Z</time>
      </trkpt>
      <trkpt lat="48.48924" lon="-4.7448">
        <ele>51.4</ele>
        <time>2025-09-25T14:20:58Z</time>
      </trkpt>
      <trkpt lat="48.48928" lon="-4.74475">
        <ele>51.6</ele>
        <time>2025-09-25T14:21:00Z</time>
      </trkpt>
      <trkpt lat="48.48936" lon="-4.74463">
        <ele>51.8</ele>
        <time>2025-09-25T14:21:04Z</time>
      </trkpt>
      <trkpt lat="48.4896" lon="-4.74434">
        <ele>51.6</ele>
        <time>2025-09-25T14:21:15Z</time>
      </trkpt>
      <trkpt lat="48.48976" lon="-4.74417">
        <ele>52</ele>
        <time>2025-09-25T14:21:22Z</time>
      </trkpt>
      <trkpt lat="48.48997" lon="-4.74396">
        <ele>52.4</ele>
        <time>2025-09-25T14:21:31Z</time>
      </trkpt>
      <trkpt lat="48.49002" lon="-4.74392">
        <ele>52.4</ele>
        <time>2025-09-25T14:21:33Z</time>
      </trkpt>
      <trkpt lat="48.49011" lon="-4.74383">
        <ele>52.6</ele>
        <time>2025-09-25T14:21:37Z</time>
      </trkpt>
      <trkpt lat="48.49026" lon="-4.74367">
        <ele>52.8</ele>
        <time>2025-09-25T14:21:44Z</time>
      </trkpt>
      <trkpt lat="48.49043" lon="-4.7435">
        <ele>52.6</ele>
        <time>2025-09-25T14:21:51Z</time>
      </trkpt>
      <trkpt lat="48.49062" lon="-4.74331">
        <ele>53</ele>
        <time>2025-09-25T14:21:59Z</time>
      </trkpt>
      <trkpt lat="48.49079" lon="-4.74314">
        <ele>53.2</ele>
        <time>2025-09-25T14:22:06Z</time>
      </trkpt>
      <trkpt lat="48.49088" lon="-4.74304">
        <ele>53.6</ele>
        <time>2025-09-25T14:22:10Z</time>
      </trkpt>
      <trkpt lat="48.49099" lon="-4.74292">
        <ele>54</ele>
        <time>2025-09-25T14:22:15Z</time>
      </trkpt>
      <trkpt lat="48.49114" lon="-4.74265">
        <ele>54.2</ele>
        <time>2025-09-25T14:22:23Z</time>
      </trkpt>
      <trkpt lat="48.49119" lon="-4.74244">
        <ele>54.4</ele>
        <time>2025-09-25T14:22:29Z</time>
      </trkpt>
      <trkpt lat="48.4912" lon="-4.74232">
        <ele>54.6</ele>
        <time>2025-09-25T14:22:32Z</time>
      </trkpt>
      <trkpt lat="48.4912" lon="-4.74221">
        <ele>54.6</ele>
        <time>2025-09-25T14:22:35Z</time>
      </trkpt>
      <trkpt lat="48.49119" lon="-4.74209">
        <ele>54.4</ele>
        <time>2025-09-25T14:22:38Z</time>
      </trkpt>
      <trkpt lat="48.49113" lon="-4.7417">
        <ele>55.2</ele>
        <time>2025-09-25T14:22:48Z</time>
      </trkpt>
      <trkpt lat="48.49108" lon="-4.74146">
        <ele>55.6</ele>
        <time>2025-09-25T14:22:54Z</time>
      </trkpt>
      <trkpt lat="48.49103" lon="-4.74117">
        <ele>55.4</ele>
        <time>2025-09-25T14:23:01Z</time>
      </trkpt>
      <trkpt lat="48.49101" lon="-4.74101">
        <ele>55.4</ele>
        <time>2025-09-25T14:23:05Z</time>
      </trkpt>
      <trkpt lat="48.49095" lon="-4.74067">
        <ele>56.2</ele>
        <time>2025-09-25T14:23:13Z</time>
      </trkpt>
      <trkpt lat="48.49088" lon="-4.74022">
        <ele>56</ele>
        <time>2025-09-25T14:23:23Z</time>
      </trkpt>
      <trkpt lat="48.4908" lon="-4.73974">
        <ele>56.2</ele>
        <time>2025-09-25T14:23:34Z</time>
      </trkpt>
      <trkpt lat="48.49076" lon="-4.73952">
        <ele>56.6</ele>
        <time>2025-09-25T14:23:39Z</time>
      </trkpt>
      <trkpt lat="48.49073" lon="-4.73935">
        <ele>56.8</ele>
        <time>2025-09-25T14:23:43Z</time>
      </trkpt>
      <trkpt lat="48.49066" lon="-4.73895">
        <ele>57.2</ele>
        <time>2025-09-25T14:23:53Z</time>
      </trkpt>
      <trkpt lat="48.49067" lon="-4.73882">
        <ele>56.4</ele>
        <time>2025-09-25T14:23:56Z</time>
      </trkpt>
      <trkpt lat="48.4907" lon="-4.73875">
        <ele>56.2</ele>
        <time>2025-09-25T14:23:58Z</time>
      </trkpt>
      <trkpt lat="48.49085" lon="-4.73861">
        <ele>56.2</ele>
        <time>2025-09-25T14:24:04Z</time>
      </trkpt>
      <trkpt lat="48.49105" lon="-4.73847">
        <ele>57</ele>
        <time>2025-09-25T14:24:12Z</time>
      </trkpt>
      <trkpt lat="48.49122" lon="-4.73837">
        <ele>57.8</ele>
        <time>2025-09-25T14:24:19Z</time>
      </trkpt>
      <trkpt lat="48.49125" lon="-4.73835">
        <ele>57.8</ele>
        <time>2025-09-25T14:24:20Z</time>
      </trkpt>
      <trkpt lat="48.49146" lon="-4.73821">
        <ele>57.2</ele>
        <time>2025-09-25T14:24:29Z</time>
      </trkpt>
      <trkpt lat="48.49156" lon="-4.73815">
        <ele>57</ele>
        <time>2025-09-25T14:24:32Z</time>
      </trkpt>
      <trkpt lat="48.49167" lon="-4.73806">
        <ele>56.6</ele>
        <time>2025-09-25T14:24:35Z</time>
      </trkpt>
      <trkpt lat="48.49199" lon="-4.73779">
        <ele>55.8</ele>
        <time>2025-09-25T14:24:44Z</time>
      </trkpt>
      <trkpt lat="48.49207" lon="-4.73773">
        <ele>55.6</ele>
        <time>2025-09-25T14:24:46Z</time>
      </trkpt>
      <trkpt lat="48.49229" lon="-4.73757">
        <ele>55</ele>
        <time>2025-09-25T14:24:52Z</time>
      </trkpt>
      <trkpt lat="48.49245" lon="-4.73738">
        <ele>55</ele>
        <time>2025-09-25T14:24:58Z</time>
      </trkpt>
      <trkpt lat="48.49247" lon="-4.73728">
        <ele>54.8</ele>
        <time>2025-09-25T14:25:00Z</time>
      </trkpt>
      <trkpt lat="48.4925" lon="-4.73711">
        <ele>55</ele>
        <time>2025-09-25T14:25:03Z</time>
      </trkpt>
      <trkpt lat="48.4925" lon="-4.73706">
        <ele>55.2</ele>
        <time>2025-09-25T14:25:04Z</time>
      </trkpt>
      <trkpt lat="48.4925" lon="-4.73666">
        <ele>55.2</ele>
        <time>2025-09-25T14:25:11Z</time>
      </trkpt>
      <trkpt lat="48.49246" lon="-4.73628">
        <ele>55.2</ele>
        <time>2025-09-25T14:25:17Z</time>
      </trkpt>
      <trkpt lat="48.49243" lon="-4.7361">
        <ele>55.2</ele>
        <time>2025-09-25T14:25:20Z</time>
      </trkpt>
      <trkpt lat="48.49235" lon="-4.73573">
        <ele>55.8</ele>
        <time>2025-09-25T14:25:27Z</time>
      </trkpt>
      <trkpt lat="48.49227" lon="-4.73534">
        <ele>56.4</ele>
        <time>2025-09-25T14:25:36Z</time>
      </trkpt>
      <trkpt lat="48.49223" lon="-4.73499">
        <ele>56.6</ele>
        <time>2025-09-25T14:25:44Z</time>
      </trkpt>
      <trkpt lat="48.49219" lon="-4.73477">
        <ele>56.6</ele>
        <time>2025-09-25T14:25:49Z</time>
      </trkpt>
      <trkpt lat="48.49218" lon="-4.73463">
        <ele>56.6</ele>
        <time>2025-09-25T14:25:52Z</time>
      </trkpt>
      <trkpt lat="48.49215" lon="-4.73422">
        <ele>56.6</ele>
        <time>2025-09-25T14:26:01Z</time>
      </trkpt>
      <trkpt lat="48.49213" lon="-4.73388">
        <ele>56.8</ele>
        <time>2025-09-25T14:26:09Z</time>
      </trkpt>
      <trkpt lat="48.4921" lon="-4.73347">
        <ele>57.4</ele>
        <time>2025-09-25T14:26:18Z</time>
      </trkpt>
      <trkpt lat="48.49207" lon="-4.73304">
        <ele>57.4</ele>
        <time>2025-09-25T14:26:28Z</time>
      </trkpt>
      <trkpt lat="48.49205" lon="-4.73254">
        <ele>57.4</ele>
        <time>2025-09-25T14:26:39Z</time>
      </trkpt>
      <trkpt lat="48.49204" lon="-4.7322">
        <ele>57.6</ele>
        <time>2025-09-25T14:26:47Z</time>
      </trkpt>
      <trkpt lat="48.49204" lon="-4.73193">
        <ele>57.2</ele>
        <time>2025-09-25T14:26:54Z</time>
      </trkpt>
      <trkpt lat="48.49209" lon="-4.73159">
        <ele>57.6</ele>
        <time>2025-09-25T14:27:03Z</time>
      </trkpt>
      <trkpt lat="48.49209" lon="-4.73156">
        <ele>57.8</ele>
        <time>2025-09-25T14:27:04Z</time>
      </trkpt>
      <trkpt lat="48.49213" lon="-4.73135">
        <ele>58.6</ele>
        <time>2025-09-25T14:27:10Z</time>
      </trkpt>
      <trkpt lat="48.49217" lon="-4.73109">
        <ele>58.2</ele>
        <time>2025-09-25T14:27:17Z</time>
      </trkpt>
      <trkpt lat="48.49222" lon="-4.73081">
        <ele>58.6</ele>
        <time>2025-09-25T14:27:25Z</time>
      </trkpt>
      <trkpt lat="48.49223" lon="-4.73071">
        <ele>58.8</ele>
        <time>2025-09-25T14:27:28Z</time>
      </trkpt>
      <trkpt lat="48.49226" lon="-4.73055">
        <ele>58.8</ele>
        <time>2025-09-25T14:27:33Z</time>
      </trkpt>
      <trkpt lat="48.49231" lon="-4.7303">
        <ele>59.4</ele>
        <time>2025-09-25T14:27:41Z</time>
      </trkpt>
      <trkpt lat="48.49232" lon="-4.73027">
        <ele>59.4</ele>
        <time>2025-09-25T14:27:42Z</time>
      </trkpt>
      <trkpt lat="48.49235" lon="-4.73003">
        <ele>60</ele>
        <time>2025-09-25T14:27:50Z</time>
      </trkpt>
      <trkpt lat="48.49236" lon="-4.73001">
        <ele>60</ele>
        <time>2025-09-25T14:27:51Z</time>
      </trkpt>
      <trkpt lat="48.49242" lon="-4.7298">
        <ele>60.2</ele>
        <time>2025-09-25T14:27:58Z</time>
      </trkpt>
      <trkpt lat="48.49246" lon="-4.72963">
        <ele>60.4</ele>
        <time>2025-09-25T14:28:04Z</time>
      </trkpt>
      <trkpt lat="48.4925" lon="-4.7294">
        <ele>60.4</ele>
        <time>2025-09-25T14:28:12Z</time>
      </trkpt>
      <trkpt lat="48.49254" lon="-4.72918">
        <ele>61</ele>
        <time>2025-09-25T14:28:20Z</time>
      </trkpt>
      <trkpt lat="48.49254" lon="-4.72916">
        <ele>61</ele>
        <time>2025-09-25T14:28:21Z</time>
      </trkpt>
      <trkpt lat="48.49258" lon="-4.72896">
        <ele>61</ele>
        <time>2025-09-25T14:28:28Z</time>
      </trkpt>
      <trkpt lat="48.49262" lon="-4.7288">
        <ele>61.6</ele>
        <time>2025-09-25T14:28:34Z</time>
      </trkpt>
      <trkpt lat="48.49263" lon="-4.72867">
        <ele>61.4</ele>
        <time>2025-09-25T14:28:38Z</time>
      </trkpt>
      <trkpt lat="48.49264" lon="-4.72862">
        <ele>61.6</ele>
        <time>2025-09-25T14:28:40Z</time>
      </trkpt>
      <trkpt lat="48.49265" lon="-4.72855">
        <ele>62</ele>
        <time>2025-09-25T14:28:43Z</time>
      </trkpt>
      <trkpt lat="48.49266" lon="-4.7284">
        <ele>61.8</ele>
        <time>2025-09-25T14:28:48Z</time>
      </trkpt>
      <trkpt lat="48.49267" lon="-4.72834">
        <ele>62</ele>
        <time>2025-09-25T14:28:50Z</time>
      </trkpt>
      <trkpt lat="48.49268" lon="-4.72812">
        <ele>62.8</ele>
        <time>2025-09-25T14:28:57Z</time>
      </trkpt>
      <trkpt lat="48.49269" lon="-4.72792">
        <ele>63</ele>
        <time>2025-09-25T14:29:04Z</time>
      </trkpt>
      <trkpt lat="48.49269" lon="-4.7279">
        <ele>63</ele>
        <time>2025-09-25T14:29:05Z</time>
      </trkpt>
      <trkpt lat="48.4927" lon="-4.72765">
        <ele>63.2</ele>
        <time>2025-09-25T14:29:13Z</time>
      </trkpt>
      <trkpt lat="48.4927" lon="-4.72752">
        <ele>63.4</ele>
        <time>2025-09-25T14:29:17Z</time>
      </trkpt>
      <trkpt lat="48.4927" lon="-4.72737">
        <ele>63.2</ele>
        <time>2025-09-25T14:29:22Z</time>
      </trkpt>
      <trkpt lat="48.49273" lon="-4.72703">
        <ele>63.6</ele>
        <time>2025-09-25T14:29:32Z</time>
      </trkpt>
      <trkpt lat="48.49274" lon="-4.72675">
        <ele>63.2</ele>
        <time>2025-09-25T14:29:40Z</time>
      </trkpt>
      <trkpt lat="48.49274" lon="-4.72647">
        <ele>64</ele>
        <time>2025-09-25T14:29:48Z</time>
      </trkpt>
      <trkpt lat="48.49274" lon="-4.72644">
        <ele>64</ele>
        <time>2025-09-25T14:29:49Z</time>
      </trkpt>
      <trkpt lat="48.49276" lon="-4.72622">
        <ele>64.2</ele>
        <time>2025-09-25T14:29:56Z</time>
      </trkpt>
      <trkpt lat="48.49277" lon="-4.72609">
        <ele>64.4</ele>
        <time>2025-09-25T14:30:00Z</time>
      </trkpt>
      <trkpt lat="48.49277" lon="-4.72583">
        <ele>64.8</ele>
        <time>2025-09-25T14:30:08Z</time>
      </trkpt>
      <trkpt lat="48.49277" lon="-4.72576">
        <ele>65.2</ele>
        <time>2025-09-25T14:30:11Z</time>
      </trkpt>
      <trkpt lat="48.49278" lon="-4.72564">
        <ele>65</ele>
        <time>2025-09-25T14:30:15Z</time>
      </trkpt>
      <trkpt lat="48.4928" lon="-4.72542">
        <ele>64.6</ele>
        <time>2025-09-25T14:30:21Z</time>
      </trkpt>
      <trkpt lat="48.49282" lon="-4.72535">
        <ele>65.2</ele>
        <time>2025-09-25T14:30:26Z</time>
      </trkpt>
      <trkpt lat="48.49282" lon="-4.72535">
        <ele>65.6</ele>
        <time>2025-09-25T14:30:28Z</time>
      </trkpt>
      <trkpt lat="48.49283" lon="-4.72534">
        <ele>65.4</ele>
        <time>2025-09-25T14:30:30Z</time>
      </trkpt>
      <trkpt lat="48.49282" lon="-4.72535">
        <ele>65.4</ele>
        <time>2025-09-25T14:30:32Z</time>
      </trkpt>
      <trkpt lat="48.49282" lon="-4.72532">
        <ele>64.6</ele>
        <time>2025-09-25T14:30:49Z</time>
      </trkpt>
      <trkpt lat="48.49282" lon="-4.72528">
        <ele>64</ele>
        <time>2025-09-25T14:30:51Z</time>
      </trkpt>
      <trkpt lat="48.49284" lon="-4.72522">
        <ele>64.6</ele>
        <time>2025-09-25T14:30:57Z</time>
      </trkpt>
      <trkpt lat="48.49291" lon="-4.72506">
        <ele>64.4</ele>
        <time>2025-09-25T14:31:04Z</time>
      </trkpt>
      <trkpt lat="48.49302" lon="-4.72486">
        <ele>64.4</ele>
        <time>2025-09-25T14:31:12Z</time>
      </trkpt>
      <trkpt lat="48.49313" lon="-4.72468">
        <ele>64.2</ele>
        <time>2025-09-25T14:31:20Z</time>
      </trkpt>
      <trkpt lat="48.49316" lon="-4.72462">
        <ele>64.4</ele>
        <time>2025-09-25T14:31:24Z</time>
      </trkpt>
      <trkpt lat="48.49316" lon="-4.72463">
        <ele>65</ele>
        <time>2025-09-25T14:31:37Z</time>
      </trkpt>
      <trkpt lat="48.49316" lon="-4.72464">
        <ele>65</ele>
        <time>2025-09-25T14:31:38Z</time>
      </trkpt>
      <trkpt lat="48.49316" lon="-4.72464">
        <ele>65</ele>
        <time>2025-09-25T14:31:39Z</time>
      </trkpt>
      <trkpt lat="48.49315" lon="-4.72465">
        <ele>65</ele>
        <time>2025-09-25T14:34:42Z</time>
      </trkpt>
      <trkpt lat="48.49315" lon="-4.72464">
        <ele>65</ele>
        <time>2025-09-25T14:34:43Z</time>
      </trkpt>
      <trkpt lat="48.49316" lon="-4.72463">
        <ele>65</ele>
        <time>2025-09-25T14:34:44Z</time>
      </trkpt>
      <trkpt lat="48.49316" lon="-4.72462">
        <ele>65</ele>
        <time>2025-09-25T14:34:45Z</time>
      </trkpt>
      <trkpt lat="48.49316" lon="-4.72463">
        <ele>65</ele>
        <time>2025-09-25T14:34:46Z</time>
      </trkpt>
      <trkpt lat="48.49317" lon="-4.72461">
        <ele>65</ele>
        <time>2025-09-25T14:34:50Z</time>
      </trkpt>
      <trkpt lat="48.49318" lon="-4.72459">
        <ele>65</ele>
        <time>2025-09-25T14:34:52Z</time>
      </trkpt>
      <trkpt lat="48.49324" lon="-4.72449">
        <ele>64.8</ele>
        <time>2025-09-25T14:34:57Z</time>
      </trkpt>
      <trkpt lat="48.49337" lon="-4.72427">
        <ele>64.8</ele>
        <time>2025-09-25T14:35:06Z</time>
      </trkpt>
      <trkpt lat="48.49347" lon="-4.72413">
        <ele>65.2</ele>
        <time>2025-09-25T14:35:12Z</time>
      </trkpt>
      <trkpt lat="48.49355" lon="-4.724">
        <ele>65</ele>
        <time>2025-09-25T14:35:17Z</time>
      </trkpt>
      <trkpt lat="48.49358" lon="-4.72394">
        <ele>64.6</ele>
        <time>2025-09-25T14:35:19Z</time>
      </trkpt>
      <trkpt lat="48.4936" lon="-4.7239">
        <ele>64.8</ele>
        <time>2025-09-25T14:35:20Z</time>
      </trkpt>
      <trkpt lat="48.49362" lon="-4.72387">
        <ele>64.8</ele>
        <time>2025-09-25T14:35:21Z</time>
      </trkpt>
      <trkpt lat="48.49368" lon="-4.72377">
        <ele>64.8</ele>
        <time>2025-09-25T14:35:24Z</time>
      </trkpt>
      <trkpt lat="48.4938" lon="-4.72357">
        <ele>64.6</ele>
        <time>2025-09-25T14:35:31Z</time>
      </trkpt>
      <trkpt lat="48.49392" lon="-4.72335">
        <ele>64.2</ele>
        <time>2025-09-25T14:35:38Z</time>
      </trkpt>
      <trkpt lat="48.49395" lon="-4.72328">
        <ele>64</ele>
        <time>2025-09-25T14:35:40Z</time>
      </trkpt>
      <trkpt lat="48.49404" lon="-4.7231">
        <ele>63.8</ele>
        <time>2025-09-25T14:35:46Z</time>
      </trkpt>
      <trkpt lat="48.49412" lon="-4.72284">
        <ele>63</ele>
        <time>2025-09-25T14:35:54Z</time>
      </trkpt>
      <trkpt lat="48.49416" lon="-4.7228">
        <ele>63.8</ele>
        <time>2025-09-25T14:35:58Z</time>
      </trkpt>
      <trkpt lat="48.49416" lon="-4.7228">
        <ele>64</ele>
        <time>2025-09-25T14:35:59Z</time>
      </trkpt>
      <trkpt lat="48.49417" lon="-4.72278">
        <ele>64.2</ele>
        <time>2025-09-25T14:36:02Z</time>
      </trkpt>
      <trkpt lat="48.49416" lon="-4.72274">
        <ele>64</ele>
        <time>2025-09-25T14:36:04Z</time>
      </trkpt>
      <trkpt lat="48.49414" lon="-4.7226">
        <ele>64.6</ele>
        <time>2025-09-25T14:36:11Z</time>
      </trkpt>
      <trkpt lat="48.49412" lon="-4.72253">
        <ele>64.6</ele>
        <time>2025-09-25T14:36:16Z</time>
      </trkpt>
      <trkpt lat="48.49413" lon="-4.72252">
        <ele>64.2</ele>
        <time>2025-09-25T14:37:04Z</time>
      </trkpt>
      <trkpt lat="48.49412" lon="-4.72251">
        <ele>64.2</ele>
        <time>2025-09-25T14:37:05Z</time>
      </trkpt>
      <trkpt lat="48.49411" lon="-4.72241">
        <ele>64</ele>
        <time>2025-09-25T14:37:09Z</time>
      </trkpt>
      <trkpt lat="48.49408" lon="-4.72228">
        <ele>63.8</ele>
        <time>2025-09-25T14:37:15Z</time>
      </trkpt>
      <trkpt lat="48.49406" lon="-4.7221">
        <ele>63.6</ele>
        <time>2025-09-25T14:37:21Z</time>
      </trkpt>
      <trkpt lat="48.49403" lon="-4.72186">
        <ele>63.4</ele>
        <time>2025-09-25T14:37:28Z</time>
      </trkpt>
      <trkpt lat="48.49402" lon="-4.72177">
        <ele>63.4</ele>
        <time>2025-09-25T14:37:31Z</time>
      </trkpt>
      <trkpt lat="48.494" lon="-4.72164">
        <ele>63.2</ele>
        <time>2025-09-25T14:37:34Z</time>
      </trkpt>
      <trkpt lat="48.49399" lon="-4.72159">
        <ele>63</ele>
        <time>2025-09-25T14:37:35Z</time>
      </trkpt>
      <trkpt lat="48.49394" lon="-4.72137">
        <ele>62.6</ele>
        <time>2025-09-25T14:37:40Z</time>
      </trkpt>
      <trkpt lat="48.49386" lon="-4.72105">
        <ele>62</ele>
        <time>2025-09-25T14:37:47Z</time>
      </trkpt>
      <trkpt lat="48.49385" lon="-4.72101">
        <ele>62</ele>
        <time>2025-09-25T14:37:48Z</time>
      </trkpt>
      <trkpt lat="48.4938" lon="-4.72079">
        <ele>61.2</ele>
        <time>2025-09-25T14:37:53Z</time>
      </trkpt>
      <trkpt lat="48.49378" lon="-4.7207">
        <ele>61</ele>
        <time>2025-09-25T14:37:55Z</time>
      </trkpt>
      <trkpt lat="48.49371" lon="-4.72039">
        <ele>61</ele>
        <time>2025-09-25T14:38:02Z</time>
      </trkpt>
      <trkpt lat="48.4937" lon="-4.72034">
        <ele>61</ele>
        <time>2025-09-25T14:38:03Z</time>
      </trkpt>
      <trkpt lat="48.49367" lon="-4.72011">
        <ele>61.2</ele>
        <time>2025-09-25T14:38:08Z</time>
      </trkpt>
      <trkpt lat="48.49366" lon="-4.72006">
        <ele>61.2</ele>
        <time>2025-09-25T14:38:09Z</time>
      </trkpt>
      <trkpt lat="48.49365" lon="-4.72001">
        <ele>61.2</ele>
        <time>2025-09-25T14:38:10Z</time>
      </trkpt>
      <trkpt lat="48.49364" lon="-4.71997">
        <ele>61.4</ele>
        <time>2025-09-25T14:38:11Z</time>
      </trkpt>
      <trkpt lat="48.49363" lon="-4.71992">
        <ele>61.2</ele>
        <time>2025-09-25T14:38:12Z</time>
      </trkpt>
      <trkpt lat="48.4936" lon="-4.71972">
        <ele>60.6</ele>
        <time>2025-09-25T14:38:16Z</time>
      </trkpt>
      <trkpt lat="48.4936" lon="-4.71968">
        <ele>60.6</ele>
        <time>2025-09-25T14:38:17Z</time>
      </trkpt>
      <trkpt lat="48.49356" lon="-4.71941">
        <ele>60.4</ele>
        <time>2025-09-25T14:38:23Z</time>
      </trkpt>
      <trkpt lat="48.49355" lon="-4.71936">
        <ele>60.4</ele>
        <time>2025-09-25T14:38:24Z</time>
      </trkpt>
      <trkpt lat="48.49353" lon="-4.71918">
        <ele>60</ele>
        <time>2025-09-25T14:38:27Z</time>
      </trkpt>
      <trkpt lat="48.4935" lon="-4.71902">
        <ele>60</ele>
        <time>2025-09-25T14:38:30Z</time>
      </trkpt>
      <trkpt lat="48.49347" lon="-4.71886">
        <ele>60</ele>
        <time>2025-09-25T14:38:33Z</time>
      </trkpt>
      <trkpt lat="48.49346" lon="-4.71877">
        <ele>60</ele>
        <time>2025-09-25T14:38:35Z</time>
      </trkpt>
      <trkpt lat="48.49336" lon="-4.71847">
        <ele>60.6</ele>
        <time>2025-09-25T14:38:43Z</time>
      </trkpt>
      <trkpt lat="48.49323" lon="-4.71825">
        <ele>60.8</ele>
        <time>2025-09-25T14:38:50Z</time>
      </trkpt>
      <trkpt lat="48.49316" lon="-4.71814">
        <ele>61</ele>
        <time>2025-09-25T14:38:54Z</time>
      </trkpt>
      <trkpt lat="48.49313" lon="-4.71803">
        <ele>61.4</ele>
        <time>2025-09-25T14:38:57Z</time>
      </trkpt>
      <trkpt lat="48.49305" lon="-4.71778">
        <ele>62</ele>
        <time>2025-09-25T14:39:05Z</time>
      </trkpt>
      <trkpt lat="48.49305" lon="-4.71775">
        <ele>62</ele>
        <time>2025-09-25T14:39:06Z</time>
      </trkpt>
      <trkpt lat="48.49294" lon="-4.71752">
        <ele>62.4</ele>
        <time>2025-09-25T14:39:14Z</time>
      </trkpt>
      <trkpt lat="48.49291" lon="-4.71743">
        <ele>62.4</ele>
        <time>2025-09-25T14:39:17Z</time>
      </trkpt>
      <trkpt lat="48.49289" lon="-4.71736">
        <ele>62.6</ele>
        <time>2025-09-25T14:39:19Z</time>
      </trkpt>
      <trkpt lat="48.49287" lon="-4.71727">
        <ele>62.6</ele>
        <time>2025-09-25T14:39:22Z</time>
      </trkpt>
      <trkpt lat="48.49282" lon="-4.71699">
        <ele>63</ele>
        <time>2025-09-25T14:39:29Z</time>
      </trkpt>
      <trkpt lat="48.49281" lon="-4.71694">
        <ele>63.2</ele>
        <time>2025-09-25T14:39:30Z</time>
      </trkpt>
      <trkpt lat="48.49276" lon="-4.71666">
        <ele>63.6</ele>
        <time>2025-09-25T14:39:37Z</time>
      </trkpt>
      <trkpt lat="48.49268" lon="-4.71635">
        <ele>63.4</ele>
        <time>2025-09-25T14:39:44Z</time>
      </trkpt>
      <trkpt lat="48.49257" lon="-4.71597">
        <ele>63.6</ele>
        <time>2025-09-25T14:39:53Z</time>
      </trkpt>
      <trkpt lat="48.49252" lon="-4.71577">
        <ele>63.8</ele>
        <time>2025-09-25T14:39:58Z</time>
      </trkpt>
      <trkpt lat="48.4925" lon="-4.71565">
        <ele>64</ele>
        <time>2025-09-25T14:40:01Z</time>
      </trkpt>
      <trkpt lat="48.49247" lon="-4.71557">
        <ele>64.2</ele>
        <time>2025-09-25T14:40:04Z</time>
      </trkpt>
      <trkpt lat="48.49245" lon="-4.71549">
        <ele>64.4</ele>
        <time>2025-09-25T14:40:07Z</time>
      </trkpt>
      <trkpt lat="48.49242" lon="-4.71527">
        <ele>63.8</ele>
        <time>2025-09-25T14:40:12Z</time>
      </trkpt>
      <trkpt lat="48.4924" lon="-4.71499">
        <ele>64.4</ele>
        <time>2025-09-25T14:40:19Z</time>
      </trkpt>
      <trkpt lat="48.4924" lon="-4.71495">
        <ele>64.4</ele>
        <time>2025-09-25T14:40:20Z</time>
      </trkpt>
      <trkpt lat="48.49238" lon="-4.71471">
        <ele>64.4</ele>
        <time>2025-09-25T14:40:26Z</time>
      </trkpt>
      <trkpt lat="48.49238" lon="-4.71466">
        <ele>64.4</ele>
        <time>2025-09-25T14:40:27Z</time>
      </trkpt>
      <trkpt lat="48.49236" lon="-4.71447">
        <ele>64.6</ele>
        <time>2025-09-25T14:40:32Z</time>
      </trkpt>
      <trkpt lat="48.49233" lon="-4.71424">
        <ele>64.4</ele>
        <time>2025-09-25T14:40:38Z</time>
      </trkpt>
      <trkpt lat="48.49232" lon="-4.7142">
        <ele>64.4</ele>
        <time>2025-09-25T14:40:39Z</time>
      </trkpt>
      <trkpt lat="48.49229" lon="-4.71402">
        <ele>64.6</ele>
        <time>2025-09-25T14:40:45Z</time>
      </trkpt>
      <trkpt lat="48.49225" lon="-4.71376">
        <ele>64.6</ele>
        <time>2025-09-25T14:40:52Z</time>
      </trkpt>
      <trkpt lat="48.49225" lon="-4.71358">
        <ele>64.4</ele>
        <time>2025-09-25T14:40:56Z</time>
      </trkpt>
      <trkpt lat="48.49225" lon="-4.71341">
        <ele>64.2</ele>
        <time>2025-09-25T14:41:00Z</time>
      </trkpt>
      <trkpt lat="48.49224" lon="-4.71317">
        <ele>64</ele>
        <time>2025-09-25T14:41:05Z</time>
      </trkpt>
      <trkpt lat="48.49223" lon="-4.71293">
        <ele>64.2</ele>
        <time>2025-09-25T14:41:11Z</time>
      </trkpt>
      <trkpt lat="48.49219" lon="-4.71265">
        <ele>64</ele>
        <time>2025-09-25T14:41:18Z</time>
      </trkpt>
      <trkpt lat="48.49212" lon="-4.71232">
        <ele>63.8</ele>
        <time>2025-09-25T14:41:27Z</time>
      </trkpt>
      <trkpt lat="48.49203" lon="-4.712">
        <ele>63.8</ele>
        <time>2025-09-25T14:41:35Z</time>
      </trkpt>
      <trkpt lat="48.49192" lon="-4.71174">
        <ele>63.8</ele>
        <time>2025-09-25T14:41:41Z</time>
      </trkpt>
      <trkpt lat="48.49191" lon="-4.71153">
        <ele>63.8</ele>
        <time>2025-09-25T14:41:46Z</time>
      </trkpt>
      <trkpt lat="48.49197" lon="-4.71124">
        <ele>63</ele>
        <time>2025-09-25T14:41:52Z</time>
      </trkpt>
      <trkpt lat="48.492" lon="-4.71096">
        <ele>62</ele>
        <time>2025-09-25T14:41:58Z</time>
      </trkpt>
      <trkpt lat="48.492" lon="-4.71076">
        <ele>62</ele>
        <time>2025-09-25T14:42:03Z</time>
      </trkpt>
      <trkpt lat="48.492" lon="-4.71064">
        <ele>62</ele>
        <time>2025-09-25T14:42:06Z</time>
      </trkpt>
      <trkpt lat="48.49198" lon="-4.71043">
        <ele>62</ele>
        <time>2025-09-25T14:42:11Z</time>
      </trkpt>
      <trkpt lat="48.49197" lon="-4.71019">
        <ele>62.4</ele>
        <time>2025-09-25T14:42:16Z</time>
      </trkpt>
      <trkpt lat="48.49198" lon="-4.70984">
        <ele>62.2</ele>
        <time>2025-09-25T14:42:24Z</time>
      </trkpt>
      <trkpt lat="48.49196" lon="-4.70962">
        <ele>62.4</ele>
        <time>2025-09-25T14:42:30Z</time>
      </trkpt>
      <trkpt lat="48.49192" lon="-4.70939">
        <ele>63</ele>
        <time>2025-09-25T14:42:36Z</time>
      </trkpt>
      <trkpt lat="48.49191" lon="-4.70931">
        <ele>63</ele>
        <time>2025-09-25T14:42:38Z</time>
      </trkpt>
      <trkpt lat="48.49187" lon="-4.70905">
        <ele>63.2</ele>
        <time>2025-09-25T14:42:46Z</time>
      </trkpt>
      <trkpt lat="48.49178" lon="-4.70879">
        <ele>63.4</ele>
        <time>2025-09-25T14:42:54Z</time>
      </trkpt>
      <trkpt lat="48.49173" lon="-4.70862">
        <ele>63.4</ele>
        <time>2025-09-25T14:42:59Z</time>
      </trkpt>
      <trkpt lat="48.49172" lon="-4.7084">
        <ele>62.8</ele>
        <time>2025-09-25T14:43:05Z</time>
      </trkpt>
      <trkpt lat="48.49172" lon="-4.70816">
        <ele>63.8</ele>
        <time>2025-09-25T14:43:13Z</time>
      </trkpt>
      <trkpt lat="48.49168" lon="-4.70798">
        <ele>63.6</ele>
        <time>2025-09-25T14:43:19Z</time>
      </trkpt>
      <trkpt lat="48.49167" lon="-4.70778">
        <ele>63.6</ele>
        <time>2025-09-25T14:43:25Z</time>
      </trkpt>
      <trkpt lat="48.49173" lon="-4.7075">
        <ele>63.8</ele>
        <time>2025-09-25T14:43:32Z</time>
      </trkpt>
      <trkpt lat="48.49178" lon="-4.70727">
        <ele>63.8</ele>
        <time>2025-09-25T14:43:39Z</time>
      </trkpt>
      <trkpt lat="48.49184" lon="-4.70707">
        <ele>63.6</ele>
        <time>2025-09-25T14:43:45Z</time>
      </trkpt>
      <trkpt lat="48.4919" lon="-4.7069">
        <ele>64.2</ele>
        <time>2025-09-25T14:43:50Z</time>
      </trkpt>
      <trkpt lat="48.49191" lon="-4.70686">
        <ele>64.2</ele>
        <time>2025-09-25T14:43:51Z</time>
      </trkpt>
      <trkpt lat="48.49196" lon="-4.70664">
        <ele>64.2</ele>
        <time>2025-09-25T14:43:58Z</time>
      </trkpt>
      <trkpt lat="48.49201" lon="-4.70642">
        <ele>64.2</ele>
        <time>2025-09-25T14:44:05Z</time>
      </trkpt>
      <trkpt lat="48.49206" lon="-4.70618">
        <ele>64.4</ele>
        <time>2025-09-25T14:44:12Z</time>
      </trkpt>
      <trkpt lat="48.49211" lon="-4.70587">
        <ele>64.4</ele>
        <time>2025-09-25T14:44:20Z</time>
      </trkpt>
      <trkpt lat="48.49215" lon="-4.70555">
        <ele>64.2</ele>
        <time>2025-09-25T14:44:28Z</time>
      </trkpt>
      <trkpt lat="48.49216" lon="-4.70536">
        <ele>64.4</ele>
        <time>2025-09-25T14:44:33Z</time>
      </trkpt>
      <trkpt lat="48.49216" lon="-4.70524">
        <ele>64.6</ele>
        <time>2025-09-25T14:44:36Z</time>
      </trkpt>
      <trkpt lat="48.49216" lon="-4.70497">
        <ele>65</ele>
        <time>2025-09-25T14:44:44Z</time>
      </trkpt>
      <trkpt lat="48.49215" lon="-4.70491">
        <ele>65.2</ele>
        <time>2025-09-25T14:44:46Z</time>
      </trkpt>
      <trkpt lat="48.49214" lon="-4.70475">
        <ele>65.2</ele>
        <time>2025-09-25T14:44:50Z</time>
      </trkpt>
      <trkpt lat="48.49209" lon="-4.70454">
        <ele>65.8</ele>
        <time>2025-09-25T14:44:57Z</time>
      </trkpt>
      <trkpt lat="48.49204" lon="-4.70429">
        <ele>65.8</ele>
        <time>2025-09-25T14:45:04Z</time>
      </trkpt>
      <trkpt lat="48.49201" lon="-4.70414">
        <ele>66.2</ele>
        <time>2025-09-25T14:45:09Z</time>
      </trkpt>
      <trkpt lat="48.49198" lon="-4.70398">
        <ele>66.4</ele>
        <time>2025-09-25T14:45:14Z</time>
      </trkpt>
      <trkpt lat="48.49192" lon="-4.70378">
        <ele>66.4</ele>
        <time>2025-09-25T14:45:20Z</time>
      </trkpt>
      <trkpt lat="48.49187" lon="-4.70363">
        <ele>67</ele>
        <time>2025-09-25T14:45:26Z</time>
      </trkpt>
      <trkpt lat="48.49185" lon="-4.70355">
        <ele>67.2</ele>
        <time>2025-09-25T14:45:29Z</time>
      </trkpt>
      <trkpt lat="48.49183" lon="-4.70348">
        <ele>67.6</ele>
        <time>2025-09-25T14:45:32Z</time>
      </trkpt>
      <trkpt lat="48.4918" lon="-4.70338">
        <ele>67.8</ele>
        <time>2025-09-25T14:45:36Z</time>
      </trkpt>
      <trkpt lat="48.49178" lon="-4.70333">
        <ele>68</ele>
        <time>2025-09-25T14:45:38Z</time>
      </trkpt>
      <trkpt lat="48.49175" lon="-4.70325">
        <ele>68.2</ele>
        <time>2025-09-25T14:45:41Z</time>
      </trkpt>
      <trkpt lat="48.49174" lon="-4.70312">
        <ele>68.8</ele>
        <time>2025-09-25T14:45:46Z</time>
      </trkpt>
      <trkpt lat="48.49172" lon="-4.70297">
        <ele>69.4</ele>
        <time>2025-09-25T14:45:52Z</time>
      </trkpt>
      <trkpt lat="48.49172" lon="-4.70294">
        <ele>69.4</ele>
        <time>2025-09-25T14:45:53Z</time>
      </trkpt>
      <trkpt lat="48.4917" lon="-4.70281">
        <ele>70</ele>
        <time>2025-09-25T14:45:59Z</time>
      </trkpt>
      <trkpt lat="48.49168" lon="-4.70274">
        <ele>70.4</ele>
        <time>2025-09-25T14:46:04Z</time>
      </trkpt>
      <trkpt lat="48.49167" lon="-4.70272">
        <ele>70.6</ele>
        <time>2025-09-25T14:46:07Z</time>
      </trkpt>
      <trkpt lat="48.49167" lon="-4.70272">
        <ele>70.8</ele>
        <time>2025-09-25T14:46:08Z</time>
      </trkpt>
      <trkpt lat="48.49166" lon="-4.70272">
        <ele>70.6</ele>
        <time>2025-09-25T14:46:51Z</time>
      </trkpt>
      <trkpt lat="48.49163" lon="-4.7027">
        <ele>70.6</ele>
        <time>2025-09-25T14:46:54Z</time>
      </trkpt>
      <trkpt lat="48.49151" lon="-4.70269">
        <ele>70.6</ele>
        <time>2025-09-25T14:46:59Z</time>
      </trkpt>
      <trkpt lat="48.49133" lon="-4.70256">
        <ele>70</ele>
        <time>2025-09-25T14:47:05Z</time>
      </trkpt>
      <trkpt lat="48.49119" lon="-4.70239">
        <ele>70</ele>
        <time>2025-09-25T14:47:11Z</time>
      </trkpt>
      <trkpt lat="48.49115" lon="-4.70233">
        <ele>70.2</ele>
        <time>2025-09-25T14:47:13Z</time>
      </trkpt>
      <trkpt lat="48.491" lon="-4.70203">
        <ele>70</ele>
        <time>2025-09-25T14:47:20Z</time>
      </trkpt>
      <trkpt lat="48.4909" lon="-4.70184">
        <ele>69.4</ele>
        <time>2025-09-25T14:47:24Z</time>
      </trkpt>
      <trkpt lat="48.4908" lon="-4.70165">
        <ele>68.8</ele>
        <time>2025-09-25T14:47:28Z</time>
      </trkpt>
      <trkpt lat="48.49064" lon="-4.70138">
        <ele>68.2</ele>
        <time>2025-09-25T14:47:33Z</time>
      </trkpt>
      <trkpt lat="48.49054" lon="-4.70121">
        <ele>67.8</ele>
        <time>2025-09-25T14:47:36Z</time>
      </trkpt>
      <trkpt lat="48.4905" lon="-4.70115">
        <ele>67.4</ele>
        <time>2025-09-25T14:47:37Z</time>
      </trkpt>
      <trkpt lat="48.49047" lon="-4.70109">
        <ele>67.2</ele>
        <time>2025-09-25T14:47:38Z</time>
      </trkpt>
      <trkpt lat="48.49028" lon="-4.70075">
        <ele>66.2</ele>
        <time>2025-09-25T14:47:44Z</time>
      </trkpt>
      <trkpt lat="48.49022" lon="-4.70064">
        <ele>65.8</ele>
        <time>2025-09-25T14:47:46Z</time>
      </trkpt>
      <trkpt lat="48.48999" lon="-4.70022">
        <ele>64.8</ele>
        <time>2025-09-25T14:47:53Z</time>
      </trkpt>
      <trkpt lat="48.48993" lon="-4.70008">
        <ele>64.4</ele>
        <time>2025-09-25T14:47:55Z</time>
      </trkpt>
      <trkpt lat="48.48983" lon="-4.69979">
        <ele>63.8</ele>
        <time>2025-09-25T14:47:59Z</time>
      </trkpt>
      <trkpt lat="48.48979" lon="-4.69965">
        <ele>64</ele>
        <time>2025-09-25T14:48:01Z</time>
      </trkpt>
      <trkpt lat="48.48971" lon="-4.69934">
        <ele>64.2</ele>
        <time>2025-09-25T14:48:07Z</time>
      </trkpt>
      <trkpt lat="48.48969" lon="-4.69931">
        <ele>64.2</ele>
        <time>2025-09-25T14:48:08Z</time>
      </trkpt>
      <trkpt lat="48.48961" lon="-4.69927">
        <ele>63.8</ele>
        <time>2025-09-25T14:48:11Z</time>
      </trkpt>
      <trkpt lat="48.48949" lon="-4.69928">
        <ele>63.4</ele>
        <time>2025-09-25T14:48:16Z</time>
      </trkpt>
      <trkpt lat="48.48942" lon="-4.69931">
        <ele>62.8</ele>
        <time>2025-09-25T14:48:18Z</time>
      </trkpt>
      <trkpt lat="48.48932" lon="-4.69934">
        <ele>62.2</ele>
        <time>2025-09-25T14:48:20Z</time>
      </trkpt>
      <trkpt lat="48.48922" lon="-4.69936">
        <ele>61.6</ele>
        <time>2025-09-25T14:48:22Z</time>
      </trkpt>
      <trkpt lat="48.48904" lon="-4.6994">
        <ele>61</ele>
        <time>2025-09-25T14:48:26Z</time>
      </trkpt>
      <trkpt lat="48.48887" lon="-4.69947">
        <ele>60.6</ele>
        <time>2025-09-25T14:48:30Z</time>
      </trkpt>
      <trkpt lat="48.48883" lon="-4.69948">
        <ele>60.6</ele>
        <time>2025-09-25T14:48:31Z</time>
      </trkpt>
      <trkpt lat="48.4888" lon="-4.69949">
        <ele>60.4</ele>
        <time>2025-09-25T14:48:32Z</time>
      </trkpt>
      <trkpt lat="48.48869" lon="-4.69953">
        <ele>60</ele>
        <time>2025-09-25T14:48:36Z</time>
      </trkpt>
      <trkpt lat="48.4886" lon="-4.69965">
        <ele>59.6</ele>
        <time>2025-09-25T14:48:40Z</time>
      </trkpt>
      <trkpt lat="48.48859" lon="-4.6997">
        <ele>59.6</ele>
        <time>2025-09-25T14:48:41Z</time>
      </trkpt>
      <trkpt lat="48.4885" lon="-4.69998">
        <ele>59.6</ele>
        <time>2025-09-25T14:48:47Z</time>
      </trkpt>
      <trkpt lat="48.48841" lon="-4.70023">
        <ele>60</ele>
        <time>2025-09-25T14:48:53Z</time>
      </trkpt>
      <trkpt lat="48.48838" lon="-4.7004">
        <ele>60</ele>
        <time>2025-09-25T14:48:57Z</time>
      </trkpt>
      <trkpt lat="48.48838" lon="-4.70045">
        <ele>59.8</ele>
        <time>2025-09-25T14:48:58Z</time>
      </trkpt>
      <trkpt lat="48.48844" lon="-4.70064">
        <ele>60.2</ele>
        <time>2025-09-25T14:49:04Z</time>
      </trkpt>
      <trkpt lat="48.48847" lon="-4.70072">
        <ele>60.6</ele>
        <time>2025-09-25T14:49:08Z</time>
      </trkpt>
      <trkpt lat="48.48853" lon="-4.70088">
        <ele>61</ele>
        <time>2025-09-25T14:49:14Z</time>
      </trkpt>
      <trkpt lat="48.48855" lon="-4.70109">
        <ele>61.4</ele>
        <time>2025-09-25T14:49:21Z</time>
      </trkpt>
      <trkpt lat="48.48846" lon="-4.70115">
        <ele>61.2</ele>
        <time>2025-09-25T14:49:26Z</time>
      </trkpt>
      <trkpt lat="48.48829" lon="-4.70124">
        <ele>61</ele>
        <time>2025-09-25T14:49:33Z</time>
      </trkpt>
      <trkpt lat="48.48816" lon="-4.70134">
        <ele>61.2</ele>
        <time>2025-09-25T14:49:40Z</time>
      </trkpt>
      <trkpt lat="48.48804" lon="-4.70151">
        <ele>61.2</ele>
        <time>2025-09-25T14:49:47Z</time>
      </trkpt>
      <trkpt lat="48.48794" lon="-4.70162">
        <ele>61.2</ele>
        <time>2025-09-25T14:49:52Z</time>
      </trkpt>
      <trkpt lat="48.48792" lon="-4.70162">
        <ele>61.2</ele>
        <time>2025-09-25T14:49:53Z</time>
      </trkpt>
      <trkpt lat="48.48789" lon="-4.70162">
        <ele>61</ele>
        <time>2025-09-25T14:49:54Z</time>
      </trkpt>
      <trkpt lat="48.48784" lon="-4.70162">
        <ele>60.8</ele>
        <time>2025-09-25T14:49:56Z</time>
      </trkpt>
      <trkpt lat="48.48773" lon="-4.7016">
        <ele>60.4</ele>
        <time>2025-09-25T14:50:00Z</time>
      </trkpt>
      <trkpt lat="48.48762" lon="-4.70159">
        <ele>59.8</ele>
        <time>2025-09-25T14:50:03Z</time>
      </trkpt>
      <trkpt lat="48.48758" lon="-4.70158">
        <ele>59.6</ele>
        <time>2025-09-25T14:50:04Z</time>
      </trkpt>
      <trkpt lat="48.48749" lon="-4.70157">
        <ele>59.2</ele>
        <time>2025-09-25T14:50:06Z</time>
      </trkpt>
      <trkpt lat="48.48744" lon="-4.70157">
        <ele>59</ele>
        <time>2025-09-25T14:50:07Z</time>
      </trkpt>
      <trkpt lat="48.48733" lon="-4.70157">
        <ele>58.4</ele>
        <time>2025-09-25T14:50:09Z</time>
      </trkpt>
      <trkpt lat="48.48715" lon="-4.70159">
        <ele>57.2</ele>
        <time>2025-09-25T14:50:12Z</time>
      </trkpt>
      <trkpt lat="48.48709" lon="-4.70159">
        <ele>56.8</ele>
        <time>2025-09-25T14:50:13Z</time>
      </trkpt>
      <trkpt lat="48.48695" lon="-4.70158">
        <ele>56.2</ele>
        <time>2025-09-25T14:50:15Z</time>
      </trkpt>
      <trkpt lat="48.48688" lon="-4.70157">
        <ele>55.8</ele>
        <time>2025-09-25T14:50:16Z</time>
      </trkpt>
      <trkpt lat="48.48681" lon="-4.70158">
        <ele>55.4</ele>
        <time>2025-09-25T14:50:17Z</time>
      </trkpt>
      <trkpt lat="48.48674" lon="-4.70159">
        <ele>55</ele>
        <time>2025-09-25T14:50:18Z</time>
      </trkpt>
      <trkpt lat="48.48658" lon="-4.70158">
        <ele>54.2</ele>
        <time>2025-09-25T14:50:21Z</time>
      </trkpt>
      <trkpt lat="48.48654" lon="-4.70155">
        <ele>54.2</ele>
        <time>2025-09-25T14:50:22Z</time>
      </trkpt>
      <trkpt lat="48.48651" lon="-4.70151">
        <ele>54.2</ele>
        <time>2025-09-25T14:50:23Z</time>
      </trkpt>
      <trkpt lat="48.48648" lon="-4.70145">
        <ele>53.8</ele>
        <time>2025-09-25T14:50:24Z</time>
      </trkpt>
      <trkpt lat="48.48643" lon="-4.70135">
        <ele>53.6</ele>
        <time>2025-09-25T14:50:26Z</time>
      </trkpt>
      <trkpt lat="48.48636" lon="-4.70125">
        <ele>53.4</ele>
        <time>2025-09-25T14:50:28Z</time>
      </trkpt>
      <trkpt lat="48.48624" lon="-4.70107">
        <ele>53.2</ele>
        <time>2025-09-25T14:50:32Z</time>
      </trkpt>
      <trkpt lat="48.48614" lon="-4.70093">
        <ele>52.6</ele>
        <time>2025-09-25T14:50:35Z</time>
      </trkpt>
      <trkpt lat="48.48602" lon="-4.70073">
        <ele>51.6</ele>
        <time>2025-09-25T14:50:39Z</time>
      </trkpt>
      <trkpt lat="48.48596" lon="-4.70062">
        <ele>51</ele>
        <time>2025-09-25T14:50:41Z</time>
      </trkpt>
      <trkpt lat="48.48591" lon="-4.70054">
        <ele>50.4</ele>
        <time>2025-09-25T14:50:43Z</time>
      </trkpt>
      <trkpt lat="48.48584" lon="-4.70044">
        <ele>49.2</ele>
        <time>2025-09-25T14:50:45Z</time>
      </trkpt>
      <trkpt lat="48.48577" lon="-4.70035">
        <ele>48</ele>
        <time>2025-09-25T14:50:47Z</time>
      </trkpt>
      <trkpt lat="48.48567" lon="-4.70021">
        <ele>47</ele>
        <time>2025-09-25T14:50:50Z</time>
      </trkpt>
      <trkpt lat="48.48561" lon="-4.70016">
        <ele>46.6</ele>
        <time>2025-09-25T14:50:52Z</time>
      </trkpt>
      <trkpt lat="48.48553" lon="-4.70019">
        <ele>46</ele>
        <time>2025-09-25T14:50:54Z</time>
      </trkpt>
      <trkpt lat="48.48549" lon="-4.70021">
        <ele>45.4</ele>
        <time>2025-09-25T14:50:55Z</time>
      </trkpt>
      <trkpt lat="48.4854" lon="-4.70027">
        <ele>44.8</ele>
        <time>2025-09-25T14:50:57Z</time>
      </trkpt>
      <trkpt lat="48.48523" lon="-4.70038">
        <ele>45</ele>
        <time>2025-09-25T14:51:02Z</time>
      </trkpt>
      <trkpt lat="48.48512" lon="-4.70036">
        <ele>45.6</ele>
        <time>2025-09-25T14:51:07Z</time>
      </trkpt>
      <trkpt lat="48.4851" lon="-4.70034">
        <ele>45.8</ele>
        <time>2025-09-25T14:51:08Z</time>
      </trkpt>
      <trkpt lat="48.48508" lon="-4.70029">
        <ele>45.8</ele>
        <time>2025-09-25T14:51:10Z</time>
      </trkpt>
      <trkpt lat="48.48506" lon="-4.70024">
        <ele>46.2</ele>
        <time>2025-09-25T14:51:12Z</time>
      </trkpt>
      <trkpt lat="48.48506" lon="-4.70021">
        <ele>46.2</ele>
        <time>2025-09-25T14:51:13Z</time>
      </trkpt>
      <trkpt lat="48.48503" lon="-4.70014">
        <ele>46.6</ele>
        <time>2025-09-25T14:51:16Z</time>
      </trkpt>
      <trkpt lat="48.48502" lon="-4.70009">
        <ele>47</ele>
        <time>2025-09-25T14:51:18Z</time>
      </trkpt>
      <trkpt lat="48.48501" lon="-4.70003">
        <ele>47.8</ele>
        <time>2025-09-25T14:51:20Z</time>
      </trkpt>
      <trkpt lat="48.48499" lon="-4.69998">
        <ele>48.4</ele>
        <time>2025-09-25T14:51:22Z</time>
      </trkpt>
      <trkpt lat="48.48498" lon="-4.69994">
        <ele>48.6</ele>
        <time>2025-09-25T14:51:24Z</time>
      </trkpt>
      <trkpt lat="48.48498" lon="-4.69982">
        <ele>49.4</ele>
        <time>2025-09-25T14:51:29Z</time>
      </trkpt>
      <trkpt lat="48.48498" lon="-4.69976">
        <ele>49.6</ele>
        <time>2025-09-25T14:51:31Z</time>
      </trkpt>
      <trkpt lat="48.485" lon="-4.6996">
        <ele>50.4</ele>
        <time>2025-09-25T14:51:37Z</time>
      </trkpt>
      <trkpt lat="48.485" lon="-4.69957">
        <ele>50.4</ele>
        <time>2025-09-25T14:51:38Z</time>
      </trkpt>
      <trkpt lat="48.48501" lon="-4.69946">
        <ele>50.8</ele>
        <time>2025-09-25T14:51:43Z</time>
      </trkpt>
      <trkpt lat="48.48504" lon="-4.69928">
        <ele>51.2</ele>
        <time>2025-09-25T14:51:50Z</time>
      </trkpt>
      <trkpt lat="48.48505" lon="-4.6992">
        <ele>51.4</ele>
        <time>2025-09-25T14:51:53Z</time>
      </trkpt>
      <trkpt lat="48.48505" lon="-4.69912">
        <ele>51.8</ele>
        <time>2025-09-25T14:51:56Z</time>
      </trkpt>
      <trkpt lat="48.48507" lon="-4.69893">
        <ele>52.4</ele>
        <time>2025-09-25T14:52:03Z</time>
      </trkpt>
      <trkpt lat="48.48507" lon="-4.69891">
        <ele>52.4</ele>
        <time>2025-09-25T14:52:04Z</time>
      </trkpt>
      <trkpt lat="48.48508" lon="-4.69881">
        <ele>52.8</ele>
        <time>2025-09-25T14:52:08Z</time>
      </trkpt>
      <trkpt lat="48.48509" lon="-4.69869">
        <ele>53.6</ele>
        <time>2025-09-25T14:52:13Z</time>
      </trkpt>
      <trkpt lat="48.48509" lon="-4.69863">
        <ele>54</ele>
        <time>2025-09-25T14:52:16Z</time>
      </trkpt>
      <trkpt lat="48.48509" lon="-4.6986">
        <ele>54</ele>
        <time>2025-09-25T14:52:17Z</time>
      </trkpt>
      <trkpt lat="48.4851" lon="-4.69854">
        <ele>54.6</ele>
        <time>2025-09-25T14:52:20Z</time>
      </trkpt>
      <trkpt lat="48.48511" lon="-4.69849">
        <ele>54.8</ele>
        <time>2025-09-25T14:52:23Z</time>
      </trkpt>
      <trkpt lat="48.4851" lon="-4.69844">
        <ele>55</ele>
        <time>2025-09-25T14:52:25Z</time>
      </trkpt>
      <trkpt lat="48.48511" lon="-4.69832">
        <ele>55.6</ele>
        <time>2025-09-25T14:52:32Z</time>
      </trkpt>
      <trkpt lat="48.4851" lon="-4.69829">
        <ele>55.6</ele>
        <time>2025-09-25T14:52:33Z</time>
      </trkpt>
      <trkpt lat="48.48506" lon="-4.69817">
        <ele>56.6</ele>
        <time>2025-09-25T14:52:40Z</time>
      </trkpt>
      <trkpt lat="48.48505" lon="-4.69816">
        <ele>56.6</ele>
        <time>2025-09-25T14:52:41Z</time>
      </trkpt>
      <trkpt lat="48.485" lon="-4.69816">
        <ele>57</ele>
        <time>2025-09-25T14:52:46Z</time>
      </trkpt>
      <trkpt lat="48.48497" lon="-4.69816">
        <ele>57</ele>
        <time>2025-09-25T14:52:48Z</time>
      </trkpt>
      <trkpt lat="48.48491" lon="-4.69814">
        <ele>57.4</ele>
        <time>2025-09-25T14:52:52Z</time>
      </trkpt>
      <trkpt lat="48.48487" lon="-4.69813">
        <ele>57.8</ele>
        <time>2025-09-25T14:52:55Z</time>
      </trkpt>
      <trkpt lat="48.48481" lon="-4.6981">
        <ele>58.2</ele>
        <time>2025-09-25T14:53:00Z</time>
      </trkpt>
      <trkpt lat="48.48474" lon="-4.69808">
        <ele>58.8</ele>
        <time>2025-09-25T14:53:06Z</time>
      </trkpt>
      <trkpt lat="48.48473" lon="-4.69807">
        <ele>58.8</ele>
        <time>2025-09-25T14:53:07Z</time>
      </trkpt>
      <trkpt lat="48.48468" lon="-4.69806">
        <ele>59.2</ele>
        <time>2025-09-25T14:53:10Z</time>
      </trkpt>
      <trkpt lat="48.48464" lon="-4.69805">
        <ele>59.6</ele>
        <time>2025-09-25T14:53:13Z</time>
      </trkpt>
      <trkpt lat="48.48462" lon="-4.69806">
        <ele>59.8</ele>
        <time>2025-09-25T14:53:14Z</time>
      </trkpt>
      <trkpt lat="48.48461" lon="-4.69805">
        <ele>59.8</ele>
        <time>2025-09-25T14:53:17Z</time>
      </trkpt>
      <trkpt lat="48.48461" lon="-4.69805">
        <ele>59.8</ele>
        <time>2025-09-25T14:54:28Z</time>
      </trkpt>
      <trkpt lat="48.48461" lon="-4.69805">
        <ele>59.8</ele>
        <time>2025-09-25T14:54:29Z</time>
      </trkpt>
      <trkpt lat="48.4846" lon="-4.69805">
        <ele>59.8</ele>
        <time>2025-09-25T14:54:30Z</time>
      </trkpt>
      <trkpt lat="48.48459" lon="-4.69806">
        <ele>59.8</ele>
        <time>2025-09-25T14:54:42Z</time>
      </trkpt>
      <trkpt lat="48.48458" lon="-4.69807">
        <ele>59.8</ele>
        <time>2025-09-25T14:54:43Z</time>
      </trkpt>
      <trkpt lat="48.48458" lon="-4.69807">
        <ele>59.8</ele>
        <time>2025-09-25T14:54:45Z</time>
      </trkpt>
      <trkpt lat="48.48457" lon="-4.69807">
        <ele>59.8</ele>
        <time>2025-09-25T14:54:47Z</time>
      </trkpt>
      <trkpt lat="48.48455" lon="-4.69806">
        <ele>59.6</ele>
        <time>2025-09-25T14:54:49Z</time>
      </trkpt>
      <trkpt lat="48.48444" lon="-4.69808">
        <ele>60</ele>
        <time>2025-09-25T14:54:55Z</time>
      </trkpt>
      <trkpt lat="48.48431" lon="-4.6981">
        <ele>60.6</ele>
        <time>2025-09-25T14:55:02Z</time>
      </trkpt>
      <trkpt lat="48.48415" lon="-4.69814">
        <ele>60.6</ele>
        <time>2025-09-25T14:55:10Z</time>
      </trkpt>
      <trkpt lat="48.48403" lon="-4.6982">
        <ele>60.8</ele>
        <time>2025-09-25T14:55:16Z</time>
      </trkpt>
      <trkpt lat="48.48401" lon="-4.69821">
        <ele>60.8</ele>
        <time>2025-09-25T14:55:17Z</time>
      </trkpt>
      <trkpt lat="48.48391" lon="-4.69826">
        <ele>61</ele>
        <time>2025-09-25T14:55:23Z</time>
      </trkpt>
      <trkpt lat="48.48383" lon="-4.69827">
        <ele>61.4</ele>
        <time>2025-09-25T14:55:29Z</time>
      </trkpt>
      <trkpt lat="48.48382" lon="-4.69826">
        <ele>61.4</ele>
        <time>2025-09-25T14:55:30Z</time>
      </trkpt>
      <trkpt lat="48.4838" lon="-4.69816">
        <ele>61.8</ele>
        <time>2025-09-25T14:55:34Z</time>
      </trkpt>
      <trkpt lat="48.4838" lon="-4.69807">
        <ele>61.8</ele>
        <time>2025-09-25T14:55:37Z</time>
      </trkpt>
      <trkpt lat="48.4838" lon="-4.69794">
        <ele>61.8</ele>
        <time>2025-09-25T14:55:41Z</time>
      </trkpt>
      <trkpt lat="48.48379" lon="-4.69766">
        <ele>62.2</ele>
        <time>2025-09-25T14:55:50Z</time>
      </trkpt>
      <trkpt lat="48.48378" lon="-4.6974">
        <ele>62.2</ele>
        <time>2025-09-25T14:55:59Z</time>
      </trkpt>
      <trkpt lat="48.48377" lon="-4.69719">
        <ele>62.6</ele>
        <time>2025-09-25T14:56:07Z</time>
      </trkpt>
      <trkpt lat="48.48376" lon="-4.6969">
        <ele>62.6</ele>
        <time>2025-09-25T14:56:16Z</time>
      </trkpt>
      <trkpt lat="48.48377" lon="-4.69675">
        <ele>63</ele>
        <time>2025-09-25T14:56:20Z</time>
      </trkpt>
      <trkpt lat="48.48379" lon="-4.69652">
        <ele>63.2</ele>
        <time>2025-09-25T14:56:26Z</time>
      </trkpt>
      <trkpt lat="48.48382" lon="-4.69611">
        <ele>62.8</ele>
        <time>2025-09-25T14:56:35Z</time>
      </trkpt>
      <trkpt lat="48.48385" lon="-4.69577">
        <ele>62.2</ele>
        <time>2025-09-25T14:56:42Z</time>
      </trkpt>
      <trkpt lat="48.48385" lon="-4.69572">
        <ele>62</ele>
        <time>2025-09-25T14:56:43Z</time>
      </trkpt>
      <trkpt lat="48.48386" lon="-4.69559">
        <ele>61.8</ele>
        <time>2025-09-25T14:56:46Z</time>
      </trkpt>
      <trkpt lat="48.48392" lon="-4.69537">
        <ele>62</ele>
        <time>2025-09-25T14:56:51Z</time>
      </trkpt>
      <trkpt lat="48.48406" lon="-4.69525">
        <ele>61.8</ele>
        <time>2025-09-25T14:56:56Z</time>
      </trkpt>
      <trkpt lat="48.48439" lon="-4.69513">
        <ele>62.6</ele>
        <time>2025-09-25T14:57:06Z</time>
      </trkpt>
      <trkpt lat="48.48467" lon="-4.69497">
        <ele>62.4</ele>
        <time>2025-09-25T14:57:16Z</time>
      </trkpt>
      <trkpt lat="48.48483" lon="-4.69488">
        <ele>62.4</ele>
        <time>2025-09-25T14:57:21Z</time>
      </trkpt>
      <trkpt lat="48.48498" lon="-4.69477">
        <ele>63</ele>
        <time>2025-09-25T14:57:26Z</time>
      </trkpt>
      <trkpt lat="48.48516" lon="-4.69465">
        <ele>63</ele>
        <time>2025-09-25T14:57:32Z</time>
      </trkpt>
      <trkpt lat="48.48521" lon="-4.69461">
        <ele>63.4</ele>
        <time>2025-09-25T14:57:34Z</time>
      </trkpt>
      <trkpt lat="48.48538" lon="-4.6945">
        <ele>64</ele>
        <time>2025-09-25T14:57:40Z</time>
      </trkpt>
      <trkpt lat="48.4855" lon="-4.69442">
        <ele>63.8</ele>
        <time>2025-09-25T14:57:44Z</time>
      </trkpt>
      <trkpt lat="48.48574" lon="-4.69421">
        <ele>63</ele>
        <time>2025-09-25T14:57:52Z</time>
      </trkpt>
      <trkpt lat="48.48579" lon="-4.69413">
        <ele>63</ele>
        <time>2025-09-25T14:57:54Z</time>
      </trkpt>
      <trkpt lat="48.48585" lon="-4.69396">
        <ele>64.2</ele>
        <time>2025-09-25T14:57:58Z</time>
      </trkpt>
      <trkpt lat="48.48585" lon="-4.69391">
        <ele>64.2</ele>
        <time>2025-09-25T14:57:59Z</time>
      </trkpt>
      <trkpt lat="48.48582" lon="-4.69361">
        <ele>64</ele>
        <time>2025-09-25T14:58:05Z</time>
      </trkpt>
      <trkpt lat="48.48581" lon="-4.69356">
        <ele>64</ele>
        <time>2025-09-25T14:58:06Z</time>
      </trkpt>
      <trkpt lat="48.48574" lon="-4.69315">
        <ele>65</ele>
        <time>2025-09-25T14:58:15Z</time>
      </trkpt>
      <trkpt lat="48.48571" lon="-4.69295">
        <ele>65.2</ele>
        <time>2025-09-25T14:58:20Z</time>
      </trkpt>
      <trkpt lat="48.48567" lon="-4.69274">
        <ele>65.6</ele>
        <time>2025-09-25T14:58:25Z</time>
      </trkpt>
      <trkpt lat="48.48562" lon="-4.69239">
        <ele>66.2</ele>
        <time>2025-09-25T14:58:34Z</time>
      </trkpt>
      <trkpt lat="48.48561" lon="-4.69228">
        <ele>66.4</ele>
        <time>2025-09-25T14:58:37Z</time>
      </trkpt>
      <trkpt lat="48.48556" lon="-4.69187">
        <ele>66.8</ele>
        <time>2025-09-25T14:58:47Z</time>
      </trkpt>
      <trkpt lat="48.48552" lon="-4.69146">
        <ele>66.8</ele>
        <time>2025-09-25T14:58:57Z</time>
      </trkpt>
      <trkpt lat="48.48548" lon="-4.69119">
        <ele>66.8</ele>
        <time>2025-09-25T14:59:05Z</time>
      </trkpt>
      <trkpt lat="48.48541" lon="-4.69084">
        <ele>67</ele>
        <time>2025-09-25T14:59:14Z</time>
      </trkpt>
      <trkpt lat="48.48538" lon="-4.69071">
        <ele>67.2</ele>
        <time>2025-09-25T14:59:17Z</time>
      </trkpt>
      <trkpt lat="48.48531" lon="-4.69049">
        <ele>67.4</ele>
        <time>2025-09-25T14:59:23Z</time>
      </trkpt>
      <trkpt lat="48.48517" lon="-4.69019">
        <ele>67.6</ele>
        <time>2025-09-25T14:59:32Z</time>
      </trkpt>
      <trkpt lat="48.48509" lon="-4.69007">
        <ele>68.2</ele>
        <time>2025-09-25T14:59:37Z</time>
      </trkpt>
      <trkpt lat="48.48507" lon="-4.69004">
        <ele>68.2</ele>
        <time>2025-09-25T14:59:38Z</time>
      </trkpt>
      <trkpt lat="48.48505" lon="-4.69001">
        <ele>68.2</ele>
        <time>2025-09-25T14:59:39Z</time>
      </trkpt>
      <trkpt lat="48.48499" lon="-4.6899">
        <ele>68.6</ele>
        <time>2025-09-25T14:59:44Z</time>
      </trkpt>
      <trkpt lat="48.48489" lon="-4.68971">
        <ele>69</ele>
        <time>2025-09-25T14:59:51Z</time>
      </trkpt>
      <trkpt lat="48.48477" lon="-4.68952">
        <ele>69</ele>
        <time>2025-09-25T14:59:58Z</time>
      </trkpt>
      <trkpt lat="48.48468" lon="-4.6893">
        <ele>69.2</ele>
        <time>2025-09-25T15:00:05Z</time>
      </trkpt>
      <trkpt lat="48.48462" lon="-4.68919">
        <ele>69.4</ele>
        <time>2025-09-25T15:00:09Z</time>
      </trkpt>
      <trkpt lat="48.48455" lon="-4.68904">
        <ele>69.6</ele>
        <time>2025-09-25T15:00:14Z</time>
      </trkpt>
      <trkpt lat="48.48447" lon="-4.68886">
        <ele>69.6</ele>
        <time>2025-09-25T15:00:20Z</time>
      </trkpt>
      <trkpt lat="48.48438" lon="-4.68866">
        <ele>69.6</ele>
        <time>2025-09-25T15:00:27Z</time>
      </trkpt>
      <trkpt lat="48.48432" lon="-4.68842">
        <ele>69.8</ele>
        <time>2025-09-25T15:00:35Z</time>
      </trkpt>
      <trkpt lat="48.48431" lon="-4.68836">
        <ele>70.2</ele>
        <time>2025-09-25T15:00:37Z</time>
      </trkpt>
      <trkpt lat="48.48424" lon="-4.68823">
        <ele>70.4</ele>
        <time>2025-09-25T15:00:42Z</time>
      </trkpt>
      <trkpt lat="48.48422" lon="-4.68821">
        <ele>70.4</ele>
        <time>2025-09-25T15:00:43Z</time>
      </trkpt>
      <trkpt lat="48.48408" lon="-4.68802">
        <ele>70.8</ele>
        <time>2025-09-25T15:00:50Z</time>
      </trkpt>
      <trkpt lat="48.48402" lon="-4.68781">
        <ele>71.2</ele>
        <time>2025-09-25T15:00:56Z</time>
      </trkpt>
      <trkpt lat="48.48398" lon="-4.68768">
        <ele>71.4</ele>
        <time>2025-09-25T15:01:00Z</time>
      </trkpt>
      <trkpt lat="48.48395" lon="-4.6876">
        <ele>71.6</ele>
        <time>2025-09-25T15:01:03Z</time>
      </trkpt>
      <trkpt lat="48.48387" lon="-4.68741">
        <ele>71.8</ele>
        <time>2025-09-25T15:01:10Z</time>
      </trkpt>
      <trkpt lat="48.48381" lon="-4.68729">
        <ele>71.8</ele>
        <time>2025-09-25T15:01:16Z</time>
      </trkpt>
      <trkpt lat="48.48371" lon="-4.6871">
        <ele>72.2</ele>
        <time>2025-09-25T15:01:24Z</time>
      </trkpt>
      <trkpt lat="48.48364" lon="-4.68695">
        <ele>72.4</ele>
        <time>2025-09-25T15:01:29Z</time>
      </trkpt>
      <trkpt lat="48.48359" lon="-4.68684">
        <ele>72.8</ele>
        <time>2025-09-25T15:01:32Z</time>
      </trkpt>
      <trkpt lat="48.48346" lon="-4.68662">
        <ele>73.4</ele>
        <time>2025-09-25T15:01:39Z</time>
      </trkpt>
      <trkpt lat="48.48331" lon="-4.68638">
        <ele>73.4</ele>
        <time>2025-09-25T15:01:48Z</time>
      </trkpt>
      <trkpt lat="48.48319" lon="-4.6862">
        <ele>74.2</ele>
        <time>2025-09-25T15:01:55Z</time>
      </trkpt>
      <trkpt lat="48.48309" lon="-4.68604">
        <ele>74.4</ele>
        <time>2025-09-25T15:02:01Z</time>
      </trkpt>
      <trkpt lat="48.48307" lon="-4.68602">
        <ele>74.6</ele>
        <time>2025-09-25T15:02:02Z</time>
      </trkpt>
      <trkpt lat="48.48295" lon="-4.68581">
        <ele>75</ele>
        <time>2025-09-25T15:02:10Z</time>
      </trkpt>
      <trkpt lat="48.48287" lon="-4.68565">
        <ele>75.6</ele>
        <time>2025-09-25T15:02:16Z</time>
      </trkpt>
      <trkpt lat="48.48285" lon="-4.68562">
        <ele>75.6</ele>
        <time>2025-09-25T15:02:17Z</time>
      </trkpt>
      <trkpt lat="48.48276" lon="-4.68542">
        <ele>76.2</ele>
        <time>2025-09-25T15:02:24Z</time>
      </trkpt>
      <trkpt lat="48.48265" lon="-4.6852">
        <ele>76.6</ele>
        <time>2025-09-25T15:02:32Z</time>
      </trkpt>
      <trkpt lat="48.48255" lon="-4.68501">
        <ele>77.2</ele>
        <time>2025-09-25T15:02:39Z</time>
      </trkpt>
      <trkpt lat="48.48251" lon="-4.68494">
        <ele>77.6</ele>
        <time>2025-09-25T15:02:42Z</time>
      </trkpt>
      <trkpt lat="48.48246" lon="-4.68488">
        <ele>77.6</ele>
        <time>2025-09-25T15:02:45Z</time>
      </trkpt>
      <trkpt lat="48.48232" lon="-4.68484">
        <ele>78</ele>
        <time>2025-09-25T15:02:51Z</time>
      </trkpt>
      <trkpt lat="48.48215" lon="-4.68484">
        <ele>78.6</ele>
        <time>2025-09-25T15:02:58Z</time>
      </trkpt>
      <trkpt lat="48.4821" lon="-4.68483">
        <ele>78.8</ele>
        <time>2025-09-25T15:03:00Z</time>
      </trkpt>
      <trkpt lat="48.48193" lon="-4.68481">
        <ele>79.2</ele>
        <time>2025-09-25T15:03:07Z</time>
      </trkpt>
      <trkpt lat="48.4819" lon="-4.68481">
        <ele>79.4</ele>
        <time>2025-09-25T15:03:08Z</time>
      </trkpt>
      <trkpt lat="48.48188" lon="-4.68481">
        <ele>79.4</ele>
        <time>2025-09-25T15:03:09Z</time>
      </trkpt>
      <trkpt lat="48.48166" lon="-4.68478">
        <ele>79.6</ele>
        <time>2025-09-25T15:03:18Z</time>
      </trkpt>
      <trkpt lat="48.4816" lon="-4.68478">
        <ele>79.6</ele>
        <time>2025-09-25T15:03:20Z</time>
      </trkpt>
      <trkpt lat="48.48141" lon="-4.68475">
        <ele>79.8</ele>
        <time>2025-09-25T15:03:27Z</time>
      </trkpt>
      <trkpt lat="48.48115" lon="-4.68471">
        <ele>79.6</ele>
        <time>2025-09-25T15:03:36Z</time>
      </trkpt>
      <trkpt lat="48.48104" lon="-4.68457">
        <ele>79.4</ele>
        <time>2025-09-25T15:03:41Z</time>
      </trkpt>
      <trkpt lat="48.48106" lon="-4.68436">
        <ele>79.6</ele>
        <time>2025-09-25T15:03:46Z</time>
      </trkpt>
      <trkpt lat="48.48113" lon="-4.68395">
        <ele>79.6</ele>
        <time>2025-09-25T15:03:55Z</time>
      </trkpt>
      <trkpt lat="48.48116" lon="-4.68359">
        <ele>80</ele>
        <time>2025-09-25T15:04:03Z</time>
      </trkpt>
      <trkpt lat="48.48116" lon="-4.68336">
        <ele>79.8</ele>
        <time>2025-09-25T15:04:08Z</time>
      </trkpt>
      <trkpt lat="48.48116" lon="-4.68324">
        <ele>79.8</ele>
        <time>2025-09-25T15:04:11Z</time>
      </trkpt>
      <trkpt lat="48.48117" lon="-4.6829">
        <ele>80.4</ele>
        <time>2025-09-25T15:04:19Z</time>
      </trkpt>
      <trkpt lat="48.48116" lon="-4.68286">
        <ele>80.4</ele>
        <time>2025-09-25T15:04:20Z</time>
      </trkpt>
      <trkpt lat="48.48116" lon="-4.68277">
        <ele>80.8</ele>
        <time>2025-09-25T15:04:22Z</time>
      </trkpt>
      <trkpt lat="48.48114" lon="-4.68247">
        <ele>81.2</ele>
        <time>2025-09-25T15:04:29Z</time>
      </trkpt>
      <trkpt lat="48.48112" lon="-4.68233">
        <ele>81.8</ele>
        <time>2025-09-25T15:04:33Z</time>
      </trkpt>
      <trkpt lat="48.48112" lon="-4.68229">
        <ele>81.8</ele>
        <time>2025-09-25T15:04:34Z</time>
      </trkpt>
      <trkpt lat="48.48109" lon="-4.68207">
        <ele>81.6</ele>
        <time>2025-09-25T15:04:40Z</time>
      </trkpt>
      <trkpt lat="48.48104" lon="-4.68162">
        <ele>82</ele>
        <time>2025-09-25T15:04:51Z</time>
      </trkpt>
      <trkpt lat="48.48097" lon="-4.68131">
        <ele>82.6</ele>
        <time>2025-09-25T15:04:59Z</time>
      </trkpt>
      <trkpt lat="48.48096" lon="-4.68128">
        <ele>82.6</ele>
        <time>2025-09-25T15:05:00Z</time>
      </trkpt>
      <trkpt lat="48.48093" lon="-4.68121">
        <ele>82.8</ele>
        <time>2025-09-25T15:05:02Z</time>
      </trkpt>
      <trkpt lat="48.48085" lon="-4.68092">
        <ele>82.6</ele>
        <time>2025-09-25T15:05:10Z</time>
      </trkpt>
      <trkpt lat="48.48078" lon="-4.68064">
        <ele>83</ele>
        <time>2025-09-25T15:05:18Z</time>
      </trkpt>
      <trkpt lat="48.48074" lon="-4.68035">
        <ele>83.8</ele>
        <time>2025-09-25T15:05:26Z</time>
      </trkpt>
      <trkpt lat="48.48073" lon="-4.6801">
        <ele>83.6</ele>
        <time>2025-09-25T15:05:33Z</time>
      </trkpt>
      <trkpt lat="48.48073" lon="-4.68006">
        <ele>83.6</ele>
        <time>2025-09-25T15:05:34Z</time>
      </trkpt>
      <trkpt lat="48.48073" lon="-4.67994">
        <ele>83.8</ele>
        <time>2025-09-25T15:05:37Z</time>
      </trkpt>
      <trkpt lat="48.48072" lon="-4.67982">
        <ele>84</ele>
        <time>2025-09-25T15:05:40Z</time>
      </trkpt>
      <trkpt lat="48.48072" lon="-4.67978">
        <ele>84</ele>
        <time>2025-09-25T15:05:41Z</time>
      </trkpt>
      <trkpt lat="48.48069" lon="-4.67944">
        <ele>84.4</ele>
        <time>2025-09-25T15:05:49Z</time>
      </trkpt>
      <trkpt lat="48.48066" lon="-4.67918">
        <ele>84.8</ele>
        <time>2025-09-25T15:05:56Z</time>
      </trkpt>
      <trkpt lat="48.48063" lon="-4.67904">
        <ele>85</ele>
        <time>2025-09-25T15:06:00Z</time>
      </trkpt>
      <trkpt lat="48.48062" lon="-4.679">
        <ele>85</ele>
        <time>2025-09-25T15:06:01Z</time>
      </trkpt>
      <trkpt lat="48.48058" lon="-4.67874">
        <ele>85.4</ele>
        <time>2025-09-25T15:06:08Z</time>
      </trkpt>
      <trkpt lat="48.48057" lon="-4.67859">
        <ele>85.6</ele>
        <time>2025-09-25T15:06:12Z</time>
      </trkpt>
      <trkpt lat="48.48055" lon="-4.67848">
        <ele>85.8</ele>
        <time>2025-09-25T15:06:15Z</time>
      </trkpt>
      <trkpt lat="48.4805" lon="-4.67823">
        <ele>86</ele>
        <time>2025-09-25T15:06:22Z</time>
      </trkpt>
      <trkpt lat="48.48036" lon="-4.67815">
        <ele>85.8</ele>
        <time>2025-09-25T15:06:27Z</time>
      </trkpt>
      <trkpt lat="48.48015" lon="-4.67814">
        <ele>85.4</ele>
        <time>2025-09-25T15:06:33Z</time>
      </trkpt>
      <trkpt lat="48.48011" lon="-4.67814">
        <ele>85.2</ele>
        <time>2025-09-25T15:06:34Z</time>
      </trkpt>
      <trkpt lat="48.48004" lon="-4.67814">
        <ele>85</ele>
        <time>2025-09-25T15:06:36Z</time>
      </trkpt>
      <trkpt lat="48.47984" lon="-4.67815">
        <ele>84.4</ele>
        <time>2025-09-25T15:06:41Z</time>
      </trkpt>
      <trkpt lat="48.47958" lon="-4.67819">
        <ele>84</ele>
        <time>2025-09-25T15:06:47Z</time>
      </trkpt>
      <trkpt lat="48.47927" lon="-4.67827">
        <ele>82.8</ele>
        <time>2025-09-25T15:06:54Z</time>
      </trkpt>
      <trkpt lat="48.47898" lon="-4.67834">
        <ele>82.4</ele>
        <time>2025-09-25T15:07:01Z</time>
      </trkpt>
      <trkpt lat="48.47873" lon="-4.67841">
        <ele>81.8</ele>
        <time>2025-09-25T15:07:07Z</time>
      </trkpt>
      <trkpt lat="48.47868" lon="-4.67841">
        <ele>81.4</ele>
        <time>2025-09-25T15:07:08Z</time>
      </trkpt>
      <trkpt lat="48.47853" lon="-4.67843">
        <ele>80.8</ele>
        <time>2025-09-25T15:07:11Z</time>
      </trkpt>
      <trkpt lat="48.47844" lon="-4.67843">
        <ele>80.2</ele>
        <time>2025-09-25T15:07:13Z</time>
      </trkpt>
      <trkpt lat="48.47839" lon="-4.67842">
        <ele>80</ele>
        <time>2025-09-25T15:07:14Z</time>
      </trkpt>
      <trkpt lat="48.47828" lon="-4.67833">
        <ele>80</ele>
        <time>2025-09-25T15:07:17Z</time>
      </trkpt>
      <trkpt lat="48.47816" lon="-4.67819">
        <ele>81.2</ele>
        <time>2025-09-25T15:07:22Z</time>
      </trkpt>
      <trkpt lat="48.47805" lon="-4.67806">
        <ele>81.8</ele>
        <time>2025-09-25T15:07:27Z</time>
      </trkpt>
      <trkpt lat="48.47791" lon="-4.67792">
        <ele>82.2</ele>
        <time>2025-09-25T15:07:35Z</time>
      </trkpt>
      <trkpt lat="48.47789" lon="-4.67791">
        <ele>82.4</ele>
        <time>2025-09-25T15:07:38Z</time>
      </trkpt>
      <trkpt lat="48.47787" lon="-4.67784">
        <ele>82.4</ele>
        <time>2025-09-25T15:08:15Z</time>
      </trkpt>
      <trkpt lat="48.47786" lon="-4.67784">
        <ele>82.4</ele>
        <time>2025-09-25T15:08:16Z</time>
      </trkpt>
      <trkpt lat="48.47785" lon="-4.67785">
        <ele>82.4</ele>
        <time>2025-09-25T15:08:18Z</time>
      </trkpt>
      <trkpt lat="48.47783" lon="-4.67781">
        <ele>82.4</ele>
        <time>2025-09-25T15:08:23Z</time>
      </trkpt>
      <trkpt lat="48.47784" lon="-4.6778">
        <ele>82.4</ele>
        <time>2025-09-25T15:08:25Z</time>
      </trkpt>
      <trkpt lat="48.47782" lon="-4.67782">
        <ele>82.6</ele>
        <time>2025-09-25T15:18:22Z</time>
      </trkpt>
      <trkpt lat="48.47778" lon="-4.67783">
        <ele>82.6</ele>
        <time>2025-09-25T15:18:27Z</time>
      </trkpt>
      <trkpt lat="48.47777" lon="-4.67783">
        <ele>82.4</ele>
        <time>2025-09-25T15:18:30Z</time>
      </trkpt>
      <trkpt lat="48.47776" lon="-4.67783">
        <ele>82.6</ele>
        <time>2025-09-25T15:18:34Z</time>
      </trkpt>
      <trkpt lat="48.47775" lon="-4.67783">
        <ele>82.4</ele>
        <time>2025-09-25T15:18:36Z</time>
      </trkpt>
      <trkpt lat="48.47775" lon="-4.67783">
        <ele>82</ele>
        <time>2025-09-25T15:18:39Z</time>
      </trkpt>
      <trkpt lat="48.47776" lon="-4.67785">
        <ele>82.2</ele>
        <time>2025-09-25T15:19:33Z</time>
      </trkpt>
      <trkpt lat="48.47779" lon="-4.67784">
        <ele>82</ele>
        <time>2025-09-25T15:19:36Z</time>
      </trkpt>
      <trkpt lat="48.4778" lon="-4.67784">
        <ele>82.2</ele>
        <time>2025-09-25T15:19:39Z</time>
      </trkpt>
      <trkpt lat="48.47779" lon="-4.67783">
        <ele>82.2</ele>
        <time>2025-09-25T15:19:40Z</time>
      </trkpt>
      <trkpt lat="48.47784" lon="-4.67784">
        <ele>82.2</ele>
        <time>2025-09-25T15:21:45Z</time>
      </trkpt>
      <trkpt lat="48.47784" lon="-4.67784">
        <ele>82.2</ele>
        <time>2025-09-25T15:21:47Z</time>
      </trkpt>
      <trkpt lat="48.47781" lon="-4.67785">
        <ele>82.2</ele>
        <time>2025-09-25T15:22:03Z</time>
      </trkpt>
      <trkpt lat="48.47781" lon="-4.67785">
        <ele>82.2</ele>
        <time>2025-09-25T15:22:04Z</time>
      </trkpt>
      <trkpt lat="48.47781" lon="-4.67785">
        <ele>82.2</ele>
        <time>2025-09-25T15:22:06Z</time>
      </trkpt>
      <trkpt lat="48.47785" lon="-4.67784">
        <ele>82.2</ele>
        <time>2025-09-25T15:23:14Z</time>
      </trkpt>
      <trkpt lat="48.47785" lon="-4.67782">
        <ele>82.2</ele>
        <time>2025-09-25T15:23:17Z</time>
      </trkpt>
      <trkpt lat="48.47784" lon="-4.67778">
        <ele>82.2</ele>
        <time>2025-09-25T15:23:55Z</time>
      </trkpt>
      <trkpt lat="48.47784" lon="-4.67776">
        <ele>82.2</ele>
        <time>2025-09-25T15:23:56Z</time>
      </trkpt>
      <trkpt lat="48.47783" lon="-4.6777">
        <ele>82.2</ele>
        <time>2025-09-25T15:23:59Z</time>
      </trkpt>
      <trkpt lat="48.47781" lon="-4.67767">
        <ele>82.2</ele>
        <time>2025-09-25T15:24:01Z</time>
      </trkpt>
      <trkpt lat="48.4778" lon="-4.67763">
        <ele>82.4</ele>
        <time>2025-09-25T15:24:03Z</time>
      </trkpt>
      <trkpt lat="48.47779" lon="-4.67758">
        <ele>82.6</ele>
        <time>2025-09-25T15:24:05Z</time>
      </trkpt>
      <trkpt lat="48.47776" lon="-4.67741">
        <ele>82.6</ele>
        <time>2025-09-25T15:24:11Z</time>
      </trkpt>
      <trkpt lat="48.47771" lon="-4.67716">
        <ele>81.6</ele>
        <time>2025-09-25T15:24:17Z</time>
      </trkpt>
      <trkpt lat="48.47765" lon="-4.67678">
        <ele>81</ele>
        <time>2025-09-25T15:24:24Z</time>
      </trkpt>
      <trkpt lat="48.47762" lon="-4.67666">
        <ele>80.8</ele>
        <time>2025-09-25T15:24:26Z</time>
      </trkpt>
      <trkpt lat="48.47758" lon="-4.67641">
        <ele>80</ele>
        <time>2025-09-25T15:24:30Z</time>
      </trkpt>
      <trkpt lat="48.47758" lon="-4.67635">
        <ele>79.8</ele>
        <time>2025-09-25T15:24:31Z</time>
      </trkpt>
      <trkpt lat="48.47754" lon="-4.67605">
        <ele>79.8</ele>
        <time>2025-09-25T15:24:36Z</time>
      </trkpt>
      <trkpt lat="48.4775" lon="-4.67587">
        <ele>79.4</ele>
        <time>2025-09-25T15:24:41Z</time>
      </trkpt>
      <trkpt lat="48.47743" lon="-4.67584">
        <ele>79.6</ele>
        <time>2025-09-25T15:24:46Z</time>
      </trkpt>
      <trkpt lat="48.47732" lon="-4.67574">
        <ele>79.2</ele>
        <time>2025-09-25T15:24:50Z</time>
      </trkpt>
      <trkpt lat="48.4772" lon="-4.67557">
        <ele>79</ele>
        <time>2025-09-25T15:24:55Z</time>
      </trkpt>
      <trkpt lat="48.47719" lon="-4.67554">
        <ele>79</ele>
        <time>2025-09-25T15:24:56Z</time>
      </trkpt>
      <trkpt lat="48.47717" lon="-4.67551">
        <ele>79</ele>
        <time>2025-09-25T15:24:57Z</time>
      </trkpt>
      <trkpt lat="48.47714" lon="-4.67547">
        <ele>79.2</ele>
        <time>2025-09-25T15:24:58Z</time>
      </trkpt>
      <trkpt lat="48.47704" lon="-4.67531">
        <ele>78.8</ele>
        <time>2025-09-25T15:25:03Z</time>
      </trkpt>
      <trkpt lat="48.47702" lon="-4.67528">
        <ele>78.8</ele>
        <time>2025-09-25T15:25:04Z</time>
      </trkpt>
      <trkpt lat="48.47695" lon="-4.67516">
        <ele>78.8</ele>
        <time>2025-09-25T15:25:09Z</time>
      </trkpt>
      <trkpt lat="48.47683" lon="-4.67507">
        <ele>78.6</ele>
        <time>2025-09-25T15:25:14Z</time>
      </trkpt>
      <trkpt lat="48.47669" lon="-4.67499">
        <ele>78.4</ele>
        <time>2025-09-25T15:25:19Z</time>
      </trkpt>
      <trkpt lat="48.47657" lon="-4.67497">
        <ele>77.8</ele>
        <time>2025-09-25T15:25:23Z</time>
      </trkpt>
      <trkpt lat="48.47654" lon="-4.67498">
        <ele>77.4</ele>
        <time>2025-09-25T15:25:24Z</time>
      </trkpt>
      <trkpt lat="48.47645" lon="-4.67499">
        <ele>76.2</ele>
        <time>2025-09-25T15:25:26Z</time>
      </trkpt>
      <trkpt lat="48.47641" lon="-4.67501">
        <ele>75.6</ele>
        <time>2025-09-25T15:25:27Z</time>
      </trkpt>
      <trkpt lat="48.47636" lon="-4.67502">
        <ele>74.8</ele>
        <time>2025-09-25T15:25:28Z</time>
      </trkpt>
      <trkpt lat="48.47627" lon="-4.67504">
        <ele>75</ele>
        <time>2025-09-25T15:25:31Z</time>
      </trkpt>
      <trkpt lat="48.47617" lon="-4.67509">
        <ele>75.6</ele>
        <time>2025-09-25T15:25:35Z</time>
      </trkpt>
      <trkpt lat="48.47611" lon="-4.67511">
        <ele>75</ele>
        <time>2025-09-25T15:25:37Z</time>
      </trkpt>
      <trkpt lat="48.47604" lon="-4.67514">
        <ele>74.2</ele>
        <time>2025-09-25T15:25:39Z</time>
      </trkpt>
      <trkpt lat="48.47601" lon="-4.67514">
        <ele>74</ele>
        <time>2025-09-25T15:25:40Z</time>
      </trkpt>
      <trkpt lat="48.47598" lon="-4.67515">
        <ele>73.8</ele>
        <time>2025-09-25T15:25:41Z</time>
      </trkpt>
      <trkpt lat="48.47587" lon="-4.67519">
        <ele>72.4</ele>
        <time>2025-09-25T15:25:44Z</time>
      </trkpt>
      <trkpt lat="48.47579" lon="-4.67516">
        <ele>71.2</ele>
        <time>2025-09-25T15:25:46Z</time>
      </trkpt>
      <trkpt lat="48.47574" lon="-4.67502">
        <ele>70.4</ele>
        <time>2025-09-25T15:25:49Z</time>
      </trkpt>
      <trkpt lat="48.47574" lon="-4.67478">
        <ele>70</ele>
        <time>2025-09-25T15:25:52Z</time>
      </trkpt>
      <trkpt lat="48.47575" lon="-4.67471">
        <ele>70</ele>
        <time>2025-09-25T15:25:53Z</time>
      </trkpt>
      <trkpt lat="48.47574" lon="-4.67463">
        <ele>69.8</ele>
        <time>2025-09-25T15:25:54Z</time>
      </trkpt>
      <trkpt lat="48.4757" lon="-4.67452">
        <ele>69.6</ele>
        <time>2025-09-25T15:25:56Z</time>
      </trkpt>
      <trkpt lat="48.47567" lon="-4.67449">
        <ele>69.4</ele>
        <time>2025-09-25T15:25:57Z</time>
      </trkpt>
      <trkpt lat="48.47559" lon="-4.67441">
        <ele>69.2</ele>
        <time>2025-09-25T15:25:59Z</time>
      </trkpt>
      <trkpt lat="48.47555" lon="-4.67437">
        <ele>69</ele>
        <time>2025-09-25T15:26:00Z</time>
      </trkpt>
      <trkpt lat="48.47547" lon="-4.67429">
        <ele>68.8</ele>
        <time>2025-09-25T15:26:02Z</time>
      </trkpt>
      <trkpt lat="48.47539" lon="-4.67415">
        <ele>68.8</ele>
        <time>2025-09-25T15:26:05Z</time>
      </trkpt>
      <trkpt lat="48.47526" lon="-4.67382">
        <ele>69.8</ele>
        <time>2025-09-25T15:26:12Z</time>
      </trkpt>
      <trkpt lat="48.47519" lon="-4.67368">
        <ele>70.2</ele>
        <time>2025-09-25T15:26:15Z</time>
      </trkpt>
      <trkpt lat="48.47514" lon="-4.6736">
        <ele>70.6</ele>
        <time>2025-09-25T15:26:17Z</time>
      </trkpt>
      <trkpt lat="48.47501" lon="-4.67336">
        <ele>71</ele>
        <time>2025-09-25T15:26:24Z</time>
      </trkpt>
      <trkpt lat="48.47499" lon="-4.67333">
        <ele>71.2</ele>
        <time>2025-09-25T15:26:25Z</time>
      </trkpt>
      <trkpt lat="48.47487" lon="-4.67318">
        <ele>71.6</ele>
        <time>2025-09-25T15:26:30Z</time>
      </trkpt>
      <trkpt lat="48.47476" lon="-4.67301">
        <ele>72.2</ele>
        <time>2025-09-25T15:26:36Z</time>
      </trkpt>
      <trkpt lat="48.4747" lon="-4.67292">
        <ele>72.8</ele>
        <time>2025-09-25T15:26:40Z</time>
      </trkpt>
      <trkpt lat="48.47465" lon="-4.67285">
        <ele>73.2</ele>
        <time>2025-09-25T15:26:43Z</time>
      </trkpt>
      <trkpt lat="48.47464" lon="-4.67283">
        <ele>73.4</ele>
        <time>2025-09-25T15:26:44Z</time>
      </trkpt>
      <trkpt lat="48.47458" lon="-4.67274">
        <ele>74.4</ele>
        <time>2025-09-25T15:26:49Z</time>
      </trkpt>
      <trkpt lat="48.47457" lon="-4.67271">
        <ele>74.6</ele>
        <time>2025-09-25T15:26:51Z</time>
      </trkpt>
      <trkpt lat="48.47447" lon="-4.67262">
        <ele>75.2</ele>
        <time>2025-09-25T15:26:57Z</time>
      </trkpt>
      <trkpt lat="48.47444" lon="-4.67259">
        <ele>75.6</ele>
        <time>2025-09-25T15:26:59Z</time>
      </trkpt>
      <trkpt lat="48.47438" lon="-4.67254">
        <ele>76.4</ele>
        <time>2025-09-25T15:27:03Z</time>
      </trkpt>
      <trkpt lat="48.47434" lon="-4.67252">
        <ele>76.8</ele>
        <time>2025-09-25T15:27:05Z</time>
      </trkpt>
      <trkpt lat="48.47425" lon="-4.67245">
        <ele>77.6</ele>
        <time>2025-09-25T15:27:11Z</time>
      </trkpt>
      <trkpt lat="48.47424" lon="-4.67244">
        <ele>77.8</ele>
        <time>2025-09-25T15:27:12Z</time>
      </trkpt>
      <trkpt lat="48.47415" lon="-4.67237">
        <ele>78.8</ele>
        <time>2025-09-25T15:27:18Z</time>
      </trkpt>
      <trkpt lat="48.47408" lon="-4.6723">
        <ele>79.8</ele>
        <time>2025-09-25T15:27:24Z</time>
      </trkpt>
      <trkpt lat="48.47407" lon="-4.67228">
        <ele>80</ele>
        <time>2025-09-25T15:27:25Z</time>
      </trkpt>
      <trkpt lat="48.47401" lon="-4.67221">
        <ele>80.8</ele>
        <time>2025-09-25T15:27:30Z</time>
      </trkpt>
      <trkpt lat="48.47398" lon="-4.67218">
        <ele>81</ele>
        <time>2025-09-25T15:27:32Z</time>
      </trkpt>
      <trkpt lat="48.47391" lon="-4.67215">
        <ele>81.6</ele>
        <time>2025-09-25T15:27:37Z</time>
      </trkpt>
      <trkpt lat="48.47386" lon="-4.67212">
        <ele>82</ele>
        <time>2025-09-25T15:27:41Z</time>
      </trkpt>
      <trkpt lat="48.47381" lon="-4.6721">
        <ele>82.4</ele>
        <time>2025-09-25T15:27:45Z</time>
      </trkpt>
      <trkpt lat="48.4737" lon="-4.67206">
        <ele>83</ele>
        <time>2025-09-25T15:27:52Z</time>
      </trkpt>
      <trkpt lat="48.47369" lon="-4.67205">
        <ele>83</ele>
        <time>2025-09-25T15:27:53Z</time>
      </trkpt>
      <trkpt lat="48.47358" lon="-4.672">
        <ele>83.6</ele>
        <time>2025-09-25T15:28:00Z</time>
      </trkpt>
      <trkpt lat="48.4735" lon="-4.67191">
        <ele>84.2</ele>
        <time>2025-09-25T15:28:08Z</time>
      </trkpt>
      <trkpt lat="48.47343" lon="-4.67187">
        <ele>84.4</ele>
        <time>2025-09-25T15:28:14Z</time>
      </trkpt>
      <trkpt lat="48.47332" lon="-4.67179">
        <ele>85</ele>
        <time>2025-09-25T15:28:22Z</time>
      </trkpt>
      <trkpt lat="48.47328" lon="-4.67175">
        <ele>85.2</ele>
        <time>2025-09-25T15:28:25Z</time>
      </trkpt>
      <trkpt lat="48.47323" lon="-4.67169">
        <ele>85.4</ele>
        <time>2025-09-25T15:28:29Z</time>
      </trkpt>
      <trkpt lat="48.47312" lon="-4.67159">
        <ele>86</ele>
        <time>2025-09-25T15:28:37Z</time>
      </trkpt>
      <trkpt lat="48.47311" lon="-4.67158">
        <ele>86</ele>
        <time>2025-09-25T15:28:38Z</time>
      </trkpt>
      <trkpt lat="48.47306" lon="-4.67152">
        <ele>86</ele>
        <time>2025-09-25T15:28:42Z</time>
      </trkpt>
      <trkpt lat="48.47305" lon="-4.67151">
        <ele>86.2</ele>
        <time>2025-09-25T15:28:43Z</time>
      </trkpt>
      <trkpt lat="48.47303" lon="-4.67148">
        <ele>86.4</ele>
        <time>2025-09-25T15:28:45Z</time>
      </trkpt>
      <trkpt lat="48.47296" lon="-4.67142">
        <ele>86.6</ele>
        <time>2025-09-25T15:28:50Z</time>
      </trkpt>
      <trkpt lat="48.47292" lon="-4.67137">
        <ele>86.6</ele>
        <time>2025-09-25T15:28:53Z</time>
      </trkpt>
      <trkpt lat="48.47283" lon="-4.67122">
        <ele>86.8</ele>
        <time>2025-09-25T15:29:01Z</time>
      </trkpt>
      <trkpt lat="48.47272" lon="-4.67108">
        <ele>87.2</ele>
        <time>2025-09-25T15:29:10Z</time>
      </trkpt>
      <trkpt lat="48.4727" lon="-4.67107">
        <ele>87.2</ele>
        <time>2025-09-25T15:29:11Z</time>
      </trkpt>
      <trkpt lat="48.47265" lon="-4.67099">
        <ele>87.6</ele>
        <time>2025-09-25T15:29:16Z</time>
      </trkpt>
      <trkpt lat="48.47255" lon="-4.67089">
        <ele>88</ele>
        <time>2025-09-25T15:29:24Z</time>
      </trkpt>
      <trkpt lat="48.4725" lon="-4.67082">
        <ele>88.2</ele>
        <time>2025-09-25T15:29:28Z</time>
      </trkpt>
      <trkpt lat="48.47246" lon="-4.67077">
        <ele>88.4</ele>
        <time>2025-09-25T15:29:31Z</time>
      </trkpt>
      <trkpt lat="48.47237" lon="-4.67066">
        <ele>88.6</ele>
        <time>2025-09-25T15:29:38Z</time>
      </trkpt>
      <trkpt lat="48.47223" lon="-4.67054">
        <ele>89</ele>
        <time>2025-09-25T15:29:47Z</time>
      </trkpt>
      <trkpt lat="48.47215" lon="-4.67047">
        <ele>89.2</ele>
        <time>2025-09-25T15:29:52Z</time>
      </trkpt>
      <trkpt lat="48.47212" lon="-4.67043">
        <ele>89.4</ele>
        <time>2025-09-25T15:29:55Z</time>
      </trkpt>
      <trkpt lat="48.47208" lon="-4.67037">
        <ele>89.6</ele>
        <time>2025-09-25T15:29:58Z</time>
      </trkpt>
      <trkpt lat="48.47206" lon="-4.67029">
        <ele>89.8</ele>
        <time>2025-09-25T15:30:00Z</time>
      </trkpt>
      <trkpt lat="48.47203" lon="-4.67018">
        <ele>89.6</ele>
        <time>2025-09-25T15:30:03Z</time>
      </trkpt>
      <trkpt lat="48.47195" lon="-4.67006">
        <ele>89.6</ele>
        <time>2025-09-25T15:30:07Z</time>
      </trkpt>
      <trkpt lat="48.47165" lon="-4.6698">
        <ele>88.6</ele>
        <time>2025-09-25T15:30:16Z</time>
      </trkpt>
      <trkpt lat="48.4715" lon="-4.66967">
        <ele>88.2</ele>
        <time>2025-09-25T15:30:20Z</time>
      </trkpt>
      <trkpt lat="48.47131" lon="-4.66951">
        <ele>87.8</ele>
        <time>2025-09-25T15:30:25Z</time>
      </trkpt>
      <trkpt lat="48.47101" lon="-4.66929">
        <ele>87.4</ele>
        <time>2025-09-25T15:30:32Z</time>
      </trkpt>
      <trkpt lat="48.47073" lon="-4.66906">
        <ele>87.4</ele>
        <time>2025-09-25T15:30:39Z</time>
      </trkpt>
      <trkpt lat="48.47069" lon="-4.66902">
        <ele>87.8</ele>
        <time>2025-09-25T15:30:40Z</time>
      </trkpt>
      <trkpt lat="48.47065" lon="-4.669">
        <ele>88</ele>
        <time>2025-09-25T15:30:41Z</time>
      </trkpt>
      <trkpt lat="48.47038" lon="-4.6688">
        <ele>88.2</ele>
        <time>2025-09-25T15:30:48Z</time>
      </trkpt>
      <trkpt lat="48.47025" lon="-4.66874">
        <ele>88.6</ele>
        <time>2025-09-25T15:30:51Z</time>
      </trkpt>
      <trkpt lat="48.47011" lon="-4.66872">
        <ele>89</ele>
        <time>2025-09-25T15:30:54Z</time>
      </trkpt>
      <trkpt lat="48.47007" lon="-4.66872">
        <ele>89.2</ele>
        <time>2025-09-25T15:30:55Z</time>
      </trkpt>
      <trkpt lat="48.47003" lon="-4.66873">
        <ele>89.2</ele>
        <time>2025-09-25T15:30:56Z</time>
      </trkpt>
      <trkpt lat="48.46969" lon="-4.66875">
        <ele>90.2</ele>
        <time>2025-09-25T15:31:04Z</time>
      </trkpt>
      <trkpt lat="48.46961" lon="-4.66876">
        <ele>90.4</ele>
        <time>2025-09-25T15:31:06Z</time>
      </trkpt>
      <trkpt lat="48.46934" lon="-4.66872">
        <ele>91.4</ele>
        <time>2025-09-25T15:31:13Z</time>
      </trkpt>
      <trkpt lat="48.46931" lon="-4.66871">
        <ele>91.4</ele>
        <time>2025-09-25T15:31:14Z</time>
      </trkpt>
      <trkpt lat="48.46905" lon="-4.6687">
        <ele>92.4</ele>
        <time>2025-09-25T15:31:20Z</time>
      </trkpt>
      <trkpt lat="48.46893" lon="-4.66871">
        <ele>92.6</ele>
        <time>2025-09-25T15:31:23Z</time>
      </trkpt>
      <trkpt lat="48.46871" lon="-4.66874">
        <ele>93</ele>
        <time>2025-09-25T15:31:29Z</time>
      </trkpt>
      <trkpt lat="48.4685" lon="-4.66878">
        <ele>93.6</ele>
        <time>2025-09-25T15:31:35Z</time>
      </trkpt>
      <trkpt lat="48.46843" lon="-4.6688">
        <ele>93.8</ele>
        <time>2025-09-25T15:31:37Z</time>
      </trkpt>
      <trkpt lat="48.46819" lon="-4.66886">
        <ele>93.8</ele>
        <time>2025-09-25T15:31:44Z</time>
      </trkpt>
      <trkpt lat="48.46811" lon="-4.66886">
        <ele>94</ele>
        <time>2025-09-25T15:31:46Z</time>
      </trkpt>
      <trkpt lat="48.46787" lon="-4.66883">
        <ele>94.4</ele>
        <time>2025-09-25T15:31:53Z</time>
      </trkpt>
      <trkpt lat="48.4678" lon="-4.6688">
        <ele>94.6</ele>
        <time>2025-09-25T15:31:56Z</time>
      </trkpt>
      <trkpt lat="48.46772" lon="-4.66877">
        <ele>94.8</ele>
        <time>2025-09-25T15:32:00Z</time>
      </trkpt>
      <trkpt lat="48.46759" lon="-4.66869">
        <ele>95.2</ele>
        <time>2025-09-25T15:32:05Z</time>
      </trkpt>
      <trkpt lat="48.46742" lon="-4.66858">
        <ele>95.6</ele>
        <time>2025-09-25T15:32:12Z</time>
      </trkpt>
      <trkpt lat="48.46737" lon="-4.66856">
        <ele>95.8</ele>
        <time>2025-09-25T15:32:14Z</time>
      </trkpt>
      <trkpt lat="48.4672" lon="-4.66846">
        <ele>96.2</ele>
        <time>2025-09-25T15:32:20Z</time>
      </trkpt>
      <trkpt lat="48.46696" lon="-4.66847">
        <ele>96</ele>
        <time>2025-09-25T15:32:27Z</time>
      </trkpt>
      <trkpt lat="48.46676" lon="-4.66852">
        <ele>95.4</ele>
        <time>2025-09-25T15:32:32Z</time>
      </trkpt>
      <trkpt lat="48.46664" lon="-4.66856">
        <ele>94.8</ele>
        <time>2025-09-25T15:32:35Z</time>
      </trkpt>
      <trkpt lat="48.46659" lon="-4.66857">
        <ele>94.6</ele>
        <time>2025-09-25T15:32:36Z</time>
      </trkpt>
      <trkpt lat="48.4664" lon="-4.66862">
        <ele>94</ele>
        <time>2025-09-25T15:32:40Z</time>
      </trkpt>
      <trkpt lat="48.46624" lon="-4.66866">
        <ele>93.6</ele>
        <time>2025-09-25T15:32:43Z</time>
      </trkpt>
      <trkpt lat="48.46579" lon="-4.66874">
        <ele>92.6</ele>
        <time>2025-09-25T15:32:51Z</time>
      </trkpt>
      <trkpt lat="48.46552" lon="-4.66872">
        <ele>92.6</ele>
        <time>2025-09-25T15:32:56Z</time>
      </trkpt>
      <trkpt lat="48.46536" lon="-4.66871">
        <ele>92.6</ele>
        <time>2025-09-25T15:32:59Z</time>
      </trkpt>
      <trkpt lat="48.46513" lon="-4.66868">
        <ele>92.8</ele>
        <time>2025-09-25T15:33:04Z</time>
      </trkpt>
      <trkpt lat="48.46495" lon="-4.66866">
        <ele>92.6</ele>
        <time>2025-09-25T15:33:08Z</time>
      </trkpt>
      <trkpt lat="48.4645" lon="-4.66869">
        <ele>92.6</ele>
        <time>2025-09-25T15:33:17Z</time>
      </trkpt>
      <trkpt lat="48.46408" lon="-4.66887">
        <ele>92.2</ele>
        <time>2025-09-25T15:33:25Z</time>
      </trkpt>
      <trkpt lat="48.46373" lon="-4.669">
        <ele>91.6</ele>
        <time>2025-09-25T15:33:31Z</time>
      </trkpt>
      <trkpt lat="48.4636" lon="-4.66904">
        <ele>91</ele>
        <time>2025-09-25T15:33:33Z</time>
      </trkpt>
      <trkpt lat="48.46348" lon="-4.66907">
        <ele>90.2</ele>
        <time>2025-09-25T15:33:35Z</time>
      </trkpt>
      <trkpt lat="48.46321" lon="-4.66914">
        <ele>89</ele>
        <time>2025-09-25T15:33:39Z</time>
      </trkpt>
      <trkpt lat="48.463" lon="-4.6692">
        <ele>88.2</ele>
        <time>2025-09-25T15:33:42Z</time>
      </trkpt>
      <trkpt lat="48.46293" lon="-4.66922">
        <ele>87.8</ele>
        <time>2025-09-25T15:33:43Z</time>
      </trkpt>
      <trkpt lat="48.46269" lon="-4.66928">
        <ele>86.6</ele>
        <time>2025-09-25T15:33:46Z</time>
      </trkpt>
      <trkpt lat="48.46243" lon="-4.66934">
        <ele>86.2</ele>
        <time>2025-09-25T15:33:49Z</time>
      </trkpt>
      <trkpt lat="48.46205" lon="-4.66944">
        <ele>85.2</ele>
        <time>2025-09-25T15:33:53Z</time>
      </trkpt>
      <trkpt lat="48.46186" lon="-4.66948">
        <ele>84.4</ele>
        <time>2025-09-25T15:33:55Z</time>
      </trkpt>
      <trkpt lat="48.46176" lon="-4.66951">
        <ele>84</ele>
        <time>2025-09-25T15:33:56Z</time>
      </trkpt>
      <trkpt lat="48.46156" lon="-4.66956">
        <ele>83.4</ele>
        <time>2025-09-25T15:33:58Z</time>
      </trkpt>
      <trkpt lat="48.46135" lon="-4.66961">
        <ele>82.4</ele>
        <time>2025-09-25T15:34:00Z</time>
      </trkpt>
      <trkpt lat="48.46115" lon="-4.66967">
        <ele>81</ele>
        <time>2025-09-25T15:34:02Z</time>
      </trkpt>
      <trkpt lat="48.46104" lon="-4.6697">
        <ele>80.2</ele>
        <time>2025-09-25T15:34:03Z</time>
      </trkpt>
      <trkpt lat="48.46093" lon="-4.66974">
        <ele>79.2</ele>
        <time>2025-09-25T15:34:04Z</time>
      </trkpt>
      <trkpt lat="48.46071" lon="-4.66981">
        <ele>77.6</ele>
        <time>2025-09-25T15:34:06Z</time>
      </trkpt>
      <trkpt lat="48.46046" lon="-4.66988">
        <ele>76</ele>
        <time>2025-09-25T15:34:08Z</time>
      </trkpt>
      <trkpt lat="48.46034" lon="-4.66991">
        <ele>75.2</ele>
        <time>2025-09-25T15:34:09Z</time>
      </trkpt>
      <trkpt lat="48.46021" lon="-4.66994">
        <ele>74.4</ele>
        <time>2025-09-25T15:34:10Z</time>
      </trkpt>
      <trkpt lat="48.45996" lon="-4.67">
        <ele>73.2</ele>
        <time>2025-09-25T15:34:12Z</time>
      </trkpt>
      <trkpt lat="48.45971" lon="-4.67005">
        <ele>71.4</ele>
        <time>2025-09-25T15:34:14Z</time>
      </trkpt>
      <trkpt lat="48.45958" lon="-4.67007">
        <ele>70.2</ele>
        <time>2025-09-25T15:34:15Z</time>
      </trkpt>
      <trkpt lat="48.45946" lon="-4.67009">
        <ele>69</ele>
        <time>2025-09-25T15:34:16Z</time>
      </trkpt>
      <trkpt lat="48.45909" lon="-4.67007">
        <ele>67.8</ele>
        <time>2025-09-25T15:34:19Z</time>
      </trkpt>
      <trkpt lat="48.45897" lon="-4.67004">
        <ele>67.8</ele>
        <time>2025-09-25T15:34:20Z</time>
      </trkpt>
      <trkpt lat="48.45854" lon="-4.66991">
        <ele>66.8</ele>
        <time>2025-09-25T15:34:24Z</time>
      </trkpt>
      <trkpt lat="48.45844" lon="-4.6699">
        <ele>66.4</ele>
        <time>2025-09-25T15:34:25Z</time>
      </trkpt>
      <trkpt lat="48.45814" lon="-4.66991">
        <ele>66</ele>
        <time>2025-09-25T15:34:28Z</time>
      </trkpt>
      <trkpt lat="48.45804" lon="-4.66993">
        <ele>66.2</ele>
        <time>2025-09-25T15:34:29Z</time>
      </trkpt>
      <trkpt lat="48.45786" lon="-4.66996">
        <ele>66.8</ele>
        <time>2025-09-25T15:34:31Z</time>
      </trkpt>
      <trkpt lat="48.45759" lon="-4.67002">
        <ele>66.2</ele>
        <time>2025-09-25T15:34:34Z</time>
      </trkpt>
      <trkpt lat="48.4575" lon="-4.67003">
        <ele>65.8</ele>
        <time>2025-09-25T15:34:35Z</time>
      </trkpt>
      <trkpt lat="48.45732" lon="-4.67007">
        <ele>64.2</ele>
        <time>2025-09-25T15:34:37Z</time>
      </trkpt>
      <trkpt lat="48.45713" lon="-4.67009">
        <ele>62.4</ele>
        <time>2025-09-25T15:34:39Z</time>
      </trkpt>
      <trkpt lat="48.45703" lon="-4.67009">
        <ele>61.6</ele>
        <time>2025-09-25T15:34:40Z</time>
      </trkpt>
      <trkpt lat="48.45693" lon="-4.67009">
        <ele>60.6</ele>
        <time>2025-09-25T15:34:41Z</time>
      </trkpt>
      <trkpt lat="48.45683" lon="-4.67009">
        <ele>59.6</ele>
        <time>2025-09-25T15:34:42Z</time>
      </trkpt>
      <trkpt lat="48.45673" lon="-4.67008">
        <ele>58.6</ele>
        <time>2025-09-25T15:34:43Z</time>
      </trkpt>
      <trkpt lat="48.45654" lon="-4.67007">
        <ele>56.8</ele>
        <time>2025-09-25T15:34:45Z</time>
      </trkpt>
      <trkpt lat="48.45644" lon="-4.67006">
        <ele>56</ele>
        <time>2025-09-25T15:34:46Z</time>
      </trkpt>
      <trkpt lat="48.45635" lon="-4.67005">
        <ele>55.4</ele>
        <time>2025-09-25T15:34:47Z</time>
      </trkpt>
      <trkpt lat="48.45618" lon="-4.67004">
        <ele>53.6</ele>
        <time>2025-09-25T15:34:49Z</time>
      </trkpt>
      <trkpt lat="48.45603" lon="-4.67003">
        <ele>52</ele>
        <time>2025-09-25T15:34:51Z</time>
      </trkpt>
      <trkpt lat="48.45589" lon="-4.67002">
        <ele>50.6</ele>
        <time>2025-09-25T15:34:53Z</time>
      </trkpt>
      <trkpt lat="48.45576" lon="-4.67002">
        <ele>49.2</ele>
        <time>2025-09-25T15:34:55Z</time>
      </trkpt>
      <trkpt lat="48.45569" lon="-4.67003">
        <ele>48.4</ele>
        <time>2025-09-25T15:34:56Z</time>
      </trkpt>
      <trkpt lat="48.45564" lon="-4.67003">
        <ele>47.8</ele>
        <time>2025-09-25T15:34:57Z</time>
      </trkpt>
      <trkpt lat="48.45554" lon="-4.67002">
        <ele>46.6</ele>
        <time>2025-09-25T15:34:59Z</time>
      </trkpt>
      <trkpt lat="48.45545" lon="-4.67002">
        <ele>45.6</ele>
        <time>2025-09-25T15:35:01Z</time>
      </trkpt>
      <trkpt lat="48.45534" lon="-4.67003">
        <ele>44.2</ele>
        <time>2025-09-25T15:35:04Z</time>
      </trkpt>
      <trkpt lat="48.45527" lon="-4.67005">
        <ele>43.2</ele>
        <time>2025-09-25T15:35:07Z</time>
      </trkpt>
      <trkpt lat="48.4552" lon="-4.67004">
        <ele>42.4</ele>
        <time>2025-09-25T15:35:11Z</time>
      </trkpt>
      <trkpt lat="48.45518" lon="-4.67001">
        <ele>42.4</ele>
        <time>2025-09-25T15:35:12Z</time>
      </trkpt>
      <trkpt lat="48.45515" lon="-4.66996">
        <ele>42.2</ele>
        <time>2025-09-25T15:35:13Z</time>
      </trkpt>
      <trkpt lat="48.45513" lon="-4.6699">
        <ele>41.8</ele>
        <time>2025-09-25T15:35:14Z</time>
      </trkpt>
      <trkpt lat="48.45508" lon="-4.66967">
        <ele>41.2</ele>
        <time>2025-09-25T15:35:17Z</time>
      </trkpt>
      <trkpt lat="48.45507" lon="-4.66958">
        <ele>40.8</ele>
        <time>2025-09-25T15:35:18Z</time>
      </trkpt>
      <trkpt lat="48.45503" lon="-4.6694">
        <ele>40.2</ele>
        <time>2025-09-25T15:35:20Z</time>
      </trkpt>
      <trkpt lat="48.45497" lon="-4.66911">
        <ele>39</ele>
        <time>2025-09-25T15:35:23Z</time>
      </trkpt>
      <trkpt lat="48.45496" lon="-4.669">
        <ele>38.8</ele>
        <time>2025-09-25T15:35:24Z</time>
      </trkpt>
      <trkpt lat="48.45488" lon="-4.66856">
        <ele>37.6</ele>
        <time>2025-09-25T15:35:28Z</time>
      </trkpt>
      <trkpt lat="48.45484" lon="-4.66833">
        <ele>36.6</ele>
        <time>2025-09-25T15:35:30Z</time>
      </trkpt>
      <trkpt lat="48.45482" lon="-4.6682">
        <ele>36.4</ele>
        <time>2025-09-25T15:35:31Z</time>
      </trkpt>
      <trkpt lat="48.45472" lon="-4.66759">
        <ele>35.2</ele>
        <time>2025-09-25T15:35:36Z</time>
      </trkpt>
      <trkpt lat="48.45467" lon="-4.66722">
        <ele>33.8</ele>
        <time>2025-09-25T15:35:39Z</time>
      </trkpt>
      <trkpt lat="48.45465" lon="-4.66709">
        <ele>33.4</ele>
        <time>2025-09-25T15:35:40Z</time>
      </trkpt>
      <trkpt lat="48.45461" lon="-4.66682">
        <ele>32.8</ele>
        <time>2025-09-25T15:35:42Z</time>
      </trkpt>
      <trkpt lat="48.45453" lon="-4.66643">
        <ele>31.6</ele>
        <time>2025-09-25T15:35:45Z</time>
      </trkpt>
      <trkpt lat="48.45446" lon="-4.66602">
        <ele>30.4</ele>
        <time>2025-09-25T15:35:48Z</time>
      </trkpt>
      <trkpt lat="48.45442" lon="-4.66575">
        <ele>29.6</ele>
        <time>2025-09-25T15:35:50Z</time>
      </trkpt>
      <trkpt lat="48.45439" lon="-4.66561">
        <ele>29.2</ele>
        <time>2025-09-25T15:35:51Z</time>
      </trkpt>
      <trkpt lat="48.45433" lon="-4.66518">
        <ele>27.8</ele>
        <time>2025-09-25T15:35:54Z</time>
      </trkpt>
      <trkpt lat="48.45427" lon="-4.66477">
        <ele>26.8</ele>
        <time>2025-09-25T15:35:57Z</time>
      </trkpt>
      <trkpt lat="48.45425" lon="-4.66463">
        <ele>26.4</ele>
        <time>2025-09-25T15:35:58Z</time>
      </trkpt>
      <trkpt lat="48.45423" lon="-4.6645">
        <ele>26.6</ele>
        <time>2025-09-25T15:35:59Z</time>
      </trkpt>
      <trkpt lat="48.45415" lon="-4.66426">
        <ele>26.4</ele>
        <time>2025-09-25T15:36:01Z</time>
      </trkpt>
      <trkpt lat="48.45404" lon="-4.66405">
        <ele>26.4</ele>
        <time>2025-09-25T15:36:03Z</time>
      </trkpt>
      <trkpt lat="48.45392" lon="-4.66388">
        <ele>25.6</ele>
        <time>2025-09-25T15:36:05Z</time>
      </trkpt>
      <trkpt lat="48.45374" lon="-4.66365">
        <ele>25.4</ele>
        <time>2025-09-25T15:36:08Z</time>
      </trkpt>
      <trkpt lat="48.45341" lon="-4.66326">
        <ele>24.8</ele>
        <time>2025-09-25T15:36:14Z</time>
      </trkpt>
      <trkpt lat="48.45308" lon="-4.66285">
        <ele>25.2</ele>
        <time>2025-09-25T15:36:21Z</time>
      </trkpt>
      <trkpt lat="48.4529" lon="-4.6625">
        <ele>25.6</ele>
        <time>2025-09-25T15:36:26Z</time>
      </trkpt>
      <trkpt lat="48.45287" lon="-4.66242">
        <ele>25.6</ele>
        <time>2025-09-25T15:36:27Z</time>
      </trkpt>
      <trkpt lat="48.45279" lon="-4.66218">
        <ele>26</ele>
        <time>2025-09-25T15:36:30Z</time>
      </trkpt>
      <trkpt lat="48.45276" lon="-4.66211">
        <ele>26</ele>
        <time>2025-09-25T15:36:31Z</time>
      </trkpt>
      <trkpt lat="48.45268" lon="-4.662">
        <ele>26.2</ele>
        <time>2025-09-25T15:36:33Z</time>
      </trkpt>
      <trkpt lat="48.45264" lon="-4.66195">
        <ele>26.4</ele>
        <time>2025-09-25T15:36:34Z</time>
      </trkpt>
      <trkpt lat="48.45259" lon="-4.66191">
        <ele>26.4</ele>
        <time>2025-09-25T15:36:35Z</time>
      </trkpt>
      <trkpt lat="48.45254" lon="-4.66187">
        <ele>26.6</ele>
        <time>2025-09-25T15:36:36Z</time>
      </trkpt>
      <trkpt lat="48.45248" lon="-4.66185">
        <ele>26.6</ele>
        <time>2025-09-25T15:36:37Z</time>
      </trkpt>
      <trkpt lat="48.45243" lon="-4.66183">
        <ele>26.6</ele>
        <time>2025-09-25T15:36:38Z</time>
      </trkpt>
      <trkpt lat="48.45237" lon="-4.66182">
        <ele>26.6</ele>
        <time>2025-09-25T15:36:39Z</time>
      </trkpt>
      <trkpt lat="48.45188" lon="-4.66176">
        <ele>26.2</ele>
        <time>2025-09-25T15:36:47Z</time>
      </trkpt>
      <trkpt lat="48.45151" lon="-4.66181">
        <ele>25.8</ele>
        <time>2025-09-25T15:36:53Z</time>
      </trkpt>
      <trkpt lat="48.45102" lon="-4.66198">
        <ele>25.6</ele>
        <time>2025-09-25T15:37:01Z</time>
      </trkpt>
      <trkpt lat="48.45096" lon="-4.662">
        <ele>25.6</ele>
        <time>2025-09-25T15:37:02Z</time>
      </trkpt>
      <trkpt lat="48.45044" lon="-4.66218">
        <ele>26</ele>
        <time>2025-09-25T15:37:11Z</time>
      </trkpt>
      <trkpt lat="48.45033" lon="-4.66222">
        <ele>26</ele>
        <time>2025-09-25T15:37:13Z</time>
      </trkpt>
      <trkpt lat="48.45003" lon="-4.66231">
        <ele>26.6</ele>
        <time>2025-09-25T15:37:19Z</time>
      </trkpt>
      <trkpt lat="48.44997" lon="-4.66232">
        <ele>26.8</ele>
        <time>2025-09-25T15:37:20Z</time>
      </trkpt>
      <trkpt lat="48.44959" lon="-4.66236">
        <ele>27</ele>
        <time>2025-09-25T15:37:28Z</time>
      </trkpt>
      <trkpt lat="48.44928" lon="-4.66235">
        <ele>27.2</ele>
        <time>2025-09-25T15:37:35Z</time>
      </trkpt>
      <trkpt lat="48.44915" lon="-4.66234">
        <ele>27.6</ele>
        <time>2025-09-25T15:37:38Z</time>
      </trkpt>
      <trkpt lat="48.44884" lon="-4.66229">
        <ele>28</ele>
        <time>2025-09-25T15:37:45Z</time>
      </trkpt>
      <trkpt lat="48.44849" lon="-4.66218">
        <ele>28.4</ele>
        <time>2025-09-25T15:37:53Z</time>
      </trkpt>
      <trkpt lat="48.44836" lon="-4.66213">
        <ele>28.8</ele>
        <time>2025-09-25T15:37:56Z</time>
      </trkpt>
      <trkpt lat="48.44815" lon="-4.66203">
        <ele>28.8</ele>
        <time>2025-09-25T15:38:01Z</time>
      </trkpt>
      <trkpt lat="48.44789" lon="-4.66188">
        <ele>28.8</ele>
        <time>2025-09-25T15:38:07Z</time>
      </trkpt>
      <trkpt lat="48.44778" lon="-4.6618">
        <ele>29.2</ele>
        <time>2025-09-25T15:38:10Z</time>
      </trkpt>
      <trkpt lat="48.44762" lon="-4.66169">
        <ele>29.8</ele>
        <time>2025-09-25T15:38:14Z</time>
      </trkpt>
      <trkpt lat="48.44743" lon="-4.66152">
        <ele>30</ele>
        <time>2025-09-25T15:38:19Z</time>
      </trkpt>
      <trkpt lat="48.44714" lon="-4.66122">
        <ele>29.8</ele>
        <time>2025-09-25T15:38:26Z</time>
      </trkpt>
      <trkpt lat="48.44689" lon="-4.66092">
        <ele>29</ele>
        <time>2025-09-25T15:38:32Z</time>
      </trkpt>
      <trkpt lat="48.44682" lon="-4.66081">
        <ele>29.2</ele>
        <time>2025-09-25T15:38:34Z</time>
      </trkpt>
      <trkpt lat="48.44659" lon="-4.66043">
        <ele>28.8</ele>
        <time>2025-09-25T15:38:40Z</time>
      </trkpt>
      <trkpt lat="48.44648" lon="-4.66024">
        <ele>28.4</ele>
        <time>2025-09-25T15:38:43Z</time>
      </trkpt>
      <trkpt lat="48.44618" lon="-4.65968">
        <ele>28.4</ele>
        <time>2025-09-25T15:38:52Z</time>
      </trkpt>
      <trkpt lat="48.44601" lon="-4.65938">
        <ele>28.8</ele>
        <time>2025-09-25T15:38:57Z</time>
      </trkpt>
      <trkpt lat="48.44587" lon="-4.65914">
        <ele>28.6</ele>
        <time>2025-09-25T15:39:01Z</time>
      </trkpt>
      <trkpt lat="48.44551" lon="-4.65848">
        <ele>28.8</ele>
        <time>2025-09-25T15:39:12Z</time>
      </trkpt>
      <trkpt lat="48.44548" lon="-4.65842">
        <ele>28.8</ele>
        <time>2025-09-25T15:39:13Z</time>
      </trkpt>
      <trkpt lat="48.44544" lon="-4.65836">
        <ele>28.8</ele>
        <time>2025-09-25T15:39:14Z</time>
      </trkpt>
      <trkpt lat="48.44541" lon="-4.6583">
        <ele>28.6</ele>
        <time>2025-09-25T15:39:15Z</time>
      </trkpt>
      <trkpt lat="48.44538" lon="-4.65824">
        <ele>28.6</ele>
        <time>2025-09-25T15:39:16Z</time>
      </trkpt>
      <trkpt lat="48.44528" lon="-4.65806">
        <ele>28.6</ele>
        <time>2025-09-25T15:39:19Z</time>
      </trkpt>
      <trkpt lat="48.44518" lon="-4.65789">
        <ele>28.8</ele>
        <time>2025-09-25T15:39:22Z</time>
      </trkpt>
      <trkpt lat="48.44515" lon="-4.65783">
        <ele>29</ele>
        <time>2025-09-25T15:39:23Z</time>
      </trkpt>
      <trkpt lat="48.44482" lon="-4.65724">
        <ele>29.8</ele>
        <time>2025-09-25T15:39:33Z</time>
      </trkpt>
      <trkpt lat="48.44451" lon="-4.6567">
        <ele>30.2</ele>
        <time>2025-09-25T15:39:43Z</time>
      </trkpt>
      <trkpt lat="48.44446" lon="-4.65661">
        <ele>30.8</ele>
        <time>2025-09-25T15:39:45Z</time>
      </trkpt>
      <trkpt lat="48.44435" lon="-4.65641">
        <ele>32</ele>
        <time>2025-09-25T15:39:50Z</time>
      </trkpt>
      <trkpt lat="48.44433" lon="-4.65637">
        <ele>32</ele>
        <time>2025-09-25T15:39:51Z</time>
      </trkpt>
      <trkpt lat="48.44422" lon="-4.65611">
        <ele>33</ele>
        <time>2025-09-25T15:39:57Z</time>
      </trkpt>
      <trkpt lat="48.44413" lon="-4.65589">
        <ele>34</ele>
        <time>2025-09-25T15:40:02Z</time>
      </trkpt>
      <trkpt lat="48.44408" lon="-4.65576">
        <ele>34.2</ele>
        <time>2025-09-25T15:40:05Z</time>
      </trkpt>
      <trkpt lat="48.44396" lon="-4.6555">
        <ele>34.8</ele>
        <time>2025-09-25T15:40:11Z</time>
      </trkpt>
      <trkpt lat="48.4439" lon="-4.65537">
        <ele>35.2</ele>
        <time>2025-09-25T15:40:14Z</time>
      </trkpt>
      <trkpt lat="48.44383" lon="-4.65523">
        <ele>35.6</ele>
        <time>2025-09-25T15:40:17Z</time>
      </trkpt>
      <trkpt lat="48.44364" lon="-4.65487">
        <ele>35.8</ele>
        <time>2025-09-25T15:40:25Z</time>
      </trkpt>
      <trkpt lat="48.44341" lon="-4.65444">
        <ele>35.8</ele>
        <time>2025-09-25T15:40:34Z</time>
      </trkpt>
      <trkpt lat="48.44325" lon="-4.65417">
        <ele>35</ele>
        <time>2025-09-25T15:40:39Z</time>
      </trkpt>
      <trkpt lat="48.44322" lon="-4.6541">
        <ele>34.8</ele>
        <time>2025-09-25T15:40:40Z</time>
      </trkpt>
      <trkpt lat="48.44313" lon="-4.65388">
        <ele>33.8</ele>
        <time>2025-09-25T15:40:43Z</time>
      </trkpt>
      <trkpt lat="48.44307" lon="-4.65371">
        <ele>33.4</ele>
        <time>2025-09-25T15:40:45Z</time>
      </trkpt>
      <trkpt lat="48.44301" lon="-4.65353">
        <ele>32.6</ele>
        <time>2025-09-25T15:40:47Z</time>
      </trkpt>
      <trkpt lat="48.44286" lon="-4.65306">
        <ele>31.6</ele>
        <time>2025-09-25T15:40:52Z</time>
      </trkpt>
      <trkpt lat="48.44283" lon="-4.65296">
        <ele>31.2</ele>
        <time>2025-09-25T15:40:53Z</time>
      </trkpt>
      <trkpt lat="48.44269" lon="-4.65257">
        <ele>30.6</ele>
        <time>2025-09-25T15:40:57Z</time>
      </trkpt>
      <trkpt lat="48.44266" lon="-4.65247">
        <ele>30.4</ele>
        <time>2025-09-25T15:40:58Z</time>
      </trkpt>
      <trkpt lat="48.44261" lon="-4.65227">
        <ele>30.2</ele>
        <time>2025-09-25T15:41:00Z</time>
      </trkpt>
      <trkpt lat="48.44256" lon="-4.65199">
        <ele>30.2</ele>
        <time>2025-09-25T15:41:03Z</time>
      </trkpt>
      <trkpt lat="48.44252" lon="-4.65176">
        <ele>30.2</ele>
        <time>2025-09-25T15:41:06Z</time>
      </trkpt>
      <trkpt lat="48.44251" lon="-4.6517">
        <ele>30.4</ele>
        <time>2025-09-25T15:41:07Z</time>
      </trkpt>
      <trkpt lat="48.44253" lon="-4.65164">
        <ele>30.8</ele>
        <time>2025-09-25T15:41:09Z</time>
      </trkpt>
      <trkpt lat="48.44254" lon="-4.65162">
        <ele>30.8</ele>
        <time>2025-09-25T15:41:10Z</time>
      </trkpt>
      <trkpt lat="48.44263" lon="-4.65152">
        <ele>31</ele>
        <time>2025-09-25T15:41:16Z</time>
      </trkpt>
      <trkpt lat="48.44257" lon="-4.65139">
        <ele>30.8</ele>
        <time>2025-09-25T15:41:20Z</time>
      </trkpt>
      <trkpt lat="48.44246" lon="-4.65115">
        <ele>30.8</ele>
        <time>2025-09-25T15:41:26Z</time>
      </trkpt>
      <trkpt lat="48.44235" lon="-4.65093">
        <ele>30.8</ele>
        <time>2025-09-25T15:41:31Z</time>
      </trkpt>
      <trkpt lat="48.44217" lon="-4.65056">
        <ele>30</ele>
        <time>2025-09-25T15:41:38Z</time>
      </trkpt>
      <trkpt lat="48.442" lon="-4.65022">
        <ele>30.2</ele>
        <time>2025-09-25T15:41:45Z</time>
      </trkpt>
      <trkpt lat="48.44183" lon="-4.64984">
        <ele>30.6</ele>
        <time>2025-09-25T15:41:53Z</time>
      </trkpt>
      <trkpt lat="48.44167" lon="-4.64952">
        <ele>30.6</ele>
        <time>2025-09-25T15:42:00Z</time>
      </trkpt>
      <trkpt lat="48.44153" lon="-4.64923">
        <ele>30.8</ele>
        <time>2025-09-25T15:42:06Z</time>
      </trkpt>
      <trkpt lat="48.4415" lon="-4.64919">
        <ele>30.8</ele>
        <time>2025-09-25T15:42:07Z</time>
      </trkpt>
      <trkpt lat="48.4414" lon="-4.64897">
        <ele>30.8</ele>
        <time>2025-09-25T15:42:12Z</time>
      </trkpt>
      <trkpt lat="48.44123" lon="-4.6486">
        <ele>31</ele>
        <time>2025-09-25T15:42:19Z</time>
      </trkpt>
      <trkpt lat="48.44112" lon="-4.64834">
        <ele>31</ele>
        <time>2025-09-25T15:42:24Z</time>
      </trkpt>
      <trkpt lat="48.44094" lon="-4.64799">
        <ele>31</ele>
        <time>2025-09-25T15:42:31Z</time>
      </trkpt>
      <trkpt lat="48.44082" lon="-4.64777">
        <ele>31.2</ele>
        <time>2025-09-25T15:42:36Z</time>
      </trkpt>
      <trkpt lat="48.4408" lon="-4.64772">
        <ele>31.2</ele>
        <time>2025-09-25T15:42:37Z</time>
      </trkpt>
      <trkpt lat="48.44064" lon="-4.64744">
        <ele>31.2</ele>
        <time>2025-09-25T15:42:43Z</time>
      </trkpt>
      <trkpt lat="48.44059" lon="-4.64733">
        <ele>31.2</ele>
        <time>2025-09-25T15:42:45Z</time>
      </trkpt>
      <trkpt lat="48.44054" lon="-4.6471">
        <ele>30.2</ele>
        <time>2025-09-25T15:42:49Z</time>
      </trkpt>
      <trkpt lat="48.44054" lon="-4.64704">
        <ele>30</ele>
        <time>2025-09-25T15:42:50Z</time>
      </trkpt>
      <trkpt lat="48.4406" lon="-4.64687">
        <ele>29.8</ele>
        <time>2025-09-25T15:42:53Z</time>
      </trkpt>
      <trkpt lat="48.44077" lon="-4.64642">
        <ele>30.4</ele>
        <time>2025-09-25T15:43:01Z</time>
      </trkpt>
      <trkpt lat="48.44083" lon="-4.64618">
        <ele>30.4</ele>
        <time>2025-09-25T15:43:05Z</time>
      </trkpt>
      <trkpt lat="48.44085" lon="-4.64599">
        <ele>30.8</ele>
        <time>2025-09-25T15:43:08Z</time>
      </trkpt>
      <trkpt lat="48.44085" lon="-4.64586">
        <ele>31</ele>
        <time>2025-09-25T15:43:10Z</time>
      </trkpt>
      <trkpt lat="48.44085" lon="-4.64547">
        <ele>31</ele>
        <time>2025-09-25T15:43:17Z</time>
      </trkpt>
      <trkpt lat="48.4408" lon="-4.64534">
        <ele>31.6</ele>
        <time>2025-09-25T15:43:21Z</time>
      </trkpt>
      <trkpt lat="48.4407" lon="-4.64532">
        <ele>32</ele>
        <time>2025-09-25T15:43:26Z</time>
      </trkpt>
      <trkpt lat="48.44051" lon="-4.64531">
        <ele>32</ele>
        <time>2025-09-25T15:43:34Z</time>
      </trkpt>
      <trkpt lat="48.44045" lon="-4.64532">
        <ele>32.2</ele>
        <time>2025-09-25T15:43:37Z</time>
      </trkpt>
      <trkpt lat="48.44041" lon="-4.64531">
        <ele>32.2</ele>
        <time>2025-09-25T15:43:40Z</time>
      </trkpt>
      <trkpt lat="48.44031" lon="-4.64533">
        <ele>32</ele>
        <time>2025-09-25T15:43:45Z</time>
      </trkpt>
      <trkpt lat="48.44023" lon="-4.64534">
        <ele>32</ele>
        <time>2025-09-25T15:43:49Z</time>
      </trkpt>
      <trkpt lat="48.44021" lon="-4.64534">
        <ele>32</ele>
        <time>2025-09-25T15:43:51Z</time>
      </trkpt>
      <trkpt lat="48.4402" lon="-4.64534">
        <ele>32.2</ele>
        <time>2025-09-25T15:43:52Z</time>
      </trkpt>
      <trkpt lat="48.4402" lon="-4.64534">
        <ele>32.2</ele>
        <time>2025-09-25T15:43:53Z</time>
      </trkpt>
      <trkpt lat="48.4402" lon="-4.6453">
        <ele>32</ele>
        <time>2025-09-25T15:44:25Z</time>
      </trkpt>
      <trkpt lat="48.44021" lon="-4.64527">
        <ele>31.8</ele>
        <time>2025-09-25T15:44:26Z</time>
      </trkpt>
      <trkpt lat="48.44023" lon="-4.64527">
        <ele>31.6</ele>
        <time>2025-09-25T15:44:27Z</time>
      </trkpt>
      <trkpt lat="48.44037" lon="-4.64531">
        <ele>31.2</ele>
        <time>2025-09-25T15:44:32Z</time>
      </trkpt>
      <trkpt lat="48.4404" lon="-4.64531">
        <ele>31</ele>
        <time>2025-09-25T15:44:33Z</time>
      </trkpt>
      <trkpt lat="48.44048" lon="-4.6453">
        <ele>31</ele>
        <time>2025-09-25T15:44:35Z</time>
      </trkpt>
      <trkpt lat="48.44064" lon="-4.64531">
        <ele>30.4</ele>
        <time>2025-09-25T15:44:39Z</time>
      </trkpt>
      <trkpt lat="48.44078" lon="-4.64527">
        <ele>30.8</ele>
        <time>2025-09-25T15:44:44Z</time>
      </trkpt>
      <trkpt lat="48.44076" lon="-4.64515">
        <ele>31.2</ele>
        <time>2025-09-25T15:44:47Z</time>
      </trkpt>
      <trkpt lat="48.44072" lon="-4.6448">
        <ele>30.4</ele>
        <time>2025-09-25T15:44:53Z</time>
      </trkpt>
      <trkpt lat="48.4407" lon="-4.64462">
        <ele>30.6</ele>
        <time>2025-09-25T15:44:56Z</time>
      </trkpt>
      <trkpt lat="48.4407" lon="-4.6445">
        <ele>30.6</ele>
        <time>2025-09-25T15:44:58Z</time>
      </trkpt>
      <trkpt lat="48.44068" lon="-4.64409">
        <ele>30.4</ele>
        <time>2025-09-25T15:45:04Z</time>
      </trkpt>
      <trkpt lat="48.44066" lon="-4.64365">
        <ele>30.4</ele>
        <time>2025-09-25T15:45:11Z</time>
      </trkpt>
      <trkpt lat="48.44066" lon="-4.64359">
        <ele>30.4</ele>
        <time>2025-09-25T15:45:12Z</time>
      </trkpt>
      <trkpt lat="48.44064" lon="-4.64335">
        <ele>30.8</ele>
        <time>2025-09-25T15:45:16Z</time>
      </trkpt>
      <trkpt lat="48.44062" lon="-4.64304">
        <ele>30.8</ele>
        <time>2025-09-25T15:45:22Z</time>
      </trkpt>
      <trkpt lat="48.4406" lon="-4.64283">
        <ele>31.2</ele>
        <time>2025-09-25T15:45:27Z</time>
      </trkpt>
      <trkpt lat="48.44063" lon="-4.64257">
        <ele>30.6</ele>
        <time>2025-09-25T15:45:32Z</time>
      </trkpt>
      <trkpt lat="48.44077" lon="-4.64245">
        <ele>30.4</ele>
        <time>2025-09-25T15:45:36Z</time>
      </trkpt>
      <trkpt lat="48.44089" lon="-4.64238">
        <ele>29.8</ele>
        <time>2025-09-25T15:45:39Z</time>
      </trkpt>
      <trkpt lat="48.44092" lon="-4.64233">
        <ele>29.6</ele>
        <time>2025-09-25T15:45:40Z</time>
      </trkpt>
      <trkpt lat="48.44095" lon="-4.64228">
        <ele>29.6</ele>
        <time>2025-09-25T15:45:41Z</time>
      </trkpt>
      <trkpt lat="48.44096" lon="-4.64216">
        <ele>29.8</ele>
        <time>2025-09-25T15:45:43Z</time>
      </trkpt>
      <trkpt lat="48.44097" lon="-4.6421">
        <ele>29.8</ele>
        <time>2025-09-25T15:45:44Z</time>
      </trkpt>
      <trkpt lat="48.44098" lon="-4.6418">
        <ele>30</ele>
        <time>2025-09-25T15:45:49Z</time>
      </trkpt>
      <trkpt lat="48.44101" lon="-4.64163">
        <ele>30</ele>
        <time>2025-09-25T15:45:52Z</time>
      </trkpt>
      <trkpt lat="48.44101" lon="-4.64151">
        <ele>30.2</ele>
        <time>2025-09-25T15:45:54Z</time>
      </trkpt>
      <trkpt lat="48.44099" lon="-4.64145">
        <ele>30.2</ele>
        <time>2025-09-25T15:45:55Z</time>
      </trkpt>
      <trkpt lat="48.44097" lon="-4.64139">
        <ele>30.2</ele>
        <time>2025-09-25T15:45:56Z</time>
      </trkpt>
      <trkpt lat="48.44092" lon="-4.64129">
        <ele>30.2</ele>
        <time>2025-09-25T15:45:58Z</time>
      </trkpt>
      <trkpt lat="48.44089" lon="-4.64126">
        <ele>30.4</ele>
        <time>2025-09-25T15:45:59Z</time>
      </trkpt>
      <trkpt lat="48.44074" lon="-4.64113">
        <ele>30</ele>
        <time>2025-09-25T15:46:03Z</time>
      </trkpt>
      <trkpt lat="48.44071" lon="-4.64101">
        <ele>29.6</ele>
        <time>2025-09-25T15:46:05Z</time>
      </trkpt>
      <trkpt lat="48.44075" lon="-4.64083">
        <ele>29.6</ele>
        <time>2025-09-25T15:46:08Z</time>
      </trkpt>
      <trkpt lat="48.44092" lon="-4.64051">
        <ele>30</ele>
        <time>2025-09-25T15:46:15Z</time>
      </trkpt>
      <trkpt lat="48.44097" lon="-4.64042">
        <ele>30</ele>
        <time>2025-09-25T15:46:17Z</time>
      </trkpt>
      <trkpt lat="48.44099" lon="-4.64024">
        <ele>29.6</ele>
        <time>2025-09-25T15:46:20Z</time>
      </trkpt>
      <trkpt lat="48.44096" lon="-4.63992">
        <ele>30.4</ele>
        <time>2025-09-25T15:46:26Z</time>
      </trkpt>
      <trkpt lat="48.44098" lon="-4.63947">
        <ele>30.4</ele>
        <time>2025-09-25T15:46:34Z</time>
      </trkpt>
      <trkpt lat="48.44101" lon="-4.63917">
        <ele>30.4</ele>
        <time>2025-09-25T15:46:40Z</time>
      </trkpt>
      <trkpt lat="48.44096" lon="-4.63885">
        <ele>30.4</ele>
        <time>2025-09-25T15:46:46Z</time>
      </trkpt>
      <trkpt lat="48.44084" lon="-4.63865">
        <ele>30.2</ele>
        <time>2025-09-25T15:46:51Z</time>
      </trkpt>
      <trkpt lat="48.44067" lon="-4.63846">
        <ele>30.4</ele>
        <time>2025-09-25T15:46:57Z</time>
      </trkpt>
      <trkpt lat="48.44062" lon="-4.63817">
        <ele>30.6</ele>
        <time>2025-09-25T15:47:03Z</time>
      </trkpt>
      <trkpt lat="48.44049" lon="-4.63798">
        <ele>30.6</ele>
        <time>2025-09-25T15:47:08Z</time>
      </trkpt>
      <trkpt lat="48.44026" lon="-4.6379">
        <ele>30.4</ele>
        <time>2025-09-25T15:47:14Z</time>
      </trkpt>
      <trkpt lat="48.44013" lon="-4.63788">
        <ele>30.6</ele>
        <time>2025-09-25T15:47:19Z</time>
      </trkpt>
      <trkpt lat="48.44013" lon="-4.63788">
        <ele>30.8</ele>
        <time>2025-09-25T15:47:20Z</time>
      </trkpt>
      <trkpt lat="48.44012" lon="-4.63787">
        <ele>31</ele>
        <time>2025-09-25T15:47:54Z</time>
      </trkpt>
      <trkpt lat="48.44007" lon="-4.63785">
        <ele>30.8</ele>
        <time>2025-09-25T15:47:57Z</time>
      </trkpt>
      <trkpt lat="48.43997" lon="-4.63768">
        <ele>30.8</ele>
        <time>2025-09-25T15:48:02Z</time>
      </trkpt>
      <trkpt lat="48.43995" lon="-4.63765">
        <ele>30.8</ele>
        <time>2025-09-25T15:48:03Z</time>
      </trkpt>
      <trkpt lat="48.43976" lon="-4.63737">
        <ele>30.8</ele>
        <time>2025-09-25T15:48:11Z</time>
      </trkpt>
      <trkpt lat="48.43955" lon="-4.6371">
        <ele>30.6</ele>
        <time>2025-09-25T15:48:18Z</time>
      </trkpt>
      <trkpt lat="48.43952" lon="-4.63705">
        <ele>30.4</ele>
        <time>2025-09-25T15:48:19Z</time>
      </trkpt>
      <trkpt lat="48.43938" lon="-4.63669">
        <ele>30.6</ele>
        <time>2025-09-25T15:48:26Z</time>
      </trkpt>
      <trkpt lat="48.4394" lon="-4.63646">
        <ele>30.4</ele>
        <time>2025-09-25T15:48:30Z</time>
      </trkpt>
      <trkpt lat="48.43945" lon="-4.6361">
        <ele>30.2</ele>
        <time>2025-09-25T15:48:36Z</time>
      </trkpt>
      <trkpt lat="48.43943" lon="-4.63598">
        <ele>30.2</ele>
        <time>2025-09-25T15:48:38Z</time>
      </trkpt>
      <trkpt lat="48.43941" lon="-4.63593">
        <ele>30.2</ele>
        <time>2025-09-25T15:48:39Z</time>
      </trkpt>
      <trkpt lat="48.43936" lon="-4.63582">
        <ele>30.2</ele>
        <time>2025-09-25T15:48:41Z</time>
      </trkpt>
      <trkpt lat="48.43933" lon="-4.63578">
        <ele>30.2</ele>
        <time>2025-09-25T15:48:42Z</time>
      </trkpt>
      <trkpt lat="48.43923" lon="-4.63571">
        <ele>30.6</ele>
        <time>2025-09-25T15:48:45Z</time>
      </trkpt>
      <trkpt lat="48.43916" lon="-4.63566">
        <ele>30.8</ele>
        <time>2025-09-25T15:48:47Z</time>
      </trkpt>
      <trkpt lat="48.43898" lon="-4.63554">
        <ele>30.8</ele>
        <time>2025-09-25T15:48:52Z</time>
      </trkpt>
      <trkpt lat="48.4389" lon="-4.6354">
        <ele>31</ele>
        <time>2025-09-25T15:48:55Z</time>
      </trkpt>
      <trkpt lat="48.43887" lon="-4.63531">
        <ele>31.2</ele>
        <time>2025-09-25T15:48:57Z</time>
      </trkpt>
      <trkpt lat="48.43873" lon="-4.635">
        <ele>31</ele>
        <time>2025-09-25T15:49:04Z</time>
      </trkpt>
      <trkpt lat="48.43863" lon="-4.63475">
        <ele>30.8</ele>
        <time>2025-09-25T15:49:09Z</time>
      </trkpt>
      <trkpt lat="48.4386" lon="-4.6345">
        <ele>30.8</ele>
        <time>2025-09-25T15:49:14Z</time>
      </trkpt>
      <trkpt lat="48.43868" lon="-4.63433">
        <ele>30.8</ele>
        <time>2025-09-25T15:49:18Z</time>
      </trkpt>
      <trkpt lat="48.43878" lon="-4.6342">
        <ele>30.8</ele>
        <time>2025-09-25T15:49:22Z</time>
      </trkpt>
      <trkpt lat="48.43887" lon="-4.6341">
        <ele>31.6</ele>
        <time>2025-09-25T15:49:27Z</time>
      </trkpt>
      <trkpt lat="48.43898" lon="-4.63402">
        <ele>32</ele>
        <time>2025-09-25T15:49:32Z</time>
      </trkpt>
      <trkpt lat="48.43901" lon="-4.63399">
        <ele>32</ele>
        <time>2025-09-25T15:49:33Z</time>
      </trkpt>
      <trkpt lat="48.43917" lon="-4.63382">
        <ele>32.2</ele>
        <time>2025-09-25T15:49:39Z</time>
      </trkpt>
      <trkpt lat="48.43936" lon="-4.63373">
        <ele>32.4</ele>
        <time>2025-09-25T15:49:45Z</time>
      </trkpt>
      <trkpt lat="48.43939" lon="-4.63371">
        <ele>32.4</ele>
        <time>2025-09-25T15:49:46Z</time>
      </trkpt>
      <trkpt lat="48.43947" lon="-4.6336">
        <ele>32.6</ele>
        <time>2025-09-25T15:49:50Z</time>
      </trkpt>
      <trkpt lat="48.43948" lon="-4.63356">
        <ele>32.4</ele>
        <time>2025-09-25T15:49:51Z</time>
      </trkpt>
      <trkpt lat="48.43961" lon="-4.63326">
        <ele>32</ele>
        <time>2025-09-25T15:49:58Z</time>
      </trkpt>
      <trkpt lat="48.43972" lon="-4.63303">
        <ele>31.8</ele>
        <time>2025-09-25T15:50:03Z</time>
      </trkpt>
      <trkpt lat="48.43984" lon="-4.63276">
        <ele>32</ele>
        <time>2025-09-25T15:50:09Z</time>
      </trkpt>
      <trkpt lat="48.43995" lon="-4.63252">
        <ele>32.4</ele>
        <time>2025-09-25T15:50:15Z</time>
      </trkpt>
      <trkpt lat="48.43997" lon="-4.63238">
        <ele>32.6</ele>
        <time>2025-09-25T15:50:18Z</time>
      </trkpt>
      <trkpt lat="48.43995" lon="-4.63234">
        <ele>32.6</ele>
        <time>2025-09-25T15:50:19Z</time>
      </trkpt>
      <trkpt lat="48.43993" lon="-4.63231">
        <ele>32.6</ele>
        <time>2025-09-25T15:50:20Z</time>
      </trkpt>
      <trkpt lat="48.43989" lon="-4.63225">
        <ele>32.6</ele>
        <time>2025-09-25T15:50:22Z</time>
      </trkpt>
      <trkpt lat="48.43987" lon="-4.63222">
        <ele>32.6</ele>
        <time>2025-09-25T15:50:23Z</time>
      </trkpt>
      <trkpt lat="48.43969" lon="-4.63204">
        <ele>33</ele>
        <time>2025-09-25T15:50:30Z</time>
      </trkpt>
      <trkpt lat="48.43954" lon="-4.63187">
        <ele>33</ele>
        <time>2025-09-25T15:50:36Z</time>
      </trkpt>
      <trkpt lat="48.43947" lon="-4.63179">
        <ele>33.2</ele>
        <time>2025-09-25T15:50:39Z</time>
      </trkpt>
      <trkpt lat="48.43932" lon="-4.63162">
        <ele>33.8</ele>
        <time>2025-09-25T15:50:46Z</time>
      </trkpt>
      <trkpt lat="48.43925" lon="-4.63159">
        <ele>33.8</ele>
        <time>2025-09-25T15:50:51Z</time>
      </trkpt>
      <trkpt lat="48.43925" lon="-4.6316">
        <ele>33.8</ele>
        <time>2025-09-25T15:50:52Z</time>
      </trkpt>
      <trkpt lat="48.43927" lon="-4.63164">
        <ele>33.8</ele>
        <time>2025-09-25T15:50:55Z</time>
      </trkpt>
      <trkpt lat="48.43927" lon="-4.6317">
        <ele>33.8</ele>
        <time>2025-09-25T15:50:57Z</time>
      </trkpt>
      <trkpt lat="48.4392" lon="-4.63179">
        <ele>33.8</ele>
        <time>2025-09-25T15:51:03Z</time>
      </trkpt>
      <trkpt lat="48.43907" lon="-4.63175">
        <ele>33.6</ele>
        <time>2025-09-25T15:51:08Z</time>
      </trkpt>
      <trkpt lat="48.43888" lon="-4.6316">
        <ele>33</ele>
        <time>2025-09-25T15:51:15Z</time>
      </trkpt>
      <trkpt lat="48.43876" lon="-4.63148">
        <ele>33.2</ele>
        <time>2025-09-25T15:51:20Z</time>
      </trkpt>
      <trkpt lat="48.43864" lon="-4.63118">
        <ele>33.4</ele>
        <time>2025-09-25T15:51:28Z</time>
      </trkpt>
      <trkpt lat="48.43856" lon="-4.63112">
        <ele>33.4</ele>
        <time>2025-09-25T15:51:31Z</time>
      </trkpt>
      <trkpt lat="48.43853" lon="-4.63115">
        <ele>33.2</ele>
        <time>2025-09-25T15:51:32Z</time>
      </trkpt>
      <trkpt lat="48.43841" lon="-4.63117">
        <ele>33</ele>
        <time>2025-09-25T15:51:36Z</time>
      </trkpt>
      <trkpt lat="48.43838" lon="-4.6312">
        <ele>32.8</ele>
        <time>2025-09-25T15:51:37Z</time>
      </trkpt>
      <trkpt lat="48.43833" lon="-4.63128">
        <ele>32.8</ele>
        <time>2025-09-25T15:51:39Z</time>
      </trkpt>
      <trkpt lat="48.43819" lon="-4.6315">
        <ele>32.6</ele>
        <time>2025-09-25T15:51:45Z</time>
      </trkpt>
      <trkpt lat="48.43817" lon="-4.63153">
        <ele>32.6</ele>
        <time>2025-09-25T15:51:46Z</time>
      </trkpt>
      <trkpt lat="48.43799" lon="-4.63183">
        <ele>33.4</ele>
        <time>2025-09-25T15:51:54Z</time>
      </trkpt>
      <trkpt lat="48.43788" lon="-4.63206">
        <ele>32.4</ele>
        <time>2025-09-25T15:52:00Z</time>
      </trkpt>
      <trkpt lat="48.43774" lon="-4.63219">
        <ele>32.8</ele>
        <time>2025-09-25T15:52:05Z</time>
      </trkpt>
      <trkpt lat="48.43766" lon="-4.63208">
        <ele>32.4</ele>
        <time>2025-09-25T15:52:09Z</time>
      </trkpt>
      <trkpt lat="48.43756" lon="-4.63198">
        <ele>32.2</ele>
        <time>2025-09-25T15:52:14Z</time>
      </trkpt>
      <trkpt lat="48.43753" lon="-4.63198">
        <ele>32.2</ele>
        <time>2025-09-25T15:52:18Z</time>
      </trkpt>
      <trkpt lat="48.43748" lon="-4.63201">
        <ele>32.2</ele>
        <time>2025-09-25T15:52:20Z</time>
      </trkpt>
      <trkpt lat="48.43745" lon="-4.632">
        <ele>32.2</ele>
        <time>2025-09-25T15:52:21Z</time>
      </trkpt>
      <trkpt lat="48.43742" lon="-4.63192">
        <ele>32</ele>
        <time>2025-09-25T15:52:23Z</time>
      </trkpt>
      <trkpt lat="48.43735" lon="-4.63162">
        <ele>31.8</ele>
        <time>2025-09-25T15:52:29Z</time>
      </trkpt>
      <trkpt lat="48.43726" lon="-4.63127">
        <ele>32</ele>
        <time>2025-09-25T15:52:36Z</time>
      </trkpt>
      <trkpt lat="48.4372" lon="-4.631">
        <ele>32.4</ele>
        <time>2025-09-25T15:52:41Z</time>
      </trkpt>
      <trkpt lat="48.43713" lon="-4.63072">
        <ele>32</ele>
        <time>2025-09-25T15:52:46Z</time>
      </trkpt>
      <trkpt lat="48.43707" lon="-4.63045">
        <ele>31.8</ele>
        <time>2025-09-25T15:52:52Z</time>
      </trkpt>
      <trkpt lat="48.43697" lon="-4.62999">
        <ele>32</ele>
        <time>2025-09-25T15:53:01Z</time>
      </trkpt>
      <trkpt lat="48.4369" lon="-4.62968">
        <ele>32.2</ele>
        <time>2025-09-25T15:53:07Z</time>
      </trkpt>
      <trkpt lat="48.43684" lon="-4.62946">
        <ele>32</ele>
        <time>2025-09-25T15:53:11Z</time>
      </trkpt>
      <trkpt lat="48.4368" lon="-4.62929">
        <ele>32</ele>
        <time>2025-09-25T15:53:14Z</time>
      </trkpt>
      <trkpt lat="48.43679" lon="-4.62923">
        <ele>32</ele>
        <time>2025-09-25T15:53:15Z</time>
      </trkpt>
      <trkpt lat="48.43678" lon="-4.62917">
        <ele>32.2</ele>
        <time>2025-09-25T15:53:16Z</time>
      </trkpt>
      <trkpt lat="48.43674" lon="-4.629">
        <ele>32.4</ele>
        <time>2025-09-25T15:53:19Z</time>
      </trkpt>
      <trkpt lat="48.43671" lon="-4.62889">
        <ele>32.2</ele>
        <time>2025-09-25T15:53:21Z</time>
      </trkpt>
      <trkpt lat="48.43655" lon="-4.6283">
        <ele>32</ele>
        <time>2025-09-25T15:53:32Z</time>
      </trkpt>
      <trkpt lat="48.43645" lon="-4.62788">
        <ele>32</ele>
        <time>2025-09-25T15:53:40Z</time>
      </trkpt>
      <trkpt lat="48.43642" lon="-4.62773">
        <ele>32.4</ele>
        <time>2025-09-25T15:53:43Z</time>
      </trkpt>
      <trkpt lat="48.43633" lon="-4.62738">
        <ele>33</ele>
        <time>2025-09-25T15:53:50Z</time>
      </trkpt>
      <trkpt lat="48.43631" lon="-4.62733">
        <ele>33.2</ele>
        <time>2025-09-25T15:53:51Z</time>
      </trkpt>
      <trkpt lat="48.43618" lon="-4.62704">
        <ele>32.6</ele>
        <time>2025-09-25T15:53:58Z</time>
      </trkpt>
      <trkpt lat="48.4361" lon="-4.62685">
        <ele>33.4</ele>
        <time>2025-09-25T15:54:03Z</time>
      </trkpt>
      <trkpt lat="48.4361" lon="-4.62679">
        <ele>34.2</ele>
        <time>2025-09-25T15:54:06Z</time>
      </trkpt>
      <trkpt lat="48.4361" lon="-4.62675">
        <ele>34.2</ele>
        <time>2025-09-25T15:54:08Z</time>
      </trkpt>
      <trkpt lat="48.43618" lon="-4.62672">
        <ele>33.8</ele>
        <time>2025-09-25T15:54:13Z</time>
      </trkpt>
      <trkpt lat="48.43627" lon="-4.62677">
        <ele>33.8</ele>
        <time>2025-09-25T15:54:19Z</time>
      </trkpt>
      <trkpt lat="48.43633" lon="-4.62675">
        <ele>33.8</ele>
        <time>2025-09-25T15:54:23Z</time>
      </trkpt>
      <trkpt lat="48.43634" lon="-4.62673">
        <ele>33.8</ele>
        <time>2025-09-25T15:54:24Z</time>
      </trkpt>
      <trkpt lat="48.43637" lon="-4.62653">
        <ele>33.6</ele>
        <time>2025-09-25T15:54:31Z</time>
      </trkpt>
      <trkpt lat="48.43639" lon="-4.62642">
        <ele>33</ele>
        <time>2025-09-25T15:54:35Z</time>
      </trkpt>
      <trkpt lat="48.43639" lon="-4.62639">
        <ele>32.8</ele>
        <time>2025-09-25T15:54:36Z</time>
      </trkpt>
      <trkpt lat="48.4364" lon="-4.62612">
        <ele>33</ele>
        <time>2025-09-25T15:54:42Z</time>
      </trkpt>
      <trkpt lat="48.43641" lon="-4.62586">
        <ele>32.6</ele>
        <time>2025-09-25T15:54:49Z</time>
      </trkpt>
      <trkpt lat="48.43641" lon="-4.62578">
        <ele>32.6</ele>
        <time>2025-09-25T15:54:51Z</time>
      </trkpt>
      <trkpt lat="48.43645" lon="-4.62562">
        <ele>32.8</ele>
        <time>2025-09-25T15:54:57Z</time>
      </trkpt>
      <trkpt lat="48.4365" lon="-4.62545">
        <ele>32.8</ele>
        <time>2025-09-25T15:55:03Z</time>
      </trkpt>
      <trkpt lat="48.43653" lon="-4.6253">
        <ele>32.8</ele>
        <time>2025-09-25T15:55:08Z</time>
      </trkpt>
      <trkpt lat="48.43655" lon="-4.62508">
        <ele>32.4</ele>
        <time>2025-09-25T15:55:15Z</time>
      </trkpt>
      <trkpt lat="48.43657" lon="-4.62487">
        <ele>32</ele>
        <time>2025-09-25T15:55:21Z</time>
      </trkpt>
      <trkpt lat="48.43661" lon="-4.62455">
        <ele>31.8</ele>
        <time>2025-09-25T15:55:28Z</time>
      </trkpt>
      <trkpt lat="48.43662" lon="-4.62445">
        <ele>31.4</ele>
        <time>2025-09-25T15:55:30Z</time>
      </trkpt>
      <trkpt lat="48.43665" lon="-4.62414">
        <ele>31.2</ele>
        <time>2025-09-25T15:55:35Z</time>
      </trkpt>
      <trkpt lat="48.43666" lon="-4.62407">
        <ele>31.2</ele>
        <time>2025-09-25T15:55:36Z</time>
      </trkpt>
      <trkpt lat="48.43666" lon="-4.62394">
        <ele>30.6</ele>
        <time>2025-09-25T15:55:38Z</time>
      </trkpt>
      <trkpt lat="48.43663" lon="-4.62352">
        <ele>31</ele>
        <time>2025-09-25T15:55:44Z</time>
      </trkpt>
      <trkpt lat="48.43651" lon="-4.62304">
        <ele>31</ele>
        <time>2025-09-25T15:55:51Z</time>
      </trkpt>
      <trkpt lat="48.43649" lon="-4.62297">
        <ele>30.8</ele>
        <time>2025-09-25T15:55:52Z</time>
      </trkpt>
      <trkpt lat="48.43634" lon="-4.62268">
        <ele>31</ele>
        <time>2025-09-25T15:55:57Z</time>
      </trkpt>
      <trkpt lat="48.43625" lon="-4.62253">
        <ele>31.6</ele>
        <time>2025-09-25T15:56:00Z</time>
      </trkpt>
      <trkpt lat="48.4361" lon="-4.62235">
        <ele>31.6</ele>
        <time>2025-09-25T15:56:04Z</time>
      </trkpt>
      <trkpt lat="48.43585" lon="-4.62214">
        <ele>32</ele>
        <time>2025-09-25T15:56:10Z</time>
      </trkpt>
      <trkpt lat="48.43576" lon="-4.62209">
        <ele>31.8</ele>
        <time>2025-09-25T15:56:12Z</time>
      </trkpt>
      <trkpt lat="48.43554" lon="-4.62201">
        <ele>32.2</ele>
        <time>2025-09-25T15:56:17Z</time>
      </trkpt>
      <trkpt lat="48.43546" lon="-4.62197">
        <ele>33</ele>
        <time>2025-09-25T15:56:19Z</time>
      </trkpt>
      <trkpt lat="48.43522" lon="-4.6219">
        <ele>33.2</ele>
        <time>2025-09-25T15:56:25Z</time>
      </trkpt>
      <trkpt lat="48.4349" lon="-4.62178">
        <ele>34</ele>
        <time>2025-09-25T15:56:34Z</time>
      </trkpt>
      <trkpt lat="48.43488" lon="-4.62178">
        <ele>34</ele>
        <time>2025-09-25T15:56:35Z</time>
      </trkpt>
      <trkpt lat="48.4348" lon="-4.62175">
        <ele>34.2</ele>
        <time>2025-09-25T15:56:38Z</time>
      </trkpt>
      <trkpt lat="48.43459" lon="-4.62162">
        <ele>34.2</ele>
        <time>2025-09-25T15:56:44Z</time>
      </trkpt>
      <trkpt lat="48.43441" lon="-4.62153">
        <ele>34.4</ele>
        <time>2025-09-25T15:56:49Z</time>
      </trkpt>
      <trkpt lat="48.43438" lon="-4.62151">
        <ele>34.4</ele>
        <time>2025-09-25T15:56:50Z</time>
      </trkpt>
      <trkpt lat="48.43428" lon="-4.62145">
        <ele>34.2</ele>
        <time>2025-09-25T15:56:53Z</time>
      </trkpt>
      <trkpt lat="48.43401" lon="-4.62128">
        <ele>34.4</ele>
        <time>2025-09-25T15:57:01Z</time>
      </trkpt>
      <trkpt lat="48.43381" lon="-4.62111">
        <ele>34.8</ele>
        <time>2025-09-25T15:57:08Z</time>
      </trkpt>
      <trkpt lat="48.43358" lon="-4.62093">
        <ele>35</ele>
        <time>2025-09-25T15:57:15Z</time>
      </trkpt>
      <trkpt lat="48.43354" lon="-4.62092">
        <ele>35</ele>
        <time>2025-09-25T15:57:16Z</time>
      </trkpt>
      <trkpt lat="48.43336" lon="-4.62089">
        <ele>35.2</ele>
        <time>2025-09-25T15:57:21Z</time>
      </trkpt>
      <trkpt lat="48.43322" lon="-4.62072">
        <ele>34.6</ele>
        <time>2025-09-25T15:57:26Z</time>
      </trkpt>
      <trkpt lat="48.43299" lon="-4.62048">
        <ele>34</ele>
        <time>2025-09-25T15:57:33Z</time>
      </trkpt>
      <trkpt lat="48.43273" lon="-4.6201">
        <ele>34</ele>
        <time>2025-09-25T15:57:41Z</time>
      </trkpt>
      <trkpt lat="48.43252" lon="-4.61968">
        <ele>34.2</ele>
        <time>2025-09-25T15:57:49Z</time>
      </trkpt>
      <trkpt lat="48.43249" lon="-4.61958">
        <ele>35</ele>
        <time>2025-09-25T15:57:51Z</time>
      </trkpt>
      <trkpt lat="48.43242" lon="-4.61943">
        <ele>35.4</ele>
        <time>2025-09-25T15:57:55Z</time>
      </trkpt>
      <trkpt lat="48.43235" lon="-4.61939">
        <ele>36.2</ele>
        <time>2025-09-25T15:57:58Z</time>
      </trkpt>
      <trkpt lat="48.43232" lon="-4.61936">
        <ele>36.4</ele>
        <time>2025-09-25T15:58:00Z</time>
      </trkpt>
      <trkpt lat="48.43228" lon="-4.61922">
        <ele>36.4</ele>
        <time>2025-09-25T15:58:04Z</time>
      </trkpt>
      <trkpt lat="48.43229" lon="-4.6192">
        <ele>36.2</ele>
        <time>2025-09-25T15:58:05Z</time>
      </trkpt>
      <trkpt lat="48.43233" lon="-4.61915">
        <ele>35.8</ele>
        <time>2025-09-25T15:58:07Z</time>
      </trkpt>
      <trkpt lat="48.43233" lon="-4.619">
        <ele>35.4</ele>
        <time>2025-09-25T15:58:10Z</time>
      </trkpt>
      <trkpt lat="48.43226" lon="-4.61873">
        <ele>35.4</ele>
        <time>2025-09-25T15:58:15Z</time>
      </trkpt>
      <trkpt lat="48.43217" lon="-4.61833">
        <ele>35</ele>
        <time>2025-09-25T15:58:22Z</time>
      </trkpt>
      <trkpt lat="48.43214" lon="-4.61822">
        <ele>34.8</ele>
        <time>2025-09-25T15:58:24Z</time>
      </trkpt>
      <trkpt lat="48.43201" lon="-4.61783">
        <ele>34.8</ele>
        <time>2025-09-25T15:58:31Z</time>
      </trkpt>
      <trkpt lat="48.43187" lon="-4.61759">
        <ele>35.4</ele>
        <time>2025-09-25T15:58:37Z</time>
      </trkpt>
      <trkpt lat="48.43175" lon="-4.61752">
        <ele>35.6</ele>
        <time>2025-09-25T15:58:42Z</time>
      </trkpt>
      <trkpt lat="48.43172" lon="-4.6175">
        <ele>35.8</ele>
        <time>2025-09-25T15:58:45Z</time>
      </trkpt>
      <trkpt lat="48.43171" lon="-4.61745">
        <ele>35.8</ele>
        <time>2025-09-25T15:58:47Z</time>
      </trkpt>
      <trkpt lat="48.4317" lon="-4.61731">
        <ele>35.8</ele>
        <time>2025-09-25T15:58:52Z</time>
      </trkpt>
      <trkpt lat="48.43163" lon="-4.6171">
        <ele>35.2</ele>
        <time>2025-09-25T15:58:58Z</time>
      </trkpt>
      <trkpt lat="48.43156" lon="-4.61696">
        <ele>35</ele>
        <time>2025-09-25T15:59:03Z</time>
      </trkpt>
      <trkpt lat="48.43156" lon="-4.61694">
        <ele>35.2</ele>
        <time>2025-09-25T15:59:06Z</time>
      </trkpt>
      <trkpt lat="48.43155" lon="-4.61694">
        <ele>35.2</ele>
        <time>2025-09-25T15:59:07Z</time>
      </trkpt>
      <trkpt lat="48.43156" lon="-4.61694">
        <ele>35.2</ele>
        <time>2025-09-25T15:59:08Z</time>
      </trkpt>
      <trkpt lat="48.43156" lon="-4.61692">
        <ele>35.2</ele>
        <time>2025-09-25T15:59:19Z</time>
      </trkpt>
      <trkpt lat="48.43157" lon="-4.61684">
        <ele>35.2</ele>
        <time>2025-09-25T15:59:22Z</time>
      </trkpt>
      <trkpt lat="48.43158" lon="-4.61673">
        <ele>34.8</ele>
        <time>2025-09-25T15:59:25Z</time>
      </trkpt>
      <trkpt lat="48.43154" lon="-4.61667">
        <ele>34.6</ele>
        <time>2025-09-25T15:59:27Z</time>
      </trkpt>
      <trkpt lat="48.43138" lon="-4.61646">
        <ele>34.4</ele>
        <time>2025-09-25T15:59:33Z</time>
      </trkpt>
      <trkpt lat="48.43133" lon="-4.61638">
        <ele>34.2</ele>
        <time>2025-09-25T15:59:35Z</time>
      </trkpt>
      <trkpt lat="48.43122" lon="-4.61623">
        <ele>34.4</ele>
        <time>2025-09-25T15:59:39Z</time>
      </trkpt>
      <trkpt lat="48.43114" lon="-4.61611">
        <ele>34.4</ele>
        <time>2025-09-25T15:59:42Z</time>
      </trkpt>
      <trkpt lat="48.43108" lon="-4.61603">
        <ele>34.6</ele>
        <time>2025-09-25T15:59:44Z</time>
      </trkpt>
      <trkpt lat="48.43097" lon="-4.61589">
        <ele>34.8</ele>
        <time>2025-09-25T15:59:48Z</time>
      </trkpt>
      <trkpt lat="48.43085" lon="-4.61572">
        <ele>34.4</ele>
        <time>2025-09-25T15:59:52Z</time>
      </trkpt>
      <trkpt lat="48.43067" lon="-4.61545">
        <ele>34.8</ele>
        <time>2025-09-25T15:59:59Z</time>
      </trkpt>
      <trkpt lat="48.43049" lon="-4.61523">
        <ele>34.6</ele>
        <time>2025-09-25T16:00:05Z</time>
      </trkpt>
      <trkpt lat="48.43028" lon="-4.61496">
        <ele>34.4</ele>
        <time>2025-09-25T16:00:12Z</time>
      </trkpt>
      <trkpt lat="48.43018" lon="-4.61483">
        <ele>34.4</ele>
        <time>2025-09-25T16:00:15Z</time>
      </trkpt>
      <trkpt lat="48.43009" lon="-4.61468">
        <ele>34.6</ele>
        <time>2025-09-25T16:00:18Z</time>
      </trkpt>
      <trkpt lat="48.43001" lon="-4.61453">
        <ele>34.4</ele>
        <time>2025-09-25T16:00:21Z</time>
      </trkpt>
      <trkpt lat="48.42996" lon="-4.61444">
        <ele>34.4</ele>
        <time>2025-09-25T16:00:23Z</time>
      </trkpt>
      <trkpt lat="48.42993" lon="-4.61441">
        <ele>34.4</ele>
        <time>2025-09-25T16:00:24Z</time>
      </trkpt>
      <trkpt lat="48.42971" lon="-4.6141">
        <ele>34</ele>
        <time>2025-09-25T16:00:31Z</time>
      </trkpt>
      <trkpt lat="48.42968" lon="-4.61405">
        <ele>33.8</ele>
        <time>2025-09-25T16:00:32Z</time>
      </trkpt>
      <trkpt lat="48.42951" lon="-4.61376">
        <ele>33.8</ele>
        <time>2025-09-25T16:00:38Z</time>
      </trkpt>
      <trkpt lat="48.42938" lon="-4.61351">
        <ele>34.2</ele>
        <time>2025-09-25T16:00:43Z</time>
      </trkpt>
      <trkpt lat="48.42933" lon="-4.61342">
        <ele>34.2</ele>
        <time>2025-09-25T16:00:45Z</time>
      </trkpt>
      <trkpt lat="48.42921" lon="-4.61319">
        <ele>34.4</ele>
        <time>2025-09-25T16:00:50Z</time>
      </trkpt>
      <trkpt lat="48.42912" lon="-4.61301">
        <ele>34.6</ele>
        <time>2025-09-25T16:00:54Z</time>
      </trkpt>
      <trkpt lat="48.42897" lon="-4.61271">
        <ele>35</ele>
        <time>2025-09-25T16:01:01Z</time>
      </trkpt>
      <trkpt lat="48.42887" lon="-4.61251">
        <ele>35.2</ele>
        <time>2025-09-25T16:01:06Z</time>
      </trkpt>
      <trkpt lat="48.42878" lon="-4.61232">
        <ele>35</ele>
        <time>2025-09-25T16:01:10Z</time>
      </trkpt>
      <trkpt lat="48.42872" lon="-4.61217">
        <ele>35</ele>
        <time>2025-09-25T16:01:13Z</time>
      </trkpt>
      <trkpt lat="48.42865" lon="-4.61202">
        <ele>34.8</ele>
        <time>2025-09-25T16:01:16Z</time>
      </trkpt>
      <trkpt lat="48.42858" lon="-4.61189">
        <ele>34.8</ele>
        <time>2025-09-25T16:01:19Z</time>
      </trkpt>
      <trkpt lat="48.42845" lon="-4.61158">
        <ele>34.4</ele>
        <time>2025-09-25T16:01:26Z</time>
      </trkpt>
      <trkpt lat="48.42836" lon="-4.61132">
        <ele>34.2</ele>
        <time>2025-09-25T16:01:31Z</time>
      </trkpt>
      <trkpt lat="48.4283" lon="-4.61116">
        <ele>33.8</ele>
        <time>2025-09-25T16:01:34Z</time>
      </trkpt>
      <trkpt lat="48.42828" lon="-4.61112">
        <ele>33.8</ele>
        <time>2025-09-25T16:01:35Z</time>
      </trkpt>
      <trkpt lat="48.42826" lon="-4.61106">
        <ele>33.6</ele>
        <time>2025-09-25T16:01:36Z</time>
      </trkpt>
      <trkpt lat="48.42824" lon="-4.61101">
        <ele>33.8</ele>
        <time>2025-09-25T16:01:37Z</time>
      </trkpt>
      <trkpt lat="48.4282" lon="-4.61091">
        <ele>34</ele>
        <time>2025-09-25T16:01:39Z</time>
      </trkpt>
      <trkpt lat="48.42811" lon="-4.61062">
        <ele>34.6</ele>
        <time>2025-09-25T16:01:46Z</time>
      </trkpt>
      <trkpt lat="48.42805" lon="-4.61045">
        <ele>34.8</ele>
        <time>2025-09-25T16:01:52Z</time>
      </trkpt>
      <trkpt lat="48.42805" lon="-4.61043">
        <ele>34.8</ele>
        <time>2025-09-25T16:01:53Z</time>
      </trkpt>
      <trkpt lat="48.42805" lon="-4.61043">
        <ele>35</ele>
        <time>2025-09-25T16:01:56Z</time>
      </trkpt>
      <trkpt lat="48.42805" lon="-4.61043">
        <ele>34.8</ele>
        <time>2025-09-25T16:01:58Z</time>
      </trkpt>
      <trkpt lat="48.42805" lon="-4.61041">
        <ele>34.4</ele>
        <time>2025-09-25T16:02:17Z</time>
      </trkpt>
      <trkpt lat="48.42805" lon="-4.61039">
        <ele>34.4</ele>
        <time>2025-09-25T16:02:18Z</time>
      </trkpt>
      <trkpt lat="48.42804" lon="-4.61037">
        <ele>34.4</ele>
        <time>2025-09-25T16:02:19Z</time>
      </trkpt>
      <trkpt lat="48.42801" lon="-4.61023">
        <ele>34.6</ele>
        <time>2025-09-25T16:02:25Z</time>
      </trkpt>
      <trkpt lat="48.428" lon="-4.61023">
        <ele>34.6</ele>
        <time>2025-09-25T16:02:26Z</time>
      </trkpt>
      <trkpt lat="48.428" lon="-4.61023">
        <ele>34.6</ele>
        <time>2025-09-25T16:02:28Z</time>
      </trkpt>
      <trkpt lat="48.428" lon="-4.61017">
        <ele>34.2</ele>
        <time>2025-09-25T16:05:54Z</time>
      </trkpt>
      <trkpt lat="48.42798" lon="-4.61012">
        <ele>34.6</ele>
        <time>2025-09-25T16:05:56Z</time>
      </trkpt>
      <trkpt lat="48.42797" lon="-4.61009">
        <ele>34.4</ele>
        <time>2025-09-25T16:05:57Z</time>
      </trkpt>
      <trkpt lat="48.42796" lon="-4.61001">
        <ele>34.2</ele>
        <time>2025-09-25T16:05:59Z</time>
      </trkpt>
      <trkpt lat="48.42792" lon="-4.60988">
        <ele>34.2</ele>
        <time>2025-09-25T16:06:02Z</time>
      </trkpt>
      <trkpt lat="48.4278" lon="-4.60957">
        <ele>34.4</ele>
        <time>2025-09-25T16:06:09Z</time>
      </trkpt>
      <trkpt lat="48.42775" lon="-4.60932">
        <ele>34.8</ele>
        <time>2025-09-25T16:06:16Z</time>
      </trkpt>
      <trkpt lat="48.4277" lon="-4.60911">
        <ele>34.2</ele>
        <time>2025-09-25T16:06:20Z</time>
      </trkpt>
      <trkpt lat="48.42768" lon="-4.609">
        <ele>34.2</ele>
        <time>2025-09-25T16:06:22Z</time>
      </trkpt>
      <trkpt lat="48.42759" lon="-4.6086">
        <ele>34.2</ele>
        <time>2025-09-25T16:06:30Z</time>
      </trkpt>
      <trkpt lat="48.42758" lon="-4.60854">
        <ele>34</ele>
        <time>2025-09-25T16:06:31Z</time>
      </trkpt>
      <trkpt lat="48.42753" lon="-4.60833">
        <ele>34.2</ele>
        <time>2025-09-25T16:06:35Z</time>
      </trkpt>
      <trkpt lat="48.42751" lon="-4.60819">
        <ele>34.4</ele>
        <time>2025-09-25T16:06:38Z</time>
      </trkpt>
      <trkpt lat="48.4275" lon="-4.60805">
        <ele>34.4</ele>
        <time>2025-09-25T16:06:41Z</time>
      </trkpt>
      <trkpt lat="48.42744" lon="-4.60767">
        <ele>34.4</ele>
        <time>2025-09-25T16:06:49Z</time>
      </trkpt>
      <trkpt lat="48.4274" lon="-4.60733">
        <ele>34.8</ele>
        <time>2025-09-25T16:06:57Z</time>
      </trkpt>
      <trkpt lat="48.4274" lon="-4.60725">
        <ele>35</ele>
        <time>2025-09-25T16:06:59Z</time>
      </trkpt>
      <trkpt lat="48.42737" lon="-4.60724">
        <ele>35.2</ele>
        <time>2025-09-25T16:07:01Z</time>
      </trkpt>
      <trkpt lat="48.42726" lon="-4.60727">
        <ele>35</ele>
        <time>2025-09-25T16:07:06Z</time>
      </trkpt>
      <trkpt lat="48.42723" lon="-4.60713">
        <ele>34.8</ele>
        <time>2025-09-25T16:07:10Z</time>
      </trkpt>
      <trkpt lat="48.42719" lon="-4.6069">
        <ele>34.8</ele>
        <time>2025-09-25T16:07:15Z</time>
      </trkpt>
      <trkpt lat="48.42717" lon="-4.60681">
        <ele>35</ele>
        <time>2025-09-25T16:07:17Z</time>
      </trkpt>
      <trkpt lat="48.42711" lon="-4.60646">
        <ele>34.8</ele>
        <time>2025-09-25T16:07:24Z</time>
      </trkpt>
      <trkpt lat="48.42704" lon="-4.60613">
        <ele>34.8</ele>
        <time>2025-09-25T16:07:31Z</time>
      </trkpt>
      <trkpt lat="48.42702" lon="-4.6061">
        <ele>35</ele>
        <time>2025-09-25T16:07:32Z</time>
      </trkpt>
      <trkpt lat="48.42697" lon="-4.60601">
        <ele>35.2</ele>
        <time>2025-09-25T16:07:35Z</time>
      </trkpt>
      <trkpt lat="48.4269" lon="-4.60573">
        <ele>35.4</ele>
        <time>2025-09-25T16:07:41Z</time>
      </trkpt>
      <trkpt lat="48.42684" lon="-4.60541">
        <ele>35</ele>
        <time>2025-09-25T16:07:47Z</time>
      </trkpt>
      <trkpt lat="48.42677" lon="-4.60502">
        <ele>35.4</ele>
        <time>2025-09-25T16:07:54Z</time>
      </trkpt>
      <trkpt lat="48.42671" lon="-4.60463">
        <ele>35.2</ele>
        <time>2025-09-25T16:08:01Z</time>
      </trkpt>
      <trkpt lat="48.42665" lon="-4.60423">
        <ele>35.6</ele>
        <time>2025-09-25T16:08:08Z</time>
      </trkpt>
      <trkpt lat="48.42657" lon="-4.60387">
        <ele>35.4</ele>
        <time>2025-09-25T16:08:15Z</time>
      </trkpt>
      <trkpt lat="48.42654" lon="-4.60378">
        <ele>35.4</ele>
        <time>2025-09-25T16:08:17Z</time>
      </trkpt>
      <trkpt lat="48.4265" lon="-4.60364">
        <ele>35.8</ele>
        <time>2025-09-25T16:08:21Z</time>
      </trkpt>
      <trkpt lat="48.42648" lon="-4.60362">
        <ele>36</ele>
        <time>2025-09-25T16:08:22Z</time>
      </trkpt>
      <trkpt lat="48.42644" lon="-4.60357">
        <ele>36.6</ele>
        <time>2025-09-25T16:08:27Z</time>
      </trkpt>
      <trkpt lat="48.42637" lon="-4.6035">
        <ele>36.8</ele>
        <time>2025-09-25T16:08:32Z</time>
      </trkpt>
      <trkpt lat="48.42635" lon="-4.6035">
        <ele>36.8</ele>
        <time>2025-09-25T16:08:33Z</time>
      </trkpt>
      <trkpt lat="48.42632" lon="-4.60355">
        <ele>36.8</ele>
        <time>2025-09-25T16:08:35Z</time>
      </trkpt>
      <trkpt lat="48.4262" lon="-4.60363">
        <ele>36.6</ele>
        <time>2025-09-25T16:08:40Z</time>
      </trkpt>
      <trkpt lat="48.42612" lon="-4.60365">
        <ele>37</ele>
        <time>2025-09-25T16:08:45Z</time>
      </trkpt>
      <trkpt lat="48.42611" lon="-4.60364">
        <ele>37.2</ele>
        <time>2025-09-25T16:08:46Z</time>
      </trkpt>
      <trkpt lat="48.42609" lon="-4.60363">
        <ele>37.4</ele>
        <time>2025-09-25T16:08:47Z</time>
      </trkpt>
      <trkpt lat="48.42605" lon="-4.60362">
        <ele>37.6</ele>
        <time>2025-09-25T16:08:50Z</time>
      </trkpt>
      <trkpt lat="48.42595" lon="-4.6036">
        <ele>37.6</ele>
        <time>2025-09-25T16:08:55Z</time>
      </trkpt>
      <trkpt lat="48.42574" lon="-4.60355">
        <ele>37.6</ele>
        <time>2025-09-25T16:09:03Z</time>
      </trkpt>
      <trkpt lat="48.42556" lon="-4.60349">
        <ele>37.4</ele>
        <time>2025-09-25T16:09:09Z</time>
      </trkpt>
      <trkpt lat="48.42532" lon="-4.60342">
        <ele>36.8</ele>
        <time>2025-09-25T16:09:16Z</time>
      </trkpt>
      <trkpt lat="48.42519" lon="-4.60339">
        <ele>36.4</ele>
        <time>2025-09-25T16:09:20Z</time>
      </trkpt>
      <trkpt lat="48.42516" lon="-4.60338">
        <ele>36.4</ele>
        <time>2025-09-25T16:09:21Z</time>
      </trkpt>
      <trkpt lat="48.42498" lon="-4.60334">
        <ele>37</ele>
        <time>2025-09-25T16:09:27Z</time>
      </trkpt>
      <trkpt lat="48.4248" lon="-4.60328">
        <ele>36.8</ele>
        <time>2025-09-25T16:09:32Z</time>
      </trkpt>
      <trkpt lat="48.42462" lon="-4.60318">
        <ele>36.6</ele>
        <time>2025-09-25T16:09:37Z</time>
      </trkpt>
      <trkpt lat="48.4244" lon="-4.6031">
        <ele>36.8</ele>
        <time>2025-09-25T16:09:43Z</time>
      </trkpt>
      <trkpt lat="48.4242" lon="-4.60302">
        <ele>36.8</ele>
        <time>2025-09-25T16:09:49Z</time>
      </trkpt>
      <trkpt lat="48.42397" lon="-4.60291">
        <ele>36.6</ele>
        <time>2025-09-25T16:09:56Z</time>
      </trkpt>
      <trkpt lat="48.42379" lon="-4.60285">
        <ele>36.2</ele>
        <time>2025-09-25T16:10:03Z</time>
      </trkpt>
      <trkpt lat="48.42375" lon="-4.60283">
        <ele>36.2</ele>
        <time>2025-09-25T16:10:05Z</time>
      </trkpt>
      <trkpt lat="48.42368" lon="-4.60282">
        <ele>36</ele>
        <time>2025-09-25T16:10:07Z</time>
      </trkpt>
      <trkpt lat="48.4236" lon="-4.60278">
        <ele>36</ele>
        <time>2025-09-25T16:10:09Z</time>
      </trkpt>
      <trkpt lat="48.42337" lon="-4.60273">
        <ele>36.4</ele>
        <time>2025-09-25T16:10:16Z</time>
      </trkpt>
      <trkpt lat="48.42316" lon="-4.60266">
        <ele>36</ele>
        <time>2025-09-25T16:10:22Z</time>
      </trkpt>
      <trkpt lat="48.42291" lon="-4.60256">
        <ele>36.2</ele>
        <time>2025-09-25T16:10:30Z</time>
      </trkpt>
      <trkpt lat="48.42261" lon="-4.60243">
        <ele>36.2</ele>
        <time>2025-09-25T16:10:39Z</time>
      </trkpt>
      <trkpt lat="48.42238" lon="-4.60236">
        <ele>36.4</ele>
        <time>2025-09-25T16:10:45Z</time>
      </trkpt>
      <trkpt lat="48.42234" lon="-4.60237">
        <ele>36.4</ele>
        <time>2025-09-25T16:10:46Z</time>
      </trkpt>
      <trkpt lat="48.4223" lon="-4.60236">
        <ele>36.4</ele>
        <time>2025-09-25T16:10:47Z</time>
      </trkpt>
      <trkpt lat="48.42227" lon="-4.60236">
        <ele>36.6</ele>
        <time>2025-09-25T16:10:48Z</time>
      </trkpt>
      <trkpt lat="48.42211" lon="-4.6024">
        <ele>36.8</ele>
        <time>2025-09-25T16:10:53Z</time>
      </trkpt>
      <trkpt lat="48.42194" lon="-4.60243">
        <ele>37</ele>
        <time>2025-09-25T16:10:58Z</time>
      </trkpt>
      <trkpt lat="48.42187" lon="-4.60246">
        <ele>37</ele>
        <time>2025-09-25T16:11:00Z</time>
      </trkpt>
      <trkpt lat="48.42175" lon="-4.6025">
        <ele>37.2</ele>
        <time>2025-09-25T16:11:04Z</time>
      </trkpt>
      <trkpt lat="48.42157" lon="-4.60257">
        <ele>37.6</ele>
        <time>2025-09-25T16:11:10Z</time>
      </trkpt>
      <trkpt lat="48.42142" lon="-4.60259">
        <ele>37.8</ele>
        <time>2025-09-25T16:11:15Z</time>
      </trkpt>
      <trkpt lat="48.42135" lon="-4.6026">
        <ele>38.2</ele>
        <time>2025-09-25T16:11:17Z</time>
      </trkpt>
      <trkpt lat="48.42122" lon="-4.60257">
        <ele>38.4</ele>
        <time>2025-09-25T16:11:21Z</time>
      </trkpt>
      <trkpt lat="48.42107" lon="-4.60249">
        <ele>38.6</ele>
        <time>2025-09-25T16:11:26Z</time>
      </trkpt>
      <trkpt lat="48.42091" lon="-4.60236">
        <ele>38.8</ele>
        <time>2025-09-25T16:11:32Z</time>
      </trkpt>
      <trkpt lat="48.42082" lon="-4.60227">
        <ele>39.2</ele>
        <time>2025-09-25T16:11:36Z</time>
      </trkpt>
      <trkpt lat="48.42074" lon="-4.60218">
        <ele>39.4</ele>
        <time>2025-09-25T16:11:39Z</time>
      </trkpt>
      <trkpt lat="48.42059" lon="-4.60194">
        <ele>39.4</ele>
        <time>2025-09-25T16:11:46Z</time>
      </trkpt>
      <trkpt lat="48.42044" lon="-4.60172">
        <ele>39</ele>
        <time>2025-09-25T16:11:53Z</time>
      </trkpt>
      <trkpt lat="48.42032" lon="-4.60155">
        <ele>39</ele>
        <time>2025-09-25T16:11:59Z</time>
      </trkpt>
      <trkpt lat="48.42022" lon="-4.60137">
        <ele>38.2</ele>
        <time>2025-09-25T16:12:04Z</time>
      </trkpt>
      <trkpt lat="48.4202" lon="-4.60133">
        <ele>38.2</ele>
        <time>2025-09-25T16:12:05Z</time>
      </trkpt>
      <trkpt lat="48.42014" lon="-4.60109">
        <ele>37.8</ele>
        <time>2025-09-25T16:12:10Z</time>
      </trkpt>
      <trkpt lat="48.42011" lon="-4.60094">
        <ele>38</ele>
        <time>2025-09-25T16:12:14Z</time>
      </trkpt>
      <trkpt lat="48.42009" lon="-4.60095">
        <ele>38.2</ele>
        <time>2025-09-25T16:12:16Z</time>
      </trkpt>
      <trkpt lat="48.42011" lon="-4.60083">
        <ele>38.4</ele>
        <time>2025-09-25T16:12:27Z</time>
      </trkpt>
      <trkpt lat="48.4201" lon="-4.60081">
        <ele>38.2</ele>
        <time>2025-09-25T16:12:28Z</time>
      </trkpt>
      <trkpt lat="48.42008" lon="-4.60058">
        <ele>37.2</ele>
        <time>2025-09-25T16:12:33Z</time>
      </trkpt>
      <trkpt lat="48.42009" lon="-4.60053">
        <ele>37</ele>
        <time>2025-09-25T16:12:34Z</time>
      </trkpt>
      <trkpt lat="48.42013" lon="-4.60026">
        <ele>36.6</ele>
        <time>2025-09-25T16:12:39Z</time>
      </trkpt>
      <trkpt lat="48.42014" lon="-4.60012">
        <ele>37</ele>
        <time>2025-09-25T16:12:42Z</time>
      </trkpt>
      <trkpt lat="48.42012" lon="-4.6001">
        <ele>37.2</ele>
        <time>2025-09-25T16:12:43Z</time>
      </trkpt>
      <trkpt lat="48.42011" lon="-4.60009">
        <ele>37.2</ele>
        <time>2025-09-25T16:12:44Z</time>
      </trkpt>
      <trkpt lat="48.42008" lon="-4.60011">
        <ele>37.2</ele>
        <time>2025-09-25T16:12:46Z</time>
      </trkpt>
      <trkpt lat="48.42007" lon="-4.60012">
        <ele>37.2</ele>
        <time>2025-09-25T16:12:47Z</time>
      </trkpt>
      <trkpt lat="48.41998" lon="-4.60021">
        <ele>37.4</ele>
        <time>2025-09-25T16:12:53Z</time>
      </trkpt>
      <trkpt lat="48.41987" lon="-4.60029">
        <ele>37.8</ele>
        <time>2025-09-25T16:12:59Z</time>
      </trkpt>
      <trkpt lat="48.41979" lon="-4.60035">
        <ele>38</ele>
        <time>2025-09-25T16:13:04Z</time>
      </trkpt>
      <trkpt lat="48.41976" lon="-4.60037">
        <ele>38</ele>
        <time>2025-09-25T16:13:06Z</time>
      </trkpt>
      <trkpt lat="48.41967" lon="-4.60046">
        <ele>38</ele>
        <time>2025-09-25T16:13:12Z</time>
      </trkpt>
      <trkpt lat="48.41955" lon="-4.60055">
        <ele>38.6</ele>
        <time>2025-09-25T16:13:19Z</time>
      </trkpt>
      <trkpt lat="48.41945" lon="-4.60064">
        <ele>39</ele>
        <time>2025-09-25T16:13:25Z</time>
      </trkpt>
      <trkpt lat="48.41944" lon="-4.60065">
        <ele>39</ele>
        <time>2025-09-25T16:13:26Z</time>
      </trkpt>
      <trkpt lat="48.41936" lon="-4.60073">
        <ele>39.4</ele>
        <time>2025-09-25T16:13:31Z</time>
      </trkpt>
      <trkpt lat="48.41927" lon="-4.60082">
        <ele>39.6</ele>
        <time>2025-09-25T16:13:37Z</time>
      </trkpt>
      <trkpt lat="48.41922" lon="-4.6009">
        <ele>40</ele>
        <time>2025-09-25T16:13:42Z</time>
      </trkpt>
      <trkpt lat="48.41921" lon="-4.60092">
        <ele>40.2</ele>
        <time>2025-09-25T16:13:43Z</time>
      </trkpt>
      <trkpt lat="48.41919" lon="-4.60104">
        <ele>40.6</ele>
        <time>2025-09-25T16:13:48Z</time>
      </trkpt>
      <trkpt lat="48.41916" lon="-4.60123">
        <ele>40.8</ele>
        <time>2025-09-25T16:13:55Z</time>
      </trkpt>
      <trkpt lat="48.41914" lon="-4.60139">
        <ele>41.2</ele>
        <time>2025-09-25T16:14:01Z</time>
      </trkpt>
      <trkpt lat="48.41914" lon="-4.60143">
        <ele>41.4</ele>
        <time>2025-09-25T16:14:03Z</time>
      </trkpt>
      <trkpt lat="48.41912" lon="-4.60157">
        <ele>42</ele>
        <time>2025-09-25T16:14:09Z</time>
      </trkpt>
      <trkpt lat="48.41912" lon="-4.60162">
        <ele>42.2</ele>
        <time>2025-09-25T16:14:11Z</time>
      </trkpt>
      <trkpt lat="48.41912" lon="-4.60172">
        <ele>42.6</ele>
        <time>2025-09-25T16:14:16Z</time>
      </trkpt>
      <trkpt lat="48.41913" lon="-4.60183">
        <ele>43.2</ele>
        <time>2025-09-25T16:14:22Z</time>
      </trkpt>
      <trkpt lat="48.41913" lon="-4.60184">
        <ele>43.4</ele>
        <time>2025-09-25T16:14:23Z</time>
      </trkpt>
      <trkpt lat="48.41912" lon="-4.60185">
        <ele>43.6</ele>
        <time>2025-09-25T16:14:25Z</time>
      </trkpt>
      <trkpt lat="48.41914" lon="-4.60192">
        <ele>43.8</ele>
        <time>2025-09-25T16:14:29Z</time>
      </trkpt>
      <trkpt lat="48.41915" lon="-4.602">
        <ele>44.2</ele>
        <time>2025-09-25T16:14:34Z</time>
      </trkpt>
      <trkpt lat="48.41915" lon="-4.60202">
        <ele>44.2</ele>
        <time>2025-09-25T16:14:35Z</time>
      </trkpt>
      <trkpt lat="48.41916" lon="-4.60208">
        <ele>44.6</ele>
        <time>2025-09-25T16:14:38Z</time>
      </trkpt>
      <trkpt lat="48.41916" lon="-4.60218">
        <ele>45.4</ele>
        <time>2025-09-25T16:14:44Z</time>
      </trkpt>
      <trkpt lat="48.41915" lon="-4.60221">
        <ele>45.6</ele>
        <time>2025-09-25T16:14:46Z</time>
      </trkpt>
      <trkpt lat="48.41915" lon="-4.60224">
        <ele>45.8</ele>
        <time>2025-09-25T16:14:48Z</time>
      </trkpt>
      <trkpt lat="48.41915" lon="-4.60226">
        <ele>46</ele>
        <time>2025-09-25T16:14:49Z</time>
      </trkpt>
      <trkpt lat="48.41913" lon="-4.6023">
        <ele>46.4</ele>
        <time>2025-09-25T16:14:52Z</time>
      </trkpt>
      <trkpt lat="48.41913" lon="-4.60232">
        <ele>46.4</ele>
        <time>2025-09-25T16:14:53Z</time>
      </trkpt>
      <trkpt lat="48.41911" lon="-4.60236">
        <ele>46.8</ele>
        <time>2025-09-25T16:14:56Z</time>
      </trkpt>
      <trkpt lat="48.41911" lon="-4.60238">
        <ele>46.8</ele>
        <time>2025-09-25T16:14:57Z</time>
      </trkpt>
      <trkpt lat="48.4191" lon="-4.6024">
        <ele>47</ele>
        <time>2025-09-25T16:14:59Z</time>
      </trkpt>
      <trkpt lat="48.41907" lon="-4.60249">
        <ele>47.4</ele>
        <time>2025-09-25T16:15:04Z</time>
      </trkpt>
      <trkpt lat="48.41906" lon="-4.60252">
        <ele>47.8</ele>
        <time>2025-09-25T16:15:07Z</time>
      </trkpt>
      <trkpt lat="48.41903" lon="-4.60256">
        <ele>48.2</ele>
        <time>2025-09-25T16:15:14Z</time>
      </trkpt>
      <trkpt lat="48.41902" lon="-4.60257">
        <ele>48</ele>
        <time>2025-09-25T16:15:55Z</time>
      </trkpt>
      <trkpt lat="48.41901" lon="-4.60257">
        <ele>48</ele>
        <time>2025-09-25T16:15:56Z</time>
      </trkpt>
      <trkpt lat="48.41898" lon="-4.60254">
        <ele>48</ele>
        <time>2025-09-25T16:15:59Z</time>
      </trkpt>
      <trkpt lat="48.41886" lon="-4.60241">
        <ele>47.8</ele>
        <time>2025-09-25T16:16:06Z</time>
      </trkpt>
      <trkpt lat="48.41872" lon="-4.6023">
        <ele>47.6</ele>
        <time>2025-09-25T16:16:12Z</time>
      </trkpt>
      <trkpt lat="48.41868" lon="-4.60226">
        <ele>47.6</ele>
        <time>2025-09-25T16:16:14Z</time>
      </trkpt>
      <trkpt lat="48.41863" lon="-4.60222">
        <ele>47.4</ele>
        <time>2025-09-25T16:16:16Z</time>
      </trkpt>
      <trkpt lat="48.41852" lon="-4.6021">
        <ele>47.2</ele>
        <time>2025-09-25T16:16:20Z</time>
      </trkpt>
      <trkpt lat="48.4183" lon="-4.60183">
        <ele>46.8</ele>
        <time>2025-09-25T16:16:27Z</time>
      </trkpt>
      <trkpt lat="48.4181" lon="-4.60156">
        <ele>47.4</ele>
        <time>2025-09-25T16:16:34Z</time>
      </trkpt>
      <trkpt lat="48.41786" lon="-4.60128">
        <ele>48.4</ele>
        <time>2025-09-25T16:16:43Z</time>
      </trkpt>
      <trkpt lat="48.41779" lon="-4.60121">
        <ele>48.6</ele>
        <time>2025-09-25T16:16:45Z</time>
      </trkpt>
      <trkpt lat="48.41769" lon="-4.60106">
        <ele>49</ele>
        <time>2025-09-25T16:16:49Z</time>
      </trkpt>
      <trkpt lat="48.41757" lon="-4.60087">
        <ele>49</ele>
        <time>2025-09-25T16:16:54Z</time>
      </trkpt>
      <trkpt lat="48.41751" lon="-4.60076">
        <ele>49.4</ele>
        <time>2025-09-25T16:16:57Z</time>
      </trkpt>
      <trkpt lat="48.41732" lon="-4.60047">
        <ele>49.2</ele>
        <time>2025-09-25T16:17:04Z</time>
      </trkpt>
      <trkpt lat="48.41711" lon="-4.6002">
        <ele>48.8</ele>
        <time>2025-09-25T16:17:11Z</time>
      </trkpt>
      <trkpt lat="48.41693" lon="-4.60006">
        <ele>48.6</ele>
        <time>2025-09-25T16:17:16Z</time>
      </trkpt>
      <trkpt lat="48.41689" lon="-4.60005">
        <ele>48.4</ele>
        <time>2025-09-25T16:17:17Z</time>
      </trkpt>
      <trkpt lat="48.41676" lon="-4.60002">
        <ele>48.2</ele>
        <time>2025-09-25T16:17:20Z</time>
      </trkpt>
      <trkpt lat="48.41668" lon="-4.59995">
        <ele>48</ele>
        <time>2025-09-25T16:17:22Z</time>
      </trkpt>
      <trkpt lat="48.41658" lon="-4.59988">
        <ele>47.6</ele>
        <time>2025-09-25T16:17:24Z</time>
      </trkpt>
      <trkpt lat="48.41643" lon="-4.59974">
        <ele>46.4</ele>
        <time>2025-09-25T16:17:27Z</time>
      </trkpt>
      <trkpt lat="48.41626" lon="-4.59959">
        <ele>45.4</ele>
        <time>2025-09-25T16:17:30Z</time>
      </trkpt>
      <trkpt lat="48.41607" lon="-4.59943">
        <ele>44</ele>
        <time>2025-09-25T16:17:33Z</time>
      </trkpt>
      <trkpt lat="48.41572" lon="-4.59916">
        <ele>43</ele>
        <time>2025-09-25T16:17:38Z</time>
      </trkpt>
      <trkpt lat="48.41558" lon="-4.59904">
        <ele>41.8</ele>
        <time>2025-09-25T16:17:40Z</time>
      </trkpt>
      <trkpt lat="48.41544" lon="-4.59893">
        <ele>40.6</ele>
        <time>2025-09-25T16:17:42Z</time>
      </trkpt>
      <trkpt lat="48.41516" lon="-4.5987">
        <ele>39.8</ele>
        <time>2025-09-25T16:17:46Z</time>
      </trkpt>
      <trkpt lat="48.41489" lon="-4.59848">
        <ele>39.6</ele>
        <time>2025-09-25T16:17:50Z</time>
      </trkpt>
      <trkpt lat="48.4147" lon="-4.59832">
        <ele>39.8</ele>
        <time>2025-09-25T16:17:53Z</time>
      </trkpt>
      <trkpt lat="48.41439" lon="-4.59807">
        <ele>39.4</ele>
        <time>2025-09-25T16:17:58Z</time>
      </trkpt>
      <trkpt lat="48.41422" lon="-4.59792">
        <ele>40.4</ele>
        <time>2025-09-25T16:18:01Z</time>
      </trkpt>
      <trkpt lat="48.41416" lon="-4.59788">
        <ele>40.6</ele>
        <time>2025-09-25T16:18:02Z</time>
      </trkpt>
      <trkpt lat="48.41377" lon="-4.59757">
        <ele>41</ele>
        <time>2025-09-25T16:18:09Z</time>
      </trkpt>
      <trkpt lat="48.41332" lon="-4.59723">
        <ele>40.2</ele>
        <time>2025-09-25T16:18:17Z</time>
      </trkpt>
      <trkpt lat="48.41292" lon="-4.59692">
        <ele>40</ele>
        <time>2025-09-25T16:18:24Z</time>
      </trkpt>
      <trkpt lat="48.41271" lon="-4.59675">
        <ele>41.8</ele>
        <time>2025-09-25T16:18:28Z</time>
      </trkpt>
      <trkpt lat="48.41255" lon="-4.59662">
        <ele>41.4</ele>
        <time>2025-09-25T16:18:31Z</time>
      </trkpt>
      <trkpt lat="48.41224" lon="-4.59639">
        <ele>41.2</ele>
        <time>2025-09-25T16:18:37Z</time>
      </trkpt>
      <trkpt lat="48.41195" lon="-4.59616">
        <ele>41.8</ele>
        <time>2025-09-25T16:18:43Z</time>
      </trkpt>
      <trkpt lat="48.4116" lon="-4.59591">
        <ele>42</ele>
        <time>2025-09-25T16:18:50Z</time>
      </trkpt>
      <trkpt lat="48.41127" lon="-4.59572">
        <ele>41.6</ele>
        <time>2025-09-25T16:18:56Z</time>
      </trkpt>
      <trkpt lat="48.41104" lon="-4.59556">
        <ele>40.6</ele>
        <time>2025-09-25T16:19:00Z</time>
      </trkpt>
      <trkpt lat="48.41092" lon="-4.59545">
        <ele>39.8</ele>
        <time>2025-09-25T16:19:02Z</time>
      </trkpt>
      <trkpt lat="48.41086" lon="-4.59538">
        <ele>39.4</ele>
        <time>2025-09-25T16:19:03Z</time>
      </trkpt>
      <trkpt lat="48.4108" lon="-4.5953">
        <ele>39</ele>
        <time>2025-09-25T16:19:04Z</time>
      </trkpt>
      <trkpt lat="48.41069" lon="-4.59515">
        <ele>38.2</ele>
        <time>2025-09-25T16:19:06Z</time>
      </trkpt>
      <trkpt lat="48.41063" lon="-4.59507">
        <ele>38</ele>
        <time>2025-09-25T16:19:07Z</time>
      </trkpt>
      <trkpt lat="48.41038" lon="-4.59478">
        <ele>37.2</ele>
        <time>2025-09-25T16:19:11Z</time>
      </trkpt>
      <trkpt lat="48.41031" lon="-4.59473">
        <ele>36.8</ele>
        <time>2025-09-25T16:19:12Z</time>
      </trkpt>
      <trkpt lat="48.40996" lon="-4.5945">
        <ele>36.6</ele>
        <time>2025-09-25T16:19:17Z</time>
      </trkpt>
      <trkpt lat="48.40959" lon="-4.59427">
        <ele>37</ele>
        <time>2025-09-25T16:19:23Z</time>
      </trkpt>
      <trkpt lat="48.40917" lon="-4.59406">
        <ele>36.8</ele>
        <time>2025-09-25T16:19:30Z</time>
      </trkpt>
      <trkpt lat="48.40867" lon="-4.59381">
        <ele>38.2</ele>
        <time>2025-09-25T16:19:39Z</time>
      </trkpt>
      <trkpt lat="48.40862" lon="-4.59378">
        <ele>38.2</ele>
        <time>2025-09-25T16:19:40Z</time>
      </trkpt>
      <trkpt lat="48.40847" lon="-4.59368">
        <ele>38.8</ele>
        <time>2025-09-25T16:19:43Z</time>
      </trkpt>
      <trkpt lat="48.40838" lon="-4.59362">
        <ele>39.4</ele>
        <time>2025-09-25T16:19:45Z</time>
      </trkpt>
      <trkpt lat="48.40833" lon="-4.59359">
        <ele>39.6</ele>
        <time>2025-09-25T16:19:46Z</time>
      </trkpt>
      <trkpt lat="48.40817" lon="-4.59347">
        <ele>40.4</ele>
        <time>2025-09-25T16:19:50Z</time>
      </trkpt>
      <trkpt lat="48.40806" lon="-4.59336">
        <ele>40.8</ele>
        <time>2025-09-25T16:19:53Z</time>
      </trkpt>
      <trkpt lat="48.40799" lon="-4.59323">
        <ele>41.4</ele>
        <time>2025-09-25T16:19:56Z</time>
      </trkpt>
      <trkpt lat="48.40794" lon="-4.59313">
        <ele>42</ele>
        <time>2025-09-25T16:19:58Z</time>
      </trkpt>
      <trkpt lat="48.4079" lon="-4.59303">
        <ele>42.6</ele>
        <time>2025-09-25T16:20:00Z</time>
      </trkpt>
      <trkpt lat="48.40777" lon="-4.59274">
        <ele>43.8</ele>
        <time>2025-09-25T16:20:06Z</time>
      </trkpt>
      <trkpt lat="48.40764" lon="-4.59256">
        <ele>44.6</ele>
        <time>2025-09-25T16:20:11Z</time>
      </trkpt>
      <trkpt lat="48.40762" lon="-4.59253">
        <ele>45</ele>
        <time>2025-09-25T16:20:12Z</time>
      </trkpt>
      <trkpt lat="48.40748" lon="-4.59241">
        <ele>46</ele>
        <time>2025-09-25T16:20:17Z</time>
      </trkpt>
      <trkpt lat="48.40745" lon="-4.59238">
        <ele>46.2</ele>
        <time>2025-09-25T16:20:18Z</time>
      </trkpt>
      <trkpt lat="48.4073" lon="-4.59225">
        <ele>47.2</ele>
        <time>2025-09-25T16:20:23Z</time>
      </trkpt>
      <trkpt lat="48.40726" lon="-4.59223">
        <ele>47.4</ele>
        <time>2025-09-25T16:20:24Z</time>
      </trkpt>
      <trkpt lat="48.40724" lon="-4.59219">
        <ele>47.6</ele>
        <time>2025-09-25T16:20:25Z</time>
      </trkpt>
      <trkpt lat="48.40721" lon="-4.59208">
        <ele>47.6</ele>
        <time>2025-09-25T16:20:27Z</time>
      </trkpt>
      <trkpt lat="48.40725" lon="-4.59192">
        <ele>47.2</ele>
        <time>2025-09-25T16:20:31Z</time>
      </trkpt>
      <trkpt lat="48.40742" lon="-4.59164">
        <ele>46.6</ele>
        <time>2025-09-25T16:20:38Z</time>
      </trkpt>
      <trkpt lat="48.40746" lon="-4.59154">
        <ele>46.2</ele>
        <time>2025-09-25T16:20:40Z</time>
      </trkpt>
      <trkpt lat="48.4075" lon="-4.59139">
        <ele>46</ele>
        <time>2025-09-25T16:20:43Z</time>
      </trkpt>
      <trkpt lat="48.40754" lon="-4.59125">
        <ele>45.8</ele>
        <time>2025-09-25T16:20:46Z</time>
      </trkpt>
      <trkpt lat="48.40759" lon="-4.5911">
        <ele>45.6</ele>
        <time>2025-09-25T16:20:49Z</time>
      </trkpt>
      <trkpt lat="48.40763" lon="-4.59099">
        <ele>45</ele>
        <time>2025-09-25T16:20:51Z</time>
      </trkpt>
      <trkpt lat="48.40771" lon="-4.59081">
        <ele>44.2</ele>
        <time>2025-09-25T16:20:54Z</time>
      </trkpt>
      <trkpt lat="48.40777" lon="-4.59061">
        <ele>43.8</ele>
        <time>2025-09-25T16:20:57Z</time>
      </trkpt>
      <trkpt lat="48.40778" lon="-4.59054">
        <ele>43.6</ele>
        <time>2025-09-25T16:20:58Z</time>
      </trkpt>
      <trkpt lat="48.40782" lon="-4.59043">
        <ele>43.2</ele>
        <time>2025-09-25T16:21:00Z</time>
      </trkpt>
      <trkpt lat="48.40787" lon="-4.59031">
        <ele>42.8</ele>
        <time>2025-09-25T16:21:02Z</time>
      </trkpt>
      <trkpt lat="48.40795" lon="-4.5901">
        <ele>42</ele>
        <time>2025-09-25T16:21:05Z</time>
      </trkpt>
      <trkpt lat="48.40798" lon="-4.59003">
        <ele>41.8</ele>
        <time>2025-09-25T16:21:06Z</time>
      </trkpt>
      <trkpt lat="48.40807" lon="-4.58981">
        <ele>41.4</ele>
        <time>2025-09-25T16:21:10Z</time>
      </trkpt>
      <trkpt lat="48.40814" lon="-4.5896">
        <ele>40.8</ele>
        <time>2025-09-25T16:21:15Z</time>
      </trkpt>
      <trkpt lat="48.40815" lon="-4.58956">
        <ele>40.6</ele>
        <time>2025-09-25T16:21:16Z</time>
      </trkpt>
      <trkpt lat="48.40826" lon="-4.58931">
        <ele>39.8</ele>
        <time>2025-09-25T16:21:22Z</time>
      </trkpt>
      <trkpt lat="48.40828" lon="-4.58927">
        <ele>39.4</ele>
        <time>2025-09-25T16:21:23Z</time>
      </trkpt>
      <trkpt lat="48.40836" lon="-4.589">
        <ele>39.2</ele>
        <time>2025-09-25T16:21:28Z</time>
      </trkpt>
      <trkpt lat="48.40835" lon="-4.58889">
        <ele>39.2</ele>
        <time>2025-09-25T16:21:30Z</time>
      </trkpt>
      <trkpt lat="48.40833" lon="-4.58886">
        <ele>39.2</ele>
        <time>2025-09-25T16:21:31Z</time>
      </trkpt>
      <trkpt lat="48.40831" lon="-4.58883">
        <ele>39</ele>
        <time>2025-09-25T16:21:32Z</time>
      </trkpt>
      <trkpt lat="48.40825" lon="-4.58876">
        <ele>38.6</ele>
        <time>2025-09-25T16:21:35Z</time>
      </trkpt>
      <trkpt lat="48.40803" lon="-4.58858">
        <ele>39.2</ele>
        <time>2025-09-25T16:21:42Z</time>
      </trkpt>
      <trkpt lat="48.4079" lon="-4.58848">
        <ele>38.8</ele>
        <time>2025-09-25T16:21:45Z</time>
      </trkpt>
      <trkpt lat="48.40782" lon="-4.58841">
        <ele>38.4</ele>
        <time>2025-09-25T16:21:47Z</time>
      </trkpt>
      <trkpt lat="48.40778" lon="-4.58837">
        <ele>38.4</ele>
        <time>2025-09-25T16:21:48Z</time>
      </trkpt>
      <trkpt lat="48.40755" lon="-4.58818">
        <ele>38.2</ele>
        <time>2025-09-25T16:21:55Z</time>
      </trkpt>
      <trkpt lat="48.40735" lon="-4.58796">
        <ele>38</ele>
        <time>2025-09-25T16:22:01Z</time>
      </trkpt>
      <trkpt lat="48.40712" lon="-4.58768">
        <ele>38.2</ele>
        <time>2025-09-25T16:22:09Z</time>
      </trkpt>
      <trkpt lat="48.40699" lon="-4.5874">
        <ele>38.6</ele>
        <time>2025-09-25T16:22:15Z</time>
      </trkpt>
      <trkpt lat="48.4068" lon="-4.58687">
        <ele>38.8</ele>
        <time>2025-09-25T16:22:25Z</time>
      </trkpt>
      <trkpt lat="48.4068" lon="-4.58665">
        <ele>38.8</ele>
        <time>2025-09-25T16:22:29Z</time>
      </trkpt>
      <trkpt lat="48.40683" lon="-4.5865">
        <ele>39.6</ele>
        <time>2025-09-25T16:22:32Z</time>
      </trkpt>
      <trkpt lat="48.40683" lon="-4.58645">
        <ele>39.6</ele>
        <time>2025-09-25T16:22:33Z</time>
      </trkpt>
      <trkpt lat="48.40681" lon="-4.58641">
        <ele>39.8</ele>
        <time>2025-09-25T16:22:34Z</time>
      </trkpt>
      <trkpt lat="48.40671" lon="-4.5863">
        <ele>39.6</ele>
        <time>2025-09-25T16:22:38Z</time>
      </trkpt>
      <trkpt lat="48.40665" lon="-4.58623">
        <ele>39.8</ele>
        <time>2025-09-25T16:22:40Z</time>
      </trkpt>
      <trkpt lat="48.40656" lon="-4.5862">
        <ele>39.8</ele>
        <time>2025-09-25T16:22:43Z</time>
      </trkpt>
      <trkpt lat="48.40654" lon="-4.58621">
        <ele>39.6</ele>
        <time>2025-09-25T16:22:44Z</time>
      </trkpt>
      <trkpt lat="48.4065" lon="-4.58626">
        <ele>39.8</ele>
        <time>2025-09-25T16:22:47Z</time>
      </trkpt>
      <trkpt lat="48.40647" lon="-4.58635">
        <ele>39.8</ele>
        <time>2025-09-25T16:22:50Z</time>
      </trkpt>
      <trkpt lat="48.40645" lon="-4.58637">
        <ele>39.8</ele>
        <time>2025-09-25T16:22:51Z</time>
      </trkpt>
      <trkpt lat="48.40636" lon="-4.58647">
        <ele>39.6</ele>
        <time>2025-09-25T16:22:57Z</time>
      </trkpt>
      <trkpt lat="48.40622" lon="-4.58664">
        <ele>39.6</ele>
        <time>2025-09-25T16:23:04Z</time>
      </trkpt>
      <trkpt lat="48.40615" lon="-4.58673">
        <ele>39.4</ele>
        <time>2025-09-25T16:23:07Z</time>
      </trkpt>
      <trkpt lat="48.40606" lon="-4.58685">
        <ele>39.4</ele>
        <time>2025-09-25T16:23:11Z</time>
      </trkpt>
      <trkpt lat="48.40603" lon="-4.58689">
        <ele>39.4</ele>
        <time>2025-09-25T16:23:12Z</time>
      </trkpt>
      <trkpt lat="48.40589" lon="-4.58709">
        <ele>39.6</ele>
        <time>2025-09-25T16:23:18Z</time>
      </trkpt>
      <trkpt lat="48.40568" lon="-4.58738">
        <ele>39.8</ele>
        <time>2025-09-25T16:23:26Z</time>
      </trkpt>
      <trkpt lat="48.40543" lon="-4.58768">
        <ele>40.2</ele>
        <time>2025-09-25T16:23:35Z</time>
      </trkpt>
      <trkpt lat="48.40527" lon="-4.58786">
        <ele>40.2</ele>
        <time>2025-09-25T16:23:41Z</time>
      </trkpt>
      <trkpt lat="48.40514" lon="-4.58807">
        <ele>40.6</ele>
        <time>2025-09-25T16:23:47Z</time>
      </trkpt>
      <trkpt lat="48.40507" lon="-4.58816">
        <ele>41.8</ele>
        <time>2025-09-25T16:23:51Z</time>
      </trkpt>
      <trkpt lat="48.40505" lon="-4.58817">
        <ele>42</ele>
        <time>2025-09-25T16:23:52Z</time>
      </trkpt>
      <trkpt lat="48.40493" lon="-4.58819">
        <ele>42.4</ele>
        <time>2025-09-25T16:23:57Z</time>
      </trkpt>
      <trkpt lat="48.40476" lon="-4.58825">
        <ele>42.6</ele>
        <time>2025-09-25T16:24:04Z</time>
      </trkpt>
      <trkpt lat="48.40461" lon="-4.58831">
        <ele>42.8</ele>
        <time>2025-09-25T16:24:10Z</time>
      </trkpt>
      <trkpt lat="48.40445" lon="-4.58835">
        <ele>42.8</ele>
        <time>2025-09-25T16:24:16Z</time>
      </trkpt>
      <trkpt lat="48.40428" lon="-4.58843">
        <ele>43.2</ele>
        <time>2025-09-25T16:24:23Z</time>
      </trkpt>
      <trkpt lat="48.40411" lon="-4.58849">
        <ele>43.4</ele>
        <time>2025-09-25T16:24:29Z</time>
      </trkpt>
      <trkpt lat="48.40401" lon="-4.58852">
        <ele>43.8</ele>
        <time>2025-09-25T16:24:34Z</time>
      </trkpt>
      <trkpt lat="48.40399" lon="-4.58851">
        <ele>44</ele>
        <time>2025-09-25T16:24:35Z</time>
      </trkpt>
      <trkpt lat="48.40395" lon="-4.58847">
        <ele>44</ele>
        <time>2025-09-25T16:24:37Z</time>
      </trkpt>
      <trkpt lat="48.40391" lon="-4.5884">
        <ele>44</ele>
        <time>2025-09-25T16:24:39Z</time>
      </trkpt>
      <trkpt lat="48.40376" lon="-4.58819">
        <ele>43.8</ele>
        <time>2025-09-25T16:24:46Z</time>
      </trkpt>
      <trkpt lat="48.40363" lon="-4.58797">
        <ele>43.4</ele>
        <time>2025-09-25T16:24:52Z</time>
      </trkpt>
      <trkpt lat="48.40355" lon="-4.58791">
        <ele>43.4</ele>
        <time>2025-09-25T16:24:55Z</time>
      </trkpt>
      <trkpt lat="48.40347" lon="-4.58789">
        <ele>43.6</ele>
        <time>2025-09-25T16:24:57Z</time>
      </trkpt>
      <trkpt lat="48.40339" lon="-4.58781">
        <ele>43.6</ele>
        <time>2025-09-25T16:25:00Z</time>
      </trkpt>
      <trkpt lat="48.40338" lon="-4.58777">
        <ele>43.6</ele>
        <time>2025-09-25T16:25:01Z</time>
      </trkpt>
      <trkpt lat="48.40337" lon="-4.58755">
        <ele>43.4</ele>
        <time>2025-09-25T16:25:06Z</time>
      </trkpt>
      <trkpt lat="48.40336" lon="-4.58725">
        <ele>42.8</ele>
        <time>2025-09-25T16:25:11Z</time>
      </trkpt>
      <trkpt lat="48.40332" lon="-4.58695">
        <ele>42.4</ele>
        <time>2025-09-25T16:25:16Z</time>
      </trkpt>
      <trkpt lat="48.40322" lon="-4.58667">
        <ele>42.4</ele>
        <time>2025-09-25T16:25:22Z</time>
      </trkpt>
      <trkpt lat="48.40318" lon="-4.58653">
        <ele>42.2</ele>
        <time>2025-09-25T16:25:25Z</time>
      </trkpt>
      <trkpt lat="48.40315" lon="-4.58636">
        <ele>42.2</ele>
        <time>2025-09-25T16:25:28Z</time>
      </trkpt>
      <trkpt lat="48.40314" lon="-4.58629">
        <ele>41.8</ele>
        <time>2025-09-25T16:25:29Z</time>
      </trkpt>
      <trkpt lat="48.40311" lon="-4.58603">
        <ele>41.2</ele>
        <time>2025-09-25T16:25:32Z</time>
      </trkpt>
      <trkpt lat="48.40303" lon="-4.58582">
        <ele>42.8</ele>
        <time>2025-09-25T16:25:36Z</time>
      </trkpt>
      <trkpt lat="48.40295" lon="-4.58566">
        <ele>43.2</ele>
        <time>2025-09-25T16:25:40Z</time>
      </trkpt>
      <trkpt lat="48.40291" lon="-4.5856">
        <ele>43.4</ele>
        <time>2025-09-25T16:25:42Z</time>
      </trkpt>
      <trkpt lat="48.40285" lon="-4.5855">
        <ele>43.2</ele>
        <time>2025-09-25T16:25:45Z</time>
      </trkpt>
      <trkpt lat="48.4028" lon="-4.58542">
        <ele>42.8</ele>
        <time>2025-09-25T16:25:47Z</time>
      </trkpt>
      <trkpt lat="48.40268" lon="-4.5852">
        <ele>42.8</ele>
        <time>2025-09-25T16:25:53Z</time>
      </trkpt>
      <trkpt lat="48.40257" lon="-4.58498">
        <ele>42.4</ele>
        <time>2025-09-25T16:25:58Z</time>
      </trkpt>
      <trkpt lat="48.40245" lon="-4.58475">
        <ele>42</ele>
        <time>2025-09-25T16:26:03Z</time>
      </trkpt>
      <trkpt lat="48.40242" lon="-4.5847">
        <ele>42</ele>
        <time>2025-09-25T16:26:04Z</time>
      </trkpt>
      <trkpt lat="48.40237" lon="-4.58461">
        <ele>41.8</ele>
        <time>2025-09-25T16:26:06Z</time>
      </trkpt>
      <trkpt lat="48.40231" lon="-4.58451">
        <ele>41.6</ele>
        <time>2025-09-25T16:26:08Z</time>
      </trkpt>
      <trkpt lat="48.40223" lon="-4.58437">
        <ele>41.6</ele>
        <time>2025-09-25T16:26:11Z</time>
      </trkpt>
      <trkpt lat="48.40212" lon="-4.58418">
        <ele>41.4</ele>
        <time>2025-09-25T16:26:15Z</time>
      </trkpt>
      <trkpt lat="48.40205" lon="-4.58406">
        <ele>41.6</ele>
        <time>2025-09-25T16:26:18Z</time>
      </trkpt>
      <trkpt lat="48.40192" lon="-4.58381">
        <ele>42</ele>
        <time>2025-09-25T16:26:25Z</time>
      </trkpt>
      <trkpt lat="48.40178" lon="-4.58355">
        <ele>41.8</ele>
        <time>2025-09-25T16:26:31Z</time>
      </trkpt>
      <trkpt lat="48.40159" lon="-4.58326">
        <ele>41.4</ele>
        <time>2025-09-25T16:26:38Z</time>
      </trkpt>
      <trkpt lat="48.40136" lon="-4.58289">
        <ele>41.4</ele>
        <time>2025-09-25T16:26:47Z</time>
      </trkpt>
      <trkpt lat="48.40119" lon="-4.58259">
        <ele>41.4</ele>
        <time>2025-09-25T16:26:54Z</time>
      </trkpt>
      <trkpt lat="48.40111" lon="-4.58238">
        <ele>42</ele>
        <time>2025-09-25T16:26:59Z</time>
      </trkpt>
      <trkpt lat="48.40105" lon="-4.58213">
        <ele>42.6</ele>
        <time>2025-09-25T16:27:05Z</time>
      </trkpt>
      <trkpt lat="48.40103" lon="-4.58204">
        <ele>42.8</ele>
        <time>2025-09-25T16:27:07Z</time>
      </trkpt>
      <trkpt lat="48.40097" lon="-4.58181">
        <ele>43.4</ele>
        <time>2025-09-25T16:27:12Z</time>
      </trkpt>
      <trkpt lat="48.40096" lon="-4.58173">
        <ele>43.8</ele>
        <time>2025-09-25T16:27:14Z</time>
      </trkpt>
      <trkpt lat="48.40089" lon="-4.58147">
        <ele>44</ele>
        <time>2025-09-25T16:27:20Z</time>
      </trkpt>
      <trkpt lat="48.40075" lon="-4.58099">
        <ele>43.8</ele>
        <time>2025-09-25T16:27:29Z</time>
      </trkpt>
      <trkpt lat="48.40067" lon="-4.58072">
        <ele>43.2</ele>
        <time>2025-09-25T16:27:34Z</time>
      </trkpt>
      <trkpt lat="48.40064" lon="-4.58059">
        <ele>43.2</ele>
        <time>2025-09-25T16:27:36Z</time>
      </trkpt>
      <trkpt lat="48.40059" lon="-4.58036">
        <ele>43.2</ele>
        <time>2025-09-25T16:27:40Z</time>
      </trkpt>
      <trkpt lat="48.40057" lon="-4.58032">
        <ele>43.4</ele>
        <time>2025-09-25T16:27:41Z</time>
      </trkpt>
      <trkpt lat="48.40053" lon="-4.58029">
        <ele>43.4</ele>
        <time>2025-09-25T16:27:42Z</time>
      </trkpt>
      <trkpt lat="48.40046" lon="-4.58027">
        <ele>43</ele>
        <time>2025-09-25T16:27:44Z</time>
      </trkpt>
      <trkpt lat="48.40041" lon="-4.58027">
        <ele>42.8</ele>
        <time>2025-09-25T16:27:45Z</time>
      </trkpt>
      <trkpt lat="48.40025" lon="-4.58027">
        <ele>42.2</ele>
        <time>2025-09-25T16:27:48Z</time>
      </trkpt>
      <trkpt lat="48.40009" lon="-4.58027">
        <ele>41.8</ele>
        <time>2025-09-25T16:27:51Z</time>
      </trkpt>
      <trkpt lat="48.39992" lon="-4.58026">
        <ele>41.4</ele>
        <time>2025-09-25T16:27:54Z</time>
      </trkpt>
      <trkpt lat="48.39973" lon="-4.5802">
        <ele>41.4</ele>
        <time>2025-09-25T16:27:58Z</time>
      </trkpt>
      <trkpt lat="48.39969" lon="-4.58018">
        <ele>41.4</ele>
        <time>2025-09-25T16:27:59Z</time>
      </trkpt>
      <trkpt lat="48.39948" lon="-4.58014">
        <ele>41.2</ele>
        <time>2025-09-25T16:28:04Z</time>
      </trkpt>
      <trkpt lat="48.39922" lon="-4.58009">
        <ele>41.6</ele>
        <time>2025-09-25T16:28:10Z</time>
      </trkpt>
      <trkpt lat="48.39889" lon="-4.58">
        <ele>42</ele>
        <time>2025-09-25T16:28:17Z</time>
      </trkpt>
      <trkpt lat="48.39865" lon="-4.57993">
        <ele>42.2</ele>
        <time>2025-09-25T16:28:23Z</time>
      </trkpt>
      <trkpt lat="48.39837" lon="-4.57987">
        <ele>42.6</ele>
        <time>2025-09-25T16:28:30Z</time>
      </trkpt>
      <trkpt lat="48.39811" lon="-4.5798">
        <ele>42.2</ele>
        <time>2025-09-25T16:28:36Z</time>
      </trkpt>
      <trkpt lat="48.39787" lon="-4.57974">
        <ele>42</ele>
        <time>2025-09-25T16:28:41Z</time>
      </trkpt>
      <trkpt lat="48.39777" lon="-4.57973">
        <ele>42</ele>
        <time>2025-09-25T16:28:43Z</time>
      </trkpt>
      <trkpt lat="48.39763" lon="-4.5797">
        <ele>42.2</ele>
        <time>2025-09-25T16:28:46Z</time>
      </trkpt>
      <trkpt lat="48.39737" lon="-4.57959">
        <ele>42.6</ele>
        <time>2025-09-25T16:28:52Z</time>
      </trkpt>
      <trkpt lat="48.3971" lon="-4.57955">
        <ele>42.2</ele>
        <time>2025-09-25T16:28:58Z</time>
      </trkpt>
      <trkpt lat="48.39685" lon="-4.57948">
        <ele>42.4</ele>
        <time>2025-09-25T16:29:04Z</time>
      </trkpt>
      <trkpt lat="48.39659" lon="-4.57943">
        <ele>42.6</ele>
        <time>2025-09-25T16:29:10Z</time>
      </trkpt>
      <trkpt lat="48.39636" lon="-4.57937">
        <ele>42.4</ele>
        <time>2025-09-25T16:29:16Z</time>
      </trkpt>
      <trkpt lat="48.39615" lon="-4.57933">
        <ele>42.8</ele>
        <time>2025-09-25T16:29:21Z</time>
      </trkpt>
      <trkpt lat="48.39612" lon="-4.57935">
        <ele>42.8</ele>
        <time>2025-09-25T16:29:22Z</time>
      </trkpt>
      <trkpt lat="48.39608" lon="-4.57947">
        <ele>43.2</ele>
        <time>2025-09-25T16:29:26Z</time>
      </trkpt>
      <trkpt lat="48.39604" lon="-4.57969">
        <ele>43.2</ele>
        <time>2025-09-25T16:29:32Z</time>
      </trkpt>
      <trkpt lat="48.39604" lon="-4.57974">
        <ele>43.2</ele>
        <time>2025-09-25T16:29:33Z</time>
      </trkpt>
      <trkpt lat="48.39601" lon="-4.58016">
        <ele>43.4</ele>
        <time>2025-09-25T16:29:42Z</time>
      </trkpt>
      <trkpt lat="48.39599" lon="-4.58036">
        <ele>43.8</ele>
        <time>2025-09-25T16:29:46Z</time>
      </trkpt>
      <trkpt lat="48.39594" lon="-4.58054">
        <ele>44</ele>
        <time>2025-09-25T16:29:50Z</time>
      </trkpt>
      <trkpt lat="48.39591" lon="-4.58066">
        <ele>44.4</ele>
        <time>2025-09-25T16:29:53Z</time>
      </trkpt>
      <trkpt lat="48.39584" lon="-4.58087">
        <ele>44.6</ele>
        <time>2025-09-25T16:29:58Z</time>
      </trkpt>
      <trkpt lat="48.3957" lon="-4.58129">
        <ele>44.6</ele>
        <time>2025-09-25T16:30:07Z</time>
      </trkpt>
      <trkpt lat="48.39565" lon="-4.58148">
        <ele>44.8</ele>
        <time>2025-09-25T16:30:11Z</time>
      </trkpt>
      <trkpt lat="48.39561" lon="-4.58166">
        <ele>44.8</ele>
        <time>2025-09-25T16:30:15Z</time>
      </trkpt>
      <trkpt lat="48.39556" lon="-4.582">
        <ele>45</ele>
        <time>2025-09-25T16:30:22Z</time>
      </trkpt>
      <trkpt lat="48.39549" lon="-4.58226">
        <ele>45.6</ele>
        <time>2025-09-25T16:30:28Z</time>
      </trkpt>
      <trkpt lat="48.39539" lon="-4.58258">
        <ele>45.6</ele>
        <time>2025-09-25T16:30:35Z</time>
      </trkpt>
      <trkpt lat="48.39539" lon="-4.58264">
        <ele>45.6</ele>
        <time>2025-09-25T16:30:36Z</time>
      </trkpt>
      <trkpt lat="48.39537" lon="-4.58278">
        <ele>46</ele>
        <time>2025-09-25T16:30:39Z</time>
      </trkpt>
      <trkpt lat="48.39536" lon="-4.5829">
        <ele>46.4</ele>
        <time>2025-09-25T16:30:42Z</time>
      </trkpt>
      <trkpt lat="48.39536" lon="-4.58322">
        <ele>45.8</ele>
        <time>2025-09-25T16:30:49Z</time>
      </trkpt>
      <trkpt lat="48.39537" lon="-4.58352">
        <ele>45.8</ele>
        <time>2025-09-25T16:30:55Z</time>
      </trkpt>
      <trkpt lat="48.39539" lon="-4.5841">
        <ele>45.8</ele>
        <time>2025-09-25T16:31:05Z</time>
      </trkpt>
      <trkpt lat="48.39538" lon="-4.58447">
        <ele>45.6</ele>
        <time>2025-09-25T16:31:11Z</time>
      </trkpt>
      <trkpt lat="48.39537" lon="-4.58453">
        <ele>45.8</ele>
        <time>2025-09-25T16:31:12Z</time>
      </trkpt>
      <trkpt lat="48.39535" lon="-4.58483">
        <ele>46</ele>
        <time>2025-09-25T16:31:17Z</time>
      </trkpt>
      <trkpt lat="48.39534" lon="-4.58494">
        <ele>46</ele>
        <time>2025-09-25T16:31:19Z</time>
      </trkpt>
      <trkpt lat="48.39532" lon="-4.58547">
        <ele>46.6</ele>
        <time>2025-09-25T16:31:29Z</time>
      </trkpt>
      <trkpt lat="48.39535" lon="-4.58574">
        <ele>46.8</ele>
        <time>2025-09-25T16:31:35Z</time>
      </trkpt>
      <trkpt lat="48.39538" lon="-4.58593">
        <ele>47</ele>
        <time>2025-09-25T16:31:39Z</time>
      </trkpt>
      <trkpt lat="48.3954" lon="-4.58616">
        <ele>47.2</ele>
        <time>2025-09-25T16:31:44Z</time>
      </trkpt>
      <trkpt lat="48.39544" lon="-4.58643">
        <ele>48</ele>
        <time>2025-09-25T16:31:50Z</time>
      </trkpt>
      <trkpt lat="48.39547" lon="-4.58672">
        <ele>48.4</ele>
        <time>2025-09-25T16:31:57Z</time>
      </trkpt>
      <trkpt lat="48.39547" lon="-4.58676">
        <ele>48.4</ele>
        <time>2025-09-25T16:31:58Z</time>
      </trkpt>
      <trkpt lat="48.39549" lon="-4.58699">
        <ele>49</ele>
        <time>2025-09-25T16:32:04Z</time>
      </trkpt>
      <trkpt lat="48.3955" lon="-4.58706">
        <ele>49.2</ele>
        <time>2025-09-25T16:32:06Z</time>
      </trkpt>
      <trkpt lat="48.39553" lon="-4.58737">
        <ele>49.8</ele>
        <time>2025-09-25T16:32:14Z</time>
      </trkpt>
      <trkpt lat="48.39557" lon="-4.5876">
        <ele>50</ele>
        <time>2025-09-25T16:32:20Z</time>
      </trkpt>
      <trkpt lat="48.39559" lon="-4.58768">
        <ele>50</ele>
        <time>2025-09-25T16:32:22Z</time>
      </trkpt>
      <trkpt lat="48.39563" lon="-4.58793">
        <ele>50.6</ele>
        <time>2025-09-25T16:32:29Z</time>
      </trkpt>
      <trkpt lat="48.39567" lon="-4.5882">
        <ele>51</ele>
        <time>2025-09-25T16:32:37Z</time>
      </trkpt>
      <trkpt lat="48.39568" lon="-4.58825">
        <ele>51</ele>
        <time>2025-09-25T16:32:39Z</time>
      </trkpt>
      <trkpt lat="48.39569" lon="-4.58828">
        <ele>51.2</ele>
        <time>2025-09-25T16:32:40Z</time>
      </trkpt>
      <trkpt lat="48.3957" lon="-4.5884">
        <ele>51.4</ele>
        <time>2025-09-25T16:32:45Z</time>
      </trkpt>
      <trkpt lat="48.39571" lon="-4.58855">
        <ele>52</ele>
        <time>2025-09-25T16:32:51Z</time>
      </trkpt>
      <trkpt lat="48.39571" lon="-4.58858">
        <ele>52.2</ele>
        <time>2025-09-25T16:32:52Z</time>
      </trkpt>
      <trkpt lat="48.39569" lon="-4.58868">
        <ele>52.6</ele>
        <time>2025-09-25T16:32:56Z</time>
      </trkpt>
      <trkpt lat="48.39564" lon="-4.58886">
        <ele>53.2</ele>
        <time>2025-09-25T16:33:02Z</time>
      </trkpt>
      <trkpt lat="48.39563" lon="-4.5889">
        <ele>53.4</ele>
        <time>2025-09-25T16:33:03Z</time>
      </trkpt>
      <trkpt lat="48.39557" lon="-4.58915">
        <ele>53.8</ele>
        <time>2025-09-25T16:33:10Z</time>
      </trkpt>
      <trkpt lat="48.39557" lon="-4.58934">
        <ele>54.2</ele>
        <time>2025-09-25T16:33:16Z</time>
      </trkpt>
      <trkpt lat="48.39558" lon="-4.58957">
        <ele>54</ele>
        <time>2025-09-25T16:33:23Z</time>
      </trkpt>
      <trkpt lat="48.39558" lon="-4.58977">
        <ele>54.4</ele>
        <time>2025-09-25T16:33:29Z</time>
      </trkpt>
      <trkpt lat="48.39557" lon="-4.58986">
        <ele>54.4</ele>
        <time>2025-09-25T16:33:32Z</time>
      </trkpt>
      <trkpt lat="48.39555" lon="-4.59004">
        <ele>55.4</ele>
        <time>2025-09-25T16:33:38Z</time>
      </trkpt>
      <trkpt lat="48.39555" lon="-4.59007">
        <ele>55.6</ele>
        <time>2025-09-25T16:33:39Z</time>
      </trkpt>
      <trkpt lat="48.39552" lon="-4.59022">
        <ele>55.8</ele>
        <time>2025-09-25T16:33:45Z</time>
      </trkpt>
      <trkpt lat="48.39552" lon="-4.59037">
        <ele>56</ele>
        <time>2025-09-25T16:33:50Z</time>
      </trkpt>
      <trkpt lat="48.39556" lon="-4.59054">
        <ele>56.2</ele>
        <time>2025-09-25T16:33:55Z</time>
      </trkpt>
      <trkpt lat="48.39558" lon="-4.59061">
        <ele>56.4</ele>
        <time>2025-09-25T16:33:57Z</time>
      </trkpt>
      <trkpt lat="48.39561" lon="-4.5908">
        <ele>56.8</ele>
        <time>2025-09-25T16:34:02Z</time>
      </trkpt>
      <trkpt lat="48.39561" lon="-4.59099">
        <ele>57.4</ele>
        <time>2025-09-25T16:34:09Z</time>
      </trkpt>
      <trkpt lat="48.39561" lon="-4.59101">
        <ele>57.4</ele>
        <time>2025-09-25T16:34:10Z</time>
      </trkpt>
      <trkpt lat="48.3956" lon="-4.59111">
        <ele>57.8</ele>
        <time>2025-09-25T16:34:14Z</time>
      </trkpt>
      <trkpt lat="48.39561" lon="-4.59135">
        <ele>58.4</ele>
        <time>2025-09-25T16:34:21Z</time>
      </trkpt>
      <trkpt lat="48.39559" lon="-4.59147">
        <ele>59</ele>
        <time>2025-09-25T16:34:26Z</time>
      </trkpt>
      <trkpt lat="48.39557" lon="-4.59151">
        <ele>59.2</ele>
        <time>2025-09-25T16:34:28Z</time>
      </trkpt>
      <trkpt lat="48.39555" lon="-4.59154">
        <ele>59.4</ele>
        <time>2025-09-25T16:34:30Z</time>
      </trkpt>
      <trkpt lat="48.39552" lon="-4.59158">
        <ele>59.8</ele>
        <time>2025-09-25T16:34:33Z</time>
      </trkpt>
      <trkpt lat="48.39539" lon="-4.5917">
        <ele>60.2</ele>
        <time>2025-09-25T16:34:41Z</time>
      </trkpt>
      <trkpt lat="48.39536" lon="-4.59172">
        <ele>60.4</ele>
        <time>2025-09-25T16:34:43Z</time>
      </trkpt>
      <trkpt lat="48.39526" lon="-4.59186">
        <ele>60.8</ele>
        <time>2025-09-25T16:34:50Z</time>
      </trkpt>
      <trkpt lat="48.39525" lon="-4.59188">
        <ele>60.8</ele>
        <time>2025-09-25T16:34:51Z</time>
      </trkpt>
      <trkpt lat="48.39519" lon="-4.592">
        <ele>61.4</ele>
        <time>2025-09-25T16:34:57Z</time>
      </trkpt>
      <trkpt lat="48.39517" lon="-4.59207">
        <ele>61.6</ele>
        <time>2025-09-25T16:34:59Z</time>
      </trkpt>
      <trkpt lat="48.39516" lon="-4.59232">
        <ele>62.2</ele>
        <time>2025-09-25T16:35:07Z</time>
      </trkpt>
      <trkpt lat="48.39516" lon="-4.59251">
        <ele>62.6</ele>
        <time>2025-09-25T16:35:13Z</time>
      </trkpt>
      <trkpt lat="48.39517" lon="-4.59258">
        <ele>62.8</ele>
        <time>2025-09-25T16:35:15Z</time>
      </trkpt>
      <trkpt lat="48.39518" lon="-4.59284">
        <ele>63.2</ele>
        <time>2025-09-25T16:35:23Z</time>
      </trkpt>
      <trkpt lat="48.39518" lon="-4.593">
        <ele>63.6</ele>
        <time>2025-09-25T16:35:28Z</time>
      </trkpt>
      <trkpt lat="48.39518" lon="-4.59306">
        <ele>63.6</ele>
        <time>2025-09-25T16:35:30Z</time>
      </trkpt>
      <trkpt lat="48.39518" lon="-4.59331">
        <ele>64.2</ele>
        <time>2025-09-25T16:35:38Z</time>
      </trkpt>
      <trkpt lat="48.39516" lon="-4.59363">
        <ele>64.6</ele>
        <time>2025-09-25T16:35:48Z</time>
      </trkpt>
      <trkpt lat="48.39515" lon="-4.59372">
        <ele>64.8</ele>
        <time>2025-09-25T16:35:51Z</time>
      </trkpt>
      <trkpt lat="48.39513" lon="-4.59393">
        <ele>65.2</ele>
        <time>2025-09-25T16:35:57Z</time>
      </trkpt>
      <trkpt lat="48.39508" lon="-4.59423">
        <ele>65.6</ele>
        <time>2025-09-25T16:36:06Z</time>
      </trkpt>
      <trkpt lat="48.39507" lon="-4.5943">
        <ele>65.8</ele>
        <time>2025-09-25T16:36:08Z</time>
      </trkpt>
      <trkpt lat="48.39503" lon="-4.59452">
        <ele>65.8</ele>
        <time>2025-09-25T16:36:14Z</time>
      </trkpt>
      <trkpt lat="48.39497" lon="-4.59491">
        <ele>66.4</ele>
        <time>2025-09-25T16:36:24Z</time>
      </trkpt>
      <trkpt lat="48.39492" lon="-4.59528">
        <ele>66.4</ele>
        <time>2025-09-25T16:36:34Z</time>
      </trkpt>
      <trkpt lat="48.39492" lon="-4.59554">
        <ele>66.6</ele>
        <time>2025-09-25T16:36:41Z</time>
      </trkpt>
      <trkpt lat="48.39492" lon="-4.59567">
        <ele>66.8</ele>
        <time>2025-09-25T16:36:44Z</time>
      </trkpt>
      <trkpt lat="48.39491" lon="-4.59579">
        <ele>66.8</ele>
        <time>2025-09-25T16:36:47Z</time>
      </trkpt>
      <trkpt lat="48.39491" lon="-4.59604">
        <ele>67</ele>
        <time>2025-09-25T16:36:53Z</time>
      </trkpt>
      <trkpt lat="48.3949" lon="-4.59641">
        <ele>67.4</ele>
        <time>2025-09-25T16:37:01Z</time>
      </trkpt>
      <trkpt lat="48.39488" lon="-4.59665">
        <ele>67.2</ele>
        <time>2025-09-25T16:37:06Z</time>
      </trkpt>
      <trkpt lat="48.39488" lon="-4.59713">
        <ele>66.8</ele>
        <time>2025-09-25T16:37:15Z</time>
      </trkpt>
      <trkpt lat="48.39488" lon="-4.59719">
        <ele>66.8</ele>
        <time>2025-09-25T16:37:16Z</time>
      </trkpt>
      <trkpt lat="48.39488" lon="-4.59748">
        <ele>66.4</ele>
        <time>2025-09-25T16:37:21Z</time>
      </trkpt>
      <trkpt lat="48.39487" lon="-4.59765">
        <ele>66.2</ele>
        <time>2025-09-25T16:37:24Z</time>
      </trkpt>
      <trkpt lat="48.39487" lon="-4.59771">
        <ele>66.2</ele>
        <time>2025-09-25T16:37:25Z</time>
      </trkpt>
      <trkpt lat="48.39487" lon="-4.59786">
        <ele>65.8</ele>
        <time>2025-09-25T16:37:28Z</time>
      </trkpt>
      <trkpt lat="48.39487" lon="-4.59789">
        <ele>65.8</ele>
        <time>2025-09-25T16:37:29Z</time>
      </trkpt>
      <trkpt lat="48.39486" lon="-4.59795">
        <ele>65.8</ele>
        <time>2025-09-25T16:37:32Z</time>
      </trkpt>
      <trkpt lat="48.39485" lon="-4.59803">
        <ele>65.6</ele>
        <time>2025-09-25T16:37:36Z</time>
      </trkpt>
      <trkpt lat="48.39482" lon="-4.59805">
        <ele>65.6</ele>
        <time>2025-09-25T16:37:37Z</time>
      </trkpt>
      <trkpt lat="48.3948" lon="-4.59805">
        <ele>65.6</ele>
        <time>2025-09-25T16:37:38Z</time>
      </trkpt>
      <trkpt lat="48.39473" lon="-4.59802">
        <ele>66</ele>
        <time>2025-09-25T16:37:41Z</time>
      </trkpt>
      <trkpt lat="48.39457" lon="-4.59793">
        <ele>66.8</ele>
        <time>2025-09-25T16:37:48Z</time>
      </trkpt>
      <trkpt lat="48.39449" lon="-4.59789">
        <ele>67</ele>
        <time>2025-09-25T16:37:51Z</time>
      </trkpt>
      <trkpt lat="48.3943" lon="-4.59778">
        <ele>67.8</ele>
        <time>2025-09-25T16:37:59Z</time>
      </trkpt>
      <trkpt lat="48.39427" lon="-4.59777">
        <ele>67.8</ele>
        <time>2025-09-25T16:38:00Z</time>
      </trkpt>
      <trkpt lat="48.39415" lon="-4.59772">
        <ele>68</ele>
        <time>2025-09-25T16:38:04Z</time>
      </trkpt>
      <trkpt lat="48.39399" lon="-4.59765">
        <ele>68.2</ele>
        <time>2025-09-25T16:38:09Z</time>
      </trkpt>
      <trkpt lat="48.39393" lon="-4.59762">
        <ele>68.4</ele>
        <time>2025-09-25T16:38:11Z</time>
      </trkpt>
      <trkpt lat="48.3939" lon="-4.5976">
        <ele>68.4</ele>
        <time>2025-09-25T16:38:12Z</time>
      </trkpt>
      <trkpt lat="48.39384" lon="-4.59757">
        <ele>68.8</ele>
        <time>2025-09-25T16:38:14Z</time>
      </trkpt>
      <trkpt lat="48.39382" lon="-4.59755">
        <ele>68.8</ele>
        <time>2025-09-25T16:38:15Z</time>
      </trkpt>
      <trkpt lat="48.39376" lon="-4.59751">
        <ele>69</ele>
        <time>2025-09-25T16:38:17Z</time>
      </trkpt>
      <trkpt lat="48.39373" lon="-4.5975">
        <ele>69.2</ele>
        <time>2025-09-25T16:38:18Z</time>
      </trkpt>
      <trkpt lat="48.39349" lon="-4.59728">
        <ele>68.6</ele>
        <time>2025-09-25T16:38:26Z</time>
      </trkpt>
      <trkpt lat="48.39332" lon="-4.59716">
        <ele>68.8</ele>
        <time>2025-09-25T16:38:32Z</time>
      </trkpt>
      <trkpt lat="48.39312" lon="-4.59703">
        <ele>67.8</ele>
        <time>2025-09-25T16:38:37Z</time>
      </trkpt>
      <trkpt lat="48.39307" lon="-4.59701">
        <ele>67.6</ele>
        <time>2025-09-25T16:38:38Z</time>
      </trkpt>
      <trkpt lat="48.3929" lon="-4.59695">
        <ele>66.6</ele>
        <time>2025-09-25T16:38:41Z</time>
      </trkpt>
      <trkpt lat="48.39284" lon="-4.59692">
        <ele>66.2</ele>
        <time>2025-09-25T16:38:42Z</time>
      </trkpt>
      <trkpt lat="48.39268" lon="-4.59682">
        <ele>65.6</ele>
        <time>2025-09-25T16:38:45Z</time>
      </trkpt>
      <trkpt lat="48.39245" lon="-4.59669">
        <ele>64.8</ele>
        <time>2025-09-25T16:38:49Z</time>
      </trkpt>
      <trkpt lat="48.39239" lon="-4.59665">
        <ele>64.2</ele>
        <time>2025-09-25T16:38:50Z</time>
      </trkpt>
      <trkpt lat="48.3922" lon="-4.59653">
        <ele>62.8</ele>
        <time>2025-09-25T16:38:53Z</time>
      </trkpt>
      <trkpt lat="48.39214" lon="-4.59649">
        <ele>62.4</ele>
        <time>2025-09-25T16:38:54Z</time>
      </trkpt>
      <trkpt lat="48.392" lon="-4.5964">
        <ele>61.4</ele>
        <time>2025-09-25T16:38:56Z</time>
      </trkpt>
      <trkpt lat="48.39172" lon="-4.59619">
        <ele>60</ele>
        <time>2025-09-25T16:39:00Z</time>
      </trkpt>
      <trkpt lat="48.39165" lon="-4.59614">
        <ele>59.8</ele>
        <time>2025-09-25T16:39:01Z</time>
      </trkpt>
      <trkpt lat="48.39143" lon="-4.59596">
        <ele>59</ele>
        <time>2025-09-25T16:39:04Z</time>
      </trkpt>
      <trkpt lat="48.39122" lon="-4.59577">
        <ele>59</ele>
        <time>2025-09-25T16:39:07Z</time>
      </trkpt>
      <trkpt lat="48.39094" lon="-4.59558">
        <ele>58.8</ele>
        <time>2025-09-25T16:39:11Z</time>
      </trkpt>
      <trkpt lat="48.39087" lon="-4.59555">
        <ele>59</ele>
        <time>2025-09-25T16:39:12Z</time>
      </trkpt>
      <trkpt lat="48.39058" lon="-4.59546">
        <ele>60</ele>
        <time>2025-09-25T16:39:17Z</time>
      </trkpt>
      <trkpt lat="48.39052" lon="-4.59546">
        <ele>60.2</ele>
        <time>2025-09-25T16:39:18Z</time>
      </trkpt>
      <trkpt lat="48.39037" lon="-4.59544">
        <ele>61.4</ele>
        <time>2025-09-25T16:39:21Z</time>
      </trkpt>
      <trkpt lat="48.39024" lon="-4.59542">
        <ele>62.2</ele>
        <time>2025-09-25T16:39:24Z</time>
      </trkpt>
      <trkpt lat="48.39019" lon="-4.59541">
        <ele>62.4</ele>
        <time>2025-09-25T16:39:25Z</time>
      </trkpt>
      <trkpt lat="48.38996" lon="-4.59538">
        <ele>63.2</ele>
        <time>2025-09-25T16:39:31Z</time>
      </trkpt>
      <trkpt lat="48.38993" lon="-4.59537">
        <ele>63.4</ele>
        <time>2025-09-25T16:39:32Z</time>
      </trkpt>
      <trkpt lat="48.38974" lon="-4.59532">
        <ele>64.6</ele>
        <time>2025-09-25T16:39:38Z</time>
      </trkpt>
      <trkpt lat="48.38971" lon="-4.59531">
        <ele>64.8</ele>
        <time>2025-09-25T16:39:39Z</time>
      </trkpt>
      <trkpt lat="48.38955" lon="-4.59526">
        <ele>65.6</ele>
        <time>2025-09-25T16:39:45Z</time>
      </trkpt>
      <trkpt lat="48.3895" lon="-4.59524">
        <ele>66</ele>
        <time>2025-09-25T16:39:47Z</time>
      </trkpt>
      <trkpt lat="48.38942" lon="-4.59521">
        <ele>66.6</ele>
        <time>2025-09-25T16:39:50Z</time>
      </trkpt>
      <trkpt lat="48.3894" lon="-4.5952">
        <ele>66.8</ele>
        <time>2025-09-25T16:39:51Z</time>
      </trkpt>
      <trkpt lat="48.38933" lon="-4.59516">
        <ele>67.2</ele>
        <time>2025-09-25T16:39:54Z</time>
      </trkpt>
      <trkpt lat="48.38926" lon="-4.59513">
        <ele>67.8</ele>
        <time>2025-09-25T16:39:57Z</time>
      </trkpt>
      <trkpt lat="48.38917" lon="-4.59508">
        <ele>68.6</ele>
        <time>2025-09-25T16:40:01Z</time>
      </trkpt>
      <trkpt lat="48.38915" lon="-4.59506">
        <ele>68.8</ele>
        <time>2025-09-25T16:40:02Z</time>
      </trkpt>
      <trkpt lat="48.38902" lon="-4.59496">
        <ele>69.6</ele>
        <time>2025-09-25T16:40:08Z</time>
      </trkpt>
      <trkpt lat="48.38898" lon="-4.59494">
        <ele>69.8</ele>
        <time>2025-09-25T16:40:10Z</time>
      </trkpt>
      <trkpt lat="48.38885" lon="-4.59484">
        <ele>70.2</ele>
        <time>2025-09-25T16:40:15Z</time>
      </trkpt>
      <trkpt lat="48.3887" lon="-4.59471">
        <ele>70.8</ele>
        <time>2025-09-25T16:40:22Z</time>
      </trkpt>
      <trkpt lat="48.38853" lon="-4.59456">
        <ele>71.4</ele>
        <time>2025-09-25T16:40:30Z</time>
      </trkpt>
      <trkpt lat="48.38838" lon="-4.59443">
        <ele>71.6</ele>
        <time>2025-09-25T16:40:37Z</time>
      </trkpt>
      <trkpt lat="48.38825" lon="-4.59435">
        <ele>71.8</ele>
        <time>2025-09-25T16:40:44Z</time>
      </trkpt>
      <trkpt lat="48.38823" lon="-4.59433">
        <ele>72</ele>
        <time>2025-09-25T16:40:45Z</time>
      </trkpt>
      <trkpt lat="48.3881" lon="-4.59424">
        <ele>72.2</ele>
        <time>2025-09-25T16:40:51Z</time>
      </trkpt>
      <trkpt lat="48.38796" lon="-4.5941">
        <ele>72.4</ele>
        <time>2025-09-25T16:40:58Z</time>
      </trkpt>
      <trkpt lat="48.3878" lon="-4.59396">
        <ele>72</ele>
        <time>2025-09-25T16:41:05Z</time>
      </trkpt>
      <trkpt lat="48.3875" lon="-4.5937">
        <ele>71.8</ele>
        <time>2025-09-25T16:41:14Z</time>
      </trkpt>
      <trkpt lat="48.38732" lon="-4.59353">
        <ele>71.8</ele>
        <time>2025-09-25T16:41:20Z</time>
      </trkpt>
      <trkpt lat="48.38727" lon="-4.59348">
        <ele>72.2</ele>
        <time>2025-09-25T16:41:22Z</time>
      </trkpt>
      <trkpt lat="48.38722" lon="-4.59346">
        <ele>72.6</ele>
        <time>2025-09-25T16:41:24Z</time>
      </trkpt>
      <trkpt lat="48.38719" lon="-4.59346">
        <ele>72.8</ele>
        <time>2025-09-25T16:41:25Z</time>
      </trkpt>
      <trkpt lat="48.38717" lon="-4.59347">
        <ele>73</ele>
        <time>2025-09-25T16:41:26Z</time>
      </trkpt>
      <trkpt lat="48.38715" lon="-4.59348">
        <ele>73.2</ele>
        <time>2025-09-25T16:41:27Z</time>
      </trkpt>
      <trkpt lat="48.38703" lon="-4.59355">
        <ele>74</ele>
        <time>2025-09-25T16:41:33Z</time>
      </trkpt>
      <trkpt lat="48.38701" lon="-4.59356">
        <ele>74.2</ele>
        <time>2025-09-25T16:41:34Z</time>
      </trkpt>
      <trkpt lat="48.38686" lon="-4.59365">
        <ele>75</ele>
        <time>2025-09-25T16:41:41Z</time>
      </trkpt>
      <trkpt lat="48.38673" lon="-4.5937">
        <ele>76</ele>
        <time>2025-09-25T16:41:47Z</time>
      </trkpt>
      <trkpt lat="48.38672" lon="-4.5937">
        <ele>76.2</ele>
        <time>2025-09-25T16:41:48Z</time>
      </trkpt>
      <trkpt lat="48.38664" lon="-4.59373">
        <ele>76.8</ele>
        <time>2025-09-25T16:41:52Z</time>
      </trkpt>
      <trkpt lat="48.38663" lon="-4.59373">
        <ele>77</ele>
        <time>2025-09-25T16:41:53Z</time>
      </trkpt>
      <trkpt lat="48.38659" lon="-4.59374">
        <ele>77.2</ele>
        <time>2025-09-25T16:41:55Z</time>
      </trkpt>
      <trkpt lat="48.38649" lon="-4.59378">
        <ele>78</ele>
        <time>2025-09-25T16:42:00Z</time>
      </trkpt>
      <trkpt lat="48.38645" lon="-4.59379">
        <ele>78.4</ele>
        <time>2025-09-25T16:42:03Z</time>
      </trkpt>
      <trkpt lat="48.38641" lon="-4.59381">
        <ele>78.6</ele>
        <time>2025-09-25T16:42:05Z</time>
      </trkpt>
      <trkpt lat="48.38629" lon="-4.59385">
        <ele>79.4</ele>
        <time>2025-09-25T16:42:11Z</time>
      </trkpt>
      <trkpt lat="48.38627" lon="-4.59387">
        <ele>79.6</ele>
        <time>2025-09-25T16:42:12Z</time>
      </trkpt>
      <trkpt lat="48.38615" lon="-4.59395">
        <ele>80.2</ele>
        <time>2025-09-25T16:42:18Z</time>
      </trkpt>
      <trkpt lat="48.38611" lon="-4.59397">
        <ele>80.4</ele>
        <time>2025-09-25T16:42:20Z</time>
      </trkpt>
      <trkpt lat="48.38603" lon="-4.59403">
        <ele>81</ele>
        <time>2025-09-25T16:42:25Z</time>
      </trkpt>
      <trkpt lat="48.386" lon="-4.59406">
        <ele>81.6</ele>
        <time>2025-09-25T16:42:27Z</time>
      </trkpt>
      <trkpt lat="48.38593" lon="-4.5941">
        <ele>82.4</ele>
        <time>2025-09-25T16:42:32Z</time>
      </trkpt>
      <trkpt lat="48.38589" lon="-4.59411">
        <ele>82.6</ele>
        <time>2025-09-25T16:42:34Z</time>
      </trkpt>
      <trkpt lat="48.38585" lon="-4.59412">
        <ele>83</ele>
        <time>2025-09-25T16:42:37Z</time>
      </trkpt>
      <trkpt lat="48.38577" lon="-4.59415">
        <ele>83.6</ele>
        <time>2025-09-25T16:42:42Z</time>
      </trkpt>
      <trkpt lat="48.38576" lon="-4.59417">
        <ele>83.8</ele>
        <time>2025-09-25T16:42:43Z</time>
      </trkpt>
      <trkpt lat="48.38568" lon="-4.59421">
        <ele>84.2</ele>
        <time>2025-09-25T16:42:48Z</time>
      </trkpt>
      <trkpt lat="48.38562" lon="-4.59424">
        <ele>84.8</ele>
        <time>2025-09-25T16:42:52Z</time>
      </trkpt>
      <trkpt lat="48.3856" lon="-4.59426">
        <ele>85</ele>
        <time>2025-09-25T16:42:54Z</time>
      </trkpt>
      <trkpt lat="48.38554" lon="-4.59428">
        <ele>85.4</ele>
        <time>2025-09-25T16:42:58Z</time>
      </trkpt>
      <trkpt lat="48.38547" lon="-4.59429">
        <ele>85.8</ele>
        <time>2025-09-25T16:43:02Z</time>
      </trkpt>
      <trkpt lat="48.38546" lon="-4.59429">
        <ele>85.8</ele>
        <time>2025-09-25T16:43:03Z</time>
      </trkpt>
      <trkpt lat="48.38536" lon="-4.59432">
        <ele>86.2</ele>
        <time>2025-09-25T16:43:09Z</time>
      </trkpt>
      <trkpt lat="48.38527" lon="-4.59439">
        <ele>86.8</ele>
        <time>2025-09-25T16:43:15Z</time>
      </trkpt>
      <trkpt lat="48.38525" lon="-4.59442">
        <ele>86.8</ele>
        <time>2025-09-25T16:43:17Z</time>
      </trkpt>
      <trkpt lat="48.38518" lon="-4.59445">
        <ele>87</ele>
        <time>2025-09-25T16:43:21Z</time>
      </trkpt>
      <trkpt lat="48.38505" lon="-4.59451">
        <ele>87.4</ele>
        <time>2025-09-25T16:43:29Z</time>
      </trkpt>
      <trkpt lat="48.38502" lon="-4.59448">
        <ele>87.2</ele>
        <time>2025-09-25T16:43:34Z</time>
      </trkpt>
      <trkpt lat="48.38505" lon="-4.59449">
        <ele>87.2</ele>
        <time>2025-09-25T16:43:36Z</time>
      </trkpt>
      <trkpt lat="48.38508" lon="-4.59454">
        <ele>87.4</ele>
        <time>2025-09-25T16:43:38Z</time>
      </trkpt>
      <trkpt lat="48.38509" lon="-4.59463">
        <ele>87.8</ele>
        <time>2025-09-25T16:43:40Z</time>
      </trkpt>
      <trkpt lat="48.38509" lon="-4.59471">
        <ele>88.4</ele>
        <time>2025-09-25T16:43:42Z</time>
      </trkpt>
      <trkpt lat="48.38509" lon="-4.59478">
        <ele>89</ele>
        <time>2025-09-25T16:43:44Z</time>
      </trkpt>
      <trkpt lat="48.38509" lon="-4.59489">
        <ele>90</ele>
        <time>2025-09-25T16:43:47Z</time>
      </trkpt>
      <trkpt lat="48.38509" lon="-4.59492">
        <ele>90.2</ele>
        <time>2025-09-25T16:43:48Z</time>
      </trkpt>
      <trkpt lat="48.38509" lon="-4.59498">
        <ele>90.6</ele>
        <time>2025-09-25T16:43:50Z</time>
      </trkpt>
      <trkpt lat="48.38511" lon="-4.59501">
        <ele>90.8</ele>
        <time>2025-09-25T16:43:51Z</time>
      </trkpt>
      <trkpt lat="48.38514" lon="-4.59505">
        <ele>91.2</ele>
        <time>2025-09-25T16:43:54Z</time>
      </trkpt>
      <trkpt lat="48.38514" lon="-4.59506">
        <ele>91.2</ele>
        <time>2025-09-25T16:43:55Z</time>
      </trkpt>
      <trkpt lat="48.38514" lon="-4.59506">
        <ele>91.4</ele>
        <time>2025-09-25T16:43:57Z</time>
      </trkpt>
      <trkpt lat="48.38514" lon="-4.59508">
        <ele>91.2</ele>
        <time>2025-09-25T16:45:22Z</time>
      </trkpt>
      <trkpt lat="48.38513" lon="-4.5951">
        <ele>91.2</ele>
        <time>2025-09-25T16:45:23Z</time>
      </trkpt>
      <trkpt lat="48.38511" lon="-4.5951">
        <ele>91.2</ele>
        <time>2025-09-25T16:45:24Z</time>
      </trkpt>
      <trkpt lat="48.38509" lon="-4.59506">
        <ele>91.2</ele>
        <time>2025-09-25T16:45:26Z</time>
      </trkpt>
      <trkpt lat="48.38508" lon="-4.59503">
        <ele>91</ele>
        <time>2025-09-25T16:45:27Z</time>
      </trkpt>
      <trkpt lat="48.38509" lon="-4.59484">
        <ele>90</ele>
        <time>2025-09-25T16:45:31Z</time>
      </trkpt>
      <trkpt lat="48.38511" lon="-4.59463">
        <ele>88.6</ele>
        <time>2025-09-25T16:45:34Z</time>
      </trkpt>
      <trkpt lat="48.3851" lon="-4.59452">
        <ele>87.6</ele>
        <time>2025-09-25T16:45:36Z</time>
      </trkpt>
      <trkpt lat="48.38507" lon="-4.59449">
        <ele>87.4</ele>
        <time>2025-09-25T16:45:37Z</time>
      </trkpt>
      <trkpt lat="48.38504" lon="-4.59449">
        <ele>87.4</ele>
        <time>2025-09-25T16:45:38Z</time>
      </trkpt>
      <trkpt lat="48.38502" lon="-4.5945">
        <ele>87.4</ele>
        <time>2025-09-25T16:45:39Z</time>
      </trkpt>
      <trkpt lat="48.38487" lon="-4.5946">
        <ele>88</ele>
        <time>2025-09-25T16:45:44Z</time>
      </trkpt>
      <trkpt lat="48.38475" lon="-4.59468">
        <ele>88.6</ele>
        <time>2025-09-25T16:45:48Z</time>
      </trkpt>
      <trkpt lat="48.38464" lon="-4.59476">
        <ele>89.2</ele>
        <time>2025-09-25T16:45:52Z</time>
      </trkpt>
      <trkpt lat="48.38455" lon="-4.59481">
        <ele>89.8</ele>
        <time>2025-09-25T16:45:55Z</time>
      </trkpt>
      <trkpt lat="48.3845" lon="-4.59485">
        <ele>90.2</ele>
        <time>2025-09-25T16:45:57Z</time>
      </trkpt>
      <trkpt lat="48.3844" lon="-4.59495">
        <ele>90.8</ele>
        <time>2025-09-25T16:46:01Z</time>
      </trkpt>
      <trkpt lat="48.3843" lon="-4.59507">
        <ele>91.2</ele>
        <time>2025-09-25T16:46:05Z</time>
      </trkpt>
      <trkpt lat="48.38409" lon="-4.59532">
        <ele>91.6</ele>
        <time>2025-09-25T16:46:13Z</time>
      </trkpt>
      <trkpt lat="48.38395" lon="-4.59554">
        <ele>91.8</ele>
        <time>2025-09-25T16:46:18Z</time>
      </trkpt>
      <trkpt lat="48.38388" lon="-4.59567">
        <ele>92.2</ele>
        <time>2025-09-25T16:46:21Z</time>
      </trkpt>
      <trkpt lat="48.38376" lon="-4.59587">
        <ele>92.6</ele>
        <time>2025-09-25T16:46:28Z</time>
      </trkpt>
      <trkpt lat="48.38371" lon="-4.59596">
        <ele>92.6</ele>
        <time>2025-09-25T16:46:33Z</time>
      </trkpt>
      <trkpt lat="48.3837" lon="-4.59597">
        <ele>92.4</ele>
        <time>2025-09-25T16:46:34Z</time>
      </trkpt>
      <trkpt lat="48.38363" lon="-4.59611">
        <ele>92</ele>
        <time>2025-09-25T16:46:39Z</time>
      </trkpt>
      <trkpt lat="48.38352" lon="-4.59641">
        <ele>91.4</ele>
        <time>2025-09-25T16:46:45Z</time>
      </trkpt>
      <trkpt lat="48.38345" lon="-4.59676">
        <ele>91.8</ele>
        <time>2025-09-25T16:46:52Z</time>
      </trkpt>
      <trkpt lat="48.3834" lon="-4.59712">
        <ele>92</ele>
        <time>2025-09-25T16:46:59Z</time>
      </trkpt>
      <trkpt lat="48.38337" lon="-4.59736">
        <ele>92.2</ele>
        <time>2025-09-25T16:47:05Z</time>
      </trkpt>
      <trkpt lat="48.38335" lon="-4.59762">
        <ele>92.2</ele>
        <time>2025-09-25T16:47:11Z</time>
      </trkpt>
      <trkpt lat="48.38338" lon="-4.59784">
        <ele>92.8</ele>
        <time>2025-09-25T16:47:17Z</time>
      </trkpt>
      <trkpt lat="48.3833" lon="-4.59799">
        <ele>92.2</ele>
        <time>2025-09-25T16:47:21Z</time>
      </trkpt>
      <trkpt lat="48.38314" lon="-4.59825">
        <ele>91.6</ele>
        <time>2025-09-25T16:47:27Z</time>
      </trkpt>
      <trkpt lat="48.38301" lon="-4.59847">
        <ele>90.8</ele>
        <time>2025-09-25T16:47:31Z</time>
      </trkpt>
      <trkpt lat="48.38297" lon="-4.59852">
        <ele>90.4</ele>
        <time>2025-09-25T16:47:32Z</time>
      </trkpt>
      <trkpt lat="48.38283" lon="-4.59866">
        <ele>89.4</ele>
        <time>2025-09-25T16:47:35Z</time>
      </trkpt>
      <trkpt lat="48.38278" lon="-4.5987">
        <ele>89.2</ele>
        <time>2025-09-25T16:47:36Z</time>
      </trkpt>
      <trkpt lat="48.38268" lon="-4.59879">
        <ele>88.4</ele>
        <time>2025-09-25T16:47:38Z</time>
      </trkpt>
      <trkpt lat="48.38256" lon="-4.59886">
        <ele>87.6</ele>
        <time>2025-09-25T16:47:40Z</time>
      </trkpt>
      <trkpt lat="48.38249" lon="-4.59888">
        <ele>87.2</ele>
        <time>2025-09-25T16:47:41Z</time>
      </trkpt>
      <trkpt lat="48.38235" lon="-4.59892">
        <ele>86.6</ele>
        <time>2025-09-25T16:47:43Z</time>
      </trkpt>
      <trkpt lat="48.3822" lon="-4.59893">
        <ele>85.8</ele>
        <time>2025-09-25T16:47:45Z</time>
      </trkpt>
      <trkpt lat="48.38212" lon="-4.59892">
        <ele>85.2</ele>
        <time>2025-09-25T16:47:46Z</time>
      </trkpt>
      <trkpt lat="48.38205" lon="-4.59891">
        <ele>84.8</ele>
        <time>2025-09-25T16:47:47Z</time>
      </trkpt>
      <trkpt lat="48.3819" lon="-4.59885">
        <ele>83.8</ele>
        <time>2025-09-25T16:47:49Z</time>
      </trkpt>
      <trkpt lat="48.38183" lon="-4.59881">
        <ele>83.6</ele>
        <time>2025-09-25T16:47:50Z</time>
      </trkpt>
      <trkpt lat="48.38175" lon="-4.59878">
        <ele>83.2</ele>
        <time>2025-09-25T16:47:51Z</time>
      </trkpt>
      <trkpt lat="48.38159" lon="-4.59872">
        <ele>82.4</ele>
        <time>2025-09-25T16:47:53Z</time>
      </trkpt>
      <trkpt lat="48.38152" lon="-4.59871">
        <ele>82.2</ele>
        <time>2025-09-25T16:47:54Z</time>
      </trkpt>
      <trkpt lat="48.38136" lon="-4.59866">
        <ele>81.6</ele>
        <time>2025-09-25T16:47:56Z</time>
      </trkpt>
      <trkpt lat="48.38128" lon="-4.59862">
        <ele>81.4</ele>
        <time>2025-09-25T16:47:57Z</time>
      </trkpt>
      <trkpt lat="48.38113" lon="-4.59853">
        <ele>80.6</ele>
        <time>2025-09-25T16:47:59Z</time>
      </trkpt>
      <trkpt lat="48.38105" lon="-4.59848">
        <ele>80.2</ele>
        <time>2025-09-25T16:48:00Z</time>
      </trkpt>
      <trkpt lat="48.38097" lon="-4.59844">
        <ele>80.2</ele>
        <time>2025-09-25T16:48:01Z</time>
      </trkpt>
      <trkpt lat="48.38059" lon="-4.59825">
        <ele>80.8</ele>
        <time>2025-09-25T16:48:06Z</time>
      </trkpt>
      <trkpt lat="48.38038" lon="-4.59816">
        <ele>80.4</ele>
        <time>2025-09-25T16:48:09Z</time>
      </trkpt>
      <trkpt lat="48.38014" lon="-4.59807">
        <ele>80.6</ele>
        <time>2025-09-25T16:48:13Z</time>
      </trkpt>
      <trkpt lat="48.38002" lon="-4.59809">
        <ele>81.2</ele>
        <time>2025-09-25T16:48:15Z</time>
      </trkpt>
      <trkpt lat="48.37997" lon="-4.59812">
        <ele>81.4</ele>
        <time>2025-09-25T16:48:16Z</time>
      </trkpt>
      <trkpt lat="48.37992" lon="-4.59816">
        <ele>81.6</ele>
        <time>2025-09-25T16:48:17Z</time>
      </trkpt>
      <trkpt lat="48.37984" lon="-4.59825">
        <ele>81.6</ele>
        <time>2025-09-25T16:48:19Z</time>
      </trkpt>
      <trkpt lat="48.37962" lon="-4.59858">
        <ele>81.8</ele>
        <time>2025-09-25T16:48:26Z</time>
      </trkpt>
      <trkpt lat="48.37942" lon="-4.59888">
        <ele>80.8</ele>
        <time>2025-09-25T16:48:32Z</time>
      </trkpt>
      <trkpt lat="48.37939" lon="-4.59894">
        <ele>80.4</ele>
        <time>2025-09-25T16:48:33Z</time>
      </trkpt>
      <trkpt lat="48.37921" lon="-4.59917">
        <ele>79.2</ele>
        <time>2025-09-25T16:48:37Z</time>
      </trkpt>
      <trkpt lat="48.37917" lon="-4.59923">
        <ele>79</ele>
        <time>2025-09-25T16:48:38Z</time>
      </trkpt>
      <trkpt lat="48.37896" lon="-4.59953">
        <ele>78.2</ele>
        <time>2025-09-25T16:48:43Z</time>
      </trkpt>
      <trkpt lat="48.37892" lon="-4.59957">
        <ele>77.6</ele>
        <time>2025-09-25T16:48:44Z</time>
      </trkpt>
      <trkpt lat="48.37886" lon="-4.59958">
        <ele>77</ele>
        <time>2025-09-25T16:48:45Z</time>
      </trkpt>
      <trkpt lat="48.37882" lon="-4.59957">
        <ele>76.8</ele>
        <time>2025-09-25T16:48:46Z</time>
      </trkpt>
      <trkpt lat="48.37879" lon="-4.59954">
        <ele>76.6</ele>
        <time>2025-09-25T16:48:47Z</time>
      </trkpt>
      <trkpt lat="48.37873" lon="-4.59943">
        <ele>77</ele>
        <time>2025-09-25T16:48:50Z</time>
      </trkpt>
      <trkpt lat="48.37859" lon="-4.59927">
        <ele>77.4</ele>
        <time>2025-09-25T16:48:56Z</time>
      </trkpt>
      <trkpt lat="48.37848" lon="-4.59916">
        <ele>77.2</ele>
        <time>2025-09-25T16:49:00Z</time>
      </trkpt>
      <trkpt lat="48.37845" lon="-4.59913">
        <ele>77</ele>
        <time>2025-09-25T16:49:01Z</time>
      </trkpt>
      <trkpt lat="48.37835" lon="-4.59903">
        <ele>77.2</ele>
        <time>2025-09-25T16:49:04Z</time>
      </trkpt>
      <trkpt lat="48.37814" lon="-4.59882">
        <ele>77.4</ele>
        <time>2025-09-25T16:49:10Z</time>
      </trkpt>
      <trkpt lat="48.37797" lon="-4.59857">
        <ele>77.6</ele>
        <time>2025-09-25T16:49:16Z</time>
      </trkpt>
      <trkpt lat="48.37782" lon="-4.59836">
        <ele>78</ele>
        <time>2025-09-25T16:49:22Z</time>
      </trkpt>
      <trkpt lat="48.3778" lon="-4.59833">
        <ele>78</ele>
        <time>2025-09-25T16:49:23Z</time>
      </trkpt>
      <trkpt lat="48.37767" lon="-4.59822">
        <ele>78.2</ele>
        <time>2025-09-25T16:49:27Z</time>
      </trkpt>
      <trkpt lat="48.37763" lon="-4.59819">
        <ele>78.2</ele>
        <time>2025-09-25T16:49:28Z</time>
      </trkpt>
      <trkpt lat="48.37743" lon="-4.59797">
        <ele>78.2</ele>
        <time>2025-09-25T16:49:34Z</time>
      </trkpt>
      <trkpt lat="48.37719" lon="-4.59779">
        <ele>78.4</ele>
        <time>2025-09-25T16:49:41Z</time>
      </trkpt>
      <trkpt lat="48.37692" lon="-4.5976">
        <ele>78.8</ele>
        <time>2025-09-25T16:49:49Z</time>
      </trkpt>
      <trkpt lat="48.37674" lon="-4.59748">
        <ele>78.8</ele>
        <time>2025-09-25T16:49:54Z</time>
      </trkpt>
      <trkpt lat="48.37669" lon="-4.59744">
        <ele>78.8</ele>
        <time>2025-09-25T16:49:55Z</time>
      </trkpt>
      <trkpt lat="48.37654" lon="-4.59732">
        <ele>78.8</ele>
        <time>2025-09-25T16:49:59Z</time>
      </trkpt>
      <trkpt lat="48.3763" lon="-4.59713">
        <ele>78.8</ele>
        <time>2025-09-25T16:50:06Z</time>
      </trkpt>
      <trkpt lat="48.37609" lon="-4.59696">
        <ele>79</ele>
        <time>2025-09-25T16:50:12Z</time>
      </trkpt>
      <trkpt lat="48.37596" lon="-4.59688">
        <ele>79.4</ele>
        <time>2025-09-25T16:50:15Z</time>
      </trkpt>
      <trkpt lat="48.37586" lon="-4.59674">
        <ele>79.8</ele>
        <time>2025-09-25T16:50:19Z</time>
      </trkpt>
      <trkpt lat="48.37577" lon="-4.59669">
        <ele>80.2</ele>
        <time>2025-09-25T16:50:22Z</time>
      </trkpt>
      <trkpt lat="48.37571" lon="-4.59667">
        <ele>80</ele>
        <time>2025-09-25T16:50:24Z</time>
      </trkpt>
      <trkpt lat="48.37556" lon="-4.59657">
        <ele>80</ele>
        <time>2025-09-25T16:50:30Z</time>
      </trkpt>
      <trkpt lat="48.37534" lon="-4.5964">
        <ele>80.2</ele>
        <time>2025-09-25T16:50:37Z</time>
      </trkpt>
      <trkpt lat="48.3753" lon="-4.59637">
        <ele>80.4</ele>
        <time>2025-09-25T16:50:38Z</time>
      </trkpt>
      <trkpt lat="48.37527" lon="-4.59635">
        <ele>80.6</ele>
        <time>2025-09-25T16:50:39Z</time>
      </trkpt>
      <trkpt lat="48.37524" lon="-4.59632">
        <ele>80.6</ele>
        <time>2025-09-25T16:50:40Z</time>
      </trkpt>
      <trkpt lat="48.37514" lon="-4.59624">
        <ele>81.2</ele>
        <time>2025-09-25T16:50:43Z</time>
      </trkpt>
      <trkpt lat="48.37503" lon="-4.59614">
        <ele>81.6</ele>
        <time>2025-09-25T16:50:47Z</time>
      </trkpt>
      <trkpt lat="48.37495" lon="-4.59609">
        <ele>82</ele>
        <time>2025-09-25T16:50:50Z</time>
      </trkpt>
      <trkpt lat="48.37493" lon="-4.59607">
        <ele>82.2</ele>
        <time>2025-09-25T16:50:51Z</time>
      </trkpt>
      <trkpt lat="48.37478" lon="-4.59591">
        <ele>82.8</ele>
        <time>2025-09-25T16:50:57Z</time>
      </trkpt>
      <trkpt lat="48.3747" lon="-4.59581">
        <ele>83.2</ele>
        <time>2025-09-25T16:51:00Z</time>
      </trkpt>
      <trkpt lat="48.37461" lon="-4.5957">
        <ele>83.8</ele>
        <time>2025-09-25T16:51:04Z</time>
      </trkpt>
      <trkpt lat="48.3745" lon="-4.59552">
        <ele>84.4</ele>
        <time>2025-09-25T16:51:09Z</time>
      </trkpt>
      <trkpt lat="48.37448" lon="-4.59545">
        <ele>84.6</ele>
        <time>2025-09-25T16:51:11Z</time>
      </trkpt>
      <trkpt lat="48.37437" lon="-4.59521">
        <ele>85</ele>
        <time>2025-09-25T16:51:17Z</time>
      </trkpt>
      <trkpt lat="48.3743" lon="-4.59502">
        <ele>85.4</ele>
        <time>2025-09-25T16:51:21Z</time>
      </trkpt>
      <trkpt lat="48.37429" lon="-4.59498">
        <ele>85.4</ele>
        <time>2025-09-25T16:51:22Z</time>
      </trkpt>
      <trkpt lat="48.37422" lon="-4.59477">
        <ele>86</ele>
        <time>2025-09-25T16:51:27Z</time>
      </trkpt>
      <trkpt lat="48.37417" lon="-4.59463">
        <ele>86.4</ele>
        <time>2025-09-25T16:51:31Z</time>
      </trkpt>
      <trkpt lat="48.37414" lon="-4.59451">
        <ele>86.8</ele>
        <time>2025-09-25T16:51:34Z</time>
      </trkpt>
      <trkpt lat="48.37409" lon="-4.59437">
        <ele>87.4</ele>
        <time>2025-09-25T16:51:39Z</time>
      </trkpt>
      <trkpt lat="48.37408" lon="-4.59428">
        <ele>87.6</ele>
        <time>2025-09-25T16:51:41Z</time>
      </trkpt>
      <trkpt lat="48.37406" lon="-4.59415">
        <ele>87.6</ele>
        <time>2025-09-25T16:51:44Z</time>
      </trkpt>
      <trkpt lat="48.37401" lon="-4.59396">
        <ele>88.6</ele>
        <time>2025-09-25T16:51:50Z</time>
      </trkpt>
      <trkpt lat="48.37401" lon="-4.59393">
        <ele>88.6</ele>
        <time>2025-09-25T16:51:51Z</time>
      </trkpt>
      <trkpt lat="48.37396" lon="-4.59374">
        <ele>89.4</ele>
        <time>2025-09-25T16:51:58Z</time>
      </trkpt>
      <trkpt lat="48.37394" lon="-4.59366">
        <ele>89.6</ele>
        <time>2025-09-25T16:52:01Z</time>
      </trkpt>
      <trkpt lat="48.3739" lon="-4.59351">
        <ele>90</ele>
        <time>2025-09-25T16:52:06Z</time>
      </trkpt>
      <trkpt lat="48.37384" lon="-4.59334">
        <ele>90.4</ele>
        <time>2025-09-25T16:52:13Z</time>
      </trkpt>
      <trkpt lat="48.37382" lon="-4.59323">
        <ele>90.6</ele>
        <time>2025-09-25T16:52:17Z</time>
      </trkpt>
      <trkpt lat="48.37379" lon="-4.59315">
        <ele>91</ele>
        <time>2025-09-25T16:52:20Z</time>
      </trkpt>
      <trkpt lat="48.37374" lon="-4.59295">
        <ele>91.4</ele>
        <time>2025-09-25T16:52:27Z</time>
      </trkpt>
      <trkpt lat="48.37369" lon="-4.59282">
        <ele>91.8</ele>
        <time>2025-09-25T16:52:32Z</time>
      </trkpt>
      <trkpt lat="48.37366" lon="-4.59275">
        <ele>92</ele>
        <time>2025-09-25T16:52:35Z</time>
      </trkpt>
      <trkpt lat="48.37356" lon="-4.59262">
        <ele>92.2</ele>
        <time>2025-09-25T16:52:42Z</time>
      </trkpt>
      <trkpt lat="48.37352" lon="-4.59258">
        <ele>92.6</ele>
        <time>2025-09-25T16:52:45Z</time>
      </trkpt>
      <trkpt lat="48.37348" lon="-4.59255">
        <ele>92.6</ele>
        <time>2025-09-25T16:52:47Z</time>
      </trkpt>
      <trkpt lat="48.3734" lon="-4.59247">
        <ele>92.8</ele>
        <time>2025-09-25T16:52:52Z</time>
      </trkpt>
      <trkpt lat="48.37338" lon="-4.59246">
        <ele>92.8</ele>
        <time>2025-09-25T16:52:53Z</time>
      </trkpt>
      <trkpt lat="48.3733" lon="-4.5924">
        <ele>92.8</ele>
        <time>2025-09-25T16:52:57Z</time>
      </trkpt>
      <trkpt lat="48.37328" lon="-4.59239">
        <ele>92.8</ele>
        <time>2025-09-25T16:52:58Z</time>
      </trkpt>
      <trkpt lat="48.37318" lon="-4.59231">
        <ele>93</ele>
        <time>2025-09-25T16:53:04Z</time>
      </trkpt>
      <trkpt lat="48.37316" lon="-4.59228">
        <ele>93.2</ele>
        <time>2025-09-25T16:53:06Z</time>
      </trkpt>
      <trkpt lat="48.37311" lon="-4.59226">
        <ele>93.2</ele>
        <time>2025-09-25T16:53:08Z</time>
      </trkpt>
      <trkpt lat="48.373" lon="-4.59217">
        <ele>93.2</ele>
        <time>2025-09-25T16:53:14Z</time>
      </trkpt>
      <trkpt lat="48.37287" lon="-4.59207">
        <ele>93.2</ele>
        <time>2025-09-25T16:53:20Z</time>
      </trkpt>
      <trkpt lat="48.37273" lon="-4.59198">
        <ele>93.4</ele>
        <time>2025-09-25T16:53:26Z</time>
      </trkpt>
      <trkpt lat="48.37256" lon="-4.59186">
        <ele>93.4</ele>
        <time>2025-09-25T16:53:32Z</time>
      </trkpt>
      <trkpt lat="48.3725" lon="-4.59181">
        <ele>93.6</ele>
        <time>2025-09-25T16:53:34Z</time>
      </trkpt>
      <trkpt lat="48.37243" lon="-4.59177">
        <ele>93.4</ele>
        <time>2025-09-25T16:53:36Z</time>
      </trkpt>
      <trkpt lat="48.3724" lon="-4.59175">
        <ele>93.6</ele>
        <time>2025-09-25T16:53:37Z</time>
      </trkpt>
      <trkpt lat="48.37237" lon="-4.59172">
        <ele>93.6</ele>
        <time>2025-09-25T16:53:38Z</time>
      </trkpt>
      <trkpt lat="48.37235" lon="-4.5917">
        <ele>93.6</ele>
        <time>2025-09-25T16:53:39Z</time>
      </trkpt>
      <trkpt lat="48.3723" lon="-4.59165">
        <ele>93.6</ele>
        <time>2025-09-25T16:53:41Z</time>
      </trkpt>
      <trkpt lat="48.37228" lon="-4.59158">
        <ele>93.6</ele>
        <time>2025-09-25T16:53:43Z</time>
      </trkpt>
      <trkpt lat="48.37226" lon="-4.5915">
        <ele>93.6</ele>
        <time>2025-09-25T16:53:45Z</time>
      </trkpt>
      <trkpt lat="48.37227" lon="-4.59123">
        <ele>93.8</ele>
        <time>2025-09-25T16:53:53Z</time>
      </trkpt>
      <trkpt lat="48.37227" lon="-4.59122">
        <ele>94</ele>
        <time>2025-09-25T16:53:54Z</time>
      </trkpt>
      <trkpt lat="48.3722" lon="-4.59114">
        <ele>94</ele>
        <time>2025-09-25T16:53:58Z</time>
      </trkpt>
      <trkpt lat="48.37213" lon="-4.59113">
        <ele>94</ele>
        <time>2025-09-25T16:54:01Z</time>
      </trkpt>
      <trkpt lat="48.37211" lon="-4.59115">
        <ele>94</ele>
        <time>2025-09-25T16:54:02Z</time>
      </trkpt>
      <trkpt lat="48.37197" lon="-4.59115">
        <ele>94.2</ele>
        <time>2025-09-25T16:54:07Z</time>
      </trkpt>
      <trkpt lat="48.37186" lon="-4.59102">
        <ele>93.8</ele>
        <time>2025-09-25T16:54:11Z</time>
      </trkpt>
      <trkpt lat="48.37172" lon="-4.59079">
        <ele>93.8</ele>
        <time>2025-09-25T16:54:18Z</time>
      </trkpt>
      <trkpt lat="48.3716" lon="-4.59055">
        <ele>93.8</ele>
        <time>2025-09-25T16:54:25Z</time>
      </trkpt>
      <trkpt lat="48.3715" lon="-4.59041">
        <ele>93.6</ele>
        <time>2025-09-25T16:54:29Z</time>
      </trkpt>
      <trkpt lat="48.37148" lon="-4.59037">
        <ele>93.6</ele>
        <time>2025-09-25T16:54:30Z</time>
      </trkpt>
      <trkpt lat="48.37137" lon="-4.59021">
        <ele>93.4</ele>
        <time>2025-09-25T16:54:34Z</time>
      </trkpt>
      <trkpt lat="48.37132" lon="-4.59014">
        <ele>93.2</ele>
        <time>2025-09-25T16:54:36Z</time>
      </trkpt>
      <trkpt lat="48.37129" lon="-4.5901">
        <ele>93.2</ele>
        <time>2025-09-25T16:54:37Z</time>
      </trkpt>
      <trkpt lat="48.37121" lon="-4.58999">
        <ele>92.8</ele>
        <time>2025-09-25T16:54:40Z</time>
      </trkpt>
      <trkpt lat="48.37117" lon="-4.58995">
        <ele>92.8</ele>
        <time>2025-09-25T16:54:42Z</time>
      </trkpt>
      <trkpt lat="48.37114" lon="-4.58996">
        <ele>92.8</ele>
        <time>2025-09-25T16:54:43Z</time>
      </trkpt>
      <trkpt lat="48.37111" lon="-4.59001">
        <ele>92.8</ele>
        <time>2025-09-25T16:54:45Z</time>
      </trkpt>
      <trkpt lat="48.37099" lon="-4.59005">
        <ele>92.2</ele>
        <time>2025-09-25T16:54:49Z</time>
      </trkpt>
      <trkpt lat="48.37092" lon="-4.58991">
        <ele>91.8</ele>
        <time>2025-09-25T16:54:53Z</time>
      </trkpt>
      <trkpt lat="48.3708" lon="-4.58977">
        <ele>91.8</ele>
        <time>2025-09-25T16:54:58Z</time>
      </trkpt>
      <trkpt lat="48.37069" lon="-4.58967">
        <ele>91.4</ele>
        <time>2025-09-25T16:55:02Z</time>
      </trkpt>
      <trkpt lat="48.37062" lon="-4.58961">
        <ele>91</ele>
        <time>2025-09-25T16:55:04Z</time>
      </trkpt>
      <trkpt lat="48.37054" lon="-4.58954">
        <ele>90.6</ele>
        <time>2025-09-25T16:55:06Z</time>
      </trkpt>
      <trkpt lat="48.37022" lon="-4.58925">
        <ele>89.4</ele>
        <time>2025-09-25T16:55:13Z</time>
      </trkpt>
      <trkpt lat="48.3701" lon="-4.58916">
        <ele>89</ele>
        <time>2025-09-25T16:55:16Z</time>
      </trkpt>
      <trkpt lat="48.37002" lon="-4.58913">
        <ele>89.2</ele>
        <time>2025-09-25T16:55:18Z</time>
      </trkpt>
      <trkpt lat="48.36991" lon="-4.58908">
        <ele>88.8</ele>
        <time>2025-09-25T16:55:22Z</time>
      </trkpt>
      <trkpt lat="48.36989" lon="-4.58907">
        <ele>88.8</ele>
        <time>2025-09-25T16:55:23Z</time>
      </trkpt>
      <trkpt lat="48.36983" lon="-4.58904">
        <ele>88.4</ele>
        <time>2025-09-25T16:55:26Z</time>
      </trkpt>
      <trkpt lat="48.3698" lon="-4.58903">
        <ele>88.4</ele>
        <time>2025-09-25T16:55:27Z</time>
      </trkpt>
      <trkpt lat="48.36979" lon="-4.58901">
        <ele>88.2</ele>
        <time>2025-09-25T16:55:28Z</time>
      </trkpt>
      <trkpt lat="48.36973" lon="-4.58893">
        <ele>87.8</ele>
        <time>2025-09-25T16:55:33Z</time>
      </trkpt>
      <trkpt lat="48.36966" lon="-4.58892">
        <ele>87.6</ele>
        <time>2025-09-25T16:55:37Z</time>
      </trkpt>
      <trkpt lat="48.36965" lon="-4.58891">
        <ele>87.6</ele>
        <time>2025-09-25T16:55:38Z</time>
      </trkpt>
      <trkpt lat="48.36961" lon="-4.58888">
        <ele>87.4</ele>
        <time>2025-09-25T16:55:40Z</time>
      </trkpt>
      <trkpt lat="48.36954" lon="-4.5888">
        <ele>86.6</ele>
        <time>2025-09-25T16:55:44Z</time>
      </trkpt>
      <trkpt lat="48.36945" lon="-4.58869">
        <ele>86.2</ele>
        <time>2025-09-25T16:55:48Z</time>
      </trkpt>
      <trkpt lat="48.3693" lon="-4.58857">
        <ele>85.6</ele>
        <time>2025-09-25T16:55:53Z</time>
      </trkpt>
      <trkpt lat="48.36924" lon="-4.58853">
        <ele>85.4</ele>
        <time>2025-09-25T16:55:55Z</time>
      </trkpt>
    </trkseg>
  </trk>
</gpx>